<?xml version="1.0" encoding="UTF-8"?>
<gpx version="1.1" creator=" " xmlns="http://www.topografix.com/GPX/1/1" xmlns:xsi="http://www.w3.org/2001/XMLSchema-instance" xsi:schemaLocation="http://www.topografix.com/GPX/1/1 http://www.topografix.com/GPX/1/1/gpx.xsd">
<metadata>
<name>Wertheim</name>
<desc></desc>
<link href="">
<text>  </text>
</link>
<time>2024-05-11T08:57:01Z</time>
</metadata>
<trk>
<trkseg>
<trkpt lat="49.52330393716693" lon="9.32145969942212">
<ele>331.4</ele>
</trkpt>
<trkpt lat="49.52330393716693" lon="9.32145969942212">
<ele>331.4</ele>
<time>2024-05-11T08:57:01Z</time>
</trkpt>
<trkpt lat="49.52330393716693" lon="9.321458777412772">
<ele>331.4</ele>
<time>2024-05-11T08:57:03Z</time>
</trkpt>
<trkpt lat="49.52330393716693" lon="9.321456849575045">
<ele>331.6</ele>
<time>2024-05-11T08:57:11Z</time>
</trkpt>
<trkpt lat="49.52330393716693" lon="9.321458777412772">
<ele>331.8</ele>
<time>2024-05-11T08:57:18Z</time>
</trkpt>
<trkpt lat="49.52330393716693" lon="9.32145969942212">
<ele>332</ele>
<time>2024-05-11T08:57:23Z</time>
</trkpt>
<trkpt lat="49.5233001653105" lon="9.32145969942212">
<ele>332</ele>
<time>2024-05-11T08:57:27Z</time>
</trkpt>
<trkpt lat="49.52330393716693" lon="9.32145969942212">
<ele>332.2</ele>
<time>2024-05-11T08:57:30Z</time>
</trkpt>
<trkpt lat="49.52330393716693" lon="9.32146162725985">
<ele>332.4</ele>
<time>2024-05-11T08:57:32Z</time>
</trkpt>
<trkpt lat="49.52330393716693" lon="9.32146355509758">
<ele>332.4</ele>
<time>2024-05-11T08:57:35Z</time>
</trkpt>
<trkpt lat="49.52330779284239" lon="9.32146355509758">
<ele>332.6</ele>
<time>2024-05-11T08:57:40Z</time>
</trkpt>
<trkpt lat="49.52330779284239" lon="9.321464477106929">
<ele>332.6</ele>
<time>2024-05-11T08:57:42Z</time>
</trkpt>
<trkpt lat="49.523311564698815" lon="9.321466404944658">
<ele>332.8</ele>
<time>2024-05-11T08:57:45Z</time>
</trkpt>
<trkpt lat="49.523311564698815" lon="9.321468332782388">
<ele>332.8</ele>
<time>2024-05-11T08:57:48Z</time>
</trkpt>
<trkpt lat="49.523311564698815" lon="9.321470260620115">
<ele>332.8</ele>
<time>2024-05-11T08:57:50Z</time>
</trkpt>
<trkpt lat="49.523311564698815" lon="9.321471182629466">
<ele>332.8</ele>
<time>2024-05-11T08:57:51Z</time>
</trkpt>
<trkpt lat="49.523311564698815" lon="9.321473110467196">
<ele>332.8</ele>
<time>2024-05-11T08:57:53Z</time>
</trkpt>
<trkpt lat="49.523311564698815" lon="9.321474954485891">
<ele>332.8</ele>
<time>2024-05-11T08:57:55Z</time>
</trkpt>
<trkpt lat="49.523311564698815" lon="9.321476882323624">
<ele>332.8</ele>
<time>2024-05-11T08:57:59Z</time>
</trkpt>
<trkpt lat="49.523311564698815" lon="9.321474954485891">
<ele>333</ele>
<time>2024-05-11T08:58:00Z</time>
</trkpt>
<trkpt lat="49.523311564698815" lon="9.321473110467196">
<ele>333</ele>
<time>2024-05-11T08:58:04Z</time>
</trkpt>
<trkpt lat="49.523311564698815" lon="9.321471182629466">
<ele>333</ele>
<time>2024-05-11T08:58:08Z</time>
</trkpt>
<trkpt lat="49.523311564698815" lon="9.321470260620115">
<ele>333</ele>
<time>2024-05-11T08:58:17Z</time>
</trkpt>
<trkpt lat="49.523311564698815" lon="9.321471182629466">
<ele>333</ele>
<time>2024-05-11T08:58:19Z</time>
</trkpt>
<trkpt lat="49.523311564698815" lon="9.321473110467196">
<ele>333</ele>
<time>2024-05-11T08:58:24Z</time>
</trkpt>
<trkpt lat="49.523311564698815" lon="9.321471182629466">
<ele>333</ele>
<time>2024-05-11T08:58:29Z</time>
</trkpt>
<trkpt lat="49.523311564698815" lon="9.321470260620115">
<ele>333</ele>
<time>2024-05-11T08:58:33Z</time>
</trkpt>
<trkpt lat="49.523311564698815" lon="9.321468332782388">
<ele>333</ele>
<time>2024-05-11T08:58:40Z</time>
</trkpt>
<trkpt lat="49.523311564698815" lon="9.321466404944658">
<ele>333</ele>
<time>2024-05-11T08:58:44Z</time>
</trkpt>
<trkpt lat="49.523311564698815" lon="9.321464477106929">
<ele>333</ele>
<time>2024-05-11T08:58:47Z</time>
</trkpt>
<trkpt lat="49.523311564698815" lon="9.32146355509758">
<ele>333</ele>
<time>2024-05-11T08:58:51Z</time>
</trkpt>
<trkpt lat="49.523315420374274" lon="9.32146162725985">
<ele>333</ele>
<time>2024-05-11T08:58:55Z</time>
</trkpt>
<trkpt lat="49.523315420374274" lon="9.32146355509758">
<ele>333</ele>
<time>2024-05-11T08:58:56Z</time>
</trkpt>
<trkpt lat="49.523315420374274" lon="9.321464477106929">
<ele>333</ele>
<time>2024-05-11T08:59:05Z</time>
</trkpt>
<trkpt lat="49.523315420374274" lon="9.321466404944658">
<ele>333</ele>
<time>2024-05-11T08:59:13Z</time>
</trkpt>
<trkpt lat="49.523315420374274" lon="9.321468332782388">
<ele>333</ele>
<time>2024-05-11T08:59:19Z</time>
</trkpt>
<trkpt lat="49.523315420374274" lon="9.321470260620115">
<ele>333</ele>
<time>2024-05-11T08:59:23Z</time>
</trkpt>
<trkpt lat="49.523315420374274" lon="9.321471182629466">
<ele>333</ele>
<time>2024-05-11T08:59:28Z</time>
</trkpt>
<trkpt lat="49.523315420374274" lon="9.321473110467196">
<ele>333</ele>
<time>2024-05-11T08:59:34Z</time>
</trkpt>
<trkpt lat="49.5233191922307" lon="9.321473110467196">
<ele>333</ele>
<time>2024-05-11T08:59:38Z</time>
</trkpt>
<trkpt lat="49.5233191922307" lon="9.321474954485891">
<ele>333</ele>
<time>2024-05-11T08:59:44Z</time>
</trkpt>
<trkpt lat="49.5233191922307" lon="9.321473110467196">
<ele>333</ele>
<time>2024-05-11T09:00:03Z</time>
</trkpt>
<trkpt lat="49.5233191922307" lon="9.321471182629466">
<ele>333</ele>
<time>2024-05-11T09:00:05Z</time>
</trkpt>
<trkpt lat="49.5233191922307" lon="9.321470260620115">
<ele>333</ele>
<time>2024-05-11T09:00:07Z</time>
</trkpt>
<trkpt lat="49.5233191922307" lon="9.321468332782388">
<ele>333</ele>
<time>2024-05-11T09:00:08Z</time>
</trkpt>
<trkpt lat="49.5233191922307" lon="9.321466404944658">
<ele>333</ele>
<time>2024-05-11T09:00:10Z</time>
</trkpt>
<trkpt lat="49.5233191922307" lon="9.321464477106929">
<ele>333</ele>
<time>2024-05-11T09:00:16Z</time>
</trkpt>
<trkpt lat="49.5233191922307" lon="9.32146355509758">
<ele>333</ele>
<time>2024-05-11T09:00:23Z</time>
</trkpt>
<trkpt lat="49.5233191922307" lon="9.321464477106929">
<ele>333</ele>
<time>2024-05-11T09:00:30Z</time>
</trkpt>
<trkpt lat="49.5233191922307" lon="9.32146355509758">
<ele>333</ele>
<time>2024-05-11T09:00:35Z</time>
</trkpt>
<trkpt lat="49.5233191922307" lon="9.32146162725985">
<ele>333</ele>
<time>2024-05-11T09:00:42Z</time>
</trkpt>
<trkpt lat="49.5233191922307" lon="9.32146355509758">
<ele>333</ele>
<time>2024-05-11T09:01:00Z</time>
</trkpt>
<trkpt lat="49.5233191922307" lon="9.321464477106929">
<ele>333</ele>
<time>2024-05-11T09:01:10Z</time>
</trkpt>
<trkpt lat="49.52332304790616" lon="9.321464477106929">
<ele>333</ele>
<time>2024-05-11T09:01:12Z</time>
</trkpt>
<trkpt lat="49.52332304790616" lon="9.321466404944658">
<ele>333</ele>
<time>2024-05-11T09:01:14Z</time>
</trkpt>
<trkpt lat="49.52332304790616" lon="9.321468332782388">
<ele>333</ele>
<time>2024-05-11T09:01:26Z</time>
</trkpt>
<trkpt lat="49.5233191922307" lon="9.321468332782388">
<ele>333</ele>
<time>2024-05-11T09:01:33Z</time>
</trkpt>
<trkpt lat="49.5233191922307" lon="9.321466404944658">
<ele>333</ele>
<time>2024-05-11T09:01:46Z</time>
</trkpt>
<trkpt lat="49.5233191922307" lon="9.321464477106929">
<ele>333</ele>
<time>2024-05-11T09:01:59Z</time>
</trkpt>
<trkpt lat="49.5233191922307" lon="9.321466404944658">
<ele>333</ele>
<time>2024-05-11T09:02:02Z</time>
</trkpt>
<trkpt lat="49.5233191922307" lon="9.321468332782388">
<ele>333</ele>
<time>2024-05-11T09:02:09Z</time>
</trkpt>
<trkpt lat="49.5233191922307" lon="9.321470260620115">
<ele>333</ele>
<time>2024-05-11T09:02:13Z</time>
</trkpt>
<trkpt lat="49.5233191922307" lon="9.321471182629466">
<ele>333</ele>
<time>2024-05-11T09:02:17Z</time>
</trkpt>
<trkpt lat="49.5233191922307" lon="9.321470260620115">
<ele>333</ele>
<time>2024-05-11T09:02:19Z</time>
</trkpt>
<trkpt lat="49.5233191922307" lon="9.321468332782388">
<ele>333</ele>
<time>2024-05-11T09:02:22Z</time>
</trkpt>
<trkpt lat="49.5233191922307" lon="9.321466404944658">
<ele>333</ele>
<time>2024-05-11T09:02:25Z</time>
</trkpt>
<trkpt lat="49.5233191922307" lon="9.321464477106929">
<ele>333</ele>
<time>2024-05-11T09:02:33Z</time>
</trkpt>
<trkpt lat="49.5233191922307" lon="9.32146355509758">
<ele>333</ele>
<time>2024-05-11T09:02:39Z</time>
</trkpt>
<trkpt lat="49.5233191922307" lon="9.32146162725985">
<ele>333</ele>
<time>2024-05-11T09:02:43Z</time>
</trkpt>
<trkpt lat="49.52332304790616" lon="9.32145969942212">
<ele>333</ele>
<time>2024-05-11T09:02:46Z</time>
</trkpt>
<trkpt lat="49.52332304790616" lon="9.321458777412772">
<ele>333</ele>
<time>2024-05-11T09:02:49Z</time>
</trkpt>
<trkpt lat="49.52332304790616" lon="9.321456849575045">
<ele>333</ele>
<time>2024-05-11T09:02:52Z</time>
</trkpt>
<trkpt lat="49.52332304790616" lon="9.321454921737311">
<ele>333</ele>
<time>2024-05-11T09:02:54Z</time>
</trkpt>
<trkpt lat="49.52332681976259" lon="9.321454921737311">
<ele>333</ele>
<time>2024-05-11T09:02:57Z</time>
</trkpt>
<trkpt lat="49.52332681976259" lon="9.321453077718616">
<ele>333</ele>
<time>2024-05-11T09:02:58Z</time>
</trkpt>
<trkpt lat="49.52332681976259" lon="9.321451149880886">
<ele>333</ele>
<time>2024-05-11T09:03:02Z</time>
</trkpt>
<trkpt lat="49.52332681976259" lon="9.321450227871535">
<ele>333</ele>
<time>2024-05-11T09:03:08Z</time>
</trkpt>
<trkpt lat="49.52332681976259" lon="9.321448300033808">
<ele>333</ele>
<time>2024-05-11T09:03:28Z</time>
</trkpt>
<trkpt lat="49.52332304790616" lon="9.321448300033808">
<ele>333</ele>
<time>2024-05-11T09:03:31Z</time>
</trkpt>
<trkpt lat="49.52332304790616" lon="9.321446372196078">
<ele>333</ele>
<time>2024-05-11T09:03:32Z</time>
</trkpt>
<trkpt lat="49.52332304790616" lon="9.32144545018673">
<ele>333</ele>
<time>2024-05-11T09:03:36Z</time>
</trkpt>
<trkpt lat="49.52332304790616" lon="9.321446372196078">
<ele>333</ele>
<time>2024-05-11T09:03:40Z</time>
</trkpt>
<trkpt lat="49.52332304790616" lon="9.32144545018673">
<ele>333</ele>
<time>2024-05-11T09:03:42Z</time>
</trkpt>
<trkpt lat="49.52332304790616" lon="9.321443522349">
<ele>333</ele>
<time>2024-05-11T09:03:50Z</time>
</trkpt>
<trkpt lat="49.52332304790616" lon="9.32144159451127">
<ele>333</ele>
<time>2024-05-11T09:03:53Z</time>
</trkpt>
<trkpt lat="49.52332304790616" lon="9.32143966667354">
<ele>333</ele>
<time>2024-05-11T09:03:56Z</time>
</trkpt>
<trkpt lat="49.5233191922307" lon="9.32143966667354">
<ele>333</ele>
<time>2024-05-11T09:03:58Z</time>
</trkpt>
<trkpt lat="49.5233191922307" lon="9.321438744664192">
<ele>333</ele>
<time>2024-05-11T09:03:59Z</time>
</trkpt>
<trkpt lat="49.5233191922307" lon="9.321436816826465">
<ele>333</ele>
<time>2024-05-11T09:04:06Z</time>
</trkpt>
<trkpt lat="49.5233191922307" lon="9.321434972807763">
<ele>333</ele>
<time>2024-05-11T09:04:14Z</time>
</trkpt>
<trkpt lat="49.523315420374274" lon="9.321434972807763">
<ele>333</ele>
<time>2024-05-11T09:04:27Z</time>
</trkpt>
<trkpt lat="49.523315420374274" lon="9.321436816826465">
<ele>333</ele>
<time>2024-05-11T09:04:48Z</time>
</trkpt>
<trkpt lat="49.5233191922307" lon="9.321436816826465">
<ele>333</ele>
<time>2024-05-11T09:04:58Z</time>
</trkpt>
<trkpt lat="49.5233191922307" lon="9.321438744664192">
<ele>333</ele>
<time>2024-05-11T09:05:00Z</time>
</trkpt>
<trkpt lat="49.523315420374274" lon="9.321438744664192">
<ele>333</ele>
<time>2024-05-11T09:05:01Z</time>
</trkpt>
<trkpt lat="49.523315420374274" lon="9.32143966667354">
<ele>333</ele>
<time>2024-05-11T09:05:07Z</time>
</trkpt>
<trkpt lat="49.523315420374274" lon="9.32144159451127">
<ele>333</ele>
<time>2024-05-11T09:05:13Z</time>
</trkpt>
<trkpt lat="49.523315420374274" lon="9.321443522349">
<ele>333</ele>
<time>2024-05-11T09:05:17Z</time>
</trkpt>
<trkpt lat="49.523315420374274" lon="9.32144545018673">
<ele>333</ele>
<time>2024-05-11T09:05:22Z</time>
</trkpt>
<trkpt lat="49.523315420374274" lon="9.321446372196078">
<ele>333</ele>
<time>2024-05-11T09:05:27Z</time>
</trkpt>
<trkpt lat="49.523315420374274" lon="9.321448300033808">
<ele>333</ele>
<time>2024-05-11T09:05:33Z</time>
</trkpt>
<trkpt lat="49.523315420374274" lon="9.321450227871535">
<ele>333</ele>
<time>2024-05-11T09:05:37Z</time>
</trkpt>
<trkpt lat="49.523315420374274" lon="9.321451149880886">
<ele>333</ele>
<time>2024-05-11T09:05:43Z</time>
</trkpt>
<trkpt lat="49.523315420374274" lon="9.321450227871535">
<ele>333</ele>
<time>2024-05-11T09:05:46Z</time>
</trkpt>
<trkpt lat="49.523315420374274" lon="9.321448300033808">
<ele>333</ele>
<time>2024-05-11T09:05:59Z</time>
</trkpt>
<trkpt lat="49.523315420374274" lon="9.321450227871535">
<ele>333</ele>
<time>2024-05-11T09:06:00Z</time>
</trkpt>
<trkpt lat="49.523315420374274" lon="9.321448300033808">
<ele>333</ele>
<time>2024-05-11T09:06:02Z</time>
</trkpt>
<trkpt lat="49.523315420374274" lon="9.321446372196078">
<ele>333</ele>
<time>2024-05-11T09:06:09Z</time>
</trkpt>
<trkpt lat="49.523315420374274" lon="9.321448300033808">
<ele>333</ele>
<time>2024-05-11T09:06:11Z</time>
</trkpt>
<trkpt lat="49.523311564698815" lon="9.321448300033808">
<ele>333</ele>
<time>2024-05-11T09:06:13Z</time>
</trkpt>
<trkpt lat="49.523315420374274" lon="9.321448300033808">
<ele>333</ele>
<time>2024-05-11T09:06:19Z</time>
</trkpt>
<trkpt lat="49.523315420374274" lon="9.321446372196078">
<ele>333</ele>
<time>2024-05-11T09:06:20Z</time>
</trkpt>
<trkpt lat="49.523315420374274" lon="9.32144545018673">
<ele>333</ele>
<time>2024-05-11T09:06:23Z</time>
</trkpt>
<trkpt lat="49.523315420374274" lon="9.321446372196078">
<ele>333</ele>
<time>2024-05-11T09:06:26Z</time>
</trkpt>
<trkpt lat="49.52332681976259" lon="9.321448300033808">
<ele>333</ele>
<time>2024-05-11T09:06:28Z</time>
</trkpt>
<trkpt lat="49.523334447294474" lon="9.321448300033808">
<ele>333</ele>
<time>2024-05-11T09:06:29Z</time>
</trkpt>
<trkpt lat="49.52333830296993" lon="9.321446372196078">
<ele>333</ele>
<time>2024-05-11T09:06:30Z</time>
</trkpt>
<trkpt lat="49.52333830296993" lon="9.32144545018673">
<ele>333</ele>
<time>2024-05-11T09:06:32Z</time>
</trkpt>
<trkpt lat="49.52333830296993" lon="9.32144159451127">
<ele>333</ele>
<time>2024-05-11T09:06:33Z</time>
</trkpt>
<trkpt lat="49.52334207482636" lon="9.32144159451127">
<ele>333</ele>
<time>2024-05-11T09:06:34Z</time>
</trkpt>
<trkpt lat="49.52334207482636" lon="9.32143966667354">
<ele>333</ele>
<time>2024-05-11T09:06:35Z</time>
</trkpt>
<trkpt lat="49.52334207482636" lon="9.321438744664192">
<ele>333</ele>
<time>2024-05-11T09:06:36Z</time>
</trkpt>
<trkpt lat="49.52333830296993" lon="9.321436816826465">
<ele>333</ele>
<time>2024-05-11T09:06:37Z</time>
</trkpt>
<trkpt lat="49.52334207482636" lon="9.321433044970036">
<ele>333</ele>
<time>2024-05-11T09:06:38Z</time>
</trkpt>
<trkpt lat="49.52334207482636" lon="9.32142541743815">
<ele>333</ele>
<time>2024-05-11T09:06:39Z</time>
</trkpt>
<trkpt lat="49.523334447294474" lon="9.321399684995413">
<ele>333</ele>
<time>2024-05-11T09:06:40Z</time>
</trkpt>
<trkpt lat="49.52332681976259" lon="9.321379652246833">
<ele>333</ele>
<time>2024-05-11T09:06:41Z</time>
</trkpt>
<trkpt lat="49.52332304790616" lon="9.32136339135468">
<ele>333</ele>
<time>2024-05-11T09:06:42Z</time>
</trkpt>
<trkpt lat="49.5233191922307" lon="9.321350064128636">
<ele>333</ele>
<time>2024-05-11T09:06:43Z</time>
</trkpt>
<trkpt lat="49.523315420374274" lon="9.321341514587402">
<ele>333</ele>
<time>2024-05-11T09:06:44Z</time>
</trkpt>
<trkpt lat="49.523315420374274" lon="9.321338580921292">
<ele>333</ele>
<time>2024-05-11T09:06:45Z</time>
</trkpt>
<trkpt lat="49.523311564698815" lon="9.321336736902596">
<ele>333</ele>
<time>2024-05-11T09:06:46Z</time>
</trkpt>
<trkpt lat="49.523311564698815" lon="9.321334809064863">
<ele>333</ele>
<time>2024-05-11T09:06:49Z</time>
</trkpt>
<trkpt lat="49.523311564698815" lon="9.321330031380056">
<ele>333</ele>
<time>2024-05-11T09:06:50Z</time>
</trkpt>
<trkpt lat="49.52330779284239" lon="9.321312848478556">
<ele>333</ele>
<time>2024-05-11T09:06:51Z</time>
</trkpt>
<trkpt lat="49.52330393716693" lon="9.321298599243164">
<ele>333</ele>
<time>2024-05-11T09:06:52Z</time>
</trkpt>
<trkpt lat="49.5233001653105" lon="9.321281416341662">
<ele>333</ele>
<time>2024-05-11T09:06:53Z</time>
</trkpt>
<trkpt lat="49.52328868210316" lon="9.321260377764702">
<ele>333</ele>
<time>2024-05-11T09:06:54Z</time>
</trkpt>
<trkpt lat="49.52327728271485" lon="9.321236573159696">
<ele>333</ele>
<time>2024-05-11T09:06:55Z</time>
</trkpt>
<trkpt lat="49.52326194383204" lon="9.321221318095922">
<ele>333</ele>
<time>2024-05-11T09:06:56Z</time>
</trkpt>
<trkpt lat="49.52324291691184" lon="9.321221318095922">
<ele>333</ele>
<time>2024-05-11T09:06:57Z</time>
</trkpt>
<trkpt lat="49.52322003431618" lon="9.32122508995235">
<ele>333</ele>
<time>2024-05-11T09:06:58Z</time>
</trkpt>
<trkpt lat="49.52319715172053" lon="9.321234645321963">
<ele>333</ele>
<time>2024-05-11T09:06:59Z</time>
</trkpt>
<trkpt lat="49.52317041344941" lon="9.321249900385736">
<ele>333</ele>
<time>2024-05-11T09:07:00Z</time>
</trkpt>
<trkpt lat="49.52314753085375" lon="9.321263311430812">
<ele>333</ele>
<time>2024-05-11T09:07:01Z</time>
</trkpt>
<trkpt lat="49.52312087640166" lon="9.321276638656856">
<ele>333</ele>
<time>2024-05-11T09:07:02Z</time>
</trkpt>
<trkpt lat="49.52309790998697" lon="9.321288038045168">
<ele>333</ele>
<time>2024-05-11T09:07:03Z</time>
</trkpt>
<trkpt lat="49.523075027391315" lon="9.321296671405436">
<ele>333</ele>
<time>2024-05-11T09:07:04Z</time>
</trkpt>
<trkpt lat="49.523052144795656" lon="9.321301449090242">
<ele>333</ele>
<time>2024-05-11T09:07:05Z</time>
</trkpt>
<trkpt lat="49.52303688973189" lon="9.32130329310894">
<ele>333</ele>
<time>2024-05-11T09:07:06Z</time>
</trkpt>
<trkpt lat="49.52302549034357" lon="9.32130329310894">
<ele>333</ele>
<time>2024-05-11T09:07:07Z</time>
</trkpt>
<trkpt lat="49.523017862811685" lon="9.32130522094667">
<ele>333</ele>
<time>2024-05-11T09:07:08Z</time>
</trkpt>
<trkpt lat="49.5230102352798" lon="9.32130622677505">
<ele>333</ele>
<time>2024-05-11T09:07:09Z</time>
</trkpt>
<trkpt lat="49.52300260774791" lon="9.321309998631476">
<ele>333</ele>
<time>2024-05-11T09:07:10Z</time>
</trkpt>
<trkpt lat="49.52299112454057" lon="9.321316704154016">
<ele>333</ele>
<time>2024-05-11T09:07:11Z</time>
</trkpt>
<trkpt lat="49.522975869476795" lon="9.32132332585752">
<ele>333</ele>
<time>2024-05-11T09:07:12Z</time>
</trkpt>
<trkpt lat="49.52296061441302" lon="9.321331959217789">
<ele>333</ele>
<time>2024-05-11T09:07:13Z</time>
</trkpt>
<trkpt lat="49.52294535934925" lon="9.321339586749671">
<ele>333</ele>
<time>2024-05-11T09:07:14Z</time>
</trkpt>
<trkpt lat="49.52293395996094" lon="9.321350064128636">
<ele>333</ele>
<time>2024-05-11T09:07:15Z</time>
</trkpt>
<trkpt lat="49.52292624861002" lon="9.321358613669872">
<ele>333</ele>
<time>2024-05-11T09:07:16Z</time>
</trkpt>
<trkpt lat="49.522914849221706" lon="9.32136339135468">
<ele>333</ele>
<time>2024-05-11T09:07:17Z</time>
</trkpt>
<trkpt lat="49.52290336601436" lon="9.321370096877216">
<ele>333</ele>
<time>2024-05-11T09:07:18Z</time>
</trkpt>
<trkpt lat="49.52288433909416" lon="9.321378646418452">
<ele>333</ele>
<time>2024-05-11T09:07:19Z</time>
</trkpt>
<trkpt lat="49.52286522835493" lon="9.321392057463529">
<ele>333</ele>
<time>2024-05-11T09:07:20Z</time>
</trkpt>
<trkpt lat="49.52284620143473" lon="9.321414940059183">
<ele>333</ele>
<time>2024-05-11T09:07:21Z</time>
</trkpt>
<trkpt lat="49.522838573902845" lon="9.32144159451127">
<ele>333</ele>
<time>2024-05-11T09:07:22Z</time>
</trkpt>
<trkpt lat="49.522838573902845" lon="9.321476882323624">
<ele>333</ele>
<time>2024-05-11T09:07:23Z</time>
</trkpt>
<trkpt lat="49.52284234575927" lon="9.321513175964355">
<ele>333</ele>
<time>2024-05-11T09:07:24Z</time>
</trkpt>
<trkpt lat="49.52285382896662" lon="9.321546535938978">
<ele>333</ele>
<time>2024-05-11T09:07:25Z</time>
</trkpt>
<trkpt lat="49.52287285588682" lon="9.321575118228791">
<ele>333</ele>
<time>2024-05-11T09:07:26Z</time>
</trkpt>
<trkpt lat="49.52288811095059" lon="9.321604706346989">
<ele>333</ele>
<time>2024-05-11T09:07:27Z</time>
</trkpt>
<trkpt lat="49.52290336601436" lon="9.321636138483882">
<ele>333</ele>
<time>2024-05-11T09:07:28Z</time>
</trkpt>
<trkpt lat="49.52292247675359" lon="9.321666648611426">
<ele>333</ele>
<time>2024-05-11T09:07:29Z</time>
</trkpt>
<trkpt lat="49.522937731817365" lon="9.32170009240508">
<ele>333</ele>
<time>2024-05-11T09:07:30Z</time>
</trkpt>
<trkpt lat="49.52295298688114" lon="9.321733452379704">
<ele>333</ele>
<time>2024-05-11T09:07:31Z</time>
</trkpt>
<trkpt lat="49.52296824194491" lon="9.321766812354326">
<ele>333</ele>
<time>2024-05-11T09:07:32Z</time>
</trkpt>
<trkpt lat="49.52298349700868" lon="9.321800172328947">
<ele>333</ele>
<time>2024-05-11T09:07:33Z</time>
</trkpt>
<trkpt lat="49.52299875207245" lon="9.321833532303572">
<ele>333</ele>
<time>2024-05-11T09:07:34Z</time>
</trkpt>
<trkpt lat="49.523014007136226" lon="9.321866976097226">
<ele>333</ele>
<time>2024-05-11T09:07:35Z</time>
</trkpt>
<trkpt lat="49.5230292622" lon="9.321905113756657">
<ele>333</ele>
<time>2024-05-11T09:07:36Z</time>
</trkpt>
<trkpt lat="49.52304837293923" lon="9.321941323578358">
<ele>333</ele>
<time>2024-05-11T09:07:37Z</time>
</trkpt>
<trkpt lat="49.523063628003" lon="9.32197853922844">
<ele>333</ele>
<time>2024-05-11T09:07:38Z</time>
</trkpt>
<trkpt lat="49.52307888306677" lon="9.32201474905014">
<ele>333</ele>
<time>2024-05-11T09:07:39Z</time>
</trkpt>
<trkpt lat="49.52309790998697" lon="9.322050036862493">
<ele>333</ele>
<time>2024-05-11T09:07:40Z</time>
</trkpt>
<trkpt lat="49.52311324886978" lon="9.322085324674845">
<ele>333</ele>
<time>2024-05-11T09:07:41Z</time>
</trkpt>
<trkpt lat="49.523132275789976" lon="9.322119690477848">
<ele>333</ele>
<time>2024-05-11T09:07:42Z</time>
</trkpt>
<trkpt lat="49.52314753085375" lon="9.322158750146627">
<ele>333</ele>
<time>2024-05-11T09:07:43Z</time>
</trkpt>
<trkpt lat="49.52316278591752" lon="9.322199821472168">
<ele>333</ele>
<time>2024-05-11T09:07:44Z</time>
</trkpt>
<trkpt lat="49.52317804098129" lon="9.322243658825755">
<ele>333</ele>
<time>2024-05-11T09:07:45Z</time>
</trkpt>
<trkpt lat="49.523193296045065" lon="9.322283724322917">
<ele>333</ele>
<time>2024-05-11T09:07:46Z</time>
</trkpt>
<trkpt lat="49.52320855110884" lon="9.322324711829424">
<ele>333</ele>
<time>2024-05-11T09:07:47Z</time>
</trkpt>
<trkpt lat="49.52322380617261" lon="9.322366705164312">
<ele>333</ele>
<time>2024-05-11T09:07:48Z</time>
</trkpt>
<trkpt lat="49.52323906123638" lon="9.322409620508552">
<ele>333</ele>
<time>2024-05-11T09:07:49Z</time>
</trkpt>
<trkpt lat="49.523254316300154" lon="9.32245345786214">
<ele>333</ele>
<time>2024-05-11T09:07:50Z</time>
</trkpt>
<trkpt lat="49.523269571363926" lon="9.322495451197028">
<ele>333</ele>
<time>2024-05-11T09:07:51Z</time>
</trkpt>
<trkpt lat="49.52328868210316" lon="9.322534510865808">
<ele>333</ele>
<time>2024-05-11T09:07:52Z</time>
</trkpt>
<trkpt lat="49.52330393716693" lon="9.322576504200695">
<ele>333</ele>
<time>2024-05-11T09:07:53Z</time>
</trkpt>
<trkpt lat="49.52332304790616" lon="9.322618413716556">
<ele>333</ele>
<time>2024-05-11T09:07:54Z</time>
</trkpt>
<trkpt lat="49.523334447294474" lon="9.322661329060791">
<ele>333</ele>
<time>2024-05-11T09:07:55Z</time>
</trkpt>
<trkpt lat="49.523349702358246" lon="9.322705250233412">
<ele>333</ele>
<time>2024-05-11T09:07:56Z</time>
</trkpt>
<trkpt lat="49.52336495742202" lon="9.322750009596348">
<ele>333</ele>
<time>2024-05-11T09:07:57Z</time>
</trkpt>
<trkpt lat="49.52338021248579" lon="9.322794852778316">
<ele>333</ele>
<time>2024-05-11T09:07:58Z</time>
</trkpt>
<trkpt lat="49.52339546754956" lon="9.322838773950934">
<ele>333</ele>
<time>2024-05-11T09:07:59Z</time>
</trkpt>
<trkpt lat="49.52340695075691" lon="9.322881689295173">
<ele>333.2</ele>
<time>2024-05-11T09:08:00Z</time>
</trkpt>
<trkpt lat="49.52342597767711" lon="9.322924604639413">
<ele>333.2</ele>
<time>2024-05-11T09:08:01Z</time>
</trkpt>
<trkpt lat="49.52344123274088" lon="9.322968441992998">
<ele>333.4</ele>
<time>2024-05-11T09:08:02Z</time>
</trkpt>
<trkpt lat="49.52345657162368" lon="9.323011357337236">
<ele>333.6</ele>
<time>2024-05-11T09:08:03Z</time>
</trkpt>
<trkpt lat="49.523471826687455" lon="9.323055194690824">
<ele>333.8</ele>
<time>2024-05-11T09:08:04Z</time>
</trkpt>
<trkpt lat="49.52348322607577" lon="9.323095260187984">
<ele>334</ele>
<time>2024-05-11T09:08:05Z</time>
</trkpt>
<trkpt lat="49.52349848113954" lon="9.323138175532222">
<ele>334</ele>
<time>2024-05-11T09:08:06Z</time>
</trkpt>
<trkpt lat="49.52351373620331" lon="9.32318209670484">
<ele>334.2</ele>
<time>2024-05-11T09:08:07Z</time>
</trkpt>
<trkpt lat="49.523528991267085" lon="9.32322501204908">
<ele>334.2</ele>
<time>2024-05-11T09:08:08Z</time>
</trkpt>
<trkpt lat="49.52354047447443" lon="9.323267927393315">
<ele>334.4</ele>
<time>2024-05-11T09:08:09Z</time>
</trkpt>
<trkpt lat="49.5235557295382" lon="9.323311764746904">
<ele>334.6</ele>
<time>2024-05-11T09:08:10Z</time>
</trkpt>
<trkpt lat="49.523570984601974" lon="9.323354680091144">
<ele>334.6</ele>
<time>2024-05-11T09:08:11Z</time>
</trkpt>
<trkpt lat="49.52358238399029" lon="9.32339851744473">
<ele>334.8</ele>
<time>2024-05-11T09:08:12Z</time>
</trkpt>
<trkpt lat="49.52359763905406" lon="9.32343958877027">
<ele>334.8</ele>
<time>2024-05-11T09:08:13Z</time>
</trkpt>
<trkpt lat="49.52361289411783" lon="9.323483426123856">
<ele>334.8</ele>
<time>2024-05-11T09:08:14Z</time>
</trkpt>
<trkpt lat="49.52362823300064" lon="9.323525419458749">
<ele>335</ele>
<time>2024-05-11T09:08:15Z</time>
</trkpt>
<trkpt lat="49.52364348806441" lon="9.323566406965256">
<ele>335.2</ele>
<time>2024-05-11T09:08:16Z</time>
</trkpt>
<trkpt lat="49.52365488745272" lon="9.323608316481112">
<ele>335.4</ele>
<time>2024-05-11T09:08:17Z</time>
</trkpt>
<trkpt lat="49.523670142516494" lon="9.323646537959576">
<ele>335.6</ele>
<time>2024-05-11T09:08:18Z</time>
</trkpt>
<trkpt lat="49.523685397580266" lon="9.323686519637704">
<ele>335.8</ele>
<time>2024-05-11T09:08:19Z</time>
</trkpt>
<trkpt lat="49.52369688078761" lon="9.323724741116166">
<ele>336.2</ele>
<time>2024-05-11T09:08:20Z</time>
</trkpt>
<trkpt lat="49.52370828017592" lon="9.323764722794294">
<ele>336.4</ele>
<time>2024-05-11T09:08:21Z</time>
</trkpt>
<trkpt lat="49.5237235352397" lon="9.323804788291454">
<ele>336.6</ele>
<time>2024-05-11T09:08:22Z</time>
</trkpt>
<trkpt lat="49.52373501844704" lon="9.323842925950885">
<ele>336.8</ele>
<time>2024-05-11T09:08:23Z</time>
</trkpt>
<trkpt lat="49.523746417835355" lon="9.323882069438696">
<ele>337</ele>
<time>2024-05-11T09:08:24Z</time>
</trkpt>
<trkpt lat="49.52376167289913" lon="9.323920207098126">
<ele>337.2</ele>
<time>2024-05-11T09:08:25Z</time>
</trkpt>
<trkpt lat="49.5237769279629" lon="9.323958344757555">
<ele>337.2</ele>
<time>2024-05-11T09:08:26Z</time>
</trkpt>
<trkpt lat="49.5237922668457" lon="9.323993632569907">
<ele>337.4</ele>
<time>2024-05-11T09:08:27Z</time>
</trkpt>
<trkpt lat="49.5238112937659" lon="9.32402984239161">
<ele>337.4</ele>
<time>2024-05-11T09:08:28Z</time>
</trkpt>
<trkpt lat="49.52382277697325" lon="9.324067058041692">
<ele>337.6</ele>
<time>2024-05-11T09:08:29Z</time>
</trkpt>
<trkpt lat="49.52383803203702" lon="9.324105195701122">
<ele>337.6</ele>
<time>2024-05-11T09:08:30Z</time>
</trkpt>
<trkpt lat="49.52385328710079" lon="9.324143333360553">
<ele>337.8</ele>
<time>2024-05-11T09:08:31Z</time>
</trkpt>
<trkpt lat="49.523864686489105" lon="9.324181554839017">
<ele>338</ele>
<time>2024-05-11T09:08:32Z</time>
</trkpt>
<trkpt lat="49.52387994155288" lon="9.324218686670063">
<ele>338</ele>
<time>2024-05-11T09:08:33Z</time>
</trkpt>
<trkpt lat="49.52389142476022" lon="9.324256824329495">
<ele>338.2</ele>
<time>2024-05-11T09:08:34Z</time>
</trkpt>
<trkpt lat="49.523906679823995" lon="9.324294961988926">
<ele>338.4</ele>
<time>2024-05-11T09:08:35Z</time>
</trkpt>
<trkpt lat="49.52392193488777" lon="9.324336955323815">
<ele>338.6</ele>
<time>2024-05-11T09:08:36Z</time>
</trkpt>
<trkpt lat="49.52393718995154" lon="9.324377942830324">
<ele>338.8</ele>
<time>2024-05-11T09:08:37Z</time>
</trkpt>
<trkpt lat="49.52395244501531" lon="9.324419936165214">
<ele>339</ele>
<time>2024-05-11T09:08:38Z</time>
</trkpt>
<trkpt lat="49.523963928222656" lon="9.324462851509452">
<ele>339.2</ele>
<time>2024-05-11T09:08:39Z</time>
</trkpt>
<trkpt lat="49.52397918328643" lon="9.32450668886304">
<ele>339.4</ele>
<time>2024-05-11T09:08:40Z</time>
</trkpt>
<trkpt lat="49.52399058267474" lon="9.324555387720466">
<ele>339.6</ele>
<time>2024-05-11T09:08:41Z</time>
</trkpt>
<trkpt lat="49.524005837738514" lon="9.324603080749512">
<ele>339.8</ele>
<time>2024-05-11T09:08:42Z</time>
</trkpt>
<trkpt lat="49.52401732094586" lon="9.324651695787908">
<ele>339.8</ele>
<time>2024-05-11T09:08:43Z</time>
</trkpt>
<trkpt lat="49.52402872033417" lon="9.324696538969874">
<ele>340</ele>
<time>2024-05-11T09:08:44Z</time>
</trkpt>
<trkpt lat="49.52404020354152" lon="9.32474129833281">
<ele>340</ele>
<time>2024-05-11T09:08:45Z</time>
</trkpt>
<trkpt lat="49.52405160292983" lon="9.324787063524129">
<ele>340.2</ele>
<time>2024-05-11T09:08:46Z</time>
</trkpt>
<trkpt lat="49.5240668579936" lon="9.324834756553171">
<ele>340.2</ele>
<time>2024-05-11T09:08:47Z</time>
</trkpt>
<trkpt lat="49.52407834120095" lon="9.32488152757287">
<ele>340.2</ele>
<time>2024-05-11T09:08:48Z</time>
</trkpt>
<trkpt lat="49.524085968732834" lon="9.324926370754838">
<ele>340.2</ele>
<time>2024-05-11T09:08:49Z</time>
</trkpt>
<trkpt lat="49.52408974058926" lon="9.324970208108423">
<ele>340.4</ele>
<time>2024-05-11T09:08:50Z</time>
</trkpt>
<trkpt lat="49.52409736812115" lon="9.325010273605583">
<ele>340.4</ele>
<time>2024-05-11T09:08:51Z</time>
</trkpt>
<trkpt lat="49.52410885132849" lon="9.325053188949823">
<ele>340.6</ele>
<time>2024-05-11T09:08:52Z</time>
</trkpt>
<trkpt lat="49.524124106392264" lon="9.325091326609254">
<ele>340.8</ele>
<time>2024-05-11T09:08:53Z</time>
</trkpt>
<trkpt lat="49.524143217131495" lon="9.325126614421606">
<ele>340.8</ele>
<time>2024-05-11T09:08:54Z</time>
</trkpt>
<trkpt lat="49.524162244051695" lon="9.325162824243307">
<ele>341</ele>
<time>2024-05-11T09:08:55Z</time>
</trkpt>
<trkpt lat="49.524181354790926" lon="9.325201967731118">
<ele>341.2</ele>
<time>2024-05-11T09:08:56Z</time>
</trkpt>
<trkpt lat="49.5241966098547" lon="9.325242033228278">
<ele>341.4</ele>
<time>2024-05-11T09:08:57Z</time>
</trkpt>
<trkpt lat="49.52420800924301" lon="9.325283020734789">
<ele>341.6</ele>
<time>2024-05-11T09:08:58Z</time>
</trkpt>
<trkpt lat="49.524223264306784" lon="9.325326858088374">
<ele>341.8</ele>
<time>2024-05-11T09:08:59Z</time>
</trkpt>
<trkpt lat="49.52423474751413" lon="9.325367845594885">
<ele>342</ele>
<time>2024-05-11T09:09:00Z</time>
</trkpt>
<trkpt lat="49.5242500025779" lon="9.325407911092045">
<ele>342.2</ele>
<time>2024-05-11T09:09:01Z</time>
</trkpt>
<trkpt lat="49.52425763010979" lon="9.325449904426932">
<ele>342.4</ele>
<time>2024-05-11T09:09:02Z</time>
</trkpt>
<trkpt lat="49.5242690294981" lon="9.32549281977117">
<ele>342.6</ele>
<time>2024-05-11T09:09:03Z</time>
</trkpt>
<trkpt lat="49.524280512705445" lon="9.32553481310606">
<ele>342.8</ele>
<time>2024-05-11T09:09:04Z</time>
</trkpt>
<trkpt lat="49.52429191209376" lon="9.325579572468996">
<ele>343</ele>
<time>2024-05-11T09:09:05Z</time>
</trkpt>
<trkpt lat="49.524303395301104" lon="9.325623493641617">
<ele>343.2</ele>
<time>2024-05-11T09:09:06Z</time>
</trkpt>
<trkpt lat="49.52431487850845" lon="9.325664481148124">
<ele>343.4</ele>
<time>2024-05-11T09:09:07Z</time>
</trkpt>
<trkpt lat="49.52432627789676" lon="9.325708318501713">
<ele>343.6</ele>
<time>2024-05-11T09:09:08Z</time>
</trkpt>
<trkpt lat="49.52433776110411" lon="9.32575123384595">
<ele>343.8</ele>
<time>2024-05-11T09:09:09Z</time>
</trkpt>
<trkpt lat="49.52434538863599" lon="9.32579322718084">
<ele>344</ele>
<time>2024-05-11T09:09:10Z</time>
</trkpt>
<trkpt lat="49.524356788024306" lon="9.325835220515728">
<ele>344</ele>
<time>2024-05-11T09:09:11Z</time>
</trkpt>
<trkpt lat="49.52436827123165" lon="9.325876208022237">
<ele>344.2</ele>
<time>2024-05-11T09:09:12Z</time>
</trkpt>
<trkpt lat="49.52438352629542" lon="9.325916273519397">
<ele>344.4</ele>
<time>2024-05-11T09:09:13Z</time>
</trkpt>
<trkpt lat="49.52439492568374" lon="9.325958183035254">
<ele>344.6</ele>
<time>2024-05-11T09:09:14Z</time>
</trkpt>
<trkpt lat="49.52440255321562" lon="9.326000176370144">
<ele>344.8</ele>
<time>2024-05-11T09:09:15Z</time>
</trkpt>
<trkpt lat="49.52441403642297" lon="9.326041163876653">
<ele>345</ele>
<time>2024-05-11T09:09:16Z</time>
</trkpt>
<trkpt lat="49.52442543581128" lon="9.326081229373813">
<ele>345.2</ele>
<time>2024-05-11T09:09:17Z</time>
</trkpt>
<trkpt lat="49.524436919018626" lon="9.326121294870973">
<ele>345.2</ele>
<time>2024-05-11T09:09:18Z</time>
</trkpt>
<trkpt lat="49.52444831840694" lon="9.326160354539752">
<ele>345.4</ele>
<time>2024-05-11T09:09:19Z</time>
</trkpt>
<trkpt lat="49.524459801614285" lon="9.326198576018214">
<ele>345.6</ele>
<time>2024-05-11T09:09:20Z</time>
</trkpt>
<trkpt lat="49.5244712010026" lon="9.326234785839915">
<ele>345.8</ele>
<time>2024-05-11T09:09:21Z</time>
</trkpt>
<trkpt lat="49.52448268420994" lon="9.326274851337075">
<ele>346</ele>
<time>2024-05-11T09:09:22Z</time>
</trkpt>
<trkpt lat="49.52449416741729" lon="9.326314916834235">
<ele>346.2</ele>
<time>2024-05-11T09:09:23Z</time>
</trkpt>
<trkpt lat="49.5245055668056" lon="9.326354898512363">
<ele>346.4</ele>
<time>2024-05-11T09:09:24Z</time>
</trkpt>
<trkpt lat="49.524517050012946" lon="9.326396891847253">
<ele>346.4</ele>
<time>2024-05-11T09:09:25Z</time>
</trkpt>
<trkpt lat="49.52452844940126" lon="9.326436957344413">
<ele>346.6</ele>
<time>2024-05-11T09:09:26Z</time>
</trkpt>
<trkpt lat="49.52453993260861" lon="9.326479872688653">
<ele>346.6</ele>
<time>2024-05-11T09:09:27Z</time>
</trkpt>
<trkpt lat="49.52455518767238" lon="9.326519938185813">
<ele>346.8</ele>
<time>2024-05-11T09:09:28Z</time>
</trkpt>
<trkpt lat="49.52456658706069" lon="9.326560003682973">
<ele>347</ele>
<time>2024-05-11T09:09:29Z</time>
</trkpt>
<trkpt lat="49.524578070268035" lon="9.326600069180133">
<ele>347.2</ele>
<time>2024-05-11T09:09:30Z</time>
</trkpt>
<trkpt lat="49.52458946965635" lon="9.326636279001832">
<ele>347.2</ele>
<time>2024-05-11T09:09:31Z</time>
</trkpt>
<trkpt lat="49.52460472472012" lon="9.326675338670611">
<ele>347.4</ele>
<time>2024-05-11T09:09:32Z</time>
</trkpt>
<trkpt lat="49.524616207927465" lon="9.326711632311344">
<ele>347.6</ele>
<time>2024-05-11T09:09:33Z</time>
</trkpt>
<trkpt lat="49.52463146299124" lon="9.326749769970776">
<ele>347.8</ele>
<time>2024-05-11T09:09:34Z</time>
</trkpt>
<trkpt lat="49.52464671805501" lon="9.326786985620856">
<ele>348</ele>
<time>2024-05-11T09:09:35Z</time>
</trkpt>
<trkpt lat="49.52466197311878" lon="9.326825123280289">
<ele>348.2</ele>
<time>2024-05-11T09:09:36Z</time>
</trkpt>
<trkpt lat="49.524677228182554" lon="9.326861333101988">
<ele>348.4</ele>
<time>2024-05-11T09:09:37Z</time>
</trkpt>
<trkpt lat="49.524692483246326" lon="9.326901398599148">
<ele>348.6</ele>
<time>2024-05-11T09:09:38Z</time>
</trkpt>
<trkpt lat="49.5247077383101" lon="9.326941464096308">
<ele>348.8</ele>
<time>2024-05-11T09:09:39Z</time>
</trkpt>
<trkpt lat="49.52472299337387" lon="9.326979601755738">
<ele>349</ele>
<time>2024-05-11T09:09:40Z</time>
</trkpt>
<trkpt lat="49.52473824843764" lon="9.32701681740582">
<ele>349.2</ele>
<time>2024-05-11T09:09:41Z</time>
</trkpt>
<trkpt lat="49.52474973164499" lon="9.32705302722752">
<ele>349.4</ele>
<time>2024-05-11T09:09:42Z</time>
</trkpt>
<trkpt lat="49.5247611310333" lon="9.327091164886951">
<ele>349.6</ele>
<time>2024-05-11T09:09:43Z</time>
</trkpt>
<trkpt lat="49.524772614240646" lon="9.327130308374764">
<ele>349.8</ele>
<time>2024-05-11T09:09:44Z</time>
</trkpt>
<trkpt lat="49.524791641160846" lon="9.327163668349383">
<ele>350</ele>
<time>2024-05-11T09:09:45Z</time>
</trkpt>
<trkpt lat="49.52480689622462" lon="9.327197028324008">
<ele>350.2</ele>
<time>2024-05-11T09:09:46Z</time>
</trkpt>
<trkpt lat="49.52482600696385" lon="9.327231394127011">
<ele>350.4</ele>
<time>2024-05-11T09:09:47Z</time>
</trkpt>
<trkpt lat="49.52484511770308" lon="9.327264754101634">
<ele>350.8</ele>
<time>2024-05-11T09:09:48Z</time>
</trkpt>
<trkpt lat="49.52486037276685" lon="9.327300041913986">
<ele>351</ele>
<time>2024-05-11T09:09:49Z</time>
</trkpt>
<trkpt lat="49.524875627830625" lon="9.327335329726338">
<ele>351.2</ele>
<time>2024-05-11T09:09:50Z</time>
</trkpt>
<trkpt lat="49.5248908828944" lon="9.32736868970096">
<ele>351.4</ele>
<time>2024-05-11T09:09:51Z</time>
</trkpt>
<trkpt lat="49.52490613795817" lon="9.327400205656886">
<ele>351.4</ele>
<time>2024-05-11T09:09:52Z</time>
</trkpt>
<trkpt lat="49.52492139302194" lon="9.327434487640858">
<ele>351.6</ele>
<time>2024-05-11T09:09:53Z</time>
</trkpt>
<trkpt lat="49.52493664808571" lon="9.327466925606132">
<ele>351.8</ele>
<time>2024-05-11T09:09:54Z</time>
</trkpt>
<trkpt lat="49.524951903149486" lon="9.327500285580754">
<ele>352</ele>
<time>2024-05-11T09:09:55Z</time>
</trkpt>
<trkpt lat="49.52496715821326" lon="9.327533645555375">
<ele>352.2</ele>
<time>2024-05-11T09:09:56Z</time>
</trkpt>
<trkpt lat="49.52498618513346" lon="9.32756993919611">
<ele>352.4</ele>
<time>2024-05-11T09:09:57Z</time>
</trkpt>
<trkpt lat="49.52500152401626" lon="9.32760614901781">
<ele>352.6</ele>
<time>2024-05-11T09:09:58Z</time>
</trkpt>
<trkpt lat="49.52501677908003" lon="9.327641436830165">
<ele>352.6</ele>
<time>2024-05-11T09:09:59Z</time>
</trkpt>
<trkpt lat="49.52503580600023" lon="9.327678652480245">
<ele>352.8</ele>
<time>2024-05-11T09:10:00Z</time>
</trkpt>
<trkpt lat="49.525051061064005" lon="9.327714862301946">
<ele>353</ele>
<time>2024-05-11T09:10:01Z</time>
</trkpt>
<trkpt lat="49.52507017180323" lon="9.327748222276568">
<ele>353.2</ele>
<time>2024-05-11T09:10:02Z</time>
</trkpt>
<trkpt lat="49.52508542686701" lon="9.327781666070225">
<ele>353.4</ele>
<time>2024-05-11T09:10:03Z</time>
</trkpt>
<trkpt lat="49.52510068193078" lon="9.327813098207116">
<ele>353.4</ele>
<time>2024-05-11T09:10:04Z</time>
</trkpt>
<trkpt lat="49.52511593699455" lon="9.32784360833466">
<ele>353.6</ele>
<time>2024-05-11T09:10:05Z</time>
</trkpt>
<trkpt lat="49.525131192058325" lon="9.327870346605778">
<ele>353.8</ele>
<time>2024-05-11T09:10:06Z</time>
</trkpt>
<trkpt lat="49.5251464471221" lon="9.327898006886244">
<ele>353.8</ele>
<time>2024-05-11T09:10:07Z</time>
</trkpt>
<trkpt lat="49.52516170218587" lon="9.327928517013788">
<ele>354</ele>
<time>2024-05-11T09:10:08Z</time>
</trkpt>
<trkpt lat="49.525173185393214" lon="9.327958105131984">
<ele>354.2</ele>
<time>2024-05-11T09:10:09Z</time>
</trkpt>
<trkpt lat="49.525188440456986" lon="9.327988615259528">
<ele>354.4</ele>
<time>2024-05-11T09:10:10Z</time>
</trkpt>
<trkpt lat="49.525207467377186" lon="9.32802004739642">
<ele>354.6</ele>
<time>2024-05-11T09:10:11Z</time>
</trkpt>
<trkpt lat="49.52522272244096" lon="9.328053407371044">
<ele>354.8</ele>
<time>2024-05-11T09:10:12Z</time>
</trkpt>
<trkpt lat="49.52524183318019" lon="9.328088695183396">
<ele>355</ele>
<time>2024-05-11T09:10:13Z</time>
</trkpt>
<trkpt lat="49.5252532325685" lon="9.3281230609864">
<ele>355.2</ele>
<time>2024-05-11T09:10:14Z</time>
</trkpt>
<trkpt lat="49.525268487632275" lon="9.32816027663648">
<ele>355.4</ele>
<time>2024-05-11T09:10:15Z</time>
</trkpt>
<trkpt lat="49.52528374269605" lon="9.328193636611104">
<ele>355.6</ele>
<time>2024-05-11T09:10:16Z</time>
</trkpt>
<trkpt lat="49.525306625291705" lon="9.328225068747996">
<ele>355.8</ele>
<time>2024-05-11T09:10:17Z</time>
</trkpt>
<trkpt lat="49.52532188035548" lon="9.328256584703922">
<ele>356</ele>
<time>2024-05-11T09:10:18Z</time>
</trkpt>
<trkpt lat="49.52534484677017" lon="9.328288016840816">
<ele>356.2</ele>
<time>2024-05-11T09:10:19Z</time>
</trkpt>
<trkpt lat="49.52536010183394" lon="9.328321376815438">
<ele>356.2</ele>
<time>2024-05-11T09:10:20Z</time>
</trkpt>
<trkpt lat="49.52537912875414" lon="9.328352892771363">
<ele>356.4</ele>
<time>2024-05-11T09:10:21Z</time>
</trkpt>
<trkpt lat="49.52539823949337" lon="9.328390108421443">
<ele>356.6</ele>
<time>2024-05-11T09:10:22Z</time>
</trkpt>
<trkpt lat="49.52541349455714" lon="9.328428246080875">
<ele>356.8</ele>
<time>2024-05-11T09:10:23Z</time>
</trkpt>
<trkpt lat="49.5254363771528" lon="9.328465461730955">
<ele>357</ele>
<time>2024-05-11T09:10:24Z</time>
</trkpt>
<trkpt lat="49.525455404073" lon="9.328501671552658">
<ele>357.2</ele>
<time>2024-05-11T09:10:25Z</time>
</trkpt>
<trkpt lat="49.52547451481223" lon="9.32853788137436">
<ele>357.4</ele>
<time>2024-05-11T09:10:26Z</time>
</trkpt>
<trkpt lat="49.52549354173243" lon="9.328573169186711">
<ele>357.6</ele>
<time>2024-05-11T09:10:27Z</time>
</trkpt>
<trkpt lat="49.52551265247166" lon="9.328608456999063">
<ele>357.8</ele>
<time>2024-05-11T09:10:28Z</time>
</trkpt>
<trkpt lat="49.52553176321089" lon="9.328643744811416">
<ele>358</ele>
<time>2024-05-11T09:10:29Z</time>
</trkpt>
<trkpt lat="49.52555464580655" lon="9.32867811061442">
<ele>358.2</ele>
<time>2024-05-11T09:10:30Z</time>
</trkpt>
<trkpt lat="49.52557367272675" lon="9.328713398426771">
<ele>358.2</ele>
<time>2024-05-11T09:10:31Z</time>
</trkpt>
<trkpt lat="49.52559655532241" lon="9.328748686239123">
<ele>358.4</ele>
<time>2024-05-11T09:10:32Z</time>
</trkpt>
<trkpt lat="49.52561943791807" lon="9.328782968223097">
<ele>358.6</ele>
<time>2024-05-11T09:10:33Z</time>
</trkpt>
<trkpt lat="49.525642320513725" lon="9.328818256035447">
<ele>358.6</ele>
<time>2024-05-11T09:10:34Z</time>
</trkpt>
<trkpt lat="49.525665203109384" lon="9.328851699829102">
<ele>358.8</ele>
<time>2024-05-11T09:10:35Z</time>
</trkpt>
<trkpt lat="49.5256919413805" lon="9.328885059803724">
<ele>359</ele>
<time>2024-05-11T09:10:36Z</time>
</trkpt>
<trkpt lat="49.52571482397616" lon="9.328920347616076">
<ele>359.2</ele>
<time>2024-05-11T09:10:37Z</time>
</trkpt>
<trkpt lat="49.52573770657182" lon="9.328956557437778">
<ele>359.2</ele>
<time>2024-05-11T09:10:38Z</time>
</trkpt>
<trkpt lat="49.525764444842935" lon="9.328988073393704">
<ele>359.4</ele>
<time>2024-05-11T09:10:39Z</time>
</trkpt>
<trkpt lat="49.52579109929502" lon="9.329021433368323">
<ele>359.6</ele>
<time>2024-05-11T09:10:40Z</time>
</trkpt>
<trkpt lat="49.52581398189068" lon="9.329054793342948">
<ele>359.8</ele>
<time>2024-05-11T09:10:41Z</time>
</trkpt>
<trkpt lat="49.52584072016179" lon="9.3290900811553">
<ele>360</ele>
<time>2024-05-11T09:10:42Z</time>
</trkpt>
<trkpt lat="49.525863602757454" lon="9.329125368967652">
<ele>360</ele>
<time>2024-05-11T09:10:43Z</time>
</trkpt>
<trkpt lat="49.52589034102857" lon="9.329159734770656">
<ele>360.2</ele>
<time>2024-05-11T09:10:44Z</time>
</trkpt>
<trkpt lat="49.52591322362423" lon="9.329193094745278">
<ele>360.4</ele>
<time>2024-05-11T09:10:45Z</time>
</trkpt>
<trkpt lat="49.525939878076315" lon="9.329224526882172">
<ele>360.4</ele>
<time>2024-05-11T09:10:46Z</time>
</trkpt>
<trkpt lat="49.52596276067197" lon="9.329257886856794">
<ele>360.6</ele>
<time>2024-05-11T09:10:47Z</time>
</trkpt>
<trkpt lat="49.52598564326763" lon="9.329291330650449">
<ele>360.6</ele>
<time>2024-05-11T09:10:48Z</time>
</trkpt>
<trkpt lat="49.52600852586329" lon="9.329324690625072">
<ele>360.6</ele>
<time>2024-05-11T09:10:49Z</time>
</trkpt>
<trkpt lat="49.52603149227798" lon="9.329355200752616">
<ele>360.8</ele>
<time>2024-05-11T09:10:50Z</time>
</trkpt>
<trkpt lat="49.526058146730065" lon="9.32938856072724">
<ele>361</ele>
<time>2024-05-11T09:10:51Z</time>
</trkpt>
<trkpt lat="49.52608102932573" lon="9.329418148845434">
<ele>361</ele>
<time>2024-05-11T09:10:52Z</time>
</trkpt>
<trkpt lat="49.52610391192138" lon="9.329449580982327">
<ele>361.2</ele>
<time>2024-05-11T09:10:53Z</time>
</trkpt>
<trkpt lat="49.52612679451704" lon="9.3294820189476">
<ele>361.2</ele>
<time>2024-05-11T09:10:54Z</time>
</trkpt>
<trkpt lat="49.52615353278816" lon="9.329513534903526">
<ele>361.2</ele>
<time>2024-05-11T09:10:55Z</time>
</trkpt>
<trkpt lat="49.526176415383816" lon="9.32954496704042">
<ele>361.4</ele>
<time>2024-05-11T09:10:56Z</time>
</trkpt>
<trkpt lat="49.526199297979474" lon="9.329574555158615">
<ele>361.6</ele>
<time>2024-05-11T09:10:57Z</time>
</trkpt>
<trkpt lat="49.52622218057513" lon="9.32960506528616">
<ele>361.8</ele>
<time>2024-05-11T09:10:58Z</time>
</trkpt>
<trkpt lat="49.52624506317079" lon="9.329634653404357">
<ele>361.8</ele>
<time>2024-05-11T09:10:59Z</time>
</trkpt>
<trkpt lat="49.52626794576645" lon="9.329667091369627">
<ele>362</ele>
<time>2024-05-11T09:11:00Z</time>
</trkpt>
<trkpt lat="49.52629082836211" lon="9.329696595668793">
<ele>362.2</ele>
<time>2024-05-11T09:11:01Z</time>
</trkpt>
<trkpt lat="49.526313710957766" lon="9.32972526177764">
<ele>362.2</ele>
<time>2024-05-11T09:11:02Z</time>
</trkpt>
<trkpt lat="49.526336593553424" lon="9.329754766076803">
<ele>362.4</ele>
<time>2024-05-11T09:11:03Z</time>
</trkpt>
<trkpt lat="49.526355704292655" lon="9.329785276204348">
<ele>362.4</ele>
<time>2024-05-11T09:11:04Z</time>
</trkpt>
<trkpt lat="49.52637858688831" lon="9.329814864322543">
<ele>362.6</ele>
<time>2024-05-11T09:11:05Z</time>
</trkpt>
<trkpt lat="49.52640146948397" lon="9.329845374450088">
<ele>362.6</ele>
<time>2024-05-11T09:11:06Z</time>
</trkpt>
<trkpt lat="49.52642435207963" lon="9.329873034730554">
<ele>362.6</ele>
<time>2024-05-11T09:11:07Z</time>
</trkpt>
<trkpt lat="49.52644346281886" lon="9.329903544858098">
<ele>362.6</ele>
<time>2024-05-11T09:11:09Z</time>
</trkpt>
<trkpt lat="49.52648160047829" lon="9.32995794340968">
<ele>362.8</ele>
<time>2024-05-11T09:11:10Z</time>
</trkpt>
<trkpt lat="49.52650448307395" lon="9.329986525699496">
<ele>362.8</ele>
<time>2024-05-11T09:11:11Z</time>
</trkpt>
<trkpt lat="49.52652350999415" lon="9.330015107989311">
<ele>362.8</ele>
<time>2024-05-11T09:11:12Z</time>
</trkpt>
<trkpt lat="49.52654262073338" lon="9.330041846260428">
<ele>362.8</ele>
<time>2024-05-11T09:11:13Z</time>
</trkpt>
<trkpt lat="49.52656550332904" lon="9.330069506540896">
<ele>363</ele>
<time>2024-05-11T09:11:14Z</time>
</trkpt>
<trkpt lat="49.5265883859247" lon="9.330096244812012">
<ele>363</ele>
<time>2024-05-11T09:11:15Z</time>
</trkpt>
<trkpt lat="49.52660364098847" lon="9.330126754939556">
<ele>363.2</ele>
<time>2024-05-11T09:11:16Z</time>
</trkpt>
<trkpt lat="49.5266227517277" lon="9.330153409391642">
<ele>363.4</ele>
<time>2024-05-11T09:11:17Z</time>
</trkpt>
<trkpt lat="49.5266417786479" lon="9.33018014766276">
<ele>363.4</ele>
<time>2024-05-11T09:11:18Z</time>
</trkpt>
<trkpt lat="49.52666466124356" lon="9.330204958096148">
<ele>363.6</ele>
<time>2024-05-11T09:11:19Z</time>
</trkpt>
<trkpt lat="49.52668377198279" lon="9.330229684710504">
<ele>363.8</ele>
<time>2024-05-11T09:11:20Z</time>
</trkpt>
<trkpt lat="49.52670279890299" lon="9.33025642298162">
<ele>364</ele>
<time>2024-05-11T09:11:21Z</time>
</trkpt>
<trkpt lat="49.52672190964222" lon="9.330285005271437">
<ele>364</ele>
<time>2024-05-11T09:11:22Z</time>
</trkpt>
<trkpt lat="49.52674479223788" lon="9.33031367138028">
<ele>364.2</ele>
<time>2024-05-11T09:11:23Z</time>
</trkpt>
<trkpt lat="49.52676390297711" lon="9.330341331660748">
<ele>364.4</ele>
<time>2024-05-11T09:11:24Z</time>
</trkpt>
<trkpt lat="49.52678292989731" lon="9.330369913950562">
<ele>364.4</ele>
<time>2024-05-11T09:11:25Z</time>
</trkpt>
<trkpt lat="49.52680204063654" lon="9.33039665222168">
<ele>364.4</ele>
<time>2024-05-11T09:11:26Z</time>
</trkpt>
<trkpt lat="49.5268249232322" lon="9.330425234511496">
<ele>364.6</ele>
<time>2024-05-11T09:11:27Z</time>
</trkpt>
<trkpt lat="49.5268439501524" lon="9.33045289479196">
<ele>364.8</ele>
<time>2024-05-11T09:11:28Z</time>
</trkpt>
<trkpt lat="49.52686306089163" lon="9.330479549244046">
<ele>365</ele>
<time>2024-05-11T09:11:29Z</time>
</trkpt>
<trkpt lat="49.52688217163086" lon="9.330505365505816">
<ele>365</ele>
<time>2024-05-11T09:11:30Z</time>
</trkpt>
<trkpt lat="49.52690505422652" lon="9.33053009212017">
<ele>365.2</ele>
<time>2024-05-11T09:11:31Z</time>
</trkpt>
<trkpt lat="49.526927936822176" lon="9.330556830391288">
<ele>365.4</ele>
<time>2024-05-11T09:11:32Z</time>
</trkpt>
<trkpt lat="49.526950819417834" lon="9.330579712986946">
<ele>365.4</ele>
<time>2024-05-11T09:11:33Z</time>
</trkpt>
<trkpt lat="49.526969846338034" lon="9.330604523420334">
<ele>365.6</ele>
<time>2024-05-11T09:11:34Z</time>
</trkpt>
<trkpt lat="49.52699658460915" lon="9.33063025586307">
<ele>365.8</ele>
<time>2024-05-11T09:11:35Z</time>
</trkpt>
<trkpt lat="49.52701946720481" lon="9.330653138458729">
<ele>366</ele>
<time>2024-05-11T09:11:36Z</time>
</trkpt>
<trkpt lat="49.52704234980047" lon="9.330675099045038">
<ele>366.2</ele>
<time>2024-05-11T09:11:37Z</time>
</trkpt>
<trkpt lat="49.527065232396126" lon="9.330697059631348">
<ele>366.4</ele>
<time>2024-05-11T09:11:38Z</time>
</trkpt>
<trkpt lat="49.527088114991784" lon="9.330719942227006">
<ele>366.6</ele>
<time>2024-05-11T09:11:39Z</time>
</trkpt>
<trkpt lat="49.5271148532629" lon="9.330739974975586">
<ele>366.8</ele>
<time>2024-05-11T09:11:40Z</time>
</trkpt>
<trkpt lat="49.52713773585856" lon="9.330758079886436">
<ele>367</ele>
<time>2024-05-11T09:11:41Z</time>
</trkpt>
<trkpt lat="49.527164390310645" lon="9.330776184797289">
<ele>367</ele>
<time>2024-05-11T09:11:42Z</time>
</trkpt>
<trkpt lat="49.52719112858176" lon="9.330796217545869">
<ele>367.2</ele>
<time>2024-05-11T09:11:43Z</time>
</trkpt>
<trkpt lat="49.52721778303385" lon="9.330815244466066">
<ele>367.4</ele>
<time>2024-05-11T09:11:44Z</time>
</trkpt>
<trkpt lat="49.527248376980424" lon="9.330833433195949">
<ele>367.6</ele>
<time>2024-05-11T09:11:45Z</time>
</trkpt>
<trkpt lat="49.52727503143251" lon="9.33084961026907">
<ele>367.6</ele>
<time>2024-05-11T09:11:46Z</time>
</trkpt>
<trkpt lat="49.52730176970363" lon="9.330864865332842">
<ele>367.8</ele>
<time>2024-05-11T09:11:47Z</time>
</trkpt>
<trkpt lat="49.52732842415571" lon="9.330880120396614">
<ele>368</ele>
<time>2024-05-11T09:11:48Z</time>
</trkpt>
<trkpt lat="49.52735516242683" lon="9.330893447622657">
<ele>368</ele>
<time>2024-05-11T09:11:49Z</time>
</trkpt>
<trkpt lat="49.527381816878915" lon="9.330906858667731">
<ele>368.2</ele>
<time>2024-05-11T09:11:50Z</time>
</trkpt>
<trkpt lat="49.52741241082549" lon="9.330920185893774">
<ele>368.4</ele>
<time>2024-05-11T09:11:51Z</time>
</trkpt>
<trkpt lat="49.527439065277576" lon="9.33092974126339">
<ele>368.6</ele>
<time>2024-05-11T09:11:52Z</time>
</trkpt>
<trkpt lat="49.52746957540512" lon="9.330942146480083">
<ele>368.8</ele>
<time>2024-05-11T09:11:53Z</time>
</trkpt>
<trkpt lat="49.527500085532665" lon="9.330951618030667">
<ele>369</ele>
<time>2024-05-11T09:11:54Z</time>
</trkpt>
<trkpt lat="49.52753059566021" lon="9.330960251390934">
<ele>369.2</ele>
<time>2024-05-11T09:11:55Z</time>
</trkpt>
<trkpt lat="49.527561105787754" lon="9.330971650779247">
<ele>369.6</ele>
<time>2024-05-11T09:11:56Z</time>
</trkpt>
<trkpt lat="49.52759169973433" lon="9.330981206148865">
<ele>369.8</ele>
<time>2024-05-11T09:11:57Z</time>
</trkpt>
<trkpt lat="49.527622209861875" lon="9.330991683527827">
<ele>370</ele>
<time>2024-05-11T09:11:58Z</time>
</trkpt>
<trkpt lat="49.52765271998942" lon="9.331001238897445">
<ele>370.2</ele>
<time>2024-05-11T09:11:59Z</time>
</trkpt>
<trkpt lat="49.52768323011696" lon="9.331009788438678">
<ele>370.4</ele>
<time>2024-05-11T09:12:00Z</time>
</trkpt>
<trkpt lat="49.52771374024451" lon="9.331018421798944">
<ele>370.6</ele>
<time>2024-05-11T09:12:01Z</time>
</trkpt>
<trkpt lat="49.52774425037205" lon="9.33102697134018">
<ele>370.8</ele>
<time>2024-05-11T09:12:02Z</time>
</trkpt>
<trkpt lat="49.5277747604996" lon="9.331031749024987">
<ele>371.2</ele>
<time>2024-05-11T09:12:03Z</time>
</trkpt>
<trkpt lat="49.527801498770714" lon="9.331040382385254">
<ele>371.4</ele>
<time>2024-05-11T09:12:05Z</time>
</trkpt>
<trkpt lat="49.527858663350344" lon="9.331060331314802">
<ele>371.8</ele>
<time>2024-05-11T09:12:06Z</time>
</trkpt>
<trkpt lat="49.52788917347789" lon="9.331069886684418">
<ele>372</ele>
<time>2024-05-11T09:12:07Z</time>
</trkpt>
<trkpt lat="49.527915911749005" lon="9.331076592206957">
<ele>372.2</ele>
<time>2024-05-11T09:12:08Z</time>
</trkpt>
<trkpt lat="49.52794642187655" lon="9.33108706958592">
<ele>372.4</ele>
<time>2024-05-11T09:12:09Z</time>
</trkpt>
<trkpt lat="49.527976932004094" lon="9.331094697117804">
<ele>372.6</ele>
<time>2024-05-11T09:12:10Z</time>
</trkpt>
<trkpt lat="49.52800744213164" lon="9.331100396811962">
<ele>372.8</ele>
<time>2024-05-11T09:12:11Z</time>
</trkpt>
<trkpt lat="49.52803418040275" lon="9.331108024343848">
<ele>373</ele>
<time>2024-05-11T09:12:12Z</time>
</trkpt>
<trkpt lat="49.5280646905303" lon="9.331118501722813">
<ele>373.4</ele>
<time>2024-05-11T09:12:13Z</time>
</trkpt>
<trkpt lat="49.528095200657845" lon="9.331128057092428">
<ele>373.6</ele>
<time>2024-05-11T09:12:14Z</time>
</trkpt>
<trkpt lat="49.52812193892896" lon="9.331132834777236">
<ele>373.8</ele>
<time>2024-05-11T09:12:15Z</time>
</trkpt>
<trkpt lat="49.528152449056506" lon="9.331139540299771">
<ele>374</ele>
<time>2024-05-11T09:12:16Z</time>
</trkpt>
<trkpt lat="49.52818295918405" lon="9.33114523999393">
<ele>374.4</ele>
<time>2024-05-11T09:12:17Z</time>
</trkpt>
<trkpt lat="49.528213469311595" lon="9.331150017678738">
<ele>374.4</ele>
<time>2024-05-11T09:12:18Z</time>
</trkpt>
<trkpt lat="49.52824397943914" lon="9.331154795363544">
<ele>374.6</ele>
<time>2024-05-11T09:12:19Z</time>
</trkpt>
<trkpt lat="49.52827448956669" lon="9.331161417067053">
<ele>374.8</ele>
<time>2024-05-11T09:12:20Z</time>
</trkpt>
<trkpt lat="49.52830499969423" lon="9.33116527274251">
<ele>375</ele>
<time>2024-05-11T09:12:21Z</time>
</trkpt>
<trkpt lat="49.52833936549723" lon="9.331170050427318">
<ele>375.2</ele>
<time>2024-05-11T09:12:22Z</time>
</trkpt>
<trkpt lat="49.528369875624776" lon="9.331174828112124">
<ele>375.4</ele>
<time>2024-05-11T09:12:23Z</time>
</trkpt>
<trkpt lat="49.52839653007686" lon="9.331179605796931">
<ele>375.6</ele>
<time>2024-05-11T09:12:24Z</time>
</trkpt>
<trkpt lat="49.52842712402344" lon="9.33118622750044">
<ele>375.8</ele>
<time>2024-05-11T09:12:25Z</time>
</trkpt>
<trkpt lat="49.52845763415098" lon="9.331192933022976">
<ele>375.8</ele>
<time>2024-05-11T09:12:26Z</time>
</trkpt>
<trkpt lat="49.528488144278526" lon="9.331199638545511">
<ele>376</ele>
<time>2024-05-11T09:12:27Z</time>
</trkpt>
<trkpt lat="49.52851479873061" lon="9.331208188086748">
<ele>376</ele>
<time>2024-05-11T09:12:28Z</time>
</trkpt>
<trkpt lat="49.52854530885816" lon="9.331219671294091">
<ele>376.2</ele>
<time>2024-05-11T09:12:29Z</time>
</trkpt>
<trkpt lat="49.52857967466116" lon="9.331232998520136">
<ele>376.4</ele>
<time>2024-05-11T09:12:30Z</time>
</trkpt>
<trkpt lat="49.52860641293228" lon="9.331250181421638">
<ele>376.6</ele>
<time>2024-05-11T09:12:31Z</time>
</trkpt>
<trkpt lat="49.52863692305982" lon="9.331270214170218">
<ele>376.6</ele>
<time>2024-05-11T09:12:32Z</time>
</trkpt>
<trkpt lat="49.528667433187366" lon="9.331291168928146">
<ele>376.8</ele>
<time>2024-05-11T09:12:33Z</time>
</trkpt>
<trkpt lat="49.52869794331491" lon="9.331314973533154">
<ele>377</ele>
<time>2024-05-11T09:12:34Z</time>
</trkpt>
<trkpt lat="49.528728453442454" lon="9.33134171180427">
<ele>377.2</ele>
<time>2024-05-11T09:12:35Z</time>
</trkpt>
<trkpt lat="49.52875896357" lon="9.331370294094086">
<ele>377.2</ele>
<time>2024-05-11T09:12:36Z</time>
</trkpt>
<trkpt lat="49.528793329373" lon="9.331397032365205">
<ele>377.4</ele>
<time>2024-05-11T09:12:37Z</time>
</trkpt>
<trkpt lat="49.52882383950055" lon="9.331423686817288">
<ele>377.4</ele>
<time>2024-05-11T09:12:38Z</time>
</trkpt>
<trkpt lat="49.52885812148452" lon="9.331455202773212">
<ele>377.6</ele>
<time>2024-05-11T09:12:39Z</time>
</trkpt>
<trkpt lat="49.52888863161206" lon="9.331484790891407">
<ele>377.8</ele>
<time>2024-05-11T09:12:40Z</time>
</trkpt>
<trkpt lat="49.52891914173961" lon="9.331516223028302">
<ele>377.8</ele>
<time>2024-05-11T09:12:41Z</time>
</trkpt>
<trkpt lat="49.52894973568618" lon="9.331546733155848">
<ele>378</ele>
<time>2024-05-11T09:12:42Z</time>
</trkpt>
<trkpt lat="49.52898024581373" lon="9.331575315445662">
<ele>378</ele>
<time>2024-05-11T09:12:43Z</time>
</trkpt>
<trkpt lat="49.52901075594127" lon="9.331602975726128">
<ele>378.2</ele>
<time>2024-05-11T09:12:44Z</time>
</trkpt>
<trkpt lat="49.52903741039336" lon="9.331629713997245">
<ele>378.2</ele>
<time>2024-05-11T09:12:45Z</time>
</trkpt>
<trkpt lat="49.5290679205209" lon="9.331656452268362">
<ele>378.4</ele>
<time>2024-05-11T09:12:46Z</time>
</trkpt>
<trkpt lat="49.529098430648446" lon="9.331685034558175">
<ele>378.4</ele>
<time>2024-05-11T09:12:47Z</time>
</trkpt>
<trkpt lat="49.529121397063136" lon="9.3317183945328">
<ele>378.6</ele>
<time>2024-05-11T09:12:48Z</time>
</trkpt>
<trkpt lat="49.529144279658794" lon="9.331761309877038">
<ele>378.6</ele>
<time>2024-05-11T09:12:49Z</time>
</trkpt>
<trkpt lat="49.529163306578994" lon="9.331809924915431">
<ele>378.8</ele>
<time>2024-05-11T09:12:50Z</time>
</trkpt>
<trkpt lat="49.529182417318225" lon="9.33185669593513">
<ele>378.8</ele>
<time>2024-05-11T09:12:51Z</time>
</trkpt>
<trkpt lat="49.52920529991388" lon="9.331899611279368">
<ele>379</ele>
<time>2024-05-11T09:12:52Z</time>
</trkpt>
<trkpt lat="49.52923195436597" lon="9.33193682692945">
<ele>379</ele>
<time>2024-05-11T09:12:53Z</time>
</trkpt>
<trkpt lat="49.529258692637086" lon="9.331963481381536">
<ele>379</ele>
<time>2024-05-11T09:12:54Z</time>
</trkpt>
<trkpt lat="49.52929305844009" lon="9.331976808607578">
<ele>379.2</ele>
<time>2024-05-11T09:12:55Z</time>
</trkpt>
<trkpt lat="49.52932734042406" lon="9.33197781443596">
<ele>379.2</ele>
<time>2024-05-11T09:12:56Z</time>
</trkpt>
<trkpt lat="49.529361706227064" lon="9.331963481381536">
<ele>379.2</ele>
<time>2024-05-11T09:12:58Z</time>
</trkpt>
<trkpt lat="49.52942649833858" lon="9.331912016496062">
<ele>379.2</ele>
<time>2024-05-11T09:12:59Z</time>
</trkpt>
<trkpt lat="49.5294532366097" lon="9.331890055909753">
<ele>379.2</ele>
<time>2024-05-11T09:13:00Z</time>
</trkpt>
<trkpt lat="49.52949137426913" lon="9.331879578530788">
<ele>379.4</ele>
<time>2024-05-11T09:13:01Z</time>
</trkpt>
<trkpt lat="49.52952574007213" lon="9.33187672868371">
<ele>379.4</ele>
<time>2024-05-11T09:13:02Z</time>
</trkpt>
<trkpt lat="49.5295600220561" lon="9.33187865652144">
<ele>379.4</ele>
<time>2024-05-11T09:13:03Z</time>
</trkpt>
<trkpt lat="49.52959053218365" lon="9.331888128072023">
<ele>379.4</ele>
<time>2024-05-11T09:13:04Z</time>
</trkpt>
<trkpt lat="49.52962489798665" lon="9.331906316801906">
<ele>379.6</ele>
<time>2024-05-11T09:13:05Z</time>
</trkpt>
<trkpt lat="49.529655408114195" lon="9.331928193569183">
<ele>379.6</ele>
<time>2024-05-11T09:13:06Z</time>
</trkpt>
<trkpt lat="49.52968214638531" lon="9.331952081993222">
<ele>379.6</ele>
<time>2024-05-11T09:13:07Z</time>
</trkpt>
<trkpt lat="49.52971265651286" lon="9.331976808607578">
<ele>379.8</ele>
<time>2024-05-11T09:13:08Z</time>
</trkpt>
<trkpt lat="49.52973931096494" lon="9.332004468888044">
<ele>379.8</ele>
<time>2024-05-11T09:13:09Z</time>
</trkpt>
<trkpt lat="49.52976604923606" lon="9.332031207159162">
<ele>379.8</ele>
<time>2024-05-11T09:13:10Z</time>
</trkpt>
<trkpt lat="49.5297965593636" lon="9.33205794543028">
<ele>380</ele>
<time>2024-05-11T09:13:11Z</time>
</trkpt>
<trkpt lat="49.52982329763472" lon="9.332084599882364">
<ele>380</ele>
<time>2024-05-11T09:13:12Z</time>
</trkpt>
<trkpt lat="49.529849952086806" lon="9.3321103323251">
<ele>380.2</ele>
<time>2024-05-11T09:13:13Z</time>
</trkpt>
<trkpt lat="49.52988046221435" lon="9.332137070596218">
<ele>380.4</ele>
<time>2024-05-11T09:13:14Z</time>
</trkpt>
<trkpt lat="49.52990720048547" lon="9.332162803038957">
<ele>380.6</ele>
<time>2024-05-11T09:13:15Z</time>
</trkpt>
<trkpt lat="49.52993385493755" lon="9.332189541310072">
<ele>380.8</ele>
<time>2024-05-11T09:13:16Z</time>
</trkpt>
<trkpt lat="49.52996059320867" lon="9.33221334591508">
<ele>381</ele>
<time>2024-05-11T09:13:18Z</time>
</trkpt>
<trkpt lat="49.53001784160733" lon="9.332262966781856">
<ele>381.6</ele>
<time>2024-05-11T09:13:19Z</time>
</trkpt>
<trkpt lat="49.53004449605942" lon="9.33228962123394">
<ele>381.8</ele>
<time>2024-05-11T09:13:20Z</time>
</trkpt>
<trkpt lat="49.530071234330535" lon="9.332320131361485">
<ele>382</ele>
<time>2024-05-11T09:13:21Z</time>
</trkpt>
<trkpt lat="49.53009788878262" lon="9.33234779164195">
<ele>382.4</ele>
<time>2024-05-11T09:13:22Z</time>
</trkpt>
<trkpt lat="49.53012462705374" lon="9.332374529913068">
<ele>382.6</ele>
<time>2024-05-11T09:13:23Z</time>
</trkpt>
<trkpt lat="49.53015513718128" lon="9.332401268184183">
<ele>383</ele>
<time>2024-05-11T09:13:24Z</time>
</trkpt>
<trkpt lat="49.53017801977694" lon="9.33242792263627">
<ele>383.2</ele>
<time>2024-05-11T09:13:25Z</time>
</trkpt>
<trkpt lat="49.53020475804806" lon="9.332454660907388">
<ele>383.4</ele>
<time>2024-05-11T09:13:26Z</time>
</trkpt>
<trkpt lat="49.53023141250014" lon="9.332481315359471">
<ele>383.6</ele>
<time>2024-05-11T09:13:27Z</time>
</trkpt>
<trkpt lat="49.53025815077126" lon="9.33250612579286">
<ele>383.8</ele>
<time>2024-05-11T09:13:28Z</time>
</trkpt>
<trkpt lat="49.53028103336692" lon="9.332531858235598">
<ele>384</ele>
<time>2024-05-11T09:13:29Z</time>
</trkpt>
<trkpt lat="49.53030768781901" lon="9.332556668668984">
<ele>384.2</ele>
<time>2024-05-11T09:13:30Z</time>
</trkpt>
<trkpt lat="49.53033442609012" lon="9.332583406940104">
<ele>384.4</ele>
<time>2024-05-11T09:13:31Z</time>
</trkpt>
<trkpt lat="49.53035730868578" lon="9.332611989229918">
<ele>384.6</ele>
<time>2024-05-11T09:13:32Z</time>
</trkpt>
<trkpt lat="49.53038019128144" lon="9.332638727501037">
<ele>384.8</ele>
<time>2024-05-11T09:13:33Z</time>
</trkpt>
<trkpt lat="49.530403073877096" lon="9.33266345411539">
<ele>385</ele>
<time>2024-05-11T09:13:34Z</time>
</trkpt>
<trkpt lat="49.53042981214821" lon="9.33268642053008">
<ele>385.2</ele>
<time>2024-05-11T09:13:35Z</time>
</trkpt>
<trkpt lat="49.53045269474387" lon="9.332711147144437">
<ele>385.6</ele>
<time>2024-05-11T09:13:36Z</time>
</trkpt>
<trkpt lat="49.53047934919596" lon="9.332737885415554">
<ele>385.8</ele>
<time>2024-05-11T09:13:37Z</time>
</trkpt>
<trkpt lat="49.53050231561065" lon="9.332764623686671">
<ele>386</ele>
<time>2024-05-11T09:13:38Z</time>
</trkpt>
<trkpt lat="49.53052897006273" lon="9.332790356129408">
<ele>386.2</ele>
<time>2024-05-11T09:13:39Z</time>
</trkpt>
<trkpt lat="49.53055185265839" lon="9.332815166562796">
<ele>386.6</ele>
<time>2024-05-11T09:13:40Z</time>
</trkpt>
<trkpt lat="49.53057859092951" lon="9.332839893177152">
<ele>386.8</ele>
<time>2024-05-11T09:13:41Z</time>
</trkpt>
<trkpt lat="49.530605245381594" lon="9.33286277577281">
<ele>387</ele>
<time>2024-05-11T09:13:42Z</time>
</trkpt>
<trkpt lat="49.53062812797725" lon="9.332886664196849">
<ele>387.2</ele>
<time>2024-05-11T09:13:43Z</time>
</trkpt>
<trkpt lat="49.53065486624837" lon="9.332911474630237">
<ele>387.4</ele>
<time>2024-05-11T09:13:44Z</time>
</trkpt>
<trkpt lat="49.53067774884403" lon="9.332935279235244">
<ele>387.6</ele>
<time>2024-05-11T09:13:45Z</time>
</trkpt>
<trkpt lat="49.530700631439686" lon="9.332958161830902">
<ele>387.6</ele>
<time>2024-05-11T09:13:46Z</time>
</trkpt>
<trkpt lat="49.530723514035344" lon="9.33298205025494">
<ele>387.8</ele>
<time>2024-05-11T09:13:47Z</time>
</trkpt>
<trkpt lat="49.53075025230646" lon="9.33300300501287">
<ele>388</ele>
<time>2024-05-11T09:13:48Z</time>
</trkpt>
<trkpt lat="49.53077690675855" lon="9.333026809617875">
<ele>388.2</ele>
<time>2024-05-11T09:13:49Z</time>
</trkpt>
<trkpt lat="49.530799789354205" lon="9.333047848194838">
<ele>388.2</ele>
<time>2024-05-11T09:13:50Z</time>
</trkpt>
<trkpt lat="49.53082652762532" lon="9.333071652799845">
<ele>388.4</ele>
<time>2024-05-11T09:13:51Z</time>
</trkpt>
<trkpt lat="49.53084941022098" lon="9.333094535395505">
<ele>388.6</ele>
<time>2024-05-11T09:13:52Z</time>
</trkpt>
<trkpt lat="49.5308761484921" lon="9.333118423819542">
<ele>388.6</ele>
<time>2024-05-11T09:13:53Z</time>
</trkpt>
<trkpt lat="49.53090280294418" lon="9.3331413064152">
<ele>388.8</ele>
<time>2024-05-11T09:13:54Z</time>
</trkpt>
<trkpt lat="49.53092568553984" lon="9.333165111020207">
<ele>388.8</ele>
<time>2024-05-11T09:13:55Z</time>
</trkpt>
<trkpt lat="49.53095242381096" lon="9.333187071606517">
<ele>389</ele>
<time>2024-05-11T09:13:56Z</time>
</trkpt>
<trkpt lat="49.53097907826304" lon="9.333208026364446">
<ele>389</ele>
<time>2024-05-11T09:13:57Z</time>
</trkpt>
<trkpt lat="49.531002044677734" lon="9.333231914788485">
<ele>389.2</ele>
<time>2024-05-11T09:13:58Z</time>
</trkpt>
<trkpt lat="49.53102492727339" lon="9.333252869546412">
<ele>389.4</ele>
<time>2024-05-11T09:13:59Z</time>
</trkpt>
<trkpt lat="49.53104780986905" lon="9.33327667415142">
<ele>389.4</ele>
<time>2024-05-11T09:14:00Z</time>
</trkpt>
<trkpt lat="49.53106683678925" lon="9.333294862881305">
<ele>389.6</ele>
<time>2024-05-11T09:14:01Z</time>
</trkpt>
<trkpt lat="49.53108971938491" lon="9.333311961963773">
<ele>389.8</ele>
<time>2024-05-11T09:14:02Z</time>
</trkpt>
<trkpt lat="49.53110883012414" lon="9.333321517333388">
<ele>389.8</ele>
<time>2024-05-11T09:14:03Z</time>
</trkpt>
<trkpt lat="49.5311317127198" lon="9.333323445171118">
<ele>390</ele>
<time>2024-05-11T09:14:04Z</time>
</trkpt>
<trkpt lat="49.53115836717189" lon="9.33331673964858">
<ele>390</ele>
<time>2024-05-11T09:14:05Z</time>
</trkpt>
<trkpt lat="49.531181333586574" lon="9.333306262269616">
<ele>390.2</ele>
<time>2024-05-11T09:14:06Z</time>
</trkpt>
<trkpt lat="49.53120421618223" lon="9.333290085196497">
<ele>390.2</ele>
<time>2024-05-11T09:14:07Z</time>
</trkpt>
<trkpt lat="49.53123087063432" lon="9.333281451836228">
<ele>390.4</ele>
<time>2024-05-11T09:14:08Z</time>
</trkpt>
<trkpt lat="49.531257608905435" lon="9.33327860198915">
<ele>390.6</ele>
<time>2024-05-11T09:14:09Z</time>
</trkpt>
<trkpt lat="49.53128811903298" lon="9.333288157358766">
<ele>390.6</ele>
<time>2024-05-11T09:14:10Z</time>
</trkpt>
<trkpt lat="49.531314773485065" lon="9.333306262269616">
<ele>390.8</ele>
<time>2024-05-11T09:14:11Z</time>
</trkpt>
<trkpt lat="49.53134151175618" lon="9.333334844559433">
<ele>391</ele>
<time>2024-05-11T09:14:12Z</time>
</trkpt>
<trkpt lat="49.53136439435184" lon="9.333370132371783">
<ele>391.2</ele>
<time>2024-05-11T09:14:13Z</time>
</trkpt>
<trkpt lat="49.5313872769475" lon="9.333406426012516">
<ele>391.4</ele>
<time>2024-05-11T09:14:14Z</time>
</trkpt>
<trkpt lat="49.53140638768673" lon="9.333444563671948">
<ele>391.6</ele>
<time>2024-05-11T09:14:15Z</time>
</trkpt>
<trkpt lat="49.53142927028239" lon="9.333490328863263">
<ele>391.8</ele>
<time>2024-05-11T09:14:16Z</time>
</trkpt>
<trkpt lat="49.531452152878046" lon="9.3335332442075">
<ele>392</ele>
<time>2024-05-11T09:14:17Z</time>
</trkpt>
<trkpt lat="49.531475035473704" lon="9.33357523754239">
<ele>392.2</ele>
<time>2024-05-11T09:14:18Z</time>
</trkpt>
<trkpt lat="49.53149791806936" lon="9.3336162250489">
<ele>392.4</ele>
<time>2024-05-11T09:14:19Z</time>
</trkpt>
<trkpt lat="49.53152080066502" lon="9.33365629054606">
<ele>392.6</ele>
<time>2024-05-11T09:14:20Z</time>
</trkpt>
<trkpt lat="49.53154368326068" lon="9.333698200061916">
<ele>392.8</ele>
<time>2024-05-11T09:14:21Z</time>
</trkpt>
<trkpt lat="49.53156656585634" lon="9.333740193396808">
<ele>393</ele>
<time>2024-05-11T09:14:22Z</time>
</trkpt>
<trkpt lat="49.531593304127455" lon="9.333781180903316">
<ele>393.2</ele>
<time>2024-05-11T09:14:23Z</time>
</trkpt>
<trkpt lat="49.53161618672311" lon="9.333823174238203">
<ele>393.4</ele>
<time>2024-05-11T09:14:24Z</time>
</trkpt>
<trkpt lat="49.53163906931877" lon="9.333867011591792">
<ele>393.4</ele>
<time>2024-05-11T09:14:25Z</time>
</trkpt>
<trkpt lat="49.53166572377086" lon="9.333905149251224">
<ele>393.6</ele>
<time>2024-05-11T09:14:26Z</time>
</trkpt>
<trkpt lat="49.53168869018555" lon="9.333943286910651">
<ele>393.6</ele>
<time>2024-05-11T09:14:28Z</time>
</trkpt>
<trkpt lat="49.53174208290875" lon="9.334014868363738">
<ele>393.8</ele>
<time>2024-05-11T09:14:29Z</time>
</trkpt>
<trkpt lat="49.531768737360835" lon="9.33405208401382">
<ele>393.8</ele>
<time>2024-05-11T09:14:30Z</time>
</trkpt>
<trkpt lat="49.53179161995649" lon="9.33409022167325">
<ele>394</ele>
<time>2024-05-11T09:14:31Z</time>
</trkpt>
<trkpt lat="49.53181835822761" lon="9.33412835933268">
<ele>394</ele>
<time>2024-05-11T09:14:32Z</time>
</trkpt>
<trkpt lat="49.53184124082327" lon="9.33416842482984">
<ele>394.2</ele>
<time>2024-05-11T09:14:33Z</time>
</trkpt>
<trkpt lat="49.531867979094386" lon="9.334208406507967">
<ele>394.2</ele>
<time>2024-05-11T09:14:34Z</time>
</trkpt>
<trkpt lat="49.53189463354647" lon="9.334248472005129">
<ele>394.4</ele>
<time>2024-05-11T09:14:35Z</time>
</trkpt>
<trkpt lat="49.53191751614213" lon="9.33428660966456">
<ele>394.4</ele>
<time>2024-05-11T09:14:36Z</time>
</trkpt>
<trkpt lat="49.53194425441325" lon="9.33432667516172">
<ele>394.6</ele>
<time>2024-05-11T09:14:37Z</time>
</trkpt>
<trkpt lat="49.53197090886533" lon="9.33436481282115">
<ele>394.6</ele>
<time>2024-05-11T09:14:38Z</time>
</trkpt>
<trkpt lat="49.53199764713645" lon="9.334403034299612">
<ele>394.8</ele>
<time>2024-05-11T09:14:39Z</time>
</trkpt>
<trkpt lat="49.532024301588535" lon="9.33444494381547">
<ele>395</ele>
<time>2024-05-11T09:14:40Z</time>
</trkpt>
<trkpt lat="49.53205103985965" lon="9.33448693715036">
<ele>395</ele>
<time>2024-05-11T09:14:41Z</time>
</trkpt>
<trkpt lat="49.53207777813077" lon="9.334529852494596">
<ele>395.2</ele>
<time>2024-05-11T09:14:42Z</time>
</trkpt>
<trkpt lat="49.532104432582855" lon="9.334574695676563">
<ele>395.2</ele>
<time>2024-05-11T09:14:43Z</time>
</trkpt>
<trkpt lat="49.53213117085397" lon="9.334616605192425">
<ele>395.4</ele>
<time>2024-05-11T09:14:44Z</time>
</trkpt>
<trkpt lat="49.53215782530606" lon="9.334658598527312">
<ele>395.4</ele>
<time>2024-05-11T09:14:45Z</time>
</trkpt>
<trkpt lat="49.532184563577175" lon="9.33469958603382">
<ele>395.4</ele>
<time>2024-05-11T09:14:46Z</time>
</trkpt>
<trkpt lat="49.53221130184829" lon="9.33474157936871">
<ele>395.6</ele>
<time>2024-05-11T09:14:47Z</time>
</trkpt>
<trkpt lat="49.53223795630038" lon="9.334783488884568">
<ele>395.6</ele>
<time>2024-05-11T09:14:48Z</time>
</trkpt>
<trkpt lat="49.532264694571495" lon="9.334821626544">
<ele>395.6</ele>
<time>2024-05-11T09:14:49Z</time>
</trkpt>
<trkpt lat="49.53229520469904" lon="9.33486169204116">
<ele>395.8</ele>
<time>2024-05-11T09:14:50Z</time>
</trkpt>
<trkpt lat="49.5323180872947" lon="9.334903685376048">
<ele>395.8</ele>
<time>2024-05-11T09:14:51Z</time>
</trkpt>
<trkpt lat="49.53234859742224" lon="9.334943750873208">
<ele>395.8</ele>
<time>2024-05-11T09:14:52Z</time>
</trkpt>
<trkpt lat="49.53237533569336" lon="9.334982810541987">
<ele>395.8</ele>
<time>2024-05-11T09:14:53Z</time>
</trkpt>
<trkpt lat="49.532401990145445" lon="9.335024803876877">
<ele>396</ele>
<time>2024-05-11T09:14:54Z</time>
</trkpt>
<trkpt lat="49.53242872841656" lon="9.335066713392736">
<ele>396</ele>
<time>2024-05-11T09:14:55Z</time>
</trkpt>
<trkpt lat="49.53245923854411" lon="9.335104934871197">
<ele>396.2</ele>
<time>2024-05-11T09:14:56Z</time>
</trkpt>
<trkpt lat="49.53248589299619" lon="9.335143072530627">
<ele>396.4</ele>
<time>2024-05-11T09:14:57Z</time>
</trkpt>
<trkpt lat="49.532516403123736" lon="9.335183138027787">
<ele>396.4</ele>
<time>2024-05-11T09:14:58Z</time>
</trkpt>
<trkpt lat="49.532543141394854" lon="9.335223119705915">
<ele>396.6</ele>
<time>2024-05-11T09:14:59Z</time>
</trkpt>
<trkpt lat="49.53256987966597" lon="9.335263185203075">
<ele>396.6</ele>
<time>2024-05-11T09:15:00Z</time>
</trkpt>
<trkpt lat="49.532600389793515" lon="9.335305178537965">
<ele>396.8</ele>
<time>2024-05-11T09:15:01Z</time>
</trkpt>
<trkpt lat="49.5326270442456" lon="9.335346166044474">
<ele>396.8</ele>
<time>2024-05-11T09:15:02Z</time>
</trkpt>
<trkpt lat="49.53264992684126" lon="9.335385309532285">
<ele>396.8</ele>
<time>2024-05-11T09:15:03Z</time>
</trkpt>
<trkpt lat="49.532676665112376" lon="9.335421519353986">
<ele>396.8</ele>
<time>2024-05-11T09:15:04Z</time>
</trkpt>
<trkpt lat="49.53270331956446" lon="9.335459657013416">
<ele>397</ele>
<time>2024-05-11T09:15:05Z</time>
</trkpt>
<trkpt lat="49.53272628597915" lon="9.335498800501227">
<ele>397</ele>
<time>2024-05-11T09:15:06Z</time>
</trkpt>
<trkpt lat="49.53275294043124" lon="9.335539788007736">
<ele>397</ele>
<time>2024-05-11T09:15:07Z</time>
</trkpt>
<trkpt lat="49.532779678702354" lon="9.335579853504896">
<ele>397</ele>
<time>2024-05-11T09:15:08Z</time>
</trkpt>
<trkpt lat="49.53280633315444" lon="9.335621763020754">
<ele>397</ele>
<time>2024-05-11T09:15:09Z</time>
</trkpt>
<trkpt lat="49.53283307142556" lon="9.335659900680184">
<ele>397</ele>
<time>2024-05-11T09:15:10Z</time>
</trkpt>
<trkpt lat="49.53285972587764" lon="9.335699966177344">
<ele>397</ele>
<time>2024-05-11T09:15:11Z</time>
</trkpt>
<trkpt lat="49.53288646414876" lon="9.335741959512234">
<ele>397</ele>
<time>2024-05-11T09:15:12Z</time>
</trkpt>
<trkpt lat="49.532916974276304" lon="9.335780097171664">
<ele>397</ele>
<time>2024-05-11T09:15:13Z</time>
</trkpt>
<trkpt lat="49.53294371254742" lon="9.335822090506554">
<ele>397.2</ele>
<time>2024-05-11T09:15:14Z</time>
</trkpt>
<trkpt lat="49.532974222674966" lon="9.335863078013062">
<ele>397.2</ele>
<time>2024-05-11T09:15:15Z</time>
</trkpt>
<trkpt lat="49.53300087712705" lon="9.335905071347952">
<ele>397.2</ele>
<time>2024-05-11T09:15:16Z</time>
</trkpt>
<trkpt lat="49.53302761539817" lon="9.33594505302608">
<ele>397.4</ele>
<time>2024-05-11T09:15:17Z</time>
</trkpt>
<trkpt lat="49.533054269850254" lon="9.33598704636097">
<ele>397.4</ele>
<time>2024-05-11T09:15:18Z</time>
</trkpt>
<trkpt lat="49.53308486379683" lon="9.336029961705208">
<ele>397.6</ele>
<time>2024-05-11T09:15:19Z</time>
</trkpt>
<trkpt lat="49.53311151824891" lon="9.336074804887176">
<ele>397.6</ele>
<time>2024-05-11T09:15:20Z</time>
</trkpt>
<trkpt lat="49.53314202837646" lon="9.336118642240764">
<ele>397.8</ele>
<time>2024-05-11T09:15:21Z</time>
</trkpt>
<trkpt lat="49.533172538504" lon="9.336161557585">
<ele>397.8</ele>
<time>2024-05-11T09:15:22Z</time>
</trkpt>
<trkpt lat="49.53320304863155" lon="9.33620355091989">
<ele>398</ele>
<time>2024-05-11T09:15:23Z</time>
</trkpt>
<trkpt lat="49.533229786902666" lon="9.3362445384264">
<ele>398</ele>
<time>2024-05-11T09:15:24Z</time>
</trkpt>
<trkpt lat="49.53325652517378" lon="9.33628460392356">
<ele>398.2</ele>
<time>2024-05-11T09:15:25Z</time>
</trkpt>
<trkpt lat="49.53328703530133" lon="9.336328441277146">
<ele>398.2</ele>
<time>2024-05-11T09:15:26Z</time>
</trkpt>
<trkpt lat="49.53331754542887" lon="9.336371356621385">
<ele>398.2</ele>
<time>2024-05-11T09:15:27Z</time>
</trkpt>
<trkpt lat="49.53334419988096" lon="9.336409494280815">
<ele>398.2</ele>
<time>2024-05-11T09:15:28Z</time>
</trkpt>
<trkpt lat="49.533370938152075" lon="9.336448637768626">
<ele>398.4</ele>
<time>2024-05-11T09:15:29Z</time>
</trkpt>
<trkpt lat="49.53339759260416" lon="9.336486775428057">
<ele>398.6</ele>
<time>2024-05-11T09:15:30Z</time>
</trkpt>
<trkpt lat="49.53342433087528" lon="9.336524913087487">
<ele>398.6</ele>
<time>2024-05-11T09:15:31Z</time>
</trkpt>
<trkpt lat="49.53345484100282" lon="9.336563050746918">
<ele>398.6</ele>
<time>2024-05-11T09:15:32Z</time>
</trkpt>
<trkpt lat="49.53348157927394" lon="9.336603116244078">
<ele>398.8</ele>
<time>2024-05-11T09:15:33Z</time>
</trkpt>
<trkpt lat="49.53351208940148" lon="9.336645109578969">
<ele>398.8</ele>
<time>2024-05-11T09:15:34Z</time>
</trkpt>
<trkpt lat="49.533546371385455" lon="9.336687019094825">
<ele>398.8</ele>
<time>2024-05-11T09:15:35Z</time>
</trkpt>
<trkpt lat="49.53357696533203" lon="9.336729934439065">
<ele>399</ele>
<time>2024-05-11T09:15:36Z</time>
</trkpt>
<trkpt lat="49.533607475459576" lon="9.3367728497833">
<ele>399</ele>
<time>2024-05-11T09:15:37Z</time>
</trkpt>
<trkpt lat="49.53364175744355" lon="9.33681677095592">
<ele>399.2</ele>
<time>2024-05-11T09:15:38Z</time>
</trkpt>
<trkpt lat="49.53367612324655" lon="9.33685683645308">
<ele>399.4</ele>
<time>2024-05-11T09:15:39Z</time>
</trkpt>
<trkpt lat="49.53371040523052" lon="9.336898745968938">
<ele>399.4</ele>
<time>2024-05-11T09:15:40Z</time>
</trkpt>
<trkpt lat="49.533744771033525" lon="9.336937889456747">
<ele>399.6</ele>
<time>2024-05-11T09:15:41Z</time>
</trkpt>
<trkpt lat="49.53377913683653" lon="9.336979798972608">
<ele>399.6</ele>
<time>2024-05-11T09:15:42Z</time>
</trkpt>
<trkpt lat="49.5338134188205" lon="9.337021792307496">
<ele>399.6</ele>
<time>2024-05-11T09:15:43Z</time>
</trkpt>
<trkpt lat="49.533847784623504" lon="9.337064707651734">
<ele>399.6</ele>
<time>2024-05-11T09:15:44Z</time>
</trkpt>
<trkpt lat="49.53387829475105" lon="9.337108545005322">
<ele>399.6</ele>
<time>2024-05-11T09:15:45Z</time>
</trkpt>
<trkpt lat="49.53391257673502" lon="9.337149616330862">
<ele>399.6</ele>
<time>2024-05-11T09:15:46Z</time>
</trkpt>
<trkpt lat="49.53394694253802" lon="9.33719152584672">
<ele>399.6</ele>
<time>2024-05-11T09:15:47Z</time>
</trkpt>
<trkpt lat="49.533981308341026" lon="9.33723544701934">
<ele>399.4</ele>
<time>2024-05-11T09:15:48Z</time>
</trkpt>
<trkpt lat="49.534015590325" lon="9.337278362363575">
<ele>399.4</ele>
<time>2024-05-11T09:15:49Z</time>
</trkpt>
<trkpt lat="49.534049956128" lon="9.337320271879436">
<ele>399.4</ele>
<time>2024-05-11T09:15:50Z</time>
</trkpt>
<trkpt lat="49.534080466255546" lon="9.337363187223673">
<ele>399.2</ele>
<time>2024-05-11T09:15:51Z</time>
</trkpt>
<trkpt lat="49.53411483205855" lon="9.337407108396292">
<ele>399.2</ele>
<time>2024-05-11T09:15:52Z</time>
</trkpt>
<trkpt lat="49.53414911404252" lon="9.3374480959028">
<ele>399.2</ele>
<time>2024-05-11T09:15:53Z</time>
</trkpt>
<trkpt lat="49.53418347984552" lon="9.337490005418658">
<ele>399.2</ele>
<time>2024-05-11T09:15:54Z</time>
</trkpt>
<trkpt lat="49.534221617504954" lon="9.337531998753548">
<ele>399.2</ele>
<time>2024-05-11T09:15:55Z</time>
</trkpt>
<trkpt lat="49.534255899488926" lon="9.337572064250708">
<ele>399.4</ele>
<time>2024-05-11T09:15:56Z</time>
</trkpt>
<trkpt lat="49.5342864934355" lon="9.337613051757216">
<ele>399.4</ele>
<time>2024-05-11T09:15:57Z</time>
</trkpt>
<trkpt lat="49.53432463109493" lon="9.337655045092106">
<ele>399.4</ele>
<time>2024-05-11T09:15:58Z</time>
</trkpt>
<trkpt lat="49.53435514122248" lon="9.337695110589266">
<ele>399.6</ele>
<time>2024-05-11T09:15:59Z</time>
</trkpt>
<trkpt lat="49.53438942320645" lon="9.337737020105124">
<ele>399.6</ele>
<time>2024-05-11T09:16:00Z</time>
</trkpt>
<trkpt lat="49.53442378900945" lon="9.337776163592936">
<ele>399.8</ele>
<time>2024-05-11T09:16:01Z</time>
</trkpt>
<trkpt lat="49.53445429913699" lon="9.337816229090096">
<ele>400</ele>
<time>2024-05-11T09:16:02Z</time>
</trkpt>
<trkpt lat="49.53448866494" lon="9.337858138605952">
<ele>400.2</ele>
<time>2024-05-11T09:16:03Z</time>
</trkpt>
<trkpt lat="49.534519175067544" lon="9.337896276265385">
<ele>400.2</ele>
<time>2024-05-11T09:16:04Z</time>
</trkpt>
<trkpt lat="49.53455345705152" lon="9.337935419753194">
<ele>400.4</ele>
<time>2024-05-11T09:16:05Z</time>
</trkpt>
<trkpt lat="49.53458019532263" lon="9.337973557412624">
<ele>400.4</ele>
<time>2024-05-11T09:16:06Z</time>
</trkpt>
<trkpt lat="49.53461070545018" lon="9.338013622909784">
<ele>400.6</ele>
<time>2024-05-11T09:16:07Z</time>
</trkpt>
<trkpt lat="49.53464121557772" lon="9.338051760569217">
<ele>400.6</ele>
<time>2024-05-11T09:16:08Z</time>
</trkpt>
<trkpt lat="49.534671725705266" lon="9.338089898228644">
<ele>400.8</ele>
<time>2024-05-11T09:16:09Z</time>
</trkpt>
<trkpt lat="49.53470223583281" lon="9.338128035888076">
<ele>400.8</ele>
<time>2024-05-11T09:16:10Z</time>
</trkpt>
<trkpt lat="49.534736601635814" lon="9.338166173547506">
<ele>401</ele>
<time>2024-05-11T09:16:11Z</time>
</trkpt>
<trkpt lat="49.53476711176336" lon="9.338208166882396">
<ele>401.2</ele>
<time>2024-05-11T09:16:12Z</time>
</trkpt>
<trkpt lat="49.5347976218909" lon="9.338248232379556">
<ele>401.2</ele>
<time>2024-05-11T09:16:13Z</time>
</trkpt>
<trkpt lat="49.53482813201845" lon="9.338290141895412">
<ele>401.4</ele>
<time>2024-05-11T09:16:14Z</time>
</trkpt>
<trkpt lat="49.53485487028957" lon="9.338328279554844">
<ele>401.6</ele>
<time>2024-05-11T09:16:15Z</time>
</trkpt>
<trkpt lat="49.534889152273536" lon="9.338366501033306">
<ele>401.6</ele>
<time>2024-05-11T09:16:16Z</time>
</trkpt>
<trkpt lat="49.53491966240108" lon="9.338403632864356">
<ele>401.8</ele>
<time>2024-05-11T09:16:17Z</time>
</trkpt>
<trkpt lat="49.534950256347656" lon="9.33843799866736">
<ele>402</ele>
<time>2024-05-11T09:16:18Z</time>
</trkpt>
<trkpt lat="49.53497691079974" lon="9.33847521431744">
<ele>402.2</ele>
<time>2024-05-11T09:16:19Z</time>
</trkpt>
<trkpt lat="49.535007420927286" lon="9.338511424139142">
<ele>402.4</ele>
<time>2024-05-11T09:16:20Z</time>
</trkpt>
<trkpt lat="49.53503793105483" lon="9.338551489636302">
<ele>402.6</ele>
<time>2024-05-11T09:16:21Z</time>
</trkpt>
<trkpt lat="49.535068441182375" lon="9.338589627295732">
<ele>402.8</ele>
<time>2024-05-11T09:16:22Z</time>
</trkpt>
<trkpt lat="49.53509895130992" lon="9.338626842945814">
<ele>403</ele>
<time>2024-05-11T09:16:23Z</time>
</trkpt>
<trkpt lat="49.53513331711292" lon="9.338664980605245">
<ele>403.2</ele>
<time>2024-05-11T09:16:24Z</time>
</trkpt>
<trkpt lat="49.53516382724047" lon="9.338703118264675">
<ele>403.4</ele>
<time>2024-05-11T09:16:25Z</time>
</trkpt>
<trkpt lat="49.53519819304347" lon="9.338743183761837">
<ele>403.6</ele>
<time>2024-05-11T09:16:26Z</time>
</trkpt>
<trkpt lat="49.535228703171015" lon="9.338781321421266">
<ele>403.8</ele>
<time>2024-05-11T09:16:27Z</time>
</trkpt>
<trkpt lat="49.53525921329856" lon="9.338820381090043">
<ele>403.8</ele>
<time>2024-05-11T09:16:28Z</time>
</trkpt>
<trkpt lat="49.535289723426104" lon="9.338858602568507">
<ele>404</ele>
<time>2024-05-11T09:16:29Z</time>
</trkpt>
<trkpt lat="49.53532023355365" lon="9.338894812390208">
<ele>404.2</ele>
<time>2024-05-11T09:16:30Z</time>
</trkpt>
<trkpt lat="49.53535459935665" lon="9.33893295004964">
<ele>404.2</ele>
<time>2024-05-11T09:16:31Z</time>
</trkpt>
<trkpt lat="49.53538510948419" lon="9.33897016569972">
<ele>404.4</ele>
<time>2024-05-11T09:16:32Z</time>
</trkpt>
<trkpt lat="49.53541561961174" lon="9.33900830335915">
<ele>404.6</ele>
<time>2024-05-11T09:16:33Z</time>
</trkpt>
<trkpt lat="49.53544990159571" lon="9.33904644101858">
<ele>404.8</ele>
<time>2024-05-11T09:16:34Z</time>
</trkpt>
<trkpt lat="49.53547663986683" lon="9.339084578678012">
<ele>405</ele>
<time>2024-05-11T09:16:35Z</time>
</trkpt>
<trkpt lat="49.53550714999437" lon="9.339121794328094">
<ele>405</ele>
<time>2024-05-11T09:16:36Z</time>
</trkpt>
<trkpt lat="49.53553766012192" lon="9.339158004149796">
<ele>405.2</ele>
<time>2024-05-11T09:16:37Z</time>
</trkpt>
<trkpt lat="49.53556817024946" lon="9.339196141809223">
<ele>405.4</ele>
<time>2024-05-11T09:16:38Z</time>
</trkpt>
<trkpt lat="49.53559490852058" lon="9.339233357459308">
<ele>405.6</ele>
<time>2024-05-11T09:16:39Z</time>
</trkpt>
<trkpt lat="49.53562541864813" lon="9.33926864527166">
<ele>405.8</ele>
<time>2024-05-11T09:16:40Z</time>
</trkpt>
<trkpt lat="49.53565592877567" lon="9.33930485509336">
<ele>405.8</ele>
<time>2024-05-11T09:16:41Z</time>
</trkpt>
<trkpt lat="49.53568643890321" lon="9.339342070743442">
<ele>405.8</ele>
<time>2024-05-11T09:16:42Z</time>
</trkpt>
<trkpt lat="49.53571317717433" lon="9.339381214231253">
<ele>406</ele>
<time>2024-05-11T09:16:43Z</time>
</trkpt>
<trkpt lat="49.535743687301874" lon="9.33942312374711">
<ele>406</ele>
<time>2024-05-11T09:16:44Z</time>
</trkpt>
<trkpt lat="49.53577419742942" lon="9.33946126140654">
<ele>406.2</ele>
<time>2024-05-11T09:16:45Z</time>
</trkpt>
<trkpt lat="49.53580470755696" lon="9.339498477056624">
<ele>406.2</ele>
<time>2024-05-11T09:16:46Z</time>
</trkpt>
<trkpt lat="49.53583144582808" lon="9.339531837031243">
<ele>406.4</ele>
<time>2024-05-11T09:16:47Z</time>
</trkpt>
<trkpt lat="49.535858100280166" lon="9.339566202834249">
<ele>406.4</ele>
<time>2024-05-11T09:16:48Z</time>
</trkpt>
<trkpt lat="49.535880982875824" lon="9.339599562808871">
<ele>406.6</ele>
<time>2024-05-11T09:16:49Z</time>
</trkpt>
<trkpt lat="49.53590386547148" lon="9.339634850621223">
<ele>406.6</ele>
<time>2024-05-11T09:16:50Z</time>
</trkpt>
<trkpt lat="49.5359306037426" lon="9.339668210595846">
<ele>406.6</ele>
<time>2024-05-11T09:16:51Z</time>
</trkpt>
<trkpt lat="49.53595348633826" lon="9.339699726551771">
<ele>406.8</ele>
<time>2024-05-11T09:16:52Z</time>
</trkpt>
<trkpt lat="49.535980224609375" lon="9.339730236679316">
<ele>406.8</ele>
<time>2024-05-11T09:16:53Z</time>
</trkpt>
<trkpt lat="49.53600687906146" lon="9.339766446501017">
<ele>406.8</ele>
<time>2024-05-11T09:16:54Z</time>
</trkpt>
<trkpt lat="49.53602976165712" lon="9.339804584160447">
<ele>406.8</ele>
<time>2024-05-11T09:16:55Z</time>
</trkpt>
<trkpt lat="49.53605649992824" lon="9.339844649657609">
<ele>406.8</ele>
<time>2024-05-11T09:16:56Z</time>
</trkpt>
<trkpt lat="49.53608315438032" lon="9.339884715154769">
<ele>406.8</ele>
<time>2024-05-11T09:16:57Z</time>
</trkpt>
<trkpt lat="49.53610989265144" lon="9.339926708489656">
<ele>407</ele>
<time>2024-05-11T09:16:58Z</time>
</trkpt>
<trkpt lat="49.53613654710352" lon="9.339964846149089">
<ele>407</ele>
<time>2024-05-11T09:16:59Z</time>
</trkpt>
<trkpt lat="49.53616328537464" lon="9.340001977980137">
<ele>407</ele>
<time>2024-05-11T09:17:00Z</time>
</trkpt>
<trkpt lat="49.53619002364576" lon="9.340042043477297">
<ele>407</ele>
<time>2024-05-11T09:17:01Z</time>
</trkpt>
<trkpt lat="49.5362205337733" lon="9.340080181136727">
<ele>407</ele>
<time>2024-05-11T09:17:02Z</time>
</trkpt>
<trkpt lat="49.53625104390085" lon="9.340120246633887">
<ele>407.2</ele>
<time>2024-05-11T09:17:03Z</time>
</trkpt>
<trkpt lat="49.53628155402839" lon="9.340161317959428">
<ele>407.2</ele>
<time>2024-05-11T09:17:04Z</time>
</trkpt>
<trkpt lat="49.53630820848048" lon="9.340205155313017">
<ele>407.4</ele>
<time>2024-05-11T09:17:05Z</time>
</trkpt>
<trkpt lat="49.53634257428348" lon="9.340246142819524">
<ele>407.6</ele>
<time>2024-05-11T09:17:06Z</time>
</trkpt>
<trkpt lat="49.536373084411025" lon="9.340290063992144">
<ele>407.6</ele>
<time>2024-05-11T09:17:07Z</time>
</trkpt>
<trkpt lat="49.53639982268214" lon="9.34033297933638">
<ele>407.8</ele>
<time>2024-05-11T09:17:08Z</time>
</trkpt>
<trkpt lat="49.53643033280969" lon="9.34037488885224">
<ele>408</ele>
<time>2024-05-11T09:17:09Z</time>
</trkpt>
<trkpt lat="49.53646461479366" lon="9.340416882187128">
<ele>408</ele>
<time>2024-05-11T09:17:10Z</time>
</trkpt>
<trkpt lat="49.536495208740234" lon="9.340459797531366">
<ele>408.2</ele>
<time>2024-05-11T09:17:11Z</time>
</trkpt>
<trkpt lat="49.53652571886778" lon="9.340503634884952">
<ele>408.2</ele>
<time>2024-05-11T09:17:12Z</time>
</trkpt>
<trkpt lat="49.53656000085175" lon="9.34054847806692">
<ele>408.2</ele>
<time>2024-05-11T09:17:13Z</time>
</trkpt>
<trkpt lat="49.536590510979295" lon="9.340593321248887">
<ele>408.2</ele>
<time>2024-05-11T09:17:14Z</time>
</trkpt>
<trkpt lat="49.53662102110684" lon="9.340638080611823">
<ele>408.2</ele>
<time>2024-05-11T09:17:15Z</time>
</trkpt>
<trkpt lat="49.536651531234384" lon="9.340682001784444">
<ele>408.2</ele>
<time>2024-05-11T09:17:16Z</time>
</trkpt>
<trkpt lat="49.53668212518096" lon="9.340722989290953">
<ele>408.2</ele>
<time>2024-05-11T09:17:17Z</time>
</trkpt>
<trkpt lat="49.536712635308504" lon="9.34076875448227">
<ele>408.2</ele>
<time>2024-05-11T09:17:18Z</time>
</trkpt>
<trkpt lat="49.53674314543605" lon="9.340813597664235">
<ele>408.4</ele>
<time>2024-05-11T09:17:19Z</time>
</trkpt>
<trkpt lat="49.53677365556359" lon="9.340858440846205">
<ele>408.4</ele>
<time>2024-05-11T09:17:20Z</time>
</trkpt>
<trkpt lat="49.53680416569114" lon="9.34090320020914">
<ele>408.4</ele>
<time>2024-05-11T09:17:21Z</time>
</trkpt>
<trkpt lat="49.53683082014322" lon="9.34094519354403">
<ele>408.4</ele>
<time>2024-05-11T09:17:22Z</time>
</trkpt>
<trkpt lat="49.5368614140898" lon="9.34098525904119">
<ele>408.4</ele>
<time>2024-05-11T09:17:23Z</time>
</trkpt>
<trkpt lat="49.53688806854189" lon="9.341028174385428">
<ele>408.6</ele>
<time>2024-05-11T09:17:24Z</time>
</trkpt>
<trkpt lat="49.53691857866943" lon="9.341072011739016">
<ele>408.6</ele>
<time>2024-05-11T09:17:25Z</time>
</trkpt>
<trkpt lat="49.53695294447243" lon="9.341114927083254">
<ele>408.4</ele>
<time>2024-05-11T09:17:26Z</time>
</trkpt>
<trkpt lat="49.53698345459998" lon="9.341157842427492">
<ele>408.4</ele>
<time>2024-05-11T09:17:27Z</time>
</trkpt>
<trkpt lat="49.53701396472752" lon="9.341199835762382">
<ele>408.4</ele>
<time>2024-05-11T09:17:28Z</time>
</trkpt>
<trkpt lat="49.537044474855065" lon="9.341243673115969">
<ele>408.6</ele>
<time>2024-05-11T09:17:29Z</time>
</trkpt>
<trkpt lat="49.53707884065807" lon="9.341288516297936">
<ele>408.6</ele>
<time>2024-05-11T09:17:30Z</time>
</trkpt>
<trkpt lat="49.53711312264204" lon="9.341335287317634">
<ele>408.6</ele>
<time>2024-05-11T09:17:31Z</time>
</trkpt>
<trkpt lat="49.53714748844504" lon="9.3413819745183">
<ele>408.6</ele>
<time>2024-05-11T09:17:32Z</time>
</trkpt>
<trkpt lat="49.53718185424805" lon="9.341428745537996">
<ele>408.6</ele>
<time>2024-05-11T09:17:33Z</time>
</trkpt>
<trkpt lat="49.53721999190748" lon="9.341473504900932">
<ele>408.6</ele>
<time>2024-05-11T09:17:34Z</time>
</trkpt>
<trkpt lat="49.53725050203502" lon="9.3415183480829">
<ele>408.6</ele>
<time>2024-05-11T09:17:35Z</time>
</trkpt>
<trkpt lat="49.53728478401899" lon="9.341563191264868">
<ele>408.6</ele>
<time>2024-05-11T09:17:36Z</time>
</trkpt>
<trkpt lat="49.53731529414654" lon="9.341605184599755">
<ele>408.6</ele>
<time>2024-05-11T09:17:37Z</time>
</trkpt>
<trkpt lat="49.53734965994954" lon="9.341646172106266">
<ele>408.4</ele>
<time>2024-05-11T09:17:38Z</time>
</trkpt>
<trkpt lat="49.537380170077085" lon="9.341690009459851">
<ele>408.4</ele>
<time>2024-05-11T09:17:39Z</time>
</trkpt>
<trkpt lat="49.53741453588009" lon="9.34173485264182">
<ele>408.4</ele>
<time>2024-05-11T09:17:40Z</time>
</trkpt>
<trkpt lat="49.53744881786406" lon="9.341779695823789">
<ele>408.4</ele>
<time>2024-05-11T09:17:41Z</time>
</trkpt>
<trkpt lat="49.537483183667064" lon="9.341825461015103">
<ele>408.4</ele>
<time>2024-05-11T09:17:42Z</time>
</trkpt>
<trkpt lat="49.537521321326494" lon="9.341870304197071">
<ele>408.4</ele>
<time>2024-05-11T09:17:43Z</time>
</trkpt>
<trkpt lat="49.5375556871295" lon="9.341915063560007">
<ele>408.4</ele>
<time>2024-05-11T09:17:44Z</time>
</trkpt>
<trkpt lat="49.53758996911347" lon="9.341961834579706">
<ele>408.4</ele>
<time>2024-05-11T09:17:45Z</time>
</trkpt>
<trkpt lat="49.5376281067729" lon="9.342004749923944">
<ele>408.4</ele>
<time>2024-05-11T09:17:46Z</time>
</trkpt>
<trkpt lat="49.5376624725759" lon="9.342049593105912">
<ele>408.4</ele>
<time>2024-05-11T09:17:47Z</time>
</trkpt>
<trkpt lat="49.53770061023533" lon="9.342095358297229">
<ele>408.4</ele>
<time>2024-05-11T09:17:48Z</time>
</trkpt>
<trkpt lat="49.53773497603834" lon="9.342138273641469">
<ele>408.4</ele>
<time>2024-05-11T09:17:49Z</time>
</trkpt>
<trkpt lat="49.53776925802231" lon="9.342181188985704">
<ele>408.4</ele>
<time>2024-05-11T09:17:50Z</time>
</trkpt>
<trkpt lat="49.53780739568174" lon="9.342223098501565">
<ele>408.4</ele>
<time>2024-05-11T09:17:51Z</time>
</trkpt>
<trkpt lat="49.53784176148474" lon="9.342267019674182">
<ele>408.4</ele>
<time>2024-05-11T09:17:52Z</time>
</trkpt>
<trkpt lat="49.537876127287745" lon="9.34230993501842">
<ele>408.4</ele>
<time>2024-05-11T09:17:53Z</time>
</trkpt>
<trkpt lat="49.537914264947176" lon="9.342354694381356">
<ele>408.6</ele>
<time>2024-05-11T09:17:54Z</time>
</trkpt>
<trkpt lat="49.53794854693115" lon="9.342398615553977">
<ele>408.6</ele>
<time>2024-05-11T09:17:55Z</time>
</trkpt>
<trkpt lat="49.53798291273415" lon="9.342443458735945">
<ele>408.6</ele>
<time>2024-05-11T09:17:56Z</time>
</trkpt>
<trkpt lat="49.53801719471812" lon="9.34248821809888">
<ele>408.8</ele>
<time>2024-05-11T09:17:57Z</time>
</trkpt>
<trkpt lat="49.538051560521126" lon="9.342531133443115">
<ele>408.8</ele>
<time>2024-05-11T09:17:58Z</time>
</trkpt>
<trkpt lat="49.53808207064867" lon="9.342573126778008">
<ele>408.8</ele>
<time>2024-05-11T09:17:59Z</time>
</trkpt>
<trkpt lat="49.538112580776215" lon="9.342615120112896">
<ele>408.8</ele>
<time>2024-05-11T09:18:00Z</time>
</trkpt>
<trkpt lat="49.53814309090376" lon="9.342657029628754">
<ele>409</ele>
<time>2024-05-11T09:18:01Z</time>
</trkpt>
<trkpt lat="49.5381736010313" lon="9.34270279482007">
<ele>409.2</ele>
<time>2024-05-11T09:18:02Z</time>
</trkpt>
<trkpt lat="49.53819648362696" lon="9.342753337696196">
<ele>409.4</ele>
<time>2024-05-11T09:18:03Z</time>
</trkpt>
<trkpt lat="49.53821559436619" lon="9.342808658257129">
<ele>409.6</ele>
<time>2024-05-11T09:18:04Z</time>
</trkpt>
<trkpt lat="49.538234705105424" lon="9.34286305680871">
<ele>409.8</ele>
<time>2024-05-11T09:18:05Z</time>
</trkpt>
<trkpt lat="49.53825373202562" lon="9.342916449531913">
<ele>410</ele>
<time>2024-05-11T09:18:06Z</time>
</trkpt>
<trkpt lat="49.53827661462128" lon="9.342969842255116">
<ele>410</ele>
<time>2024-05-11T09:18:07Z</time>
</trkpt>
<trkpt lat="49.53829949721694" lon="9.343023234978318">
<ele>410.2</ele>
<time>2024-05-11T09:18:08Z</time>
</trkpt>
<trkpt lat="49.53833000734448" lon="9.343071933835745">
<ele>410.4</ele>
<time>2024-05-11T09:18:09Z</time>
</trkpt>
<trkpt lat="49.5383567456156" lon="9.343114849179983">
<ele>410.6</ele>
<time>2024-05-11T09:18:10Z</time>
</trkpt>
<trkpt lat="49.53839488327503" lon="9.343152986839414">
<ele>410.6</ele>
<time>2024-05-11T09:18:11Z</time>
</trkpt>
<trkpt lat="49.53843302093446" lon="9.343185424804688">
<ele>410.8</ele>
<time>2024-05-11T09:18:12Z</time>
</trkpt>
<trkpt lat="49.53847501426935" lon="9.343212079256771">
<ele>411</ele>
<time>2024-05-11T09:18:13Z</time>
</trkpt>
<trkpt lat="49.53852077946067" lon="9.34323688969016">
<ele>411.2</ele>
<time>2024-05-11T09:18:14Z</time>
</trkpt>
<trkpt lat="49.53856277279556" lon="9.34325784444809">
<ele>411.4</ele>
<time>2024-05-11T09:18:15Z</time>
</trkpt>
<trkpt lat="49.538608537986875" lon="9.34327695518732">
<ele>411.4</ele>
<time>2024-05-11T09:18:16Z</time>
</trkpt>
<trkpt lat="49.53865044750273" lon="9.343293132260442">
<ele>411.6</ele>
<time>2024-05-11T09:18:17Z</time>
</trkpt>
<trkpt lat="49.53869621269405" lon="9.343308387324214">
<ele>411.6</ele>
<time>2024-05-11T09:18:18Z</time>
</trkpt>
<trkpt lat="49.5387420617044" lon="9.343321798369288">
<ele>411.8</ele>
<time>2024-05-11T09:18:19Z</time>
</trkpt>
<trkpt lat="49.538787826895714" lon="9.343333197757602">
<ele>411.8</ele>
<time>2024-05-11T09:18:20Z</time>
</trkpt>
<trkpt lat="49.53883359208703" lon="9.343343675136566">
<ele>411.8</ele>
<time>2024-05-11T09:18:21Z</time>
</trkpt>
<trkpt lat="49.53887550160289" lon="9.343350380659103">
<ele>411.8</ele>
<time>2024-05-11T09:18:22Z</time>
</trkpt>
<trkpt lat="49.53892135061323" lon="9.34335708618164">
<ele>412</ele>
<time>2024-05-11T09:18:23Z</time>
</trkpt>
<trkpt lat="49.538963260129094" lon="9.34335993602872">
<ele>412</ele>
<time>2024-05-11T09:18:24Z</time>
</trkpt>
<trkpt lat="49.539001397788525" lon="9.343364713713529">
<ele>412.2</ele>
<time>2024-05-11T09:18:25Z</time>
</trkpt>
<trkpt lat="49.539043391123414" lon="9.343370413407683">
<ele>412.2</ele>
<time>2024-05-11T09:18:26Z</time>
</trkpt>
<trkpt lat="49.539081528782845" lon="9.343373263254762">
<ele>412.4</ele>
<time>2024-05-11T09:18:27Z</time>
</trkpt>
<trkpt lat="49.539123522117734" lon="9.343377035111187">
<ele>412.6</ele>
<time>2024-05-11T09:18:28Z</time>
</trkpt>
<trkpt lat="49.539161659777164" lon="9.3433799687773">
<ele>412.6</ele>
<time>2024-05-11T09:18:29Z</time>
</trkpt>
<trkpt lat="49.539199797436595" lon="9.343383740633726">
<ele>412.8</ele>
<time>2024-05-11T09:18:30Z</time>
</trkpt>
<trkpt lat="49.53924179077149" lon="9.343386590480804">
<ele>412.8</ele>
<time>2024-05-11T09:18:31Z</time>
</trkpt>
<trkpt lat="49.539279928430915" lon="9.343391368165612">
<ele>413</ele>
<time>2024-05-11T09:18:32Z</time>
</trkpt>
<trkpt lat="49.539318066090345" lon="9.343397067859769">
<ele>413.2</ele>
<time>2024-05-11T09:18:33Z</time>
</trkpt>
<trkpt lat="49.539356203749776" lon="9.343402851372955">
<ele>413.2</ele>
<time>2024-05-11T09:18:34Z</time>
</trkpt>
<trkpt lat="49.53939048573375" lon="9.343413328751922">
<ele>413.4</ele>
<time>2024-05-11T09:18:35Z</time>
</trkpt>
<trkpt lat="49.53942485153675" lon="9.343426655977964">
<ele>413.6</ele>
<time>2024-05-11T09:18:36Z</time>
</trkpt>
<trkpt lat="49.53945158980787" lon="9.34343813918531">
<ele>413.6</ele>
<time>2024-05-11T09:18:37Z</time>
</trkpt>
<trkpt lat="49.53948209993541" lon="9.343449538573624">
<ele>413.8</ele>
<time>2024-05-11T09:18:38Z</time>
</trkpt>
<trkpt lat="49.53951261006296" lon="9.343460015952587">
<ele>413.8</ele>
<time>2024-05-11T09:18:39Z</time>
</trkpt>
<trkpt lat="49.5395431201905" lon="9.343471499159932">
<ele>414</ele>
<time>2024-05-11T09:18:40Z</time>
</trkpt>
<trkpt lat="49.539573630318046" lon="9.343481976538897">
<ele>414.2</ele>
<time>2024-05-11T09:18:41Z</time>
</trkpt>
<trkpt lat="49.53960414044559" lon="9.343491531908512">
<ele>414.4</ele>
<time>2024-05-11T09:18:42Z</time>
</trkpt>
<trkpt lat="49.539634650573134" lon="9.343502009287477">
<ele>414.4</ele>
<time>2024-05-11T09:18:43Z</time>
</trkpt>
<trkpt lat="49.53966138884425" lon="9.343511564657092">
<ele>414.6</ele>
<time>2024-05-11T09:18:44Z</time>
</trkpt>
<trkpt lat="49.53968427143991" lon="9.343520114198329">
<ele>414.6</ele>
<time>2024-05-11T09:18:45Z</time>
</trkpt>
<trkpt lat="49.53970715403557" lon="9.343528747558594">
<ele>414.8</ele>
<time>2024-05-11T09:18:46Z</time>
</trkpt>
<trkpt lat="49.539733808487654" lon="9.34353637509048">
<ele>414.8</ele>
<time>2024-05-11T09:18:47Z</time>
</trkpt>
<trkpt lat="49.539756774902344" lon="9.343546852469444">
<ele>415</ele>
<time>2024-05-11T09:18:48Z</time>
</trkpt>
<trkpt lat="49.53978342935443" lon="9.343556324020028">
<ele>415</ele>
<time>2024-05-11T09:18:49Z</time>
</trkpt>
<trkpt lat="49.53981016762555" lon="9.343566885218024">
<ele>415.2</ele>
<time>2024-05-11T09:18:50Z</time>
</trkpt>
<trkpt lat="49.53984067775309" lon="9.343576356768608">
<ele>415.4</ele>
<time>2024-05-11T09:18:51Z</time>
</trkpt>
<trkpt lat="49.539867332205176" lon="9.343586917966604">
<ele>415.4</ele>
<time>2024-05-11T09:18:52Z</time>
</trkpt>
<trkpt lat="49.53989784233272" lon="9.343596389517188">
<ele>415.6</ele>
<time>2024-05-11T09:18:53Z</time>
</trkpt>
<trkpt lat="49.53992458060384" lon="9.343606866896152">
<ele>415.8</ele>
<time>2024-05-11T09:18:54Z</time>
</trkpt>
<trkpt lat="49.539951318874955" lon="9.343616422265768">
<ele>415.8</ele>
<time>2024-05-11T09:18:55Z</time>
</trkpt>
<trkpt lat="49.5399818290025" lon="9.343626899644732">
<ele>416</ele>
<time>2024-05-11T09:18:56Z</time>
</trkpt>
<trkpt lat="49.54001233913005" lon="9.343636455014348">
<ele>416.2</ele>
<time>2024-05-11T09:18:57Z</time>
</trkpt>
<trkpt lat="49.54004284925759" lon="9.343647938221691">
<ele>416.4</ele>
<time>2024-05-11T09:18:58Z</time>
</trkpt>
<trkpt lat="49.54007335938513" lon="9.343661265447736">
<ele>416.6</ele>
<time>2024-05-11T09:18:59Z</time>
</trkpt>
<trkpt lat="49.54009624198079" lon="9.34367459267378">
<ele>416.8</ele>
<time>2024-05-11T09:19:00Z</time>
</trkpt>
<trkpt lat="49.54012298025191" lon="9.34368984773755">
<ele>416.8</ele>
<time>2024-05-11T09:19:01Z</time>
</trkpt>
<trkpt lat="49.54014586284757" lon="9.343705102801325">
<ele>417</ele>
<time>2024-05-11T09:19:02Z</time>
</trkpt>
<trkpt lat="49.540168745443225" lon="9.343721363693476">
<ele>417.2</ele>
<time>2024-05-11T09:19:03Z</time>
</trkpt>
<trkpt lat="49.54019162803888" lon="9.343734690919518">
<ele>417.4</ele>
<time>2024-05-11T09:19:04Z</time>
</trkpt>
<trkpt lat="49.54021451063454" lon="9.343746174126863">
<ele>417.8</ele>
<time>2024-05-11T09:19:05Z</time>
</trkpt>
<trkpt lat="49.54023353755474" lon="9.343758579343556">
<ele>418</ele>
<time>2024-05-11T09:19:06Z</time>
</trkpt>
<trkpt lat="49.5402564201504" lon="9.34376805089414">
<ele>418.2</ele>
<time>2024-05-11T09:19:07Z</time>
</trkpt>
<trkpt lat="49.54028315842152" lon="9.343779534101486">
<ele>418.2</ele>
<time>2024-05-11T09:19:08Z</time>
</trkpt>
<trkpt lat="49.540306041017175" lon="9.343792861327527">
<ele>418.4</ele>
<time>2024-05-11T09:19:09Z</time>
</trkpt>
<trkpt lat="49.54032892361283" lon="9.343806188553572">
<ele>418.6</ele>
<time>2024-05-11T09:19:10Z</time>
</trkpt>
<trkpt lat="49.54035943374038" lon="9.343823371455072">
<ele>418.6</ele>
<time>2024-05-11T09:19:11Z</time>
</trkpt>
<trkpt lat="49.54038994386792" lon="9.343838626518846">
<ele>418.8</ele>
<time>2024-05-11T09:19:12Z</time>
</trkpt>
<trkpt lat="49.540420453995466" lon="9.343852959573267">
<ele>418.8</ele>
<time>2024-05-11T09:19:13Z</time>
</trkpt>
<trkpt lat="49.54045481979847" lon="9.343872992321849">
<ele>418.8</ele>
<time>2024-05-11T09:19:14Z</time>
</trkpt>
<trkpt lat="49.54048918560147" lon="9.343894952908158">
<ele>418.8</ele>
<time>2024-05-11T09:19:15Z</time>
</trkpt>
<trkpt lat="49.54052346758544" lon="9.343921607360244">
<ele>419</ele>
<time>2024-05-11T09:19:16Z</time>
</trkpt>
<trkpt lat="49.54055783338845" lon="9.34395119547844">
<ele>419</ele>
<time>2024-05-11T09:19:17Z</time>
</trkpt>
<trkpt lat="49.54059211537242" lon="9.343983633443711">
<ele>419</ele>
<time>2024-05-11T09:19:18Z</time>
</trkpt>
<trkpt lat="49.54062648117542" lon="9.344017915427685">
<ele>419</ele>
<time>2024-05-11T09:19:19Z</time>
</trkpt>
<trkpt lat="49.54066461883485" lon="9.344055131077766">
<ele>419</ele>
<time>2024-05-11T09:19:20Z</time>
</trkpt>
<trkpt lat="49.54070275649429" lon="9.344091340899467">
<ele>419</ele>
<time>2024-05-11T09:19:21Z</time>
</trkpt>
<trkpt lat="49.54073326662183" lon="9.344121851027012">
<ele>419</ele>
<time>2024-05-11T09:19:22Z</time>
</trkpt>
<trkpt lat="49.540760004892945" lon="9.344148589298127">
<ele>418.8</ele>
<time>2024-05-11T09:19:23Z</time>
</trkpt>
<trkpt lat="49.54078288748861" lon="9.344173399731517">
<ele>418.8</ele>
<time>2024-05-11T09:19:24Z</time>
</trkpt>
<trkpt lat="49.54080962575972" lon="9.344200054183602">
<ele>418.8</ele>
<time>2024-05-11T09:19:25Z</time>
</trkpt>
<trkpt lat="49.54083250835538" lon="9.34422486461699">
<ele>418.8</ele>
<time>2024-05-11T09:19:26Z</time>
</trkpt>
<trkpt lat="49.54085153527558" lon="9.34424489736557">
<ele>418.8</ele>
<time>2024-05-11T09:19:27Z</time>
</trkpt>
<trkpt lat="49.54087064601481" lon="9.34426300227642">
<ele>418.6</ele>
<time>2024-05-11T09:19:28Z</time>
</trkpt>
<trkpt lat="49.54089352861047" lon="9.344283035025">
<ele>418.4</ele>
<time>2024-05-11T09:19:29Z</time>
</trkpt>
<trkpt lat="49.540916411206126" lon="9.34430306777358">
<ele>418.2</ele>
<time>2024-05-11T09:19:30Z</time>
</trkpt>
<trkpt lat="49.540935438126326" lon="9.34432502835989">
<ele>418</ele>
<time>2024-05-11T09:19:31Z</time>
</trkpt>
<trkpt lat="49.54096217639744" lon="9.3443469889462">
<ele>418</ele>
<time>2024-05-11T09:19:32Z</time>
</trkpt>
<trkpt lat="49.5409850589931" lon="9.344369871541858">
<ele>417.8</ele>
<time>2024-05-11T09:19:33Z</time>
</trkpt>
<trkpt lat="49.54101179726422" lon="9.344393676146863">
<ele>417.6</ele>
<time>2024-05-11T09:19:34Z</time>
</trkpt>
<trkpt lat="49.54103082418442" lon="9.344416558742523">
<ele>417.6</ele>
<time>2024-05-11T09:19:35Z</time>
</trkpt>
<trkpt lat="49.54105370678008" lon="9.344440447166562">
<ele>417.4</ele>
<time>2024-05-11T09:19:36Z</time>
</trkpt>
<trkpt lat="49.541076589375734" lon="9.34446332976222">
<ele>417.4</ele>
<time>2024-05-11T09:19:37Z</time>
</trkpt>
<trkpt lat="49.54110332764685" lon="9.344485206529498">
<ele>417.2</ele>
<time>2024-05-11T09:19:38Z</time>
</trkpt>
<trkpt lat="49.54112621024251" lon="9.34450146742165">
<ele>417.2</ele>
<time>2024-05-11T09:19:39Z</time>
</trkpt>
<trkpt lat="49.54114909283817" lon="9.3445195723325">
<ele>417.2</ele>
<time>2024-05-11T09:19:40Z</time>
</trkpt>
<trkpt lat="49.541171975433826" lon="9.34453960508108">
<ele>417.2</ele>
<time>2024-05-11T09:19:41Z</time>
</trkpt>
<trkpt lat="49.541198713704944" lon="9.34455963782966">
<ele>417</ele>
<time>2024-05-11T09:19:42Z</time>
</trkpt>
<trkpt lat="49.54122536815703" lon="9.34458159841597">
<ele>417</ele>
<time>2024-05-11T09:19:43Z</time>
</trkpt>
<trkpt lat="49.541255878284574" lon="9.344603475183249">
<ele>417</ele>
<time>2024-05-11T09:19:44Z</time>
</trkpt>
<trkpt lat="49.54128261655569" lon="9.344623507931828">
<ele>417</ele>
<time>2024-05-11T09:19:45Z</time>
</trkpt>
<trkpt lat="49.541313126683235" lon="9.34464161284268">
<ele>417</ele>
<time>2024-05-11T09:19:46Z</time>
</trkpt>
<trkpt lat="49.54133986495435" lon="9.34465980157256">
<ele>417</ele>
<time>2024-05-11T09:19:47Z</time>
</trkpt>
<trkpt lat="49.5413703750819" lon="9.344677906483412">
<ele>417</ele>
<time>2024-05-11T09:19:48Z</time>
</trkpt>
<trkpt lat="49.54140088520944" lon="9.344697939231992">
<ele>417</ele>
<time>2024-05-11T09:19:49Z</time>
</trkpt>
<trkpt lat="49.541431395336986" lon="9.34471981599927">
<ele>417</ele>
<time>2024-05-11T09:19:50Z</time>
</trkpt>
<trkpt lat="49.54146190546453" lon="9.34473984874785">
<ele>417</ele>
<time>2024-05-11T09:19:51Z</time>
</trkpt>
<trkpt lat="49.541492415592074" lon="9.34475988149643">
<ele>417</ele>
<time>2024-05-11T09:19:52Z</time>
</trkpt>
<trkpt lat="49.54152292571962" lon="9.34478184208274">
<ele>417</ele>
<time>2024-05-11T09:19:53Z</time>
</trkpt>
<trkpt lat="49.54155343584716" lon="9.34479994699359">
<ele>417</ele>
<time>2024-05-11T09:19:54Z</time>
</trkpt>
<trkpt lat="49.54158394597471" lon="9.344822829589248">
<ele>417</ele>
<time>2024-05-11T09:19:55Z</time>
</trkpt>
<trkpt lat="49.54161445610225" lon="9.344844790175555">
<ele>417</ele>
<time>2024-05-11T09:19:56Z</time>
</trkpt>
<trkpt lat="49.54164505004883" lon="9.344868594780564">
<ele>417.2</ele>
<time>2024-05-11T09:19:57Z</time>
</trkpt>
<trkpt lat="49.541671704500914" lon="9.344889633357525">
<ele>417.2</ele>
<time>2024-05-11T09:19:58Z</time>
</trkpt>
<trkpt lat="49.54170221462846" lon="9.344909666106105">
<ele>417.4</ele>
<time>2024-05-11T09:19:59Z</time>
</trkpt>
<trkpt lat="49.54173658043146" lon="9.344933470711112">
<ele>417.6</ele>
<time>2024-05-11T09:20:00Z</time>
</trkpt>
<trkpt lat="49.541767090559006" lon="9.34496020898223">
<ele>417.6</ele>
<time>2024-05-11T09:20:01Z</time>
</trkpt>
<trkpt lat="49.54180137254298" lon="9.344987869262695">
<ele>417.8</ele>
<time>2024-05-11T09:20:02Z</time>
</trkpt>
<trkpt lat="49.54183196648955" lon="9.34501645155251">
<ele>418</ele>
<time>2024-05-11T09:20:03Z</time>
</trkpt>
<trkpt lat="49.5418624766171" lon="9.345041261985898">
<ele>418</ele>
<time>2024-05-11T09:20:04Z</time>
</trkpt>
<trkpt lat="49.54189298674464" lon="9.345067916437984">
<ele>418</ele>
<time>2024-05-11T09:20:05Z</time>
</trkpt>
<trkpt lat="49.54192349687219" lon="9.345091804862022">
<ele>418</ele>
<time>2024-05-11T09:20:06Z</time>
</trkpt>
<trkpt lat="49.54195015132427" lon="9.3451136816293">
<ele>417.8</ele>
<time>2024-05-11T09:20:07Z</time>
</trkpt>
<trkpt lat="49.54197688959539" lon="9.345138492062688">
<ele>417.8</ele>
<time>2024-05-11T09:20:08Z</time>
</trkpt>
<trkpt lat="49.54200362786651" lon="9.345161374658346">
<ele>417.8</ele>
<time>2024-05-11T09:20:09Z</time>
</trkpt>
<trkpt lat="49.54203413799405" lon="9.345185263082383">
<ele>417.8</ele>
<time>2024-05-11T09:20:10Z</time>
</trkpt>
<trkpt lat="49.54206841997802" lon="9.345210073515773">
<ele>417.8</ele>
<time>2024-05-11T09:20:11Z</time>
</trkpt>
<trkpt lat="49.54209893010557" lon="9.345236727967858">
<ele>417.6</ele>
<time>2024-05-11T09:20:12Z</time>
</trkpt>
<trkpt lat="49.54212944023311" lon="9.345265310257671">
<ele>417.6</ele>
<time>2024-05-11T09:20:13Z</time>
</trkpt>
<trkpt lat="49.54216003417969" lon="9.345294898375869">
<ele>417.6</ele>
<time>2024-05-11T09:20:14Z</time>
</trkpt>
<trkpt lat="49.54219054430723" lon="9.345321636646986">
<ele>417.6</ele>
<time>2024-05-11T09:20:15Z</time>
</trkpt>
<trkpt lat="49.5422248262912" lon="9.345346447080374">
<ele>417.8</ele>
<time>2024-05-11T09:20:16Z</time>
</trkpt>
<trkpt lat="49.54225533641875" lon="9.34537310153246">
<ele>417.8</ele>
<time>2024-05-11T09:20:17Z</time>
</trkpt>
<trkpt lat="49.542282074689865" lon="9.345403611660004">
<ele>417.8</ele>
<time>2024-05-11T09:20:18Z</time>
</trkpt>
<trkpt lat="49.54231635667384" lon="9.34543127194047">
<ele>417.8</ele>
<time>2024-05-11T09:20:19Z</time>
</trkpt>
<trkpt lat="49.54234695062041" lon="9.345461782068014">
<ele>417.8</ele>
<time>2024-05-11T09:20:20Z</time>
</trkpt>
<trkpt lat="49.542381232604384" lon="9.34549137018621">
<ele>417.8</ele>
<time>2024-05-11T09:20:21Z</time>
</trkpt>
<trkpt lat="49.54241174273193" lon="9.345521880313754">
<ele>417.8</ele>
<time>2024-05-11T09:20:22Z</time>
</trkpt>
<trkpt lat="49.54244610853493" lon="9.34555146843195">
<ele>417.6</ele>
<time>2024-05-11T09:20:23Z</time>
</trkpt>
<trkpt lat="49.54248424619436" lon="9.345581978559494">
<ele>417.6</ele>
<time>2024-05-11T09:20:24Z</time>
</trkpt>
<trkpt lat="49.542518611997366" lon="9.34560963883996">
<ele>417.4</ele>
<time>2024-05-11T09:20:25Z</time>
</trkpt>
<trkpt lat="49.54255289398134" lon="9.345638221129777">
<ele>417.4</ele>
<time>2024-05-11T09:20:26Z</time>
</trkpt>
<trkpt lat="49.54258725978434" lon="9.34566680341959">
<ele>417.4</ele>
<time>2024-05-11T09:20:27Z</time>
</trkpt>
<trkpt lat="49.542617769911885" lon="9.345694463700056">
<ele>417.4</ele>
<time>2024-05-11T09:20:28Z</time>
</trkpt>
<trkpt lat="49.54265205189586" lon="9.345723129808905">
<ele>417.2</ele>
<time>2024-05-11T09:20:29Z</time>
</trkpt>
<trkpt lat="49.54268641769886" lon="9.345751712098718">
<ele>417.2</ele>
<time>2024-05-11T09:20:30Z</time>
</trkpt>
<trkpt lat="49.54272078350186" lon="9.345783228054644">
<ele>417.2</ele>
<time>2024-05-11T09:20:31Z</time>
</trkpt>
<trkpt lat="49.542755065485835" lon="9.345816588029264">
<ele>417</ele>
<time>2024-05-11T09:20:32Z</time>
</trkpt>
<trkpt lat="49.542793203145266" lon="9.345853803679349">
<ele>417</ele>
<time>2024-05-11T09:20:33Z</time>
</trkpt>
<trkpt lat="49.542831340804696" lon="9.34588808566332">
<ele>417</ele>
<time>2024-05-11T09:20:34Z</time>
</trkpt>
<trkpt lat="49.54286956228316" lon="9.34592337347567">
<ele>417</ele>
<time>2024-05-11T09:20:35Z</time>
</trkpt>
<trkpt lat="49.54290769994259" lon="9.345958661288025">
<ele>416.8</ele>
<time>2024-05-11T09:20:36Z</time>
</trkpt>
<trkpt lat="49.54294960945845" lon="9.345996798947452">
<ele>416.8</ele>
<time>2024-05-11T09:20:37Z</time>
</trkpt>
<trkpt lat="49.54298774711788" lon="9.346033092588186">
<ele>416.6</ele>
<time>2024-05-11T09:20:38Z</time>
</trkpt>
<trkpt lat="49.543029740452766" lon="9.346071230247617">
<ele>416.4</ele>
<time>2024-05-11T09:20:39Z</time>
</trkpt>
<trkpt lat="49.543071733787656" lon="9.346111295744777">
<ele>416.2</ele>
<time>2024-05-11T09:20:40Z</time>
</trkpt>
<trkpt lat="49.54311749897897" lon="9.346150355413556">
<ele>416.2</ele>
<time>2024-05-11T09:20:41Z</time>
</trkpt>
<trkpt lat="49.54316703602672" lon="9.346188493072988">
<ele>416</ele>
<time>2024-05-11T09:20:42Z</time>
</trkpt>
<trkpt lat="49.54321665689349" lon="9.346226630732415">
<ele>415.8</ele>
<time>2024-05-11T09:20:43Z</time>
</trkpt>
<trkpt lat="49.54326627776027" lon="9.346268624067308">
<ele>415.6</ele>
<time>2024-05-11T09:20:44Z</time>
</trkpt>
<trkpt lat="49.54331967048347" lon="9.346306761726735">
<ele>415.6</ele>
<time>2024-05-11T09:20:45Z</time>
</trkpt>
<trkpt lat="49.54337306320667" lon="9.346344899386168">
<ele>415.4</ele>
<time>2024-05-11T09:20:46Z</time>
</trkpt>
<trkpt lat="49.543426455929875" lon="9.346383037045598">
<ele>415.2</ele>
<time>2024-05-11T09:20:47Z</time>
</trkpt>
<trkpt lat="49.54353332519531" lon="9.346467945724726">
<ele>415</ele>
<time>2024-05-11T09:20:49Z</time>
</trkpt>
<trkpt lat="49.543586717918515" lon="9.346511783078313">
<ele>414.6</ele>
<time>2024-05-11T09:20:50Z</time>
</trkpt>
<trkpt lat="49.54363625496626" lon="9.346554698422551">
<ele>414.4</ele>
<time>2024-05-11T09:20:51Z</time>
</trkpt>
<trkpt lat="49.543685875833035" lon="9.34659861959517">
<ele>414.2</ele>
<time>2024-05-11T09:20:52Z</time>
</trkpt>
<trkpt lat="49.54373164102435" lon="9.34663960710168">
<ele>414</ele>
<time>2024-05-11T09:20:53Z</time>
</trkpt>
<trkpt lat="49.54378126189113" lon="9.34667967259884">
<ele>413.8</ele>
<time>2024-05-11T09:20:54Z</time>
</trkpt>
<trkpt lat="49.54382702708244" lon="9.346721582114697">
<ele>413.6</ele>
<time>2024-05-11T09:20:55Z</time>
</trkpt>
<trkpt lat="49.54387664794922" lon="9.346766425296664">
<ele>413.2</ele>
<time>2024-05-11T09:20:56Z</time>
</trkpt>
<trkpt lat="49.54393004067242" lon="9.346808418631554">
<ele>413</ele>
<time>2024-05-11T09:20:57Z</time>
</trkpt>
<trkpt lat="49.543983433395624" lon="9.34685510583222">
<ele>412.8</ele>
<time>2024-05-11T09:20:58Z</time>
</trkpt>
<trkpt lat="49.54403682611883" lon="9.346901876851916">
<ele>412.4</ele>
<time>2024-05-11T09:20:59Z</time>
</trkpt>
<trkpt lat="49.54409407451749" lon="9.346946636214852">
<ele>412</ele>
<time>2024-05-11T09:21:00Z</time>
</trkpt>
<trkpt lat="49.54415509477258" lon="9.34699147939682">
<ele>411.6</ele>
<time>2024-05-11T09:21:01Z</time>
</trkpt>
<trkpt lat="49.54421225935221" lon="9.347042022272944">
<ele>411.2</ele>
<time>2024-05-11T09:21:02Z</time>
</trkpt>
<trkpt lat="49.54427336342633" lon="9.347096420824528">
<ele>410.8</ele>
<time>2024-05-11T09:21:03Z</time>
</trkpt>
<trkpt lat="49.54433052800596" lon="9.347154591232538">
<ele>410.6</ele>
<time>2024-05-11T09:21:04Z</time>
</trkpt>
<trkpt lat="49.54438392072916" lon="9.347214689478278">
<ele>410.2</ele>
<time>2024-05-11T09:21:05Z</time>
</trkpt>
<trkpt lat="49.544437397271395" lon="9.347274703904986">
<ele>409.8</ele>
<time>2024-05-11T09:21:06Z</time>
</trkpt>
<trkpt lat="49.5444907899946" lon="9.34733002446592">
<ele>409.6</ele>
<time>2024-05-11T09:21:07Z</time>
</trkpt>
<trkpt lat="49.5445441827178" lon="9.34738341718912">
<ele>409.4</ele>
<time>2024-05-11T09:21:08Z</time>
</trkpt>
<trkpt lat="49.544593803584576" lon="9.347434965893626">
<ele>409.4</ele>
<time>2024-05-11T09:21:09Z</time>
</trkpt>
<trkpt lat="49.54464334063232" lon="9.3474864307791">
<ele>409.2</ele>
<time>2024-05-11T09:21:10Z</time>
</trkpt>
<trkpt lat="49.544692961499095" lon="9.347536973655224">
<ele>409.2</ele>
<time>2024-05-11T09:21:11Z</time>
</trkpt>
<trkpt lat="49.54473872669041" lon="9.34758374467492">
<ele>409</ele>
<time>2024-05-11T09:21:12Z</time>
</trkpt>
<trkpt lat="49.54478834755719" lon="9.347633281722665">
<ele>409</ele>
<time>2024-05-11T09:21:13Z</time>
</trkpt>
<trkpt lat="49.544830257073045" lon="9.347680052742362">
<ele>408.8</ele>
<time>2024-05-11T09:21:14Z</time>
</trkpt>
<trkpt lat="49.544868394732475" lon="9.34772489592433">
<ele>408.8</ele>
<time>2024-05-11T09:21:15Z</time>
</trkpt>
<trkpt lat="49.54490661621094" lon="9.347768733277915">
<ele>408.8</ele>
<time>2024-05-11T09:21:16Z</time>
</trkpt>
<trkpt lat="49.54494475387037" lon="9.347813576459885">
<ele>408.6</ele>
<time>2024-05-11T09:21:17Z</time>
</trkpt>
<trkpt lat="49.54497903585434" lon="9.347856491804125">
<ele>408.8</ele>
<time>2024-05-11T09:21:18Z</time>
</trkpt>
<trkpt lat="49.54501340165734" lon="9.34789840131998">
<ele>408.8</ele>
<time>2024-05-11T09:21:19Z</time>
</trkpt>
<trkpt lat="49.54505153931677" lon="9.347936622798445">
<ele>409</ele>
<time>2024-05-11T09:21:20Z</time>
</trkpt>
<trkpt lat="49.54508204944432" lon="9.347971910610797">
<ele>409</ele>
<time>2024-05-11T09:21:21Z</time>
</trkpt>
<trkpt lat="49.54511641524732" lon="9.348008120432496">
<ele>409.2</ele>
<time>2024-05-11T09:21:22Z</time>
</trkpt>
<trkpt lat="49.54514306969941" lon="9.34803955256939">
<ele>409.2</ele>
<time>2024-05-11T09:21:23Z</time>
</trkpt>
<trkpt lat="49.54517743550241" lon="9.348071990534663">
<ele>409.2</ele>
<time>2024-05-11T09:21:24Z</time>
</trkpt>
<trkpt lat="49.54521171748638" lon="9.348103506490588">
<ele>409.2</ele>
<time>2024-05-11T09:21:25Z</time>
</trkpt>
<trkpt lat="49.545242227613926" lon="9.34813493862748">
<ele>409.4</ele>
<time>2024-05-11T09:21:26Z</time>
</trkpt>
<trkpt lat="49.54527659341693" lon="9.348170226439834">
<ele>409.6</ele>
<time>2024-05-11T09:21:27Z</time>
</trkpt>
<trkpt lat="49.545307103544474" lon="9.348203586414456">
<ele>409.6</ele>
<time>2024-05-11T09:21:28Z</time>
</trkpt>
<trkpt lat="49.545345241203904" lon="9.34823795221746">
<ele>409.8</ele>
<time>2024-05-11T09:21:29Z</time>
</trkpt>
<trkpt lat="49.54537960700691" lon="9.348271312192082">
<ele>409.8</ele>
<time>2024-05-11T09:21:30Z</time>
</trkpt>
<trkpt lat="49.54541388899088" lon="9.348304672166703">
<ele>409.8</ele>
<time>2024-05-11T09:21:31Z</time>
</trkpt>
<trkpt lat="49.54544825479388" lon="9.348339959979056">
<ele>409.6</ele>
<time>2024-05-11T09:21:32Z</time>
</trkpt>
<trkpt lat="49.54548639245331" lon="9.34837625361979">
<ele>409.6</ele>
<time>2024-05-11T09:21:33Z</time>
</trkpt>
<trkpt lat="49.54552453011274" lon="9.34841338545084">
<ele>409.6</ele>
<time>2024-05-11T09:21:34Z</time>
</trkpt>
<trkpt lat="49.545562667772174" lon="9.348449679091573">
<ele>409.6</ele>
<time>2024-05-11T09:21:35Z</time>
</trkpt>
<trkpt lat="49.54560088925064" lon="9.348486894741654">
<ele>409.4</ele>
<time>2024-05-11T09:21:36Z</time>
</trkpt>
<trkpt lat="49.545642798766494" lon="9.348525032401083">
<ele>409.4</ele>
<time>2024-05-11T09:21:37Z</time>
</trkpt>
<trkpt lat="49.54568479210138" lon="9.348565097898245">
<ele>409.4</ele>
<time>2024-05-11T09:21:38Z</time>
</trkpt>
<trkpt lat="49.54572670161724" lon="9.348605079576371">
<ele>409.4</ele>
<time>2024-05-11T09:21:39Z</time>
</trkpt>
<trkpt lat="49.5457649230957" lon="9.348647072911264">
<ele>409.4</ele>
<time>2024-05-11T09:21:40Z</time>
</trkpt>
<trkpt lat="49.54580683261156" lon="9.348688060417771">
<ele>409.4</ele>
<time>2024-05-11T09:21:41Z</time>
</trkpt>
<trkpt lat="49.54584497027099" lon="9.348725276067851">
<ele>409.4</ele>
<time>2024-05-11T09:21:42Z</time>
</trkpt>
<trkpt lat="49.54588696360588" lon="9.348765341565011">
<ele>409.4</ele>
<time>2024-05-11T09:21:43Z</time>
</trkpt>
<trkpt lat="49.54592510126531" lon="9.348803479224443">
<ele>409.6</ele>
<time>2024-05-11T09:21:44Z</time>
</trkpt>
<trkpt lat="49.5459670946002" lon="9.348844466730952">
<ele>409.6</ele>
<time>2024-05-11T09:21:45Z</time>
</trkpt>
<trkpt lat="49.54600900411606" lon="9.348886460065842">
<ele>409.6</ele>
<time>2024-05-11T09:21:46Z</time>
</trkpt>
<trkpt lat="49.546054769307375" lon="9.34893130324781">
<ele>409.8</ele>
<time>2024-05-11T09:21:47Z</time>
</trkpt>
<trkpt lat="49.546096762642264" lon="9.348977990448477">
<ele>409.8</ele>
<time>2024-05-11T09:21:48Z</time>
</trkpt>
<trkpt lat="49.54614252783358" lon="9.349023755639791">
<ele>409.8</ele>
<time>2024-05-11T09:21:49Z</time>
</trkpt>
<trkpt lat="49.5461882930249" lon="9.349064826965332">
<ele>409.8</ele>
<time>2024-05-11T09:21:50Z</time>
</trkpt>
<trkpt lat="49.546234058216214" lon="9.34910480864346">
<ele>409.8</ele>
<time>2024-05-11T09:21:51Z</time>
</trkpt>
<trkpt lat="49.54627990722656" lon="9.34914872981608">
<ele>409.8</ele>
<time>2024-05-11T09:21:52Z</time>
</trkpt>
<trkpt lat="49.54632567241788" lon="9.349193572998049">
<ele>409.8</ele>
<time>2024-05-11T09:21:53Z</time>
</trkpt>
<trkpt lat="49.5463714376092" lon="9.349240260198712">
<ele>409.6</ele>
<time>2024-05-11T09:21:54Z</time>
</trkpt>
<trkpt lat="49.54642097465694" lon="9.34928703121841">
<ele>409.4</ele>
<time>2024-05-11T09:21:55Z</time>
</trkpt>
<trkpt lat="49.546474451199174" lon="9.349338496103885">
<ele>409.2</ele>
<time>2024-05-11T09:21:56Z</time>
</trkpt>
<trkpt lat="49.54652021639049" lon="9.349386189132929">
<ele>409.2</ele>
<time>2024-05-11T09:21:57Z</time>
</trkpt>
<trkpt lat="49.546569753438234" lon="9.349436732009051">
<ele>409</ele>
<time>2024-05-11T09:21:58Z</time>
</trkpt>
<trkpt lat="49.546607891097665" lon="9.34948341920972">
<ele>408.8</ele>
<time>2024-05-11T09:21:59Z</time>
</trkpt>
<trkpt lat="49.546649884432554" lon="9.349526334553955">
<ele>408.8</ele>
<time>2024-05-11T09:22:00Z</time>
</trkpt>
<trkpt lat="49.54668425023556" lon="9.349573105573654">
<ele>408.8</ele>
<time>2024-05-11T09:22:01Z</time>
</trkpt>
<trkpt lat="49.54671853221953" lon="9.349617948755622">
<ele>408.8</ele>
<time>2024-05-11T09:22:02Z</time>
</trkpt>
<trkpt lat="49.546749042347074" lon="9.349664635956287">
<ele>408.8</ele>
<time>2024-05-11T09:22:03Z</time>
</trkpt>
<trkpt lat="49.54678340815008" lon="9.349708557128906">
<ele>408.8</ele>
<time>2024-05-11T09:22:04Z</time>
</trkpt>
<trkpt lat="49.54681391827762" lon="9.349748538807034">
<ele>409</ele>
<time>2024-05-11T09:22:05Z</time>
</trkpt>
<trkpt lat="49.546848284080625" lon="9.349789610132577">
<ele>409.4</ele>
<time>2024-05-11T09:22:06Z</time>
</trkpt>
<trkpt lat="49.546886421740055" lon="9.349829591810703">
<ele>409.6</ele>
<time>2024-05-11T09:22:07Z</time>
</trkpt>
<trkpt lat="49.5469169318676" lon="9.349864879623055">
<ele>409.8</ele>
<time>2024-05-11T09:22:08Z</time>
</trkpt>
<trkpt lat="49.54695121385157" lon="9.34989639557898">
<ele>410</ele>
<time>2024-05-11T09:22:09Z</time>
</trkpt>
<trkpt lat="49.546985579654574" lon="9.349926905706525">
<ele>410.2</ele>
<time>2024-05-11T09:22:10Z</time>
</trkpt>
<trkpt lat="49.547023717314005" lon="9.349954565986993">
<ele>410.4</ele>
<time>2024-05-11T09:22:11Z</time>
</trkpt>
<trkpt lat="49.54705808311701" lon="9.349987003952265">
<ele>410.6</ele>
<time>2024-05-11T09:22:12Z</time>
</trkpt>
<trkpt lat="49.54709236510098" lon="9.35001466423273">
<ele>410.6</ele>
<time>2024-05-11T09:22:13Z</time>
</trkpt>
<trkpt lat="49.54712673090398" lon="9.350043246522546">
<ele>410.8</ele>
<time>2024-05-11T09:22:14Z</time>
</trkpt>
<trkpt lat="49.54715724103153" lon="9.350069984793665">
<ele>410.8</ele>
<time>2024-05-11T09:22:15Z</time>
</trkpt>
<trkpt lat="49.54718775115907" lon="9.350098567083478">
<ele>411</ele>
<time>2024-05-11T09:22:16Z</time>
</trkpt>
<trkpt lat="49.547222116962075" lon="9.350128155201674">
<ele>411</ele>
<time>2024-05-11T09:22:17Z</time>
</trkpt>
<trkpt lat="49.54725639894605" lon="9.350159587338569">
<ele>411</ele>
<time>2024-05-11T09:22:18Z</time>
</trkpt>
<trkpt lat="49.54729076474905" lon="9.35019202530384">
<ele>411.2</ele>
<time>2024-05-11T09:22:19Z</time>
</trkpt>
<trkpt lat="49.54732513055205" lon="9.350225385278463">
<ele>411.2</ele>
<time>2024-05-11T09:22:20Z</time>
</trkpt>
<trkpt lat="49.547359412536025" lon="9.350257823243735">
<ele>411.4</ele>
<time>2024-05-11T09:22:21Z</time>
</trkpt>
<trkpt lat="49.54738992266357" lon="9.35029311105609">
<ele>411.6</ele>
<time>2024-05-11T09:22:22Z</time>
</trkpt>
<trkpt lat="49.547428060323" lon="9.350324627012014">
<ele>411.8</ele>
<time>2024-05-11T09:22:23Z</time>
</trkpt>
<trkpt lat="49.54746619798243" lon="9.350357986986635">
<ele>412</ele>
<time>2024-05-11T09:22:24Z</time>
</trkpt>
<trkpt lat="49.547500563785434" lon="9.350386569276452">
<ele>412.2</ele>
<time>2024-05-11T09:22:25Z</time>
</trkpt>
<trkpt lat="49.547538701444864" lon="9.350418085232375">
<ele>412.4</ele>
<time>2024-05-11T09:22:26Z</time>
</trkpt>
<trkpt lat="49.54757306724787" lon="9.35044859535992">
<ele>412.4</ele>
<time>2024-05-11T09:22:27Z</time>
</trkpt>
<trkpt lat="49.54760734923184" lon="9.350478099659083">
<ele>412.6</ele>
<time>2024-05-11T09:22:28Z</time>
</trkpt>
<trkpt lat="49.54764171503484" lon="9.350506765767932">
<ele>412.6</ele>
<time>2024-05-11T09:22:29Z</time>
</trkpt>
<trkpt lat="49.547676080837846" lon="9.350536270067096">
<ele>412.6</ele>
<time>2024-05-11T09:22:30Z</time>
</trkpt>
<trkpt lat="49.54771036282182" lon="9.350564936175942">
<ele>412.8</ele>
<time>2024-05-11T09:22:31Z</time>
</trkpt>
<trkpt lat="49.54774472862482" lon="9.350593518465756">
<ele>412.8</ele>
<time>2024-05-11T09:22:32Z</time>
</trkpt>
<trkpt lat="49.54777901060879" lon="9.350618328899143">
<ele>412.8</ele>
<time>2024-05-11T09:22:33Z</time>
</trkpt>
<trkpt lat="49.54781337641179" lon="9.350643139332533">
<ele>412.8</ele>
<time>2024-05-11T09:22:34Z</time>
</trkpt>
<trkpt lat="49.5478477422148" lon="9.350669793784618">
<ele>412.8</ele>
<time>2024-05-11T09:22:35Z</time>
</trkpt>
<trkpt lat="49.54788202419877" lon="9.350698459893463">
<ele>412.8</ele>
<time>2024-05-11T09:22:36Z</time>
</trkpt>
<trkpt lat="49.5479201618582" lon="9.35072318650782">
<ele>412.8</ele>
<time>2024-05-11T09:22:37Z</time>
</trkpt>
<trkpt lat="49.54795829951763" lon="9.35074707493186">
<ele>412.8</ele>
<time>2024-05-11T09:22:38Z</time>
</trkpt>
<trkpt lat="49.54800029285252" lon="9.350769957527518">
<ele>412.8</ele>
<time>2024-05-11T09:22:39Z</time>
</trkpt>
<trkpt lat="49.54803843051195" lon="9.350789990276098">
<ele>412.8</ele>
<time>2024-05-11T09:22:40Z</time>
</trkpt>
<trkpt lat="49.54808042384684" lon="9.35080616734922">
<ele>412.6</ele>
<time>2024-05-11T09:22:41Z</time>
</trkpt>
<trkpt lat="49.54811856150627" lon="9.35082335025072">
<ele>412.6</ele>
<time>2024-05-11T09:22:42Z</time>
</trkpt>
<trkpt lat="49.5481566991657" lon="9.350841455161572">
<ele>412.4</ele>
<time>2024-05-11T09:22:43Z</time>
</trkpt>
<trkpt lat="49.54819483682513" lon="9.350856710225344">
<ele>412.2</ele>
<time>2024-05-11T09:22:44Z</time>
</trkpt>
<trkpt lat="49.548229202628136" lon="9.350870121270418">
<ele>412</ele>
<time>2024-05-11T09:22:45Z</time>
</trkpt>
<trkpt lat="49.54826348461211" lon="9.350874898955226">
<ele>412</ele>
<time>2024-05-11T09:22:46Z</time>
</trkpt>
<trkpt lat="49.54829785041511" lon="9.350872971117496">
<ele>411.8</ele>
<time>2024-05-11T09:22:47Z</time>
</trkpt>
<trkpt lat="49.548328360542655" lon="9.350870121270418">
<ele>411.8</ele>
<time>2024-05-11T09:22:48Z</time>
</trkpt>
<trkpt lat="49.5483588706702" lon="9.350852938368917">
<ele>411.6</ele>
<time>2024-05-11T09:22:49Z</time>
</trkpt>
<trkpt lat="49.548389380797744" lon="9.35082335025072">
<ele>411.6</ele>
<time>2024-05-11T09:22:50Z</time>
</trkpt>
<trkpt lat="49.5484122633934" lon="9.350776663050056">
<ele>411.4</ele>
<time>2024-05-11T09:22:51Z</time>
</trkpt>
<trkpt lat="49.54843514598906" lon="9.350721342489123">
<ele>411.4</ele>
<time>2024-05-11T09:22:52Z</time>
</trkpt>
<trkpt lat="49.54846188426018" lon="9.350660322234036">
<ele>411.4</ele>
<time>2024-05-11T09:22:53Z</time>
</trkpt>
<trkpt lat="49.54848476685584" lon="9.3505878187716">
<ele>411.4</ele>
<time>2024-05-11T09:22:54Z</time>
</trkpt>
<trkpt lat="49.54851150512695" lon="9.350501988083124">
<ele>411.2</ele>
<time>2024-05-11T09:22:55Z</time>
</trkpt>
<trkpt lat="49.5485420152545" lon="9.350416157394648">
<ele>411</ele>
<time>2024-05-11T09:22:56Z</time>
</trkpt>
<trkpt lat="49.54857629723847" lon="9.350326471030712">
<ele>410.8</ele>
<time>2024-05-11T09:22:57Z</time>
</trkpt>
<trkpt lat="49.5486144348979" lon="9.350238796323538">
<ele>410.6</ele>
<time>2024-05-11T09:22:58Z</time>
</trkpt>
<trkpt lat="49.5486488007009" lon="9.350148187950252">
<ele>410.2</ele>
<time>2024-05-11T09:22:59Z</time>
</trkpt>
<trkpt lat="49.54867931082845" lon="9.350061351433396">
<ele>410</ele>
<time>2024-05-11T09:23:00Z</time>
</trkpt>
<trkpt lat="49.54870982095599" lon="9.349978370591998">
<ele>409.6</ele>
<time>2024-05-11T09:23:01Z</time>
</trkpt>
<trkpt lat="49.548740331083536" lon="9.349900167435408">
<ele>409.4</ele>
<time>2024-05-11T09:23:02Z</time>
</trkpt>
<trkpt lat="49.54877084121108" lon="9.349822970107198">
<ele>409.2</ele>
<time>2024-05-11T09:23:03Z</time>
</trkpt>
<trkpt lat="49.5487975794822" lon="9.349746694788337">
<ele>409</ele>
<time>2024-05-11T09:23:04Z</time>
</trkpt>
<trkpt lat="49.54882423393428" lon="9.349673269316554">
<ele>408.8</ele>
<time>2024-05-11T09:23:05Z</time>
</trkpt>
<trkpt lat="49.5488509722054" lon="9.349604537710547">
<ele>408.6</ele>
<time>2024-05-11T09:23:06Z</time>
</trkpt>
<trkpt lat="49.54887771047652" lon="9.349536895751951">
<ele>408.4</ele>
<time>2024-05-11T09:23:07Z</time>
</trkpt>
<trkpt lat="49.5489043649286" lon="9.349470091983676">
<ele>408.2</ele>
<time>2024-05-11T09:23:08Z</time>
</trkpt>
<trkpt lat="49.54893110319972" lon="9.349398594349625">
<ele>408.2</ele>
<time>2024-05-11T09:23:09Z</time>
</trkpt>
<trkpt lat="49.548957757651806" lon="9.349327012896538">
<ele>408</ele>
<time>2024-05-11T09:23:10Z</time>
</trkpt>
<trkpt lat="49.54898449592292" lon="9.349254593253136">
<ele>408</ele>
<time>2024-05-11T09:23:11Z</time>
</trkpt>
<trkpt lat="49.54901500605047" lon="9.349182089790702">
<ele>408</ele>
<time>2024-05-11T09:23:12Z</time>
</trkpt>
<trkpt lat="49.549041744321585" lon="9.349111514165998">
<ele>408</ele>
<time>2024-05-11T09:23:13Z</time>
</trkpt>
<trkpt lat="49.54906839877367" lon="9.349040016531944">
<ele>408</ele>
<time>2024-05-11T09:23:14Z</time>
</trkpt>
<trkpt lat="49.54909513704479" lon="9.348964663222432">
<ele>408</ele>
<time>2024-05-11T09:23:15Z</time>
</trkpt>
<trkpt lat="49.54912179149687" lon="9.34889123775065">
<ele>408</ele>
<time>2024-05-11T09:23:16Z</time>
</trkpt>
<trkpt lat="49.54915230162442" lon="9.348821584135294">
<ele>408</ele>
<time>2024-05-11T09:23:17Z</time>
</trkpt>
<trkpt lat="49.549179039895535" lon="9.348754864186049">
<ele>408</ele>
<time>2024-05-11T09:23:18Z</time>
</trkpt>
<trkpt lat="49.54920192249119" lon="9.348688060417771">
<ele>408.2</ele>
<time>2024-05-11T09:23:19Z</time>
</trkpt>
<trkpt lat="49.54922480508685" lon="9.348623268306255">
<ele>408.2</ele>
<time>2024-05-11T09:23:20Z</time>
</trkpt>
<trkpt lat="49.54924768768251" lon="9.348556464537978">
<ele>408.2</ele>
<time>2024-05-11T09:23:21Z</time>
</trkpt>
<trkpt lat="49.54927442595363" lon="9.348489744588733">
<ele>408.2</ele>
<time>2024-05-11T09:23:22Z</time>
</trkpt>
<trkpt lat="49.549297308549285" lon="9.348424868658183">
<ele>408.2</ele>
<time>2024-05-11T09:23:23Z</time>
</trkpt>
<trkpt lat="49.54932019114494" lon="9.348359992727636">
<ele>408.4</ele>
<time>2024-05-11T09:23:24Z</time>
</trkpt>
<trkpt lat="49.54934684559703" lon="9.348293272778392">
<ele>408.4</ele>
<time>2024-05-11T09:23:25Z</time>
</trkpt>
<trkpt lat="49.549373583868146" lon="9.348228396847844">
<ele>408.6</ele>
<time>2024-05-11T09:23:26Z</time>
</trkpt>
<trkpt lat="49.54939646646381" lon="9.348166454583406">
<ele>408.6</ele>
<time>2024-05-11T09:23:27Z</time>
</trkpt>
<trkpt lat="49.54941934905946" lon="9.348105350509286">
<ele>408.8</ele>
<time>2024-05-11T09:23:28Z</time>
</trkpt>
<trkpt lat="49.54944223165512" lon="9.348043408244848">
<ele>408.8</ele>
<time>2024-05-11T09:23:29Z</time>
</trkpt>
<trkpt lat="49.54946511425078" lon="9.347983309999108">
<ele>409</ele>
<time>2024-05-11T09:23:30Z</time>
</trkpt>
<trkpt lat="49.54948799684644" lon="9.347925139591098">
<ele>409</ele>
<time>2024-05-11T09:23:31Z</time>
</trkpt>
<trkpt lat="49.549510879442096" lon="9.347865041345358">
<ele>409.2</ele>
<time>2024-05-11T09:23:32Z</time>
</trkpt>
<trkpt lat="49.54952999018133" lon="9.347806870937347">
<ele>409.2</ele>
<time>2024-05-11T09:23:33Z</time>
</trkpt>
<trkpt lat="49.549552872776985" lon="9.347749706357718">
<ele>409.4</ele>
<time>2024-05-11T09:23:35Z</time>
</trkpt>
<trkpt lat="49.5495986379683" lon="9.347636215388777">
<ele>409.8</ele>
<time>2024-05-11T09:23:36Z</time>
</trkpt>
<trkpt lat="49.54962152056396" lon="9.347578044980764">
<ele>410</ele>
<time>2024-05-11T09:23:37Z</time>
</trkpt>
<trkpt lat="49.54964063130319" lon="9.347521718591452">
<ele>410.4</ele>
<time>2024-05-11T09:23:38Z</time>
</trkpt>
<trkpt lat="49.54965965822339" lon="9.34746354818344">
<ele>410.6</ele>
<time>2024-05-11T09:23:39Z</time>
</trkpt>
<trkpt lat="49.54967876896262" lon="9.347408227622507">
<ele>410.8</ele>
<time>2024-05-11T09:23:40Z</time>
</trkpt>
<trkpt lat="49.54969779588282" lon="9.347354834899306">
<ele>411</ele>
<time>2024-05-11T09:23:41Z</time>
</trkpt>
<trkpt lat="49.54972076229751" lon="9.347303370013831">
<ele>411.4</ele>
<time>2024-05-11T09:23:42Z</time>
</trkpt>
<trkpt lat="49.54974364489317" lon="9.347251821309328">
<ele>411.6</ele>
<time>2024-05-11T09:23:43Z</time>
</trkpt>
<trkpt lat="49.54976652748883" lon="9.347200356423857">
<ele>411.6</ele>
<time>2024-05-11T09:23:44Z</time>
</trkpt>
<trkpt lat="49.549789410084486" lon="9.34714788571">
<ele>411.8</ele>
<time>2024-05-11T09:23:45Z</time>
</trkpt>
<trkpt lat="49.549812292680144" lon="9.347096420824528">
<ele>412</ele>
<time>2024-05-11T09:23:46Z</time>
</trkpt>
<trkpt lat="49.5498351752758" lon="9.347044872120025">
<ele>412.2</ele>
<time>2024-05-11T09:23:47Z</time>
</trkpt>
<trkpt lat="49.54985805787146" lon="9.34699340723455">
<ele>412.6</ele>
<time>2024-05-11T09:23:48Z</time>
</trkpt>
<trkpt lat="49.54988094046712" lon="9.346940014511349">
<ele>412.8</ele>
<time>2024-05-11T09:23:49Z</time>
</trkpt>
<trkpt lat="49.54990005120635" lon="9.346890393644571">
<ele>412.8</ele>
<time>2024-05-11T09:23:50Z</time>
</trkpt>
<trkpt lat="49.54992293380201" lon="9.346841778606176">
<ele>413</ele>
<time>2024-05-11T09:23:51Z</time>
</trkpt>
<trkpt lat="49.54994581639767" lon="9.34679316356778">
<ele>413</ele>
<time>2024-05-11T09:23:52Z</time>
</trkpt>
<trkpt lat="49.549968698993325" lon="9.346746392548084">
<ele>413</ele>
<time>2024-05-11T09:23:53Z</time>
</trkpt>
<trkpt lat="49.54999158158898" lon="9.34669970534742">
<ele>413.2</ele>
<time>2024-05-11T09:23:54Z</time>
</trkpt>
<trkpt lat="49.55001060850918" lon="9.346654862165453">
<ele>413.4</ele>
<time>2024-05-11T09:23:55Z</time>
</trkpt>
<trkpt lat="49.55003349110484" lon="9.346606247127056">
<ele>413.6</ele>
<time>2024-05-11T09:23:56Z</time>
</trkpt>
<trkpt lat="49.55005260184407" lon="9.346554698422551">
<ele>413.6</ele>
<time>2024-05-11T09:23:57Z</time>
</trkpt>
<trkpt lat="49.55007548443973" lon="9.346508011221886">
<ele>413.8</ele>
<time>2024-05-11T09:23:58Z</time>
</trkpt>
<trkpt lat="49.55009459517896" lon="9.346463168039918">
<ele>414</ele>
<time>2024-05-11T09:23:59Z</time>
</trkpt>
<trkpt lat="49.550109850242734" lon="9.34642025269568">
<ele>414</ele>
<time>2024-05-11T09:24:00Z</time>
</trkpt>
<trkpt lat="49.55012887716293" lon="9.34638018719852">
<ele>414.2</ele>
<time>2024-05-11T09:24:01Z</time>
</trkpt>
<trkpt lat="49.550144132226706" lon="9.34633819386363">
<ele>414.2</ele>
<time>2024-05-11T09:24:02Z</time>
</trkpt>
<trkpt lat="49.55015561543405" lon="9.346298212185502">
<ele>414.2</ele>
<time>2024-05-11T09:24:03Z</time>
</trkpt>
<trkpt lat="49.55017087049782" lon="9.346256218850613">
<ele>414.4</ele>
<time>2024-05-11T09:24:04Z</time>
</trkpt>
<trkpt lat="49.550186125561595" lon="9.346218081191182">
<ele>414.4</ele>
<time>2024-05-11T09:24:05Z</time>
</trkpt>
<trkpt lat="49.55019752494991" lon="9.34618178755045">
<ele>414.4</ele>
<time>2024-05-11T09:24:06Z</time>
</trkpt>
<trkpt lat="49.55020900815725" lon="9.346151277422903">
<ele>414.4</ele>
<time>2024-05-11T09:24:07Z</time>
</trkpt>
<trkpt lat="49.55021663568914" lon="9.346128394827248">
<ele>414.6</ele>
<time>2024-05-11T09:24:08Z</time>
</trkpt>
<trkpt lat="49.550224263221025" lon="9.34610366821289">
<ele>414.6</ele>
<time>2024-05-11T09:24:09Z</time>
</trkpt>
<trkpt lat="49.55023189075291" lon="9.346077851951122">
<ele>414.8</ele>
<time>2024-05-11T09:24:10Z</time>
</trkpt>
<trkpt lat="49.55024337396026" lon="9.346050191670656">
<ele>414.8</ele>
<time>2024-05-11T09:24:11Z</time>
</trkpt>
<trkpt lat="49.55025862902403" lon="9.34602353721857">
<ele>414.8</ele>
<time>2024-05-11T09:24:12Z</time>
</trkpt>
<trkpt lat="49.55028151161969" lon="9.34600350446999">
<ele>415</ele>
<time>2024-05-11T09:24:13Z</time>
</trkpt>
<trkpt lat="49.55030816607177" lon="9.345993027091026">
<ele>415</ele>
<time>2024-05-11T09:24:14Z</time>
</trkpt>
<trkpt lat="49.55033867619932" lon="9.345999648794532">
<ele>415</ele>
<time>2024-05-11T09:24:15Z</time>
</trkpt>
<trkpt lat="49.550365414470434" lon="9.346014903858304">
<ele>415</ele>
<time>2024-05-11T09:24:16Z</time>
</trkpt>
<trkpt lat="49.55039206892252" lon="9.346031164750457">
<ele>415.2</ele>
<time>2024-05-11T09:24:17Z</time>
</trkpt>
<trkpt lat="49.55041503533721" lon="9.346046419814227">
<ele>415.2</ele>
<time>2024-05-11T09:24:18Z</time>
</trkpt>
<trkpt lat="49.550441689789295" lon="9.346059747040272">
<ele>415.2</ele>
<time>2024-05-11T09:24:19Z</time>
</trkpt>
<trkpt lat="49.550460800528526" lon="9.34606452472508">
<ele>415.2</ele>
<time>2024-05-11T09:24:20Z</time>
</trkpt>
<trkpt lat="49.550483683124185" lon="9.346057819202542">
<ele>415.2</ele>
<time>2024-05-11T09:24:21Z</time>
</trkpt>
<trkpt lat="49.55050656571984" lon="9.3460444919765">
<ele>415.2</ele>
<time>2024-05-11T09:24:22Z</time>
</trkpt>
<trkpt lat="49.5505294483155" lon="9.34602160938084">
<ele>415.2</ele>
<time>2024-05-11T09:24:23Z</time>
</trkpt>
<trkpt lat="49.5505484752357" lon="9.345994871109724">
<ele>415</ele>
<time>2024-05-11T09:24:24Z</time>
</trkpt>
<trkpt lat="49.55057521350682" lon="9.34596821665764">
<ele>415</ele>
<time>2024-05-11T09:24:25Z</time>
</trkpt>
<trkpt lat="49.55059432424605" lon="9.345939634367824">
<ele>414.8</ele>
<time>2024-05-11T09:24:26Z</time>
</trkpt>
<trkpt lat="49.550620978698134" lon="9.345910046249628">
<ele>414.8</ele>
<time>2024-05-11T09:24:27Z</time>
</trkpt>
<trkpt lat="49.55064771696925" lon="9.345876686275004">
<ele>414.8</ele>
<time>2024-05-11T09:24:28Z</time>
</trkpt>
<trkpt lat="49.5506782270968" lon="9.345843242481353">
<ele>414.8</ele>
<time>2024-05-11T09:24:29Z</time>
</trkpt>
<trkpt lat="49.55070488154888" lon="9.345809882506728">
<ele>414.8</ele>
<time>2024-05-11T09:24:30Z</time>
</trkpt>
<trkpt lat="49.550735391676426" lon="9.345774594694376">
<ele>414.6</ele>
<time>2024-05-11T09:24:31Z</time>
</trkpt>
<trkpt lat="49.550765985623" lon="9.345740312710404">
<ele>414.6</ele>
<time>2024-05-11T09:24:32Z</time>
</trkpt>
<trkpt lat="49.55079649575055" lon="9.345703097060325">
<ele>414.6</ele>
<time>2024-05-11T09:24:33Z</time>
</trkpt>
<trkpt lat="49.55082700587809" lon="9.3456697370857">
<ele>414.6</ele>
<time>2024-05-11T09:24:34Z</time>
</trkpt>
<trkpt lat="49.550857516005635" lon="9.345633443444967">
<ele>414.6</ele>
<time>2024-05-11T09:24:35Z</time>
</trkpt>
<trkpt lat="49.55089179798961" lon="9.345595305785537">
<ele>414.6</ele>
<time>2024-05-11T09:24:36Z</time>
</trkpt>
<trkpt lat="49.55092239193618" lon="9.345556246116756">
<ele>414.6</ele>
<time>2024-05-11T09:24:37Z</time>
</trkpt>
<trkpt lat="49.550956673920155" lon="9.345516180619596">
<ele>414.6</ele>
<time>2024-05-11T09:24:38Z</time>
</trkpt>
<trkpt lat="49.55099103972316" lon="9.345475193113089">
<ele>414.6</ele>
<time>2024-05-11T09:24:39Z</time>
</trkpt>
<trkpt lat="49.55102917738259" lon="9.345435127615929">
<ele>414.6</ele>
<time>2024-05-11T09:24:40Z</time>
</trkpt>
<trkpt lat="49.55106345936656" lon="9.34539313428104">
<ele>414.6</ele>
<time>2024-05-11T09:24:41Z</time>
</trkpt>
<trkpt lat="49.55110168084502" lon="9.3453502189368">
<ele>414.6</ele>
<time>2024-05-11T09:24:42Z</time>
</trkpt>
<trkpt lat="49.55113981850445" lon="9.345305375754831">
<ele>414.6</ele>
<time>2024-05-11T09:24:43Z</time>
</trkpt>
<trkpt lat="49.55118172802031" lon="9.345259610563517">
<ele>414.4</ele>
<time>2024-05-11T09:24:44Z</time>
</trkpt>
<trkpt lat="49.55121986567974" lon="9.345212923362851">
<ele>414.4</ele>
<time>2024-05-11T09:24:45Z</time>
</trkpt>
<trkpt lat="49.55126185901463" lon="9.345168080180883">
<ele>414.2</ele>
<time>2024-05-11T09:24:46Z</time>
</trkpt>
<trkpt lat="49.55130385234952" lon="9.345120387151836">
<ele>414.2</ele>
<time>2024-05-11T09:24:47Z</time>
</trkpt>
<trkpt lat="49.55134576186538" lon="9.345069844275711">
<ele>414.2</ele>
<time>2024-05-11T09:24:48Z</time>
</trkpt>
<trkpt lat="49.55138775520027" lon="9.34501837939024">
<ele>414</ele>
<time>2024-05-11T09:24:49Z</time>
</trkpt>
<trkpt lat="49.55143352039158" lon="9.344969680532811">
<ele>413.8</ele>
<time>2024-05-11T09:24:50Z</time>
</trkpt>
<trkpt lat="49.55147551372647" lon="9.344922993332148">
<ele>413.8</ele>
<time>2024-05-11T09:24:51Z</time>
</trkpt>
<trkpt lat="49.55152127891779" lon="9.344875300303102">
<ele>413.6</ele>
<time>2024-05-11T09:24:52Z</time>
</trkpt>
<trkpt lat="49.55155941657722" lon="9.344826685264708">
<ele>413.6</ele>
<time>2024-05-11T09:24:53Z</time>
</trkpt>
<trkpt lat="49.55160140991211" lon="9.34477991424501">
<ele>413.4</ele>
<time>2024-05-11T09:24:54Z</time>
</trkpt>
<trkpt lat="49.55164331942797" lon="9.344733227044344">
<ele>413.2</ele>
<time>2024-05-11T09:24:55Z</time>
</trkpt>
<trkpt lat="49.5516814570874" lon="9.344686456024649">
<ele>413.2</ele>
<time>2024-05-11T09:24:56Z</time>
</trkpt>
<trkpt lat="49.55172345042229" lon="9.34463976882398">
<ele>413</ele>
<time>2024-05-11T09:24:57Z</time>
</trkpt>
<trkpt lat="49.55176158808172" lon="9.344594925642014">
<ele>413</ele>
<time>2024-05-11T09:24:58Z</time>
</trkpt>
<trkpt lat="49.55180358141661" lon="9.344550082460046">
<ele>412.8</ele>
<time>2024-05-11T09:24:59Z</time>
</trkpt>
<trkpt lat="49.551845490932465" lon="9.344505239278078">
<ele>412.8</ele>
<time>2024-05-11T09:25:00Z</time>
</trkpt>
<trkpt lat="49.551883628591895" lon="9.344461401924493">
<ele>412.6</ele>
<time>2024-05-11T09:25:01Z</time>
</trkpt>
<trkpt lat="49.551921766251326" lon="9.344420414417982">
<ele>412.4</ele>
<time>2024-05-11T09:25:02Z</time>
</trkpt>
<trkpt lat="49.55195613205433" lon="9.344378421083093">
<ele>412.2</ele>
<time>2024-05-11T09:25:03Z</time>
</trkpt>
<trkpt lat="49.55199049785733" lon="9.344334583729506">
<ele>412.2</ele>
<time>2024-05-11T09:25:04Z</time>
</trkpt>
<trkpt lat="49.55202863551676" lon="9.344291668385267">
<ele>412</ele>
<time>2024-05-11T09:25:05Z</time>
</trkpt>
<trkpt lat="49.552062917500734" lon="9.344251602888107">
<ele>412</ele>
<time>2024-05-11T09:25:06Z</time>
</trkpt>
<trkpt lat="49.55209728330374" lon="9.344213465228677">
<ele>411.8</ele>
<time>2024-05-11T09:25:07Z</time>
</trkpt>
<trkpt lat="49.55213164910674" lon="9.344176249578595">
<ele>411.8</ele>
<time>2024-05-11T09:25:08Z</time>
</trkpt>
<trkpt lat="49.552158303558826" lon="9.344140039756894">
<ele>411.8</ele>
<time>2024-05-11T09:25:09Z</time>
</trkpt>
<trkpt lat="49.552181186154485" lon="9.34410852380097">
<ele>411.8</ele>
<time>2024-05-11T09:25:10Z</time>
</trkpt>
<trkpt lat="49.55220406875014" lon="9.344079941511154">
<ele>411.8</ele>
<time>2024-05-11T09:25:11Z</time>
</trkpt>
<trkpt lat="49.552223179489374" lon="9.344055131077766">
<ele>411.8</ele>
<time>2024-05-11T09:25:12Z</time>
</trkpt>
<trkpt lat="49.55224983394146" lon="9.344033170491455">
<ele>411.8</ele>
<time>2024-05-11T09:25:13Z</time>
</trkpt>
<trkpt lat="49.55226894468069" lon="9.344013137742875">
<ele>411.8</ele>
<time>2024-05-11T09:25:14Z</time>
</trkpt>
<trkpt lat="49.55229182727635" lon="9.343993104994295">
<ele>411.8</ele>
<time>2024-05-11T09:25:15Z</time>
</trkpt>
<trkpt lat="49.552318565547466" lon="9.343979777768254">
<ele>411.8</ele>
<time>2024-05-11T09:25:16Z</time>
</trkpt>
<trkpt lat="49.55234521999955" lon="9.343984555453062">
<ele>412</ele>
<time>2024-05-11T09:25:17Z</time>
</trkpt>
<trkpt lat="49.552375730127096" lon="9.344013137742875">
<ele>412</ele>
<time>2024-05-11T09:25:18Z</time>
</trkpt>
<trkpt lat="49.55240246839821" lon="9.344055131077766">
<ele>412</ele>
<time>2024-05-11T09:25:19Z</time>
</trkpt>
<trkpt lat="49.5524291228503" lon="9.344101902097464">
<ele>412</ele>
<time>2024-05-11T09:25:20Z</time>
</trkpt>
<trkpt lat="49.552455861121416" lon="9.344148589298127">
<ele>412.2</ele>
<time>2024-05-11T09:25:21Z</time>
</trkpt>
<trkpt lat="49.55248637124896" lon="9.344195360317826">
<ele>412.2</ele>
<time>2024-05-11T09:25:22Z</time>
</trkpt>
<trkpt lat="49.55251310952008" lon="9.34424296952784">
<ele>412.2</ele>
<time>2024-05-11T09:25:23Z</time>
</trkpt>
<trkpt lat="49.55254361964762" lon="9.344289740547538">
<ele>412.2</ele>
<time>2024-05-11T09:25:24Z</time>
</trkpt>
<trkpt lat="49.55257412977517" lon="9.344336427748203">
<ele>412.2</ele>
<time>2024-05-11T09:25:25Z</time>
</trkpt>
<trkpt lat="49.55260463990271" lon="9.3443831987679">
<ele>412.4</ele>
<time>2024-05-11T09:25:26Z</time>
</trkpt>
<trkpt lat="49.55263137817383" lon="9.344431813806295">
<ele>412.4</ele>
<time>2024-05-11T09:25:27Z</time>
</trkpt>
<trkpt lat="49.552658032625914" lon="9.344485206529498">
<ele>412.4</ele>
<time>2024-05-11T09:25:28Z</time>
</trkpt>
<trkpt lat="49.55268854275346" lon="9.344536755234005">
<ele>412.2</ele>
<time>2024-05-11T09:25:29Z</time>
</trkpt>
<trkpt lat="49.55272290855646" lon="9.344590147957206">
<ele>412.2</ele>
<time>2024-05-11T09:25:30Z</time>
</trkpt>
<trkpt lat="49.552753418684006" lon="9.34464161284268">
<ele>412.2</ele>
<time>2024-05-11T09:25:31Z</time>
</trkpt>
<trkpt lat="49.55278770066798" lon="9.344696933403611">
<ele>412</ele>
<time>2024-05-11T09:25:32Z</time>
</trkpt>
<trkpt lat="49.55281829461455" lon="9.344751331955194">
<ele>412</ele>
<time>2024-05-11T09:25:33Z</time>
</trkpt>
<trkpt lat="49.552856432273984" lon="9.344808496534824">
<ele>412</ele>
<time>2024-05-11T09:25:34Z</time>
</trkpt>
<trkpt lat="49.552890714257956" lon="9.344864822924135">
<ele>412</ele>
<time>2024-05-11T09:25:35Z</time>
</trkpt>
<trkpt lat="49.55292508006096" lon="9.344921987503769">
<ele>412</ele>
<time>2024-05-11T09:25:36Z</time>
</trkpt>
<trkpt lat="49.55296321772039" lon="9.34497831389308">
<ele>412</ele>
<time>2024-05-11T09:25:37Z</time>
</trkpt>
<trkpt lat="49.55299758352339" lon="9.34503648430109">
<ele>412</ele>
<time>2024-05-11T09:25:38Z</time>
</trkpt>
<trkpt lat="49.55303186550736" lon="9.3450946547091">
<ele>412</ele>
<time>2024-05-11T09:25:39Z</time>
</trkpt>
<trkpt lat="49.55306237563491" lon="9.34515374712646">
<ele>411.8</ele>
<time>2024-05-11T09:25:40Z</time>
</trkpt>
<trkpt lat="49.55310051329434" lon="9.345212923362851">
<ele>411.8</ele>
<time>2024-05-11T09:25:41Z</time>
</trkpt>
<trkpt lat="49.55313487909734" lon="9.34527201578021">
<ele>411.6</ele>
<time>2024-05-11T09:25:42Z</time>
</trkpt>
<trkpt lat="49.553169244900346" lon="9.34533018618822">
<ele>411.4</ele>
<time>2024-05-11T09:25:43Z</time>
</trkpt>
<trkpt lat="49.55320352688432" lon="9.345386428758502">
<ele>411.4</ele>
<time>2024-05-11T09:25:44Z</time>
</trkpt>
<trkpt lat="49.55323789268732" lon="9.345443677157164">
<ele>411.2</ele>
<time>2024-05-11T09:25:45Z</time>
</trkpt>
<trkpt lat="49.55327217467129" lon="9.345498075708749">
<ele>411.2</ele>
<time>2024-05-11T09:25:46Z</time>
</trkpt>
<trkpt lat="49.553306540474296" lon="9.34555339626968">
<ele>411</ele>
<time>2024-05-11T09:25:47Z</time>
</trkpt>
<trkpt lat="49.5533409062773" lon="9.34560963883996">
<ele>411</ele>
<time>2024-05-11T09:25:48Z</time>
</trkpt>
<trkpt lat="49.55337518826127" lon="9.34566873125732">
<ele>411</ele>
<time>2024-05-11T09:25:49Z</time>
</trkpt>
<trkpt lat="49.5534133259207" lon="9.345725057646632">
<ele>410.8</ele>
<time>2024-05-11T09:25:50Z</time>
</trkpt>
<trkpt lat="49.553447691723704" lon="9.345783228054644">
<ele>410.8</ele>
<time>2024-05-11T09:25:51Z</time>
</trkpt>
<trkpt lat="49.553485829383135" lon="9.345843242481353">
<ele>410.8</ele>
<time>2024-05-11T09:25:52Z</time>
</trkpt>
<trkpt lat="49.55352019518614" lon="9.345896719023584">
<ele>410.6</ele>
<time>2024-05-11T09:25:53Z</time>
</trkpt>
<trkpt lat="49.55355070531368" lon="9.345950111746788">
<ele>410.4</ele>
<time>2024-05-11T09:25:54Z</time>
</trkpt>
<trkpt lat="49.553584987297654" lon="9.34600350446999">
<ele>410.4</ele>
<time>2024-05-11T09:25:55Z</time>
</trkpt>
<trkpt lat="49.5536154974252" lon="9.346054969355464">
<ele>410.2</ele>
<time>2024-05-11T09:25:56Z</time>
</trkpt>
<trkpt lat="49.5536498632282" lon="9.34610459022224">
<ele>410</ele>
<time>2024-05-11T09:25:57Z</time>
</trkpt>
<trkpt lat="49.553684229031205" lon="9.346157060936092">
<ele>409.8</ele>
<time>2024-05-11T09:25:58Z</time>
</trkpt>
<trkpt lat="49.55371851101518" lon="9.346211375668643">
<ele>409.6</ele>
<time>2024-05-11T09:25:59Z</time>
</trkpt>
<trkpt lat="49.55375287681818" lon="9.346269546076655">
<ele>409.2</ele>
<time>2024-05-11T09:26:00Z</time>
</trkpt>
<trkpt lat="49.553783386945724" lon="9.346328722313046">
<ele>409</ele>
<time>2024-05-11T09:26:01Z</time>
</trkpt>
<trkpt lat="49.553821524605155" lon="9.346389742568135">
<ele>408.8</ele>
<time>2024-05-11T09:26:02Z</time>
</trkpt>
<trkpt lat="49.55385589040816" lon="9.346449840813875">
<ele>408.6</ele>
<time>2024-05-11T09:26:03Z</time>
</trkpt>
<trkpt lat="49.55389402806759" lon="9.346514632925391">
<ele>408.2</ele>
<time>2024-05-11T09:26:04Z</time>
</trkpt>
<trkpt lat="49.55393593758345" lon="9.34657950885594">
<ele>408</ele>
<time>2024-05-11T09:26:05Z</time>
</trkpt>
<trkpt lat="49.55398170277476" lon="9.346646228805184">
<ele>407.8</ele>
<time>2024-05-11T09:26:06Z</time>
</trkpt>
<trkpt lat="49.55402369610965" lon="9.346716804429889">
<ele>407.4</ele>
<time>2024-05-11T09:26:07Z</time>
</trkpt>
<trkpt lat="49.55406946130097" lon="9.346788385882974">
<ele>407.2</ele>
<time>2024-05-11T09:26:08Z</time>
</trkpt>
<trkpt lat="49.554115226492286" lon="9.346861811354756">
<ele>407</ele>
<time>2024-05-11T09:26:09Z</time>
</trkpt>
<trkpt lat="49.554157219827175" lon="9.34693138115108">
<ele>406.8</ele>
<time>2024-05-11T09:26:10Z</time>
</trkpt>
<trkpt lat="49.554199213162065" lon="9.347000112757089">
<ele>406.6</ele>
<time>2024-05-11T09:26:11Z</time>
</trkpt>
<trkpt lat="49.554237350821495" lon="9.347062055021524">
<ele>406.4</ele>
<time>2024-05-11T09:26:12Z</time>
</trkpt>
<trkpt lat="49.55427926033735" lon="9.347125003114344">
<ele>406.2</ele>
<time>2024-05-11T09:26:13Z</time>
</trkpt>
<trkpt lat="49.55431362614035" lon="9.34718795120716">
<ele>406</ele>
<time>2024-05-11T09:26:14Z</time>
</trkpt>
<trkpt lat="49.55435176379979" lon="9.3472480494529">
<ele>405.8</ele>
<time>2024-05-11T09:26:15Z</time>
</trkpt>
<trkpt lat="49.55438990145922" lon="9.34730814769864">
<ele>405.6</ele>
<time>2024-05-11T09:26:16Z</time>
</trkpt>
<trkpt lat="49.55442803911865" lon="9.347370089963078">
<ele>405.4</ele>
<time>2024-05-11T09:26:17Z</time>
</trkpt>
<trkpt lat="49.55446240492165" lon="9.347431110218167">
<ele>405.2</ele>
<time>2024-05-11T09:26:18Z</time>
</trkpt>
<trkpt lat="49.55450054258108" lon="9.347495064139366">
<ele>405</ele>
<time>2024-05-11T09:26:19Z</time>
</trkpt>
<trkpt lat="49.554534908384085" lon="9.347558012232184">
<ele>405</ele>
<time>2024-05-11T09:26:20Z</time>
</trkpt>
<trkpt lat="49.554573046043515" lon="9.347621882334352">
<ele>404.8</ele>
<time>2024-05-11T09:26:21Z</time>
</trkpt>
<trkpt lat="49.55460732802749" lon="9.347688602283595">
<ele>404.6</ele>
<time>2024-05-11T09:26:22Z</time>
</trkpt>
<trkpt lat="49.55464546568692" lon="9.347753478214145">
<ele>404.6</ele>
<time>2024-05-11T09:26:23Z</time>
</trkpt>
<trkpt lat="49.55468360334635" lon="9.347820281982422">
<ele>404.4</ele>
<time>2024-05-11T09:26:24Z</time>
</trkpt>
<trkpt lat="49.55472559668124" lon="9.347887923941016">
<ele>404.2</ele>
<time>2024-05-11T09:26:25Z</time>
</trkpt>
<trkpt lat="49.55476373434067" lon="9.347956655547025">
<ele>404.2</ele>
<time>2024-05-11T09:26:26Z</time>
</trkpt>
<trkpt lat="49.5548018720001" lon="9.348023375496268">
<ele>404</ele>
<time>2024-05-11T09:26:27Z</time>
</trkpt>
<trkpt lat="49.55484000965953" lon="9.348092023283243">
<ele>403.8</ele>
<time>2024-05-11T09:26:28Z</time>
</trkpt>
<trkpt lat="49.55487823113799" lon="9.3481616768986">
<ele>403.6</ele>
<time>2024-05-11T09:26:29Z</time>
</trkpt>
<trkpt lat="49.55492014065385" lon="9.348231246694922">
<ele>403.4</ele>
<time>2024-05-11T09:26:30Z</time>
</trkpt>
<trkpt lat="49.55495827831328" lon="9.348301822319629">
<ele>403.2</ele>
<time>2024-05-11T09:26:31Z</time>
</trkpt>
<trkpt lat="49.55499641597271" lon="9.348369548097253">
<ele>403</ele>
<time>2024-05-11T09:26:32Z</time>
</trkpt>
<trkpt lat="49.5550384093076" lon="9.348438195884228">
<ele>402.8</ele>
<time>2024-05-11T09:26:33Z</time>
</trkpt>
<trkpt lat="49.55507654696703" lon="9.348506927490234">
<ele>402.8</ele>
<time>2024-05-11T09:26:34Z</time>
</trkpt>
<trkpt lat="49.55511468462646" lon="9.348574569448829">
<ele>402.6</ele>
<time>2024-05-11T09:26:35Z</time>
</trkpt>
<trkpt lat="49.55515282228589" lon="9.348640367388724">
<ele>402.4</ele>
<time>2024-05-11T09:26:36Z</time>
</trkpt>
<trkpt lat="49.55519095994532" lon="9.348706165328622">
<ele>402.4</ele>
<time>2024-05-11T09:26:37Z</time>
</trkpt>
<trkpt lat="49.55522918142378" lon="9.34877204708755">
<ele>402.2</ele>
<time>2024-05-11T09:26:38Z</time>
</trkpt>
<trkpt lat="49.555263463407755" lon="9.348836839199066">
<ele>402.2</ele>
<time>2024-05-11T09:26:39Z</time>
</trkpt>
<trkpt lat="49.555301601067185" lon="9.348903642967343">
<ele>402</ele>
<time>2024-05-11T09:26:40Z</time>
</trkpt>
<trkpt lat="49.55533596687019" lon="9.34896843507886">
<ele>401.8</ele>
<time>2024-05-11T09:26:41Z</time>
</trkpt>
<trkpt lat="49.55537024885416" lon="9.34902953915298">
<ele>401.6</ele>
<time>2024-05-11T09:26:42Z</time>
</trkpt>
<trkpt lat="49.55540847033262" lon="9.349093409255149">
<ele>401.6</ele>
<time>2024-05-11T09:26:43Z</time>
</trkpt>
<trkpt lat="49.55544660799205" lon="9.349156357347963">
<ele>401.4</ele>
<time>2024-05-11T09:26:44Z</time>
</trkpt>
<trkpt lat="49.555480889976025" lon="9.349218299612405">
<ele>401.4</ele>
<time>2024-05-11T09:26:45Z</time>
</trkpt>
<trkpt lat="49.555519027635455" lon="9.349276470020412">
<ele>401.2</ele>
<time>2024-05-11T09:26:46Z</time>
</trkpt>
<trkpt lat="49.55555339343846" lon="9.349336568266152">
<ele>401</ele>
<time>2024-05-11T09:26:47Z</time>
</trkpt>
<trkpt lat="49.55559153109789" lon="9.349396666511891">
<ele>400.8</ele>
<time>2024-05-11T09:26:48Z</time>
</trkpt>
<trkpt lat="49.55562966875732" lon="9.349454836919904">
<ele>400.8</ele>
<time>2024-05-11T09:26:49Z</time>
</trkpt>
<trkpt lat="49.55566403456032" lon="9.349513007327914">
<ele>400.8</ele>
<time>2024-05-11T09:26:50Z</time>
</trkpt>
<trkpt lat="49.555698316544294" lon="9.349575033411384">
<ele>400.8</ele>
<time>2024-05-11T09:26:51Z</time>
</trkpt>
<trkpt lat="49.55573653802276" lon="9.349635047838092">
<ele>400.8</ele>
<time>2024-05-11T09:26:52Z</time>
</trkpt>
<trkpt lat="49.55577467568219" lon="9.34969707392156">
<ele>400.8</ele>
<time>2024-05-11T09:26:53Z</time>
</trkpt>
<trkpt lat="49.55580895766616" lon="9.34975616633892">
<ele>400.8</ele>
<time>2024-05-11T09:26:54Z</time>
</trkpt>
<trkpt lat="49.55584332346916" lon="9.34981626458466">
<ele>401</ele>
<time>2024-05-11T09:26:55Z</time>
</trkpt>
<trkpt lat="49.555873833596706" lon="9.349873512983322">
<ele>401</ele>
<time>2024-05-11T09:26:56Z</time>
</trkpt>
<trkpt lat="49.55590819939971" lon="9.349926905706525">
<ele>401</ele>
<time>2024-05-11T09:26:57Z</time>
</trkpt>
<trkpt lat="49.555938709527254" lon="9.349980298429728">
<ele>401</ele>
<time>2024-05-11T09:26:58Z</time>
</trkpt>
<trkpt lat="49.555972991511226" lon="9.350036541000009">
<ele>401</ele>
<time>2024-05-11T09:26:59Z</time>
</trkpt>
<trkpt lat="49.55599972978234" lon="9.35009479522705">
<ele>401</ele>
<time>2024-05-11T09:27:00Z</time>
</trkpt>
<trkpt lat="49.556034011766315" lon="9.35015480965376">
<ele>401</ele>
<time>2024-05-11T09:27:01Z</time>
</trkpt>
<trkpt lat="49.55606460571289" lon="9.350216835737228">
<ele>400.8</ele>
<time>2024-05-11T09:27:02Z</time>
</trkpt>
<trkpt lat="49.556091260164976" lon="9.350284561514854">
<ele>400.8</ele>
<time>2024-05-11T09:27:03Z</time>
</trkpt>
<trkpt lat="49.556114142760634" lon="9.350356981158257">
<ele>400.8</ele>
<time>2024-05-11T09:27:04Z</time>
</trkpt>
<trkpt lat="49.55613702535629" lon="9.35043141245842">
<ele>400.8</ele>
<time>2024-05-11T09:27:05Z</time>
</trkpt>
<trkpt lat="49.55615990795195" lon="9.35050860978663">
<ele>400.6</ele>
<time>2024-05-11T09:27:06Z</time>
</trkpt>
<trkpt lat="49.55617901869118" lon="9.35058681294322">
<ele>400.6</ele>
<time>2024-05-11T09:27:07Z</time>
</trkpt>
<trkpt lat="49.55619804561138" lon="9.35066694393754">
<ele>400.4</ele>
<time>2024-05-11T09:27:08Z</time>
</trkpt>
<trkpt lat="49.556213300675154" lon="9.35074514709413">
<ele>400.4</ele>
<time>2024-05-11T09:27:09Z</time>
</trkpt>
<trkpt lat="49.556228555738926" lon="9.3508262000978">
<ele>400.4</ele>
<time>2024-05-11T09:27:10Z</time>
</trkpt>
<trkpt lat="49.55624389462173" lon="9.350912030786276">
<ele>400.2</ele>
<time>2024-05-11T09:27:11Z</time>
</trkpt>
<trkpt lat="49.55626292154193" lon="9.350996939465404">
<ele>400.2</ele>
<time>2024-05-11T09:27:12Z</time>
</trkpt>
<trkpt lat="49.5562781766057" lon="9.351079920306802">
<ele>400.2</ele>
<time>2024-05-11T09:27:13Z</time>
</trkpt>
<trkpt lat="49.556293431669474" lon="9.35116189531982">
<ele>400.2</ele>
<time>2024-05-11T09:27:14Z</time>
</trkpt>
<trkpt lat="49.55630491487682" lon="9.35124202631414">
<ele>400</ele>
<time>2024-05-11T09:27:15Z</time>
</trkpt>
<trkpt lat="49.55632394179702" lon="9.35132115148008">
<ele>400</ele>
<time>2024-05-11T09:27:16Z</time>
</trkpt>
<trkpt lat="49.55633919686079" lon="9.35140036046505">
<ele>400</ele>
<time>2024-05-11T09:27:17Z</time>
</trkpt>
<trkpt lat="49.55635830760002" lon="9.35148141346872">
<ele>400</ele>
<time>2024-05-11T09:27:18Z</time>
</trkpt>
<trkpt lat="49.556373562663794" lon="9.351561544463038">
<ele>399.8</ele>
<time>2024-05-11T09:27:19Z</time>
</trkpt>
<trkpt lat="49.556388817727566" lon="9.351643519476056">
<ele>399.8</ele>
<time>2024-05-11T09:27:20Z</time>
</trkpt>
<trkpt lat="49.55640407279134" lon="9.351723650470376">
<ele>399.6</ele>
<time>2024-05-11T09:27:21Z</time>
</trkpt>
<trkpt lat="49.55642318353057" lon="9.351801853626966">
<ele>399.6</ele>
<time>2024-05-11T09:27:22Z</time>
</trkpt>
<trkpt lat="49.55643843859434" lon="9.351878128945827">
<ele>399.4</ele>
<time>2024-05-11T09:27:23Z</time>
</trkpt>
<trkpt lat="49.55645369365811" lon="9.35195348225534">
<ele>399.4</ele>
<time>2024-05-11T09:27:24Z</time>
</trkpt>
<trkpt lat="49.556468948721886" lon="9.352027829736471">
<ele>399.4</ele>
<time>2024-05-11T09:27:25Z</time>
</trkpt>
<trkpt lat="49.556487975642085" lon="9.352107038721442">
<ele>399.2</ele>
<time>2024-05-11T09:27:26Z</time>
</trkpt>
<trkpt lat="49.55650323070586" lon="9.352189935743809">
<ele>399.2</ele>
<time>2024-05-11T09:27:27Z</time>
</trkpt>
<trkpt lat="49.55652234144509" lon="9.352274844422936">
<ele>399.2</ele>
<time>2024-05-11T09:27:28Z</time>
</trkpt>
<trkpt lat="49.55654136836529" lon="9.352359753102064">
<ele>399</ele>
<time>2024-05-11T09:27:29Z</time>
</trkpt>
<trkpt lat="49.55655662342906" lon="9.35244457796216">
<ele>399</ele>
<time>2024-05-11T09:27:30Z</time>
</trkpt>
<trkpt lat="49.55657573416829" lon="9.35252856463194">
<ele>399</ele>
<time>2024-05-11T09:27:31Z</time>
</trkpt>
<trkpt lat="49.55659484490752" lon="9.352609617635608">
<ele>399</ele>
<time>2024-05-11T09:27:32Z</time>
</trkpt>
<trkpt lat="49.556610099971294" lon="9.352691592648624">
<ele>399</ele>
<time>2024-05-11T09:27:33Z</time>
</trkpt>
<trkpt lat="49.556629126891494" lon="9.352771723642944">
<ele>399</ele>
<time>2024-05-11T09:27:34Z</time>
</trkpt>
<trkpt lat="49.556648237630725" lon="9.352851854637263">
<ele>399</ele>
<time>2024-05-11T09:27:35Z</time>
</trkpt>
<trkpt lat="49.5566634926945" lon="9.352932907640934">
<ele>399</ele>
<time>2024-05-11T09:27:36Z</time>
</trkpt>
<trkpt lat="49.5566825196147" lon="9.353013038635254">
<ele>399</ele>
<time>2024-05-11T09:27:37Z</time>
</trkpt>
<trkpt lat="49.55670163035393" lon="9.353095013648272">
<ele>398.8</ele>
<time>2024-05-11T09:27:38Z</time>
</trkpt>
<trkpt lat="49.55672065727413" lon="9.35317698866129">
<ele>398.8</ele>
<time>2024-05-11T09:27:39Z</time>
</trkpt>
<trkpt lat="49.5567359123379" lon="9.353259969502687">
<ele>398.8</ele>
<time>2024-05-11T09:27:40Z</time>
</trkpt>
<trkpt lat="49.55675502307713" lon="9.353342028334737">
<ele>398.8</ele>
<time>2024-05-11T09:27:41Z</time>
</trkpt>
<trkpt lat="49.5567702781409" lon="9.353421153500676">
<ele>398.8</ele>
<time>2024-05-11T09:27:42Z</time>
</trkpt>
<trkpt lat="49.556785533204675" lon="9.353501284494996">
<ele>398.8</ele>
<time>2024-05-11T09:27:43Z</time>
</trkpt>
<trkpt lat="49.556804643943906" lon="9.353580409660935">
<ele>398.8</ele>
<time>2024-05-11T09:27:44Z</time>
</trkpt>
<trkpt lat="49.55681989900768" lon="9.353656768798828">
<ele>398.8</ele>
<time>2024-05-11T09:27:45Z</time>
</trkpt>
<trkpt lat="49.55683892592788" lon="9.35373304411769">
<ele>398.8</ele>
<time>2024-05-11T09:27:46Z</time>
</trkpt>
<trkpt lat="49.55685803666711" lon="9.353813091292976">
<ele>398.8</ele>
<time>2024-05-11T09:27:47Z</time>
</trkpt>
<trkpt lat="49.55687329173088" lon="9.353897077962756">
<ele>399</ele>
<time>2024-05-11T09:27:48Z</time>
</trkpt>
<trkpt lat="49.55689231865108" lon="9.353978130966423">
<ele>399</ele>
<time>2024-05-11T09:27:49Z</time>
</trkpt>
<trkpt lat="49.55691142939031" lon="9.354058261960745">
<ele>398.8</ele>
<time>2024-05-11T09:27:50Z</time>
</trkpt>
<trkpt lat="49.55692668445408" lon="9.354136465117335">
<ele>398.8</ele>
<time>2024-05-11T09:27:51Z</time>
</trkpt>
<trkpt lat="49.556941939517856" lon="9.354213662445543">
<ele>398.8</ele>
<time>2024-05-11T09:27:52Z</time>
</trkpt>
<trkpt lat="49.55695719458163" lon="9.35428616590798">
<ele>398.8</ele>
<time>2024-05-11T09:27:53Z</time>
</trkpt>
<trkpt lat="49.55697630532086" lon="9.354359591379762">
<ele>398.8</ele>
<time>2024-05-11T09:27:54Z</time>
</trkpt>
<trkpt lat="49.55699533224106" lon="9.354432094842196">
<ele>398.8</ele>
<time>2024-05-11T09:27:55Z</time>
</trkpt>
<trkpt lat="49.55701058730483" lon="9.354508370161057">
<ele>398.8</ele>
<time>2024-05-11T09:27:56Z</time>
</trkpt>
<trkpt lat="49.5570258423686" lon="9.354588501155376">
<ele>398.8</ele>
<time>2024-05-11T09:27:57Z</time>
</trkpt>
<trkpt lat="49.557044953107834" lon="9.354671398177745">
<ele>398.8</ele>
<time>2024-05-11T09:27:58Z</time>
</trkpt>
<trkpt lat="49.55706398002803" lon="9.354751529172065">
<ele>398.8</ele>
<time>2024-05-11T09:27:59Z</time>
</trkpt>
<trkpt lat="49.557083090767264" lon="9.354833588004112">
<ele>398.6</ele>
<time>2024-05-11T09:28:00Z</time>
</trkpt>
<trkpt lat="49.55709834583104" lon="9.3549136351794">
<ele>398.6</ele>
<time>2024-05-11T09:28:01Z</time>
</trkpt>
<trkpt lat="49.557121228426695" lon="9.3549947720021">
<ele>398.4</ele>
<time>2024-05-11T09:28:02Z</time>
</trkpt>
<trkpt lat="49.55714411102235" lon="9.35507004149258">
<ele>398.4</ele>
<time>2024-05-11T09:28:03Z</time>
</trkpt>
<trkpt lat="49.55716699361801" lon="9.355145394802094">
<ele>398.4</ele>
<time>2024-05-11T09:28:04Z</time>
</trkpt>
<trkpt lat="49.55719373188913" lon="9.355215048417447">
<ele>398.4</ele>
<time>2024-05-11T09:28:05Z</time>
</trkpt>
<trkpt lat="49.55721661448479" lon="9.355283696204424">
<ele>398.2</ele>
<time>2024-05-11T09:28:06Z</time>
</trkpt>
<trkpt lat="49.55724712461233" lon="9.355348572134972">
<ele>398.2</ele>
<time>2024-05-11T09:28:07Z</time>
</trkpt>
<trkpt lat="49.55727763473987" lon="9.355413364246488">
<ele>398.2</ele>
<time>2024-05-11T09:28:08Z</time>
</trkpt>
<trkpt lat="49.55730814486742" lon="9.355480168014765">
<ele>398.2</ele>
<time>2024-05-11T09:28:09Z</time>
</trkpt>
<trkpt lat="49.55733488313854" lon="9.35554789379239">
<ele>398.2</ele>
<time>2024-05-11T09:28:10Z</time>
</trkpt>
<trkpt lat="49.55736916512251" lon="9.355616541579366">
<ele>398.2</ele>
<time>2024-05-11T09:28:11Z</time>
</trkpt>
<trkpt lat="49.55739967525005" lon="9.355683261528611">
<ele>398</ele>
<time>2024-05-11T09:28:12Z</time>
</trkpt>
<trkpt lat="49.5574301853776" lon="9.355751909315586">
<ele>398</ele>
<time>2024-05-11T09:28:13Z</time>
</trkpt>
<trkpt lat="49.557456923648715" lon="9.355816785246134">
<ele>398</ele>
<time>2024-05-11T09:28:14Z</time>
</trkpt>
<trkpt lat="49.55748366191983" lon="9.355879733338952">
<ele>398</ele>
<time>2024-05-11T09:28:15Z</time>
</trkpt>
<trkpt lat="49.55750654451549" lon="9.355939831584692">
<ele>398</ele>
<time>2024-05-11T09:28:16Z</time>
</trkpt>
<trkpt lat="49.557533198967576" lon="9.355999929830432">
<ele>398</ele>
<time>2024-05-11T09:28:17Z</time>
</trkpt>
<trkpt lat="49.557556081563234" lon="9.356060028076172">
<ele>398</ele>
<time>2024-05-11T09:28:18Z</time>
</trkpt>
<trkpt lat="49.557575192302465" lon="9.356122892349958">
<ele>398</ele>
<time>2024-05-11T09:28:19Z</time>
</trkpt>
<trkpt lat="49.55759807489813" lon="9.356188774108888">
<ele>398</ele>
<time>2024-05-11T09:28:20Z</time>
</trkpt>
<trkpt lat="49.557617185637355" lon="9.356254572048783">
<ele>398</ele>
<time>2024-05-11T09:28:21Z</time>
</trkpt>
<trkpt lat="49.557636212557554" lon="9.356325147673488">
<ele>398</ele>
<time>2024-05-11T09:28:23Z</time>
</trkpt>
<trkpt lat="49.55767820589245" lon="9.356466215103865">
<ele>398</ele>
<time>2024-05-11T09:28:24Z</time>
</trkpt>
<trkpt lat="49.55770486034453" lon="9.356534946709871">
<ele>398.2</ele>
<time>2024-05-11T09:28:25Z</time>
</trkpt>
<trkpt lat="49.55772774294019" lon="9.356601666659117">
<ele>398</ele>
<time>2024-05-11T09:28:26Z</time>
</trkpt>
<trkpt lat="49.557750625535846" lon="9.356668470427394">
<ele>398</ele>
<time>2024-05-11T09:28:27Z</time>
</trkpt>
<trkpt lat="49.557773508131504" lon="9.35673326253891">
<ele>397.8</ele>
<time>2024-05-11T09:28:28Z</time>
</trkpt>
<trkpt lat="49.557796474546194" lon="9.35679528862238">
<ele>397.8</ele>
<time>2024-05-11T09:28:29Z</time>
</trkpt>
<trkpt lat="49.55782312899828" lon="9.356856308877468">
<ele>397.6</ele>
<time>2024-05-11T09:28:30Z</time>
</trkpt>
<trkpt lat="49.5578498672694" lon="9.356916407123208">
<ele>397.4</ele>
<time>2024-05-11T09:28:31Z</time>
</trkpt>
<trkpt lat="49.55787652172148" lon="9.356981199234724">
<ele>397.4</ele>
<time>2024-05-11T09:28:32Z</time>
</trkpt>
<trkpt lat="49.5579032599926" lon="9.357048003003">
<ele>397.2</ele>
<time>2024-05-11T09:28:33Z</time>
</trkpt>
<trkpt lat="49.557929914444685" lon="9.357114722952248">
<ele>397.2</ele>
<time>2024-05-11T09:28:34Z</time>
</trkpt>
<trkpt lat="49.55796050839126" lon="9.357183454558252">
<ele>397.2</ele>
<time>2024-05-11T09:28:35Z</time>
</trkpt>
<trkpt lat="49.557991018518806" lon="9.3572501745075">
<ele>397.2</ele>
<time>2024-05-11T09:28:36Z</time>
</trkpt>
<trkpt lat="49.55802152864635" lon="9.357313122600315">
<ele>397</ele>
<time>2024-05-11T09:28:37Z</time>
</trkpt>
<trkpt lat="49.558048183098435" lon="9.357375064864756">
<ele>397</ele>
<time>2024-05-11T09:28:38Z</time>
</trkpt>
<trkpt lat="49.55807492136955" lon="9.357430385425689">
<ele>397</ele>
<time>2024-05-11T09:28:39Z</time>
</trkpt>
<trkpt lat="49.55809780396521" lon="9.357478078454731">
<ele>396.8</ele>
<time>2024-05-11T09:28:40Z</time>
</trkpt>
<trkpt lat="49.55811683088541" lon="9.357521999627352">
<ele>396.6</ele>
<time>2024-05-11T09:28:41Z</time>
</trkpt>
<trkpt lat="49.5581397973001" lon="9.357566758990288">
<ele>396.6</ele>
<time>2024-05-11T09:28:42Z</time>
</trkpt>
<trkpt lat="49.5581588242203" lon="9.357611602172256">
<ele>396.4</ele>
<time>2024-05-11T09:28:43Z</time>
</trkpt>
<trkpt lat="49.55818170681596" lon="9.357656445354223">
<ele>396.2</ele>
<time>2024-05-11T09:28:44Z</time>
</trkpt>
<trkpt lat="49.55820081755519" lon="9.357701288536193">
<ele>396.2</ele>
<time>2024-05-11T09:28:45Z</time>
</trkpt>
<trkpt lat="49.55821984447539" lon="9.357747053727508">
<ele>396</ele>
<time>2024-05-11T09:28:46Z</time>
</trkpt>
<trkpt lat="49.55823895521462" lon="9.357789969071746">
<ele>395.8</ele>
<time>2024-05-11T09:28:47Z</time>
</trkpt>
<trkpt lat="49.55825798213482" lon="9.357830034568906">
<ele>395.8</ele>
<time>2024-05-11T09:28:48Z</time>
</trkpt>
<trkpt lat="49.55827709287405" lon="9.357872949913144">
<ele>395.8</ele>
<time>2024-05-11T09:28:49Z</time>
</trkpt>
<trkpt lat="49.55829620361328" lon="9.357916787266731">
<ele>395.4</ele>
<time>2024-05-11T09:28:50Z</time>
</trkpt>
<trkpt lat="49.55831145867705" lon="9.3579616304487">
<ele>394.8</ele>
<time>2024-05-11T09:28:51Z</time>
</trkpt>
<trkpt lat="49.558326713740826" lon="9.358010245487094">
<ele>394.4</ele>
<time>2024-05-11T09:28:52Z</time>
</trkpt>
<trkpt lat="49.55833811312914" lon="9.358055088669062">
<ele>394.4</ele>
<time>2024-05-11T09:28:53Z</time>
</trkpt>
<trkpt lat="49.55835722386837" lon="9.35809699818492">
<ele>394.4</ele>
<time>2024-05-11T09:28:54Z</time>
</trkpt>
<trkpt lat="49.558383878320456" lon="9.358133291825652">
<ele>394.4</ele>
<time>2024-05-11T09:28:55Z</time>
</trkpt>
<trkpt lat="49.558414388448" lon="9.358166651800277">
<ele>394.4</ele>
<time>2024-05-11T09:28:56Z</time>
</trkpt>
<trkpt lat="49.558444898575544" lon="9.358201939612629">
<ele>394.6</ele>
<time>2024-05-11T09:28:57Z</time>
</trkpt>
<trkpt lat="49.55847163684666" lon="9.358242005109789">
<ele>394.8</ele>
<time>2024-05-11T09:28:58Z</time>
</trkpt>
<trkpt lat="49.558506002649665" lon="9.358282070606949">
<ele>394.8</ele>
<time>2024-05-11T09:28:59Z</time>
</trkpt>
<trkpt lat="49.55853651277721" lon="9.358324985951183">
<ele>395</ele>
<time>2024-05-11T09:29:00Z</time>
</trkpt>
<trkpt lat="49.558567022904754" lon="9.35836974531412">
<ele>395.2</ele>
<time>2024-05-11T09:29:01Z</time>
</trkpt>
<trkpt lat="49.5585975330323" lon="9.35841173864901">
<ele>395.2</ele>
<time>2024-05-11T09:29:02Z</time>
</trkpt>
<trkpt lat="49.55862804315984" lon="9.35845180414617">
<ele>395.4</ele>
<time>2024-05-11T09:29:03Z</time>
</trkpt>
<trkpt lat="49.55865855328739" lon="9.35849186964333">
<ele>395.4</ele>
<time>2024-05-11T09:29:04Z</time>
</trkpt>
<trkpt lat="49.55869291909039" lon="9.35853193514049">
<ele>395.6</ele>
<time>2024-05-11T09:29:05Z</time>
</trkpt>
<trkpt lat="49.55872720107436" lon="9.35857007279992">
<ele>395.6</ele>
<time>2024-05-11T09:29:06Z</time>
</trkpt>
<trkpt lat="49.558761566877365" lon="9.35861013829708">
<ele>395.8</ele>
<time>2024-05-11T09:29:07Z</time>
</trkpt>
<trkpt lat="49.5587997045368" lon="9.35865020379424">
<ele>395.8</ele>
<time>2024-05-11T09:29:08Z</time>
</trkpt>
<trkpt lat="49.5588340703398" lon="9.358686413615942">
<ele>395.8</ele>
<time>2024-05-11T09:29:09Z</time>
</trkpt>
<trkpt lat="49.55887220799923" lon="9.358726479113102">
<ele>395.8</ele>
<time>2024-05-11T09:29:10Z</time>
</trkpt>
<trkpt lat="49.55891034565866" lon="9.358766544610262">
<ele>395.8</ele>
<time>2024-05-11T09:29:11Z</time>
</trkpt>
<trkpt lat="49.55894848331809" lon="9.358806610107422">
<ele>396</ele>
<time>2024-05-11T09:29:12Z</time>
</trkpt>
<trkpt lat="49.55898662097752" lon="9.358844747766852">
<ele>396</ele>
<time>2024-05-11T09:29:13Z</time>
</trkpt>
<trkpt lat="49.55902475863695" lon="9.358881879597902">
<ele>396</ele>
<time>2024-05-11T09:29:14Z</time>
</trkpt>
<trkpt lat="49.55906289629638" lon="9.358916245400906">
<ele>396</ele>
<time>2024-05-11T09:29:15Z</time>
</trkpt>
<trkpt lat="49.55910103395581" lon="9.358949605375528">
<ele>396</ele>
<time>2024-05-11T09:29:16Z</time>
</trkpt>
<trkpt lat="49.55913917161524" lon="9.35898489318788">
<ele>396</ele>
<time>2024-05-11T09:29:17Z</time>
</trkpt>
<trkpt lat="49.559173537418246" lon="9.359016409143806">
<ele>396.2</ele>
<time>2024-05-11T09:29:18Z</time>
</trkpt>
<trkpt lat="49.55921167507768" lon="9.35904691927135">
<ele>396.2</ele>
<time>2024-05-11T09:29:19Z</time>
</trkpt>
<trkpt lat="49.55924981273711" lon="9.359074579551816">
<ele>396.2</ele>
<time>2024-05-11T09:29:20Z</time>
</trkpt>
<trkpt lat="49.55928795039654" lon="9.359098384156823">
<ele>396.2</ele>
<time>2024-05-11T09:29:22Z</time>
</trkpt>
<trkpt lat="49.559356682002544" lon="9.359140377491713">
<ele>396.2</ele>
<time>2024-05-11T09:29:23Z</time>
</trkpt>
<trkpt lat="49.559394819661975" lon="9.359158482402565">
<ele>396.4</ele>
<time>2024-05-11T09:29:24Z</time>
</trkpt>
<trkpt lat="49.55942910164595" lon="9.359176587313414">
<ele>396.4</ele>
<time>2024-05-11T09:29:25Z</time>
</trkpt>
<trkpt lat="49.55946346744895" lon="9.359194692224264">
<ele>396.4</ele>
<time>2024-05-11T09:29:26Z</time>
</trkpt>
<trkpt lat="49.55950160510838" lon="9.359212797135116">
<ele>396.6</ele>
<time>2024-05-11T09:29:27Z</time>
</trkpt>
<trkpt lat="49.55953974276781" lon="9.359234757721424">
<ele>396.6</ele>
<time>2024-05-11T09:29:28Z</time>
</trkpt>
<trkpt lat="49.5595817361027" lon="9.359254790470004">
<ele>396.8</ele>
<time>2024-05-11T09:29:29Z</time>
</trkpt>
<trkpt lat="49.55962364561856" lon="9.359272895380856">
<ele>396.8</ele>
<time>2024-05-11T09:29:30Z</time>
</trkpt>
<trkpt lat="49.55966563895345" lon="9.359292006120086">
<ele>396.8</ele>
<time>2024-05-11T09:29:31Z</time>
</trkpt>
<trkpt lat="49.55971140414477" lon="9.359312038868666">
<ele>396.8</ele>
<time>2024-05-11T09:29:32Z</time>
</trkpt>
<trkpt lat="49.55975339747965" lon="9.359332071617246">
<ele>396.8</ele>
<time>2024-05-11T09:29:33Z</time>
</trkpt>
<trkpt lat="49.55979530699551" lon="9.359352104365826">
<ele>396.8</ele>
<time>2024-05-11T09:29:34Z</time>
</trkpt>
<trkpt lat="49.5598373003304" lon="9.359370209276676">
<ele>397</ele>
<time>2024-05-11T09:29:35Z</time>
</trkpt>
<trkpt lat="49.55988306552172" lon="9.359388314187528">
<ele>397</ele>
<time>2024-05-11T09:29:36Z</time>
</trkpt>
<trkpt lat="49.55992505885661" lon="9.359404491260648">
<ele>397</ele>
<time>2024-05-11T09:29:37Z</time>
</trkpt>
<trkpt lat="49.559966968372464" lon="9.35942167416215">
<ele>397</ele>
<time>2024-05-11T09:29:38Z</time>
</trkpt>
<trkpt lat="49.560008961707354" lon="9.359435001388192">
<ele>397.2</ele>
<time>2024-05-11T09:29:39Z</time>
</trkpt>
<trkpt lat="49.56005095504224" lon="9.359453190118074">
<ele>397.2</ele>
<time>2024-05-11T09:29:40Z</time>
</trkpt>
<trkpt lat="49.5600928645581" lon="9.359470289200544">
<ele>397.4</ele>
<time>2024-05-11T09:29:41Z</time>
</trkpt>
<trkpt lat="49.56013485789299" lon="9.35948370024562">
<ele>397.6</ele>
<time>2024-05-11T09:29:42Z</time>
</trkpt>
<trkpt lat="49.56017299555242" lon="9.359495099633932">
<ele>397.8</ele>
<time>2024-05-11T09:29:43Z</time>
</trkpt>
<trkpt lat="49.56021498888731" lon="9.359506582841275">
<ele>398</ele>
<time>2024-05-11T09:29:44Z</time>
</trkpt>
<trkpt lat="49.56025312654674" lon="9.35951798222959">
<ele>398.2</ele>
<time>2024-05-11T09:29:45Z</time>
</trkpt>
<trkpt lat="49.5602950360626" lon="9.359531393274665">
<ele>398.4</ele>
<time>2024-05-11T09:29:46Z</time>
</trkpt>
<trkpt lat="49.56033317372203" lon="9.359544720500708">
<ele>398.4</ele>
<time>2024-05-11T09:29:47Z</time>
</trkpt>
<trkpt lat="49.56037139520049" lon="9.35955611988902">
<ele>398.6</ele>
<time>2024-05-11T09:29:48Z</time>
</trkpt>
<trkpt lat="49.56040953285992" lon="9.359569530934095">
<ele>398.8</ele>
<time>2024-05-11T09:29:49Z</time>
</trkpt>
<trkpt lat="49.56044767051935" lon="9.359582858160138">
<ele>399</ele>
<time>2024-05-11T09:29:50Z</time>
</trkpt>
<trkpt lat="49.56048195250333" lon="9.35959618538618">
<ele>399.2</ele>
<time>2024-05-11T09:29:51Z</time>
</trkpt>
<trkpt lat="49.560520090162754" lon="9.359606662765144">
<ele>399.4</ele>
<time>2024-05-11T09:29:52Z</time>
</trkpt>
<trkpt lat="49.560558311641216" lon="9.359615296125412">
<ele>399.6</ele>
<time>2024-05-11T09:29:53Z</time>
</trkpt>
<trkpt lat="49.56059644930065" lon="9.35961814597249">
<ele>399.8</ele>
<time>2024-05-11T09:29:54Z</time>
</trkpt>
<trkpt lat="49.56063458696008" lon="9.359611440449951">
<ele>400</ele>
<time>2024-05-11T09:29:55Z</time>
</trkpt>
<trkpt lat="49.56066886894405" lon="9.359589563682675">
<ele>400.2</ele>
<time>2024-05-11T09:29:56Z</time>
</trkpt>
<trkpt lat="49.56070709042251" lon="9.359562825411558">
<ele>400.2</ele>
<time>2024-05-11T09:29:57Z</time>
</trkpt>
<trkpt lat="49.56074522808194" lon="9.359537092968822">
<ele>400.4</ele>
<time>2024-05-11T09:29:58Z</time>
</trkpt>
<trkpt lat="49.56078336574137" lon="9.359515132382512">
<ele>400.4</ele>
<time>2024-05-11T09:29:59Z</time>
</trkpt>
<trkpt lat="49.56082527525723" lon="9.359495099633932">
<ele>400.6</ele>
<time>2024-05-11T09:30:00Z</time>
</trkpt>
<trkpt lat="49.56086341291666" lon="9.359476994723082">
<ele>400.8</ele>
<time>2024-05-11T09:30:01Z</time>
</trkpt>
<trkpt lat="49.56090540625155" lon="9.359457967802882">
<ele>401</ele>
<time>2024-05-11T09:30:02Z</time>
</trkpt>
<trkpt lat="49.56094739958644" lon="9.35944170691073">
<ele>401</ele>
<time>2024-05-11T09:30:03Z</time>
</trkpt>
<trkpt lat="49.5609893091023" lon="9.35942360199988">
<ele>401.2</ele>
<time>2024-05-11T09:30:04Z</time>
</trkpt>
<trkpt lat="49.561031302437186" lon="9.359406419098375">
<ele>401.2</ele>
<time>2024-05-11T09:30:05Z</time>
</trkpt>
<trkpt lat="49.56107329577208" lon="9.359386386349795">
<ele>401.4</ele>
<time>2024-05-11T09:30:06Z</time>
</trkpt>
<trkpt lat="49.56111520528793" lon="9.359371131286023">
<ele>401.4</ele>
<time>2024-05-11T09:30:07Z</time>
</trkpt>
<trkpt lat="49.56115719862282" lon="9.359358726069331">
<ele>401.4</ele>
<time>2024-05-11T09:30:08Z</time>
</trkpt>
<trkpt lat="49.56119533628225" lon="9.359345398843288">
<ele>401.6</ele>
<time>2024-05-11T09:30:09Z</time>
</trkpt>
<trkpt lat="49.56123732961714" lon="9.359332993626596">
<ele>401.6</ele>
<time>2024-05-11T09:30:10Z</time>
</trkpt>
<trkpt lat="49.56127546727657" lon="9.35932343825698">
<ele>401.6</ele>
<time>2024-05-11T09:30:11Z</time>
</trkpt>
<trkpt lat="49.56131737679243" lon="9.359316816553472">
<ele>401.8</ele>
<time>2024-05-11T09:30:12Z</time>
</trkpt>
<trkpt lat="49.56135551445186" lon="9.359314888715744">
<ele>402</ele>
<time>2024-05-11T09:30:13Z</time>
</trkpt>
<trkpt lat="49.561389880254865" lon="9.359312960878016">
<ele>402</ele>
<time>2024-05-11T09:30:14Z</time>
</trkpt>
<trkpt lat="49.561428017914295" lon="9.359314888715744">
<ele>402.2</ele>
<time>2024-05-11T09:30:15Z</time>
</trkpt>
<trkpt lat="49.5614623837173" lon="9.359319666400552">
<ele>402.4</ele>
<time>2024-05-11T09:30:16Z</time>
</trkpt>
<trkpt lat="49.56149666570127" lon="9.359325366094708">
<ele>402.4</ele>
<time>2024-05-11T09:30:17Z</time>
</trkpt>
<trkpt lat="49.56153103150427" lon="9.359332071617246">
<ele>402.6</ele>
<time>2024-05-11T09:30:18Z</time>
</trkpt>
<trkpt lat="49.56156539730728" lon="9.35934154316783">
<ele>402.6</ele>
<time>2024-05-11T09:30:19Z</time>
</trkpt>
<trkpt lat="49.56159967929125" lon="9.359356798231602">
<ele>402.8</ele>
<time>2024-05-11T09:30:20Z</time>
</trkpt>
<trkpt lat="49.56163404509425" lon="9.359373059123756">
<ele>402.8</ele>
<time>2024-05-11T09:30:21Z</time>
</trkpt>
<trkpt lat="49.56166832707822" lon="9.359390242025256">
<ele>402.8</ele>
<time>2024-05-11T09:30:22Z</time>
</trkpt>
<trkpt lat="49.56169883720577" lon="9.359404491260648">
<ele>403</ele>
<time>2024-05-11T09:30:23Z</time>
</trkpt>
<trkpt lat="49.56173320300877" lon="9.35942167416215">
<ele>403</ele>
<time>2024-05-11T09:30:24Z</time>
</trkpt>
<trkpt lat="49.56175994127989" lon="9.359437935054302">
<ele>403.2</ele>
<time>2024-05-11T09:30:25Z</time>
</trkpt>
<trkpt lat="49.56179045140743" lon="9.35945981182158">
<ele>403.4</ele>
<time>2024-05-11T09:30:26Z</time>
</trkpt>
<trkpt lat="49.56181710585952" lon="9.35947984457016">
<ele>403.4</ele>
<time>2024-05-11T09:30:27Z</time>
</trkpt>
<trkpt lat="49.561843844130635" lon="9.35949794948101">
<ele>403.6</ele>
<time>2024-05-11T09:30:28Z</time>
</trkpt>
<trkpt lat="49.56187049858272" lon="9.35951798222959">
<ele>403.8</ele>
<time>2024-05-11T09:30:29Z</time>
</trkpt>
<trkpt lat="49.56189338117838" lon="9.359537092968822">
<ele>404</ele>
<time>2024-05-11T09:30:30Z</time>
</trkpt>
<trkpt lat="49.561920119449496" lon="9.359553270041944">
<ele>404.2</ele>
<time>2024-05-11T09:30:31Z</time>
</trkpt>
<trkpt lat="49.561943002045155" lon="9.359562825411558">
<ele>404.4</ele>
<time>2024-05-11T09:30:32Z</time>
</trkpt>
<trkpt lat="49.56196974031627" lon="9.359564753249288">
<ele>404.6</ele>
<time>2024-05-11T09:30:33Z</time>
</trkpt>
<trkpt lat="49.56199262291193" lon="9.35955997556448">
<ele>404.6</ele>
<time>2024-05-11T09:30:34Z</time>
</trkpt>
<trkpt lat="49.56201164983213" lon="9.359551426023245">
<ele>404.8</ele>
<time>2024-05-11T09:30:35Z</time>
</trkpt>
<trkpt lat="49.5620269048959" lon="9.359544720500708">
<ele>405</ele>
<time>2024-05-11T09:30:36Z</time>
</trkpt>
<trkpt lat="49.562042159959674" lon="9.359533237293364">
<ele>405</ele>
<time>2024-05-11T09:30:37Z</time>
</trkpt>
<trkpt lat="49.56204978749156" lon="9.359517060220242">
<ele>405.2</ele>
<time>2024-05-11T09:30:38Z</time>
</trkpt>
<trkpt lat="49.56206504255533" lon="9.3595037329942">
<ele>405.2</ele>
<time>2024-05-11T09:30:39Z</time>
</trkpt>
<trkpt lat="49.56207275390625" lon="9.359490321949124">
<ele>405.2</ele>
<time>2024-05-11T09:30:40Z</time>
</trkpt>
<trkpt lat="49.56208415329456" lon="9.359471295028923">
<ele>405.4</ele>
<time>2024-05-11T09:30:41Z</time>
</trkpt>
<trkpt lat="49.562099408358335" lon="9.359455034136772">
<ele>405.4</ele>
<time>2024-05-11T09:30:42Z</time>
</trkpt>
<trkpt lat="49.56211089156568" lon="9.359439779073">
<ele>405.4</ele>
<time>2024-05-11T09:30:43Z</time>
</trkpt>
<trkpt lat="49.56212614662945" lon="9.359424524009228">
<ele>405.4</ele>
<time>2024-05-11T09:30:44Z</time>
</trkpt>
<trkpt lat="49.56214517354965" lon="9.35942167416215">
<ele>405.4</ele>
<time>2024-05-11T09:30:45Z</time>
</trkpt>
<trkpt lat="49.56216428428888" lon="9.359430307522416">
<ele>405.4</ele>
<time>2024-05-11T09:30:46Z</time>
</trkpt>
<trkpt lat="49.562179539352655" lon="9.359444556757808">
<ele>405.4</ele>
<time>2024-05-11T09:30:47Z</time>
</trkpt>
<trkpt lat="49.56219479441643" lon="9.35946366749704">
<ele>405.4</ele>
<time>2024-05-11T09:30:48Z</time>
</trkpt>
<trkpt lat="49.56221382133663" lon="9.35947791673243">
<ele>405.4</ele>
<time>2024-05-11T09:30:49Z</time>
</trkpt>
<trkpt lat="49.5622290764004" lon="9.359497027471662">
<ele>405.4</ele>
<time>2024-05-11T09:30:50Z</time>
</trkpt>
<trkpt lat="49.562240559607744" lon="9.35952183790505">
<ele>405.4</ele>
<time>2024-05-11T09:30:51Z</time>
</trkpt>
<trkpt lat="49.56224818713963" lon="9.359553270041944">
<ele>405.4</ele>
<time>2024-05-11T09:30:52Z</time>
</trkpt>
<trkpt lat="49.5622444152832" lon="9.359586713835595">
<ele>405.4</ele>
<time>2024-05-11T09:30:53Z</time>
</trkpt>
<trkpt lat="49.56223293207586" lon="9.359628623351457">
<ele>405.4</ele>
<time>2024-05-11T09:30:54Z</time>
</trkpt>
<trkpt lat="49.56222144886851" lon="9.359684865921736">
<ele>405.4</ele>
<time>2024-05-11T09:30:55Z</time>
</trkpt>
<trkpt lat="49.56221382133663" lon="9.359744964167476">
<ele>405.4</ele>
<time>2024-05-11T09:30:56Z</time>
</trkpt>
<trkpt lat="49.56221382133663" lon="9.359805062413216">
<ele>405.4</ele>
<time>2024-05-11T09:30:57Z</time>
</trkpt>
<trkpt lat="49.56222144886851" lon="9.359863232821226">
<ele>405.4</ele>
<time>2024-05-11T09:30:58Z</time>
</trkpt>
<trkpt lat="49.562236703932285" lon="9.359918553382158">
<ele>405.4</ele>
<time>2024-05-11T09:30:59Z</time>
</trkpt>
<trkpt lat="49.56225581467152" lon="9.359972951933742">
<ele>405.4</ele>
<time>2024-05-11T09:31:00Z</time>
</trkpt>
<trkpt lat="49.562278697267175" lon="9.360025338828564">
<ele>405.4</ele>
<time>2024-05-11T09:31:01Z</time>
</trkpt>
<trkpt lat="49.56230157986283" lon="9.360076887533069">
<ele>405.4</ele>
<time>2024-05-11T09:31:02Z</time>
</trkpt>
<trkpt lat="49.56232831813395" lon="9.360126424580812">
<ele>405.4</ele>
<time>2024-05-11T09:31:03Z</time>
</trkpt>
<trkpt lat="49.56235497258603" lon="9.36017319560051">
<ele>405.2</ele>
<time>2024-05-11T09:31:04Z</time>
</trkpt>
<trkpt lat="49.56238548271358" lon="9.360219882801175">
<ele>405.2</ele>
<time>2024-05-11T09:31:05Z</time>
</trkpt>
<trkpt lat="49.56241984851658" lon="9.360264725983145">
<ele>405.2</ele>
<time>2024-05-11T09:31:06Z</time>
</trkpt>
<trkpt lat="49.56245035864413" lon="9.360306719318032">
<ele>405.2</ele>
<time>2024-05-11T09:31:07Z</time>
</trkpt>
<trkpt lat="49.56248472444713" lon="9.360342007130384">
<ele>405.2</ele>
<time>2024-05-11T09:31:08Z</time>
</trkpt>
<trkpt lat="49.56252286210656" lon="9.360373439267278">
<ele>405.2</ele>
<time>2024-05-11T09:31:09Z</time>
</trkpt>
<trkpt lat="49.56256477162242" lon="9.360403027385471">
<ele>405.2</ele>
<time>2024-05-11T09:31:10Z</time>
</trkpt>
<trkpt lat="49.56260299310088" lon="9.36042783781886">
<ele>405.2</ele>
<time>2024-05-11T09:31:11Z</time>
</trkpt>
<trkpt lat="49.56264113076031" lon="9.360451642423868">
<ele>405.2</ele>
<time>2024-05-11T09:31:12Z</time>
</trkpt>
<trkpt lat="49.56267926841974" lon="9.360471675172448">
<ele>405.2</ele>
<time>2024-05-11T09:31:13Z</time>
</trkpt>
<trkpt lat="49.56271740607917" lon="9.3604879360646">
<ele>405.4</ele>
<time>2024-05-11T09:31:14Z</time>
</trkpt>
<trkpt lat="49.562751688063145" lon="9.360503191128371">
<ele>405.4</ele>
<time>2024-05-11T09:31:15Z</time>
</trkpt>
<trkpt lat="49.56278605386615" lon="9.360513668507338">
<ele>405.4</ele>
<time>2024-05-11T09:31:16Z</time>
</trkpt>
<trkpt lat="49.56282041966915" lon="9.36052699573338">
<ele>405.4</ele>
<time>2024-05-11T09:31:17Z</time>
</trkpt>
<trkpt lat="49.56285470165312" lon="9.360540322959425">
<ele>405.4</ele>
<time>2024-05-11T09:31:18Z</time>
</trkpt>
<trkpt lat="49.562889067456126" lon="9.360551806166768">
<ele>405.4</ele>
<time>2024-05-11T09:31:19Z</time>
</trkpt>
<trkpt lat="49.5629233494401" lon="9.360561361536384">
<ele>405.4</ele>
<time>2024-05-11T09:31:20Z</time>
</trkpt>
<trkpt lat="49.562953943386674" lon="9.36056798323989">
<ele>405.4</ele>
<time>2024-05-11T09:31:21Z</time>
</trkpt>
<trkpt lat="49.562988225370646" lon="9.360573766753078">
<ele>405.4</ele>
<time>2024-05-11T09:31:22Z</time>
</trkpt>
<trkpt lat="49.56301873549819" lon="9.36056991107762">
<ele>405.4</ele>
<time>2024-05-11T09:31:23Z</time>
</trkpt>
<trkpt lat="49.563049245625734" lon="9.360554656013846">
<ele>405.4</ele>
<time>2024-05-11T09:31:24Z</time>
</trkpt>
<trkpt lat="49.56308361142874" lon="9.360534623265266">
<ele>405.4</ele>
<time>2024-05-11T09:31:25Z</time>
</trkpt>
<trkpt lat="49.56311797723174" lon="9.36050788499415">
<ele>405.2</ele>
<time>2024-05-11T09:31:26Z</time>
</trkpt>
<trkpt lat="49.56315225921571" lon="9.360481230542064">
<ele>405.2</ele>
<time>2024-05-11T09:31:27Z</time>
</trkpt>
<trkpt lat="49.56318276934326" lon="9.36044787056744">
<ele>405</ele>
<time>2024-05-11T09:31:28Z</time>
</trkpt>
<trkpt lat="49.56321713514626" lon="9.360411576926708">
<ele>405</ele>
<time>2024-05-11T09:31:29Z</time>
</trkpt>
<trkpt lat="49.56325141713023" lon="9.360375367105007">
<ele>405</ele>
<time>2024-05-11T09:31:30Z</time>
</trkpt>
<trkpt lat="49.563289638608694" lon="9.360344856977465">
<ele>404.8</ele>
<time>2024-05-11T09:31:31Z</time>
</trkpt>
<trkpt lat="49.56333154812455" lon="9.36033152975142">
<ele>404.8</ele>
<time>2024-05-11T09:31:32Z</time>
</trkpt>
<trkpt lat="49.56336968578398" lon="9.36033152975142">
<ele>404.8</ele>
<time>2024-05-11T09:31:33Z</time>
</trkpt>
<trkpt lat="49.5634154509753" lon="9.360342007130384">
<ele>404.8</ele>
<time>2024-05-11T09:31:34Z</time>
</trkpt>
<trkpt lat="49.56345367245376" lon="9.360358184203506">
<ele>404.8</ele>
<time>2024-05-11T09:31:35Z</time>
</trkpt>
<trkpt lat="49.56349558196962" lon="9.360378216952084">
<ele>404.8</ele>
<time>2024-05-11T09:31:36Z</time>
</trkpt>
<trkpt lat="49.56352994777262" lon="9.36040872707963">
<ele>404.8</ele>
<time>2024-05-11T09:31:37Z</time>
</trkpt>
<trkpt lat="49.56356808543205" lon="9.360438315197824">
<ele>404.8</ele>
<time>2024-05-11T09:31:38Z</time>
</trkpt>
<trkpt lat="49.56360622309148" lon="9.360476452857256">
<ele>404.8</ele>
<time>2024-05-11T09:31:39Z</time>
</trkpt>
<trkpt lat="49.56363673321903" lon="9.360518446192144">
<ele>404.8</ele>
<time>2024-05-11T09:31:40Z</time>
</trkpt>
<trkpt lat="49.56367487087846" lon="9.360561361536384">
<ele>404.8</ele>
<time>2024-05-11T09:31:41Z</time>
</trkpt>
<trkpt lat="49.56370923668146" lon="9.360611904412508">
<ele>404.8</ele>
<time>2024-05-11T09:31:42Z</time>
</trkpt>
<trkpt lat="49.56374351866543" lon="9.360671918839216">
<ele>404.8</ele>
<time>2024-05-11T09:31:43Z</time>
</trkpt>
<trkpt lat="49.56377402879298" lon="9.360736794769764">
<ele>404.6</ele>
<time>2024-05-11T09:31:44Z</time>
</trkpt>
<trkpt lat="49.56380462273955" lon="9.360808292403815">
<ele>404.6</ele>
<time>2024-05-11T09:31:45Z</time>
</trkpt>
<trkpt lat="49.56383127719164" lon="9.360886495560408">
<ele>404.6</ele>
<time>2024-05-11T09:31:46Z</time>
</trkpt>
<trkpt lat="49.5638541597873" lon="9.360968554392455">
<ele>404.4</ele>
<time>2024-05-11T09:31:47Z</time>
</trkpt>
<trkpt lat="49.56387327052653" lon="9.361056312918665">
<ele>404.2</ele>
<time>2024-05-11T09:31:48Z</time>
</trkpt>
<trkpt lat="49.56389229744673" lon="9.361146921291947">
<ele>404</ele>
<time>2024-05-11T09:31:49Z</time>
</trkpt>
<trkpt lat="49.56391140818596" lon="9.36123845167458">
<ele>404</ele>
<time>2024-05-11T09:31:50Z</time>
</trkpt>
<trkpt lat="49.56392280757427" lon="9.361331909894943">
<ele>403.8</ele>
<time>2024-05-11T09:31:51Z</time>
</trkpt>
<trkpt lat="49.56393806263805" lon="9.36141966842115">
<ele>403.6</ele>
<time>2024-05-11T09:31:52Z</time>
</trkpt>
<trkpt lat="49.563961029052734" lon="9.361504493281243">
<ele>403.6</ele>
<time>2024-05-11T09:31:53Z</time>
</trkpt>
<trkpt lat="49.56398391164839" lon="9.361583702266216">
<ele>403.4</ele>
<time>2024-05-11T09:31:54Z</time>
</trkpt>
<trkpt lat="49.56401442177594" lon="9.361650422215462">
<ele>403.2</ele>
<time>2024-05-11T09:31:55Z</time>
</trkpt>
<trkpt lat="49.56404493190348" lon="9.361708592623472">
<ele>403.2</ele>
<time>2024-05-11T09:31:56Z</time>
</trkpt>
<trkpt lat="49.56408306956291" lon="9.361758213490248">
<ele>403</ele>
<time>2024-05-11T09:31:57Z</time>
</trkpt>
<trkpt lat="49.56412497907877" lon="9.361795345321298">
<ele>403</ele>
<time>2024-05-11T09:31:58Z</time>
</trkpt>
<trkpt lat="49.564174599945545" lon="9.361824933439491">
<ele>402.8</ele>
<time>2024-05-11T09:31:59Z</time>
</trkpt>
<trkpt lat="49.56422036513686" lon="9.361854521557689">
<ele>402.6</ele>
<time>2024-05-11T09:32:00Z</time>
</trkpt>
<trkpt lat="49.56426998600364" lon="9.361881176009774">
<ele>402.6</ele>
<time>2024-05-11T09:32:01Z</time>
</trkpt>
<trkpt lat="49.56432337872684" lon="9.361901208758354">
<ele>402.4</ele>
<time>2024-05-11T09:32:02Z</time>
</trkpt>
<trkpt lat="49.56437677145004" lon="9.361921241506934">
<ele>402.2</ele>
<time>2024-05-11T09:32:03Z</time>
</trkpt>
<trkpt lat="49.564434019848704" lon="9.361941274255514">
<ele>402.2</ele>
<time>2024-05-11T09:32:04Z</time>
</trkpt>
<trkpt lat="49.56448741257191" lon="9.361963234841824">
<ele>402</ele>
<time>2024-05-11T09:32:05Z</time>
</trkpt>
<trkpt lat="49.56454466097057" lon="9.361985195428131">
<ele>402</ele>
<time>2024-05-11T09:32:06Z</time>
</trkpt>
<trkpt lat="49.56459805369377" lon="9.362008078023791">
<ele>401.8</ele>
<time>2024-05-11T09:32:07Z</time>
</trkpt>
<trkpt lat="49.56465530209243" lon="9.362031882628798">
<ele>401.8</ele>
<time>2024-05-11T09:32:08Z</time>
</trkpt>
<trkpt lat="49.56471246667206" lon="9.362052837386727">
<ele>401.6</ele>
<time>2024-05-11T09:32:09Z</time>
</trkpt>
<trkpt lat="49.564765859395266" lon="9.362071948125958">
<ele>401.4</ele>
<time>2024-05-11T09:32:10Z</time>
</trkpt>
<trkpt lat="49.56482310779393" lon="9.36208812519908">
<ele>401.4</ele>
<time>2024-05-11T09:32:11Z</time>
</trkpt>
<trkpt lat="49.56487650051713" lon="9.36210530810058">
<ele>401.2</ele>
<time>2024-05-11T09:32:12Z</time>
</trkpt>
<trkpt lat="49.564926121383905" lon="9.362121568992734">
<ele>401.2</ele>
<time>2024-05-11T09:32:13Z</time>
</trkpt>
<trkpt lat="49.56497565843165" lon="9.362134896218777">
<ele>401</ele>
<time>2024-05-11T09:32:14Z</time>
</trkpt>
<trkpt lat="49.565025279298425" lon="9.362150151282547">
<ele>401</ele>
<time>2024-05-11T09:32:15Z</time>
</trkpt>
<trkpt lat="49.5650749001652" lon="9.362163478508592">
<ele>401</ele>
<time>2024-05-11T09:32:16Z</time>
</trkpt>
<trkpt lat="49.565124437212944" lon="9.362176889553666">
<ele>400.8</ele>
<time>2024-05-11T09:32:17Z</time>
</trkpt>
<trkpt lat="49.56517028622329" lon="9.362190216779709">
<ele>400.8</ele>
<time>2024-05-11T09:32:18Z</time>
</trkpt>
<trkpt lat="49.56521219573915" lon="9.362199772149324">
<ele>400.8</ele>
<time>2024-05-11T09:32:19Z</time>
</trkpt>
<trkpt lat="49.56525033339858" lon="9.362211171537638">
<ele>400.8</ele>
<time>2024-05-11T09:32:20Z</time>
</trkpt>
<trkpt lat="49.56528847105801" lon="9.36222449876368">
<ele>400.8</ele>
<time>2024-05-11T09:32:21Z</time>
</trkpt>
<trkpt lat="49.56532660871744" lon="9.362236903980374">
<ele>400.8</ele>
<time>2024-05-11T09:32:22Z</time>
</trkpt>
<trkpt lat="49.56536860205233" lon="9.36224645934999">
<ele>401</ele>
<time>2024-05-11T09:32:23Z</time>
</trkpt>
<trkpt lat="49.56540673971176" lon="9.362256936728954">
<ele>401.2</ele>
<time>2024-05-11T09:32:24Z</time>
</trkpt>
<trkpt lat="49.56544873304665" lon="9.36226649209857">
<ele>401.2</ele>
<time>2024-05-11T09:32:25Z</time>
</trkpt>
<trkpt lat="49.56549064256251" lon="9.362279819324613">
<ele>401.4</ele>
<time>2024-05-11T09:32:26Z</time>
</trkpt>
<trkpt lat="49.5655326358974" lon="9.362291302531958">
<ele>401.4</ele>
<time>2024-05-11T09:32:27Z</time>
</trkpt>
<trkpt lat="49.56557462923229" lon="9.362301779910922">
<ele>401.6</ele>
<time>2024-05-11T09:32:28Z</time>
</trkpt>
<trkpt lat="49.565616538748145" lon="9.362313263118269">
<ele>401.6</ele>
<time>2024-05-11T09:32:29Z</time>
</trkpt>
<trkpt lat="49.565654676407576" lon="9.36232659034431">
<ele>401.8</ele>
<time>2024-05-11T09:32:30Z</time>
</trkpt>
<trkpt lat="49.565696669742465" lon="9.362339917570353">
<ele>402</ele>
<time>2024-05-11T09:32:31Z</time>
</trkpt>
<trkpt lat="49.565738663077354" lon="9.362355172634125">
<ele>402.2</ele>
<time>2024-05-11T09:32:32Z</time>
</trkpt>
<trkpt lat="49.56578057259321" lon="9.362369505688548">
<ele>402.4</ele>
<time>2024-05-11T09:32:33Z</time>
</trkpt>
<trkpt lat="49.5658225659281" lon="9.36238283291459">
<ele>402.6</ele>
<time>2024-05-11T09:32:34Z</time>
</trkpt>
<trkpt lat="49.56586455926299" lon="9.362396160140634">
<ele>402.8</ele>
<time>2024-05-11T09:32:35Z</time>
</trkpt>
<trkpt lat="49.56590646877885" lon="9.362409571185708">
<ele>403</ele>
<time>2024-05-11T09:32:36Z</time>
</trkpt>
<trkpt lat="49.56594846211374" lon="9.362421976402402">
<ele>403.2</ele>
<time>2024-05-11T09:32:37Z</time>
</trkpt>
<trkpt lat="49.5659903716296" lon="9.362435303628445">
<ele>403.2</ele>
<time>2024-05-11T09:32:38Z</time>
</trkpt>
<trkpt lat="49.566032364964485" lon="9.362446703016758">
<ele>403.4</ele>
<time>2024-05-11T09:32:39Z</time>
</trkpt>
<trkpt lat="49.5660781301558" lon="9.362460114061832">
<ele>403.6</ele>
<time>2024-05-11T09:32:40Z</time>
</trkpt>
<trkpt lat="49.56612012349069" lon="9.362475369125605">
<ele>403.8</ele>
<time>2024-05-11T09:32:41Z</time>
</trkpt>
<trkpt lat="49.56615826115012" lon="9.362489618360996">
<ele>404</ele>
<time>2024-05-11T09:32:42Z</time>
</trkpt>
<trkpt lat="49.56620025448501" lon="9.36250302940607">
<ele>404.2</ele>
<time>2024-05-11T09:32:43Z</time>
</trkpt>
<trkpt lat="49.56623839214444" lon="9.362515434622765">
<ele>404.4</ele>
<time>2024-05-11T09:32:44Z</time>
</trkpt>
<trkpt lat="49.5662803016603" lon="9.362527839839458">
<ele>404.6</ele>
<time>2024-05-11T09:32:45Z</time>
</trkpt>
<trkpt lat="49.56632229499519" lon="9.3625411670655">
<ele>404.6</ele>
<time>2024-05-11T09:32:46Z</time>
</trkpt>
<trkpt lat="49.56636428833008" lon="9.362554494291544">
<ele>404.8</ele>
<time>2024-05-11T09:32:47Z</time>
</trkpt>
<trkpt lat="49.566406197845936" lon="9.362569749355316">
<ele>405</ele>
<time>2024-05-11T09:32:48Z</time>
</trkpt>
<trkpt lat="49.566448191180825" lon="9.362585004419088">
<ele>405</ele>
<time>2024-05-11T09:32:49Z</time>
</trkpt>
<trkpt lat="49.56649010069668" lon="9.362598415464165">
<ele>405</ele>
<time>2024-05-11T09:32:50Z</time>
</trkpt>
<trkpt lat="49.56653209403157" lon="9.362611742690206">
<ele>405.2</ele>
<time>2024-05-11T09:32:51Z</time>
</trkpt>
<trkpt lat="49.56657408736646" lon="9.362625069916248">
<ele>405.2</ele>
<time>2024-05-11T09:32:52Z</time>
</trkpt>
<trkpt lat="49.56661985255778" lon="9.362636553123592">
<ele>405.2</ele>
<time>2024-05-11T09:32:53Z</time>
</trkpt>
<trkpt lat="49.56666176207363" lon="9.362647030502558">
<ele>405.4</ele>
<time>2024-05-11T09:32:54Z</time>
</trkpt>
<trkpt lat="49.566703755408525" lon="9.362658429890873">
<ele>405.4</ele>
<time>2024-05-11T09:32:55Z</time>
</trkpt>
<trkpt lat="49.566745748743415" lon="9.362669913098216">
<ele>405.6</ele>
<time>2024-05-11T09:32:56Z</time>
</trkpt>
<trkpt lat="49.56679151393473" lon="9.36268039047718">
<ele>405.6</ele>
<time>2024-05-11T09:32:57Z</time>
</trkpt>
<trkpt lat="49.56683342345059" lon="9.362689945846796">
<ele>405.8</ele>
<time>2024-05-11T09:32:58Z</time>
</trkpt>
<trkpt lat="49.56687541678548" lon="9.362699501216412">
<ele>405.8</ele>
<time>2024-05-11T09:32:59Z</time>
</trkpt>
<trkpt lat="49.566921181976795" lon="9.362711906433104">
<ele>406</ele>
<time>2024-05-11T09:33:00Z</time>
</trkpt>
<trkpt lat="49.566963175311685" lon="9.362725233659148">
<ele>406</ele>
<time>2024-05-11T09:33:01Z</time>
</trkpt>
<trkpt lat="49.567008940503" lon="9.36273948289454">
<ele>406.2</ele>
<time>2024-05-11T09:33:02Z</time>
</trkpt>
<trkpt lat="49.56705470569432" lon="9.36275666579604">
<ele>406.4</ele>
<time>2024-05-11T09:33:03Z</time>
</trkpt>
<trkpt lat="49.56709669902921" lon="9.362772926688194">
<ele>406.4</ele>
<time>2024-05-11T09:33:04Z</time>
</trkpt>
<trkpt lat="49.56714246422053" lon="9.362788181751966">
<ele>406.6</ele>
<time>2024-05-11T09:33:05Z</time>
</trkpt>
<trkpt lat="49.56718822941184" lon="9.36280150897801">
<ele>406.6</ele>
<time>2024-05-11T09:33:06Z</time>
</trkpt>
<trkpt lat="49.56723022274673" lon="9.362814836204052">
<ele>406.8</ele>
<time>2024-05-11T09:33:07Z</time>
</trkpt>
<trkpt lat="49.56727213226259" lon="9.362830091267824">
<ele>406.8</ele>
<time>2024-05-11T09:33:08Z</time>
</trkpt>
<trkpt lat="49.56731412559748" lon="9.362845346331596">
<ele>407</ele>
<time>2024-05-11T09:33:09Z</time>
</trkpt>
<trkpt lat="49.56735226325691" lon="9.36285875737667">
<ele>407</ele>
<time>2024-05-11T09:33:10Z</time>
</trkpt>
<trkpt lat="49.5673942565918" lon="9.362868228927256">
<ele>407</ele>
<time>2024-05-11T09:33:11Z</time>
</trkpt>
<trkpt lat="49.56743239425123" lon="9.36287686228752">
<ele>407</ele>
<time>2024-05-11T09:33:12Z</time>
</trkpt>
<trkpt lat="49.567474303767085" lon="9.362884489819407">
<ele>407</ele>
<time>2024-05-11T09:33:13Z</time>
</trkpt>
<trkpt lat="49.567516297101974" lon="9.362894967198372">
<ele>407</ele>
<time>2024-05-11T09:33:14Z</time>
</trkpt>
<trkpt lat="49.56755820661783" lon="9.362904522567987">
<ele>407</ele>
<time>2024-05-11T09:33:15Z</time>
</trkpt>
<trkpt lat="49.567596428096294" lon="9.362914999946952">
<ele>407</ele>
<time>2024-05-11T09:33:16Z</time>
</trkpt>
<trkpt lat="49.56763833761215" lon="9.362926483154297">
<ele>407</ele>
<time>2024-05-11T09:33:17Z</time>
</trkpt>
<trkpt lat="49.56768033094704" lon="9.362941738218067">
<ele>407</ele>
<time>2024-05-11T09:33:18Z</time>
</trkpt>
<trkpt lat="49.5677222404629" lon="9.36295791529119">
<ele>407</ele>
<time>2024-05-11T09:33:19Z</time>
</trkpt>
<trkpt lat="49.56776423379779" lon="9.362975098192692">
<ele>407</ele>
<time>2024-05-11T09:33:20Z</time>
</trkpt>
<trkpt lat="49.56780237145722" lon="9.362991275265813">
<ele>407</ele>
<time>2024-05-11T09:33:21Z</time>
</trkpt>
<trkpt lat="49.56784436479211" lon="9.363006530329583">
<ele>407</ele>
<time>2024-05-11T09:33:22Z</time>
</trkpt>
<trkpt lat="49.567886274307966" lon="9.363021785393356">
<ele>407</ele>
<time>2024-05-11T09:33:23Z</time>
</trkpt>
<trkpt lat="49.56792449578643" lon="9.36303704045713">
<ele>407</ele>
<time>2024-05-11T09:33:24Z</time>
</trkpt>
<trkpt lat="49.567966405302286" lon="9.363050451502204">
<ele>407</ele>
<time>2024-05-11T09:33:25Z</time>
</trkpt>
<trkpt lat="49.568008398637176" lon="9.363061850890515">
<ele>407</ele>
<time>2024-05-11T09:33:26Z</time>
</trkpt>
<trkpt lat="49.568046536296606" lon="9.36307618394494">
<ele>407</ele>
<time>2024-05-11T09:33:27Z</time>
</trkpt>
<trkpt lat="49.568088529631495" lon="9.363093366846442">
<ele>407</ele>
<time>2024-05-11T09:33:28Z</time>
</trkpt>
<trkpt lat="49.568126667290926" lon="9.363109543919563">
<ele>407</ele>
<time>2024-05-11T09:33:29Z</time>
</trkpt>
<trkpt lat="49.56816480495036" lon="9.363124798983335">
<ele>407</ele>
<time>2024-05-11T09:33:30Z</time>
</trkpt>
<trkpt lat="49.568206714466214" lon="9.363140054047108">
<ele>407</ele>
<time>2024-05-11T09:33:31Z</time>
</trkpt>
<trkpt lat="49.568248707801104" lon="9.36315338127315">
<ele>406.8</ele>
<time>2024-05-11T09:33:32Z</time>
</trkpt>
<trkpt lat="49.56829070113599" lon="9.363166792318223">
<ele>406.8</ele>
<time>2024-05-11T09:33:33Z</time>
</trkpt>
<trkpt lat="49.56833646632731" lon="9.363178191706538">
<ele>406.8</ele>
<time>2024-05-11T09:33:34Z</time>
</trkpt>
<trkpt lat="49.56837837584317" lon="9.363191602751613">
<ele>406.8</ele>
<time>2024-05-11T09:33:35Z</time>
</trkpt>
<trkpt lat="49.56842036917806" lon="9.363203002139926">
<ele>406.8</ele>
<time>2024-05-11T09:33:36Z</time>
</trkpt>
<trkpt lat="49.568462362512946" lon="9.36321540735662">
<ele>406.8</ele>
<time>2024-05-11T09:33:37Z</time>
</trkpt>
<trkpt lat="49.5685042720288" lon="9.363229740411043">
<ele>406.6</ele>
<time>2024-05-11T09:33:38Z</time>
</trkpt>
<trkpt lat="49.56854626536369" lon="9.363243067637086">
<ele>406.6</ele>
<time>2024-05-11T09:33:39Z</time>
</trkpt>
<trkpt lat="49.56858440302312" lon="9.363258322700858">
<ele>406.6</ele>
<time>2024-05-11T09:33:40Z</time>
</trkpt>
<trkpt lat="49.568622540682554" lon="9.36327449977398">
<ele>406.4</ele>
<time>2024-05-11T09:33:41Z</time>
</trkpt>
<trkpt lat="49.56866453401744" lon="9.363289754837751">
<ele>406.4</ele>
<time>2024-05-11T09:33:42Z</time>
</trkpt>
<trkpt lat="49.56871029920876" lon="9.363309787586331">
<ele>406.4</ele>
<time>2024-05-11T09:33:43Z</time>
</trkpt>
<trkpt lat="49.56875220872462" lon="9.363323198631406">
<ele>406.4</ele>
<time>2024-05-11T09:33:44Z</time>
</trkpt>
<trkpt lat="49.56880182959139" lon="9.363340297713876">
<ele>406.4</ele>
<time>2024-05-11T09:33:45Z</time>
</trkpt>
<trkpt lat="49.56884759478271" lon="9.363358486443758">
<ele>406.4</ele>
<time>2024-05-11T09:33:46Z</time>
</trkpt>
<trkpt lat="49.568897215649486" lon="9.36337466351688">
<ele>406.4</ele>
<time>2024-05-11T09:33:47Z</time>
</trkpt>
<trkpt lat="49.5689429808408" lon="9.363387990742922">
<ele>406.4</ele>
<time>2024-05-11T09:33:48Z</time>
</trkpt>
<trkpt lat="49.56899260170758" lon="9.363396624103189">
<ele>406.4</ele>
<time>2024-05-11T09:33:49Z</time>
</trkpt>
<trkpt lat="49.56904213875532" lon="9.363408023491502">
<ele>406.6</ele>
<time>2024-05-11T09:33:50Z</time>
</trkpt>
<trkpt lat="49.56908790394664" lon="9.363420428708196">
<ele>406.6</ele>
<time>2024-05-11T09:33:51Z</time>
</trkpt>
<trkpt lat="49.569133752956986" lon="9.36343283392489">
<ele>406.6</ele>
<time>2024-05-11T09:33:52Z</time>
</trkpt>
<trkpt lat="49.5691795181483" lon="9.363446161150932">
<ele>406.4</ele>
<time>2024-05-11T09:33:53Z</time>
</trkpt>
<trkpt lat="49.56922528333962" lon="9.363461416214705">
<ele>406.4</ele>
<time>2024-05-11T09:33:54Z</time>
</trkpt>
<trkpt lat="49.569271048530936" lon="9.36347289942205">
<ele>406.4</ele>
<time>2024-05-11T09:33:55Z</time>
</trkpt>
<trkpt lat="49.56931681372225" lon="9.363486226648092">
<ele>406.4</ele>
<time>2024-05-11T09:33:56Z</time>
</trkpt>
<trkpt lat="49.56935880705714" lon="9.363498631864786">
<ele>406.4</ele>
<time>2024-05-11T09:33:57Z</time>
</trkpt>
<trkpt lat="49.56940457224846" lon="9.36351296491921">
<ele>406.2</ele>
<time>2024-05-11T09:33:58Z</time>
</trkpt>
<trkpt lat="49.569450337439775" lon="9.363528219982982">
<ele>406.2</ele>
<time>2024-05-11T09:33:59Z</time>
</trkpt>
<trkpt lat="49.56949995830655" lon="9.363541547209024">
<ele>406</ele>
<time>2024-05-11T09:34:00Z</time>
</trkpt>
<trkpt lat="49.569549495354295" lon="9.363552024587989">
<ele>406</ele>
<time>2024-05-11T09:34:01Z</time>
</trkpt>
<trkpt lat="49.56959911622107" lon="9.363559652119877">
<ele>405.8</ele>
<time>2024-05-11T09:34:02Z</time>
</trkpt>
<trkpt lat="49.569648737087846" lon="9.363570213317873">
<ele>405.6</ele>
<time>2024-05-11T09:34:03Z</time>
</trkpt>
<trkpt lat="49.56970212981105" lon="9.363581612706184">
<ele>405.6</ele>
<time>2024-05-11T09:34:04Z</time>
</trkpt>
<trkpt lat="49.56975552253425" lon="9.363594939932227">
<ele>405.4</ele>
<time>2024-05-11T09:34:05Z</time>
</trkpt>
<trkpt lat="49.569808915257454" lon="9.363606423139572">
<ele>405.4</ele>
<time>2024-05-11T09:34:06Z</time>
</trkpt>
<trkpt lat="49.56985853612423" lon="9.363616900518537">
<ele>405.2</ele>
<time>2024-05-11T09:34:07Z</time>
</trkpt>
<trkpt lat="49.56991570070386" lon="9.363621678203344">
<ele>405</ele>
<time>2024-05-11T09:34:08Z</time>
</trkpt>
<trkpt lat="49.56997294910252" lon="9.363626455888152">
<ele>405</ele>
<time>2024-05-11T09:34:09Z</time>
</trkpt>
<trkpt lat="49.57003019750118" lon="9.36363022774458">
<ele>405</ele>
<time>2024-05-11T09:34:10Z</time>
</trkpt>
<trkpt lat="49.570083590224385" lon="9.363633077591658">
<ele>405</ele>
<time>2024-05-11T09:34:11Z</time>
</trkpt>
<trkpt lat="49.57013698294759" lon="9.363637855276464">
<ele>405</ele>
<time>2024-05-11T09:34:12Z</time>
</trkpt>
<trkpt lat="49.57019423134625" lon="9.363641710951924">
<ele>405</ele>
<time>2024-05-11T09:34:13Z</time>
</trkpt>
<trkpt lat="49.57024762406945" lon="9.363646488636732">
<ele>405</ele>
<time>2024-05-11T09:34:14Z</time>
</trkpt>
<trkpt lat="49.570301016792655" lon="9.36365026049316">
<ele>405</ele>
<time>2024-05-11T09:34:15Z</time>
</trkpt>
<trkpt lat="49.57035440951586" lon="9.363653110340238">
<ele>405</ele>
<time>2024-05-11T09:34:16Z</time>
</trkpt>
<trkpt lat="49.57040780223906" lon="9.363657888025044">
<ele>405</ele>
<time>2024-05-11T09:34:17Z</time>
</trkpt>
<trkpt lat="49.57046505063772" lon="9.363664593547584">
<ele>405</ele>
<time>2024-05-11T09:34:18Z</time>
</trkpt>
<trkpt lat="49.570518443360925" lon="9.36367129907012">
<ele>405.2</ele>
<time>2024-05-11T09:34:19Z</time>
</trkpt>
<trkpt lat="49.57057183608413" lon="9.363675070926549">
<ele>405.2</ele>
<time>2024-05-11T09:34:20Z</time>
</trkpt>
<trkpt lat="49.57062908448279" lon="9.363677920773624">
<ele>405.2</ele>
<time>2024-05-11T09:34:21Z</time>
</trkpt>
<trkpt lat="49.57068633288145" lon="9.363683620467782">
<ele>405.2</ele>
<time>2024-05-11T09:34:22Z</time>
</trkpt>
<trkpt lat="49.57073972560465" lon="9.363686554133892">
<ele>405.2</ele>
<time>2024-05-11T09:34:23Z</time>
</trkpt>
<trkpt lat="49.570793118327856" lon="9.36369032599032">
<ele>405.4</ele>
<time>2024-05-11T09:34:24Z</time>
</trkpt>
<trkpt lat="49.57084651105106" lon="9.363693175837398">
<ele>405.4</ele>
<time>2024-05-11T09:34:25Z</time>
</trkpt>
<trkpt lat="49.570896131917834" lon="9.363695103675129">
<ele>405.6</ele>
<time>2024-05-11T09:34:26Z</time>
</trkpt>
<trkpt lat="49.57094952464104" lon="9.363697031512856">
<ele>405.4</ele>
<time>2024-05-11T09:34:27Z</time>
</trkpt>
<trkpt lat="49.57099914550781" lon="9.363699881359937">
<ele>405.4</ele>
<time>2024-05-11T09:34:28Z</time>
</trkpt>
<trkpt lat="49.57104868255555" lon="9.363706586882472">
<ele>405.6</ele>
<time>2024-05-11T09:34:29Z</time>
</trkpt>
<trkpt lat="49.57109830342233" lon="9.363711280748248">
<ele>405.6</ele>
<time>2024-05-11T09:34:30Z</time>
</trkpt>
<trkpt lat="49.57114406861365" lon="9.363717064261436">
<ele>405.6</ele>
<time>2024-05-11T09:34:31Z</time>
</trkpt>
<trkpt lat="49.571189833804965" lon="9.363719914108517">
<ele>405.6</ele>
<time>2024-05-11T09:34:32Z</time>
</trkpt>
<trkpt lat="49.57123559899628" lon="9.363723685964942">
<ele>405.8</ele>
<time>2024-05-11T09:34:33Z</time>
</trkpt>
<trkpt lat="49.5712813641876" lon="9.36372846364975">
<ele>405.8</ele>
<time>2024-05-11T09:34:34Z</time>
</trkpt>
<trkpt lat="49.571330985054374" lon="9.36373039148748">
<ele>406</ele>
<time>2024-05-11T09:34:35Z</time>
</trkpt>
<trkpt lat="49.57137675024569" lon="9.363731313496828">
<ele>406</ele>
<time>2024-05-11T09:34:36Z</time>
</trkpt>
<trkpt lat="49.57142251543701" lon="9.363735169172289">
<ele>406.2</ele>
<time>2024-05-11T09:34:37Z</time>
</trkpt>
<trkpt lat="49.57146828062832" lon="9.363738019019364">
<ele>406.4</ele>
<time>2024-05-11T09:34:38Z</time>
</trkpt>
<trkpt lat="49.57151027396321" lon="9.363739946857097">
<ele>406.4</ele>
<time>2024-05-11T09:34:39Z</time>
</trkpt>
<trkpt lat="49.57155603915453" lon="9.363739946857097">
<ele>406.6</ele>
<time>2024-05-11T09:34:40Z</time>
</trkpt>
<trkpt lat="49.571601804345846" lon="9.363743718713522">
<ele>406.6</ele>
<time>2024-05-11T09:34:41Z</time>
</trkpt>
<trkpt lat="49.571643797680736" lon="9.363744724541904">
<ele>406.8</ele>
<time>2024-05-11T09:34:42Z</time>
</trkpt>
<trkpt lat="49.571685791015625" lon="9.363744724541904">
<ele>406.8</ele>
<time>2024-05-11T09:34:43Z</time>
</trkpt>
<trkpt lat="49.57172770053148" lon="9.36374849639833">
<ele>406.8</ele>
<time>2024-05-11T09:34:44Z</time>
</trkpt>
<trkpt lat="49.57176969386637" lon="9.363753274083138">
<ele>407</ele>
<time>2024-05-11T09:34:45Z</time>
</trkpt>
<trkpt lat="49.57181160338223" lon="9.363758051767944">
<ele>407</ele>
<time>2024-05-11T09:34:46Z</time>
</trkpt>
<trkpt lat="49.57185745239258" lon="9.363763751462102">
<ele>407</ele>
<time>2024-05-11T09:34:48Z</time>
</trkpt>
<trkpt lat="49.57194512709975" lon="9.36376945115626">
<ele>407</ele>
<time>2024-05-11T09:34:49Z</time>
</trkpt>
<trkpt lat="49.57198712043464" lon="9.36376945115626">
<ele>407</ele>
<time>2024-05-11T09:34:50Z</time>
</trkpt>
<trkpt lat="49.57202911376953" lon="9.363771378993988">
<ele>407</ele>
<time>2024-05-11T09:34:51Z</time>
</trkpt>
<trkpt lat="49.57207487896085" lon="9.363775234669449">
<ele>407</ele>
<time>2024-05-11T09:34:52Z</time>
</trkpt>
<trkpt lat="49.572116788476706" lon="9.363778084516523">
<ele>407.2</ele>
<time>2024-05-11T09:34:53Z</time>
</trkpt>
<trkpt lat="49.572158781811595" lon="9.363782862201331">
<ele>407.2</ele>
<time>2024-05-11T09:34:54Z</time>
</trkpt>
<trkpt lat="49.57220454700291" lon="9.36378663405776">
<ele>407.4</ele>
<time>2024-05-11T09:34:55Z</time>
</trkpt>
<trkpt lat="49.5722465403378" lon="9.36378663405776">
<ele>407.6</ele>
<time>2024-05-11T09:34:56Z</time>
</trkpt>
<trkpt lat="49.57228844985366" lon="9.36378663405776">
<ele>407.6</ele>
<time>2024-05-11T09:34:57Z</time>
</trkpt>
<trkpt lat="49.57232658751309" lon="9.36378663405776">
<ele>407.8</ele>
<time>2024-05-11T09:34:58Z</time>
</trkpt>
<trkpt lat="49.57236472517252" lon="9.36378856189549">
<ele>408</ele>
<time>2024-05-11T09:34:59Z</time>
</trkpt>
<trkpt lat="49.57240294665098" lon="9.363791411742568">
<ele>408</ele>
<time>2024-05-11T09:35:00Z</time>
</trkpt>
<trkpt lat="49.57244108431041" lon="9.363791411742568">
<ele>408.2</ele>
<time>2024-05-11T09:35:01Z</time>
</trkpt>
<trkpt lat="49.57247922196984" lon="9.363793339580296">
<ele>408.2</ele>
<time>2024-05-11T09:35:02Z</time>
</trkpt>
<trkpt lat="49.57251735962927" lon="9.363798117265103">
<ele>408.4</ele>
<time>2024-05-11T09:35:03Z</time>
</trkpt>
<trkpt lat="49.572555497288704" lon="9.363801889121532">
<ele>408.4</ele>
<time>2024-05-11T09:35:04Z</time>
</trkpt>
<trkpt lat="49.572593634948134" lon="9.36380473896861">
<ele>408.6</ele>
<time>2024-05-11T09:35:05Z</time>
</trkpt>
<trkpt lat="49.572635628283024" lon="9.36380473896861">
<ele>408.6</ele>
<time>2024-05-11T09:35:06Z</time>
</trkpt>
<trkpt lat="49.572673765942454" lon="9.36380666680634">
<ele>408.8</ele>
<time>2024-05-11T09:35:07Z</time>
</trkpt>
<trkpt lat="49.572711903601885" lon="9.36380859464407">
<ele>409</ele>
<time>2024-05-11T09:35:08Z</time>
</trkpt>
<trkpt lat="49.572753896936774" lon="9.363811444491148">
<ele>409.2</ele>
<time>2024-05-11T09:35:09Z</time>
</trkpt>
<trkpt lat="49.57279580645263" lon="9.363815300166609">
<ele>409.4</ele>
<time>2024-05-11T09:35:10Z</time>
</trkpt>
<trkpt lat="49.57283779978752" lon="9.363816222175956">
<ele>409.4</ele>
<time>2024-05-11T09:35:11Z</time>
</trkpt>
<trkpt lat="49.57287593744695" lon="9.363818150013683">
<ele>409.4</ele>
<time>2024-05-11T09:35:12Z</time>
</trkpt>
<trkpt lat="49.57291407510638" lon="9.363819994032385">
<ele>409.6</ele>
<time>2024-05-11T09:35:13Z</time>
</trkpt>
<trkpt lat="49.572948440909386" lon="9.363821921870112">
<ele>409.8</ele>
<time>2024-05-11T09:35:14Z</time>
</trkpt>
<trkpt lat="49.57297895103693" lon="9.36382669955492">
<ele>409.8</ele>
<time>2024-05-11T09:35:15Z</time>
</trkpt>
<trkpt lat="49.573009461164474" lon="9.363829549402">
<ele>409.8</ele>
<time>2024-05-11T09:35:16Z</time>
</trkpt>
<trkpt lat="49.57303997129202" lon="9.363838182762263">
<ele>409.8</ele>
<time>2024-05-11T09:35:17Z</time>
</trkpt>
<trkpt lat="49.573066709563136" lon="9.36384480446577">
<ele>409.8</ele>
<time>2024-05-11T09:35:18Z</time>
</trkpt>
<trkpt lat="49.57310099154711" lon="9.363851509988308">
<ele>409.8</ele>
<time>2024-05-11T09:35:19Z</time>
</trkpt>
<trkpt lat="49.57313150167465" lon="9.363860059529545">
<ele>409.8</ele>
<time>2024-05-11T09:35:20Z</time>
</trkpt>
<trkpt lat="49.57316963933408" lon="9.36386869288981">
<ele>409.8</ele>
<time>2024-05-11T09:35:21Z</time>
</trkpt>
<trkpt lat="49.573204005137086" lon="9.363876320421696">
<ele>409.8</ele>
<time>2024-05-11T09:35:22Z</time>
</trkpt>
<trkpt lat="49.57323451526463" lon="9.36388679780066">
<ele>409.8</ele>
<time>2024-05-11T09:35:23Z</time>
</trkpt>
<trkpt lat="49.57326125353575" lon="9.363895347341897">
<ele>409.8</ele>
<time>2024-05-11T09:35:24Z</time>
</trkpt>
<trkpt lat="49.57328028045595" lon="9.36390297487378">
<ele>409.6</ele>
<time>2024-05-11T09:35:25Z</time>
</trkpt>
<trkpt lat="49.573303163051605" lon="9.363915380090477">
<ele>409.6</ele>
<time>2024-05-11T09:35:26Z</time>
</trkpt>
<trkpt lat="49.57332227379083" lon="9.36392493546009">
<ele>409.4</ele>
<time>2024-05-11T09:35:27Z</time>
</trkpt>
<trkpt lat="49.57334130071104" lon="9.363935412839057">
<ele>409.2</ele>
<time>2024-05-11T09:35:28Z</time>
</trkpt>
<trkpt lat="49.57336041145027" lon="9.36394496820867">
<ele>409</ele>
<time>2024-05-11T09:35:29Z</time>
</trkpt>
<trkpt lat="49.573379438370466" lon="9.363953517749906">
<ele>409</ele>
<time>2024-05-11T09:35:30Z</time>
</trkpt>
<trkpt lat="49.57339469343424" lon="9.36396307311952">
<ele>408.8</ele>
<time>2024-05-11T09:35:31Z</time>
</trkpt>
<trkpt lat="49.57341003231704" lon="9.363971706479788">
<ele>408.8</ele>
<time>2024-05-11T09:35:32Z</time>
</trkpt>
<trkpt lat="49.57342905923724" lon="9.363981178030372">
<ele>408.6</ele>
<time>2024-05-11T09:35:33Z</time>
</trkpt>
<trkpt lat="49.57344816997647" lon="9.363989811390638">
<ele>408.4</ele>
<time>2024-05-11T09:35:34Z</time>
</trkpt>
<trkpt lat="49.573463425040245" lon="9.364000288769605">
<ele>408.2</ele>
<time>2024-05-11T09:35:35Z</time>
</trkpt>
<trkpt lat="49.57347868010402" lon="9.364011688157916">
<ele>408.2</ele>
<time>2024-05-11T09:35:36Z</time>
</trkpt>
<trkpt lat="49.57349770702422" lon="9.36402317136526">
<ele>408</ele>
<time>2024-05-11T09:35:37Z</time>
</trkpt>
<trkpt lat="49.57351296208799" lon="9.364031720906496">
<ele>407.8</ele>
<time>2024-05-11T09:35:38Z</time>
</trkpt>
<trkpt lat="49.57352821715176" lon="9.364040354266765">
<ele>407.6</ele>
<time>2024-05-11T09:35:39Z</time>
</trkpt>
<trkpt lat="49.573539700359106" lon="9.364046975970268">
<ele>407.6</ele>
<time>2024-05-11T09:35:40Z</time>
</trkpt>
<trkpt lat="49.57355495542288" lon="9.364053681492804">
<ele>407.4</ele>
<time>2024-05-11T09:35:41Z</time>
</trkpt>
<trkpt lat="49.57356635481119" lon="9.364056531339884">
<ele>407.4</ele>
<time>2024-05-11T09:35:42Z</time>
</trkpt>
<trkpt lat="49.57357406616211" lon="9.364060387015344">
<ele>407.2</ele>
<time>2024-05-11T09:35:43Z</time>
</trkpt>
<trkpt lat="49.57357406616211" lon="9.364061309024692">
<ele>407.2</ele>
<time>2024-05-11T09:35:44Z</time>
</trkpt>
<trkpt lat="49.57357406616211" lon="9.36406323686242">
<ele>407.2</ele>
<time>2024-05-11T09:35:56Z</time>
</trkpt>
<trkpt lat="49.57357021048665" lon="9.36406323686242">
<ele>407</ele>
<time>2024-05-11T09:35:58Z</time>
</trkpt>
<trkpt lat="49.57357021048665" lon="9.36406516470015">
<ele>407</ele>
<time>2024-05-11T09:35:59Z</time>
</trkpt>
<trkpt lat="49.57357783801854" lon="9.364069858565928">
<ele>407</ele>
<time>2024-05-11T09:36:01Z</time>
</trkpt>
<trkpt lat="49.57358546555042" lon="9.364071786403656">
<ele>407</ele>
<time>2024-05-11T09:36:02Z</time>
</trkpt>
<trkpt lat="49.57359694875777" lon="9.364076564088464">
<ele>407</ele>
<time>2024-05-11T09:36:03Z</time>
</trkpt>
<trkpt lat="49.57360834814608" lon="9.364083269611">
<ele>407</ele>
<time>2024-05-11T09:36:04Z</time>
</trkpt>
<trkpt lat="49.57362745888531" lon="9.364093746989964">
<ele>406.8</ele>
<time>2024-05-11T09:36:05Z</time>
</trkpt>
<trkpt lat="49.57364648580551" lon="9.364101374521852">
<ele>406.8</ele>
<time>2024-05-11T09:36:06Z</time>
</trkpt>
<trkpt lat="49.57366559654474" lon="9.364109924063088">
<ele>406.8</ele>
<time>2024-05-11T09:36:07Z</time>
</trkpt>
<trkpt lat="49.57368462346494" lon="9.364121407270432">
<ele>406.8</ele>
<time>2024-05-11T09:36:08Z</time>
</trkpt>
<trkpt lat="49.57370373420417" lon="9.364132806658745">
<ele>407</ele>
<time>2024-05-11T09:36:09Z</time>
</trkpt>
<trkpt lat="49.57372661679983" lon="9.36414521187544">
<ele>406.8</ele>
<time>2024-05-11T09:36:10Z</time>
</trkpt>
<trkpt lat="49.57375335507095" lon="9.364158622920511">
<ele>406.8</ele>
<time>2024-05-11T09:36:11Z</time>
</trkpt>
<trkpt lat="49.57378386519849" lon="9.364171950146556">
<ele>406.6</ele>
<time>2024-05-11T09:36:12Z</time>
</trkpt>
<trkpt lat="49.57380674779415" lon="9.3641852773726">
<ele>406.6</ele>
<time>2024-05-11T09:36:13Z</time>
</trkpt>
<trkpt lat="49.57383340224624" lon="9.36419860459864">
<ele>406.4</ele>
<time>2024-05-11T09:36:14Z</time>
</trkpt>
<trkpt lat="49.573860140517354" lon="9.364212015643716">
<ele>406.2</ele>
<time>2024-05-11T09:36:15Z</time>
</trkpt>
<trkpt lat="49.57388302311301" lon="9.364228192716835">
<ele>406.2</ele>
<time>2024-05-11T09:36:16Z</time>
</trkpt>
<trkpt lat="49.57390590570867" lon="9.36424344778061">
<ele>406</ele>
<time>2024-05-11T09:36:17Z</time>
</trkpt>
<trkpt lat="49.57392878830433" lon="9.36425870284438">
<ele>405.8</ele>
<time>2024-05-11T09:36:18Z</time>
</trkpt>
<trkpt lat="49.57395167089999" lon="9.364268258213997">
<ele>405.8</ele>
<time>2024-05-11T09:36:19Z</time>
</trkpt>
<trkpt lat="49.573974553495646" lon="9.36427873559296">
<ele>405.8</ele>
<time>2024-05-11T09:36:20Z</time>
</trkpt>
<trkpt lat="49.57399366423488" lon="9.364286363124847">
<ele>405.8</ele>
<time>2024-05-11T09:36:21Z</time>
</trkpt>
<trkpt lat="49.574016546830535" lon="9.364296840503812">
<ele>405.6</ele>
<time>2024-05-11T09:36:22Z</time>
</trkpt>
<trkpt lat="49.574035573750734" lon="9.364303546026347">
<ele>405.6</ele>
<time>2024-05-11T09:36:23Z</time>
</trkpt>
<trkpt lat="49.57405845634639" lon="9.364313101395965">
<ele>405.6</ele>
<time>2024-05-11T09:36:24Z</time>
</trkpt>
<trkpt lat="49.57408519461751" lon="9.364324500784278">
<ele>405.4</ele>
<time>2024-05-11T09:36:25Z</time>
</trkpt>
<trkpt lat="49.574115704745054" lon="9.364337911829352">
<ele>405.4</ele>
<time>2024-05-11T09:36:26Z</time>
</trkpt>
<trkpt lat="49.57414244301617" lon="9.364353166893125">
<ele>405.2</ele>
<time>2024-05-11T09:36:27Z</time>
</trkpt>
<trkpt lat="49.57417295314371" lon="9.364366494119167">
<ele>405.2</ele>
<time>2024-05-11T09:36:28Z</time>
</trkpt>
<trkpt lat="49.57420346327126" lon="9.364383677020667">
<ele>405</ele>
<time>2024-05-11T09:36:29Z</time>
</trkpt>
<trkpt lat="49.574230117723346" lon="9.36439792625606">
<ele>405</ele>
<time>2024-05-11T09:36:30Z</time>
</trkpt>
<trkpt lat="49.57426448352635" lon="9.364415109157562">
<ele>405</ele>
<time>2024-05-11T09:36:31Z</time>
</trkpt>
<trkpt lat="49.57429499365389" lon="9.364430364221334">
<ele>405</ele>
<time>2024-05-11T09:36:32Z</time>
</trkpt>
<trkpt lat="49.57432550378144" lon="9.364444697275758">
<ele>405</ele>
<time>2024-05-11T09:36:33Z</time>
</trkpt>
<trkpt lat="49.57435601390898" lon="9.36445995233953">
<ele>405</ele>
<time>2024-05-11T09:36:34Z</time>
</trkpt>
<trkpt lat="49.57438652403653" lon="9.364471435546877">
<ele>405</ele>
<time>2024-05-11T09:36:35Z</time>
</trkpt>
<trkpt lat="49.57441326230765" lon="9.364482834935188">
<ele>405</ele>
<time>2024-05-11T09:36:36Z</time>
</trkpt>
<trkpt lat="49.57444377243519" lon="9.36449808999896">
<ele>405.2</ele>
<time>2024-05-11T09:36:37Z</time>
</trkpt>
<trkpt lat="49.57447428256273" lon="9.364515272900462">
<ele>405.2</ele>
<time>2024-05-11T09:36:38Z</time>
</trkpt>
<trkpt lat="49.57450479269028" lon="9.364531449973583">
<ele>405.2</ele>
<time>2024-05-11T09:36:39Z</time>
</trkpt>
<trkpt lat="49.57453915849328" lon="9.364548632875085">
<ele>405.4</ele>
<time>2024-05-11T09:36:40Z</time>
</trkpt>
<trkpt lat="49.574569668620825" lon="9.364564893767238">
<ele>405.4</ele>
<time>2024-05-11T09:36:41Z</time>
</trkpt>
<trkpt lat="49.57459632307291" lon="9.364584842696786">
<ele>405.4</ele>
<time>2024-05-11T09:36:42Z</time>
</trkpt>
<trkpt lat="49.57462306134403" lon="9.364611580967903">
<ele>405.4</ele>
<time>2024-05-11T09:36:43Z</time>
</trkpt>
<trkpt lat="49.57464217208326" lon="9.364651646465065">
<ele>405.4</ele>
<time>2024-05-11T09:36:44Z</time>
</trkpt>
<trkpt lat="49.57465357147157" lon="9.36470126733184">
<ele>405.4</ele>
<time>2024-05-11T09:36:45Z</time>
</trkpt>
<trkpt lat="49.57465742714703" lon="9.364758431911469">
<ele>405.4</ele>
<time>2024-05-11T09:36:46Z</time>
</trkpt>
<trkpt lat="49.57465742714703" lon="9.364820457994938">
<ele>405.2</ele>
<time>2024-05-11T09:36:47Z</time>
</trkpt>
<trkpt lat="49.574649799615145" lon="9.364886255934834">
<ele>405.2</ele>
<time>2024-05-11T09:36:48Z</time>
</trkpt>
<trkpt lat="49.574645943939686" lon="9.36495490372181">
<ele>405.2</ele>
<time>2024-05-11T09:36:49Z</time>
</trkpt>
<trkpt lat="49.5746383164078" lon="9.365024557337165">
<ele>405.2</ele>
<time>2024-05-11T09:36:50Z</time>
</trkpt>
<trkpt lat="49.574630688875914" lon="9.36509320512414">
<ele>405</ele>
<time>2024-05-11T09:36:51Z</time>
</trkpt>
<trkpt lat="49.57462306134403" lon="9.365157075226309">
<ele>405</ele>
<time>2024-05-11T09:36:52Z</time>
</trkpt>
<trkpt lat="49.574611661955714" lon="9.365220023319123">
<ele>405</ele>
<time>2024-05-11T09:36:53Z</time>
</trkpt>
<trkpt lat="49.57460017874837" lon="9.365282971411943">
<ele>405</ele>
<time>2024-05-11T09:36:54Z</time>
</trkpt>
<trkpt lat="49.57459255121648" lon="9.36534876935184">
<ele>405</ele>
<time>2024-05-11T09:36:55Z</time>
</trkpt>
<trkpt lat="49.5745849236846" lon="9.365411717444658">
<ele>405</ele>
<time>2024-05-11T09:36:56Z</time>
</trkpt>
<trkpt lat="49.57457344047725" lon="9.36546511016786">
<ele>404.8</ele>
<time>2024-05-11T09:36:57Z</time>
</trkpt>
<trkpt lat="49.574550557881594" lon="9.365514731034636">
<ele>404.8</ele>
<time>2024-05-11T09:36:58Z</time>
</trkpt>
<trkpt lat="49.574527675285935" lon="9.365563346073031">
<ele>404.6</ele>
<time>2024-05-11T09:36:59Z</time>
</trkpt>
<trkpt lat="49.57450102083385" lon="9.365610117092729">
<ele>404.4</ele>
<time>2024-05-11T09:37:00Z</time>
</trkpt>
<trkpt lat="49.574470510706306" lon="9.365652026608586">
<ele>404.4</ele>
<time>2024-05-11T09:37:01Z</time>
</trkpt>
<trkpt lat="49.5744361449033" lon="9.365681614726782">
<ele>404.2</ele>
<time>2024-05-11T09:37:02Z</time>
</trkpt>
<trkpt lat="49.57439800724387" lon="9.365705419331787">
<ele>404.2</ele>
<time>2024-05-11T09:37:03Z</time>
</trkpt>
<trkpt lat="49.57435986958444" lon="9.365730229765177">
<ele>404</ele>
<time>2024-05-11T09:37:04Z</time>
</trkpt>
<trkpt lat="49.57432550378144" lon="9.36576459556818">
<ele>404</ele>
<time>2024-05-11T09:37:05Z</time>
</trkpt>
<trkpt lat="49.57429499365389" lon="9.365815138444304">
<ele>404</ele>
<time>2024-05-11T09:37:06Z</time>
</trkpt>
<trkpt lat="49.574275966733694" lon="9.365875236690044">
<ele>404</ele>
<time>2024-05-11T09:37:07Z</time>
</trkpt>
<trkpt lat="49.57426833920181" lon="9.36594195663929">
<ele>404</ele>
<time>2024-05-11T09:37:08Z</time>
</trkpt>
<trkpt lat="49.574272111058235" lon="9.366011610254644">
<ele>404</ele>
<time>2024-05-11T09:37:09Z</time>
</trkpt>
<trkpt lat="49.57428359426558" lon="9.36608025804162">
<ele>404.2</ele>
<time>2024-05-11T09:37:10Z</time>
</trkpt>
<trkpt lat="49.57430262118578" lon="9.366149827837944">
<ele>404.2</ele>
<time>2024-05-11T09:37:11Z</time>
</trkpt>
<trkpt lat="49.574314104393125" lon="9.366223253309728">
<ele>404.4</ele>
<time>2024-05-11T09:37:12Z</time>
</trkpt>
<trkpt lat="49.57432173192501" lon="9.36629676260054">
<ele>404.4</ele>
<time>2024-05-11T09:37:13Z</time>
</trkpt>
<trkpt lat="49.57431787624955" lon="9.366368260234594">
<ele>404.4</ele>
<time>2024-05-11T09:37:14Z</time>
</trkpt>
<trkpt lat="49.574310248717666" lon="9.366441685706375">
<ele>404.2</ele>
<time>2024-05-11T09:37:15Z</time>
</trkpt>
<trkpt lat="49.57429884932935" lon="9.36651511117816">
<ele>404.2</ele>
<time>2024-05-11T09:37:16Z</time>
</trkpt>
<trkpt lat="49.57428736612201" lon="9.366586608812211">
<ele>404.2</ele>
<time>2024-05-11T09:37:17Z</time>
</trkpt>
<trkpt lat="49.574272111058235" lon="9.36665341258049">
<ele>404</ele>
<time>2024-05-11T09:37:18Z</time>
</trkpt>
<trkpt lat="49.57426071166992" lon="9.366720132529736">
<ele>404</ele>
<time>2024-05-11T09:37:19Z</time>
</trkpt>
<trkpt lat="49.57424537278712" lon="9.366781152784824">
<ele>404</ele>
<time>2024-05-11T09:37:20Z</time>
</trkpt>
<trkpt lat="49.574233973398805" lon="9.366845106706023">
<ele>404</ele>
<time>2024-05-11T09:37:21Z</time>
</trkpt>
<trkpt lat="49.57421871833503" lon="9.366905204951763">
<ele>404</ele>
<time>2024-05-11T09:37:22Z</time>
</trkpt>
<trkpt lat="49.57420346327126" lon="9.366963375359774">
<ele>404</ele>
<time>2024-05-11T09:37:23Z</time>
</trkpt>
<trkpt lat="49.57418435253203" lon="9.367018695920706">
<ele>404.2</ele>
<time>2024-05-11T09:37:24Z</time>
</trkpt>
<trkpt lat="49.57416909746826" lon="9.367073010653256">
<ele>404.2</ele>
<time>2024-05-11T09:37:25Z</time>
</trkpt>
<trkpt lat="49.57415007054806" lon="9.36712640337646">
<ele>404.2</ele>
<time>2024-05-11T09:37:26Z</time>
</trkpt>
<trkpt lat="49.574134815484285" lon="9.367177952080963">
<ele>404.4</ele>
<time>2024-05-11T09:37:27Z</time>
</trkpt>
<trkpt lat="49.57411956042051" lon="9.367230338975787">
<ele>404.4</ele>
<time>2024-05-11T09:37:28Z</time>
</trkpt>
<trkpt lat="49.57410044968128" lon="9.367278032004831">
<ele>404.4</ele>
<time>2024-05-11T09:37:29Z</time>
</trkpt>
<trkpt lat="49.57408133894205" lon="9.36732673086226">
<ele>404.2</ele>
<time>2024-05-11T09:37:30Z</time>
</trkpt>
<trkpt lat="49.57406231202185" lon="9.367376267910004">
<ele>404.4</ele>
<time>2024-05-11T09:37:31Z</time>
</trkpt>
<trkpt lat="49.57404320128262" lon="9.367426810786128">
<ele>404.4</ele>
<time>2024-05-11T09:37:32Z</time>
</trkpt>
<trkpt lat="49.57402031868696" lon="9.367476431652904">
<ele>404.6</ele>
<time>2024-05-11T09:37:33Z</time>
</trkpt>
<trkpt lat="49.57400129176676" lon="9.367526974529028">
<ele>404.8</ele>
<time>2024-05-11T09:37:34Z</time>
</trkpt>
<trkpt lat="49.573978409171104" lon="9.367571817710996">
<ele>405</ele>
<time>2024-05-11T09:37:35Z</time>
</trkpt>
<trkpt lat="49.573955526575446" lon="9.36761850491166">
<ele>405.2</ele>
<time>2024-05-11T09:37:36Z</time>
</trkpt>
<trkpt lat="49.57393264397979" lon="9.367663348093629">
<ele>405.2</ele>
<time>2024-05-11T09:37:37Z</time>
</trkpt>
<trkpt lat="49.5739096775651" lon="9.367710035294294">
<ele>405.4</ele>
<time>2024-05-11T09:37:38Z</time>
</trkpt>
<trkpt lat="49.57388302311301" lon="9.367756806313992">
<ele>405.4</ele>
<time>2024-05-11T09:37:39Z</time>
</trkpt>
<trkpt lat="49.573860140517354" lon="9.367805421352386">
<ele>405.6</ele>
<time>2024-05-11T09:37:40Z</time>
</trkpt>
<trkpt lat="49.57383340224624" lon="9.367850264534354">
<ele>405.6</ele>
<time>2024-05-11T09:37:41Z</time>
</trkpt>
<trkpt lat="49.57380674779415" lon="9.367895107716322">
<ele>405.8</ele>
<time>2024-05-11T09:37:42Z</time>
</trkpt>
<trkpt lat="49.57378386519849" lon="9.367939867079258">
<ele>405.8</ele>
<time>2024-05-11T09:37:43Z</time>
</trkpt>
<trkpt lat="49.573760982602835" lon="9.367984710261226">
<ele>405.8</ele>
<time>2024-05-11T09:37:44Z</time>
</trkpt>
<trkpt lat="49.573738016188145" lon="9.368033409118652">
<ele>405.8</ele>
<time>2024-05-11T09:37:45Z</time>
</trkpt>
<trkpt lat="49.573715133592486" lon="9.368082946166396">
<ele>406</ele>
<time>2024-05-11T09:37:46Z</time>
</trkpt>
<trkpt lat="49.5736884791404" lon="9.36813541688025">
<ele>406</ele>
<time>2024-05-11T09:37:47Z</time>
</trkpt>
<trkpt lat="49.57366559654474" lon="9.368186881765723">
<ele>406</ele>
<time>2024-05-11T09:37:48Z</time>
</trkpt>
<trkpt lat="49.57364271394909" lon="9.368240274488926">
<ele>406.2</ele>
<time>2024-05-11T09:37:49Z</time>
</trkpt>
<trkpt lat="49.573619831353426" lon="9.368298528715968">
<ele>406.4</ele>
<time>2024-05-11T09:37:50Z</time>
</trkpt>
<trkpt lat="49.57359694875777" lon="9.368361392989756">
<ele>406.4</ele>
<time>2024-05-11T09:37:52Z</time>
</trkpt>
<trkpt lat="49.57356258295477" lon="9.368497766554356">
<ele>406.4</ele>
<time>2024-05-11T09:37:53Z</time>
</trkpt>
<trkpt lat="49.57354347221553" lon="9.368573119863868">
<ele>406.4</ele>
<time>2024-05-11T09:37:54Z</time>
</trkpt>
<trkpt lat="49.57353584468365" lon="9.36864847317338">
<ele>406.4</ele>
<time>2024-05-11T09:37:55Z</time>
</trkpt>
<trkpt lat="49.57352821715176" lon="9.36872474849224">
<ele>406.4</ele>
<time>2024-05-11T09:37:56Z</time>
</trkpt>
<trkpt lat="49.57352821715176" lon="9.368802951648831">
<ele>406.4</ele>
<time>2024-05-11T09:37:57Z</time>
</trkpt>
<trkpt lat="49.57352821715176" lon="9.368881154805422">
<ele>406.4</ele>
<time>2024-05-11T09:37:58Z</time>
</trkpt>
<trkpt lat="49.57353584468365" lon="9.368956508114934">
<ele>406.2</ele>
<time>2024-05-11T09:37:59Z</time>
</trkpt>
<trkpt lat="49.57354347221553" lon="9.369025155901909">
<ele>406.2</ele>
<time>2024-05-11T09:38:00Z</time>
</trkpt>
<trkpt lat="49.573558727279305" lon="9.36908625997603">
<ele>406</ele>
<time>2024-05-11T09:38:01Z</time>
</trkpt>
<trkpt lat="49.57357783801854" lon="9.369146274402738">
<ele>405.8</ele>
<time>2024-05-11T09:38:03Z</time>
</trkpt>
<trkpt lat="49.57361220382154" lon="9.369251215830444">
<ele>405.4</ele>
<time>2024-05-11T09:38:04Z</time>
</trkpt>
<trkpt lat="49.5736350864172" lon="9.36929790303111">
<ele>405.2</ele>
<time>2024-05-11T09:38:05Z</time>
</trkpt>
<trkpt lat="49.57365796901286" lon="9.36934375204146">
<ele>405</ele>
<time>2024-05-11T09:38:06Z</time>
</trkpt>
<trkpt lat="49.573680851608515" lon="9.369386667385696">
<ele>404.8</ele>
<time>2024-05-11T09:38:07Z</time>
</trkpt>
<trkpt lat="49.573699878528714" lon="9.369424805045128">
<ele>404.6</ele>
<time>2024-05-11T09:38:08Z</time>
</trkpt>
<trkpt lat="49.57372276112437" lon="9.369461936876178">
<ele>404.4</ele>
<time>2024-05-11T09:38:09Z</time>
</trkpt>
<trkpt lat="49.573738016188145" lon="9.36949823051691">
<ele>404</ele>
<time>2024-05-11T09:38:10Z</time>
</trkpt>
<trkpt lat="49.57375335507095" lon="9.369535446166992">
<ele>403.8</ele>
<time>2024-05-11T09:38:11Z</time>
</trkpt>
<trkpt lat="49.573760982602835" lon="9.369574505835772">
<ele>403.4</ele>
<time>2024-05-11T09:38:12Z</time>
</trkpt>
<trkpt lat="49.573760982602835" lon="9.369621276855469">
<ele>403.2</ele>
<time>2024-05-11T09:38:13Z</time>
</trkpt>
<trkpt lat="49.57375335507095" lon="9.369669891893864">
<ele>402.8</ele>
<time>2024-05-11T09:38:14Z</time>
</trkpt>
<trkpt lat="49.5737418718636" lon="9.369709957391024">
<ele>402.6</ele>
<time>2024-05-11T09:38:15Z</time>
</trkpt>
<trkpt lat="49.57372276112437" lon="9.369745245203376">
<ele>402.2</ele>
<time>2024-05-11T09:38:16Z</time>
</trkpt>
<trkpt lat="49.57370373420417" lon="9.369778605178">
<ele>402</ele>
<time>2024-05-11T09:38:17Z</time>
</trkpt>
<trkpt lat="49.57369225099683" lon="9.3698148149997">
<ele>401.6</ele>
<time>2024-05-11T09:38:18Z</time>
</trkpt>
<trkpt lat="49.57369225099683" lon="9.369861586019397">
<ele>401.4</ele>
<time>2024-05-11T09:38:19Z</time>
</trkpt>
<trkpt lat="49.5737075060606" lon="9.369921684265137">
<ele>401.2</ele>
<time>2024-05-11T09:38:20Z</time>
</trkpt>
<trkpt lat="49.57372661679983" lon="9.369984548538923">
<ele>401</ele>
<time>2024-05-11T09:38:21Z</time>
</trkpt>
<trkpt lat="49.57375335507095" lon="9.370048502460122">
<ele>401</ele>
<time>2024-05-11T09:38:22Z</time>
</trkpt>
<trkpt lat="49.57377623766661" lon="9.370115222409368">
<ele>400.8</ele>
<time>2024-05-11T09:38:23Z</time>
</trkpt>
<trkpt lat="49.57380289211869" lon="9.37018864788115">
<ele>400.8</ele>
<time>2024-05-11T09:38:24Z</time>
</trkpt>
<trkpt lat="49.57382963038981" lon="9.37026970088482">
<ele>400.8</ele>
<time>2024-05-11T09:38:25Z</time>
</trkpt>
<trkpt lat="49.57384865731001" lon="9.370360309258103">
<ele>400.6</ele>
<time>2024-05-11T09:38:26Z</time>
</trkpt>
<trkpt lat="49.57387153990567" lon="9.37044999562204">
<ele>400.6</ele>
<time>2024-05-11T09:38:27Z</time>
</trkpt>
<trkpt lat="49.5738906506449" lon="9.370532976463435">
<ele>400.6</ele>
<time>2024-05-11T09:38:28Z</time>
</trkpt>
<trkpt lat="49.57391353324056" lon="9.370610173791649">
<ele>400.4</ele>
<time>2024-05-11T09:38:29Z</time>
</trkpt>
<trkpt lat="49.573936415836215" lon="9.370681755244732">
<ele>400.4</ele>
<time>2024-05-11T09:38:30Z</time>
</trkpt>
<trkpt lat="49.57395167089999" lon="9.370750403031709">
<ele>400.2</ele>
<time>2024-05-11T09:38:31Z</time>
</trkpt>
<trkpt lat="49.573974553495646" lon="9.370818128809333">
<ele>400</ele>
<time>2024-05-11T09:38:32Z</time>
</trkpt>
<trkpt lat="49.57400129176676" lon="9.370888704434035">
<ele>400</ele>
<time>2024-05-11T09:38:33Z</time>
</trkpt>
<trkpt lat="49.57403180189431" lon="9.37096212990582">
<ele>399.8</ele>
<time>2024-05-11T09:38:34Z</time>
</trkpt>
<trkpt lat="49.57405845634639" lon="9.37103840522468">
<ele>399.8</ele>
<time>2024-05-11T09:38:35Z</time>
</trkpt>
<trkpt lat="49.57408133894205" lon="9.371118536219">
<ele>399.8</ele>
<time>2024-05-11T09:38:36Z</time>
</trkpt>
<trkpt lat="49.57410807721317" lon="9.371198583394287">
<ele>400</ele>
<time>2024-05-11T09:38:37Z</time>
</trkpt>
<trkpt lat="49.574134815484285" lon="9.371278714388607">
<ele>400</ele>
<time>2024-05-11T09:38:38Z</time>
</trkpt>
<trkpt lat="49.57416532561183" lon="9.371361695230007">
<ele>399.8</ele>
<time>2024-05-11T09:38:39Z</time>
</trkpt>
<trkpt lat="49.574191980063915" lon="9.371443670243025">
<ele>399.8</ele>
<time>2024-05-11T09:38:40Z</time>
</trkpt>
<trkpt lat="49.57421871833503" lon="9.371524807065724">
<ele>399.6</ele>
<time>2024-05-11T09:38:41Z</time>
</trkpt>
<trkpt lat="49.57424160093069" lon="9.371604854241014">
<ele>399.6</ele>
<time>2024-05-11T09:38:42Z</time>
</trkpt>
<trkpt lat="49.57426833920181" lon="9.371683057397604">
<ele>399.4</ele>
<time>2024-05-11T09:38:43Z</time>
</trkpt>
<trkpt lat="49.574291221797466" lon="9.371761260554194">
<ele>399.4</ele>
<time>2024-05-11T09:38:44Z</time>
</trkpt>
<trkpt lat="49.57431787624955" lon="9.371839463710783">
<ele>399.4</ele>
<time>2024-05-11T09:38:45Z</time>
</trkpt>
<trkpt lat="49.57434075884521" lon="9.371918672695756">
<ele>399.4</ele>
<time>2024-05-11T09:38:46Z</time>
</trkpt>
<trkpt lat="49.57436364144087" lon="9.371999725699425">
<ele>399.4</ele>
<time>2024-05-11T09:38:47Z</time>
</trkpt>
<trkpt lat="49.57438652403653" lon="9.372081700712442">
<ele>399.4</ele>
<time>2024-05-11T09:38:48Z</time>
</trkpt>
<trkpt lat="49.574409406632185" lon="9.37216468155384">
<ele>399.6</ele>
<time>2024-05-11T09:38:49Z</time>
</trkpt>
<trkpt lat="49.574432373046875" lon="9.372249590232968">
<ele>399.4</ele>
<time>2024-05-11T09:38:50Z</time>
</trkpt>
<trkpt lat="49.57445525564253" lon="9.372333493083715">
<ele>399.4</ele>
<time>2024-05-11T09:38:51Z</time>
</trkpt>
<trkpt lat="49.57448191009462" lon="9.372418401762843">
<ele>399.2</ele>
<time>2024-05-11T09:38:52Z</time>
</trkpt>
<trkpt lat="49.57450479269028" lon="9.37250322662294">
<ele>399.2</ele>
<time>2024-05-11T09:38:53Z</time>
</trkpt>
<trkpt lat="49.57455818541348" lon="9.372672960162165">
<ele>399</ele>
<time>2024-05-11T09:38:55Z</time>
</trkpt>
<trkpt lat="49.5745849236846" lon="9.37275786884129">
<ele>398.8</ele>
<time>2024-05-11T09:38:56Z</time>
</trkpt>
<trkpt lat="49.574611661955714" lon="9.372841771692038">
<ele>398.6</ele>
<time>2024-05-11T09:38:57Z</time>
</trkpt>
<trkpt lat="49.5746383164078" lon="9.372921902686356">
<ele>398.6</ele>
<time>2024-05-11T09:38:58Z</time>
</trkpt>
<trkpt lat="49.57466119900346" lon="9.37299817800522">
<ele>398.4</ele>
<time>2024-05-11T09:38:59Z</time>
</trkpt>
<trkpt lat="49.57468408159912" lon="9.373071603477">
<ele>398.2</ele>
<time>2024-05-11T09:39:00Z</time>
</trkpt>
<trkpt lat="49.574706964194775" lon="9.373146956786512">
<ele>398</ele>
<time>2024-05-11T09:39:01Z</time>
</trkpt>
<trkpt lat="49.57472984679043" lon="9.373220382258296">
<ele>397.8</ele>
<time>2024-05-11T09:39:02Z</time>
</trkpt>
<trkpt lat="49.57475658506155" lon="9.37329196371138">
<ele>397.6</ele>
<time>2024-05-11T09:39:03Z</time>
</trkpt>
<trkpt lat="49.574787095189095" lon="9.373361533507705">
<ele>397.4</ele>
<time>2024-05-11T09:39:04Z</time>
</trkpt>
<trkpt lat="49.57480997778475" lon="9.37343018129468">
<ele>397.2</ele>
<time>2024-05-11T09:39:05Z</time>
</trkpt>
<trkpt lat="49.57483286038041" lon="9.373501762747765">
<ele>397</ele>
<time>2024-05-11T09:39:06Z</time>
</trkpt>
<trkpt lat="49.57485197111964" lon="9.373571332544088">
<ele>396.8</ele>
<time>2024-05-11T09:39:07Z</time>
</trkpt>
<trkpt lat="49.5748748537153" lon="9.373639980331063">
<ele>396.6</ele>
<time>2024-05-11T09:39:08Z</time>
</trkpt>
<trkpt lat="49.574901508167386" lon="9.373704856261613">
<ele>396.6</ele>
<time>2024-05-11T09:39:09Z</time>
</trkpt>
<trkpt lat="49.5749282464385" lon="9.37376973219216">
<ele>396.4</ele>
<time>2024-05-11T09:39:10Z</time>
</trkpt>
<trkpt lat="49.57495112903416" lon="9.373834608122706">
<ele>396.4</ele>
<time>2024-05-11T09:39:11Z</time>
</trkpt>
<trkpt lat="49.57497401162982" lon="9.373898478224874">
<ele>396.4</ele>
<time>2024-05-11T09:39:12Z</time>
</trkpt>
<trkpt lat="49.57500074990094" lon="9.37396335415542">
<ele>396.4</ele>
<time>2024-05-11T09:39:13Z</time>
</trkpt>
<trkpt lat="49.575023632496595" lon="9.374030074104668">
<ele>396.4</ele>
<time>2024-05-11T09:39:14Z</time>
</trkpt>
<trkpt lat="49.575046515092254" lon="9.374094950035214">
<ele>396.2</ele>
<time>2024-05-11T09:39:15Z</time>
</trkpt>
<trkpt lat="49.57506939768791" lon="9.374156892299652">
<ele>396.2</ele>
<time>2024-05-11T09:39:16Z</time>
</trkpt>
<trkpt lat="49.57509228028357" lon="9.374216990545392">
<ele>396.2</ele>
<time>2024-05-11T09:39:17Z</time>
</trkpt>
<trkpt lat="49.57511516287923" lon="9.374273233115671">
<ele>396.2</ele>
<time>2024-05-11T09:39:18Z</time>
</trkpt>
<trkpt lat="49.57513804547489" lon="9.374328553676603">
<ele>396</ele>
<time>2024-05-11T09:39:19Z</time>
</trkpt>
<trkpt lat="49.575160928070545" lon="9.374381946399808">
<ele>396</ele>
<time>2024-05-11T09:39:20Z</time>
</trkpt>
<trkpt lat="49.575180038809776" lon="9.374433495104311">
<ele>396</ele>
<time>2024-05-11T09:39:21Z</time>
</trkpt>
<trkpt lat="49.575199065729976" lon="9.374484959989786">
<ele>396</ele>
<time>2024-05-11T09:39:23Z</time>
</trkpt>
<trkpt lat="49.575237203389406" lon="9.374587973579764">
<ele>395.2</ele>
<time>2024-05-11T09:39:24Z</time>
</trkpt>
<trkpt lat="49.575260085985065" lon="9.374639438465238">
<ele>395</ele>
<time>2024-05-11T09:39:25Z</time>
</trkpt>
<trkpt lat="49.575279196724296" lon="9.374692915007472">
<ele>395</ele>
<time>2024-05-11T09:39:27Z</time>
</trkpt>
<trkpt lat="49.57532496191561" lon="9.374810177832842">
<ele>395.2</ele>
<time>2024-05-11T09:39:28Z</time>
</trkpt>
<trkpt lat="49.57534407265484" lon="9.37487119808793">
<ele>395.2</ele>
<time>2024-05-11T09:39:29Z</time>
</trkpt>
<trkpt lat="49.57536309957504" lon="9.3749332241714">
<ele>395.2</ele>
<time>2024-05-11T09:39:30Z</time>
</trkpt>
<trkpt lat="49.575382210314274" lon="9.374998016282916">
<ele>395.4</ele>
<time>2024-05-11T09:39:31Z</time>
</trkpt>
<trkpt lat="49.57540509290993" lon="9.375060042366384">
<ele>395.4</ele>
<time>2024-05-11T09:39:32Z</time>
</trkpt>
<trkpt lat="49.575420347973704" lon="9.375122068449857">
<ele>395.4</ele>
<time>2024-05-11T09:39:33Z</time>
</trkpt>
<trkpt lat="49.57544323056936" lon="9.375181160867214">
<ele>395.6</ele>
<time>2024-05-11T09:39:34Z</time>
</trkpt>
<trkpt lat="49.575462341308594" lon="9.375240253284574">
<ele>395.6</ele>
<time>2024-05-11T09:39:35Z</time>
</trkpt>
<trkpt lat="49.57548522390425" lon="9.375296579673886">
<ele>395.4</ele>
<time>2024-05-11T09:39:36Z</time>
</trkpt>
<trkpt lat="49.57550425082445" lon="9.375349972397087">
<ele>395.4</ele>
<time>2024-05-11T09:39:37Z</time>
</trkpt>
<trkpt lat="49.57552336156368" lon="9.375399509444833">
<ele>395.4</ele>
<time>2024-05-11T09:39:38Z</time>
</trkpt>
<trkpt lat="49.575538616627455" lon="9.37544628046453">
<ele>395.2</ele>
<time>2024-05-11T09:39:39Z</time>
</trkpt>
<trkpt lat="49.575557643547654" lon="9.37548827379942">
<ele>395.2</ele>
<time>2024-05-11T09:39:40Z</time>
</trkpt>
<trkpt lat="49.575572898611426" lon="9.375528255477548">
<ele>395.2</ele>
<time>2024-05-11T09:39:41Z</time>
</trkpt>
<trkpt lat="49.5755881536752" lon="9.37556647695601">
<ele>395.2</ele>
<time>2024-05-11T09:39:42Z</time>
</trkpt>
<trkpt lat="49.57561103627086" lon="9.37560360878706">
<ele>395</ele>
<time>2024-05-11T09:39:43Z</time>
</trkpt>
<trkpt lat="49.575637774541974" lon="9.375633196905255">
<ele>395</ele>
<time>2024-05-11T09:39:44Z</time>
</trkpt>
<trkpt lat="49.57566828466952" lon="9.375655157491565">
<ele>395</ele>
<time>2024-05-11T09:39:45Z</time>
</trkpt>
<trkpt lat="49.57570265047252" lon="9.375668484717607">
<ele>395</ele>
<time>2024-05-11T09:39:46Z</time>
</trkpt>
<trkpt lat="49.57572930492461" lon="9.375671334564686">
<ele>395</ele>
<time>2024-05-11T09:39:47Z</time>
</trkpt>
<trkpt lat="49.57574841566384" lon="9.375671334564686">
<ele>394.8</ele>
<time>2024-05-11T09:39:48Z</time>
</trkpt>
<trkpt lat="49.57576744258404" lon="9.375671334564686">
<ele>394.8</ele>
<time>2024-05-11T09:39:49Z</time>
</trkpt>
<trkpt lat="49.57578655332327" lon="9.375671334564686">
<ele>394.6</ele>
<time>2024-05-11T09:39:50Z</time>
</trkpt>
<trkpt lat="49.5758056640625" lon="9.375671334564686">
<ele>394.6</ele>
<time>2024-05-11T09:39:51Z</time>
</trkpt>
<trkpt lat="49.5758246909827" lon="9.375666556879878">
<ele>394.4</ele>
<time>2024-05-11T09:39:52Z</time>
</trkpt>
<trkpt lat="49.57584757357836" lon="9.37566177919507">
<ele>394.4</ele>
<time>2024-05-11T09:39:53Z</time>
</trkpt>
<trkpt lat="49.575870456174016" lon="9.375655157491565">
<ele>394.2</ele>
<time>2024-05-11T09:39:54Z</time>
</trkpt>
<trkpt lat="49.575893338769674" lon="9.3756446801126">
<ele>394.2</ele>
<time>2024-05-11T09:39:55Z</time>
</trkpt>
<trkpt lat="49.575912449508905" lon="9.375631269067526">
<ele>394</ele>
<time>2024-05-11T09:39:56Z</time>
</trkpt>
<trkpt lat="49.575931476429105" lon="9.375617019832134">
<ele>394</ele>
<time>2024-05-11T09:39:57Z</time>
</trkpt>
<trkpt lat="49.57595821470022" lon="9.375608386471868">
<ele>394</ele>
<time>2024-05-11T09:39:58Z</time>
</trkpt>
<trkpt lat="49.57598109729588" lon="9.375601764768362">
<ele>393.8</ele>
<time>2024-05-11T09:39:59Z</time>
</trkpt>
<trkpt lat="49.576007835567" lon="9.375596987083554">
<ele>393.8</ele>
<time>2024-05-11T09:40:00Z</time>
</trkpt>
<trkpt lat="49.576030718162656" lon="9.375591203570366">
<ele>393.6</ele>
<time>2024-05-11T09:40:01Z</time>
</trkpt>
<trkpt lat="49.57605737261474" lon="9.375590281561015">
<ele>393.4</ele>
<time>2024-05-11T09:40:02Z</time>
</trkpt>
<trkpt lat="49.57607648335397" lon="9.375591203570366">
<ele>393.4</ele>
<time>2024-05-11T09:40:03Z</time>
</trkpt>
<trkpt lat="49.576091738417745" lon="9.375595059245825">
<ele>393.2</ele>
<time>2024-05-11T09:40:05Z</time>
</trkpt>
<trkpt lat="49.57610699348152" lon="9.375608386471868">
<ele>393</ele>
<time>2024-05-11T09:40:06Z</time>
</trkpt>
<trkpt lat="49.57610699348152" lon="9.375610314309595">
<ele>393</ele>
<time>2024-05-11T09:40:07Z</time>
</trkpt>
<trkpt lat="49.576110765337944" lon="9.375611236318946">
<ele>392.8</ele>
<time>2024-05-11T09:40:08Z</time>
</trkpt>
<trkpt lat="49.576110765337944" lon="9.375610314309595">
<ele>392.6</ele>
<time>2024-05-11T09:40:09Z</time>
</trkpt>
<trkpt lat="49.576110765337944" lon="9.375613164156675">
<ele>392.6</ele>
<time>2024-05-11T09:40:10Z</time>
</trkpt>
<trkpt lat="49.576110765337944" lon="9.375617019832134">
<ele>392.4</ele>
<time>2024-05-11T09:40:11Z</time>
</trkpt>
<trkpt lat="49.5761146210134" lon="9.375626491382718">
<ele>392.2</ele>
<time>2024-05-11T09:40:12Z</time>
</trkpt>
<trkpt lat="49.57611839286983" lon="9.3756446801126">
<ele>392</ele>
<time>2024-05-11T09:40:13Z</time>
</trkpt>
<trkpt lat="49.57612224854529" lon="9.375666556879878">
<ele>392</ele>
<time>2024-05-11T09:40:14Z</time>
</trkpt>
<trkpt lat="49.5761336479336" lon="9.375695222988725">
<ele>391.8</ele>
<time>2024-05-11T09:40:15Z</time>
</trkpt>
<trkpt lat="49.57614513114095" lon="9.375716177746654">
<ele>391.8</ele>
<time>2024-05-11T09:40:16Z</time>
</trkpt>
<trkpt lat="49.57616424188018" lon="9.375728582963347">
<ele>391.6</ele>
<time>2024-05-11T09:40:17Z</time>
</trkpt>
<trkpt lat="49.57618712447584" lon="9.375728582963347">
<ele>391.6</ele>
<time>2024-05-11T09:40:18Z</time>
</trkpt>
<trkpt lat="49.57621377892792" lon="9.37572187744081">
<ele>391.6</ele>
<time>2024-05-11T09:40:19Z</time>
</trkpt>
<trkpt lat="49.57624428905547" lon="9.375709472224116">
<ele>391.6</ele>
<time>2024-05-11T09:40:20Z</time>
</trkpt>
<trkpt lat="49.57627865485847" lon="9.375690445303915">
<ele>391.6</ele>
<time>2024-05-11T09:40:21Z</time>
</trkpt>
<trkpt lat="49.57632064819336" lon="9.375673262402415">
<ele>391.6</ele>
<time>2024-05-11T09:40:22Z</time>
</trkpt>
<trkpt lat="49.57636641338467" lon="9.375655157491565">
<ele>391.6</ele>
<time>2024-05-11T09:40:23Z</time>
</trkpt>
<trkpt lat="49.576408322900534" lon="9.375637974590065">
<ele>391.4</ele>
<time>2024-05-11T09:40:24Z</time>
</trkpt>
<trkpt lat="49.57645408809185" lon="9.375617941841483">
<ele>391.4</ele>
<time>2024-05-11T09:40:25Z</time>
</trkpt>
<trkpt lat="49.5764999371022" lon="9.375597909092903">
<ele>391.6</ele>
<time>2024-05-11T09:40:26Z</time>
</trkpt>
<trkpt lat="49.57654947414994" lon="9.375575026497245">
<ele>391.6</ele>
<time>2024-05-11T09:40:27Z</time>
</trkpt>
<trkpt lat="49.57659909501672" lon="9.375561699271202">
<ele>391.8</ele>
<time>2024-05-11T09:40:28Z</time>
</trkpt>
<trkpt lat="49.576644860208035" lon="9.375550216063855">
<ele>391.8</ele>
<time>2024-05-11T09:40:29Z</time>
</trkpt>
<trkpt lat="49.57669825293124" lon="9.375536888837814">
<ele>392</ele>
<time>2024-05-11T09:40:30Z</time>
</trkpt>
<trkpt lat="49.576744018122554" lon="9.375521633774042">
<ele>392</ele>
<time>2024-05-11T09:40:32Z</time>
</trkpt>
<trkpt lat="49.576839404180646" lon="9.375494895502923">
<ele>392.2</ele>
<time>2024-05-11T09:40:33Z</time>
</trkpt>
<trkpt lat="49.57688902504742" lon="9.37548534013331">
<ele>392.4</ele>
<time>2024-05-11T09:40:34Z</time>
</trkpt>
<trkpt lat="49.576938562095165" lon="9.375472012907268">
<ele>392.4</ele>
<time>2024-05-11T09:40:35Z</time>
</trkpt>
<trkpt lat="49.57698818296194" lon="9.375463463366032">
<ele>392.4</ele>
<time>2024-05-11T09:40:36Z</time>
</trkpt>
<trkpt lat="49.57703780382872" lon="9.375454830005763">
<ele>392.6</ele>
<time>2024-05-11T09:40:37Z</time>
</trkpt>
<trkpt lat="49.57708356902003" lon="9.37544820830226">
<ele>392.6</ele>
<time>2024-05-11T09:40:38Z</time>
</trkpt>
<trkpt lat="49.57713310606778" lon="9.375436725094914">
<ele>392.8</ele>
<time>2024-05-11T09:40:39Z</time>
</trkpt>
<trkpt lat="49.57718272693455" lon="9.37542817555368">
<ele>393</ele>
<time>2024-05-11T09:40:40Z</time>
</trkpt>
<trkpt lat="49.57722849212587" lon="9.375419542193413">
<ele>393</ele>
<time>2024-05-11T09:40:41Z</time>
</trkpt>
<trkpt lat="49.577274257317185" lon="9.375412920489907">
<ele>393.2</ele>
<time>2024-05-11T09:40:42Z</time>
</trkpt>
<trkpt lat="49.5773200225085" lon="9.37540529295802">
<ele>393.2</ele>
<time>2024-05-11T09:40:43Z</time>
</trkpt>
<trkpt lat="49.57736587151885" lon="9.375398587435484">
<ele>393.4</ele>
<time>2024-05-11T09:40:44Z</time>
</trkpt>
<trkpt lat="49.57741163671017" lon="9.375391881912948">
<ele>393.6</ele>
<time>2024-05-11T09:40:45Z</time>
</trkpt>
<trkpt lat="49.577453546226025" lon="9.37538526020944">
<ele>393.8</ele>
<time>2024-05-11T09:40:46Z</time>
</trkpt>
<trkpt lat="49.577495539560914" lon="9.375379560515285">
<ele>393.8</ele>
<time>2024-05-11T09:40:47Z</time>
</trkpt>
<trkpt lat="49.5775375328958" lon="9.375374782830477">
<ele>394</ele>
<time>2024-05-11T09:40:48Z</time>
</trkpt>
<trkpt lat="49.57757944241166" lon="9.375370005145667">
<ele>394.2</ele>
<time>2024-05-11T09:40:49Z</time>
</trkpt>
<trkpt lat="49.57761758007109" lon="9.37536522746086">
<ele>394.2</ele>
<time>2024-05-11T09:40:50Z</time>
</trkpt>
<trkpt lat="49.57765571773052" lon="9.375361371785402">
<ele>394.4</ele>
<time>2024-05-11T09:40:51Z</time>
</trkpt>
<trkpt lat="49.577690083533525" lon="9.375356594100596">
<ele>394.4</ele>
<time>2024-05-11T09:40:52Z</time>
</trkpt>
<trkpt lat="49.57772822119296" lon="9.375352822244167">
<ele>394.4</ele>
<time>2024-05-11T09:40:53Z</time>
</trkpt>
<trkpt lat="49.5777587313205" lon="9.375349972397087">
<ele>394.4</ele>
<time>2024-05-11T09:40:54Z</time>
</trkpt>
<trkpt lat="49.577789241448045" lon="9.37534712255001">
<ele>394.4</ele>
<time>2024-05-11T09:40:55Z</time>
</trkpt>
<trkpt lat="49.57781597971916" lon="9.375343266874552">
<ele>394.6</ele>
<time>2024-05-11T09:40:56Z</time>
</trkpt>
<trkpt lat="49.57784263417125" lon="9.375340417027472">
<ele>394.6</ele>
<time>2024-05-11T09:40:57Z</time>
</trkpt>
<trkpt lat="49.577869372442365" lon="9.375333711504936">
<ele>394.6</ele>
<time>2024-05-11T09:40:58Z</time>
</trkpt>
<trkpt lat="49.57789611071348" lon="9.37532708980143">
<ele>394.6</ele>
<time>2024-05-11T09:40:59Z</time>
</trkpt>
<trkpt lat="49.57792276516557" lon="9.375321306288242">
<ele>394.6</ele>
<time>2024-05-11T09:41:00Z</time>
</trkpt>
<trkpt lat="49.577949503436685" lon="9.375318456441164">
<ele>394.6</ele>
<time>2024-05-11T09:41:01Z</time>
</trkpt>
<trkpt lat="49.57797615788877" lon="9.375313678756356">
<ele>394.6</ele>
<time>2024-05-11T09:41:02Z</time>
</trkpt>
<trkpt lat="49.57800289615989" lon="9.3753079790622">
<ele>394.6</ele>
<time>2024-05-11T09:41:03Z</time>
</trkpt>
<trkpt lat="49.578025778755546" lon="9.375301357358694">
<ele>394.6</ele>
<time>2024-05-11T09:41:04Z</time>
</trkpt>
<trkpt lat="49.5780486613512" lon="9.375298423692584">
<ele>394.6</ele>
<time>2024-05-11T09:41:05Z</time>
</trkpt>
<trkpt lat="49.57807154394686" lon="9.375294651836157">
<ele>394.6</ele>
<time>2024-05-11T09:41:06Z</time>
</trkpt>
<trkpt lat="49.578086799010634" lon="9.375300351530312">
<ele>394.6</ele>
<time>2024-05-11T09:41:07Z</time>
</trkpt>
<trkpt lat="49.57809828221798" lon="9.375316612422466">
<ele>394.4</ele>
<time>2024-05-11T09:41:08Z</time>
</trkpt>
<trkpt lat="49.578105909749866" lon="9.375336645171046">
<ele>394.4</ele>
<time>2024-05-11T09:41:09Z</time>
</trkpt>
<trkpt lat="49.578105909749866" lon="9.375354750081897">
<ele>394.4</ele>
<time>2024-05-11T09:41:10Z</time>
</trkpt>
<trkpt lat="49.57809828221798" lon="9.37536614947021">
<ele>394.4</ele>
<time>2024-05-11T09:41:11Z</time>
</trkpt>
<trkpt lat="49.57809065468609" lon="9.375374782830477">
<ele>394.4</ele>
<time>2024-05-11T09:41:12Z</time>
</trkpt>
<trkpt lat="49.57807154394686" lon="9.375379560515285">
<ele>394.4</ele>
<time>2024-05-11T09:41:13Z</time>
</trkpt>
<trkpt lat="49.57803726196289" lon="9.375390037894247">
<ele>394.4</ele>
<time>2024-05-11T09:41:14Z</time>
</trkpt>
<trkpt lat="49.577995268628" lon="9.375396659597754">
<ele>394.4</ele>
<time>2024-05-11T09:41:15Z</time>
</trkpt>
<trkpt lat="49.5779418759048" lon="9.375411914661528">
<ele>394.2</ele>
<time>2024-05-11T09:41:16Z</time>
</trkpt>
<trkpt lat="49.57788462750614" lon="9.37542817555368">
<ele>394</ele>
<time>2024-05-11T09:41:17Z</time>
</trkpt>
<trkpt lat="49.577827379107475" lon="9.37544820830226">
<ele>394</ele>
<time>2024-05-11T09:41:18Z</time>
</trkpt>
<trkpt lat="49.57777398638427" lon="9.37546631321311">
<ele>393.8</ele>
<time>2024-05-11T09:41:19Z</time>
</trkpt>
<trkpt lat="49.57772822119296" lon="9.375481568276882">
<ele>393.6</ele>
<time>2024-05-11T09:41:20Z</time>
</trkpt>
<trkpt lat="49.57768622785807" lon="9.37550537288189">
<ele>393.4</ele>
<time>2024-05-11T09:41:21Z</time>
</trkpt>
<trkpt lat="49.577651945874095" lon="9.3755445163697">
<ele>393</ele>
<time>2024-05-11T09:41:22Z</time>
</trkpt>
<trkpt lat="49.57762520760298" lon="9.375601764768362">
<ele>392.8</ele>
<time>2024-05-11T09:41:23Z</time>
</trkpt>
<trkpt lat="49.577613808214664" lon="9.375666556879878">
<ele>392.4</ele>
<time>2024-05-11T09:41:24Z</time>
</trkpt>
<trkpt lat="49.577609952539206" lon="9.375729504972696">
<ele>392</ele>
<time>2024-05-11T09:41:25Z</time>
</trkpt>
<trkpt lat="49.57760618068278" lon="9.375784825533628">
<ele>391.6</ele>
<time>2024-05-11T09:41:26Z</time>
</trkpt>
<trkpt lat="49.57760232500732" lon="9.375831596553326">
<ele>391.2</ele>
<time>2024-05-11T09:41:27Z</time>
</trkpt>
<trkpt lat="49.57759855315089" lon="9.375871578231454">
<ele>390.8</ele>
<time>2024-05-11T09:41:28Z</time>
</trkpt>
<trkpt lat="49.57759469747543" lon="9.375905022025108">
<ele>390.4</ele>
<time>2024-05-11T09:41:29Z</time>
</trkpt>
<trkpt lat="49.57759469747543" lon="9.375933604314923">
<ele>390</ele>
<time>2024-05-11T09:41:30Z</time>
</trkpt>
<trkpt lat="49.577590925619006" lon="9.375958414748313">
<ele>389.6</ele>
<time>2024-05-11T09:41:31Z</time>
</trkpt>
<trkpt lat="49.57759469747543" lon="9.37598129734397">
<ele>389.2</ele>
<time>2024-05-11T09:41:32Z</time>
</trkpt>
<trkpt lat="49.57759855315089" lon="9.37600133009255">
<ele>388.8</ele>
<time>2024-05-11T09:41:33Z</time>
</trkpt>
<trkpt lat="49.57759855315089" lon="9.376014657318592">
<ele>388.6</ele>
<time>2024-05-11T09:41:34Z</time>
</trkpt>
<trkpt lat="49.57759855315089" lon="9.376029912382364">
<ele>388.4</ele>
<time>2024-05-11T09:41:35Z</time>
</trkpt>
<trkpt lat="49.57759855315089" lon="9.376038545742633">
<ele>388.2</ele>
<time>2024-05-11T09:41:36Z</time>
</trkpt>
<trkpt lat="49.57759855315089" lon="9.376043239608409">
<ele>388</ele>
<time>2024-05-11T09:41:37Z</time>
</trkpt>
<trkpt lat="49.57759855315089" lon="9.376047095283866">
<ele>388</ele>
<time>2024-05-11T09:41:38Z</time>
</trkpt>
<trkpt lat="49.57759855315089" lon="9.376048017293217">
<ele>387.8</ele>
<time>2024-05-11T09:41:39Z</time>
</trkpt>
<trkpt lat="49.57759855315089" lon="9.376051872968674">
<ele>387.8</ele>
<time>2024-05-11T09:41:40Z</time>
</trkpt>
<trkpt lat="49.57759855315089" lon="9.376065200194716">
<ele>387.6</ele>
<time>2024-05-11T09:41:41Z</time>
</trkpt>
<trkpt lat="49.57760232500732" lon="9.376072827726604">
<ele>387.6</ele>
<time>2024-05-11T09:41:42Z</time>
</trkpt>
<trkpt lat="49.57760618068278" lon="9.37607953324914">
<ele>387.4</ele>
<time>2024-05-11T09:41:43Z</time>
</trkpt>
<trkpt lat="49.57760232500732" lon="9.37608146108687">
<ele>387.4</ele>
<time>2024-05-11T09:41:44Z</time>
</trkpt>
<trkpt lat="49.57760232500732" lon="9.376085232943296">
<ele>387.2</ele>
<time>2024-05-11T09:41:45Z</time>
</trkpt>
<trkpt lat="49.57759855315089" lon="9.376090010628104">
<ele>387.2</ele>
<time>2024-05-11T09:41:46Z</time>
</trkpt>
<trkpt lat="49.57759855315089" lon="9.376092860475184">
<ele>387.2</ele>
<time>2024-05-11T09:41:47Z</time>
</trkpt>
<trkpt lat="49.57759469747543" lon="9.376092860475184">
<ele>387</ele>
<time>2024-05-11T09:41:48Z</time>
</trkpt>
<trkpt lat="49.57759469747543" lon="9.376094788312912">
<ele>387</ele>
<time>2024-05-11T09:41:49Z</time>
</trkpt>
<trkpt lat="49.57759469747543" lon="9.37609671615064">
<ele>387</ele>
<time>2024-05-11T09:41:52Z</time>
</trkpt>
<trkpt lat="49.57759469747543" lon="9.37609856016934">
<ele>387</ele>
<time>2024-05-11T09:41:53Z</time>
</trkpt>
<trkpt lat="49.57759469747543" lon="9.37609956599772">
<ele>387</ele>
<time>2024-05-11T09:41:54Z</time>
</trkpt>
<trkpt lat="49.57759469747543" lon="9.37610149383545">
<ele>387</ele>
<time>2024-05-11T09:41:56Z</time>
</trkpt>
<trkpt lat="49.577590925619006" lon="9.37610149383545">
<ele>387</ele>
<time>2024-05-11T09:41:57Z</time>
</trkpt>
<trkpt lat="49.57757944241166" lon="9.376106187701224">
<ele>387</ele>
<time>2024-05-11T09:41:58Z</time>
</trkpt>
<trkpt lat="49.577575670555234" lon="9.376110043376684">
<ele>387</ele>
<time>2024-05-11T09:41:59Z</time>
</trkpt>
<trkpt lat="49.577571814879775" lon="9.376111971214414">
<ele>387</ele>
<time>2024-05-11T09:42:00Z</time>
</trkpt>
<trkpt lat="49.577571814879775" lon="9.376112893223764">
<ele>387</ele>
<time>2024-05-11T09:42:01Z</time>
</trkpt>
<trkpt lat="49.57756804302335" lon="9.37611674889922">
<ele>387</ele>
<time>2024-05-11T09:42:02Z</time>
</trkpt>
<trkpt lat="49.57756804302335" lon="9.37611859291792">
<ele>387</ele>
<time>2024-05-11T09:42:03Z</time>
</trkpt>
<trkpt lat="49.57756418734789" lon="9.37611859291792">
<ele>387.2</ele>
<time>2024-05-11T09:42:04Z</time>
</trkpt>
<trkpt lat="49.57756418734789" lon="9.376125298440456">
<ele>387.2</ele>
<time>2024-05-11T09:42:07Z</time>
</trkpt>
<trkpt lat="49.57756418734789" lon="9.376126220449803">
<ele>387.2</ele>
<time>2024-05-11T09:42:08Z</time>
</trkpt>
<trkpt lat="49.57756418734789" lon="9.376125298440456">
<ele>387.2</ele>
<time>2024-05-11T09:42:09Z</time>
</trkpt>
<trkpt lat="49.57756418734789" lon="9.376130076125264">
<ele>387.2</ele>
<time>2024-05-11T09:42:12Z</time>
</trkpt>
<trkpt lat="49.57756418734789" lon="9.3761386256665">
<ele>387.2</ele>
<time>2024-05-11T09:42:13Z</time>
</trkpt>
<trkpt lat="49.57756418734789" lon="9.376145331189036">
<ele>387.2</ele>
<time>2024-05-11T09:42:14Z</time>
</trkpt>
<trkpt lat="49.57756418734789" lon="9.376150108873844">
<ele>387.2</ele>
<time>2024-05-11T09:42:15Z</time>
</trkpt>
<trkpt lat="49.57756041549146" lon="9.37615966424346">
<ele>387.2</ele>
<time>2024-05-11T09:42:16Z</time>
</trkpt>
<trkpt lat="49.57756418734789" lon="9.376170141622424">
<ele>387.2</ele>
<time>2024-05-11T09:42:17Z</time>
</trkpt>
<trkpt lat="49.57756418734789" lon="9.37617676332593">
<ele>387.2</ele>
<time>2024-05-11T09:42:18Z</time>
</trkpt>
<trkpt lat="49.57756418734789" lon="9.376185396686196">
<ele>387.2</ele>
<time>2024-05-11T09:42:19Z</time>
</trkpt>
<trkpt lat="49.57756418734789" lon="9.376188246533276">
<ele>387.2</ele>
<time>2024-05-11T09:42:20Z</time>
</trkpt>
<trkpt lat="49.57756041549146" lon="9.376188246533276">
<ele>387.2</ele>
<time>2024-05-11T09:42:23Z</time>
</trkpt>
<trkpt lat="49.57756041549146" lon="9.376190174371004">
<ele>387.2</ele>
<time>2024-05-11T09:42:24Z</time>
</trkpt>
<trkpt lat="49.57756041549146" lon="9.376188246533276">
<ele>387.2</ele>
<time>2024-05-11T09:42:26Z</time>
</trkpt>
<trkpt lat="49.57756041549146" lon="9.376190174371004">
<ele>387.2</ele>
<time>2024-05-11T09:42:30Z</time>
</trkpt>
<trkpt lat="49.577556559816" lon="9.376190174371004">
<ele>387.2</ele>
<time>2024-05-11T09:42:35Z</time>
</trkpt>
<trkpt lat="49.577556559816" lon="9.376188246533276">
<ele>387.4</ele>
<time>2024-05-11T09:42:45Z</time>
</trkpt>
<trkpt lat="49.577556559816" lon="9.376190174371004">
<ele>387.4</ele>
<time>2024-05-11T09:42:50Z</time>
</trkpt>
<trkpt lat="49.577552787959576" lon="9.376190174371004">
<ele>387.4</ele>
<time>2024-05-11T09:42:51Z</time>
</trkpt>
<trkpt lat="49.577552787959576" lon="9.376192018389702">
<ele>387.4</ele>
<time>2024-05-11T09:42:59Z</time>
</trkpt>
<trkpt lat="49.577552787959576" lon="9.376190174371004">
<ele>387.4</ele>
<time>2024-05-11T09:43:00Z</time>
</trkpt>
<trkpt lat="49.57754893228412" lon="9.376192018389702">
<ele>387.4</ele>
<time>2024-05-11T09:43:01Z</time>
</trkpt>
<trkpt lat="49.57754893228412" lon="9.376193024218082">
<ele>387.4</ele>
<time>2024-05-11T09:43:08Z</time>
</trkpt>
<trkpt lat="49.57754516042769" lon="9.376193024218082">
<ele>387.4</ele>
<time>2024-05-11T09:43:11Z</time>
</trkpt>
<trkpt lat="49.57754516042769" lon="9.376192018389702">
<ele>387.6</ele>
<time>2024-05-11T09:43:12Z</time>
</trkpt>
<trkpt lat="49.57754516042769" lon="9.376193024218082">
<ele>387.6</ele>
<time>2024-05-11T09:43:13Z</time>
</trkpt>
<trkpt lat="49.57754516042769" lon="9.376192018389702">
<ele>387.6</ele>
<time>2024-05-11T09:43:21Z</time>
</trkpt>
<trkpt lat="49.57754516042769" lon="9.376193024218082">
<ele>387.6</ele>
<time>2024-05-11T09:43:23Z</time>
</trkpt>
<trkpt lat="49.57754516042769" lon="9.376188246533276">
<ele>387.6</ele>
<time>2024-05-11T09:43:26Z</time>
</trkpt>
<trkpt lat="49.57754130475223" lon="9.376186318695543">
<ele>387.6</ele>
<time>2024-05-11T09:43:27Z</time>
</trkpt>
<trkpt lat="49.57754130475223" lon="9.376185396686196">
<ele>387.6</ele>
<time>2024-05-11T09:43:28Z</time>
</trkpt>
<trkpt lat="49.57754130475223" lon="9.376181541010736">
<ele>387.6</ele>
<time>2024-05-11T09:43:29Z</time>
</trkpt>
<trkpt lat="49.57754130475223" lon="9.376179613173008">
<ele>387.6</ele>
<time>2024-05-11T09:43:30Z</time>
</trkpt>
<trkpt lat="49.57754130475223" lon="9.37617869116366">
<ele>387.6</ele>
<time>2024-05-11T09:43:31Z</time>
</trkpt>
<trkpt lat="49.57754130475223" lon="9.37617676332593">
<ele>387.6</ele>
<time>2024-05-11T09:43:32Z</time>
</trkpt>
<trkpt lat="49.5775375328958" lon="9.376172991469502">
<ele>387.8</ele>
<time>2024-05-11T09:43:33Z</time>
</trkpt>
<trkpt lat="49.5775375328958" lon="9.376171985641122">
<ele>387.8</ele>
<time>2024-05-11T09:43:34Z</time>
</trkpt>
<trkpt lat="49.577533677220345" lon="9.376168213784696">
<ele>387.8</ele>
<time>2024-05-11T09:43:35Z</time>
</trkpt>
<trkpt lat="49.577533677220345" lon="9.376166285946963">
<ele>387.8</ele>
<time>2024-05-11T09:43:36Z</time>
</trkpt>
<trkpt lat="49.57752990536392" lon="9.376166285946963">
<ele>387.8</ele>
<time>2024-05-11T09:43:37Z</time>
</trkpt>
<trkpt lat="49.57752990536392" lon="9.376168213784696">
<ele>387.8</ele>
<time>2024-05-11T09:43:41Z</time>
</trkpt>
<trkpt lat="49.57752990536392" lon="9.376170141622424">
<ele>387.8</ele>
<time>2024-05-11T09:43:53Z</time>
</trkpt>
<trkpt lat="49.57752990536392" lon="9.376168213784696">
<ele>387.8</ele>
<time>2024-05-11T09:43:54Z</time>
</trkpt>
<trkpt lat="49.57752990536392" lon="9.376170141622424">
<ele>387.8</ele>
<time>2024-05-11T09:44:04Z</time>
</trkpt>
<trkpt lat="49.57752990536392" lon="9.376171985641122">
<ele>387.8</ele>
<time>2024-05-11T09:44:12Z</time>
</trkpt>
<trkpt lat="49.57752990536392" lon="9.376172991469502">
<ele>387.6</ele>
<time>2024-05-11T09:44:20Z</time>
</trkpt>
<trkpt lat="49.57752990536392" lon="9.376174919307232">
<ele>387.6</ele>
<time>2024-05-11T09:44:33Z</time>
</trkpt>
<trkpt lat="49.57752990536392" lon="9.37617676332593">
<ele>387.6</ele>
<time>2024-05-11T09:44:45Z</time>
</trkpt>
<trkpt lat="49.57752990536392" lon="9.376174919307232">
<ele>387.8</ele>
<time>2024-05-11T09:44:46Z</time>
</trkpt>
<trkpt lat="49.57752604968846" lon="9.376174919307232">
<ele>387.8</ele>
<time>2024-05-11T09:44:47Z</time>
</trkpt>
<trkpt lat="49.57752604968846" lon="9.37617676332593">
<ele>387.8</ele>
<time>2024-05-11T09:44:50Z</time>
</trkpt>
<trkpt lat="49.57752604968846" lon="9.376174919307232">
<ele>387.8</ele>
<time>2024-05-11T09:44:51Z</time>
</trkpt>
<trkpt lat="49.57752604968846" lon="9.37617676332593">
<ele>387.8</ele>
<time>2024-05-11T09:44:55Z</time>
</trkpt>
<trkpt lat="49.57752604968846" lon="9.376174919307232">
<ele>388</ele>
<time>2024-05-11T09:45:00Z</time>
</trkpt>
<trkpt lat="49.57752604968846" lon="9.37617676332593">
<ele>388</ele>
<time>2024-05-11T09:45:06Z</time>
</trkpt>
<trkpt lat="49.57752604968846" lon="9.37617869116366">
<ele>388</ele>
<time>2024-05-11T09:45:16Z</time>
</trkpt>
<trkpt lat="49.57752604968846" lon="9.37617676332593">
<ele>388</ele>
<time>2024-05-11T09:45:21Z</time>
</trkpt>
<trkpt lat="49.57752227783203" lon="9.37617676332593">
<ele>388</ele>
<time>2024-05-11T09:45:22Z</time>
</trkpt>
<trkpt lat="49.57752227783203" lon="9.376174919307232">
<ele>388</ele>
<time>2024-05-11T09:45:25Z</time>
</trkpt>
<trkpt lat="49.57752227783203" lon="9.376172991469502">
<ele>388</ele>
<time>2024-05-11T09:45:28Z</time>
</trkpt>
<trkpt lat="49.57751842215657" lon="9.376172991469502">
<ele>388</ele>
<time>2024-05-11T09:45:44Z</time>
</trkpt>
<trkpt lat="49.57751842215657" lon="9.376171985641122">
<ele>388</ele>
<time>2024-05-11T09:45:56Z</time>
</trkpt>
<trkpt lat="49.57751842215657" lon="9.376172991469502">
<ele>388</ele>
<time>2024-05-11T09:46:23Z</time>
</trkpt>
<trkpt lat="49.57752227783203" lon="9.376172991469502">
<ele>388</ele>
<time>2024-05-11T09:46:28Z</time>
</trkpt>
<trkpt lat="49.57752227783203" lon="9.376171985641122">
<ele>388</ele>
<time>2024-05-11T09:46:36Z</time>
</trkpt>
<trkpt lat="49.57752227783203" lon="9.376172991469502">
<ele>388</ele>
<time>2024-05-11T09:46:40Z</time>
</trkpt>
<trkpt lat="49.57752227783203" lon="9.376174919307232">
<ele>388</ele>
<time>2024-05-11T09:46:44Z</time>
</trkpt>
<trkpt lat="49.57752227783203" lon="9.37617676332593">
<ele>388</ele>
<time>2024-05-11T09:46:52Z</time>
</trkpt>
<trkpt lat="49.57752227783203" lon="9.37617869116366">
<ele>388</ele>
<time>2024-05-11T09:47:04Z</time>
</trkpt>
<trkpt lat="49.57751842215657" lon="9.37617869116366">
<ele>388</ele>
<time>2024-05-11T09:47:06Z</time>
</trkpt>
<trkpt lat="49.57751842215657" lon="9.376179613173008">
<ele>388</ele>
<time>2024-05-11T09:47:14Z</time>
</trkpt>
<trkpt lat="49.57751842215657" lon="9.376181541010736">
<ele>387.8</ele>
<time>2024-05-11T09:47:21Z</time>
</trkpt>
<trkpt lat="49.57751842215657" lon="9.376179613173008">
<ele>387.8</ele>
<time>2024-05-11T09:47:26Z</time>
</trkpt>
<trkpt lat="49.57751842215657" lon="9.376181541010736">
<ele>387.8</ele>
<time>2024-05-11T09:47:27Z</time>
</trkpt>
<trkpt lat="49.57752227783203" lon="9.376181541010736">
<ele>387.8</ele>
<time>2024-05-11T09:47:31Z</time>
</trkpt>
<trkpt lat="49.57751842215657" lon="9.376183468848469">
<ele>387.8</ele>
<time>2024-05-11T09:47:32Z</time>
</trkpt>
<trkpt lat="49.57751842215657" lon="9.376181541010736">
<ele>387.8</ele>
<time>2024-05-11T09:47:36Z</time>
</trkpt>
<trkpt lat="49.57751842215657" lon="9.376183468848469">
<ele>387.8</ele>
<time>2024-05-11T09:47:37Z</time>
</trkpt>
<trkpt lat="49.57751842215657" lon="9.376181541010736">
<ele>387.8</ele>
<time>2024-05-11T09:47:38Z</time>
</trkpt>
<trkpt lat="49.57751842215657" lon="9.376179613173008">
<ele>387.8</ele>
<time>2024-05-11T09:47:48Z</time>
</trkpt>
<trkpt lat="49.57751842215657" lon="9.376181541010736">
<ele>387.8</ele>
<time>2024-05-11T09:48:15Z</time>
</trkpt>
<trkpt lat="49.57751842215657" lon="9.376185396686196">
<ele>387.8</ele>
<time>2024-05-11T09:48:16Z</time>
</trkpt>
<trkpt lat="49.57751842215657" lon="9.376186318695543">
<ele>387.8</ele>
<time>2024-05-11T09:48:21Z</time>
</trkpt>
<trkpt lat="49.57751842215657" lon="9.376188246533276">
<ele>387.8</ele>
<time>2024-05-11T09:48:25Z</time>
</trkpt>
<trkpt lat="49.57751842215657" lon="9.376190174371004">
<ele>387.8</ele>
<time>2024-05-11T09:48:27Z</time>
</trkpt>
<trkpt lat="49.57751842215657" lon="9.376192018389702">
<ele>387.8</ele>
<time>2024-05-11T09:48:28Z</time>
</trkpt>
<trkpt lat="49.57751842215657" lon="9.376193024218082">
<ele>387.8</ele>
<time>2024-05-11T09:48:29Z</time>
</trkpt>
<trkpt lat="49.57751842215657" lon="9.376199645921588">
<ele>387.8</ele>
<time>2024-05-11T09:48:31Z</time>
</trkpt>
<trkpt lat="49.57751842215657" lon="9.37619872391224">
<ele>387.8</ele>
<time>2024-05-11T09:48:33Z</time>
</trkpt>
<trkpt lat="49.57751842215657" lon="9.376199645921588">
<ele>387.8</ele>
<time>2024-05-11T09:48:35Z</time>
</trkpt>
<trkpt lat="49.57751842215657" lon="9.376201573759316">
<ele>387.8</ele>
<time>2024-05-11T09:48:37Z</time>
</trkpt>
<trkpt lat="49.57751842215657" lon="9.376203501597049">
<ele>387.8</ele>
<time>2024-05-11T09:48:40Z</time>
</trkpt>
<trkpt lat="49.57751842215657" lon="9.376205429434776">
<ele>387.8</ele>
<time>2024-05-11T09:48:43Z</time>
</trkpt>
<trkpt lat="49.57751842215657" lon="9.376206351444123">
<ele>387.8</ele>
<time>2024-05-11T09:48:45Z</time>
</trkpt>
<trkpt lat="49.57751842215657" lon="9.376208279281856">
<ele>387.8</ele>
<time>2024-05-11T09:48:48Z</time>
</trkpt>
<trkpt lat="49.57751842215657" lon="9.376210207119584">
<ele>387.8</ele>
<time>2024-05-11T09:48:54Z</time>
</trkpt>
<trkpt lat="49.57751842215657" lon="9.376212051138282">
<ele>387.8</ele>
<time>2024-05-11T09:48:56Z</time>
</trkpt>
<trkpt lat="49.57751842215657" lon="9.376213056966662">
<ele>387.8</ele>
<time>2024-05-11T09:49:00Z</time>
</trkpt>
<trkpt lat="49.57751842215657" lon="9.37621490098536">
<ele>387.8</ele>
<time>2024-05-11T09:49:02Z</time>
</trkpt>
<trkpt lat="49.57751842215657" lon="9.376223534345629">
<ele>387.8</ele>
<time>2024-05-11T09:49:05Z</time>
</trkpt>
<trkpt lat="49.57751842215657" lon="9.37623686157167">
<ele>387.8</ele>
<time>2024-05-11T09:49:06Z</time>
</trkpt>
<trkpt lat="49.57752227783203" lon="9.376251194626091">
<ele>387.8</ele>
<time>2024-05-11T09:49:07Z</time>
</trkpt>
<trkpt lat="49.57751842215657" lon="9.376270221546292">
<ele>387.8</ele>
<time>2024-05-11T09:49:08Z</time>
</trkpt>
<trkpt lat="49.57751842215657" lon="9.376288410276176">
<ele>387.8</ele>
<time>2024-05-11T09:49:09Z</time>
</trkpt>
<trkpt lat="49.57751842215657" lon="9.376304587349296">
<ele>387.8</ele>
<time>2024-05-11T09:49:10Z</time>
</trkpt>
<trkpt lat="49.57751842215657" lon="9.376321770250795">
<ele>387.8</ele>
<time>2024-05-11T09:49:11Z</time>
</trkpt>
<trkpt lat="49.57751456648111" lon="9.376343647018077">
<ele>387.8</ele>
<time>2024-05-11T09:49:12Z</time>
</trkpt>
<trkpt lat="49.57751456648111" lon="9.376368457451465">
<ele>387.8</ele>
<time>2024-05-11T09:49:13Z</time>
</trkpt>
<trkpt lat="49.577510794624686" lon="9.37639326788485">
<ele>387.8</ele>
<time>2024-05-11T09:49:14Z</time>
</trkpt>
<trkpt lat="49.57751456648111" lon="9.376422856003046">
<ele>387.8</ele>
<time>2024-05-11T09:49:15Z</time>
</trkpt>
<trkpt lat="49.57751842215657" lon="9.376456215977669">
<ele>387.8</ele>
<time>2024-05-11T09:49:16Z</time>
</trkpt>
<trkpt lat="49.57752990536392" lon="9.376486726105211">
<ele>387.8</ele>
<time>2024-05-11T09:49:17Z</time>
</trkpt>
<trkpt lat="49.57754516042769" lon="9.37651346437633">
<ele>387.8</ele>
<time>2024-05-11T09:49:18Z</time>
</trkpt>
<trkpt lat="49.57756804302335" lon="9.376535341143608">
<ele>387.8</ele>
<time>2024-05-11T09:49:19Z</time>
</trkpt>
<trkpt lat="49.57759469747543" lon="9.37655160203576">
<ele>387.8</ele>
<time>2024-05-11T09:49:20Z</time>
</trkpt>
<trkpt lat="49.57762520760298" lon="9.376568784937264">
<ele>387.8</ele>
<time>2024-05-11T09:49:21Z</time>
</trkpt>
<trkpt lat="49.57765957340598" lon="9.376589739695191">
<ele>387.8</ele>
<time>2024-05-11T09:49:22Z</time>
</trkpt>
<trkpt lat="49.577693939208984" lon="9.37661455012858">
<ele>387.8</ele>
<time>2024-05-11T09:49:23Z</time>
</trkpt>
<trkpt lat="49.577732076868415" lon="9.376643132418394">
<ele>387.8</ele>
<time>2024-05-11T09:49:24Z</time>
</trkpt>
<trkpt lat="49.57776635885239" lon="9.376678420230746">
<ele>387.8</ele>
<time>2024-05-11T09:49:25Z</time>
</trkpt>
<trkpt lat="49.57780072465539" lon="9.376718485727906">
<ele>387.8</ele>
<time>2024-05-11T09:49:26Z</time>
</trkpt>
<trkpt lat="49.57783886231482" lon="9.376763328909874">
<ele>387.8</ele>
<time>2024-05-11T09:49:27Z</time>
</trkpt>
<trkpt lat="49.57787699997425" lon="9.376816721633077">
<ele>387.8</ele>
<time>2024-05-11T09:49:28Z</time>
</trkpt>
<trkpt lat="49.57791513763368" lon="9.376881597563624">
<ele>387.8</ele>
<time>2024-05-11T09:49:29Z</time>
</trkpt>
<trkpt lat="49.57795327529311" lon="9.376955023035409">
<ele>387.8</ele>
<time>2024-05-11T09:49:30Z</time>
</trkpt>
<trkpt lat="49.577987641096115" lon="9.37702844850719">
<ele>388</ele>
<time>2024-05-11T09:49:31Z</time>
</trkpt>
<trkpt lat="49.578025778755546" lon="9.377101873978972">
<ele>387.8</ele>
<time>2024-05-11T09:49:32Z</time>
</trkpt>
<trkpt lat="49.57806014455855" lon="9.37718292698264">
<ele>388</ele>
<time>2024-05-11T09:49:33Z</time>
</trkpt>
<trkpt lat="49.57809065468609" lon="9.37726205214858">
<ele>388</ele>
<time>2024-05-11T09:49:34Z</time>
</trkpt>
<trkpt lat="49.57812116481364" lon="9.377336483448744">
<ele>388</ele>
<time>2024-05-11T09:49:35Z</time>
</trkpt>
<trkpt lat="49.57814781926572" lon="9.377411836758256">
<ele>388</ele>
<time>2024-05-11T09:49:36Z</time>
</trkpt>
<trkpt lat="49.57817070186138" lon="9.377491883933544">
<ele>388</ele>
<time>2024-05-11T09:49:37Z</time>
</trkpt>
<trkpt lat="49.5781974401325" lon="9.377570087090136">
<ele>388</ele>
<time>2024-05-11T09:49:38Z</time>
</trkpt>
<trkpt lat="49.57822032272816" lon="9.377650218084456">
<ele>387.8</ele>
<time>2024-05-11T09:49:39Z</time>
</trkpt>
<trkpt lat="49.578243205323815" lon="9.377724565565586">
<ele>387.8</ele>
<time>2024-05-11T09:49:40Z</time>
</trkpt>
<trkpt lat="49.57826994359493" lon="9.37779706902802">
<ele>387.8</ele>
<time>2024-05-11T09:49:41Z</time>
</trkpt>
<trkpt lat="49.57828897051513" lon="9.377866722643375">
<ele>387.8</ele>
<time>2024-05-11T09:49:42Z</time>
</trkpt>
<trkpt lat="49.57831185311079" lon="9.3779362924397">
<ele>387.8</ele>
<time>2024-05-11T09:49:43Z</time>
</trkpt>
<trkpt lat="49.57833473570645" lon="9.378003096207976">
<ele>387.8</ele>
<time>2024-05-11T09:49:44Z</time>
</trkpt>
<trkpt lat="49.57835761830211" lon="9.378069816157222">
<ele>387.8</ele>
<time>2024-05-11T09:49:45Z</time>
</trkpt>
<trkpt lat="49.57837672904134" lon="9.378131842240691">
<ele>387.8</ele>
<time>2024-05-11T09:49:46Z</time>
</trkpt>
<trkpt lat="49.57839961163699" lon="9.378190012648702">
<ele>388</ele>
<time>2024-05-11T09:49:47Z</time>
</trkpt>
<trkpt lat="49.57841872237623" lon="9.378245333209634">
<ele>388</ele>
<time>2024-05-11T09:49:48Z</time>
</trkpt>
<trkpt lat="49.57843774929643" lon="9.378299647942184">
<ele>388</ele>
<time>2024-05-11T09:49:49Z</time>
</trkpt>
<trkpt lat="49.57845686003566" lon="9.378353040665388">
<ele>388.2</ele>
<time>2024-05-11T09:49:50Z</time>
</trkpt>
<trkpt lat="49.57847588695586" lon="9.378404589369891">
<ele>388.2</ele>
<time>2024-05-11T09:49:51Z</time>
</trkpt>
<trkpt lat="49.57849499769509" lon="9.378457060083749">
<ele>388.2</ele>
<time>2024-05-11T09:49:52Z</time>
</trkpt>
<trkpt lat="49.57851402461529" lon="9.37850659713149">
<ele>388.2</ele>
<time>2024-05-11T09:49:53Z</time>
</trkpt>
<trkpt lat="49.57853313535452" lon="9.378558145835996">
<ele>388.4</ele>
<time>2024-05-11T09:49:54Z</time>
</trkpt>
<trkpt lat="49.57854839041829" lon="9.378609610721467">
<ele>388.4</ele>
<time>2024-05-11T09:49:55Z</time>
</trkpt>
<trkpt lat="49.57856750115752" lon="9.378662081435325">
<ele>388.4</ele>
<time>2024-05-11T09:49:56Z</time>
</trkpt>
<trkpt lat="49.57858652807772" lon="9.378716396167874">
<ele>388.4</ele>
<time>2024-05-11T09:49:57Z</time>
</trkpt>
<trkpt lat="49.57860563881695" lon="9.378773644566536">
<ele>388.4</ele>
<time>2024-05-11T09:49:58Z</time>
</trkpt>
<trkpt lat="49.57862852141261" lon="9.37882804311812">
<ele>388.2</ele>
<time>2024-05-11T09:49:59Z</time>
</trkpt>
<trkpt lat="49.57864754833281" lon="9.378881435841322">
<ele>388.2</ele>
<time>2024-05-11T09:50:00Z</time>
</trkpt>
<trkpt lat="49.57866665907204" lon="9.378936756402254">
<ele>388.2</ele>
<time>2024-05-11T09:50:01Z</time>
</trkpt>
<trkpt lat="49.5786895416677" lon="9.378992076963186">
<ele>388</ele>
<time>2024-05-11T09:50:02Z</time>
</trkpt>
<trkpt lat="49.5787085685879" lon="9.379046391695738">
<ele>388</ele>
<time>2024-05-11T09:50:03Z</time>
</trkpt>
<trkpt lat="49.57873153500259" lon="9.37909978441894">
<ele>388</ele>
<time>2024-05-11T09:50:04Z</time>
</trkpt>
<trkpt lat="49.57875441759825" lon="9.379157032817602">
<ele>388</ele>
<time>2024-05-11T09:50:05Z</time>
</trkpt>
<trkpt lat="49.57877344451845" lon="9.379215203225613">
<ele>387.8</ele>
<time>2024-05-11T09:50:06Z</time>
</trkpt>
<trkpt lat="49.57879255525768" lon="9.379273373633623">
<ele>387.8</ele>
<time>2024-05-11T09:50:07Z</time>
</trkpt>
<trkpt lat="49.578815437853336" lon="9.379333471879365">
<ele>387.8</ele>
<time>2024-05-11T09:50:08Z</time>
</trkpt>
<trkpt lat="49.578838320448995" lon="9.379388792440295">
<ele>387.8</ele>
<time>2024-05-11T09:50:09Z</time>
</trkpt>
<trkpt lat="49.57886120304465" lon="9.379443107172849">
<ele>387.8</ele>
<time>2024-05-11T09:50:10Z</time>
</trkpt>
<trkpt lat="49.57888022996485" lon="9.37949649989605">
<ele>387.8</ele>
<time>2024-05-11T09:50:11Z</time>
</trkpt>
<trkpt lat="49.57890319637954" lon="9.379549976438284">
<ele>387.8</ele>
<time>2024-05-11T09:50:12Z</time>
</trkpt>
<trkpt lat="49.57892222329974" lon="9.379605213180184">
<ele>387.8</ele>
<time>2024-05-11T09:50:13Z</time>
</trkpt>
<trkpt lat="49.57894133403897" lon="9.379661539569495">
<ele>387.8</ele>
<time>2024-05-11T09:50:14Z</time>
</trkpt>
<trkpt lat="49.578956589102745" lon="9.37971686013043">
<ele>387.8</ele>
<time>2024-05-11T09:50:15Z</time>
</trkpt>
<trkpt lat="49.578975616022944" lon="9.37977310270071">
<ele>387.8</ele>
<time>2024-05-11T09:50:16Z</time>
</trkpt>
<trkpt lat="49.57899087108672" lon="9.379830351099372">
<ele>387.8</ele>
<time>2024-05-11T09:50:17Z</time>
</trkpt>
<trkpt lat="49.57900998182595" lon="9.379888521507382">
<ele>387.8</ele>
<time>2024-05-11T09:50:18Z</time>
</trkpt>
<trkpt lat="49.579032864421606" lon="9.379944764077663">
<ele>387.8</ele>
<time>2024-05-11T09:50:19Z</time>
</trkpt>
<trkpt lat="49.579051891341805" lon="9.380002012476323">
<ele>387.8</ele>
<time>2024-05-11T09:50:20Z</time>
</trkpt>
<trkpt lat="49.57907100208104" lon="9.380056327208877">
<ele>387.6</ele>
<time>2024-05-11T09:50:21Z</time>
</trkpt>
<trkpt lat="49.579093884676695" lon="9.380111647769809">
<ele>387.6</ele>
<time>2024-05-11T09:50:22Z</time>
</trkpt>
<trkpt lat="49.57911676727235" lon="9.380165040493011">
<ele>387.6</ele>
<time>2024-05-11T09:50:23Z</time>
</trkpt>
<trkpt lat="49.57914350554347" lon="9.380216589197516">
<ele>387.4</ele>
<time>2024-05-11T09:50:24Z</time>
</trkpt>
<trkpt lat="49.57917015999555" lon="9.380261348560452">
<ele>387.4</ele>
<time>2024-05-11T09:50:25Z</time>
</trkpt>
<trkpt lat="49.5792006701231" lon="9.380305269733071">
<ele>387.4</ele>
<time>2024-05-11T09:50:26Z</time>
</trkpt>
<trkpt lat="49.579235035926104" lon="9.380343407392502">
<ele>387.4</ele>
<time>2024-05-11T09:50:27Z</time>
</trkpt>
<trkpt lat="49.57926940172911" lon="9.380376767367125">
<ele>387.4</ele>
<time>2024-05-11T09:50:28Z</time>
</trkpt>
<trkpt lat="49.57930753938854" lon="9.38040534965694">
<ele>387.4</ele>
<time>2024-05-11T09:50:29Z</time>
</trkpt>
<trkpt lat="49.579349448904395" lon="9.380433009937406">
<ele>387.4</ele>
<time>2024-05-11T09:50:30Z</time>
</trkpt>
<trkpt lat="49.579387586563826" lon="9.380456898361444">
<ele>387.2</ele>
<time>2024-05-11T09:50:31Z</time>
</trkpt>
<trkpt lat="49.579429579898715" lon="9.380477853119372">
<ele>387.2</ele>
<time>2024-05-11T09:50:32Z</time>
</trkpt>
<trkpt lat="49.579467717558146" lon="9.380499813705685">
<ele>387.2</ele>
<time>2024-05-11T09:50:33Z</time>
</trkpt>
<trkpt lat="49.579509710893035" lon="9.380521774291992">
<ele>387.2</ele>
<time>2024-05-11T09:50:34Z</time>
</trkpt>
<trkpt lat="49.57955162040889" lon="9.38054365105927">
<ele>387.2</ele>
<time>2024-05-11T09:50:35Z</time>
</trkpt>
<trkpt lat="49.57959746941924" lon="9.38056468963623">
<ele>387.2</ele>
<time>2024-05-11T09:50:36Z</time>
</trkpt>
<trkpt lat="49.57964323461056" lon="9.380588494241238">
<ele>387.2</ele>
<time>2024-05-11T09:50:37Z</time>
</trkpt>
<trkpt lat="49.57968137226999" lon="9.380615232512357">
<ele>387</ele>
<time>2024-05-11T09:50:38Z</time>
</trkpt>
<trkpt lat="49.579727137461305" lon="9.38064280897379">
<ele>387</ele>
<time>2024-05-11T09:50:39Z</time>
</trkpt>
<trkpt lat="49.57977290265262" lon="9.380668625235558">
<ele>386.8</ele>
<time>2024-05-11T09:50:40Z</time>
</trkpt>
<trkpt lat="49.57981489598751" lon="9.380693435668944">
<ele>386.6</ele>
<time>2024-05-11T09:50:41Z</time>
</trkpt>
<trkpt lat="49.57985680550337" lon="9.380716318264604">
<ele>386.4</ele>
<time>2024-05-11T09:50:42Z</time>
</trkpt>
<trkpt lat="49.57989879883826" lon="9.38073819503188">
<ele>386.2</ele>
<time>2024-05-11T09:50:43Z</time>
</trkpt>
<trkpt lat="49.57993693649769" lon="9.38076208345592">
<ele>386</ele>
<time>2024-05-11T09:50:44Z</time>
</trkpt>
<trkpt lat="49.57997507415712" lon="9.380783038213847">
<ele>385.8</ele>
<time>2024-05-11T09:50:45Z</time>
</trkpt>
<trkpt lat="49.58001706749201" lon="9.38080499880016">
<ele>385.8</ele>
<time>2024-05-11T09:50:46Z</time>
</trkpt>
<trkpt lat="49.58005520515144" lon="9.380826875567436">
<ele>385.8</ele>
<time>2024-05-11T09:50:47Z</time>
</trkpt>
<trkpt lat="49.58009719848633" lon="9.380849758163096">
<ele>385.8</ele>
<time>2024-05-11T09:50:48Z</time>
</trkpt>
<trkpt lat="49.580142963677645" lon="9.380876496434212">
<ele>386</ele>
<time>2024-05-11T09:50:49Z</time>
</trkpt>
<trkpt lat="49.5801848731935" lon="9.3809013068676">
<ele>386</ele>
<time>2024-05-11T09:50:50Z</time>
</trkpt>
<trkpt lat="49.580219238996506" lon="9.38092133961618">
<ele>386</ele>
<time>2024-05-11T09:50:51Z</time>
</trkpt>
<trkpt lat="49.58025352098048" lon="9.38093852251768">
<ele>385.8</ele>
<time>2024-05-11T09:50:52Z</time>
</trkpt>
<trkpt lat="49.58027648739517" lon="9.380953777581452">
<ele>385.8</ele>
<time>2024-05-11T09:50:53Z</time>
</trkpt>
<trkpt lat="49.58029551431537" lon="9.380965176969768">
<ele>385.6</ele>
<time>2024-05-11T09:50:54Z</time>
</trkpt>
<trkpt lat="49.58031076937914" lon="9.380976660177112">
<ele>385.6</ele>
<time>2024-05-11T09:50:55Z</time>
</trkpt>
<trkpt lat="49.58032988011837" lon="9.380989987403154">
<ele>385.6</ele>
<time>2024-05-11T09:50:56Z</time>
</trkpt>
<trkpt lat="49.58034513518214" lon="9.38099954277277">
<ele>385.4</ele>
<time>2024-05-11T09:50:57Z</time>
</trkpt>
<trkpt lat="49.58036416210234" lon="9.381010020151734">
<ele>385.4</ele>
<time>2024-05-11T09:50:58Z</time>
</trkpt>
<trkpt lat="49.58038327284157" lon="9.38101957552135">
<ele>385.4</ele>
<time>2024-05-11T09:50:59Z</time>
</trkpt>
<trkpt lat="49.580398527905345" lon="9.381026197224855">
<ele>385.4</ele>
<time>2024-05-11T09:51:00Z</time>
</trkpt>
<trkpt lat="49.58040992729366" lon="9.381030052900314">
<ele>385.4</ele>
<time>2024-05-11T09:51:01Z</time>
</trkpt>
<trkpt lat="49.580421410501" lon="9.381034830585122">
<ele>385.2</ele>
<time>2024-05-11T09:51:02Z</time>
</trkpt>
<trkpt lat="49.58043280988932" lon="9.38103960826993">
<ele>385.2</ele>
<time>2024-05-11T09:51:03Z</time>
</trkpt>
<trkpt lat="49.58044429309666" lon="9.381043380126355">
<ele>385</ele>
<time>2024-05-11T09:51:04Z</time>
</trkpt>
<trkpt lat="49.58045577630401" lon="9.381048157811165">
<ele>385</ele>
<time>2024-05-11T09:51:05Z</time>
</trkpt>
<trkpt lat="49.58046340383589" lon="9.381050085648894">
<ele>384.8</ele>
<time>2024-05-11T09:51:06Z</time>
</trkpt>
<trkpt lat="49.580474803224206" lon="9.381052935495973">
<ele>384.6</ele>
<time>2024-05-11T09:51:07Z</time>
</trkpt>
<trkpt lat="49.58048628643155" lon="9.38105863519013">
<ele>384.6</ele>
<time>2024-05-11T09:51:08Z</time>
</trkpt>
<trkpt lat="49.58050154149532" lon="9.381063412874935">
<ele>384.6</ele>
<time>2024-05-11T09:51:09Z</time>
</trkpt>
<trkpt lat="49.58051294088364" lon="9.381068190559745">
<ele>384.4</ele>
<time>2024-05-11T09:51:10Z</time>
</trkpt>
<trkpt lat="49.58052442409098" lon="9.381072968244553">
<ele>384.4</ele>
<time>2024-05-11T09:51:11Z</time>
</trkpt>
<trkpt lat="49.58053205162287" lon="9.38107866793871">
<ele>384.2</ele>
<time>2024-05-11T09:51:12Z</time>
</trkpt>
<trkpt lat="49.58054345101118" lon="9.381081517785788">
<ele>384.2</ele>
<time>2024-05-11T09:51:13Z</time>
</trkpt>
<trkpt lat="49.580554934218526" lon="9.381086295470595">
<ele>384.2</ele>
<time>2024-05-11T09:51:14Z</time>
</trkpt>
<trkpt lat="49.58056633360684" lon="9.381091995164752">
<ele>384.2</ele>
<time>2024-05-11T09:51:15Z</time>
</trkpt>
<trkpt lat="49.580577816814184" lon="9.38109870068729">
<ele>384</ele>
<time>2024-05-11T09:51:16Z</time>
</trkpt>
<trkpt lat="49.5805892162025" lon="9.381110183894634">
<ele>384</ele>
<time>2024-05-11T09:51:17Z</time>
</trkpt>
<trkpt lat="49.58060832694173" lon="9.381119655445218">
<ele>384</ele>
<time>2024-05-11T09:51:18Z</time>
</trkpt>
<trkpt lat="49.58062743768096" lon="9.381132060661912">
<ele>384</ele>
<time>2024-05-11T09:51:19Z</time>
</trkpt>
<trkpt lat="49.58065032027662" lon="9.381145471706986">
<ele>383.8</ele>
<time>2024-05-11T09:51:20Z</time>
</trkpt>
<trkpt lat="49.58067320287227" lon="9.381159720942378">
<ele>383.6</ele>
<time>2024-05-11T09:51:21Z</time>
</trkpt>
<trkpt lat="49.58069222979248" lon="9.381173131987453">
<ele>383.6</ele>
<time>2024-05-11T09:51:22Z</time>
</trkpt>
<trkpt lat="49.580715112388134" lon="9.381184531375766">
<ele>383.6</ele>
<time>2024-05-11T09:51:23Z</time>
</trkpt>
<trkpt lat="49.580734223127365" lon="9.381199786439538">
<ele>383.6</ele>
<time>2024-05-11T09:51:24Z</time>
</trkpt>
<trkpt lat="49.580753250047565" lon="9.38121504150331">
<ele>383.6</ele>
<time>2024-05-11T09:51:25Z</time>
</trkpt>
<trkpt lat="49.58076850511134" lon="9.381230296567082">
<ele>383.6</ele>
<time>2024-05-11T09:51:26Z</time>
</trkpt>
<trkpt lat="49.58079147152603" lon="9.381251335144045">
<ele>383.6</ele>
<time>2024-05-11T09:51:27Z</time>
</trkpt>
<trkpt lat="49.58081812597811" lon="9.38127513974905">
<ele>383.6</ele>
<time>2024-05-11T09:51:28Z</time>
</trkpt>
<trkpt lat="49.58084863610566" lon="9.381301878020167">
<ele>383.8</ele>
<time>2024-05-11T09:51:29Z</time>
</trkpt>
<trkpt lat="49.58088300190866" lon="9.381331382319331">
<ele>383.8</ele>
<time>2024-05-11T09:51:30Z</time>
</trkpt>
<trkpt lat="49.58092113956809" lon="9.381364742293954">
<ele>383.6</ele>
<time>2024-05-11T09:51:31Z</time>
</trkpt>
<trkpt lat="49.580955505371094" lon="9.38139625824988">
<ele>383.6</ele>
<time>2024-05-11T09:51:32Z</time>
</trkpt>
<trkpt lat="49.58099364303053" lon="9.381426768377423">
<ele>383.6</ele>
<time>2024-05-11T09:51:33Z</time>
</trkpt>
<trkpt lat="49.581031780689955" lon="9.381451578810813">
<ele>383.6</ele>
<time>2024-05-11T09:51:34Z</time>
</trkpt>
<trkpt lat="49.581066062673926" lon="9.381478233262897">
<ele>383.6</ele>
<time>2024-05-11T09:51:35Z</time>
</trkpt>
<trkpt lat="49.58110042847693" lon="9.381503043696284">
<ele>383.8</ele>
<time>2024-05-11T09:51:36Z</time>
</trkpt>
<trkpt lat="49.58113479427993" lon="9.381526932120323">
<ele>383.8</ele>
<time>2024-05-11T09:51:37Z</time>
</trkpt>
<trkpt lat="49.58117293193936" lon="9.381553586572409">
<ele>383.8</ele>
<time>2024-05-11T09:51:38Z</time>
</trkpt>
<trkpt lat="49.581211069598794" lon="9.381580324843526">
<ele>384</ele>
<time>2024-05-11T09:51:39Z</time>
</trkpt>
<trkpt lat="49.581245351582766" lon="9.381606979295611">
<ele>384.2</ele>
<time>2024-05-11T09:51:40Z</time>
</trkpt>
<trkpt lat="49.58128348924219" lon="9.381633717566729">
<ele>384.4</ele>
<time>2024-05-11T09:51:41Z</time>
</trkpt>
<trkpt lat="49.58132171072066" lon="9.381663305684924">
<ele>384.4</ele>
<time>2024-05-11T09:51:42Z</time>
</trkpt>
<trkpt lat="49.5813522208482" lon="9.381694737821816">
<ele>384.6</ele>
<time>2024-05-11T09:51:43Z</time>
</trkpt>
<trkpt lat="49.581386502832174" lon="9.38173002563417">
<ele>385</ele>
<time>2024-05-11T09:51:44Z</time>
</trkpt>
<trkpt lat="49.581424640491605" lon="9.3817681632936">
<ele>385</ele>
<time>2024-05-11T09:51:45Z</time>
</trkpt>
<trkpt lat="49.58145515061915" lon="9.38181015662849">
<ele>385.2</ele>
<time>2024-05-11T09:51:46Z</time>
</trkpt>
<trkpt lat="49.581485744565725" lon="9.381853071972728">
<ele>385.4</ele>
<time>2024-05-11T09:51:47Z</time>
</trkpt>
<trkpt lat="49.58151239901781" lon="9.381895065307615">
<ele>385.6</ele>
<time>2024-05-11T09:51:48Z</time>
</trkpt>
<trkpt lat="49.581542909145355" lon="9.381937980651855">
<ele>385.8</ele>
<time>2024-05-11T09:51:49Z</time>
</trkpt>
<trkpt lat="49.5815734192729" lon="9.381979890167711">
<ele>386</ele>
<time>2024-05-11T09:51:50Z</time>
</trkpt>
<trkpt lat="49.5816077850759" lon="9.382021883502604">
<ele>386.2</ele>
<time>2024-05-11T09:51:51Z</time>
</trkpt>
<trkpt lat="49.58163829520345" lon="9.38206672668457">
<ele>386.4</ele>
<time>2024-05-11T09:51:52Z</time>
</trkpt>
<trkpt lat="49.58167266100645" lon="9.382109642028809">
<ele>386.6</ele>
<time>2024-05-11T09:51:53Z</time>
</trkpt>
<trkpt lat="49.58170694299042" lon="9.382155407220123">
<ele>386.8</ele>
<time>2024-05-11T09:51:54Z</time>
</trkpt>
<trkpt lat="49.58174508064985" lon="9.38220016658306">
<ele>387.2</ele>
<time>2024-05-11T09:51:55Z</time>
</trkpt>
<trkpt lat="49.581779446452856" lon="9.3822430819273">
<ele>387.4</ele>
<time>2024-05-11T09:51:56Z</time>
</trkpt>
<trkpt lat="49.5818099565804" lon="9.382285075262187">
<ele>387.6</ele>
<time>2024-05-11T09:51:57Z</time>
</trkpt>
<trkpt lat="49.58184809423983" lon="9.382327990606427">
<ele>387.8</ele>
<time>2024-05-11T09:51:58Z</time>
</trkpt>
<trkpt lat="49.58188623189926" lon="9.382371827960014">
<ele>387.8</ele>
<time>2024-05-11T09:51:59Z</time>
</trkpt>
<trkpt lat="49.581916742026806" lon="9.382411893457174">
<ele>388</ele>
<time>2024-05-11T09:52:00Z</time>
</trkpt>
<trkpt lat="49.58195110782981" lon="9.382452964782717">
<ele>388.2</ele>
<time>2024-05-11T09:52:01Z</time>
</trkpt>
<trkpt lat="49.581981617957354" lon="9.382492946460845">
<ele>388.4</ele>
<time>2024-05-11T09:52:02Z</time>
</trkpt>
<trkpt lat="49.5820121280849" lon="9.382534939795732">
<ele>388.6</ele>
<time>2024-05-11T09:52:03Z</time>
</trkpt>
<trkpt lat="49.5820464938879" lon="9.382575005292892">
<ele>388.8</ele>
<time>2024-05-11T09:52:04Z</time>
</trkpt>
<trkpt lat="49.58207314833999" lon="9.382613142952325">
<ele>389</ele>
<time>2024-05-11T09:52:05Z</time>
</trkpt>
<trkpt lat="49.58210365846753" lon="9.382653208449485">
<ele>389</ele>
<time>2024-05-11T09:52:06Z</time>
</trkpt>
<trkpt lat="49.582138024270535" lon="9.38269805163145">
<ele>389.2</ele>
<time>2024-05-11T09:52:07Z</time>
</trkpt>
<trkpt lat="49.58216853439808" lon="9.382741888985038">
<ele>389.2</ele>
<time>2024-05-11T09:52:08Z</time>
</trkpt>
<trkpt lat="49.5821952726692" lon="9.382782876491548">
<ele>389.4</ele>
<time>2024-05-11T09:52:09Z</time>
</trkpt>
<trkpt lat="49.58222578279674" lon="9.382822019979358">
<ele>389.4</ele>
<time>2024-05-11T09:52:10Z</time>
</trkpt>
<trkpt lat="49.58226006478071" lon="9.382860157638788">
<ele>389.4</ele>
<time>2024-05-11T09:52:11Z</time>
</trkpt>
<trkpt lat="49.58228680305183" lon="9.38289636746049">
<ele>389.6</ele>
<time>2024-05-11T09:52:12Z</time>
</trkpt>
<trkpt lat="49.582317313179374" lon="9.382933583110573">
<ele>389.6</ele>
<time>2024-05-11T09:52:13Z</time>
</trkpt>
<trkpt lat="49.58234782330692" lon="9.38297172077">
<ele>389.6</ele>
<time>2024-05-11T09:52:14Z</time>
</trkpt>
<trkpt lat="49.58237833343446" lon="9.383009858429432">
<ele>389.6</ele>
<time>2024-05-11T09:52:15Z</time>
</trkpt>
<trkpt lat="49.58240507170558" lon="9.383047074079514">
<ele>389.8</ele>
<time>2024-05-11T09:52:16Z</time>
</trkpt>
<trkpt lat="49.582431726157665" lon="9.383083283901216">
<ele>390</ele>
<time>2024-05-11T09:52:17Z</time>
</trkpt>
<trkpt lat="49.58245846442878" lon="9.38311479985714">
<ele>390.2</ele>
<time>2024-05-11T09:52:18Z</time>
</trkpt>
<trkpt lat="49.58248511888087" lon="9.383143382146956">
<ele>390.2</ele>
<time>2024-05-11T09:52:19Z</time>
</trkpt>
<trkpt lat="49.58250808529556" lon="9.383168192580342">
<ele>390.4</ele>
<time>2024-05-11T09:52:20Z</time>
</trkpt>
<trkpt lat="49.58252711221576" lon="9.38319300301373">
<ele>390.4</ele>
<time>2024-05-11T09:52:21Z</time>
</trkpt>
<trkpt lat="49.582549994811416" lon="9.38321303576231">
<ele>390.4</ele>
<time>2024-05-11T09:52:22Z</time>
</trkpt>
<trkpt lat="49.58256910555065" lon="9.38323206268251">
<ele>390.4</ele>
<time>2024-05-11T09:52:23Z</time>
</trkpt>
<trkpt lat="49.582588132470846" lon="9.383246395736933">
<ele>390.6</ele>
<time>2024-05-11T09:52:24Z</time>
</trkpt>
<trkpt lat="49.582611015066504" lon="9.383259722962976">
<ele>390.8</ele>
<time>2024-05-11T09:52:25Z</time>
</trkpt>
<trkpt lat="49.58263389766216" lon="9.383268356323242">
<ele>390.8</ele>
<time>2024-05-11T09:52:26Z</time>
</trkpt>
<trkpt lat="49.58265678025782" lon="9.383279755711555">
<ele>391</ele>
<time>2024-05-11T09:52:27Z</time>
</trkpt>
<trkpt lat="49.58267974667251" lon="9.3832912389189">
<ele>391</ele>
<time>2024-05-11T09:52:28Z</time>
</trkpt>
<trkpt lat="49.58270262926817" lon="9.383304566144943">
<ele>391.2</ele>
<time>2024-05-11T09:52:29Z</time>
</trkpt>
<trkpt lat="49.58272551186383" lon="9.383316971361635">
<ele>391.2</ele>
<time>2024-05-11T09:52:30Z</time>
</trkpt>
<trkpt lat="49.58275216631591" lon="9.383331220597029">
<ele>391.2</ele>
<time>2024-05-11T09:52:31Z</time>
</trkpt>
<trkpt lat="49.582790303975344" lon="9.383355109021068">
<ele>391.2</ele>
<time>2024-05-11T09:52:32Z</time>
</trkpt>
<trkpt lat="49.582828441634774" lon="9.383373213931918">
<ele>391.2</ele>
<time>2024-05-11T09:52:33Z</time>
</trkpt>
<trkpt lat="49.58286280743778" lon="9.38339039683342">
<ele>391</ele>
<time>2024-05-11T09:52:34Z</time>
</trkpt>
<trkpt lat="49.58290094509721" lon="9.383413279429078">
<ele>391</ele>
<time>2024-05-11T09:52:35Z</time>
</trkpt>
<trkpt lat="49.58293908275664" lon="9.383438089862466">
<ele>391</ele>
<time>2024-05-11T09:52:36Z</time>
</trkpt>
<trkpt lat="49.58297344855964" lon="9.38346859999001">
<ele>391</ele>
<time>2024-05-11T09:52:37Z</time>
</trkpt>
<trkpt lat="49.58300773054361" lon="9.383501959964631">
<ele>391</ele>
<time>2024-05-11T09:52:38Z</time>
</trkpt>
<trkpt lat="49.58303832449019" lon="9.383538169786334">
<ele>391</ele>
<time>2024-05-11T09:52:39Z</time>
</trkpt>
<trkpt lat="49.583068834617734" lon="9.383576391264796">
<ele>391</ele>
<time>2024-05-11T09:52:40Z</time>
</trkpt>
<trkpt lat="49.58309934474528" lon="9.383616372942924">
<ele>391</ele>
<time>2024-05-11T09:52:41Z</time>
</trkpt>
<trkpt lat="49.58312985487282" lon="9.383656438440084">
<ele>391</ele>
<time>2024-05-11T09:52:42Z</time>
</trkpt>
<trkpt lat="49.58315650932491" lon="9.383696503937244">
<ele>391</ele>
<time>2024-05-11T09:52:43Z</time>
</trkpt>
<trkpt lat="49.58318710327149" lon="9.383736569434404">
<ele>391.2</ele>
<time>2024-05-11T09:52:44Z</time>
</trkpt>
<trkpt lat="49.58321761339903" lon="9.383774707093837">
<ele>391.4</ele>
<time>2024-05-11T09:52:45Z</time>
</trkpt>
<trkpt lat="49.58324812352657" lon="9.383812844753264">
<ele>391.6</ele>
<time>2024-05-11T09:52:46Z</time>
</trkpt>
<trkpt lat="49.58327863365412" lon="9.383851988241076">
<ele>391.6</ele>
<time>2024-05-11T09:52:47Z</time>
</trkpt>
<trkpt lat="49.58330914378166" lon="9.383890125900509">
<ele>391.8</ele>
<time>2024-05-11T09:52:48Z</time>
</trkpt>
<trkpt lat="49.583339653909206" lon="9.383928263559936">
<ele>392</ele>
<time>2024-05-11T09:52:49Z</time>
</trkpt>
<trkpt lat="49.58337016403675" lon="9.383968329057096">
<ele>392.2</ele>
<time>2024-05-11T09:52:50Z</time>
</trkpt>
<trkpt lat="49.58339690230787" lon="9.384008394554256">
<ele>392.4</ele>
<time>2024-05-11T09:52:51Z</time>
</trkpt>
<trkpt lat="49.58343118429184" lon="9.384048460051416">
<ele>392.4</ele>
<time>2024-05-11T09:52:52Z</time>
</trkpt>
<trkpt lat="49.583461694419384" lon="9.384091375395656">
<ele>392.6</ele>
<time>2024-05-11T09:52:53Z</time>
</trkpt>
<trkpt lat="49.58349220454693" lon="9.384133284911512">
<ele>392.6</ele>
<time>2024-05-11T09:52:54Z</time>
</trkpt>
<trkpt lat="49.58352271467447" lon="9.384173350408672">
<ele>392.8</ele>
<time>2024-05-11T09:52:55Z</time>
</trkpt>
<trkpt lat="49.58354945294559" lon="9.384211488068104">
<ele>393</ele>
<time>2024-05-11T09:52:56Z</time>
</trkpt>
<trkpt lat="49.583579963073134" lon="9.384249625727534">
<ele>393.2</ele>
<time>2024-05-11T09:52:57Z</time>
</trkpt>
<trkpt lat="49.58360670134425" lon="9.384288769215344">
<ele>393.2</ele>
<time>2024-05-11T09:52:58Z</time>
</trkpt>
<trkpt lat="49.58363721147179" lon="9.384326906874776">
<ele>393.4</ele>
<time>2024-05-11T09:52:59Z</time>
</trkpt>
<trkpt lat="49.58367149345577" lon="9.384366972371936">
<ele>393.6</ele>
<time>2024-05-11T09:53:00Z</time>
</trkpt>
<trkpt lat="49.583702087402344" lon="9.384407959878445">
<ele>393.6</ele>
<time>2024-05-11T09:53:01Z</time>
</trkpt>
<trkpt lat="49.58373259752989" lon="9.384443247690797">
<ele>393.6</ele>
<time>2024-05-11T09:53:02Z</time>
</trkpt>
<trkpt lat="49.583759251981974" lon="9.384479457512498">
<ele>393.8</ele>
<time>2024-05-11T09:53:03Z</time>
</trkpt>
<trkpt lat="49.58378976210952" lon="9.384518601000307">
<ele>393.8</ele>
<time>2024-05-11T09:53:04Z</time>
</trkpt>
<trkpt lat="49.583816500380635" lon="9.38455673865974">
<ele>393.8</ele>
<time>2024-05-11T09:53:05Z</time>
</trkpt>
<trkpt lat="49.58384701050818" lon="9.38459487631917">
<ele>393.8</ele>
<time>2024-05-11T09:53:06Z</time>
</trkpt>
<trkpt lat="49.5838737487793" lon="9.38463494181633">
<ele>393.8</ele>
<time>2024-05-11T09:53:07Z</time>
</trkpt>
<trkpt lat="49.58390425890684" lon="9.38467307947576">
<ele>393.8</ele>
<time>2024-05-11T09:53:08Z</time>
</trkpt>
<trkpt lat="49.583934769034386" lon="9.38471314497292">
<ele>393.8</ele>
<time>2024-05-11T09:53:09Z</time>
</trkpt>
<trkpt lat="49.58396527916193" lon="9.384751282632353">
<ele>393.8</ele>
<time>2024-05-11T09:53:10Z</time>
</trkpt>
<trkpt lat="49.583995789289474" lon="9.38479134812951">
<ele>393.8</ele>
<time>2024-05-11T09:53:11Z</time>
</trkpt>
<trkpt lat="49.58402244374156" lon="9.38483040779829">
<ele>393.8</ele>
<time>2024-05-11T09:53:12Z</time>
</trkpt>
<trkpt lat="49.584053037688136" lon="9.38486854545772">
<ele>394</ele>
<time>2024-05-11T09:53:13Z</time>
</trkpt>
<trkpt lat="49.584075920283794" lon="9.384906766936185">
<ele>394</ele>
<time>2024-05-11T09:53:14Z</time>
</trkpt>
<trkpt lat="49.58410643041134" lon="9.38494867645204">
<ele>394.2</ele>
<time>2024-05-11T09:53:15Z</time>
</trkpt>
<trkpt lat="49.584133084863424" lon="9.3849887419492">
<ele>394.2</ele>
<time>2024-05-11T09:53:16Z</time>
</trkpt>
<trkpt lat="49.58415982313454" lon="9.385026879608631">
<ele>394.4</ele>
<time>2024-05-11T09:53:17Z</time>
</trkpt>
<trkpt lat="49.584190333262086" lon="9.385066945105793">
<ele>394.4</ele>
<time>2024-05-11T09:53:18Z</time>
</trkpt>
<trkpt lat="49.58422084338963" lon="9.385105082765222">
<ele>394.6</ele>
<time>2024-05-11T09:53:19Z</time>
</trkpt>
<trkpt lat="49.584251353517175" lon="9.385143220424652">
<ele>394.6</ele>
<time>2024-05-11T09:53:20Z</time>
</trkpt>
<trkpt lat="49.58428186364472" lon="9.385183285921812">
<ele>394.8</ele>
<time>2024-05-11T09:53:21Z</time>
</trkpt>
<trkpt lat="49.58430860191584" lon="9.385223351418972">
<ele>394.8</ele>
<time>2024-05-11T09:53:22Z</time>
</trkpt>
<trkpt lat="49.58433911204338" lon="9.385261489078404">
<ele>394.8</ele>
<time>2024-05-11T09:53:23Z</time>
</trkpt>
<trkpt lat="49.584369622170925" lon="9.385299626737831">
<ele>394.8</ele>
<time>2024-05-11T09:53:24Z</time>
</trkpt>
<trkpt lat="49.58439636044204" lon="9.385338770225644">
<ele>394.8</ele>
<time>2024-05-11T09:53:25Z</time>
</trkpt>
<trkpt lat="49.58442687056959" lon="9.385377829894423">
<ele>395</ele>
<time>2024-05-11T09:53:26Z</time>
</trkpt>
<trkpt lat="49.58445738069713" lon="9.385421751067042">
<ele>395</ele>
<time>2024-05-11T09:53:27Z</time>
</trkpt>
<trkpt lat="49.58448403514922" lon="9.38546173274517">
<ele>395</ele>
<time>2024-05-11T09:53:28Z</time>
</trkpt>
<trkpt lat="49.584510773420334" lon="9.385499954223633">
<ele>395</ele>
<time>2024-05-11T09:53:29Z</time>
</trkpt>
<trkpt lat="49.58454128354788" lon="9.38553993590176">
<ele>395</ele>
<time>2024-05-11T09:53:30Z</time>
</trkpt>
<trkpt lat="49.58457179367542" lon="9.38558000139892">
<ele>395</ele>
<time>2024-05-11T09:53:31Z</time>
</trkpt>
<trkpt lat="49.58459853194654" lon="9.38562006689608">
<ele>395</ele>
<time>2024-05-11T09:53:32Z</time>
</trkpt>
<trkpt lat="49.58462904207408" lon="9.38566013239324">
<ele>395</ele>
<time>2024-05-11T09:53:33Z</time>
</trkpt>
<trkpt lat="49.58465955220163" lon="9.3857001978904">
<ele>395</ele>
<time>2024-05-11T09:53:34Z</time>
</trkpt>
<trkpt lat="49.58469006232917" lon="9.38574118539691">
<ele>395</ele>
<time>2024-05-11T09:53:35Z</time>
</trkpt>
<trkpt lat="49.584724344313145" lon="9.385786950588226">
<ele>395</ele>
<time>2024-05-11T09:53:36Z</time>
</trkpt>
<trkpt lat="49.58475493825972" lon="9.385827016085386">
<ele>395</ele>
<time>2024-05-11T09:53:37Z</time>
</trkpt>
<trkpt lat="49.58478922024369" lon="9.385868003591897">
<ele>395</ele>
<time>2024-05-11T09:53:38Z</time>
</trkpt>
<trkpt lat="49.58481973037124" lon="9.385909996926785">
<ele>394.8</ele>
<time>2024-05-11T09:53:39Z</time>
</trkpt>
<trkpt lat="49.58485024049878" lon="9.385951990261674">
<ele>394.8</ele>
<time>2024-05-11T09:53:40Z</time>
</trkpt>
<trkpt lat="49.584880750626326" lon="9.385994905605912">
<ele>394.8</ele>
<time>2024-05-11T09:53:41Z</time>
</trkpt>
<trkpt lat="49.58491511642933" lon="9.3860387429595">
<ele>394.8</ele>
<time>2024-05-11T09:53:42Z</time>
</trkpt>
<trkpt lat="49.584941854700446" lon="9.386079730466008">
<ele>394.8</ele>
<time>2024-05-11T09:53:43Z</time>
</trkpt>
<trkpt lat="49.58497236482799" lon="9.386121723800898">
<ele>394.8</ele>
<time>2024-05-11T09:53:44Z</time>
</trkpt>
<trkpt lat="49.58499901928008" lon="9.386163633316755">
<ele>394.8</ele>
<time>2024-05-11T09:53:45Z</time>
</trkpt>
<trkpt lat="49.58503338508308" lon="9.386208476498725">
<ele>394.8</ele>
<time>2024-05-11T09:53:46Z</time>
</trkpt>
<trkpt lat="49.585063895210624" lon="9.38625139184296">
<ele>394.8</ele>
<time>2024-05-11T09:53:47Z</time>
</trkpt>
<trkpt lat="49.58509440533817" lon="9.38629145734012">
<ele>394.8</ele>
<time>2024-05-11T09:53:48Z</time>
</trkpt>
<trkpt lat="49.58512491546571" lon="9.38633152283728">
<ele>394.8</ele>
<time>2024-05-11T09:53:49Z</time>
</trkpt>
<trkpt lat="49.58515165373683" lon="9.38637351617217">
<ele>394.8</ele>
<time>2024-05-11T09:53:50Z</time>
</trkpt>
<trkpt lat="49.585178308188915" lon="9.386415425688028">
<ele>394.8</ele>
<time>2024-05-11T09:53:51Z</time>
</trkpt>
<trkpt lat="49.58520881831646" lon="9.38645456917584">
<ele>395</ele>
<time>2024-05-11T09:53:52Z</time>
</trkpt>
<trkpt lat="49.58523555658758" lon="9.386494634673">
<ele>395</ele>
<time>2024-05-11T09:53:53Z</time>
</trkpt>
<trkpt lat="49.585262294858694" lon="9.38653176650405">
<ele>395.2</ele>
<time>2024-05-11T09:53:54Z</time>
</trkpt>
<trkpt lat="49.58528894931078" lon="9.38657183200121">
<ele>395.2</ele>
<time>2024-05-11T09:53:55Z</time>
</trkpt>
<trkpt lat="49.5853156875819" lon="9.38660996966064">
<ele>395.4</ele>
<time>2024-05-11T09:53:56Z</time>
</trkpt>
<trkpt lat="49.58534234203398" lon="9.38665196299553">
<ele>395.6</ele>
<time>2024-05-11T09:53:57Z</time>
</trkpt>
<trkpt lat="49.5853690803051" lon="9.38669202849269">
<ele>395.8</ele>
<time>2024-05-11T09:53:58Z</time>
</trkpt>
<trkpt lat="49.585395734757185" lon="9.38673016615212">
<ele>395.8</ele>
<time>2024-05-11T09:53:59Z</time>
</trkpt>
<trkpt lat="49.5854224730283" lon="9.38677023164928">
<ele>396</ele>
<time>2024-05-11T09:54:00Z</time>
</trkpt>
<trkpt lat="49.58545298315585" lon="9.38681029714644">
<ele>396.2</ele>
<time>2024-05-11T09:54:01Z</time>
</trkpt>
<trkpt lat="49.58547972142696" lon="9.386851284652948">
<ele>396.4</ele>
<time>2024-05-11T09:54:02Z</time>
</trkpt>
<trkpt lat="49.58550637587905" lon="9.386895122006536">
<ele>396.4</ele>
<time>2024-05-11T09:54:03Z</time>
</trkpt>
<trkpt lat="49.58553311415017" lon="9.386941893026233">
<ele>396.6</ele>
<time>2024-05-11T09:54:04Z</time>
</trkpt>
<trkpt lat="49.58555976860225" lon="9.38698958605528">
<ele>396.6</ele>
<time>2024-05-11T09:54:05Z</time>
</trkpt>
<trkpt lat="49.58559036254883" lon="9.387040128931403">
<ele>396.6</ele>
<time>2024-05-11T09:54:06Z</time>
</trkpt>
<trkpt lat="49.585617017000914" lon="9.387091593816876">
<ele>396.6</ele>
<time>2024-05-11T09:54:07Z</time>
</trkpt>
<trkpt lat="49.58564375527203" lon="9.38714498654008">
<ele>396.4</ele>
<time>2024-05-11T09:54:08Z</time>
</trkpt>
<trkpt lat="49.585674265399575" lon="9.38720122911036">
<ele>396.4</ele>
<time>2024-05-11T09:54:09Z</time>
</trkpt>
<trkpt lat="49.58570091985166" lon="9.38726325519383">
<ele>396.2</ele>
<time>2024-05-11T09:54:10Z</time>
</trkpt>
<trkpt lat="49.58572380244732" lon="9.387328131124375">
<ele>396.2</ele>
<time>2024-05-11T09:54:11Z</time>
</trkpt>
<trkpt lat="49.58574668504298" lon="9.387396778911352">
<ele>396.2</ele>
<time>2024-05-11T09:54:12Z</time>
</trkpt>
<trkpt lat="49.58576202392578" lon="9.387466348707676">
<ele>396</ele>
<time>2024-05-11T09:54:13Z</time>
</trkpt>
<trkpt lat="49.58577727898955" lon="9.387543629854918">
<ele>395.8</ele>
<time>2024-05-11T09:54:14Z</time>
</trkpt>
<trkpt lat="49.58578867837787" lon="9.38761806115508">
<ele>395.6</ele>
<time>2024-05-11T09:54:15Z</time>
</trkpt>
<trkpt lat="49.58580016158521" lon="9.387698108330367">
<ele>395.4</ele>
<time>2024-05-11T09:54:16Z</time>
</trkpt>
<trkpt lat="49.5858077891171" lon="9.387778239324687">
<ele>395.4</ele>
<time>2024-05-11T09:54:17Z</time>
</trkpt>
<trkpt lat="49.58581918850541" lon="9.387861220166087">
<ele>395.2</ele>
<time>2024-05-11T09:54:18Z</time>
</trkpt>
<trkpt lat="49.58583444356918" lon="9.387947050854564">
<ele>395</ele>
<time>2024-05-11T09:54:19Z</time>
</trkpt>
<trkpt lat="49.58584207110107" lon="9.388030031695962">
<ele>394.8</ele>
<time>2024-05-11T09:54:20Z</time>
</trkpt>
<trkpt lat="49.585853554308414" lon="9.388114856556058">
<ele>394.8</ele>
<time>2024-05-11T09:54:21Z</time>
</trkpt>
<trkpt lat="49.58586495369673" lon="9.388201693072917">
<ele>394.8</ele>
<time>2024-05-11T09:54:22Z</time>
</trkpt>
<trkpt lat="49.585872581228614" lon="9.388286517933013">
<ele>394.6</ele>
<time>2024-05-11T09:54:23Z</time>
</trkpt>
<trkpt lat="49.58588406443596" lon="9.38836949877441">
<ele>394.4</ele>
<time>2024-05-11T09:54:24Z</time>
</trkpt>
<trkpt lat="49.585891691967845" lon="9.388453401625156">
<ele>394.2</ele>
<time>2024-05-11T09:54:25Z</time>
</trkpt>
<trkpt lat="49.58590309135616" lon="9.388536382466556">
<ele>394</ele>
<time>2024-05-11T09:54:26Z</time>
</trkpt>
<trkpt lat="49.58591071888805" lon="9.388620369136332">
<ele>394</ele>
<time>2024-05-11T09:54:27Z</time>
</trkpt>
<trkpt lat="49.58591834641993" lon="9.3887032661587">
<ele>393.8</ele>
<time>2024-05-11T09:54:28Z</time>
</trkpt>
<trkpt lat="49.585929829627275" lon="9.388786247000098">
<ele>393.8</ele>
<time>2024-05-11T09:54:29Z</time>
</trkpt>
<trkpt lat="49.58593745715916" lon="9.388870233669875">
<ele>393.8</ele>
<time>2024-05-11T09:54:30Z</time>
</trkpt>
<trkpt lat="49.58594894036651" lon="9.388951286673546">
<ele>393.6</ele>
<time>2024-05-11T09:54:31Z</time>
</trkpt>
<trkpt lat="49.58595656789839" lon="9.389033261686563">
<ele>393.4</ele>
<time>2024-05-11T09:54:32Z</time>
</trkpt>
<trkpt lat="49.585967967286706" lon="9.389111464843154">
<ele>393.2</ele>
<time>2024-05-11T09:54:33Z</time>
</trkpt>
<trkpt lat="49.58597559481859" lon="9.389191595837474">
<ele>393</ele>
<time>2024-05-11T09:54:34Z</time>
</trkpt>
<trkpt lat="49.58598322235048" lon="9.389273570850492">
<ele>392.8</ele>
<time>2024-05-11T09:54:35Z</time>
</trkpt>
<trkpt lat="49.58599847741425" lon="9.38935462385416">
<ele>392.8</ele>
<time>2024-05-11T09:54:36Z</time>
</trkpt>
<trkpt lat="49.58600610494614" lon="9.389439532533288">
<ele>392.8</ele>
<time>2024-05-11T09:54:37Z</time>
</trkpt>
<trkpt lat="49.58601758815348" lon="9.389523435384037">
<ele>392.6</ele>
<time>2024-05-11T09:54:38Z</time>
</trkpt>
<trkpt lat="49.58602521568537" lon="9.389604488387704">
<ele>392.6</ele>
<time>2024-05-11T09:54:39Z</time>
</trkpt>
<trkpt lat="49.58603661507368" lon="9.389683697372677">
<ele>392.6</ele>
<time>2024-05-11T09:54:40Z</time>
</trkpt>
<trkpt lat="49.586048098281026" lon="9.389757122844458">
<ele>392.8</ele>
<time>2024-05-11T09:54:41Z</time>
</trkpt>
<trkpt lat="49.58605949766934" lon="9.389829626306891">
<ele>392.8</ele>
<time>2024-05-11T09:54:42Z</time>
</trkpt>
<trkpt lat="49.58607098087669" lon="9.389902045950294">
<ele>392.8</ele>
<time>2024-05-11T09:54:43Z</time>
</trkpt>
<trkpt lat="49.58607860840857" lon="9.389971699565647">
<ele>392.8</ele>
<time>2024-05-11T09:54:44Z</time>
</trkpt>
<trkpt lat="49.58609000779688" lon="9.390040347352624">
<ele>392.8</ele>
<time>2024-05-11T09:54:45Z</time>
</trkpt>
<trkpt lat="49.58609763532877" lon="9.39010614529252">
<ele>392.6</ele>
<time>2024-05-11T09:54:46Z</time>
</trkpt>
<trkpt lat="49.586109118536115" lon="9.390172949060798">
<ele>392.6</ele>
<time>2024-05-11T09:54:47Z</time>
</trkpt>
<trkpt lat="49.58612060174346" lon="9.390239669010043">
<ele>392.4</ele>
<time>2024-05-11T09:54:48Z</time>
</trkpt>
<trkpt lat="49.58613200113177" lon="9.39030454494059">
<ele>392.4</ele>
<time>2024-05-11T09:54:49Z</time>
</trkpt>
<trkpt lat="49.58613962866366" lon="9.390370342880487">
<ele>392.4</ele>
<time>2024-05-11T09:54:50Z</time>
</trkpt>
<trkpt lat="49.58615111187101" lon="9.390438068658112">
<ele>392.4</ele>
<time>2024-05-11T09:54:51Z</time>
</trkpt>
<trkpt lat="49.58615873940289" lon="9.390506716445088">
<ele>392.4</ele>
<time>2024-05-11T09:54:52Z</time>
</trkpt>
<trkpt lat="49.5861701387912" lon="9.390576286241412">
<ele>392.4</ele>
<time>2024-05-11T09:54:53Z</time>
</trkpt>
<trkpt lat="49.58618162199855" lon="9.39064309000969">
<ele>392.4</ele>
<time>2024-05-11T09:54:54Z</time>
</trkpt>
<trkpt lat="49.58619687706232" lon="9.390711737796664">
<ele>392.4</ele>
<time>2024-05-11T09:54:55Z</time>
</trkpt>
<trkpt lat="49.58620450459421" lon="9.39078139141202">
<ele>392.4</ele>
<time>2024-05-11T09:54:56Z</time>
</trkpt>
<trkpt lat="49.58621590398252" lon="9.390850039198996">
<ele>392.4</ele>
<time>2024-05-11T09:54:57Z</time>
</trkpt>
<trkpt lat="49.586227387189865" lon="9.39091868698597">
<ele>392.2</ele>
<time>2024-05-11T09:54:58Z</time>
</trkpt>
<trkpt lat="49.58623501472175" lon="9.390985406935217">
<ele>392.2</ele>
<time>2024-05-11T09:54:59Z</time>
</trkpt>
<trkpt lat="49.586246414110065" lon="9.391050282865764">
<ele>392.2</ele>
<time>2024-05-11T09:55:00Z</time>
</trkpt>
<trkpt lat="49.58626166917384" lon="9.39111515879631">
<ele>392.2</ele>
<time>2024-05-11T09:55:01Z</time>
</trkpt>
<trkpt lat="49.58626929670572" lon="9.391178106889129">
<ele>392.2</ele>
<time>2024-05-11T09:55:02Z</time>
</trkpt>
<trkpt lat="49.58628077991307" lon="9.391242899000645">
<ele>392.2</ele>
<time>2024-05-11T09:55:03Z</time>
</trkpt>
<trkpt lat="49.58629603497684" lon="9.391306852921844">
<ele>392.2</ele>
<time>2024-05-11T09:55:04Z</time>
</trkpt>
<trkpt lat="49.58631129004061" lon="9.391369801014662">
<ele>392.2</ele>
<time>2024-05-11T09:55:05Z</time>
</trkpt>
<trkpt lat="49.58633040077984" lon="9.391433671116827">
<ele>392.2</ele>
<time>2024-05-11T09:55:06Z</time>
</trkpt>
<trkpt lat="49.58634942770004" lon="9.391496619209647">
<ele>392</ele>
<time>2024-05-11T09:55:07Z</time>
</trkpt>
<trkpt lat="49.5863723102957" lon="9.391559567302464">
<ele>392</ele>
<time>2024-05-11T09:55:08Z</time>
</trkpt>
<trkpt lat="49.58639904856682" lon="9.391623437404633">
<ele>392</ele>
<time>2024-05-11T09:55:09Z</time>
</trkpt>
<trkpt lat="49.58642955869436" lon="9.391681607812645">
<ele>392</ele>
<time>2024-05-11T09:55:10Z</time>
</trkpt>
<trkpt lat="49.58646006882191" lon="9.391739778220654">
<ele>392</ele>
<time>2024-05-11T09:55:11Z</time>
</trkpt>
<trkpt lat="49.58649057894945" lon="9.391797026619315">
<ele>392.2</ele>
<time>2024-05-11T09:55:12Z</time>
</trkpt>
<trkpt lat="49.586524944752455" lon="9.391849497333167">
<ele>392.2</ele>
<time>2024-05-11T09:55:13Z</time>
</trkpt>
<trkpt lat="49.58655545488" lon="9.3919048178941">
<ele>392.4</ele>
<time>2024-05-11T09:55:14Z</time>
</trkpt>
<trkpt lat="49.58658973686397" lon="9.391960138455032">
<ele>392.6</ele>
<time>2024-05-11T09:55:15Z</time>
</trkpt>
<trkpt lat="49.58663173019886" lon="9.392013531178236">
<ele>392.6</ele>
<time>2024-05-11T09:55:16Z</time>
</trkpt>
<trkpt lat="49.58666986785829" lon="9.39206499606371">
<ele>392.8</ele>
<time>2024-05-11T09:55:17Z</time>
</trkpt>
<trkpt lat="49.58670800551772" lon="9.392111767083406">
<ele>392.8</ele>
<time>2024-05-11T09:55:18Z</time>
</trkpt>
<trkpt lat="49.58674999885261" lon="9.392158454284072">
<ele>393</ele>
<time>2024-05-11T09:55:19Z</time>
</trkpt>
<trkpt lat="49.58678813651204" lon="9.392206147313118">
<ele>393</ele>
<time>2024-05-11T09:55:20Z</time>
</trkpt>
<trkpt lat="49.58683012984693" lon="9.392251912504436">
<ele>393</ele>
<time>2024-05-11T09:55:21Z</time>
</trkpt>
<trkpt lat="49.58686826750636" lon="9.392294827848673">
<ele>393</ele>
<time>2024-05-11T09:55:22Z</time>
</trkpt>
<trkpt lat="49.58690254949033" lon="9.39234159886837">
<ele>393.2</ele>
<time>2024-05-11T09:55:23Z</time>
</trkpt>
<trkpt lat="49.58694068714976" lon="9.392386358231306">
<ele>393.2</ele>
<time>2024-05-11T09:55:24Z</time>
</trkpt>
<trkpt lat="49.586975052952766" lon="9.392430279403923">
<ele>393.2</ele>
<time>2024-05-11T09:55:25Z</time>
</trkpt>
<trkpt lat="49.5870131906122" lon="9.392470344901083">
<ele>393.2</ele>
<time>2024-05-11T09:55:26Z</time>
</trkpt>
<trkpt lat="49.5870475564152" lon="9.392510410398245">
<ele>393.4</ele>
<time>2024-05-11T09:55:27Z</time>
</trkpt>
<trkpt lat="49.58708569407463" lon="9.392551397904754">
<ele>393.4</ele>
<time>2024-05-11T09:55:28Z</time>
</trkpt>
<trkpt lat="49.5871199760586" lon="9.392593307420611">
<ele>393.6</ele>
<time>2024-05-11T09:55:29Z</time>
</trkpt>
<trkpt lat="49.587158197537065" lon="9.3926353007555">
<ele>393.6</ele>
<time>2024-05-11T09:55:30Z</time>
</trkpt>
<trkpt lat="49.58718870766461" lon="9.39267628826201">
<ele>393.6</ele>
<time>2024-05-11T09:55:31Z</time>
</trkpt>
<trkpt lat="49.58722684532404" lon="9.392721131443976">
<ele>393.6</ele>
<time>2024-05-11T09:55:32Z</time>
</trkpt>
<trkpt lat="49.58726498298347" lon="9.392764968797565">
<ele>393.6</ele>
<time>2024-05-11T09:55:33Z</time>
</trkpt>
<trkpt lat="49.58730697631836" lon="9.392807884141805">
<ele>393.6</ele>
<time>2024-05-11T09:55:34Z</time>
</trkpt>
<trkpt lat="49.58734888583422" lon="9.392851805314422">
<ele>393.6</ele>
<time>2024-05-11T09:55:35Z</time>
</trkpt>
<trkpt lat="49.58738702349365" lon="9.392889942973852">
<ele>393.6</ele>
<time>2024-05-11T09:55:36Z</time>
</trkpt>
<trkpt lat="49.58742516115308" lon="9.392931936308742">
<ele>393.6</ele>
<time>2024-05-11T09:55:37Z</time>
</trkpt>
<trkpt lat="49.58745952695608" lon="9.392970073968172">
<ele>393.8</ele>
<time>2024-05-11T09:55:38Z</time>
</trkpt>
<trkpt lat="49.587493892759085" lon="9.39301298931241">
<ele>393.8</ele>
<time>2024-05-11T09:55:39Z</time>
</trkpt>
<trkpt lat="49.587528174743056" lon="9.393058754503729">
<ele>393.8</ele>
<time>2024-05-11T09:55:40Z</time>
</trkpt>
<trkpt lat="49.58756631240249" lon="9.39310829155147">
<ele>394</ele>
<time>2024-05-11T09:55:41Z</time>
</trkpt>
<trkpt lat="49.58760067820549" lon="9.39314835704863">
<ele>394.2</ele>
<time>2024-05-11T09:55:42Z</time>
</trkpt>
<trkpt lat="49.587631188333035" lon="9.39319035038352">
<ele>394.4</ele>
<time>2024-05-11T09:55:43Z</time>
</trkpt>
<trkpt lat="49.58766555413604" lon="9.393237037584186">
<ele>394.6</ele>
<time>2024-05-11T09:55:44Z</time>
</trkpt>
<trkpt lat="49.58769606426358" lon="9.393281880766152">
<ele>394.6</ele>
<time>2024-05-11T09:55:45Z</time>
</trkpt>
<trkpt lat="49.58772657439113" lon="9.393324796110392">
<ele>394.8</ele>
<time>2024-05-11T09:55:46Z</time>
</trkpt>
<trkpt lat="49.58775322884321" lon="9.393364861607552">
<ele>394.8</ele>
<time>2024-05-11T09:55:47Z</time>
</trkpt>
<trkpt lat="49.58778373897076" lon="9.393404927104712">
<ele>394.8</ele>
<time>2024-05-11T09:55:48Z</time>
</trkpt>
<trkpt lat="49.587810477241874" lon="9.393444992601871">
<ele>395</ele>
<time>2024-05-11T09:55:49Z</time>
</trkpt>
<trkpt lat="49.58784098736942" lon="9.393483130261302">
<ele>395</ele>
<time>2024-05-11T09:55:50Z</time>
</trkpt>
<trkpt lat="49.58787149749696" lon="9.393523195758462">
<ele>395.2</ele>
<time>2024-05-11T09:55:51Z</time>
</trkpt>
<trkpt lat="49.58789823576808" lon="9.393563261255622">
<ele>395.4</ele>
<time>2024-05-11T09:55:52Z</time>
</trkpt>
<trkpt lat="49.587928745895624" lon="9.39360617659986">
<ele>395.4</ele>
<time>2024-05-11T09:55:53Z</time>
</trkpt>
<trkpt lat="49.58795925602317" lon="9.393646158277988">
<ele>395.4</ele>
<time>2024-05-11T09:55:54Z</time>
</trkpt>
<trkpt lat="49.58798976615071" lon="9.3936853017658">
<ele>395.4</ele>
<time>2024-05-11T09:55:55Z</time>
</trkpt>
<trkpt lat="49.58802027627826" lon="9.393728217110038">
<ele>395.4</ele>
<time>2024-05-11T09:55:56Z</time>
</trkpt>
<trkpt lat="49.5880507864058" lon="9.393768282607198">
<ele>395.4</ele>
<time>2024-05-11T09:55:57Z</time>
</trkpt>
<trkpt lat="49.588081296533346" lon="9.393811197951436">
<ele>395.4</ele>
<time>2024-05-11T09:55:58Z</time>
</trkpt>
<trkpt lat="49.58811180666089" lon="9.39386174082756">
<ele>395.4</ele>
<time>2024-05-11T09:55:59Z</time>
</trkpt>
<trkpt lat="49.588146172463894" lon="9.393911361694336">
<ele>395.2</ele>
<time>2024-05-11T09:56:00Z</time>
</trkpt>
<trkpt lat="49.58817668259144" lon="9.393955199047925">
<ele>395.2</ele>
<time>2024-05-11T09:56:01Z</time>
</trkpt>
<trkpt lat="49.58820342086256" lon="9.393995264545085">
<ele>395.2</ele>
<time>2024-05-11T09:56:02Z</time>
</trkpt>
<trkpt lat="49.58823007531464" lon="9.394031474366784">
<ele>395</ele>
<time>2024-05-11T09:56:03Z</time>
</trkpt>
<trkpt lat="49.58825681358576" lon="9.394068690016866">
<ele>395</ele>
<time>2024-05-11T09:56:04Z</time>
</trkpt>
<trkpt lat="49.58828346803784" lon="9.394104899838569">
<ele>395</ele>
<time>2024-05-11T09:56:05Z</time>
</trkpt>
<trkpt lat="49.58831397816539" lon="9.394146893173456">
<ele>395</ele>
<time>2024-05-11T09:56:06Z</time>
</trkpt>
<trkpt lat="49.588340716436505" lon="9.394189808517694">
<ele>395</ele>
<time>2024-05-11T09:56:07Z</time>
</trkpt>
<trkpt lat="49.58836359903216" lon="9.394231718033552">
<ele>395</ele>
<time>2024-05-11T09:56:08Z</time>
</trkpt>
<trkpt lat="49.58839033730328" lon="9.394273711368442">
<ele>395</ele>
<time>2024-05-11T09:56:09Z</time>
</trkpt>
<trkpt lat="49.58841321989894" lon="9.39431469887495">
<ele>395.2</ele>
<time>2024-05-11T09:56:10Z</time>
</trkpt>
<trkpt lat="49.588439874351025" lon="9.39435476437211">
<ele>395.2</ele>
<time>2024-05-11T09:56:11Z</time>
</trkpt>
<trkpt lat="49.58847038447857" lon="9.394396757707">
<ele>395.4</ele>
<time>2024-05-11T09:56:12Z</time>
</trkpt>
<trkpt lat="49.58850089460611" lon="9.394438667222856">
<ele>395.4</ele>
<time>2024-05-11T09:56:13Z</time>
</trkpt>
<trkpt lat="49.58853148855269" lon="9.394483510404823">
<ele>395.4</ele>
<time>2024-05-11T09:56:14Z</time>
</trkpt>
<trkpt lat="49.588561998680234" lon="9.394526425749063">
<ele>395.6</ele>
<time>2024-05-11T09:56:15Z</time>
</trkpt>
<trkpt lat="49.588600136339664" lon="9.39457319676876">
<ele>395.6</ele>
<time>2024-05-11T09:56:16Z</time>
</trkpt>
<trkpt lat="49.58862679079175" lon="9.394617956131697">
<ele>395.6</ele>
<time>2024-05-11T09:56:17Z</time>
</trkpt>
<trkpt lat="49.588657300919294" lon="9.394662799313664">
<ele>395.8</ele>
<time>2024-05-11T09:56:18Z</time>
</trkpt>
<trkpt lat="49.58868403919041" lon="9.394706720486283">
<ele>395.8</ele>
<time>2024-05-11T09:56:19Z</time>
</trkpt>
<trkpt lat="49.58871077746153" lon="9.39475147984922">
<ele>395.8</ele>
<time>2024-05-11T09:56:20Z</time>
</trkpt>
<trkpt lat="49.588737431913614" lon="9.394798250868917">
<ele>395.8</ele>
<time>2024-05-11T09:56:21Z</time>
</trkpt>
<trkpt lat="49.58876417018473" lon="9.394843094050884">
<ele>395.8</ele>
<time>2024-05-11T09:56:22Z</time>
</trkpt>
<trkpt lat="49.58878705278039" lon="9.39488785341382">
<ele>395.8</ele>
<time>2024-05-11T09:56:23Z</time>
</trkpt>
<trkpt lat="49.588813707232475" lon="9.394933618605137">
<ele>396</ele>
<time>2024-05-11T09:56:24Z</time>
</trkpt>
<trkpt lat="49.588836589828134" lon="9.394978461787105">
<ele>396</ele>
<time>2024-05-11T09:56:25Z</time>
</trkpt>
<trkpt lat="49.58886332809925" lon="9.395023304969072">
<ele>396</ele>
<time>2024-05-11T09:56:26Z</time>
</trkpt>
<trkpt lat="49.58889006637037" lon="9.39507007598877">
<ele>396</ele>
<time>2024-05-11T09:56:27Z</time>
</trkpt>
<trkpt lat="49.58891672082245" lon="9.395114835351706">
<ele>396</ele>
<time>2024-05-11T09:56:28Z</time>
</trkpt>
<trkpt lat="49.58894345909357" lon="9.395161606371405">
<ele>396</ele>
<time>2024-05-11T09:56:29Z</time>
</trkpt>
<trkpt lat="49.588970113545656" lon="9.39520644955337">
<ele>396</ele>
<time>2024-05-11T09:56:30Z</time>
</trkpt>
<trkpt lat="49.588992996141315" lon="9.395250286906958">
<ele>396</ele>
<time>2024-05-11T09:56:31Z</time>
</trkpt>
<trkpt lat="49.58901973441243" lon="9.395295130088924">
<ele>396</ele>
<time>2024-05-11T09:56:32Z</time>
</trkpt>
<trkpt lat="49.589050244539976" lon="9.39534181728959">
<ele>396</ele>
<time>2024-05-11T09:56:33Z</time>
</trkpt>
<trkpt lat="49.58907698281109" lon="9.395391438156366">
<ele>396</ele>
<time>2024-05-11T09:56:34Z</time>
</trkpt>
<trkpt lat="49.58910363726318" lon="9.395438125357032">
<ele>396</ele>
<time>2024-05-11T09:56:35Z</time>
</trkpt>
<trkpt lat="49.589130375534296" lon="9.395484896376727">
<ele>396</ele>
<time>2024-05-11T09:56:36Z</time>
</trkpt>
<trkpt lat="49.58915702998638" lon="9.395533511415124">
<ele>396</ele>
<time>2024-05-11T09:56:37Z</time>
</trkpt>
<trkpt lat="49.5891837682575" lon="9.395578354597092">
<ele>396.2</ele>
<time>2024-05-11T09:56:38Z</time>
</trkpt>
<trkpt lat="49.589210506528616" lon="9.39562319777906">
<ele>396.2</ele>
<time>2024-05-11T09:56:39Z</time>
</trkpt>
<trkpt lat="49.589233389124274" lon="9.395669884979725">
<ele>396.2</ele>
<time>2024-05-11T09:56:40Z</time>
</trkpt>
<trkpt lat="49.58926004357636" lon="9.395716655999422">
<ele>396.2</ele>
<time>2024-05-11T09:56:41Z</time>
</trkpt>
<trkpt lat="49.58928678184748" lon="9.395763343200088">
<ele>396.4</ele>
<time>2024-05-11T09:56:42Z</time>
</trkpt>
<trkpt lat="49.58931343629956" lon="9.395808186382055">
<ele>396.6</ele>
<time>2024-05-11T09:56:43Z</time>
</trkpt>
<trkpt lat="49.58933631889522" lon="9.395852023735642">
<ele>396.6</ele>
<time>2024-05-11T09:56:44Z</time>
</trkpt>
<trkpt lat="49.58935920149088" lon="9.39589493907988">
<ele>396.6</ele>
<time>2024-05-11T09:56:45Z</time>
</trkpt>
<trkpt lat="49.58938216790557" lon="9.395939782261848">
<ele>396.6</ele>
<time>2024-05-11T09:56:46Z</time>
</trkpt>
<trkpt lat="49.58940505050123" lon="9.395981775596738">
<ele>396.8</ele>
<time>2024-05-11T09:56:47Z</time>
</trkpt>
<trkpt lat="49.58943170495331" lon="9.396024690940976">
<ele>396.8</ele>
<time>2024-05-11T09:56:48Z</time>
</trkpt>
<trkpt lat="49.58945458754897" lon="9.396070456132293">
<ele>397</ele>
<time>2024-05-11T09:56:49Z</time>
</trkpt>
<trkpt lat="49.58948132582009" lon="9.39611622132361">
<ele>397</ele>
<time>2024-05-11T09:56:50Z</time>
</trkpt>
<trkpt lat="49.58950420841575" lon="9.396162908524277">
<ele>397.2</ele>
<time>2024-05-11T09:56:51Z</time>
</trkpt>
<trkpt lat="49.589527091011405" lon="9.396208757534623">
<ele>397.2</ele>
<time>2024-05-11T09:56:52Z</time>
</trkpt>
<trkpt lat="49.58954997360706" lon="9.39625351689756">
<ele>397.4</ele>
<time>2024-05-11T09:56:53Z</time>
</trkpt>
<trkpt lat="49.58957671187818" lon="9.396296432241796">
<ele>397.4</ele>
<time>2024-05-11T09:56:54Z</time>
</trkpt>
<trkpt lat="49.58959959447384" lon="9.396343203261496">
<ele>397.6</ele>
<time>2024-05-11T09:56:55Z</time>
</trkpt>
<trkpt lat="49.5896224770695" lon="9.396388046443462">
<ele>397.6</ele>
<time>2024-05-11T09:56:56Z</time>
</trkpt>
<trkpt lat="49.589645359665155" lon="9.396436661481856">
<ele>397.6</ele>
<time>2024-05-11T09:56:57Z</time>
</trkpt>
<trkpt lat="49.58967201411724" lon="9.396483348682525">
<ele>397.6</ele>
<time>2024-05-11T09:56:58Z</time>
</trkpt>
<trkpt lat="49.5896948967129" lon="9.39653011970222">
<ele>397.8</ele>
<time>2024-05-11T09:56:59Z</time>
</trkpt>
<trkpt lat="49.589721634984016" lon="9.396574962884188">
<ele>397.8</ele>
<time>2024-05-11T09:57:00Z</time>
</trkpt>
<trkpt lat="49.589744517579675" lon="9.396623577922584">
<ele>397.8</ele>
<time>2024-05-11T09:57:01Z</time>
</trkpt>
<trkpt lat="49.58976740017533" lon="9.39666649326682">
<ele>397.8</ele>
<time>2024-05-11T09:57:02Z</time>
</trkpt>
<trkpt lat="49.58979028277099" lon="9.396711336448789">
<ele>398</ele>
<time>2024-05-11T09:57:03Z</time>
</trkpt>
<trkpt lat="49.58981702104211" lon="9.396753245964646">
<ele>398.2</ele>
<time>2024-05-11T09:57:04Z</time>
</trkpt>
<trkpt lat="49.58983990363777" lon="9.396795239299536">
<ele>398.2</ele>
<time>2024-05-11T09:57:05Z</time>
</trkpt>
<trkpt lat="49.58986655808985" lon="9.396836226806045">
<ele>398.4</ele>
<time>2024-05-11T09:57:06Z</time>
</trkpt>
<trkpt lat="49.58988952450454" lon="9.39688199199736">
<ele>398.4</ele>
<time>2024-05-11T09:57:07Z</time>
</trkpt>
<trkpt lat="49.58990855142474" lon="9.3969249073416">
<ele>398.6</ele>
<time>2024-05-11T09:57:08Z</time>
</trkpt>
<trkpt lat="49.58993528969586" lon="9.396971678361297">
<ele>398.6</ele>
<time>2024-05-11T09:57:09Z</time>
</trkpt>
<trkpt lat="49.58995817229152" lon="9.397014593705537">
<ele>398.8</ele>
<time>2024-05-11T09:57:10Z</time>
</trkpt>
<trkpt lat="49.5899848267436" lon="9.397060358896852">
<ele>399</ele>
<time>2024-05-11T09:57:11Z</time>
</trkpt>
<trkpt lat="49.59000770933926" lon="9.397109979763629">
<ele>399.2</ele>
<time>2024-05-11T09:57:12Z</time>
</trkpt>
<trkpt lat="49.59002682007849" lon="9.397156666964293">
<ele>399.4</ele>
<time>2024-05-11T09:57:13Z</time>
</trkpt>
<trkpt lat="49.59004970267415" lon="9.39719958230853">
<ele>399.4</ele>
<time>2024-05-11T09:57:14Z</time>
</trkpt>
<trkpt lat="49.59006881341338" lon="9.397245347499847">
<ele>399.6</ele>
<time>2024-05-11T09:57:15Z</time>
</trkpt>
<trkpt lat="49.59008784033358" lon="9.397290190681815">
<ele>399.6</ele>
<time>2024-05-11T09:57:16Z</time>
</trkpt>
<trkpt lat="49.59010309539735" lon="9.397333106026052">
<ele>399.8</ele>
<time>2024-05-11T09:57:17Z</time>
</trkpt>
<trkpt lat="49.59012597799301" lon="9.397373171523212">
<ele>400</ele>
<time>2024-05-11T09:57:18Z</time>
</trkpt>
<trkpt lat="49.59014508873224" lon="9.397415081039073">
<ele>400.2</ele>
<time>2024-05-11T09:57:19Z</time>
</trkpt>
<trkpt lat="49.59016411565244" lon="9.39745992422104">
<ele>400.4</ele>
<time>2024-05-11T09:57:20Z</time>
</trkpt>
<trkpt lat="49.59018322639167" lon="9.397506695240736">
<ele>400.6</ele>
<time>2024-05-11T09:57:21Z</time>
</trkpt>
<trkpt lat="49.59020225331187" lon="9.397549610584974">
<ele>400.8</ele>
<time>2024-05-11T09:57:22Z</time>
</trkpt>
<trkpt lat="49.59022521972656" lon="9.397595375776293">
<ele>401</ele>
<time>2024-05-11T09:57:23Z</time>
</trkpt>
<trkpt lat="49.59024424664676" lon="9.39764021895826">
<ele>401.2</ele>
<time>2024-05-11T09:57:24Z</time>
</trkpt>
<trkpt lat="49.59026335738599" lon="9.397686906158924">
<ele>401.4</ele>
<time>2024-05-11T09:57:25Z</time>
</trkpt>
<trkpt lat="49.59028623998165" lon="9.397731749340892">
<ele>401.6</ele>
<time>2024-05-11T09:57:26Z</time>
</trkpt>
<trkpt lat="49.59030526690185" lon="9.397781370207667">
<ele>401.8</ele>
<time>2024-05-11T09:57:27Z</time>
</trkpt>
<trkpt lat="49.59032437764108" lon="9.397821351885796">
<ele>402</ele>
<time>2024-05-11T09:57:28Z</time>
</trkpt>
<trkpt lat="49.590339632704854" lon="9.397858567535875">
<ele>402.2</ele>
<time>2024-05-11T09:57:29Z</time>
</trkpt>
<trkpt lat="49.59035865962505" lon="9.397896705195308">
<ele>402.4</ele>
<time>2024-05-11T09:57:30Z</time>
</trkpt>
<trkpt lat="49.590377770364285" lon="9.39793199300766">
<ele>402.6</ele>
<time>2024-05-11T09:57:31Z</time>
</trkpt>
<trkpt lat="49.59039688110352" lon="9.397965352982284">
<ele>402.6</ele>
<time>2024-05-11T09:57:32Z</time>
</trkpt>
<trkpt lat="49.590415908023715" lon="9.39800826832652">
<ele>402.8</ele>
<time>2024-05-11T09:57:33Z</time>
</trkpt>
<trkpt lat="49.59043116308749" lon="9.398046489804983">
<ele>403</ele>
<time>2024-05-11T09:57:34Z</time>
</trkpt>
<trkpt lat="49.59045027382672" lon="9.39809124916792">
<ele>403.2</ele>
<time>2024-05-11T09:57:35Z</time>
</trkpt>
<trkpt lat="49.59046930074692" lon="9.398138020187616">
<ele>403.4</ele>
<time>2024-05-11T09:57:36Z</time>
</trkpt>
<trkpt lat="49.59048841148615" lon="9.398178085684776">
<ele>403.6</ele>
<time>2024-05-11T09:57:37Z</time>
</trkpt>
<trkpt lat="49.59050743840635" lon="9.398218151181936">
<ele>403.8</ele>
<time>2024-05-11T09:57:38Z</time>
</trkpt>
<trkpt lat="49.59052269347012" lon="9.398260060697794">
<ele>404</ele>
<time>2024-05-11T09:57:39Z</time>
</trkpt>
<trkpt lat="49.59054180420935" lon="9.398302976042032">
<ele>404</ele>
<time>2024-05-11T09:57:40Z</time>
</trkpt>
<trkpt lat="49.59055705927312" lon="9.398343041539192">
<ele>404.2</ele>
<time>2024-05-11T09:57:41Z</time>
</trkpt>
<trkpt lat="49.590576170012355" lon="9.398383107036352">
<ele>404.4</ele>
<time>2024-05-11T09:57:42Z</time>
</trkpt>
<trkpt lat="49.59059905260801" lon="9.398423172533512">
<ele>404.6</ele>
<time>2024-05-11T09:57:43Z</time>
</trkpt>
<trkpt lat="49.59061807952821" lon="9.398461310192944">
<ele>404.8</ele>
<time>2024-05-11T09:57:44Z</time>
</trkpt>
<trkpt lat="49.59063719026744" lon="9.398503303527832">
<ele>405</ele>
<time>2024-05-11T09:57:45Z</time>
</trkpt>
<trkpt lat="49.5906600728631" lon="9.39854521304369">
<ele>405</ele>
<time>2024-05-11T09:57:46Z</time>
</trkpt>
<trkpt lat="49.590675327926874" lon="9.3985862005502">
<ele>405.2</ele>
<time>2024-05-11T09:57:47Z</time>
</trkpt>
<trkpt lat="49.59069821052253" lon="9.39862626604736">
<ele>405.2</ele>
<time>2024-05-11T09:57:48Z</time>
</trkpt>
<trkpt lat="49.59071723744273" lon="9.398668259382248">
<ele>405.4</ele>
<time>2024-05-11T09:57:49Z</time>
</trkpt>
<trkpt lat="49.59073634818196" lon="9.398710168898106">
<ele>405.4</ele>
<time>2024-05-11T09:57:50Z</time>
</trkpt>
<trkpt lat="49.590751603245735" lon="9.398751240223646">
<ele>405.6</ele>
<time>2024-05-11T09:57:51Z</time>
</trkpt>
<trkpt lat="49.590770713984966" lon="9.398793149739504">
<ele>405.8</ele>
<time>2024-05-11T09:57:52Z</time>
</trkpt>
<trkpt lat="49.59078596904874" lon="9.398835143074391">
<ele>405.8</ele>
<time>2024-05-11T09:57:53Z</time>
</trkpt>
<trkpt lat="49.59080499596894" lon="9.398878058418632">
<ele>406</ele>
<time>2024-05-11T09:57:54Z</time>
</trkpt>
<trkpt lat="49.59082025103271" lon="9.3989229016006">
<ele>406.2</ele>
<time>2024-05-11T09:57:55Z</time>
</trkpt>
<trkpt lat="49.59083936177194" lon="9.398968666791916">
<ele>406.2</ele>
<time>2024-05-11T09:57:56Z</time>
</trkpt>
<trkpt lat="49.59085838869214" lon="9.399011582136154">
<ele>406.4</ele>
<time>2024-05-11T09:57:57Z</time>
</trkpt>
<trkpt lat="49.59087364375591" lon="9.399053491652012">
<ele>406.4</ele>
<time>2024-05-11T09:57:58Z</time>
</trkpt>
<trkpt lat="49.590892754495144" lon="9.399094562977552">
<ele>406.4</ele>
<time>2024-05-11T09:57:59Z</time>
</trkpt>
<trkpt lat="49.59090800955891" lon="9.399133622646332">
<ele>406.4</ele>
<time>2024-05-11T09:58:00Z</time>
</trkpt>
<trkpt lat="49.59092326462269" lon="9.399171760305762">
<ele>406.6</ele>
<time>2024-05-11T09:58:01Z</time>
</trkpt>
<trkpt lat="49.59094237536192" lon="9.399211825802922">
<ele>406.6</ele>
<time>2024-05-11T09:58:02Z</time>
</trkpt>
<trkpt lat="49.59095763042569" lon="9.399249963462353">
<ele>406.8</ele>
<time>2024-05-11T09:58:03Z</time>
</trkpt>
<trkpt lat="49.590969029814005" lon="9.399290028959513">
<ele>407</ele>
<time>2024-05-11T09:58:04Z</time>
</trkpt>
<trkpt lat="49.59098428487778" lon="9.399332022294402">
<ele>407</ele>
<time>2024-05-11T09:58:05Z</time>
</trkpt>
<trkpt lat="49.59099953994155" lon="9.399372087791562">
<ele>407.2</ele>
<time>2024-05-11T09:58:06Z</time>
</trkpt>
<trkpt lat="49.59101479500532" lon="9.399410225450993">
<ele>407.4</ele>
<time>2024-05-11T09:58:07Z</time>
</trkpt>
<trkpt lat="49.591030050069094" lon="9.399450290948153">
<ele>407.6</ele>
<time>2024-05-11T09:58:08Z</time>
</trkpt>
<trkpt lat="49.59104153327644" lon="9.399490356445313">
<ele>407.6</ele>
<time>2024-05-11T09:58:09Z</time>
</trkpt>
<trkpt lat="49.59105678834021" lon="9.399535115808249">
<ele>407.8</ele>
<time>2024-05-11T09:58:10Z</time>
</trkpt>
<trkpt lat="49.59107581526041" lon="9.399579958990216">
<ele>408</ele>
<time>2024-05-11T09:58:11Z</time>
</trkpt>
<trkpt lat="49.59109492599964" lon="9.399624802172184">
<ele>408.2</ele>
<time>2024-05-11T09:58:12Z</time>
</trkpt>
<trkpt lat="49.591110181063414" lon="9.39967341721058">
<ele>408.4</ele>
<time>2024-05-11T09:58:13Z</time>
</trkpt>
<trkpt lat="49.591129291802645" lon="9.399720188230276">
<ele>408.8</ele>
<time>2024-05-11T09:58:14Z</time>
</trkpt>
<trkpt lat="49.59114831872285" lon="9.39976779744029">
<ele>409</ele>
<time>2024-05-11T09:58:15Z</time>
</trkpt>
<trkpt lat="49.591163573786616" lon="9.399814568459988">
<ele>409.2</ele>
<time>2024-05-11T09:58:16Z</time>
</trkpt>
<trkpt lat="49.59117882885039" lon="9.399863183498384">
<ele>409.6</ele>
<time>2024-05-11T09:58:17Z</time>
</trkpt>
<trkpt lat="49.59119408391416" lon="9.39990995451808">
<ele>409.8</ele>
<time>2024-05-11T09:58:18Z</time>
</trkpt>
<trkpt lat="49.59120933897793" lon="9.399952869862318">
<ele>410</ele>
<time>2024-05-11T09:58:19Z</time>
</trkpt>
<trkpt lat="49.59122844971717" lon="9.399996707215903">
<ele>410.4</ele>
<time>2024-05-11T09:58:20Z</time>
</trkpt>
<trkpt lat="49.59123984910548" lon="9.400039622560143">
<ele>410.6</ele>
<time>2024-05-11T09:58:21Z</time>
</trkpt>
<trkpt lat="49.59125518798828" lon="9.400081615895033">
<ele>410.8</ele>
<time>2024-05-11T09:58:22Z</time>
</trkpt>
<trkpt lat="49.591266587376595" lon="9.400126375257967">
<ele>410.8</ele>
<time>2024-05-11T09:58:23Z</time>
</trkpt>
<trkpt lat="49.59128184244037" lon="9.400173146277666">
<ele>411</ele>
<time>2024-05-11T09:58:24Z</time>
</trkpt>
<trkpt lat="49.59129332564771" lon="9.400217989459634">
<ele>411</ele>
<time>2024-05-11T09:58:25Z</time>
</trkpt>
<trkpt lat="49.59130858071149" lon="9.40026375465095">
<ele>411.2</ele>
<time>2024-05-11T09:58:26Z</time>
</trkpt>
<trkpt lat="49.591323835775256" lon="9.400306669995189">
<ele>411.2</ele>
<time>2024-05-11T09:58:27Z</time>
</trkpt>
<trkpt lat="49.59133523516357" lon="9.400349585339429">
<ele>411.2</ele>
<time>2024-05-11T09:58:28Z</time>
</trkpt>
<trkpt lat="49.591346718370914" lon="9.400393422693014">
<ele>411.4</ele>
<time>2024-05-11T09:58:29Z</time>
</trkpt>
<trkpt lat="49.59135811775923" lon="9.400438265874982">
<ele>411.4</ele>
<time>2024-05-11T09:58:30Z</time>
</trkpt>
<trkpt lat="49.591373372823" lon="9.40048118121922">
<ele>411.6</ele>
<time>2024-05-11T09:58:31Z</time>
</trkpt>
<trkpt lat="49.591384856030345" lon="9.400525018572807">
<ele>411.6</ele>
<time>2024-05-11T09:58:32Z</time>
</trkpt>
<trkpt lat="49.59140011109412" lon="9.400567933917046">
<ele>411.8</ele>
<time>2024-05-11T09:58:33Z</time>
</trkpt>
<trkpt lat="49.59141151048243" lon="9.400611855089664">
<ele>411.8</ele>
<time>2024-05-11T09:58:34Z</time>
</trkpt>
<trkpt lat="49.591426849365234" lon="9.400654770433905">
<ele>412</ele>
<time>2024-05-11T09:58:35Z</time>
</trkpt>
<trkpt lat="49.59144210442901" lon="9.40069961361587">
<ele>412</ele>
<time>2024-05-11T09:58:36Z</time>
</trkpt>
<trkpt lat="49.59145735949278" lon="9.400745378807189">
<ele>412</ele>
<time>2024-05-11T09:58:37Z</time>
</trkpt>
<trkpt lat="49.59147261455655" lon="9.400792066007853">
<ele>412</ele>
<time>2024-05-11T09:58:38Z</time>
</trkpt>
<trkpt lat="49.591484013944864" lon="9.40083498135209">
<ele>412.2</ele>
<time>2024-05-11T09:58:39Z</time>
</trkpt>
<trkpt lat="49.59149926900864" lon="9.40087982453406">
<ele>412.2</ele>
<time>2024-05-11T09:58:40Z</time>
</trkpt>
<trkpt lat="49.59151452407241" lon="9.400924667716026">
<ele>412.4</ele>
<time>2024-05-11T09:58:41Z</time>
</trkpt>
<trkpt lat="49.591526007279754" lon="9.400968505069612">
<ele>412.4</ele>
<time>2024-05-11T09:58:42Z</time>
</trkpt>
<trkpt lat="49.59153740666807" lon="9.401008570566772">
<ele>412.6</ele>
<time>2024-05-11T09:58:43Z</time>
</trkpt>
<trkpt lat="49.59154503419995" lon="9.401049558073282">
<ele>412.6</ele>
<time>2024-05-11T09:58:44Z</time>
</trkpt>
<trkpt lat="49.591560289263725" lon="9.401089623570442">
<ele>412.8</ele>
<time>2024-05-11T09:58:45Z</time>
</trkpt>
<trkpt lat="49.5915755443275" lon="9.401129689067602">
<ele>412.8</ele>
<time>2024-05-11T09:58:46Z</time>
</trkpt>
<trkpt lat="49.59158702753484" lon="9.40117453224957">
<ele>412.8</ele>
<time>2024-05-11T09:58:47Z</time>
</trkpt>
<trkpt lat="49.591602282598615" lon="9.401220297440886">
<ele>413</ele>
<time>2024-05-11T09:58:48Z</time>
</trkpt>
<trkpt lat="49.59161376580596" lon="9.401263212785125">
<ele>413.2</ele>
<time>2024-05-11T09:58:49Z</time>
</trkpt>
<trkpt lat="49.59162516519427" lon="9.401308055967093">
<ele>413.2</ele>
<time>2024-05-11T09:58:50Z</time>
</trkpt>
<trkpt lat="49.59163664840162" lon="9.40134996548295">
<ele>413.4</ele>
<time>2024-05-11T09:58:51Z</time>
</trkpt>
<trkpt lat="49.59164804778993" lon="9.40139003098011">
<ele>413.6</ele>
<time>2024-05-11T09:58:52Z</time>
</trkpt>
<trkpt lat="49.5916633028537" lon="9.40142816863954">
<ele>413.6</ele>
<time>2024-05-11T09:58:53Z</time>
</trkpt>
<trkpt lat="49.59167478606105" lon="9.40147208981216">
<ele>413.8</ele>
<time>2024-05-11T09:58:54Z</time>
</trkpt>
<trkpt lat="49.59169004112482" lon="9.401516849175096">
<ele>413.8</ele>
<time>2024-05-11T09:58:55Z</time>
</trkpt>
<trkpt lat="49.59170529618859" lon="9.401563620194793">
<ele>413.8</ele>
<time>2024-05-11T09:58:56Z</time>
</trkpt>
<trkpt lat="49.591716695576906" lon="9.40160846337676">
<ele>414</ele>
<time>2024-05-11T09:58:57Z</time>
</trkpt>
<trkpt lat="49.59172817878425" lon="9.401655150577426">
<ele>414</ele>
<time>2024-05-11T09:58:58Z</time>
</trkpt>
<trkpt lat="49.591739578172565" lon="9.401701921597123">
<ele>414</ele>
<time>2024-05-11T09:58:59Z</time>
</trkpt>
<trkpt lat="49.59175483323634" lon="9.401748608797789">
<ele>414</ele>
<time>2024-05-11T09:59:00Z</time>
</trkpt>
<trkpt lat="49.59176631644368" lon="9.401795379817486">
<ele>414</ele>
<time>2024-05-11T09:59:01Z</time>
</trkpt>
<trkpt lat="49.591781571507454" lon="9.4018429890275">
<ele>414.2</ele>
<time>2024-05-11T09:59:02Z</time>
</trkpt>
<trkpt lat="49.5917930547148" lon="9.401893615722656">
<ele>414.2</ele>
<time>2024-05-11T09:59:03Z</time>
</trkpt>
<trkpt lat="49.59180445410311" lon="9.401940302923322">
<ele>414.4</ele>
<time>2024-05-11T09:59:04Z</time>
</trkpt>
<trkpt lat="49.59181593731046" lon="9.401987995952368">
<ele>414.4</ele>
<time>2024-05-11T09:59:05Z</time>
</trkpt>
<trkpt lat="49.59182356484234" lon="9.402034683153031">
<ele>414.6</ele>
<time>2024-05-11T09:59:06Z</time>
</trkpt>
<trkpt lat="49.59183496423066" lon="9.40208145417273">
<ele>414.6</ele>
<time>2024-05-11T09:59:07Z</time>
</trkpt>
<trkpt lat="49.591846447438" lon="9.402130069211124">
<ele>414.8</ele>
<time>2024-05-11T09:59:08Z</time>
</trkpt>
<trkpt lat="49.591861702501774" lon="9.402176840230824">
<ele>414.8</ele>
<time>2024-05-11T09:59:09Z</time>
</trkpt>
<trkpt lat="49.59187310189009" lon="9.402224533259869">
<ele>414.8</ele>
<time>2024-05-11T09:59:10Z</time>
</trkpt>
<trkpt lat="49.59188458509743" lon="9.402270298451183">
<ele>414.8</ele>
<time>2024-05-11T09:59:11Z</time>
</trkpt>
<trkpt lat="49.5918998401612" lon="9.40231698565185">
<ele>415</ele>
<time>2024-05-11T09:59:12Z</time>
</trkpt>
<trkpt lat="49.59190746769309" lon="9.402364678680897">
<ele>415</ele>
<time>2024-05-11T09:59:13Z</time>
</trkpt>
<trkpt lat="49.59192649461329" lon="9.402413293719292">
<ele>415.2</ele>
<time>2024-05-11T09:59:14Z</time>
</trkpt>
<trkpt lat="49.591934122145176" lon="9.402461992576718">
<ele>415.2</ele>
<time>2024-05-11T09:59:15Z</time>
</trkpt>
<trkpt lat="49.59194560535252" lon="9.402508679777384">
<ele>415.4</ele>
<time>2024-05-11T09:59:16Z</time>
</trkpt>
<trkpt lat="49.59196086041629" lon="9.402551595121622">
<ele>415.4</ele>
<time>2024-05-11T09:59:17Z</time>
</trkpt>
<trkpt lat="49.59197234362364" lon="9.402601215988398">
<ele>415.6</ele>
<time>2024-05-11T09:59:18Z</time>
</trkpt>
<trkpt lat="49.59198759868741" lon="9.402649831026793">
<ele>415.6</ele>
<time>2024-05-11T09:59:19Z</time>
</trkpt>
<trkpt lat="49.59199899807573" lon="9.402698446065187">
<ele>415.6</ele>
<time>2024-05-11T09:59:20Z</time>
</trkpt>
<trkpt lat="49.592014253139496" lon="9.402749994769692">
<ele>415.8</ele>
<time>2024-05-11T09:59:21Z</time>
</trkpt>
<trkpt lat="49.59202573634684" lon="9.402798609808087">
<ele>415.8</ele>
<time>2024-05-11T09:59:22Z</time>
</trkpt>
<trkpt lat="49.592037135735154" lon="9.40285007469356">
<ele>415.8</ele>
<time>2024-05-11T09:59:23Z</time>
</trkpt>
<trkpt lat="49.592052390798926" lon="9.402901623398066">
<ele>415.8</ele>
<time>2024-05-11T09:59:24Z</time>
</trkpt>
<trkpt lat="49.5920676458627" lon="9.40295308828354">
<ele>415.8</ele>
<time>2024-05-11T09:59:25Z</time>
</trkpt>
<trkpt lat="49.59208290092647" lon="9.403006481006742">
<ele>415.8</ele>
<time>2024-05-11T09:59:26Z</time>
</trkpt>
<trkpt lat="49.592094384133816" lon="9.403059957548976">
<ele>415.8</ele>
<time>2024-05-11T09:59:27Z</time>
</trkpt>
<trkpt lat="49.59210963919759" lon="9.40311335027218">
<ele>415.8</ele>
<time>2024-05-11T09:59:28Z</time>
</trkpt>
<trkpt lat="49.59212489426136" lon="9.40316867083311">
<ele>415.8</ele>
<time>2024-05-11T09:59:29Z</time>
</trkpt>
<trkpt lat="49.59214014932513" lon="9.403224913403392">
<ele>415.8</ele>
<time>2024-05-11T09:59:30Z</time>
</trkpt>
<trkpt lat="49.592155404388905" lon="9.403281155973673">
<ele>415.8</ele>
<time>2024-05-11T09:59:31Z</time>
</trkpt>
<trkpt lat="49.59217065945268" lon="9.403338404372334">
<ele>415.8</ele>
<time>2024-05-11T09:59:32Z</time>
</trkpt>
<trkpt lat="49.59218591451645" lon="9.403394646942616">
<ele>415.8</ele>
<time>2024-05-11T09:59:33Z</time>
</trkpt>
<trkpt lat="49.59220116958022" lon="9.403451895341275">
<ele>415.8</ele>
<time>2024-05-11T09:59:34Z</time>
</trkpt>
<trkpt lat="49.59221642464399" lon="9.403508137911558">
<ele>415.8</ele>
<time>2024-05-11T09:59:35Z</time>
</trkpt>
<trkpt lat="49.592231679707766" lon="9.403568236157298">
<ele>415.8</ele>
<time>2024-05-11T09:59:36Z</time>
</trkpt>
<trkpt lat="49.59224316291511" lon="9.403628334403038">
<ele>415.8</ele>
<time>2024-05-11T09:59:37Z</time>
</trkpt>
<trkpt lat="49.59225841797888" lon="9.403690276667476">
<ele>415.8</ele>
<time>2024-05-11T09:59:38Z</time>
</trkpt>
<trkpt lat="49.592273673042655" lon="9.403751296922565">
<ele>415.8</ele>
<time>2024-05-11T09:59:39Z</time>
</trkpt>
<trkpt lat="49.59228892810643" lon="9.403816172853112">
<ele>415.8</ele>
<time>2024-05-11T09:59:40Z</time>
</trkpt>
<trkpt lat="49.59230803884566" lon="9.403881970793009">
<ele>416</ele>
<time>2024-05-11T09:59:41Z</time>
</trkpt>
<trkpt lat="49.59232329390943" lon="9.403949696570637">
<ele>416</ele>
<time>2024-05-11T09:59:42Z</time>
</trkpt>
<trkpt lat="49.59234232082963" lon="9.40401834435761">
<ele>416.2</ele>
<time>2024-05-11T09:59:43Z</time>
</trkpt>
<trkpt lat="49.59236143156886" lon="9.404086992144585">
<ele>416.2</ele>
<time>2024-05-11T09:59:44Z</time>
</trkpt>
<trkpt lat="49.59237668663263" lon="9.404153795912862">
<ele>416.2</ele>
<time>2024-05-11T09:59:45Z</time>
</trkpt>
<trkpt lat="49.59239571355283" lon="9.404219593852758">
<ele>416.2</ele>
<time>2024-05-11T09:59:46Z</time>
</trkpt>
<trkpt lat="49.592414824292064" lon="9.404286313802004">
<ele>416.2</ele>
<time>2024-05-11T09:59:47Z</time>
</trkpt>
<trkpt lat="49.59243007935584" lon="9.40435504540801">
<ele>416.2</ele>
<time>2024-05-11T09:59:48Z</time>
</trkpt>
<trkpt lat="49.592449106276035" lon="9.404423693194984">
<ele>416</ele>
<time>2024-05-11T09:59:49Z</time>
</trkpt>
<trkpt lat="49.59246444515884" lon="9.404489491134882">
<ele>416</ele>
<time>2024-05-11T09:59:50Z</time>
</trkpt>
<trkpt lat="49.59248347207904" lon="9.404556211084127">
<ele>416</ele>
<time>2024-05-11T09:59:51Z</time>
</trkpt>
<trkpt lat="49.59249872714281" lon="9.404623014852405">
<ele>415.8</ele>
<time>2024-05-11T09:59:52Z</time>
</trkpt>
<trkpt lat="49.59251398220658" lon="9.40468973480165">
<ele>415.8</ele>
<time>2024-05-11T09:59:53Z</time>
</trkpt>
<trkpt lat="49.592529237270355" lon="9.404758382588623">
<ele>415.8</ele>
<time>2024-05-11T09:59:54Z</time>
</trkpt>
<trkpt lat="49.59254449233413" lon="9.40482803620398">
<ele>415.6</ele>
<time>2024-05-11T09:59:55Z</time>
</trkpt>
<trkpt lat="49.5925597473979" lon="9.404896683990955">
<ele>415.6</ele>
<time>2024-05-11T09:59:56Z</time>
</trkpt>
<trkpt lat="49.59257500246167" lon="9.40496533177793">
<ele>415.6</ele>
<time>2024-05-11T09:59:57Z</time>
</trkpt>
<trkpt lat="49.5925941132009" lon="9.405031129717829">
<ele>415.6</ele>
<time>2024-05-11T09:59:58Z</time>
</trkpt>
<trkpt lat="49.5926131401211" lon="9.405097933486104">
<ele>415.6</ele>
<time>2024-05-11T09:59:59Z</time>
</trkpt>
<trkpt lat="49.592628479003906" lon="9.40516658127308">
<ele>415.6</ele>
<time>2024-05-11T10:00:00Z</time>
</trkpt>
<trkpt lat="49.59264373406768" lon="9.405236234888434">
<ele>415.6</ele>
<time>2024-05-11T10:00:01Z</time>
</trkpt>
<trkpt lat="49.59266276098788" lon="9.40530488267541">
<ele>415.6</ele>
<time>2024-05-11T10:00:02Z</time>
</trkpt>
<trkpt lat="49.59267424419522" lon="9.405373530462384">
<ele>415.4</ele>
<time>2024-05-11T10:00:03Z</time>
</trkpt>
<trkpt lat="49.59269327111542" lon="9.405438406392932">
<ele>415.4</ele>
<time>2024-05-11T10:00:04Z</time>
</trkpt>
<trkpt lat="49.59270475432277" lon="9.405503198504448">
<ele>415.4</ele>
<time>2024-05-11T10:00:05Z</time>
</trkpt>
<trkpt lat="49.59272000938654" lon="9.405568074434996">
<ele>415.4</ele>
<time>2024-05-11T10:00:06Z</time>
</trkpt>
<trkpt lat="49.59273526445031" lon="9.405630100518463">
<ele>415.4</ele>
<time>2024-05-11T10:00:07Z</time>
</trkpt>
<trkpt lat="49.59275051951408" lon="9.405693048611283">
<ele>415.4</ele>
<time>2024-05-11T10:00:08Z</time>
</trkpt>
<trkpt lat="49.5927619189024" lon="9.4057578407228">
<ele>415.4</ele>
<time>2024-05-11T10:00:09Z</time>
</trkpt>
<trkpt lat="49.59277717396617" lon="9.405823638662696">
<ele>415.4</ele>
<time>2024-05-11T10:00:10Z</time>
</trkpt>
<trkpt lat="49.59279242902994" lon="9.405888514593244">
<ele>415.4</ele>
<time>2024-05-11T10:00:11Z</time>
</trkpt>
<trkpt lat="49.592807767912745" lon="9.405955234542487">
<ele>415.4</ele>
<time>2024-05-11T10:00:12Z</time>
</trkpt>
<trkpt lat="49.59281916730106" lon="9.406022960320117">
<ele>415.4</ele>
<time>2024-05-11T10:00:13Z</time>
</trkpt>
<trkpt lat="49.59283827804029" lon="9.40609160810709">
<ele>415.4</ele>
<time>2024-05-11T10:00:14Z</time>
</trkpt>
<trkpt lat="49.5928496774286" lon="9.406161261722444">
<ele>415.4</ele>
<time>2024-05-11T10:00:15Z</time>
</trkpt>
<trkpt lat="49.592864932492375" lon="9.40623183734715">
<ele>415.4</ele>
<time>2024-05-11T10:00:16Z</time>
</trkpt>
<trkpt lat="49.59288018755615" lon="9.406301490962504">
<ele>415.2</ele>
<time>2024-05-11T10:00:17Z</time>
</trkpt>
<trkpt lat="49.59289544261992" lon="9.40637206658721">
<ele>415.2</ele>
<time>2024-05-11T10:00:18Z</time>
</trkpt>
<trkpt lat="49.59291069768369" lon="9.406441636383532">
<ele>415</ele>
<time>2024-05-11T10:00:19Z</time>
</trkpt>
<trkpt lat="49.592925952747464" lon="9.406513134017588">
<ele>415</ele>
<time>2024-05-11T10:00:20Z</time>
</trkpt>
<trkpt lat="49.59294120781123" lon="9.406583709642293">
<ele>415</ele>
<time>2024-05-11T10:00:21Z</time>
</trkpt>
<trkpt lat="49.59295646287501" lon="9.406653363257648">
<ele>415</ele>
<time>2024-05-11T10:00:22Z</time>
</trkpt>
<trkpt lat="49.59297180175781" lon="9.40672201104462">
<ele>415</ele>
<time>2024-05-11T10:00:23Z</time>
</trkpt>
<trkpt lat="49.592987056821585" lon="9.406789736822248">
<ele>415</ele>
<time>2024-05-11T10:00:24Z</time>
</trkpt>
<trkpt lat="49.5929984562099" lon="9.406858384609222">
<ele>415</ele>
<time>2024-05-11T10:00:25Z</time>
</trkpt>
<trkpt lat="49.59301371127367" lon="9.406927032396196">
<ele>415</ele>
<time>2024-05-11T10:00:26Z</time>
</trkpt>
<trkpt lat="49.59302896633744" lon="9.406996686011553">
<ele>415</ele>
<time>2024-05-11T10:00:27Z</time>
</trkpt>
<trkpt lat="49.593044221401215" lon="9.407065333798528">
<ele>414.8</ele>
<time>2024-05-11T10:00:28Z</time>
</trkpt>
<trkpt lat="49.59305947646499" lon="9.407133059576154">
<ele>414.8</ele>
<time>2024-05-11T10:00:29Z</time>
</trkpt>
<trkpt lat="49.59307473152876" lon="9.407201707363129">
<ele>414.8</ele>
<time>2024-05-11T10:00:30Z</time>
</trkpt>
<trkpt lat="49.59308998659253" lon="9.407271360978484">
<ele>414.8</ele>
<time>2024-05-11T10:00:31Z</time>
</trkpt>
<trkpt lat="49.59310146979987" lon="9.40734000876546">
<ele>414.8</ele>
<time>2024-05-11T10:00:32Z</time>
</trkpt>
<trkpt lat="49.59311672486365" lon="9.407406728714705">
<ele>414.8</ele>
<time>2024-05-11T10:00:33Z</time>
</trkpt>
<trkpt lat="49.59312812425196" lon="9.407471604645252">
<ele>415</ele>
<time>2024-05-11T10:00:34Z</time>
</trkpt>
<trkpt lat="49.593143463134766" lon="9.407540252432227">
<ele>415</ele>
<time>2024-05-11T10:00:35Z</time>
</trkpt>
<trkpt lat="49.59315871819854" lon="9.407607056200504">
<ele>415.2</ele>
<time>2024-05-11T10:00:36Z</time>
</trkpt>
<trkpt lat="49.59317397326231" lon="9.40767478197813">
<ele>415.2</ele>
<time>2024-05-11T10:00:37Z</time>
</trkpt>
<trkpt lat="49.59318537265062" lon="9.407745357602836">
<ele>415.2</ele>
<time>2024-05-11T10:00:38Z</time>
</trkpt>
<trkpt lat="49.5932006277144" lon="9.407816855236888">
<ele>415.4</ele>
<time>2024-05-11T10:00:39Z</time>
</trkpt>
<trkpt lat="49.59321588277817" lon="9.407886425033212">
<ele>415.4</ele>
<time>2024-05-11T10:00:40Z</time>
</trkpt>
<trkpt lat="49.59323113784194" lon="9.407957000657916">
<ele>415.2</ele>
<time>2024-05-11T10:00:41Z</time>
</trkpt>
<trkpt lat="49.59324639290571" lon="9.408024726435542">
<ele>415.2</ele>
<time>2024-05-11T10:00:42Z</time>
</trkpt>
<trkpt lat="49.59326164796949" lon="9.40808960236609">
<ele>415.2</ele>
<time>2024-05-11T10:00:43Z</time>
</trkpt>
<trkpt lat="49.59327313117683" lon="9.408155400305986">
<ele>415.2</ele>
<time>2024-05-11T10:00:44Z</time>
</trkpt>
<trkpt lat="49.5932883862406" lon="9.408220276236534">
<ele>415.2</ele>
<time>2024-05-11T10:00:45Z</time>
</trkpt>
<trkpt lat="49.593299785628915" lon="9.40828699618578">
<ele>415.4</ele>
<time>2024-05-11T10:00:46Z</time>
</trkpt>
<trkpt lat="49.59331512451172" lon="9.408351872116327">
<ele>415.4</ele>
<time>2024-05-11T10:00:47Z</time>
</trkpt>
<trkpt lat="49.59332652390003" lon="9.408419597893952">
<ele>415.4</ele>
<time>2024-05-11T10:00:48Z</time>
</trkpt>
<trkpt lat="49.59334177896381" lon="9.408488245680928">
<ele>415.4</ele>
<time>2024-05-11T10:00:49Z</time>
</trkpt>
<trkpt lat="49.59335326217115" lon="9.40855974331498">
<ele>415.4</ele>
<time>2024-05-11T10:00:50Z</time>
</trkpt>
<trkpt lat="49.59336851723492" lon="9.408630318939686">
<ele>415.4</ele>
<time>2024-05-11T10:00:51Z</time>
</trkpt>
<trkpt lat="49.593383772298694" lon="9.40869997255504">
<ele>415.4</ele>
<time>2024-05-11T10:00:52Z</time>
</trkpt>
<trkpt lat="49.593399027362466" lon="9.408768620342016">
<ele>415.4</ele>
<time>2024-05-11T10:00:53Z</time>
</trkpt>
<trkpt lat="49.59341042675078" lon="9.408836346119642">
<ele>415.6</ele>
<time>2024-05-11T10:00:54Z</time>
</trkpt>
<trkpt lat="49.59342568181455" lon="9.408903066068888">
<ele>415.6</ele>
<time>2024-05-11T10:00:55Z</time>
</trkpt>
<trkpt lat="49.59344479255378" lon="9.408969869837165">
<ele>415.6</ele>
<time>2024-05-11T10:00:56Z</time>
</trkpt>
<trkpt lat="49.593460047617555" lon="9.40903466194868">
<ele>415.6</ele>
<time>2024-05-11T10:00:57Z</time>
</trkpt>
<trkpt lat="49.59347144700587" lon="9.40909861586988">
<ele>415.6</ele>
<time>2024-05-11T10:00:58Z</time>
</trkpt>
<trkpt lat="49.59348678588867" lon="9.409159636124969">
<ele>415.6</ele>
<time>2024-05-11T10:00:59Z</time>
</trkpt>
<trkpt lat="49.593498185276985" lon="9.409219734370708">
<ele>415.6</ele>
<time>2024-05-11T10:01:00Z</time>
</trkpt>
<trkpt lat="49.59351344034076" lon="9.409279748797417">
<ele>415.6</ele>
<time>2024-05-11T10:01:01Z</time>
</trkpt>
<trkpt lat="49.5935249235481" lon="9.409341774880886">
<ele>415.6</ele>
<time>2024-05-11T10:01:02Z</time>
</trkpt>
<trkpt lat="49.593540178611875" lon="9.409401873126626">
<ele>415.6</ele>
<time>2024-05-11T10:01:03Z</time>
</trkpt>
<trkpt lat="49.59355157800019" lon="9.409462893381717">
<ele>415.6</ele>
<time>2024-05-11T10:01:04Z</time>
</trkpt>
<trkpt lat="49.59356683306396" lon="9.409528691321611">
<ele>415.6</ele>
<time>2024-05-11T10:01:05Z</time>
</trkpt>
<trkpt lat="49.59358208812773" lon="9.40959163941443">
<ele>415.6</ele>
<time>2024-05-11T10:01:06Z</time>
</trkpt>
<trkpt lat="49.593597343191504" lon="9.409656515344976">
<ele>415.4</ele>
<time>2024-05-11T10:01:07Z</time>
</trkpt>
<trkpt lat="49.59360882639885" lon="9.409721307456492">
<ele>415.4</ele>
<time>2024-05-11T10:01:08Z</time>
</trkpt>
<trkpt lat="49.59362408146262" lon="9.409783333539965">
<ele>415.4</ele>
<time>2024-05-11T10:01:09Z</time>
</trkpt>
<trkpt lat="49.593635480850935" lon="9.409843431785704">
<ele>415.4</ele>
<time>2024-05-11T10:01:10Z</time>
</trkpt>
<trkpt lat="49.59365073591471" lon="9.409898752346637">
<ele>415.4</ele>
<time>2024-05-11T10:01:11Z</time>
</trkpt>
<trkpt lat="49.59366221912205" lon="9.409954994916916">
<ele>415.4</ele>
<time>2024-05-11T10:01:12Z</time>
</trkpt>
<trkpt lat="49.593677474185824" lon="9.41000838764012">
<ele>415.4</ele>
<time>2024-05-11T10:01:13Z</time>
</trkpt>
<trkpt lat="49.59368510171771" lon="9.410058008506894">
<ele>415.4</ele>
<time>2024-05-11T10:01:14Z</time>
</trkpt>
<trkpt lat="49.593696584925056" lon="9.410106623545287">
<ele>415.4</ele>
<time>2024-05-11T10:01:15Z</time>
</trkpt>
<trkpt lat="49.59370421245694" lon="9.410151466727257">
<ele>415.6</ele>
<time>2024-05-11T10:01:16Z</time>
</trkpt>
<trkpt lat="49.59371183998883" lon="9.410198153927922">
<ele>415.6</ele>
<time>2024-05-11T10:01:17Z</time>
</trkpt>
<trkpt lat="49.59372323937714" lon="9.41024492494762">
<ele>415.8</ele>
<time>2024-05-11T10:01:18Z</time>
</trkpt>
<trkpt lat="49.593734722584486" lon="9.410295467823744">
<ele>415.8</ele>
<time>2024-05-11T10:01:19Z</time>
</trkpt>
<trkpt lat="49.59374235011637" lon="9.410347938537598">
<ele>415.8</ele>
<time>2024-05-11T10:01:20Z</time>
</trkpt>
<trkpt lat="49.593753749504685" lon="9.41040032543242">
<ele>415.8</ele>
<time>2024-05-11T10:01:21Z</time>
</trkpt>
<trkpt lat="49.59376523271203" lon="9.410449946299195">
<ele>415.8</ele>
<time>2024-05-11T10:01:22Z</time>
</trkpt>
<trkpt lat="49.593776632100344" lon="9.41049956716597">
<ele>415.8</ele>
<time>2024-05-11T10:01:23Z</time>
</trkpt>
<trkpt lat="49.59378811530769" lon="9.410551954060791">
<ele>415.8</ele>
<time>2024-05-11T10:01:24Z</time>
</trkpt>
<trkpt lat="49.59379188716411" lon="9.410606352612376">
<ele>415.8</ele>
<time>2024-05-11T10:01:25Z</time>
</trkpt>
<trkpt lat="49.593799514696" lon="9.410663601011038">
<ele>415.8</ele>
<time>2024-05-11T10:01:26Z</time>
</trkpt>
<trkpt lat="49.59380337037146" lon="9.410721771419048">
<ele>415.8</ele>
<time>2024-05-11T10:01:27Z</time>
</trkpt>
<trkpt lat="49.59380337037146" lon="9.41077801398933">
<ele>415.8</ele>
<time>2024-05-11T10:01:28Z</time>
</trkpt>
<trkpt lat="49.59379188716411" lon="9.41083333455026">
<ele>415.8</ele>
<time>2024-05-11T10:01:29Z</time>
</trkpt>
<trkpt lat="49.593776632100344" lon="9.410884799435737">
<ele>415.8</ele>
<time>2024-05-11T10:01:30Z</time>
</trkpt>
<trkpt lat="49.59374997764826" lon="9.410928720608354">
<ele>415.8</ele>
<time>2024-05-11T10:01:31Z</time>
</trkpt>
<trkpt lat="49.59372323937714" lon="9.410964930430056">
<ele>415.8</ele>
<time>2024-05-11T10:01:32Z</time>
</trkpt>
<trkpt lat="49.59368895739317" lon="9.4109954405576">
<ele>416</ele>
<time>2024-05-11T10:01:33Z</time>
</trkpt>
<trkpt lat="49.593658447265625" lon="9.411021173000336">
<ele>416.2</ele>
<time>2024-05-11T10:01:34Z</time>
</trkpt>
<trkpt lat="49.59362785331905" lon="9.411047911271451">
<ele>416.2</ele>
<time>2024-05-11T10:01:35Z</time>
</trkpt>
<trkpt lat="49.593597343191504" lon="9.411076493561268">
<ele>416.4</ele>
<time>2024-05-11T10:01:36Z</time>
</trkpt>
<trkpt lat="49.59356306120753" lon="9.411105075851085">
<ele>416.6</ele>
<time>2024-05-11T10:01:37Z</time>
</trkpt>
<trkpt lat="49.59352869540453" lon="9.41113374195993">
<ele>416.6</ele>
<time>2024-05-11T10:01:38Z</time>
</trkpt>
<trkpt lat="49.59349441342056" lon="9.411165174096825">
<ele>416.8</ele>
<time>2024-05-11T10:01:39Z</time>
</trkpt>
<trkpt lat="49.593460047617555" lon="9.411194762215018">
<ele>416.8</ele>
<time>2024-05-11T10:01:40Z</time>
</trkpt>
<trkpt lat="49.59342568181455" lon="9.411226194351912">
<ele>417</ele>
<time>2024-05-11T10:01:41Z</time>
</trkpt>
<trkpt lat="49.59339139983058" lon="9.411254860460758">
<ele>417.2</ele>
<time>2024-05-11T10:01:42Z</time>
</trkpt>
<trkpt lat="49.593357034027576" lon="9.411283442750571">
<ele>417.2</ele>
<time>2024-05-11T10:01:43Z</time>
</trkpt>
<trkpt lat="49.593322752043605" lon="9.411313030868769">
<ele>417.4</ele>
<time>2024-05-11T10:01:44Z</time>
</trkpt>
<trkpt lat="49.5932883862406" lon="9.411344463005662">
<ele>417.6</ele>
<time>2024-05-11T10:01:45Z</time>
</trkpt>
<trkpt lat="49.59326164796949" lon="9.411373129114509">
<ele>417.6</ele>
<time>2024-05-11T10:01:46Z</time>
</trkpt>
<trkpt lat="49.59323113784194" lon="9.411397855728865">
<ele>417.8</ele>
<time>2024-05-11T10:01:47Z</time>
</trkpt>
<trkpt lat="49.5932006277144" lon="9.411423671990631">
<ele>417.8</ele>
<time>2024-05-11T10:01:48Z</time>
</trkpt>
<trkpt lat="49.59317397326231" lon="9.411444626748562">
<ele>418</ele>
<time>2024-05-11T10:01:49Z</time>
</trkpt>
<trkpt lat="49.59314723499119" lon="9.411466587334871">
<ele>418.2</ele>
<time>2024-05-11T10:01:50Z</time>
</trkpt>
<trkpt lat="49.59312049672008" lon="9.411488464102147">
<ele>418.4</ele>
<time>2024-05-11T10:01:51Z</time>
</trkpt>
<trkpt lat="49.59309761412442" lon="9.411511346697807">
<ele>418.6</ele>
<time>2024-05-11T10:01:52Z</time>
</trkpt>
<trkpt lat="49.59307473152876" lon="9.411533307284117">
<ele>418.6</ele>
<time>2024-05-11T10:01:53Z</time>
</trkpt>
<trkpt lat="49.59304807707667" lon="9.411558117717505">
<ele>418.8</ele>
<time>2024-05-11T10:01:54Z</time>
</trkpt>
<trkpt lat="49.593025194481015" lon="9.411582928150892">
<ele>419</ele>
<time>2024-05-11T10:01:55Z</time>
</trkpt>
<trkpt lat="49.5929984562099" lon="9.411608660593629">
<ele>419</ele>
<time>2024-05-11T10:01:56Z</time>
</trkpt>
<trkpt lat="49.5929794292897" lon="9.411628693342209">
<ele>419</ele>
<time>2024-05-11T10:01:57Z</time>
</trkpt>
<trkpt lat="49.59295646287501" lon="9.411655347794294">
<ele>419.2</ele>
<time>2024-05-11T10:01:58Z</time>
</trkpt>
<trkpt lat="49.59293743595481" lon="9.41168300807476">
<ele>419.2</ele>
<time>2024-05-11T10:01:59Z</time>
</trkpt>
<trkpt lat="49.59292218089104" lon="9.411718295887113">
<ele>419.2</ele>
<time>2024-05-11T10:02:00Z</time>
</trkpt>
<trkpt lat="49.59291455335915" lon="9.41176313906908">
<ele>419.2</ele>
<time>2024-05-11T10:02:01Z</time>
</trkpt>
<trkpt lat="49.592906925827265" lon="9.411813681945205">
<ele>419.2</ele>
<time>2024-05-11T10:02:02Z</time>
</trkpt>
<trkpt lat="49.592903070151806" lon="9.411868080496788">
<ele>419.2</ele>
<time>2024-05-11T10:02:03Z</time>
</trkpt>
<trkpt lat="49.59289929829538" lon="9.411932872608304">
<ele>419.2</ele>
<time>2024-05-11T10:02:04Z</time>
</trkpt>
<trkpt lat="49.59289167076349" lon="9.412005376070738">
<ele>419.2</ele>
<time>2024-05-11T10:02:05Z</time>
</trkpt>
<trkpt lat="49.59288404323161" lon="9.4120798073709">
<ele>419.2</ele>
<time>2024-05-11T10:02:06Z</time>
</trkpt>
<trkpt lat="49.59288018755615" lon="9.412168487906456">
<ele>419.2</ele>
<time>2024-05-11T10:02:07Z</time>
</trkpt>
<trkpt lat="49.59287641569972" lon="9.41226194612682">
<ele>419.2</ele>
<time>2024-05-11T10:02:08Z</time>
</trkpt>
<trkpt lat="49.59287256002426" lon="9.412364959716797">
<ele>419</ele>
<time>2024-05-11T10:02:09Z</time>
</trkpt>
<trkpt lat="49.592864932492375" lon="9.412467889487743">
<ele>418.8</ele>
<time>2024-05-11T10:02:10Z</time>
</trkpt>
<trkpt lat="49.59285353310406" lon="9.412576602771878">
<ele>418.6</ele>
<time>2024-05-11T10:02:11Z</time>
</trkpt>
<trkpt lat="49.59284204989672" lon="9.412688249722123">
<ele>418.4</ele>
<time>2024-05-11T10:02:12Z</time>
</trkpt>
<trkpt lat="49.59283442236483" lon="9.412803584709764">
<ele>418</ele>
<time>2024-05-11T10:02:13Z</time>
</trkpt>
<trkpt lat="49.592826794832945" lon="9.412924703210592">
<ele>417.8</ele>
<time>2024-05-11T10:02:14Z</time>
</trkpt>
<trkpt lat="49.59281539544463" lon="9.41305160522461">
<ele>417.6</ele>
<time>2024-05-11T10:02:15Z</time>
</trkpt>
<trkpt lat="49.592807767912745" lon="9.413183201104404">
<ele>417.2</ele>
<time>2024-05-11T10:02:16Z</time>
</trkpt>
<trkpt lat="49.59280391223729" lon="9.413318568840625">
<ele>416.8</ele>
<time>2024-05-11T10:02:17Z</time>
</trkpt>
<trkpt lat="49.59280391223729" lon="9.413457792252302">
<ele>416.6</ele>
<time>2024-05-11T10:02:18Z</time>
</trkpt>
<trkpt lat="49.592788657173514" lon="9.413631381466985">
<ele>416.2</ele>
<time>2024-05-11T10:02:19Z</time>
</trkpt>
<trkpt lat="49.59280391223729" lon="9.413783010095358">
<ele>415.8</ele>
<time>2024-05-11T10:02:20Z</time>
</trkpt>
<trkpt lat="49.59282302297652" lon="9.41392038948834">
<ele>415.2</ele>
<time>2024-05-11T10:02:21Z</time>
</trkpt>
<trkpt lat="49.59282302297652" lon="9.41405676305294">
<ele>414.8</ele>
<time>2024-05-11T10:02:22Z</time>
</trkpt>
<trkpt lat="49.5928306505084" lon="9.414183581247926">
<ele>414.4</ele>
<time>2024-05-11T10:02:23Z</time>
</trkpt>
<trkpt lat="49.59283442236483" lon="9.414306627586484">
<ele>414</ele>
<time>2024-05-11T10:02:24Z</time>
</trkpt>
<trkpt lat="49.59284204989672" lon="9.41442959010601">
<ele>413.6</ele>
<time>2024-05-11T10:02:25Z</time>
</trkpt>
<trkpt lat="49.5928496774286" lon="9.41455171443522">
<ele>413.2</ele>
<time>2024-05-11T10:02:26Z</time>
</trkpt>
<trkpt lat="49.59286116063595" lon="9.414676604792476">
<ele>412.6</ele>
<time>2024-05-11T10:02:27Z</time>
</trkpt>
<trkpt lat="49.592868788167834" lon="9.414798729121683">
<ele>412.2</ele>
<time>2024-05-11T10:02:28Z</time>
</trkpt>
<trkpt lat="49.59287641569972" lon="9.41492361947894">
<ele>411.8</ele>
<time>2024-05-11T10:02:29Z</time>
</trkpt>
<trkpt lat="49.59288404323161" lon="9.415049515664576">
<ele>411.2</ele>
<time>2024-05-11T10:02:30Z</time>
</trkpt>
<trkpt lat="49.59289167076349" lon="9.415173484012485">
<ele>410.8</ele>
<time>2024-05-11T10:02:31Z</time>
</trkpt>
<trkpt lat="49.59289544261992" lon="9.415296530351045">
<ele>410.4</ele>
<time>2024-05-11T10:02:32Z</time>
</trkpt>
<trkpt lat="49.592903070151806" lon="9.4154214207083">
<ele>410</ele>
<time>2024-05-11T10:02:33Z</time>
</trkpt>
<trkpt lat="49.59291069768369" lon="9.415543545037508">
<ele>409.6</ele>
<time>2024-05-11T10:02:34Z</time>
</trkpt>
<trkpt lat="49.59291832521558" lon="9.415661729872228">
<ele>409.2</ele>
<time>2024-05-11T10:02:35Z</time>
</trkpt>
<trkpt lat="49.59292980842292" lon="9.41577815450728">
<ele>408.8</ele>
<time>2024-05-11T10:02:36Z</time>
</trkpt>
<trkpt lat="49.59293743595481" lon="9.415898267179728">
<ele>408.4</ele>
<time>2024-05-11T10:02:37Z</time>
</trkpt>
<trkpt lat="49.592945063486695" lon="9.416014607995749">
<ele>408</ele>
<time>2024-05-11T10:02:38Z</time>
</trkpt>
<trkpt lat="49.59295269101858" lon="9.4161328766495">
<ele>407.4</ele>
<time>2024-05-11T10:02:39Z</time>
</trkpt>
<trkpt lat="49.592964090406895" lon="9.41625307314098">
<ele>407</ele>
<time>2024-05-11T10:02:40Z</time>
</trkpt>
<trkpt lat="49.59297180175781" lon="9.416370335966349">
<ele>406.6</ele>
<time>2024-05-11T10:02:41Z</time>
</trkpt>
<trkpt lat="49.59297557361424" lon="9.416482904925942">
<ele>406.2</ele>
<time>2024-05-11T10:02:42Z</time>
</trkpt>
<trkpt lat="49.592983201146126" lon="9.416598239913585">
<ele>405.8</ele>
<time>2024-05-11T10:02:43Z</time>
</trkpt>
<trkpt lat="49.59299082867801" lon="9.416713658720257">
<ele>405.4</ele>
<time>2024-05-11T10:02:44Z</time>
</trkpt>
<trkpt lat="49.5929984562099" lon="9.416826227679849">
<ele>405.2</ele>
<time>2024-05-11T10:02:45Z</time>
</trkpt>
<trkpt lat="49.59300993941724" lon="9.41694349050522">
<ele>404.8</ele>
<time>2024-05-11T10:02:46Z</time>
</trkpt>
<trkpt lat="49.59301756694913" lon="9.41705983132124">
<ele>404.4</ele>
<time>2024-05-11T10:02:47Z</time>
</trkpt>
<trkpt lat="49.593025194481015" lon="9.41718002781272">
<ele>404.2</ele>
<time>2024-05-11T10:02:48Z</time>
</trkpt>
<trkpt lat="49.5930328220129" lon="9.4173002243042">
<ele>404</ele>
<time>2024-05-11T10:02:49Z</time>
</trkpt>
<trkpt lat="49.59303659386933" lon="9.417420336976647">
<ele>403.8</ele>
<time>2024-05-11T10:02:50Z</time>
</trkpt>
<trkpt lat="49.593044221401215" lon="9.417541455477476">
<ele>403.4</ele>
<time>2024-05-11T10:02:51Z</time>
</trkpt>
<trkpt lat="49.59304807707667" lon="9.417661651968956">
<ele>403.2</ele>
<time>2024-05-11T10:02:52Z</time>
</trkpt>
<trkpt lat="49.59305570460856" lon="9.417783692479134">
<ele>402.8</ele>
<time>2024-05-11T10:02:53Z</time>
</trkpt>
<trkpt lat="49.593063332140446" lon="9.417904810979962">
<ele>402.6</ele>
<time>2024-05-11T10:02:54Z</time>
</trkpt>
<trkpt lat="49.59307095967233" lon="9.418025007471442">
<ele>402.2</ele>
<time>2024-05-11T10:02:55Z</time>
</trkpt>
<trkpt lat="49.59307858720422" lon="9.41814512014389">
<ele>402</ele>
<time>2024-05-11T10:02:56Z</time>
</trkpt>
<trkpt lat="49.59308998659253" lon="9.41826623864472">
<ele>401.6</ele>
<time>2024-05-11T10:02:57Z</time>
</trkpt>
<trkpt lat="49.59309384226799" lon="9.418388362973928">
<ele>401.2</ele>
<time>2024-05-11T10:02:58Z</time>
</trkpt>
<trkpt lat="49.59309761412442" lon="9.418508475646377">
<ele>400.8</ele>
<time>2024-05-11T10:02:59Z</time>
</trkpt>
<trkpt lat="49.59309761412442" lon="9.418628672137856">
<ele>400.4</ele>
<time>2024-05-11T10:03:00Z</time>
</trkpt>
<trkpt lat="49.59309761412442" lon="9.418747862800956">
<ele>400</ele>
<time>2024-05-11T10:03:01Z</time>
</trkpt>
<trkpt lat="49.59309384226799" lon="9.418868059292436">
<ele>399.6</ele>
<time>2024-05-11T10:03:02Z</time>
</trkpt>
<trkpt lat="49.59309384226799" lon="9.418992027640344">
<ele>399.2</ele>
<time>2024-05-11T10:03:03Z</time>
</trkpt>
<trkpt lat="49.59309384226799" lon="9.4191169179976">
<ele>398.8</ele>
<time>2024-05-11T10:03:04Z</time>
</trkpt>
<trkpt lat="49.59309384226799" lon="9.419244742020965">
<ele>398.4</ele>
<time>2024-05-11T10:03:05Z</time>
</trkpt>
<trkpt lat="49.59309384226799" lon="9.419378265738487">
<ele>397.8</ele>
<time>2024-05-11T10:03:06Z</time>
</trkpt>
<trkpt lat="49.59308998659253" lon="9.419514639303088">
<ele>397.4</ele>
<time>2024-05-11T10:03:07Z</time>
</trkpt>
<trkpt lat="49.59308998659253" lon="9.419650007039309">
<ele>396.8</ele>
<time>2024-05-11T10:03:08Z</time>
</trkpt>
<trkpt lat="49.59308998659253" lon="9.419784536585212">
<ele>396.4</ele>
<time>2024-05-11T10:03:09Z</time>
</trkpt>
<trkpt lat="49.59308998659253" lon="9.419919904321432">
<ele>396</ele>
<time>2024-05-11T10:03:10Z</time>
</trkpt>
<trkpt lat="49.59309384226799" lon="9.420053428038957">
<ele>395.4</ele>
<time>2024-05-11T10:03:11Z</time>
</trkpt>
<trkpt lat="49.59309761412442" lon="9.420186951756476">
<ele>395</ele>
<time>2024-05-11T10:03:12Z</time>
</trkpt>
<trkpt lat="49.59309761412442" lon="9.420319553464653">
<ele>394.6</ele>
<time>2024-05-11T10:03:13Z</time>
</trkpt>
<trkpt lat="49.59310146979987" lon="9.420452071353791">
<ele>394.2</ele>
<time>2024-05-11T10:03:14Z</time>
</trkpt>
<trkpt lat="49.59310146979987" lon="9.420583667233586">
<ele>393.8</ele>
<time>2024-05-11T10:03:15Z</time>
</trkpt>
<trkpt lat="49.5931052416563" lon="9.42071526311338">
<ele>393.4</ele>
<time>2024-05-11T10:03:16Z</time>
</trkpt>
<trkpt lat="49.59311286918819" lon="9.420845014974477">
<ele>393</ele>
<time>2024-05-11T10:03:17Z</time>
</trkpt>
<trkpt lat="49.59312049672008" lon="9.42097376100719">
<ele>392.4</ele>
<time>2024-05-11T10:03:18Z</time>
</trkpt>
<trkpt lat="49.59312812425196" lon="9.421101501211524">
<ele>392</ele>
<time>2024-05-11T10:03:19Z</time>
</trkpt>
<trkpt lat="49.59313197992742" lon="9.42122840322554">
<ele>391.6</ele>
<time>2024-05-11T10:03:20Z</time>
</trkpt>
<trkpt lat="49.59314723499119" lon="9.421356143429875">
<ele>391</ele>
<time>2024-05-11T10:03:21Z</time>
</trkpt>
<trkpt lat="49.59315871819854" lon="9.42148488946259">
<ele>390.6</ele>
<time>2024-05-11T10:03:22Z</time>
</trkpt>
<trkpt lat="49.59317774511874" lon="9.42160315811634">
<ele>390.2</ele>
<time>2024-05-11T10:03:23Z</time>
</trkpt>
<trkpt lat="49.593204483389854" lon="9.421719498932362">
<ele>389.8</ele>
<time>2024-05-11T10:03:24Z</time>
</trkpt>
<trkpt lat="49.59323113784194" lon="9.421832989901304">
<ele>389.4</ele>
<time>2024-05-11T10:03:25Z</time>
</trkpt>
<trkpt lat="49.59325787611306" lon="9.421948408707976">
<ele>388.8</ele>
<time>2024-05-11T10:03:26Z</time>
</trkpt>
<trkpt lat="49.59329215809703" lon="9.422062821686268">
<ele>388.2</ele>
<time>2024-05-11T10:03:27Z</time>
</trkpt>
<trkpt lat="49.59332652390003" lon="9.422175390645862">
<ele>387.6</ele>
<time>2024-05-11T10:03:28Z</time>
</trkpt>
<trkpt lat="49.59336851723492" lon="9.42227840423584">
<ele>387</ele>
<time>2024-05-11T10:03:29Z</time>
</trkpt>
<trkpt lat="49.59341428242624" lon="9.42237471230328">
<ele>386.4</ele>
<time>2024-05-11T10:03:30Z</time>
</trkpt>
<trkpt lat="49.59347144700587" lon="9.422461465001106">
<ele>385.8</ele>
<time>2024-05-11T10:03:31Z</time>
</trkpt>
<trkpt lat="49.5935249235481" lon="9.422546373680234">
<ele>385.2</ele>
<time>2024-05-11T10:03:32Z</time>
</trkpt>
<trkpt lat="49.59358208812773" lon="9.422626420855522">
<ele>384.8</ele>
<time>2024-05-11T10:03:33Z</time>
</trkpt>
<trkpt lat="49.593639336526394" lon="9.422701774165034">
<ele>384.2</ele>
<time>2024-05-11T10:03:34Z</time>
</trkpt>
<trkpt lat="49.593696584925056" lon="9.422775199636815">
<ele>383.8</ele>
<time>2024-05-11T10:03:35Z</time>
</trkpt>
<trkpt lat="49.59374997764826" lon="9.4228486251086">
<ele>383.4</ele>
<time>2024-05-11T10:03:36Z</time>
</trkpt>
<trkpt lat="49.593799514696" lon="9.422920206561685">
<ele>383</ele>
<time>2024-05-11T10:03:37Z</time>
</trkpt>
<trkpt lat="49.59384536370635" lon="9.422989776358008">
<ele>382.8</ele>
<time>2024-05-11T10:03:38Z</time>
</trkpt>
<trkpt lat="49.593894900754094" lon="9.423058507964017">
<ele>382.4</ele>
<time>2024-05-11T10:03:39Z</time>
</trkpt>
<trkpt lat="49.59394066594541" lon="9.42312807776034">
<ele>382</ele>
<time>2024-05-11T10:03:40Z</time>
</trkpt>
<trkpt lat="49.59398643113673" lon="9.423198653385043">
<ele>381.4</ele>
<time>2024-05-11T10:03:41Z</time>
</trkpt>
<trkpt lat="49.5940360520035" lon="9.423270151019096">
<ele>381</ele>
<time>2024-05-11T10:03:42Z</time>
</trkpt>
<trkpt lat="49.59408567287028" lon="9.42334173247218">
<ele>380.6</ele>
<time>2024-05-11T10:03:43Z</time>
</trkpt>
<trkpt lat="49.594131438061595" lon="9.423410380259156">
<ele>380.2</ele>
<time>2024-05-11T10:03:44Z</time>
</trkpt>
<trkpt lat="49.59418105892837" lon="9.42348187789321">
<ele>379.8</ele>
<time>2024-05-11T10:03:45Z</time>
</trkpt>
<trkpt lat="49.5942191965878" lon="9.4235600810498">
<ele>379.4</ele>
<time>2024-05-11T10:03:46Z</time>
</trkpt>
<trkpt lat="49.59425733424723" lon="9.423643061891198">
<ele>379</ele>
<time>2024-05-11T10:03:47Z</time>
</trkpt>
<trkpt lat="49.5942916162312" lon="9.423729814589024">
<ele>378.6</ele>
<time>2024-05-11T10:03:48Z</time>
</trkpt>
<trkpt lat="49.59432212635875" lon="9.42381665110588">
<ele>378.2</ele>
<time>2024-05-11T10:03:49Z</time>
</trkpt>
<trkpt lat="49.59435649216175" lon="9.423906253650784">
<ele>378</ele>
<time>2024-05-11T10:03:50Z</time>
</trkpt>
<trkpt lat="49.594387002289295" lon="9.423995018005373">
<ele>377.6</ele>
<time>2024-05-11T10:03:51Z</time>
</trkpt>
<trkpt lat="49.59441374056041" lon="9.424076993018389">
<ele>377</ele>
<time>2024-05-11T10:03:52Z</time>
</trkpt>
<trkpt lat="49.59444425068796" lon="9.424158046022058">
<ele>376.6</ele>
<time>2024-05-11T10:03:53Z</time>
</trkpt>
<trkpt lat="49.59447090514004" lon="9.424238177016376">
<ele>376</ele>
<time>2024-05-11T10:03:54Z</time>
</trkpt>
<trkpt lat="49.59449764341116" lon="9.424322079867125">
<ele>375.6</ele>
<time>2024-05-11T10:03:55Z</time>
</trkpt>
<trkpt lat="49.594528153538704" lon="9.424405060708525">
<ele>375.2</ele>
<time>2024-05-11T10:03:56Z</time>
</trkpt>
<trkpt lat="49.59455489180982" lon="9.42448804154992">
<ele>374.8</ele>
<time>2024-05-11T10:03:57Z</time>
</trkpt>
<trkpt lat="49.59458154626191" lon="9.424574794247746">
<ele>374.4</ele>
<time>2024-05-11T10:03:58Z</time>
</trkpt>
<trkpt lat="49.59461591206491" lon="9.424654925242066">
<ele>374.2</ele>
<time>2024-05-11T10:03:59Z</time>
</trkpt>
<trkpt lat="49.59465404972434" lon="9.42473027855158">
<ele>374</ele>
<time>2024-05-11T10:04:00Z</time>
</trkpt>
<trkpt lat="49.59469218738377" lon="9.42480370402336">
<ele>373.8</ele>
<time>2024-05-11T10:04:01Z</time>
</trkpt>
<trkpt lat="49.59473795257509" lon="9.424873273819683">
<ele>373.6</ele>
<time>2024-05-11T10:04:02Z</time>
</trkpt>
<trkpt lat="49.59477994590998" lon="9.4249467831105">
<ele>373.4</ele>
<time>2024-05-11T10:04:03Z</time>
</trkpt>
<trkpt lat="49.59481808356941" lon="9.425018280744553">
<ele>373.2</ele>
<time>2024-05-11T10:04:04Z</time>
</trkpt>
<trkpt lat="49.5948600769043" lon="9.425086928531528">
<ele>373</ele>
<time>2024-05-11T10:04:05Z</time>
</trkpt>
<trkpt lat="49.594901986420155" lon="9.425151804462075">
<ele>372.8</ele>
<time>2024-05-11T10:04:06Z</time>
</trkpt>
<trkpt lat="49.59494397975504" lon="9.425216596573591">
<ele>372.6</ele>
<time>2024-05-11T10:04:07Z</time>
</trkpt>
<trkpt lat="49.5949858892709" lon="9.425285328179598">
<ele>372.4</ele>
<time>2024-05-11T10:04:08Z</time>
</trkpt>
<trkpt lat="49.59502788260579" lon="9.425350120291114">
<ele>372</ele>
<time>2024-05-11T10:04:09Z</time>
</trkpt>
<trkpt lat="49.59506602026522" lon="9.425416924059393">
<ele>371.8</ele>
<time>2024-05-11T10:04:10Z</time>
</trkpt>
<trkpt lat="49.59510415792465" lon="9.425481716170909">
<ele>371.6</ele>
<time>2024-05-11T10:04:11Z</time>
</trkpt>
<trkpt lat="49.59514229558408" lon="9.425546592101457">
<ele>371.2</ele>
<time>2024-05-11T10:04:12Z</time>
</trkpt>
<trkpt lat="49.59518043324351" lon="9.425613395869732">
<ele>370.8</ele>
<time>2024-05-11T10:04:13Z</time>
</trkpt>
<trkpt lat="49.59521479904651" lon="9.425680115818976">
<ele>370.6</ele>
<time>2024-05-11T10:04:14Z</time>
</trkpt>
<trkpt lat="49.59525293670595" lon="9.425743063911796">
<ele>370.2</ele>
<time>2024-05-11T10:04:15Z</time>
</trkpt>
<trkpt lat="49.59528730250895" lon="9.425805089995263">
<ele>370</ele>
<time>2024-05-11T10:04:16Z</time>
</trkpt>
<trkpt lat="49.59532158449292" lon="9.42586988210678">
<ele>369.8</ele>
<time>2024-05-11T10:04:17Z</time>
</trkpt>
<trkpt lat="49.595355950295925" lon="9.4259328301996">
<ele>369.4</ele>
<time>2024-05-11T10:04:18Z</time>
</trkpt>
<trkpt lat="49.59539408795536" lon="9.425994856283069">
<ele>369.2</ele>
<time>2024-05-11T10:04:19Z</time>
</trkpt>
<trkpt lat="49.59542845375836" lon="9.426059648394585">
<ele>368.8</ele>
<time>2024-05-11T10:04:20Z</time>
</trkpt>
<trkpt lat="49.59546659141779" lon="9.426121674478054">
<ele>368.6</ele>
<time>2024-05-11T10:04:21Z</time>
</trkpt>
<trkpt lat="49.59550087340176" lon="9.426183700561523">
<ele>368.4</ele>
<time>2024-05-11T10:04:22Z</time>
</trkpt>
<trkpt lat="49.59553523920477" lon="9.426241870969534">
<ele>368.2</ele>
<time>2024-05-11T10:04:23Z</time>
</trkpt>
<trkpt lat="49.595577232539654" lon="9.426302891224625">
<ele>368</ele>
<time>2024-05-11T10:04:24Z</time>
</trkpt>
<trkpt lat="49.59561537019909" lon="9.426360055804253">
<ele>368</ele>
<time>2024-05-11T10:04:25Z</time>
</trkpt>
<trkpt lat="49.5956611353904" lon="9.426413532346489">
<ele>367.8</ele>
<time>2024-05-11T10:04:26Z</time>
</trkpt>
<trkpt lat="49.59570690058172" lon="9.42646784707904">
<ele>367.8</ele>
<time>2024-05-11T10:04:27Z</time>
</trkpt>
<trkpt lat="49.595752665773034" lon="9.42652123980224">
<ele>367.6</ele>
<time>2024-05-11T10:04:28Z</time>
</trkpt>
<trkpt lat="49.59579843096435" lon="9.426573710516095">
<ele>367.6</ele>
<time>2024-05-11T10:04:29Z</time>
</trkpt>
<trkpt lat="49.595848051831126" lon="9.426628109067678">
<ele>367.4</ele>
<time>2024-05-11T10:04:30Z</time>
</trkpt>
<trkpt lat="49.59589381702244" lon="9.426678651943805">
<ele>367.2</ele>
<time>2024-05-11T10:04:31Z</time>
</trkpt>
<trkpt lat="49.59594343788922" lon="9.426725339144468">
<ele>367</ele>
<time>2024-05-11T10:04:32Z</time>
</trkpt>
<trkpt lat="49.59599297493696" lon="9.426774960011244">
<ele>366.8</ele>
<time>2024-05-11T10:04:33Z</time>
</trkpt>
<trkpt lat="49.59603874012828" lon="9.426824497058988">
<ele>366.6</ele>
<time>2024-05-11T10:04:34Z</time>
</trkpt>
<trkpt lat="49.596088360995054" lon="9.42687696777284">
<ele>366.4</ele>
<time>2024-05-11T10:04:35Z</time>
</trkpt>
<trkpt lat="49.596130354329944" lon="9.426928516477346">
<ele>366.2</ele>
<time>2024-05-11T10:04:36Z</time>
</trkpt>
<trkpt lat="49.59617611952126" lon="9.426975203678012">
<ele>366.2</ele>
<time>2024-05-11T10:04:37Z</time>
</trkpt>
<trkpt lat="49.59622188471258" lon="9.427021974697707">
<ele>366</ele>
<time>2024-05-11T10:04:38Z</time>
</trkpt>
<trkpt lat="49.596263878047466" lon="9.427066734060643">
<ele>366</ele>
<time>2024-05-11T10:04:39Z</time>
</trkpt>
<trkpt lat="49.59630964323878" lon="9.427111577242613">
<ele>365.8</ele>
<time>2024-05-11T10:04:40Z</time>
</trkpt>
<trkpt lat="49.5963554084301" lon="9.427154492586851">
<ele>365.6</ele>
<time>2024-05-11T10:04:41Z</time>
</trkpt>
<trkpt lat="49.59639731794596" lon="9.42719648592174">
<ele>365.2</ele>
<time>2024-05-11T10:04:42Z</time>
</trkpt>
<trkpt lat="49.59643931128085" lon="9.427238395437598">
<ele>364.8</ele>
<time>2024-05-11T10:04:43Z</time>
</trkpt>
<trkpt lat="49.596481304615736" lon="9.427281310781837">
<ele>364.6</ele>
<time>2024-05-11T10:04:44Z</time>
</trkpt>
<trkpt lat="49.596523214131594" lon="9.427323304116726">
<ele>364.4</ele>
<time>2024-05-11T10:04:45Z</time>
</trkpt>
<trkpt lat="49.59656520746648" lon="9.427369991317391">
<ele>364.2</ele>
<time>2024-05-11T10:04:46Z</time>
</trkpt>
<trkpt lat="49.5966109726578" lon="9.427416762337089">
<ele>364</ele>
<time>2024-05-11T10:04:47Z</time>
</trkpt>
<trkpt lat="49.59665673784912" lon="9.427461605519056">
<ele>363.8</ele>
<time>2024-05-11T10:04:48Z</time>
</trkpt>
<trkpt lat="49.59670250304043" lon="9.427510220557451">
<ele>363.6</ele>
<time>2024-05-11T10:04:49Z</time>
</trkpt>
<trkpt lat="49.59675597958267" lon="9.427556991577148">
<ele>363.4</ele>
<time>2024-05-11T10:04:50Z</time>
</trkpt>
<trkpt lat="49.59680551663041" lon="9.427601750940084">
<ele>363.2</ele>
<time>2024-05-11T10:04:51Z</time>
</trkpt>
<trkpt lat="49.596858909353614" lon="9.427641816437244">
<ele>363</ele>
<time>2024-05-11T10:04:52Z</time>
</trkpt>
<trkpt lat="49.59691230207682" lon="9.427678026258944">
<ele>362.8</ele>
<time>2024-05-11T10:04:53Z</time>
</trkpt>
<trkpt lat="49.59696192294359" lon="9.4277114700526">
<ele>362.6</ele>
<time>2024-05-11T10:04:54Z</time>
</trkpt>
<trkpt lat="49.59700768813491" lon="9.427741980180144">
<ele>362.4</ele>
<time>2024-05-11T10:04:55Z</time>
</trkpt>
<trkpt lat="49.597053453326225" lon="9.427766790613532">
<ele>362.4</ele>
<time>2024-05-11T10:04:56Z</time>
</trkpt>
<trkpt lat="49.597095446661115" lon="9.42778967320919">
<ele>362</ele>
<time>2024-05-11T10:04:57Z</time>
</trkpt>
<trkpt lat="49.59714121185243" lon="9.427811549976468">
<ele>361.8</ele>
<time>2024-05-11T10:04:58Z</time>
</trkpt>
<trkpt lat="49.59719083271921" lon="9.427835438400509">
<ele>361.4</ele>
<time>2024-05-11T10:04:59Z</time>
</trkpt>
<trkpt lat="49.597232742235065" lon="9.427854465320706">
<ele>361.2</ele>
<time>2024-05-11T10:05:00Z</time>
</trkpt>
<trkpt lat="49.597274735569954" lon="9.427871648222208">
<ele>361</ele>
<time>2024-05-11T10:05:01Z</time>
</trkpt>
<trkpt lat="49.59731672890484" lon="9.427891680970788">
<ele>360.8</ele>
<time>2024-05-11T10:05:02Z</time>
</trkpt>
<trkpt lat="49.597354866564274" lon="9.42790794186294">
<ele>360.6</ele>
<time>2024-05-11T10:05:03Z</time>
</trkpt>
<trkpt lat="49.59739677608013" lon="9.42792696878314">
<ele>360.6</ele>
<time>2024-05-11T10:05:04Z</time>
</trkpt>
<trkpt lat="49.59744262509048" lon="9.42794700153172">
<ele>360.2</ele>
<time>2024-05-11T10:05:05Z</time>
</trkpt>
<trkpt lat="49.5974883902818" lon="9.427973739802836">
<ele>360</ele>
<time>2024-05-11T10:05:06Z</time>
</trkpt>
<trkpt lat="49.59753415547311" lon="9.428008021786807">
<ele>359.8</ele>
<time>2024-05-11T10:05:07Z</time>
</trkpt>
<trkpt lat="49.59757992066443" lon="9.428048087283967">
<ele>359.6</ele>
<time>2024-05-11T10:05:08Z</time>
</trkpt>
<trkpt lat="49.59761805832386" lon="9.4280862249434">
<ele>359.6</ele>
<time>2024-05-11T10:05:09Z</time>
</trkpt>
<trkpt lat="49.59765242412686" lon="9.42812629044056">
<ele>359.4</ele>
<time>2024-05-11T10:05:10Z</time>
</trkpt>
<trkpt lat="49.597690561786294" lon="9.428179683163762">
<ele>359.4</ele>
<time>2024-05-11T10:05:11Z</time>
</trkpt>
<trkpt lat="49.597724843770266" lon="9.428239781409502">
<ele>359.4</ele>
<time>2024-05-11T10:05:12Z</time>
</trkpt>
<trkpt lat="49.59775158204138" lon="9.428295101970434">
<ele>359.2</ele>
<time>2024-05-11T10:05:13Z</time>
</trkpt>
<trkpt lat="49.59778209216893" lon="9.428350422531366">
<ele>358.8</ele>
<time>2024-05-11T10:05:14Z</time>
</trkpt>
<trkpt lat="49.59781645797193" lon="9.42840188741684">
<ele>358.8</ele>
<time>2024-05-11T10:05:15Z</time>
</trkpt>
<trkpt lat="49.597843112424016" lon="9.428446730598807">
<ele>358.6</ele>
<time>2024-05-11T10:05:16Z</time>
</trkpt>
<trkpt lat="49.59787362255156" lon="9.428495345637202">
<ele>358.8</ele>
<time>2024-05-11T10:05:17Z</time>
</trkpt>
<trkpt lat="49.59790036082268" lon="9.42854018881917">
<ele>358.8</ele>
<time>2024-05-11T10:05:18Z</time>
</trkpt>
<trkpt lat="49.59792701527476" lon="9.42858025431633">
<ele>358.6</ele>
<time>2024-05-11T10:05:19Z</time>
</trkpt>
<trkpt lat="49.59795375354588" lon="9.428611686453223">
<ele>358.6</ele>
<time>2024-05-11T10:05:20Z</time>
</trkpt>
<trkpt lat="49.59797663614154" lon="9.428643202409148">
<ele>358.4</ele>
<time>2024-05-11T10:05:21Z</time>
</trkpt>
<trkpt lat="49.5979995187372" lon="9.42867463454604">
<ele>358</ele>
<time>2024-05-11T10:05:22Z</time>
</trkpt>
<trkpt lat="49.59801477380097" lon="9.428700366988778">
<ele>357.8</ele>
<time>2024-05-11T10:05:23Z</time>
</trkpt>
<trkpt lat="49.59803002886474" lon="9.428716627880933">
<ele>357.6</ele>
<time>2024-05-11T10:05:24Z</time>
</trkpt>
<trkpt lat="49.598041512072086" lon="9.42873666062951">
<ele>357.4</ele>
<time>2024-05-11T10:05:25Z</time>
</trkpt>
<trkpt lat="49.59805676713586" lon="9.42875669337809">
<ele>357.2</ele>
<time>2024-05-11T10:05:26Z</time>
</trkpt>
<trkpt lat="49.59807202219963" lon="9.42877479828894">
<ele>357.2</ele>
<time>2024-05-11T10:05:27Z</time>
</trkpt>
<trkpt lat="49.598083421587944" lon="9.42879483103752">
<ele>357</ele>
<time>2024-05-11T10:05:28Z</time>
</trkpt>
<trkpt lat="49.59809867665171" lon="9.428808158263564">
<ele>357</ele>
<time>2024-05-11T10:05:29Z</time>
</trkpt>
<trkpt lat="49.59811015985906" lon="9.42881964147091">
<ele>356.8</ele>
<time>2024-05-11T10:05:30Z</time>
</trkpt>
<trkpt lat="49.598121643066406" lon="9.428832968696952">
<ele>356.8</ele>
<time>2024-05-11T10:05:31Z</time>
</trkpt>
<trkpt lat="49.59813689813018" lon="9.428843446075916">
<ele>356.8</ele>
<time>2024-05-11T10:05:32Z</time>
</trkpt>
<trkpt lat="49.598144525662065" lon="9.428852079436185">
<ele>356.8</ele>
<time>2024-05-11T10:05:33Z</time>
</trkpt>
<trkpt lat="49.59815592505038" lon="9.428858701139688">
<ele>356.8</ele>
<time>2024-05-11T10:05:34Z</time>
</trkpt>
<trkpt lat="49.59816740825772" lon="9.428873034194112">
<ele>356.8</ele>
<time>2024-05-11T10:05:35Z</time>
</trkpt>
<trkpt lat="49.598182663321495" lon="9.428890217095612">
<ele>356.6</ele>
<time>2024-05-11T10:05:36Z</time>
</trkpt>
<trkpt lat="49.59819406270981" lon="9.428903544321656">
<ele>356.6</ele>
<time>2024-05-11T10:05:37Z</time>
</trkpt>
<trkpt lat="49.59820931777358" lon="9.4289168715477">
<ele>356.4</ele>
<time>2024-05-11T10:05:38Z</time>
</trkpt>
<trkpt lat="49.59822457283735" lon="9.428933132439852">
<ele>356.4</ele>
<time>2024-05-11T10:05:39Z</time>
</trkpt>
<trkpt lat="49.598243683576584" lon="9.42895693704486">
<ele>356.2</ele>
<time>2024-05-11T10:05:40Z</time>
</trkpt>
<trkpt lat="49.59826271049678" lon="9.428984597325323">
<ele>356.2</ele>
<time>2024-05-11T10:05:41Z</time>
</trkpt>
<trkpt lat="49.598277965560555" lon="9.429017957299948">
<ele>356.2</ele>
<time>2024-05-11T10:05:42Z</time>
</trkpt>
<trkpt lat="49.59829330444336" lon="9.42905131727457">
<ele>356.2</ele>
<time>2024-05-11T10:05:43Z</time>
</trkpt>
<trkpt lat="49.59830855950713" lon="9.429088532924652">
<ele>356</ele>
<time>2024-05-11T10:05:44Z</time>
</trkpt>
<trkpt lat="49.598319958895445" lon="9.429126670584084">
<ele>356</ele>
<time>2024-05-11T10:05:45Z</time>
</trkpt>
<trkpt lat="49.59833144210279" lon="9.429162964224815">
<ele>355.8</ele>
<time>2024-05-11T10:05:46Z</time>
</trkpt>
<trkpt lat="49.5983428414911" lon="9.429202023893597">
<ele>355.6</ele>
<time>2024-05-11T10:05:47Z</time>
</trkpt>
<trkpt lat="49.598358096554875" lon="9.42924971692264">
<ele>355.6</ele>
<time>2024-05-11T10:05:48Z</time>
</trkpt>
<trkpt lat="49.59837720729411" lon="9.429301181808114">
<ele>355.6</ele>
<time>2024-05-11T10:05:49Z</time>
</trkpt>
<trkpt lat="49.59838860668242" lon="9.429354658350348">
<ele>355.6</ele>
<time>2024-05-11T10:05:50Z</time>
</trkpt>
<trkpt lat="49.59840771742165" lon="9.429405201226473">
<ele>355.8</ele>
<time>2024-05-11T10:05:51Z</time>
</trkpt>
<trkpt lat="49.59842674434185" lon="9.429458593949676">
<ele>355.8</ele>
<time>2024-05-11T10:05:52Z</time>
</trkpt>
<trkpt lat="49.59844962693751" lon="9.429512908682227">
<ele>355.8</ele>
<time>2024-05-11T10:05:53Z</time>
</trkpt>
<trkpt lat="49.59846873767674" lon="9.42956630140543">
<ele>355.8</ele>
<time>2024-05-11T10:05:54Z</time>
</trkpt>
<trkpt lat="49.5984916202724" lon="9.429616928100586">
<ele>355.8</ele>
<time>2024-05-11T10:05:55Z</time>
</trkpt>
<trkpt lat="49.59850687533617" lon="9.429670320823789">
<ele>355.8</ele>
<time>2024-05-11T10:05:56Z</time>
</trkpt>
<trkpt lat="49.59852213039994" lon="9.4297284912318">
<ele>355.8</ele>
<time>2024-05-11T10:05:57Z</time>
</trkpt>
<trkpt lat="49.59854124113917" lon="9.429779956117272">
<ele>355.6</ele>
<time>2024-05-11T10:05:58Z</time>
</trkpt>
<trkpt lat="49.598556496202946" lon="9.429831504821776">
<ele>355.6</ele>
<time>2024-05-11T10:05:59Z</time>
</trkpt>
<trkpt lat="49.59857175126672" lon="9.429882047697902">
<ele>355.4</ele>
<time>2024-05-11T10:06:00Z</time>
</trkpt>
<trkpt lat="49.59858315065503" lon="9.429935440421104">
<ele>355.6</ele>
<time>2024-05-11T10:06:01Z</time>
</trkpt>
<trkpt lat="49.5985984057188" lon="9.42998313345015">
<ele>355.6</ele>
<time>2024-05-11T10:06:02Z</time>
</trkpt>
<trkpt lat="49.598617516458035" lon="9.430027892813088">
<ele>355.6</ele>
<time>2024-05-11T10:06:03Z</time>
</trkpt>
<trkpt lat="49.59863277152181" lon="9.430073658004403">
<ele>355.6</ele>
<time>2024-05-11T10:06:04Z</time>
</trkpt>
<trkpt lat="49.59864802658558" lon="9.430114729329944">
<ele>355.6</ele>
<time>2024-05-11T10:06:05Z</time>
</trkpt>
<trkpt lat="49.59866328164935" lon="9.430151861160994">
<ele>355.6</ele>
<time>2024-05-11T10:06:06Z</time>
</trkpt>
<trkpt lat="49.59867853671312" lon="9.430186226963997">
<ele>355.6</ele>
<time>2024-05-11T10:06:07Z</time>
</trkpt>
<trkpt lat="49.59869001992047" lon="9.43021958693862">
<ele>355.4</ele>
<time>2024-05-11T10:06:08Z</time>
</trkpt>
<trkpt lat="49.598697647452354" lon="9.430252024903892">
<ele>355.4</ele>
<time>2024-05-11T10:06:09Z</time>
</trkpt>
<trkpt lat="49.59870527498424" lon="9.430288234725596">
<ele>355.2</ele>
<time>2024-05-11T10:06:10Z</time>
</trkpt>
<trkpt lat="49.598716674372554" lon="9.430313045158982">
<ele>355.2</ele>
<time>2024-05-11T10:06:11Z</time>
</trkpt>
<trkpt lat="49.5987281575799" lon="9.43033693358302">
<ele>355</ele>
<time>2024-05-11T10:06:12Z</time>
</trkpt>
<trkpt lat="49.5987471845001" lon="9.43035788834095">
<ele>355</ele>
<time>2024-05-11T10:06:13Z</time>
</trkpt>
<trkpt lat="49.598754812031984" lon="9.430384626612067">
<ele>354.8</ele>
<time>2024-05-11T10:06:14Z</time>
</trkpt>
<trkpt lat="49.59877006709576" lon="9.430411281064153">
<ele>354.8</ele>
<time>2024-05-11T10:06:15Z</time>
</trkpt>
<trkpt lat="49.59877769462764" lon="9.430439947173">
<ele>354.6</ele>
<time>2024-05-11T10:06:16Z</time>
</trkpt>
<trkpt lat="49.5987815503031" lon="9.430468529462814">
<ele>354.6</ele>
<time>2024-05-11T10:06:17Z</time>
</trkpt>
<trkpt lat="49.59878917783499" lon="9.430499961599708">
<ele>354.4</ele>
<time>2024-05-11T10:06:18Z</time>
</trkpt>
<trkpt lat="49.5988005772233" lon="9.430529549717903">
<ele>354.4</ele>
<time>2024-05-11T10:06:19Z</time>
</trkpt>
<trkpt lat="49.598812060430646" lon="9.430561987683175">
<ele>354.2</ele>
<time>2024-05-11T10:06:20Z</time>
</trkpt>
<trkpt lat="49.59882354363799" lon="9.4305953476578">
<ele>354.2</ele>
<time>2024-05-11T10:06:21Z</time>
</trkpt>
<trkpt lat="49.59883117116988" lon="9.430624935775995">
<ele>354.2</ele>
<time>2024-05-11T10:06:22Z</time>
</trkpt>
<trkpt lat="49.59883879870176" lon="9.430658295750618">
<ele>354.4</ele>
<time>2024-05-11T10:06:23Z</time>
</trkpt>
<trkpt lat="49.59884257055819" lon="9.430689811706545">
<ele>354.4</ele>
<time>2024-05-11T10:06:24Z</time>
</trkpt>
<trkpt lat="49.59884642623365" lon="9.430726943537593">
<ele>354.4</ele>
<time>2024-05-11T10:06:25Z</time>
</trkpt>
<trkpt lat="49.598854053765535" lon="9.430769858881831">
<ele>354.4</ele>
<time>2024-05-11T10:06:26Z</time>
</trkpt>
<trkpt lat="49.598854053765535" lon="9.430818557739258">
<ele>354.2</ele>
<time>2024-05-11T10:06:27Z</time>
</trkpt>
<trkpt lat="49.59885019809008" lon="9.430865244939923">
<ele>354.2</ele>
<time>2024-05-11T10:06:28Z</time>
</trkpt>
<trkpt lat="49.59885019809008" lon="9.430919643491508">
<ele>354.2</ele>
<time>2024-05-11T10:06:29Z</time>
</trkpt>
<trkpt lat="49.59885019809008" lon="9.43097303621471">
<ele>354.2</ele>
<time>2024-05-11T10:06:30Z</time>
</trkpt>
<trkpt lat="49.59885019809008" lon="9.431026428937912">
<ele>354</ele>
<time>2024-05-11T10:06:31Z</time>
</trkpt>
<trkpt lat="49.59885782562196" lon="9.431075043976309">
<ele>353.8</ele>
<time>2024-05-11T10:06:32Z</time>
</trkpt>
<trkpt lat="49.59886545315385" lon="9.43112843669951">
<ele>353.8</ele>
<time>2024-05-11T10:06:33Z</time>
</trkpt>
<trkpt lat="49.598873080685735" lon="9.431184763088822">
<ele>353.6</ele>
<time>2024-05-11T10:06:34Z</time>
</trkpt>
<trkpt lat="49.59888070821762" lon="9.431242933496833">
<ele>353.6</ele>
<time>2024-05-11T10:06:35Z</time>
</trkpt>
<trkpt lat="49.59888833574951" lon="9.43130487576127">
<ele>353.4</ele>
<time>2024-05-11T10:06:36Z</time>
</trkpt>
<trkpt lat="49.59889596328139" lon="9.431367823854089">
<ele>353.2</ele>
<time>2024-05-11T10:06:37Z</time>
</trkpt>
<trkpt lat="49.59890744648874" lon="9.431427922099829">
<ele>353.2</ele>
<time>2024-05-11T10:06:38Z</time>
</trkpt>
<trkpt lat="49.598915074020624" lon="9.431487014517188">
<ele>353.2</ele>
<time>2024-05-11T10:06:39Z</time>
</trkpt>
<trkpt lat="49.59892647340894" lon="9.431548118591309">
<ele>353.2</ele>
<time>2024-05-11T10:06:40Z</time>
</trkpt>
<trkpt lat="49.59893795661628" lon="9.431610060855746">
<ele>353</ele>
<time>2024-05-11T10:06:41Z</time>
</trkpt>
<trkpt lat="49.59894558414817" lon="9.431670159101486">
<ele>353</ele>
<time>2024-05-11T10:06:42Z</time>
</trkpt>
<trkpt lat="49.59895698353648" lon="9.431731179356577">
<ele>353</ele>
<time>2024-05-11T10:06:43Z</time>
</trkpt>
<trkpt lat="49.59896461106837" lon="9.431796977296472">
<ele>353</ele>
<time>2024-05-11T10:06:44Z</time>
</trkpt>
<trkpt lat="49.598972238600254" lon="9.43186185322702">
<ele>353</ele>
<time>2024-05-11T10:06:45Z</time>
</trkpt>
<trkpt lat="49.59897994995117" lon="9.431928573176265">
<ele>352.8</ele>
<time>2024-05-11T10:06:46Z</time>
</trkpt>
<trkpt lat="49.598991349339485" lon="9.431993449106812">
<ele>352.8</ele>
<time>2024-05-11T10:06:47Z</time>
</trkpt>
<trkpt lat="49.59899897687137" lon="9.43205832503736">
<ele>352.8</ele>
<time>2024-05-11T10:06:48Z</time>
</trkpt>
<trkpt lat="49.59900283254683" lon="9.432118339464068">
<ele>352.8</ele>
<time>2024-05-11T10:06:49Z</time>
</trkpt>
<trkpt lat="49.59901046007872" lon="9.432178437709808">
<ele>352.8</ele>
<time>2024-05-11T10:06:50Z</time>
</trkpt>
<trkpt lat="49.59902185946703" lon="9.432229986414312">
<ele>352.8</ele>
<time>2024-05-11T10:06:51Z</time>
</trkpt>
<trkpt lat="49.599033342674375" lon="9.432288156822324">
<ele>353</ele>
<time>2024-05-11T10:06:52Z</time>
</trkpt>
<trkpt lat="49.5990371145308" lon="9.432343477383256">
<ele>353</ele>
<time>2024-05-11T10:06:53Z</time>
</trkpt>
<trkpt lat="49.59904474206269" lon="9.432399719953535">
<ele>353.2</ele>
<time>2024-05-11T10:06:54Z</time>
</trkpt>
<trkpt lat="49.599052369594574" lon="9.4324569683522">
<ele>353.2</ele>
<time>2024-05-11T10:06:55Z</time>
</trkpt>
<trkpt lat="49.59905622527003" lon="9.432515138760207">
<ele>353.2</ele>
<time>2024-05-11T10:06:56Z</time>
</trkpt>
<trkpt lat="49.59905999712646" lon="9.432568531483412">
<ele>353.2</ele>
<time>2024-05-11T10:06:57Z</time>
</trkpt>
<trkpt lat="49.599067624658346" lon="9.432619996368883">
<ele>353.2</ele>
<time>2024-05-11T10:06:58Z</time>
</trkpt>
<trkpt lat="49.599071480333805" lon="9.43267154507339">
<ele>353</ele>
<time>2024-05-11T10:06:59Z</time>
</trkpt>
<trkpt lat="49.59907525219023" lon="9.432723009958863">
<ele>353</ele>
<time>2024-05-11T10:07:00Z</time>
</trkpt>
<trkpt lat="49.599071480333805" lon="9.432771624997258">
<ele>353</ele>
<time>2024-05-11T10:07:01Z</time>
</trkpt>
<trkpt lat="49.599067624658346" lon="9.432813618332148">
<ele>353</ele>
<time>2024-05-11T10:07:02Z</time>
</trkpt>
<trkpt lat="49.59905999712646" lon="9.432853683829308">
<ele>353</ele>
<time>2024-05-11T10:07:03Z</time>
</trkpt>
<trkpt lat="49.599052369594574" lon="9.43288796581328">
<ele>352.8</ele>
<time>2024-05-11T10:07:04Z</time>
</trkpt>
<trkpt lat="49.5990371145308" lon="9.432911854237318">
<ele>353</ele>
<time>2024-05-11T10:07:05Z</time>
</trkpt>
<trkpt lat="49.59902571514249" lon="9.43292518146336">
<ele>353</ele>
<time>2024-05-11T10:07:06Z</time>
</trkpt>
<trkpt lat="49.59900660440326" lon="9.432938508689404">
<ele>353</ele>
<time>2024-05-11T10:07:07Z</time>
</trkpt>
<trkpt lat="49.598995205014944" lon="9.432954769581556">
<ele>353</ele>
<time>2024-05-11T10:07:08Z</time>
</trkpt>
<trkpt lat="49.5989837218076" lon="9.432974802330136">
<ele>353</ele>
<time>2024-05-11T10:07:09Z</time>
</trkpt>
<trkpt lat="49.59897609427571" lon="9.432999528944492">
<ele>353.2</ele>
<time>2024-05-11T10:07:10Z</time>
</trkpt>
<trkpt lat="49.59897609427571" lon="9.433030122891068">
<ele>353.2</ele>
<time>2024-05-11T10:07:11Z</time>
</trkpt>
<trkpt lat="49.598972238600254" lon="9.4330682605505">
<ele>353.2</ele>
<time>2024-05-11T10:07:12Z</time>
</trkpt>
<trkpt lat="49.59897609427571" lon="9.433114947751164">
<ele>353.2</ele>
<time>2024-05-11T10:07:13Z</time>
</trkpt>
<trkpt lat="49.598991349339485" lon="9.433161718770862">
<ele>353.2</ele>
<time>2024-05-11T10:07:14Z</time>
</trkpt>
<trkpt lat="49.59901423193514" lon="9.433206478133798">
<ele>353.2</ele>
<time>2024-05-11T10:07:15Z</time>
</trkpt>
<trkpt lat="49.59904097020626" lon="9.433257021009922">
<ele>353.2</ele>
<time>2024-05-11T10:07:16Z</time>
</trkpt>
<trkpt lat="49.59907525219023" lon="9.433308569714429">
<ele>353.2</ele>
<time>2024-05-11T10:07:17Z</time>
</trkpt>
<trkpt lat="49.59910576231778" lon="9.43336196243763">
<ele>353.2</ele>
<time>2024-05-11T10:07:18Z</time>
</trkpt>
<trkpt lat="49.59913627244532" lon="9.433415355160832">
<ele>353.2</ele>
<time>2024-05-11T10:07:19Z</time>
</trkpt>
<trkpt lat="49.5991668663919" lon="9.43347637541592">
<ele>353.2</ele>
<time>2024-05-11T10:07:20Z</time>
</trkpt>
<trkpt lat="49.59920500405133" lon="9.43353840149939">
<ele>353.2</ele>
<time>2024-05-11T10:07:21Z</time>
</trkpt>
<trkpt lat="49.59924314171076" lon="9.433601349592209">
<ele>353.2</ele>
<time>2024-05-11T10:07:22Z</time>
</trkpt>
<trkpt lat="49.59928127937019" lon="9.433669997379184">
<ele>353.2</ele>
<time>2024-05-11T10:07:23Z</time>
</trkpt>
<trkpt lat="49.59931941702962" lon="9.43373965099454">
<ele>353.2</ele>
<time>2024-05-11T10:07:24Z</time>
</trkpt>
<trkpt lat="49.59935755468905" lon="9.433808298781514">
<ele>353</ele>
<time>2024-05-11T10:07:25Z</time>
</trkpt>
<trkpt lat="49.59939954802394" lon="9.433876946568487">
<ele>353</ele>
<time>2024-05-11T10:07:26Z</time>
</trkpt>
<trkpt lat="49.59943768568337" lon="9.433943666517736">
<ele>352.8</ele>
<time>2024-05-11T10:07:27Z</time>
</trkpt>
<trkpt lat="49.5994758233428" lon="9.434009548276665">
<ele>352.4</ele>
<time>2024-05-11T10:07:28Z</time>
</trkpt>
<trkpt lat="49.59951396100223" lon="9.434081967920063">
<ele>352.2</ele>
<time>2024-05-11T10:07:29Z</time>
</trkpt>
<trkpt lat="49.59955595433712" lon="9.43415162153542">
<ele>352</ele>
<time>2024-05-11T10:07:30Z</time>
</trkpt>
<trkpt lat="49.59959786385298" lon="9.434221191331744">
<ele>351.8</ele>
<time>2024-05-11T10:07:31Z</time>
</trkpt>
<trkpt lat="49.59963985718787" lon="9.43428992293775">
<ele>351.6</ele>
<time>2024-05-11T10:07:32Z</time>
</trkpt>
<trkpt lat="49.59968185052276" lon="9.434358570724726">
<ele>351.4</ele>
<time>2024-05-11T10:07:33Z</time>
</trkpt>
<trkpt lat="49.59971998818219" lon="9.434425290673971">
<ele>351.2</ele>
<time>2024-05-11T10:07:34Z</time>
</trkpt>
<trkpt lat="49.59975812584162" lon="9.434492094442248">
<ele>351</ele>
<time>2024-05-11T10:07:35Z</time>
</trkpt>
<trkpt lat="49.59979626350105" lon="9.434557892382143">
<ele>350.6</ele>
<time>2024-05-11T10:07:36Z</time>
</trkpt>
<trkpt lat="49.59983054548502" lon="9.434621762484312">
<ele>350.4</ele>
<time>2024-05-11T10:07:37Z</time>
</trkpt>
<trkpt lat="49.59986876696348" lon="9.434681860730052">
<ele>350.2</ele>
<time>2024-05-11T10:07:38Z</time>
</trkpt>
<trkpt lat="49.59990304894745" lon="9.434740031138062">
<ele>350</ele>
<time>2024-05-11T10:07:39Z</time>
</trkpt>
<trkpt lat="49.59993741475046" lon="9.434798201546071">
<ele>350</ele>
<time>2024-05-11T10:07:40Z</time>
</trkpt>
<trkpt lat="49.59997169673443" lon="9.434855449944736">
<ele>349.8</ele>
<time>2024-05-11T10:07:41Z</time>
</trkpt>
<trkpt lat="49.60000220686197" lon="9.434909764677286">
<ele>349.8</ele>
<time>2024-05-11T10:07:42Z</time>
</trkpt>
<trkpt lat="49.60003280080855" lon="9.434961313381791">
<ele>349.8</ele>
<time>2024-05-11T10:07:43Z</time>
</trkpt>
<trkpt lat="49.60006331093609" lon="9.435009928420186">
<ele>349.6</ele>
<time>2024-05-11T10:07:44Z</time>
</trkpt>
<trkpt lat="49.60010144859552" lon="9.435054771602154">
<ele>349.4</ele>
<time>2024-05-11T10:07:45Z</time>
</trkpt>
<trkpt lat="49.600139586254954" lon="9.435092909261584">
<ele>349.4</ele>
<time>2024-05-11T10:07:46Z</time>
</trkpt>
<trkpt lat="49.600177723914385" lon="9.435125347226858">
<ele>349.2</ele>
<time>2024-05-11T10:07:47Z</time>
</trkpt>
<trkpt lat="49.600219717249274" lon="9.435146301984789">
<ele>349</ele>
<time>2024-05-11T10:07:48Z</time>
</trkpt>
<trkpt lat="49.60026162676513" lon="9.43515962921083">
<ele>349</ele>
<time>2024-05-11T10:07:49Z</time>
</trkpt>
<trkpt lat="49.60029976442456" lon="9.43516155704856">
<ele>349</ele>
<time>2024-05-11T10:07:50Z</time>
</trkpt>
<trkpt lat="49.60033027455211" lon="9.435166334733369">
<ele>348.8</ele>
<time>2024-05-11T10:07:51Z</time>
</trkpt>
<trkpt lat="49.60036464035511" lon="9.435174884274602">
<ele>348.8</ele>
<time>2024-05-11T10:07:52Z</time>
</trkpt>
<trkpt lat="49.60039137862623" lon="9.435196844860911">
<ele>348.6</ele>
<time>2024-05-11T10:07:53Z</time>
</trkpt>
<trkpt lat="49.600414261221886" lon="9.435233054682612">
<ele>348.4</ele>
<time>2024-05-11T10:07:54Z</time>
</trkpt>
<trkpt lat="49.60044091567397" lon="9.435276975855231">
<ele>348.2</ele>
<time>2024-05-11T10:07:55Z</time>
</trkpt>
<trkpt lat="49.60046765394509" lon="9.435321735218167">
<ele>348</ele>
<time>2024-05-11T10:07:56Z</time>
</trkpt>
<trkpt lat="49.600494308397174" lon="9.4353770557791">
<ele>347.8</ele>
<time>2024-05-11T10:07:57Z</time>
</trkpt>
<trkpt lat="49.60051719099283" lon="9.43543522618711">
<ele>347.6</ele>
<time>2024-05-11T10:07:58Z</time>
</trkpt>
<trkpt lat="49.60054392926395" lon="9.43549339659512">
<ele>347.4</ele>
<time>2024-05-11T10:07:59Z</time>
</trkpt>
<trkpt lat="49.600574439391494" lon="9.43555542267859">
<ele>347</ele>
<time>2024-05-11T10:08:00Z</time>
</trkpt>
<trkpt lat="49.60060494951904" lon="9.435620298609138">
<ele>346.8</ele>
<time>2024-05-11T10:08:01Z</time>
</trkpt>
<trkpt lat="49.60063545964658" lon="9.435685090720654">
<ele>346.6</ele>
<time>2024-05-11T10:08:02Z</time>
</trkpt>
<trkpt lat="49.60066596977413" lon="9.4357499666512">
<ele>346.4</ele>
<time>2024-05-11T10:08:03Z</time>
</trkpt>
<trkpt lat="49.6006965637207" lon="9.435816686600448">
<ele>346.2</ele>
<time>2024-05-11T10:08:04Z</time>
</trkpt>
<trkpt lat="49.600730845704675" lon="9.435881562530994">
<ele>346</ele>
<time>2024-05-11T10:08:05Z</time>
</trkpt>
<trkpt lat="49.60076135583222" lon="9.435948366299272">
<ele>345.8</ele>
<time>2024-05-11T10:08:06Z</time>
</trkpt>
<trkpt lat="49.60079186595976" lon="9.436013158410788">
<ele>345.6</ele>
<time>2024-05-11T10:08:07Z</time>
</trkpt>
<trkpt lat="49.60082623176277" lon="9.436081806197762">
<ele>345.4</ele>
<time>2024-05-11T10:08:08Z</time>
</trkpt>
<trkpt lat="49.60085674189031" lon="9.436149531975389">
<ele>345.4</ele>
<time>2024-05-11T10:08:09Z</time>
</trkpt>
<trkpt lat="49.60089487954974" lon="9.436218179762363">
<ele>345.4</ele>
<time>2024-05-11T10:08:10Z</time>
</trkpt>
<trkpt lat="49.60092161782086" lon="9.43628498353064">
<ele>345.2</ele>
<time>2024-05-11T10:08:11Z</time>
</trkpt>
<trkpt lat="49.6009521279484" lon="9.436341226100922">
<ele>345.2</ele>
<time>2024-05-11T10:08:12Z</time>
</trkpt>
<trkpt lat="49.600986409932375" lon="9.436398474499583">
<ele>345</ele>
<time>2024-05-11T10:08:13Z</time>
</trkpt>
<trkpt lat="49.60102077573538" lon="9.436458572745323">
<ele>344.8</ele>
<time>2024-05-11T10:08:14Z</time>
</trkpt>
<trkpt lat="49.60105514153838" lon="9.43652152083814">
<ele>344.8</ele>
<time>2024-05-11T10:08:15Z</time>
</trkpt>
<trkpt lat="49.60108942352235" lon="9.436594946309924">
<ele>344.6</ele>
<time>2024-05-11T10:08:16Z</time>
</trkpt>
<trkpt lat="49.6011199336499" lon="9.436671221628783">
<ele>344.4</ele>
<time>2024-05-11T10:08:17Z</time>
</trkpt>
<trkpt lat="49.60115044377744" lon="9.436753196641805">
<ele>344.4</ele>
<time>2024-05-11T10:08:18Z</time>
</trkpt>
<trkpt lat="49.601184809580445" lon="9.436831399798391">
<ele>344.2</ele>
<time>2024-05-11T10:08:19Z</time>
</trkpt>
<trkpt lat="49.601226802915335" lon="9.436913458630444">
<ele>344</ele>
<time>2024-05-11T10:08:20Z</time>
</trkpt>
<trkpt lat="49.601261084899306" lon="9.436993589624764">
<ele>344</ele>
<time>2024-05-11T10:08:21Z</time>
</trkpt>
<trkpt lat="49.60129922255874" lon="9.437069864943624">
<ele>343.8</ele>
<time>2024-05-11T10:08:22Z</time>
</trkpt>
<trkpt lat="49.60133736021817" lon="9.437143290415406">
<ele>343.6</ele>
<time>2024-05-11T10:08:23Z</time>
</trkpt>
<trkpt lat="49.6013754978776" lon="9.43721478804946">
<ele>343.6</ele>
<time>2024-05-11T10:08:24Z</time>
</trkpt>
<trkpt lat="49.6014098636806" lon="9.437286369502544">
<ele>343.4</ele>
<time>2024-05-11T10:08:25Z</time>
</trkpt>
<trkpt lat="49.6014442294836" lon="9.437357867136598">
<ele>343.2</ele>
<time>2024-05-11T10:08:26Z</time>
</trkpt>
<trkpt lat="49.601478511467576" lon="9.43743129260838">
<ele>343</ele>
<time>2024-05-11T10:08:27Z</time>
</trkpt>
<trkpt lat="49.60151664912701" lon="9.437506645917892">
<ele>343</ele>
<time>2024-05-11T10:08:28Z</time>
</trkpt>
<trkpt lat="49.60155487060547" lon="9.437578143551946">
<ele>343</ele>
<time>2024-05-11T10:08:29Z</time>
</trkpt>
<trkpt lat="49.6015930082649" lon="9.437655424699187">
<ele>342.8</ele>
<time>2024-05-11T10:08:30Z</time>
</trkpt>
<trkpt lat="49.60162351839245" lon="9.437731700018048">
<ele>342.8</ele>
<time>2024-05-11T10:08:31Z</time>
</trkpt>
<trkpt lat="49.60165402851999" lon="9.437811831012368">
<ele>342.6</ele>
<time>2024-05-11T10:08:32Z</time>
</trkpt>
<trkpt lat="49.60168831050396" lon="9.43788810633123">
<ele>342.6</ele>
<time>2024-05-11T10:08:33Z</time>
</trkpt>
<trkpt lat="49.60171504877508" lon="9.43796630948782">
<ele>342.4</ele>
<time>2024-05-11T10:08:34Z</time>
</trkpt>
<trkpt lat="49.601737931370735" lon="9.43804451264441">
<ele>342.4</ele>
<time>2024-05-11T10:08:35Z</time>
</trkpt>
<trkpt lat="49.60175318643451" lon="9.43812464363873">
<ele>342.2</ele>
<time>2024-05-11T10:08:36Z</time>
</trkpt>
<trkpt lat="49.60176466964185" lon="9.438206618651748">
<ele>342</ele>
<time>2024-05-11T10:08:37Z</time>
</trkpt>
<trkpt lat="49.60177229717374" lon="9.438284821808338">
<ele>341.8</ele>
<time>2024-05-11T10:08:38Z</time>
</trkpt>
<trkpt lat="49.601776069030166" lon="9.438363024964929">
<ele>341.6</ele>
<time>2024-05-11T10:08:39Z</time>
</trkpt>
<trkpt lat="49.601776069030166" lon="9.43844030611217">
<ele>341.6</ele>
<time>2024-05-11T10:08:40Z</time>
</trkpt>
<trkpt lat="49.60177229717374" lon="9.438511803746223">
<ele>341.4</ele>
<time>2024-05-11T10:08:41Z</time>
</trkpt>
<trkpt lat="49.60176844149828" lon="9.438585229218006">
<ele>341.2</ele>
<time>2024-05-11T10:08:42Z</time>
</trkpt>
<trkpt lat="49.60176466964185" lon="9.43865966051817">
<ele>341.2</ele>
<time>2024-05-11T10:08:43Z</time>
</trkpt>
<trkpt lat="49.60175318643451" lon="9.438733085989952">
<ele>341</ele>
<time>2024-05-11T10:08:44Z</time>
</trkpt>
<trkpt lat="49.60174555890262" lon="9.438808439299464">
<ele>340.8</ele>
<time>2024-05-11T10:08:45Z</time>
</trkpt>
<trkpt lat="49.601737931370735" lon="9.438883708789945">
<ele>340.6</ele>
<time>2024-05-11T10:08:46Z</time>
</trkpt>
<trkpt lat="49.60172267630696" lon="9.438961911946537">
<ele>340.4</ele>
<time>2024-05-11T10:08:47Z</time>
</trkpt>
<trkpt lat="49.60170742124319" lon="9.439042042940857">
<ele>340.2</ele>
<time>2024-05-11T10:08:48Z</time>
</trkpt>
<trkpt lat="49.601695938035846" lon="9.439126951619984">
<ele>340</ele>
<time>2024-05-11T10:08:49Z</time>
</trkpt>
<trkpt lat="49.601680682972074" lon="9.43921177648008">
<ele>339.8</ele>
<time>2024-05-11T10:08:50Z</time>
</trkpt>
<trkpt lat="49.60166928358376" lon="9.439296685159206">
<ele>339.4</ele>
<time>2024-05-11T10:08:51Z</time>
</trkpt>
<trkpt lat="49.60165402851999" lon="9.439383437857032">
<ele>339.2</ele>
<time>2024-05-11T10:08:52Z</time>
</trkpt>
<trkpt lat="49.60163491778076" lon="9.439473124220967">
<ele>339</ele>
<time>2024-05-11T10:08:53Z</time>
</trkpt>
<trkpt lat="49.601619662716985" lon="9.4395646546036">
<ele>338.8</ele>
<time>2024-05-11T10:08:54Z</time>
</trkpt>
<trkpt lat="49.60160440765321" lon="9.439655262976885">
<ele>338.6</ele>
<time>2024-05-11T10:08:55Z</time>
</trkpt>
<trkpt lat="49.60158538073301" lon="9.43974494934082">
<ele>338.4</ele>
<time>2024-05-11T10:08:56Z</time>
</trkpt>
<trkpt lat="49.60157012566924" lon="9.439834551885724">
<ele>338.2</ele>
<time>2024-05-11T10:08:57Z</time>
</trkpt>
<trkpt lat="49.60155487060547" lon="9.439928010106089">
<ele>338</ele>
<time>2024-05-11T10:08:58Z</time>
</trkpt>
<trkpt lat="49.601539531722665" lon="9.44001954048872">
<ele>337.6</ele>
<time>2024-05-11T10:08:59Z</time>
</trkpt>
<trkpt lat="49.601520504802465" lon="9.440114926546812">
<ele>337.4</ele>
<time>2024-05-11T10:09:00Z</time>
</trkpt>
<trkpt lat="49.601501394063234" lon="9.440213162451982">
<ele>337</ele>
<time>2024-05-11T10:09:01Z</time>
</trkpt>
<trkpt lat="49.60148613899946" lon="9.440311398357151">
<ele>336.8</ele>
<time>2024-05-11T10:09:02Z</time>
</trkpt>
<trkpt lat="49.60147088393569" lon="9.440406784415243">
<ele>336.6</ele>
<time>2024-05-11T10:09:03Z</time>
</trkpt>
<trkpt lat="49.60145562887192" lon="9.440501164644957">
<ele>336.4</ele>
<time>2024-05-11T10:09:04Z</time>
</trkpt>
<trkpt lat="49.60143660195172" lon="9.44059462286532">
<ele>336</ele>
<time>2024-05-11T10:09:05Z</time>
</trkpt>
<trkpt lat="49.60142511874437" lon="9.440685231238604">
<ele>335.8</ele>
<time>2024-05-11T10:09:06Z</time>
</trkpt>
<trkpt lat="49.601406091824174" lon="9.440771983936427">
<ele>335.6</ele>
<time>2024-05-11T10:09:07Z</time>
</trkpt>
<trkpt lat="49.6013908367604" lon="9.440859742462637">
<ele>335.4</ele>
<time>2024-05-11T10:09:08Z</time>
</trkpt>
<trkpt lat="49.6013754978776" lon="9.440951272845268">
<ele>335.2</ele>
<time>2024-05-11T10:09:09Z</time>
</trkpt>
<trkpt lat="49.6013564709574" lon="9.441042887046931">
<ele>335.2</ele>
<time>2024-05-11T10:09:10Z</time>
</trkpt>
<trkpt lat="49.601341215893626" lon="9.441142044961452">
<ele>334.6</ele>
<time>2024-05-11T10:09:11Z</time>
</trkpt>
<trkpt lat="49.60131833329797" lon="9.441240280866625">
<ele>334.4</ele>
<time>2024-05-11T10:09:12Z</time>
</trkpt>
<trkpt lat="49.60130307823419" lon="9.441336588934064">
<ele>334</ele>
<time>2024-05-11T10:09:13Z</time>
</trkpt>
<trkpt lat="49.601283967494965" lon="9.441438596695662">
<ele>333.6</ele>
<time>2024-05-11T10:09:14Z</time>
</trkpt>
<trkpt lat="49.60127256810665" lon="9.441532054916024">
<ele>333.2</ele>
<time>2024-05-11T10:09:15Z</time>
</trkpt>
<trkpt lat="49.601261084899306" lon="9.441630290821196">
<ele>332.8</ele>
<time>2024-05-11T10:09:16Z</time>
</trkpt>
<trkpt lat="49.60125345736742" lon="9.441729532554746">
<ele>332.4</ele>
<time>2024-05-11T10:09:17Z</time>
</trkpt>
<trkpt lat="49.601245829835534" lon="9.441829612478614">
<ele>332.2</ele>
<time>2024-05-11T10:09:18Z</time>
</trkpt>
<trkpt lat="49.60123820230365" lon="9.441929776221514">
<ele>332</ele>
<time>2024-05-11T10:09:19Z</time>
</trkpt>
<trkpt lat="49.60123820230365" lon="9.442031783983111">
<ele>331.8</ele>
<time>2024-05-11T10:09:20Z</time>
</trkpt>
<trkpt lat="49.60123820230365" lon="9.442128175869584">
<ele>331.4</ele>
<time>2024-05-11T10:09:21Z</time>
</trkpt>
<trkpt lat="49.60123820230365" lon="9.442232111468911">
<ele>331.2</ele>
<time>2024-05-11T10:09:22Z</time>
</trkpt>
<trkpt lat="49.60124205797911" lon="9.44233512505889">
<ele>331</ele>
<time>2024-05-11T10:09:23Z</time>
</trkpt>
<trkpt lat="49.601245829835534" lon="9.442436210811138">
<ele>330.6</ele>
<time>2024-05-11T10:09:24Z</time>
</trkpt>
<trkpt lat="49.601245829835534" lon="9.442538218572736">
<ele>330.4</ele>
<time>2024-05-11T10:09:25Z</time>
</trkpt>
<trkpt lat="49.601245829835534" lon="9.442641232162714">
<ele>330.2</ele>
<time>2024-05-11T10:09:26Z</time>
</trkpt>
<trkpt lat="49.601245829835534" lon="9.44274709559977">
<ele>330</ele>
<time>2024-05-11T10:09:27Z</time>
</trkpt>
<trkpt lat="49.60124968551099" lon="9.442851953208448">
<ele>329.8</ele>
<time>2024-05-11T10:09:28Z</time>
</trkpt>
<trkpt lat="49.60125345736742" lon="9.442951194941998">
<ele>329.6</ele>
<time>2024-05-11T10:09:29Z</time>
</trkpt>
<trkpt lat="49.601261084899306" lon="9.443050352856517">
<ele>329.4</ele>
<time>2024-05-11T10:09:30Z</time>
</trkpt>
<trkpt lat="49.601264940574765" lon="9.443148588761687">
<ele>329.2</ele>
<time>2024-05-11T10:09:31Z</time>
</trkpt>
<trkpt lat="49.601264940574765" lon="9.443246824666858">
<ele>329</ele>
<time>2024-05-11T10:09:32Z</time>
</trkpt>
<trkpt lat="49.60126871243119" lon="9.443345060572028">
<ele>328.6</ele>
<time>2024-05-11T10:09:33Z</time>
</trkpt>
<trkpt lat="49.60126871243119" lon="9.443445140495896">
<ele>328.4</ele>
<time>2024-05-11T10:09:34Z</time>
</trkpt>
<trkpt lat="49.601264940574765" lon="9.443548154085876">
<ele>328.2</ele>
<time>2024-05-11T10:09:35Z</time>
</trkpt>
<trkpt lat="49.601264940574765" lon="9.443651167675853">
<ele>327.8</ele>
<time>2024-05-11T10:09:36Z</time>
</trkpt>
<trkpt lat="49.60126871243119" lon="9.443757953122258">
<ele>327.6</ele>
<time>2024-05-11T10:09:37Z</time>
</trkpt>
<trkpt lat="49.60126871243119" lon="9.443866666406391">
<ele>327.2</ele>
<time>2024-05-11T10:09:38Z</time>
</trkpt>
<trkpt lat="49.60127256810665" lon="9.443978229537606">
<ele>327</ele>
<time>2024-05-11T10:09:39Z</time>
</trkpt>
<trkpt lat="49.60127633996308" lon="9.444087948650122">
<ele>326.8</ele>
<time>2024-05-11T10:09:40Z</time>
</trkpt>
<trkpt lat="49.60128019563854" lon="9.444199511781337">
<ele>326.6</ele>
<time>2024-05-11T10:09:41Z</time>
</trkpt>
<trkpt lat="49.60128782317042" lon="9.44430629722774">
<ele>326.4</ele>
<time>2024-05-11T10:09:42Z</time>
</trkpt>
<trkpt lat="49.60129922255874" lon="9.444411238655448">
<ele>326</ele>
<time>2024-05-11T10:09:43Z</time>
</trkpt>
<trkpt lat="49.60130685009062" lon="9.444518024101852">
<ele>325.8</ele>
<time>2024-05-11T10:09:44Z</time>
</trkpt>
<trkpt lat="49.60131833329797" lon="9.44462489336729">
<ele>325.6</ele>
<time>2024-05-11T10:09:45Z</time>
</trkpt>
<trkpt lat="49.60132973268628" lon="9.444731678813696">
<ele>325.4</ele>
<time>2024-05-11T10:09:46Z</time>
</trkpt>
<trkpt lat="49.601341215893626" lon="9.4448384642601">
<ele>325.2</ele>
<time>2024-05-11T10:09:47Z</time>
</trkpt>
<trkpt lat="49.6013564709574" lon="9.444943405687807">
<ele>325</ele>
<time>2024-05-11T10:09:48Z</time>
</trkpt>
<trkpt lat="49.60136787034571" lon="9.445051113143563">
<ele>324.6</ele>
<time>2024-05-11T10:09:49Z</time>
</trkpt>
<trkpt lat="49.60138320922851" lon="9.44515697658062">
<ele>324.2</ele>
<time>2024-05-11T10:09:50Z</time>
</trkpt>
<trkpt lat="49.6013908367604" lon="9.445261918008327">
<ele>324</ele>
<time>2024-05-11T10:09:51Z</time>
</trkpt>
<trkpt lat="49.601402236148715" lon="9.445363003760576">
<ele>323.8</ele>
<time>2024-05-11T10:09:52Z</time>
</trkpt>
<trkpt lat="49.60141371935606" lon="9.445461239665748">
<ele>323.6</ele>
<time>2024-05-11T10:09:53Z</time>
</trkpt>
<trkpt lat="49.60142897441983" lon="9.445560397580266">
<ele>323.4</ele>
<time>2024-05-11T10:09:54Z</time>
</trkpt>
<trkpt lat="49.601440373808146" lon="9.445656705647709">
<ele>323.4</ele>
<time>2024-05-11T10:09:55Z</time>
</trkpt>
<trkpt lat="49.60145562887192" lon="9.445754941552876">
<ele>323.2</ele>
<time>2024-05-11T10:09:56Z</time>
</trkpt>
<trkpt lat="49.60147088393569" lon="9.445853177458048">
<ele>323</ele>
<time>2024-05-11T10:09:57Z</time>
</trkpt>
<trkpt lat="49.60148613899946" lon="9.445955269038675">
<ele>322.8</ele>
<time>2024-05-11T10:09:58Z</time>
</trkpt>
<trkpt lat="49.60149376653135" lon="9.446053504943848">
<ele>322.8</ele>
<time>2024-05-11T10:09:59Z</time>
</trkpt>
<trkpt lat="49.60150524973869" lon="9.446154590696096">
<ele>322.6</ele>
<time>2024-05-11T10:10:00Z</time>
</trkpt>
<trkpt lat="49.60151664912701" lon="9.446253748610616">
<ele>322.2</ele>
<time>2024-05-11T10:10:01Z</time>
</trkpt>
<trkpt lat="49.60152813233435" lon="9.446345278993247">
<ele>322</ele>
<time>2024-05-11T10:10:02Z</time>
</trkpt>
<trkpt lat="49.60153575986624" lon="9.446432031691074">
<ele>321.8</ele>
<time>2024-05-11T10:10:03Z</time>
</trkpt>
<trkpt lat="49.60154715925455" lon="9.44651979021728">
<ele>321.6</ele>
<time>2024-05-11T10:10:04Z</time>
</trkpt>
<trkpt lat="49.601558642461896" lon="9.446611404418944">
<ele>321.4</ele>
<time>2024-05-11T10:10:05Z</time>
</trkpt>
<trkpt lat="49.60157012566924" lon="9.446701928973198">
<ele>321.2</ele>
<time>2024-05-11T10:10:06Z</time>
</trkpt>
<trkpt lat="49.60157775320113" lon="9.446793543174865">
<ele>321</ele>
<time>2024-05-11T10:10:07Z</time>
</trkpt>
<trkpt lat="49.60158915258944" lon="9.446885073557496">
<ele>320.8</ele>
<time>2024-05-11T10:10:08Z</time>
</trkpt>
<trkpt lat="49.601596780121326" lon="9.4469746761024">
<ele>320.8</ele>
<time>2024-05-11T10:10:09Z</time>
</trkpt>
<trkpt lat="49.60160826332867" lon="9.447066290304065">
<ele>320.6</ele>
<time>2024-05-11T10:10:10Z</time>
</trkpt>
<trkpt lat="49.601619662716985" lon="9.447158742696049">
<ele>320.4</ele>
<time>2024-05-11T10:10:11Z</time>
</trkpt>
<trkpt lat="49.60163114592433" lon="9.447250356897712">
<ele>320</ele>
<time>2024-05-11T10:10:12Z</time>
</trkpt>
<trkpt lat="49.601638773456216" lon="9.447339959442616">
<ele>319.8</ele>
<time>2024-05-11T10:10:13Z</time>
</trkpt>
<trkpt lat="49.60165017284453" lon="9.447429645806553">
<ele>319.6</ele>
<time>2024-05-11T10:10:14Z</time>
</trkpt>
<trkpt lat="49.6016654279083" lon="9.447520254179835">
<ele>319.4</ele>
<time>2024-05-11T10:10:15Z</time>
</trkpt>
<trkpt lat="49.60167305544019" lon="9.44760700687766">
<ele>319.2</ele>
<time>2024-05-11T10:10:16Z</time>
</trkpt>
<trkpt lat="49.60168453864753" lon="9.447691915556788">
<ele>319</ele>
<time>2024-05-11T10:10:17Z</time>
</trkpt>
<trkpt lat="49.601695938035846" lon="9.447774812579157">
<ele>318.8</ele>
<time>2024-05-11T10:10:18Z</time>
</trkpt>
<trkpt lat="49.60170742124319" lon="9.447858799248934">
<ele>318.8</ele>
<time>2024-05-11T10:10:19Z</time>
</trkpt>
<trkpt lat="49.60171504877508" lon="9.447937924414871">
<ele>318.6</ele>
<time>2024-05-11T10:10:20Z</time>
</trkpt>
<trkpt lat="49.60172653198242" lon="9.448017049580812">
<ele>318.4</ele>
<time>2024-05-11T10:10:21Z</time>
</trkpt>
<trkpt lat="49.60173415951431" lon="9.448095252737405">
<ele>318</ele>
<time>2024-05-11T10:10:22Z</time>
</trkpt>
<trkpt lat="49.60174555890262" lon="9.448173455893992">
<ele>318</ele>
<time>2024-05-11T10:10:23Z</time>
</trkpt>
<trkpt lat="49.601757042109966" lon="9.448253586888312">
<ele>317.8</ele>
<time>2024-05-11T10:10:24Z</time>
</trkpt>
<trkpt lat="49.60176844149828" lon="9.448329862207174">
<ele>317.6</ele>
<time>2024-05-11T10:10:25Z</time>
</trkpt>
<trkpt lat="49.60178369656205" lon="9.448406137526035">
<ele>317.4</ele>
<time>2024-05-11T10:10:26Z</time>
</trkpt>
<trkpt lat="49.6017951797694" lon="9.448483418673275">
<ele>317.4</ele>
<time>2024-05-11T10:10:27Z</time>
</trkpt>
<trkpt lat="49.60180657915771" lon="9.448558771982787">
<ele>317.4</ele>
<time>2024-05-11T10:10:28Z</time>
</trkpt>
<trkpt lat="49.60182183422148" lon="9.448631275445225">
<ele>317.2</ele>
<time>2024-05-11T10:10:29Z</time>
</trkpt>
<trkpt lat="49.60183331742883" lon="9.448704700917006">
<ele>317.2</ele>
<time>2024-05-11T10:10:30Z</time>
</trkpt>
<trkpt lat="49.60184471681714" lon="9.44877334870398">
<ele>317</ele>
<time>2024-05-11T10:10:31Z</time>
</trkpt>
<trkpt lat="49.601856200024486" lon="9.448844846338034">
<ele>317</ele>
<time>2024-05-11T10:10:32Z</time>
</trkpt>
<trkpt lat="49.6018675994128" lon="9.44891642779112">
<ele>317</ele>
<time>2024-05-11T10:10:33Z</time>
</trkpt>
<trkpt lat="49.601879082620144" lon="9.448987925425172">
<ele>317</ele>
<time>2024-05-11T10:10:34Z</time>
</trkpt>
<trkpt lat="49.60189048200846" lon="9.449058501049876">
<ele>316.8</ele>
<time>2024-05-11T10:10:35Z</time>
</trkpt>
<trkpt lat="49.601898193359375" lon="9.4491280708462">
<ele>316.8</ele>
<time>2024-05-11T10:10:36Z</time>
</trkpt>
<trkpt lat="49.60190959274769" lon="9.449198646470904">
<ele>316.8</ele>
<time>2024-05-11T10:10:37Z</time>
</trkpt>
<trkpt lat="49.60192107595503" lon="9.44927022792399">
<ele>316.6</ele>
<time>2024-05-11T10:10:38Z</time>
</trkpt>
<trkpt lat="49.60193247534335" lon="9.449343653395772">
<ele>316.6</ele>
<time>2024-05-11T10:10:39Z</time>
</trkpt>
<trkpt lat="49.60194010287523" lon="9.449413223192096">
<ele>316.4</ele>
<time>2024-05-11T10:10:40Z</time>
</trkpt>
<trkpt lat="49.601955357939005" lon="9.449489582329988">
<ele>316.4</ele>
<time>2024-05-11T10:10:41Z</time>
</trkpt>
<trkpt lat="49.60196684114635" lon="9.449568707495928">
<ele>316.4</ele>
<time>2024-05-11T10:10:42Z</time>
</trkpt>
<trkpt lat="49.60198209621012" lon="9.449644982814789">
<ele>316.2</ele>
<time>2024-05-11T10:10:43Z</time>
</trkpt>
<trkpt lat="49.601997351273894" lon="9.4497203361243">
<ele>316.2</ele>
<time>2024-05-11T10:10:44Z</time>
</trkpt>
<trkpt lat="49.60200875066221" lon="9.449792839586737">
<ele>316.2</ele>
<time>2024-05-11T10:10:45Z</time>
</trkpt>
<trkpt lat="49.60202023386955" lon="9.449871964752674">
<ele>316.2</ele>
<time>2024-05-11T10:10:46Z</time>
</trkpt>
<trkpt lat="49.602035488933325" lon="9.449948240071537">
<ele>316.2</ele>
<time>2024-05-11T10:10:47Z</time>
</trkpt>
<trkpt lat="49.6020507439971" lon="9.450026443228126">
<ele>316.2</ele>
<time>2024-05-11T10:10:48Z</time>
</trkpt>
<trkpt lat="49.60206985473633" lon="9.450104646384716">
<ele>316</ele>
<time>2024-05-11T10:10:49Z</time>
</trkpt>
<trkpt lat="49.6020851098001" lon="9.450181927531958">
<ele>316</ele>
<time>2024-05-11T10:10:50Z</time>
</trkpt>
<trkpt lat="49.60210799239576" lon="9.45025820285082">
<ele>316</ele>
<time>2024-05-11T10:10:51Z</time>
</trkpt>
<trkpt lat="49.6021385025233" lon="9.4503316283226">
<ele>315.8</ele>
<time>2024-05-11T10:10:52Z</time>
</trkpt>
<trkpt lat="49.60216515697539" lon="9.450405053794384">
<ele>315.6</ele>
<time>2024-05-11T10:10:53Z</time>
</trkpt>
<trkpt lat="49.60219566710293" lon="9.45047378540039">
<ele>315.6</ele>
<time>2024-05-11T10:10:54Z</time>
</trkpt>
<trkpt lat="49.602230032905936" lon="9.450541427358983">
<ele>315.4</ele>
<time>2024-05-11T10:10:55Z</time>
</trkpt>
<trkpt lat="49.60226817056537" lon="9.450603453442454">
<ele>315.4</ele>
<time>2024-05-11T10:10:56Z</time>
</trkpt>
<trkpt lat="49.602310163900256" lon="9.4506701733917">
<ele>315.2</ele>
<time>2024-05-11T10:10:57Z</time>
</trkpt>
<trkpt lat="49.60234830155969" lon="9.450739827007055">
<ele>315.2</ele>
<time>2024-05-11T10:10:58Z</time>
</trkpt>
<trkpt lat="49.60238643921912" lon="9.45081040263176">
<ele>315</ele>
<time>2024-05-11T10:10:59Z</time>
</trkpt>
<trkpt lat="49.60242843255401" lon="9.450881900265813">
<ele>315</ele>
<time>2024-05-11T10:11:00Z</time>
</trkpt>
<trkpt lat="49.60246657021344" lon="9.450951553881168">
<ele>315</ele>
<time>2024-05-11T10:11:01Z</time>
</trkpt>
<trkpt lat="49.602508479729295" lon="9.451021123677492">
<ele>314.8</ele>
<time>2024-05-11T10:11:02Z</time>
</trkpt>
<trkpt lat="49.602550473064184" lon="9.45108792744577">
<ele>314.6</ele>
<time>2024-05-11T10:11:03Z</time>
</trkpt>
<trkpt lat="49.602592466399074" lon="9.451156575232744">
<ele>314.6</ele>
<time>2024-05-11T10:11:04Z</time>
</trkpt>
<trkpt lat="49.60263823159039" lon="9.451219523325562">
<ele>314.4</ele>
<time>2024-05-11T10:11:05Z</time>
</trkpt>
<trkpt lat="49.60268399678171" lon="9.451274843886496">
<ele>314.2</ele>
<time>2024-05-11T10:11:06Z</time>
</trkpt>
<trkpt lat="49.60273353382945" lon="9.451328236609696">
<ele>314.2</ele>
<time>2024-05-11T10:11:07Z</time>
</trkpt>
<trkpt lat="49.602783154696226" lon="9.4513816293329">
<ele>314</ele>
<time>2024-05-11T10:11:08Z</time>
</trkpt>
<trkpt lat="49.602832775563" lon="9.451430244371297">
<ele>314</ele>
<time>2024-05-11T10:11:09Z</time>
</trkpt>
<trkpt lat="49.60288616828621" lon="9.451477015390992">
<ele>313.8</ele>
<time>2024-05-11T10:11:10Z</time>
</trkpt>
<trkpt lat="49.60293578915298" lon="9.45152185857296">
<ele>313.8</ele>
<time>2024-05-11T10:11:11Z</time>
</trkpt>
<trkpt lat="49.60298532620072" lon="9.451568545773624">
<ele>313.6</ele>
<time>2024-05-11T10:11:12Z</time>
</trkpt>
<trkpt lat="49.603038718923926" lon="9.451615316793324">
<ele>313.4</ele>
<time>2024-05-11T10:11:13Z</time>
</trkpt>
<trkpt lat="49.6030883397907" lon="9.45166007615626">
<ele>313</ele>
<time>2024-05-11T10:11:14Z</time>
</trkpt>
<trkpt lat="49.60313796065748" lon="9.451704919338226">
<ele>312.8</ele>
<time>2024-05-11T10:11:15Z</time>
</trkpt>
<trkpt lat="49.603179870173335" lon="9.451746912673116">
<ele>312.6</ele>
<time>2024-05-11T10:11:16Z</time>
</trkpt>
<trkpt lat="49.60322563536465" lon="9.451786978170276">
<ele>312.4</ele>
<time>2024-05-11T10:11:17Z</time>
</trkpt>
<trkpt lat="49.603271484375" lon="9.451827043667436">
<ele>312.2</ele>
<time>2024-05-11T10:11:18Z</time>
</trkpt>
<trkpt lat="49.60331724956632" lon="9.451863253489137">
<ele>312</ele>
<time>2024-05-11T10:11:19Z</time>
</trkpt>
<trkpt lat="49.60336301475763" lon="9.451898541301489">
<ele>311.8</ele>
<time>2024-05-11T10:11:20Z</time>
</trkpt>
<trkpt lat="49.60341640748083" lon="9.451926201581957">
<ele>311.6</ele>
<time>2024-05-11T10:11:21Z</time>
</trkpt>
<trkpt lat="49.60346602834761" lon="9.451951934024692">
<ele>311.2</ele>
<time>2024-05-11T10:11:22Z</time>
</trkpt>
<trkpt lat="49.603515565395355" lon="9.451968111097813">
<ele>311</ele>
<time>2024-05-11T10:11:23Z</time>
</trkpt>
<trkpt lat="49.60356895811856" lon="9.451981522142887">
<ele>310.6</ele>
<time>2024-05-11T10:11:24Z</time>
</trkpt>
<trkpt lat="49.60362243466079" lon="9.451991999521852">
<ele>310.4</ele>
<time>2024-05-11T10:11:25Z</time>
</trkpt>
<trkpt lat="49.603671971708536" lon="9.452001554891469">
<ele>310.2</ele>
<time>2024-05-11T10:11:26Z</time>
</trkpt>
<trkpt lat="49.60372159257531" lon="9.45201488211751">
<ele>310</ele>
<time>2024-05-11T10:11:27Z</time>
</trkpt>
<trkpt lat="49.603771129623055" lon="9.452025359496474">
<ele>309.8</ele>
<time>2024-05-11T10:11:28Z</time>
</trkpt>
<trkpt lat="49.60382075048983" lon="9.45203298702836">
<ele>309.8</ele>
<time>2024-05-11T10:11:29Z</time>
</trkpt>
<trkpt lat="49.60386651568115" lon="9.452043464407325">
<ele>309.6</ele>
<time>2024-05-11T10:11:30Z</time>
</trkpt>
<trkpt lat="49.603912280872464" lon="9.4520568754524">
<ele>309.6</ele>
<time>2024-05-11T10:11:31Z</time>
</trkpt>
<trkpt lat="49.60395812988281" lon="9.452072130516171">
<ele>309.4</ele>
<time>2024-05-11T10:11:32Z</time>
</trkpt>
<trkpt lat="49.60400389507413" lon="9.452088307589293">
<ele>309.4</ele>
<time>2024-05-11T10:11:33Z</time>
</trkpt>
<trkpt lat="49.604049660265446" lon="9.452106412500145">
<ele>309.2</ele>
<time>2024-05-11T10:11:34Z</time>
</trkpt>
<trkpt lat="49.6040915697813" lon="9.45213315077126">
<ele>309</ele>
<time>2024-05-11T10:11:35Z</time>
</trkpt>
<trkpt lat="49.60413356311619" lon="9.452157961204648">
<ele>309</ele>
<time>2024-05-11T10:11:36Z</time>
</trkpt>
<trkpt lat="49.60417555645108" lon="9.452176988124847">
<ele>308.8</ele>
<time>2024-05-11T10:11:37Z</time>
</trkpt>
<trkpt lat="49.60421746596694" lon="9.452199870720506">
<ele>308.6</ele>
<time>2024-05-11T10:11:38Z</time>
</trkpt>
<trkpt lat="49.60425183176994" lon="9.452217975631356">
<ele>308.4</ele>
<time>2024-05-11T10:11:39Z</time>
</trkpt>
<trkpt lat="49.60428234189749" lon="9.45223331451416">
<ele>308.2</ele>
<time>2024-05-11T10:11:40Z</time>
</trkpt>
<trkpt lat="49.604305224493146" lon="9.452248569577932">
<ele>308.2</ele>
<time>2024-05-11T10:11:41Z</time>
</trkpt>
<trkpt lat="49.60433196276426" lon="9.452261896803977">
<ele>308</ele>
<time>2024-05-11T10:11:42Z</time>
</trkpt>
<trkpt lat="49.60435098968446" lon="9.45228855125606">
<ele>308</ele>
<time>2024-05-11T10:11:43Z</time>
</trkpt>
<trkpt lat="49.60435098968446" lon="9.45232861675322">
<ele>307.8</ele>
<time>2024-05-11T10:11:44Z</time>
</trkpt>
<trkpt lat="49.60433959029615" lon="9.45237153209746">
<ele>307.8</ele>
<time>2024-05-11T10:11:45Z</time>
</trkpt>
<trkpt lat="49.60433959029615" lon="9.452424924820662">
<ele>307.8</ele>
<time>2024-05-11T10:11:46Z</time>
</trkpt>
<trkpt lat="49.60433573462069" lon="9.45248787291348">
<ele>307.6</ele>
<time>2024-05-11T10:11:47Z</time>
</trkpt>
<trkpt lat="49.604347217828035" lon="9.452553670853376">
<ele>307.8</ele>
<time>2024-05-11T10:11:48Z</time>
</trkpt>
<trkpt lat="49.604370100423694" lon="9.452618546783924">
<ele>307.8</ele>
<time>2024-05-11T10:11:49Z</time>
</trkpt>
<trkpt lat="49.604404382407665" lon="9.452670095488427">
<ele>307.8</ele>
<time>2024-05-11T10:11:50Z</time>
</trkpt>
<trkpt lat="49.604446375742555" lon="9.452703455463052">
<ele>307.8</ele>
<time>2024-05-11T10:11:51Z</time>
</trkpt>
<trkpt lat="49.60448836907744" lon="9.452732037752869">
<ele>307.8</ele>
<time>2024-05-11T10:11:52Z</time>
</trkpt>
<trkpt lat="49.60453413426876" lon="9.452761625871062">
<ele>307.8</ele>
<time>2024-05-11T10:11:53Z</time>
</trkpt>
<trkpt lat="49.60457604378462" lon="9.452793058007956">
<ele>307.8</ele>
<time>2024-05-11T10:11:54Z</time>
</trkpt>
<trkpt lat="49.60461418144405" lon="9.452819796279073">
<ele>307.8</ele>
<time>2024-05-11T10:11:55Z</time>
</trkpt>
<trkpt lat="49.60465617477894" lon="9.452848378568888">
<ele>307.8</ele>
<time>2024-05-11T10:11:56Z</time>
</trkpt>
<trkpt lat="49.60469816811383" lon="9.452879894524813">
<ele>307.8</ele>
<time>2024-05-11T10:11:57Z</time>
</trkpt>
<trkpt lat="49.604740077629685" lon="9.452910404652355">
<ele>307.8</ele>
<time>2024-05-11T10:11:58Z</time>
</trkpt>
<trkpt lat="49.60477821528912" lon="9.45294183678925">
<ele>307.8</ele>
<time>2024-05-11T10:11:59Z</time>
</trkpt>
<trkpt lat="49.604820208624005" lon="9.452969497069716">
<ele>307.8</ele>
<time>2024-05-11T10:12:00Z</time>
</trkpt>
<trkpt lat="49.60485834628344" lon="9.452998079359531">
<ele>307.8</ele>
<time>2024-05-11T10:12:01Z</time>
</trkpt>
<trkpt lat="49.604900339618325" lon="9.453028673306108">
<ele>307.8</ele>
<time>2024-05-11T10:12:02Z</time>
</trkpt>
<trkpt lat="49.60494224913418" lon="9.453058177605271">
<ele>307.8</ele>
<time>2024-05-11T10:12:03Z</time>
</trkpt>
<trkpt lat="49.60498424246907" lon="9.453088687732816">
<ele>307.8</ele>
<time>2024-05-11T10:12:04Z</time>
</trkpt>
<trkpt lat="49.60503000766039" lon="9.453116348013282">
<ele>307.8</ele>
<time>2024-05-11T10:12:05Z</time>
</trkpt>
<trkpt lat="49.60507200099528" lon="9.453149791806936">
<ele>307.8</ele>
<time>2024-05-11T10:12:06Z</time>
</trkpt>
<trkpt lat="49.60512153804302" lon="9.453186923637986">
<ele>307.8</ele>
<time>2024-05-11T10:12:07Z</time>
</trkpt>
<trkpt lat="49.60516353137791" lon="9.453225061297417">
<ele>307.8</ele>
<time>2024-05-11T10:12:08Z</time>
</trkpt>
<trkpt lat="49.60520929656923" lon="9.453265126794577">
<ele>307.8</ele>
<time>2024-05-11T10:12:09Z</time>
</trkpt>
<trkpt lat="49.60524743422866" lon="9.453312819823624">
<ele>307.8</ele>
<time>2024-05-11T10:12:10Z</time>
</trkpt>
<trkpt lat="49.60528557188809" lon="9.453363362699749">
<ele>307.8</ele>
<time>2024-05-11T10:12:11Z</time>
</trkpt>
<trkpt lat="49.60532370954752" lon="9.453421533107758">
<ele>307.8</ele>
<time>2024-05-11T10:12:12Z</time>
</trkpt>
<trkpt lat="49.60535807535052" lon="9.453483559191229">
<ele>307.8</ele>
<time>2024-05-11T10:12:13Z</time>
</trkpt>
<trkpt lat="49.60539621300995" lon="9.453544579446316">
<ele>307.8</ele>
<time>2024-05-11T10:12:14Z</time>
</trkpt>
<trkpt lat="49.60543057881296" lon="9.45361322723329">
<ele>308</ele>
<time>2024-05-11T10:12:15Z</time>
</trkpt>
<trkpt lat="49.60546486079693" lon="9.453681875020266">
<ele>308</ele>
<time>2024-05-11T10:12:16Z</time>
</trkpt>
<trkpt lat="49.60550308227539" lon="9.453755300492048">
<ele>308</ele>
<time>2024-05-11T10:12:17Z</time>
</trkpt>
<trkpt lat="49.60554121993482" lon="9.453828809782864">
<ele>307.8</ele>
<time>2024-05-11T10:12:18Z</time>
</trkpt>
<trkpt lat="49.60557935759425" lon="9.453905085101724">
<ele>307.8</ele>
<time>2024-05-11T10:12:19Z</time>
</trkpt>
<trkpt lat="49.60561363957822" lon="9.453981360420585">
<ele>307.6</ele>
<time>2024-05-11T10:12:20Z</time>
</trkpt>
<trkpt lat="49.605651777237654" lon="9.454058641567826">
<ele>307.4</ele>
<time>2024-05-11T10:12:21Z</time>
</trkpt>
<trkpt lat="49.60568614304066" lon="9.454139694571497">
<ele>307.2</ele>
<time>2024-05-11T10:12:22Z</time>
</trkpt>
<trkpt lat="49.6057166531682" lon="9.45423030294478">
<ele>307</ele>
<time>2024-05-11T10:12:23Z</time>
</trkpt>
<trkpt lat="49.60573953576386" lon="9.454319905489683">
<ele>306.8</ele>
<time>2024-05-11T10:12:24Z</time>
</trkpt>
<trkpt lat="49.60576241835952" lon="9.454411435872316">
<ele>306.6</ele>
<time>2024-05-11T10:12:25Z</time>
</trkpt>
<trkpt lat="49.60578152909875" lon="9.454508749768138">
<ele>306.4</ele>
<time>2024-05-11T10:12:26Z</time>
</trkpt>
<trkpt lat="49.60579678416252" lon="9.454601285979152">
<ele>306.4</ele>
<time>2024-05-11T10:12:27Z</time>
</trkpt>
<trkpt lat="49.605812039226294" lon="9.454696588218212">
<ele>306.2</ele>
<time>2024-05-11T10:12:28Z</time>
</trkpt>
<trkpt lat="49.60582343861461" lon="9.454790046438577">
<ele>306.2</ele>
<time>2024-05-11T10:12:29Z</time>
</trkpt>
<trkpt lat="49.60582343861461" lon="9.45487973280251">
<ele>306</ele>
<time>2024-05-11T10:12:30Z</time>
</trkpt>
<trkpt lat="49.60582343861461" lon="9.454966485500336">
<ele>306</ele>
<time>2024-05-11T10:12:31Z</time>
</trkpt>
<trkpt lat="49.60581966675818" lon="9.45505709387362">
<ele>305.8</ele>
<time>2024-05-11T10:12:32Z</time>
</trkpt>
<trkpt lat="49.605808183550835" lon="9.455146780237556">
<ele>305.6</ele>
<time>2024-05-11T10:12:33Z</time>
</trkpt>
<trkpt lat="49.60580055601895" lon="9.45523445494473">
<ele>305.4</ele>
<time>2024-05-11T10:12:34Z</time>
</trkpt>
<trkpt lat="49.60579292848706" lon="9.455321291461589">
<ele>305.4</ele>
<time>2024-05-11T10:12:35Z</time>
</trkpt>
<trkpt lat="49.605785300955176" lon="9.455405194312334">
<ele>305.2</ele>
<time>2024-05-11T10:12:36Z</time>
</trkpt>
<trkpt lat="49.60577390156686" lon="9.455486247316005">
<ele>305.2</ele>
<time>2024-05-11T10:12:37Z</time>
</trkpt>
<trkpt lat="49.60576241835952" lon="9.45557207800448">
<ele>305</ele>
<time>2024-05-11T10:12:38Z</time>
</trkpt>
<trkpt lat="49.60575479082763" lon="9.455656986683609">
<ele>304.8</ele>
<time>2024-05-11T10:12:39Z</time>
</trkpt>
<trkpt lat="49.605747163295746" lon="9.45574466139078">
<ele>304.8</ele>
<time>2024-05-11T10:12:40Z</time>
</trkpt>
<trkpt lat="49.60573576390743" lon="9.455840047448874">
<ele>304.6</ele>
<time>2024-05-11T10:12:41Z</time>
</trkpt>
<trkpt lat="49.60572050884366" lon="9.455934511497617">
<ele>304.4</ele>
<time>2024-05-11T10:12:42Z</time>
</trkpt>
<trkpt lat="49.60570139810443" lon="9.456036519259214">
<ele>304.2</ele>
<time>2024-05-11T10:12:43Z</time>
</trkpt>
<trkpt lat="49.60568237118423" lon="9.456138610839844">
<ele>303.8</ele>
<time>2024-05-11T10:12:44Z</time>
</trkpt>
<trkpt lat="49.60565940476954" lon="9.456239696592093">
<ele>303.6</ele>
<time>2024-05-11T10:12:45Z</time>
</trkpt>
<trkpt lat="49.605632750317454" lon="9.456344554200768">
<ele>303.2</ele>
<time>2024-05-11T10:12:46Z</time>
</trkpt>
<trkpt lat="49.60560601204634" lon="9.456448489800096">
<ele>303</ele>
<time>2024-05-11T10:12:47Z</time>
</trkpt>
<trkpt lat="49.60557935759425" lon="9.456549575552344">
<ele>302.6</ele>
<time>2024-05-11T10:12:48Z</time>
</trkpt>
<trkpt lat="49.60554884746671" lon="9.456647811457517">
<ele>302.2</ele>
<time>2024-05-11T10:12:49Z</time>
</trkpt>
<trkpt lat="49.60552210919559" lon="9.456747975200416">
<ele>302</ele>
<time>2024-05-11T10:12:50Z</time>
</trkpt>
<trkpt lat="49.60549537092447" lon="9.456846211105583">
<ele>301.6</ele>
<time>2024-05-11T10:12:51Z</time>
</trkpt>
<trkpt lat="49.60546871647239" lon="9.456945369020104">
<ele>301.4</ele>
<time>2024-05-11T10:12:52Z</time>
</trkpt>
<trkpt lat="49.60544197820127" lon="9.457044526934624">
<ele>301</ele>
<time>2024-05-11T10:12:53Z</time>
</trkpt>
<trkpt lat="49.605411468073726" lon="9.457143768668177">
<ele>300.8</ele>
<time>2024-05-11T10:12:54Z</time>
</trkpt>
<trkpt lat="49.60538481362164" lon="9.457244854420424">
<ele>300.4</ele>
<time>2024-05-11T10:12:55Z</time>
</trkpt>
<trkpt lat="49.60535807535052" lon="9.457347868010402">
<ele>300.2</ele>
<time>2024-05-11T10:12:56Z</time>
</trkpt>
<trkpt lat="49.60533142089844" lon="9.457449875772">
<ele>300</ele>
<time>2024-05-11T10:12:57Z</time>
</trkpt>
<trkpt lat="49.60530468262732" lon="9.457551883533595">
<ele>299.8</ele>
<time>2024-05-11T10:12:58Z</time>
</trkpt>
<trkpt lat="49.6052779443562" lon="9.457652969285846">
<ele>299.4</ele>
<time>2024-05-11T10:12:59Z</time>
</trkpt>
<trkpt lat="49.60524743422866" lon="9.457755060866477">
<ele>299.2</ele>
<time>2024-05-11T10:13:00Z</time>
</trkpt>
<trkpt lat="49.60522077977657" lon="9.457859918475153">
<ele>299</ele>
<time>2024-05-11T10:13:01Z</time>
</trkpt>
<trkpt lat="49.605194041505456" lon="9.45796485990286">
<ele>298.6</ele>
<time>2024-05-11T10:13:02Z</time>
</trkpt>
<trkpt lat="49.60517501458526" lon="9.458073573186994">
<ele>298.4</ele>
<time>2024-05-11T10:13:03Z</time>
</trkpt>
<trkpt lat="49.605155903846025" lon="9.458187064155936">
<ele>298.2</ele>
<time>2024-05-11T10:13:04Z</time>
</trkpt>
<trkpt lat="49.605136793106794" lon="9.458301477134228">
<ele>298</ele>
<time>2024-05-11T10:13:05Z</time>
</trkpt>
<trkpt lat="49.605117766186595" lon="9.458423601463435">
<ele>297.8</ele>
<time>2024-05-11T10:13:06Z</time>
</trkpt>
<trkpt lat="49.60509865544736" lon="9.458543714135883">
<ele>297.6</ele>
<time>2024-05-11T10:13:07Z</time>
</trkpt>
<trkpt lat="49.605079628527164" lon="9.458666760474443">
<ele>297.4</ele>
<time>2024-05-11T10:13:08Z</time>
</trkpt>
<trkpt lat="49.605056745931506" lon="9.458793578669429">
<ele>297</ele>
<time>2024-05-11T10:13:09Z</time>
</trkpt>
<trkpt lat="49.60502623580396" lon="9.458916625007989">
<ele>296.8</ele>
<time>2024-05-11T10:13:10Z</time>
</trkpt>
<trkpt lat="49.60499572567642" lon="9.459032965824008">
<ele>296.4</ele>
<time>2024-05-11T10:13:11Z</time>
</trkpt>
<trkpt lat="49.60496513172984" lon="9.45914645679295">
<ele>295.8</ele>
<time>2024-05-11T10:13:12Z</time>
</trkpt>
<trkpt lat="49.60493847727776" lon="9.459257097914817">
<ele>295.4</ele>
<time>2024-05-11T10:13:13Z</time>
</trkpt>
<trkpt lat="49.60491173900664" lon="9.459369583055375">
<ele>295</ele>
<time>2024-05-11T10:13:14Z</time>
</trkpt>
<trkpt lat="49.604896483942866" lon="9.45948307402432">
<ele>294.6</ele>
<time>2024-05-11T10:13:15Z</time>
</trkpt>
<trkpt lat="49.60488508455455" lon="9.459594720974565">
<ele>294.4</ele>
<time>2024-05-11T10:13:16Z</time>
</trkpt>
<trkpt lat="49.60487360134721" lon="9.459708211943507">
<ele>294.2</ele>
<time>2024-05-11T10:13:17Z</time>
</trkpt>
<trkpt lat="49.604862201958895" lon="9.459824552759528">
<ele>293.8</ele>
<time>2024-05-11T10:13:18Z</time>
</trkpt>
<trkpt lat="49.60485071875155" lon="9.45993804372847">
<ele>293.4</ele>
<time>2024-05-11T10:13:19Z</time>
</trkpt>
<trkpt lat="49.60483931936323" lon="9.46005530655384">
<ele>293</ele>
<time>2024-05-11T10:13:20Z</time>
</trkpt>
<trkpt lat="49.604824064299464" lon="9.460171647369862">
<ele>292.6</ele>
<time>2024-05-11T10:13:21Z</time>
</trkpt>
<trkpt lat="49.60481258109212" lon="9.460278432816269">
<ele>292.2</ele>
<time>2024-05-11T10:13:22Z</time>
</trkpt>
<trkpt lat="49.60479732602835" lon="9.460385302081704">
<ele>291.8</ele>
<time>2024-05-11T10:13:23Z</time>
</trkpt>
<trkpt lat="49.60477821528912" lon="9.460488315671682">
<ele>291.6</ele>
<time>2024-05-11T10:13:24Z</time>
</trkpt>
<trkpt lat="49.604762960225344" lon="9.460591245442629">
<ele>291.2</ele>
<time>2024-05-11T10:13:25Z</time>
</trkpt>
<trkpt lat="49.604743933305144" lon="9.460693337023258">
<ele>290.8</ele>
<time>2024-05-11T10:13:26Z</time>
</trkpt>
<trkpt lat="49.60472482256591" lon="9.460802050307391">
<ele>290.6</ele>
<time>2024-05-11T10:13:27Z</time>
</trkpt>
<trkpt lat="49.60470956750214" lon="9.46090791374445">
<ele>290.2</ele>
<time>2024-05-11T10:13:28Z</time>
</trkpt>
<trkpt lat="49.60469054058194" lon="9.461011849343777">
<ele>290</ele>
<time>2024-05-11T10:13:29Z</time>
</trkpt>
<trkpt lat="49.60467142984271" lon="9.461114862933757">
<ele>289.8</ele>
<time>2024-05-11T10:13:30Z</time>
</trkpt>
<trkpt lat="49.60465617477894" lon="9.461217876523731">
<ele>289.4</ele>
<time>2024-05-11T10:13:31Z</time>
</trkpt>
<trkpt lat="49.604644775390625" lon="9.461326589807868">
<ele>289.2</ele>
<time>2024-05-11T10:13:32Z</time>
</trkpt>
<trkpt lat="49.60462943650782" lon="9.461433375254272">
<ele>288.8</ele>
<time>2024-05-11T10:13:33Z</time>
</trkpt>
<trkpt lat="49.60461418144405" lon="9.461536388844252">
<ele>288.4</ele>
<time>2024-05-11T10:13:34Z</time>
</trkpt>
<trkpt lat="49.60460655391216" lon="9.46164032444358">
<ele>288</ele>
<time>2024-05-11T10:13:35Z</time>
</trkpt>
<trkpt lat="49.60459515452385" lon="9.461745182052256">
<ele>287.6</ele>
<time>2024-05-11T10:13:36Z</time>
</trkpt>
<trkpt lat="49.60459515452385" lon="9.461848195642231">
<ele>287.2</ele>
<time>2024-05-11T10:13:37Z</time>
</trkpt>
<trkpt lat="49.60458752699196" lon="9.461946431547403">
<ele>286.8</ele>
<time>2024-05-11T10:13:38Z</time>
</trkpt>
<trkpt lat="49.604583671316504" lon="9.462048523128033">
<ele>286.6</ele>
<time>2024-05-11T10:13:39Z</time>
</trkpt>
<trkpt lat="49.60457989946008" lon="9.462153380736709">
<ele>286.4</ele>
<time>2024-05-11T10:13:40Z</time>
</trkpt>
<trkpt lat="49.60457604378462" lon="9.462258322164416">
<ele>286.2</ele>
<time>2024-05-11T10:13:41Z</time>
</trkpt>
<trkpt lat="49.60457227192819" lon="9.462365107610822">
<ele>286</ele>
<time>2024-05-11T10:13:42Z</time>
</trkpt>
<trkpt lat="49.60456841625273" lon="9.462474742904304">
<ele>285.8</ele>
<time>2024-05-11T10:13:43Z</time>
</trkpt>
<trkpt lat="49.60456841625273" lon="9.46258538402617">
<ele>285.6</ele>
<time>2024-05-11T10:13:44Z</time>
</trkpt>
<trkpt lat="49.60456841625273" lon="9.462699880823491">
<ele>285.4</ele>
<time>2024-05-11T10:13:45Z</time>
</trkpt>
<trkpt lat="49.604564644396305" lon="9.462811443954706">
<ele>285.2</ele>
<time>2024-05-11T10:13:46Z</time>
</trkpt>
<trkpt lat="49.604564644396305" lon="9.462924934923649">
<ele>285</ele>
<time>2024-05-11T10:13:47Z</time>
</trkpt>
<trkpt lat="49.604560788720846" lon="9.463036498054862">
<ele>284.8</ele>
<time>2024-05-11T10:13:48Z</time>
</trkpt>
<trkpt lat="49.604560788720846" lon="9.463148061186075">
<ele>284.6</ele>
<time>2024-05-11T10:13:49Z</time>
</trkpt>
<trkpt lat="49.604564644396305" lon="9.463259624317288">
<ele>284.4</ele>
<time>2024-05-11T10:13:50Z</time>
</trkpt>
<trkpt lat="49.60456841625273" lon="9.463368337601423">
<ele>284.2</ele>
<time>2024-05-11T10:13:51Z</time>
</trkpt>
<trkpt lat="49.60457604378462" lon="9.463479984551668">
<ele>283.8</ele>
<time>2024-05-11T10:13:52Z</time>
</trkpt>
<trkpt lat="49.60458752699196" lon="9.463589619845152">
<ele>283.4</ele>
<time>2024-05-11T10:13:53Z</time>
</trkpt>
<trkpt lat="49.60460655391216" lon="9.463705038651824">
<ele>283</ele>
<time>2024-05-11T10:13:54Z</time>
</trkpt>
<trkpt lat="49.604621808975935" lon="9.46381375193596">
<ele>282.8</ele>
<time>2024-05-11T10:13:55Z</time>
</trkpt>
<trkpt lat="49.60463706403971" lon="9.463923387229444">
<ele>282.4</ele>
<time>2024-05-11T10:13:56Z</time>
</trkpt>
<trkpt lat="49.6046600304544" lon="9.464033106341958">
<ele>282.2</ele>
<time>2024-05-11T10:13:57Z</time>
</trkpt>
<trkpt lat="49.60468668490648" lon="9.464141819626091">
<ele>282</ele>
<time>2024-05-11T10:13:58Z</time>
</trkpt>
<trkpt lat="49.60470956750214" lon="9.464248605072498">
<ele>281.6</ele>
<time>2024-05-11T10:13:59Z</time>
</trkpt>
<trkpt lat="49.60472867824137" lon="9.464356396347284">
<ele>281.4</ele>
<time>2024-05-11T10:14:00Z</time>
</trkpt>
<trkpt lat="49.60474770516157" lon="9.46446510963142">
<ele>281</ele>
<time>2024-05-11T10:14:01Z</time>
</trkpt>
<trkpt lat="49.60475918836892" lon="9.464571895077825">
<ele>280.8</ele>
<time>2024-05-11T10:14:02Z</time>
</trkpt>
<trkpt lat="49.60477058775723" lon="9.464672980830072">
<ele>280.4</ele>
<time>2024-05-11T10:14:03Z</time>
</trkpt>
<trkpt lat="49.60477821528912" lon="9.464771216735244">
<ele>280</ele>
<time>2024-05-11T10:14:04Z</time>
</trkpt>
<trkpt lat="49.604785842821" lon="9.464868530631064">
<ele>279.8</ele>
<time>2024-05-11T10:14:05Z</time>
</trkpt>
<trkpt lat="49.60478969849646" lon="9.464961988851428">
<ele>279.6</ele>
<time>2024-05-11T10:14:06Z</time>
</trkpt>
<trkpt lat="49.60479732602835" lon="9.46505636908114">
<ele>279.4</ele>
<time>2024-05-11T10:14:07Z</time>
</trkpt>
<trkpt lat="49.60480495356023" lon="9.465151755139232">
<ele>279</ele>
<time>2024-05-11T10:14:08Z</time>
</trkpt>
<trkpt lat="49.60480872541666" lon="9.465249991044402">
<ele>278.8</ele>
<time>2024-05-11T10:14:09Z</time>
</trkpt>
<trkpt lat="49.60481258109212" lon="9.465345377102494">
<ele>278.6</ele>
<time>2024-05-11T10:14:10Z</time>
</trkpt>
<trkpt lat="49.60481258109212" lon="9.465434979647398">
<ele>278.6</ele>
<time>2024-05-11T10:14:11Z</time>
</trkpt>
<trkpt lat="49.60481643676758" lon="9.465519888326526">
<ele>278.4</ele>
<time>2024-05-11T10:14:12Z</time>
</trkpt>
<trkpt lat="49.60481643676758" lon="9.465602869167924">
<ele>278.4</ele>
<time>2024-05-11T10:14:13Z</time>
</trkpt>
<trkpt lat="49.604820208624005" lon="9.465681994333863">
<ele>278.2</ele>
<time>2024-05-11T10:14:14Z</time>
</trkpt>
<trkpt lat="49.604820208624005" lon="9.465756341814997">
<ele>278.2</ele>
<time>2024-05-11T10:14:15Z</time>
</trkpt>
<trkpt lat="49.604824064299464" lon="9.4658269174397">
<ele>278</ele>
<time>2024-05-11T10:14:16Z</time>
</trkpt>
<trkpt lat="49.604824064299464" lon="9.465894643217323">
<ele>278</ele>
<time>2024-05-11T10:14:17Z</time>
</trkpt>
<trkpt lat="49.604824064299464" lon="9.4659632910043">
<ele>277.8</ele>
<time>2024-05-11T10:14:18Z</time>
</trkpt>
<trkpt lat="49.60482783615589" lon="9.46602531708777">
<ele>277.8</ele>
<time>2024-05-11T10:14:19Z</time>
</trkpt>
<trkpt lat="49.60482783615589" lon="9.46608541533351">
<ele>277.6</ele>
<time>2024-05-11T10:14:20Z</time>
</trkpt>
<trkpt lat="49.60483169183135" lon="9.46614358574152">
<ele>277.6</ele>
<time>2024-05-11T10:14:21Z</time>
</trkpt>
<trkpt lat="49.60483546368778" lon="9.46620175614953">
<ele>277.4</ele>
<time>2024-05-11T10:14:22Z</time>
</trkpt>
<trkpt lat="49.604843091219664" lon="9.466257998719811">
<ele>277.4</ele>
<time>2024-05-11T10:14:23Z</time>
</trkpt>
<trkpt lat="49.60485457442701" lon="9.466313319280744">
<ele>277.2</ele>
<time>2024-05-11T10:14:24Z</time>
</trkpt>
<trkpt lat="49.60486597381532" lon="9.46636193431914">
<ele>277</ele>
<time>2024-05-11T10:14:25Z</time>
</trkpt>
<trkpt lat="49.60486982949078" lon="9.46641532704234">
<ele>276.8</ele>
<time>2024-05-11T10:14:26Z</time>
</trkpt>
<trkpt lat="49.604862201958895" lon="9.466469725593925">
<ele>276.6</ele>
<time>2024-05-11T10:14:27Z</time>
</trkpt>
<trkpt lat="49.60484694689512" lon="9.466526973992586">
<ele>276.4</ele>
<time>2024-05-11T10:14:28Z</time>
</trkpt>
<trkpt lat="49.60483169183135" lon="9.466589922085404">
<ele>276.2</ele>
<time>2024-05-11T10:14:29Z</time>
</trkpt>
<trkpt lat="49.604820208624005" lon="9.46665856987238">
<ele>276.2</ele>
<time>2024-05-11T10:14:30Z</time>
</trkpt>
<trkpt lat="49.60481643676758" lon="9.466725289821625">
<ele>276</ele>
<time>2024-05-11T10:14:31Z</time>
</trkpt>
<trkpt lat="49.60480872541666" lon="9.46679494343698">
<ele>276</ele>
<time>2024-05-11T10:14:32Z</time>
</trkpt>
<trkpt lat="49.60481258109212" lon="9.466868368908765">
<ele>276</ele>
<time>2024-05-11T10:14:33Z</time>
</trkpt>
<trkpt lat="49.60481643676758" lon="9.466941794380546">
<ele>276</ele>
<time>2024-05-11T10:14:34Z</time>
</trkpt>
<trkpt lat="49.604820208624005" lon="9.467015219852328">
<ele>275.8</ele>
<time>2024-05-11T10:14:35Z</time>
</trkpt>
<trkpt lat="49.604824064299464" lon="9.467080095782876">
<ele>275.8</ele>
<time>2024-05-11T10:14:36Z</time>
</trkpt>
<trkpt lat="49.60483169183135" lon="9.467138266190886">
<ele>275.8</ele>
<time>2024-05-11T10:14:37Z</time>
</trkpt>
<trkpt lat="49.604843091219664" lon="9.46719358675182">
<ele>275.6</ele>
<time>2024-05-11T10:14:38Z</time>
</trkpt>
<trkpt lat="49.60484694689512" lon="9.4672498293221">
<ele>275.6</ele>
<time>2024-05-11T10:14:39Z</time>
</trkpt>
<trkpt lat="49.60485457442701" lon="9.467305149883032">
<ele>275.4</ele>
<time>2024-05-11T10:14:40Z</time>
</trkpt>
<trkpt lat="49.60485834628344" lon="9.467365248128772">
<ele>275.4</ele>
<time>2024-05-11T10:14:41Z</time>
</trkpt>
<trkpt lat="49.604862201958895" lon="9.467425346374512">
<ele>275.2</ele>
<time>2024-05-11T10:14:42Z</time>
</trkpt>
<trkpt lat="49.60486982949078" lon="9.46748536080122">
<ele>275.2</ele>
<time>2024-05-11T10:14:43Z</time>
</trkpt>
<trkpt lat="49.60486982949078" lon="9.467548308894038">
<ele>275</ele>
<time>2024-05-11T10:14:44Z</time>
</trkpt>
<trkpt lat="49.60487360134721" lon="9.467611256986856">
<ele>275</ele>
<time>2024-05-11T10:14:45Z</time>
</trkpt>
<trkpt lat="49.604881228879094" lon="9.467679904773831">
<ele>274.8</ele>
<time>2024-05-11T10:14:46Z</time>
</trkpt>
<trkpt lat="49.60488885641098" lon="9.467749558389189">
<ele>274.8</ele>
<time>2024-05-11T10:14:47Z</time>
</trkpt>
<trkpt lat="49.604896483942866" lon="9.46782206185162">
<ele>274.6</ele>
<time>2024-05-11T10:14:48Z</time>
</trkpt>
<trkpt lat="49.604896483942866" lon="9.467894481495025">
<ele>274.6</ele>
<time>2024-05-11T10:14:49Z</time>
</trkpt>
<trkpt lat="49.604896483942866" lon="9.467966984957457">
<ele>274.4</ele>
<time>2024-05-11T10:14:50Z</time>
</trkpt>
<trkpt lat="49.60489271208644" lon="9.468034710735084">
<ele>274.2</ele>
<time>2024-05-11T10:14:51Z</time>
</trkpt>
<trkpt lat="49.60489271208644" lon="9.468106208369136">
<ele>274</ele>
<time>2024-05-11T10:14:52Z</time>
</trkpt>
<trkpt lat="49.60488885641098" lon="9.46817871183157">
<ele>273.8</ele>
<time>2024-05-11T10:14:53Z</time>
</trkpt>
<trkpt lat="49.60488885641098" lon="9.468250209465625">
<ele>273.8</ele>
<time>2024-05-11T10:14:54Z</time>
</trkpt>
<trkpt lat="49.60489271208644" lon="9.468321790918708">
<ele>273.6</ele>
<time>2024-05-11T10:14:55Z</time>
</trkpt>
<trkpt lat="49.604896483942866" lon="9.468391360715032">
<ele>273.4</ele>
<time>2024-05-11T10:14:56Z</time>
</trkpt>
<trkpt lat="49.60490411147475" lon="9.468466714024544">
<ele>273.2</ele>
<time>2024-05-11T10:14:57Z</time>
</trkpt>
<trkpt lat="49.60491173900664" lon="9.468540139496326">
<ele>273</ele>
<time>2024-05-11T10:14:58Z</time>
</trkpt>
<trkpt lat="49.60492322221398" lon="9.46861356496811">
<ele>273</ele>
<time>2024-05-11T10:14:59Z</time>
</trkpt>
<trkpt lat="49.60492699407041" lon="9.468686990439892">
<ele>272.8</ele>
<time>2024-05-11T10:15:00Z</time>
</trkpt>
<trkpt lat="49.60493084974587" lon="9.468754716217518">
<ele>272.8</ele>
<time>2024-05-11T10:15:01Z</time>
</trkpt>
<trkpt lat="49.60493847727776" lon="9.4688281416893">
<ele>272.8</ele>
<time>2024-05-11T10:15:02Z</time>
</trkpt>
<trkpt lat="49.60494224913418" lon="9.468894945457578">
<ele>272.8</ele>
<time>2024-05-11T10:15:03Z</time>
</trkpt>
<trkpt lat="49.60494987666607" lon="9.46896837092936">
<ele>272.6</ele>
<time>2024-05-11T10:15:04Z</time>
</trkpt>
<trkpt lat="49.604957504197955" lon="9.469037940725684">
<ele>272.6</ele>
<time>2024-05-11T10:15:05Z</time>
</trkpt>
<trkpt lat="49.60496513172984" lon="9.469111366197469">
<ele>272.4</ele>
<time>2024-05-11T10:15:06Z</time>
</trkpt>
<trkpt lat="49.604976614937186" lon="9.46918487548828">
<ele>272.2</ele>
<time>2024-05-11T10:15:07Z</time>
</trkpt>
<trkpt lat="49.60498424246907" lon="9.469262072816491">
<ele>272.2</ele>
<time>2024-05-11T10:15:08Z</time>
</trkpt>
<trkpt lat="49.60499187000096" lon="9.469334576278923">
<ele>272</ele>
<time>2024-05-11T10:15:09Z</time>
</trkpt>
<trkpt lat="49.6050033532083" lon="9.469413701444864">
<ele>272</ele>
<time>2024-05-11T10:15:10Z</time>
</trkpt>
<trkpt lat="49.60501475259662" lon="9.469491904601457">
<ele>271.8</ele>
<time>2024-05-11T10:15:11Z</time>
</trkpt>
<trkpt lat="49.60502623580396" lon="9.469570107758043">
<ele>271.8</ele>
<time>2024-05-11T10:15:12Z</time>
</trkpt>
<trkpt lat="49.60503386333585" lon="9.469653088599443">
<ele>271.6</ele>
<time>2024-05-11T10:15:13Z</time>
</trkpt>
<trkpt lat="49.605041490867734" lon="9.46973506361246">
<ele>271.4</ele>
<time>2024-05-11T10:15:14Z</time>
</trkpt>
<trkpt lat="49.60505289025605" lon="9.469816200435162">
<ele>271.2</ele>
<time>2024-05-11T10:15:15Z</time>
</trkpt>
<trkpt lat="49.605056745931506" lon="9.4698953256011">
<ele>271</ele>
<time>2024-05-11T10:15:16Z</time>
</trkpt>
<trkpt lat="49.60506814531982" lon="9.469973528757691">
<ele>270.8</ele>
<time>2024-05-11T10:15:17Z</time>
</trkpt>
<trkpt lat="49.605075772851706" lon="9.470049804076552">
<ele>270.6</ele>
<time>2024-05-11T10:15:18Z</time>
</trkpt>
<trkpt lat="49.605079628527164" lon="9.470128007233145">
<ele>270.4</ele>
<time>2024-05-11T10:15:19Z</time>
</trkpt>
<trkpt lat="49.60508725605905" lon="9.47019288316369">
<ele>270.2</ele>
<time>2024-05-11T10:15:20Z</time>
</trkpt>
<trkpt lat="49.60509102791548" lon="9.47025197558105">
<ele>270</ele>
<time>2024-05-11T10:15:21Z</time>
</trkpt>
<trkpt lat="49.60509488359094" lon="9.470306374132631">
<ele>269.8</ele>
<time>2024-05-11T10:15:22Z</time>
</trkpt>
<trkpt lat="49.60509488359094" lon="9.470356917008758">
<ele>269.6</ele>
<time>2024-05-11T10:15:23Z</time>
</trkpt>
<trkpt lat="49.60509488359094" lon="9.470397904515266">
<ele>269.4</ele>
<time>2024-05-11T10:15:24Z</time>
</trkpt>
<trkpt lat="49.60509488359094" lon="9.470437048003078">
<ele>269.2</ele>
<time>2024-05-11T10:15:25Z</time>
</trkpt>
<trkpt lat="49.60509488359094" lon="9.470477029681206">
<ele>269</ele>
<time>2024-05-11T10:15:26Z</time>
</trkpt>
<trkpt lat="49.60508340038359" lon="9.470518101006746">
<ele>268.8</ele>
<time>2024-05-11T10:15:27Z</time>
</trkpt>
<trkpt lat="49.605075772851706" lon="9.470555232837796">
<ele>268.6</ele>
<time>2024-05-11T10:15:28Z</time>
</trkpt>
<trkpt lat="49.60507200099528" lon="9.470596304163337">
<ele>268.4</ele>
<time>2024-05-11T10:15:29Z</time>
</trkpt>
<trkpt lat="49.60506814531982" lon="9.470644919201732">
<ele>268.4</ele>
<time>2024-05-11T10:15:30Z</time>
</trkpt>
<trkpt lat="49.60506814531982" lon="9.470698311924934">
<ele>268.2</ele>
<time>2024-05-11T10:15:31Z</time>
</trkpt>
<trkpt lat="49.60506814531982" lon="9.470751704648135">
<ele>268.2</ele>
<time>2024-05-11T10:15:32Z</time>
</trkpt>
<trkpt lat="49.60506437346339" lon="9.470801325514913">
<ele>268</ele>
<time>2024-05-11T10:15:33Z</time>
</trkpt>
<trkpt lat="49.60506051778793" lon="9.470858573913574">
<ele>268</ele>
<time>2024-05-11T10:15:34Z</time>
</trkpt>
<trkpt lat="49.60506051778793" lon="9.470908110961318">
<ele>268</ele>
<time>2024-05-11T10:15:35Z</time>
</trkpt>
<trkpt lat="49.605056745931506" lon="9.470956725999711">
<ele>268</ele>
<time>2024-05-11T10:15:36Z</time>
</trkpt>
<trkpt lat="49.605056745931506" lon="9.47100349701941">
<ele>268</ele>
<time>2024-05-11T10:15:37Z</time>
</trkpt>
<trkpt lat="49.605056745931506" lon="9.471059739589691">
<ele>268</ele>
<time>2024-05-11T10:15:38Z</time>
</trkpt>
<trkpt lat="49.605056745931506" lon="9.471115060150623">
<ele>268</ele>
<time>2024-05-11T10:15:39Z</time>
</trkpt>
<trkpt lat="49.60506051778793" lon="9.4711646810174">
<ele>268</ele>
<time>2024-05-11T10:15:40Z</time>
</trkpt>
<trkpt lat="49.605056745931506" lon="9.471210446208715">
<ele>267.8</ele>
<time>2024-05-11T10:15:41Z</time>
</trkpt>
<trkpt lat="49.60506437346339" lon="9.471264760941269">
<ele>267.8</ele>
<time>2024-05-11T10:15:42Z</time>
</trkpt>
<trkpt lat="49.60507200099528" lon="9.471316309645772">
<ele>267.8</ele>
<time>2024-05-11T10:15:43Z</time>
</trkpt>
<trkpt lat="49.60508725605905" lon="9.471368780359626">
<ele>267.6</ele>
<time>2024-05-11T10:15:44Z</time>
</trkpt>
<trkpt lat="49.60510251112282" lon="9.47141831740737">
<ele>267.6</ele>
<time>2024-05-11T10:15:45Z</time>
</trkpt>
<trkpt lat="49.60512153804302" lon="9.471467938274143">
<ele>267.6</ele>
<time>2024-05-11T10:15:46Z</time>
</trkpt>
<trkpt lat="49.60514442063868" lon="9.47151655331254">
<ele>267.4</ele>
<time>2024-05-11T10:15:47Z</time>
</trkpt>
<trkpt lat="49.60517501458526" lon="9.471563324332235">
<ele>267.4</ele>
<time>2024-05-11T10:15:48Z</time>
</trkpt>
<trkpt lat="49.60521315224469" lon="9.471611939370632">
<ele>267.2</ele>
<time>2024-05-11T10:15:49Z</time>
</trkpt>
<trkpt lat="49.605255061760545" lon="9.471658626571298">
<ele>267.2</ele>
<time>2024-05-11T10:15:50Z</time>
</trkpt>
<trkpt lat="49.60530468262732" lon="9.471703469753264">
<ele>267</ele>
<time>2024-05-11T10:15:51Z</time>
</trkpt>
<trkpt lat="49.605354303494096" lon="9.47175309062004">
<ele>266.8</ele>
<time>2024-05-11T10:15:52Z</time>
</trkpt>
<trkpt lat="49.60540006868541" lon="9.471804555505514">
<ele>266.8</ele>
<time>2024-05-11T10:15:54Z</time>
</trkpt>
<trkpt lat="49.605491599068046" lon="9.471918046474457">
<ele>266.4</ele>
<time>2024-05-11T10:15:55Z</time>
</trkpt>
<trkpt lat="49.60552973672747" lon="9.471980072557926">
<ele>266.2</ele>
<time>2024-05-11T10:15:56Z</time>
</trkpt>
<trkpt lat="49.60556787438691" lon="9.472042014822364">
<ele>266</ele>
<time>2024-05-11T10:15:57Z</time>
</trkpt>
<trkpt lat="49.60560224018991" lon="9.472093563526869">
<ele>265.8</ele>
<time>2024-05-11T10:15:58Z</time>
</trkpt>
<trkpt lat="49.60563652217388" lon="9.472136478871109">
<ele>265.4</ele>
<time>2024-05-11T10:15:59Z</time>
</trkpt>
<trkpt lat="49.605667032301426" lon="9.472180316224694">
<ele>265.2</ele>
<time>2024-05-11T10:16:00Z</time>
</trkpt>
<trkpt lat="49.60570525377989" lon="9.472223231568933">
<ele>265.2</ele>
<time>2024-05-11T10:16:01Z</time>
</trkpt>
<trkpt lat="49.60573953576386" lon="9.4722680747509">
<ele>265</ele>
<time>2024-05-11T10:16:02Z</time>
</trkpt>
<trkpt lat="49.60577390156686" lon="9.472318617627025">
<ele>264.6</ele>
<time>2024-05-11T10:16:03Z</time>
</trkpt>
<trkpt lat="49.60580441169441" lon="9.472370082512498">
<ele>264.4</ele>
<time>2024-05-11T10:16:04Z</time>
</trkpt>
<trkpt lat="49.60583492182195" lon="9.472412997856736">
<ele>264.2</ele>
<time>2024-05-11T10:16:05Z</time>
</trkpt>
<trkpt lat="49.605865431949496" lon="9.472453063353896">
<ele>264</ele>
<time>2024-05-11T10:16:06Z</time>
</trkpt>
<trkpt lat="49.6058997977525" lon="9.47248642332852">
<ele>263.8</ele>
<time>2024-05-11T10:16:07Z</time>
</trkpt>
<trkpt lat="49.60593407973647" lon="9.472517939284444">
<ele>263.6</ele>
<time>2024-05-11T10:16:08Z</time>
</trkpt>
<trkpt lat="49.605968445539474" lon="9.472548449411988">
<ele>263.4</ele>
<time>2024-05-11T10:16:09Z</time>
</trkpt>
<trkpt lat="49.60599895566702" lon="9.472573259845376">
<ele>263.2</ele>
<time>2024-05-11T10:16:10Z</time>
</trkpt>
<trkpt lat="49.60603332147002" lon="9.472593292593956">
<ele>263</ele>
<time>2024-05-11T10:16:11Z</time>
</trkpt>
<trkpt lat="49.60605997592211" lon="9.472611397504808">
<ele>262.8</ele>
<time>2024-05-11T10:16:12Z</time>
</trkpt>
<trkpt lat="49.60609048604965" lon="9.47262665256858">
<ele>262.6</ele>
<time>2024-05-11T10:16:13Z</time>
</trkpt>
<trkpt lat="49.60611722432077" lon="9.47263997979462">
<ele>262.4</ele>
<time>2024-05-11T10:16:14Z</time>
</trkpt>
<trkpt lat="49.60614010691643" lon="9.472651463001966">
<ele>262.4</ele>
<time>2024-05-11T10:16:15Z</time>
</trkpt>
<trkpt lat="49.606162989512086" lon="9.47266286239028">
<ele>262.2</ele>
<time>2024-05-11T10:16:16Z</time>
</trkpt>
<trkpt lat="49.606185872107744" lon="9.472671495750546">
<ele>262.2</ele>
<time>2024-05-11T10:16:17Z</time>
</trkpt>
<trkpt lat="49.6062087547034" lon="9.47268197312951">
<ele>262</ele>
<time>2024-05-11T10:16:18Z</time>
</trkpt>
<trkpt lat="49.60623163729906" lon="9.472691528499126">
<ele>261.799</ele>
<time>2024-05-11T10:16:19Z</time>
</trkpt>
<trkpt lat="49.60625837557018" lon="9.4727067835629">
<ele>261.6</ele>
<time>2024-05-11T10:16:20Z</time>
</trkpt>
<trkpt lat="49.60627740249038" lon="9.47272203862667">
<ele>261.6</ele>
<time>2024-05-11T10:16:21Z</time>
</trkpt>
<trkpt lat="49.60630028508603" lon="9.472738215699792">
<ele>261.4</ele>
<time>2024-05-11T10:16:22Z</time>
</trkpt>
<trkpt lat="49.60631939582527" lon="9.472749698907135">
<ele>261.2</ele>
<time>2024-05-11T10:16:23Z</time>
</trkpt>
<trkpt lat="49.60633465088904" lon="9.472758248448372">
<ele>261.2</ele>
<time>2024-05-11T10:16:24Z</time>
</trkpt>
<trkpt lat="49.60634990595281" lon="9.47276495397091">
<ele>261</ele>
<time>2024-05-11T10:16:25Z</time>
</trkpt>
<trkpt lat="49.60636138916016" lon="9.472773503512144">
<ele>260.799</ele>
<time>2024-05-11T10:16:26Z</time>
</trkpt>
<trkpt lat="49.60637664422393" lon="9.47278305888176">
<ele>260.6</ele>
<time>2024-05-11T10:16:27Z</time>
</trkpt>
<trkpt lat="49.6063918992877" lon="9.472787836566567">
<ele>260.6</ele>
<time>2024-05-11T10:16:28Z</time>
</trkpt>
<trkpt lat="49.60639952681959" lon="9.472791608422996">
<ele>260.4</ele>
<time>2024-05-11T10:16:29Z</time>
</trkpt>
<trkpt lat="49.60639952681959" lon="9.472795464098454">
<ele>260.4</ele>
<time>2024-05-11T10:16:30Z</time>
</trkpt>
<trkpt lat="49.60639952681959" lon="9.472793536260724">
<ele>260.2</ele>
<time>2024-05-11T10:16:34Z</time>
</trkpt>
<trkpt lat="49.6064109262079" lon="9.47280024178326">
<ele>260.2</ele>
<time>2024-05-11T10:16:36Z</time>
</trkpt>
<trkpt lat="49.606418553739786" lon="9.472805019468067">
<ele>260.2</ele>
<time>2024-05-11T10:16:37Z</time>
</trkpt>
<trkpt lat="49.60643003694713" lon="9.472807869315147">
<ele>260.2</ele>
<time>2024-05-11T10:16:38Z</time>
</trkpt>
<trkpt lat="49.6064452920109" lon="9.472813569009304">
<ele>260</ele>
<time>2024-05-11T10:16:39Z</time>
</trkpt>
<trkpt lat="49.60646054707467" lon="9.47282119654119">
<ele>260</ele>
<time>2024-05-11T10:16:40Z</time>
</trkpt>
<trkpt lat="49.606479573994875" lon="9.472834523767231">
<ele>260</ele>
<time>2024-05-11T10:16:41Z</time>
</trkpt>
<trkpt lat="49.606498684734106" lon="9.4728431571275">
<ele>259.799</ele>
<time>2024-05-11T10:16:42Z</time>
</trkpt>
<trkpt lat="49.60652156732976" lon="9.47284122928977">
<ele>259.799</ele>
<time>2024-05-11T10:16:43Z</time>
</trkpt>
<trkpt lat="49.606540678068995" lon="9.472826896235349">
<ele>259.6</ele>
<time>2024-05-11T10:16:44Z</time>
</trkpt>
<trkpt lat="49.606559704989195" lon="9.472806863486769">
<ele>259.6</ele>
<time>2024-05-11T10:16:45Z</time>
</trkpt>
<trkpt lat="49.60657496005297" lon="9.472784986719487">
<ele>259.4</ele>
<time>2024-05-11T10:16:46Z</time>
</trkpt>
<trkpt lat="49.60660169832408" lon="9.472768725827336">
<ele>259.4</ele>
<time>2024-05-11T10:16:47Z</time>
</trkpt>
<trkpt lat="49.60662835277617" lon="9.47276210412383">
<ele>259.2</ele>
<time>2024-05-11T10:16:48Z</time>
</trkpt>
<trkpt lat="49.60666271857917" lon="9.472758248448372">
<ele>259.2</ele>
<time>2024-05-11T10:16:49Z</time>
</trkpt>
<trkpt lat="49.60669322870672" lon="9.472751542925836">
<ele>259.2</ele>
<time>2024-05-11T10:16:50Z</time>
</trkpt>
<trkpt lat="49.60673136636615" lon="9.47274492122233">
<ele>259</ele>
<time>2024-05-11T10:16:51Z</time>
</trkpt>
<trkpt lat="49.60676950402558" lon="9.47272681631148">
<ele>259</ele>
<time>2024-05-11T10:16:52Z</time>
</trkpt>
<trkpt lat="49.60680764168501" lon="9.472716255113482">
<ele>259</ele>
<time>2024-05-11T10:16:53Z</time>
</trkpt>
<trkpt lat="49.6068496350199" lon="9.47270485572517">
<ele>259</ele>
<time>2024-05-11T10:16:54Z</time>
</trkpt>
<trkpt lat="49.60688777267933" lon="9.472696222364902">
<ele>259</ele>
<time>2024-05-11T10:16:55Z</time>
</trkpt>
<trkpt lat="49.60692591033876" lon="9.472696222364902">
<ele>259</ele>
<time>2024-05-11T10:16:56Z</time>
</trkpt>
<trkpt lat="49.606956420466304" lon="9.472696222364902">
<ele>259</ele>
<time>2024-05-11T10:16:57Z</time>
</trkpt>
<trkpt lat="49.606994558125734" lon="9.47270292788744">
<ele>259</ele>
<time>2024-05-11T10:16:58Z</time>
</trkpt>
<trkpt lat="49.60702892392874" lon="9.472715333104134">
<ele>259</ele>
<time>2024-05-11T10:16:59Z</time>
</trkpt>
<trkpt lat="49.60706328973174" lon="9.47272488847375">
<ele>259</ele>
<time>2024-05-11T10:17:00Z</time>
</trkpt>
<trkpt lat="49.60709757171571" lon="9.472738215699792">
<ele>258.799</ele>
<time>2024-05-11T10:17:01Z</time>
</trkpt>
<trkpt lat="49.60713570937514" lon="9.472748693078756">
<ele>258.799</ele>
<time>2024-05-11T10:17:02Z</time>
</trkpt>
<trkpt lat="49.60716621950269" lon="9.472756320610642">
<ele>258.6</ele>
<time>2024-05-11T10:17:03Z</time>
</trkpt>
<trkpt lat="49.60720058530569" lon="9.47276302613318">
<ele>258.4</ele>
<time>2024-05-11T10:17:04Z</time>
</trkpt>
<trkpt lat="49.607231095433235" lon="9.472775431349874">
<ele>258.4</ele>
<time>2024-05-11T10:17:05Z</time>
</trkpt>
<trkpt lat="49.60726160556078" lon="9.47278205305338">
<ele>258.4</ele>
<time>2024-05-11T10:17:06Z</time>
</trkpt>
<trkpt lat="49.60729211568832" lon="9.47278305888176">
<ele>258.2</ele>
<time>2024-05-11T10:17:07Z</time>
</trkpt>
<trkpt lat="49.60732262581587" lon="9.472778281196952">
<ele>258.2</ele>
<time>2024-05-11T10:17:08Z</time>
</trkpt>
<trkpt lat="49.60735313594341" lon="9.472766797989609">
<ele>258</ele>
<time>2024-05-11T10:17:09Z</time>
</trkpt>
<trkpt lat="49.60738364607096" lon="9.472755398601294">
<ele>258</ele>
<time>2024-05-11T10:17:10Z</time>
</trkpt>
<trkpt lat="49.60741424001753" lon="9.47274684906006">
<ele>258</ele>
<time>2024-05-11T10:17:11Z</time>
</trkpt>
<trkpt lat="49.60744089446962" lon="9.472733438014984">
<ele>258</ele>
<time>2024-05-11T10:17:12Z</time>
</trkpt>
<trkpt lat="49.607467632740736" lon="9.47272011078894">
<ele>258</ele>
<time>2024-05-11T10:17:13Z</time>
</trkpt>
<trkpt lat="49.60749428719282" lon="9.472709633409975">
<ele>258</ele>
<time>2024-05-11T10:17:14Z</time>
</trkpt>
<trkpt lat="49.607524797320366" lon="9.472696222364902">
<ele>258</ele>
<time>2024-05-11T10:17:15Z</time>
</trkpt>
<trkpt lat="49.60755916312337" lon="9.47268482297659">
<ele>258</ele>
<time>2024-05-11T10:17:16Z</time>
</trkpt>
<trkpt lat="49.60759352892637" lon="9.472671495750546">
<ele>258</ele>
<time>2024-05-11T10:17:17Z</time>
</trkpt>
<trkpt lat="49.60762403905392" lon="9.472655234858394">
<ele>258</ele>
<time>2024-05-11T10:17:18Z</time>
</trkpt>
<trkpt lat="49.60765454918146" lon="9.472631430253386">
<ele>258</ele>
<time>2024-05-11T10:17:19Z</time>
</trkpt>
<trkpt lat="49.607685059309006" lon="9.472611397504808">
<ele>258</ele>
<time>2024-05-11T10:17:20Z</time>
</trkpt>
<trkpt lat="49.60771171376109" lon="9.472588514909148">
<ele>258</ele>
<time>2024-05-11T10:17:21Z</time>
</trkpt>
<trkpt lat="49.60773845203221" lon="9.472561776638033">
<ele>258</ele>
<time>2024-05-11T10:17:22Z</time>
</trkpt>
<trkpt lat="49.607765190303326" lon="9.472535122185946">
<ele>258</ele>
<time>2024-05-11T10:17:23Z</time>
</trkpt>
<trkpt lat="49.607788072898984" lon="9.472511233761908">
<ele>258</ele>
<time>2024-05-11T10:17:24Z</time>
</trkpt>
<trkpt lat="49.60781858302653" lon="9.472491201013328">
<ele>257.799</ele>
<time>2024-05-11T10:17:25Z</time>
</trkpt>
<trkpt lat="49.60784909315407" lon="9.472473096102476">
<ele>257.799</ele>
<time>2024-05-11T10:17:26Z</time>
</trkpt>
<trkpt lat="49.60787574760616" lon="9.472456919029357">
<ele>257.799</ele>
<time>2024-05-11T10:17:27Z</time>
</trkpt>
<trkpt lat="49.607902485877275" lon="9.47244644165039">
<ele>257.799</ele>
<time>2024-05-11T10:17:28Z</time>
</trkpt>
<trkpt lat="49.60793299600482" lon="9.472441663965585">
<ele>257.799</ele>
<time>2024-05-11T10:17:29Z</time>
</trkpt>
<trkpt lat="49.60795973427594" lon="9.47244451381266">
<ele>257.799</ele>
<time>2024-05-11T10:17:30Z</time>
</trkpt>
<trkpt lat="49.607982616871595" lon="9.472453063353896">
<ele>257.799</ele>
<time>2024-05-11T10:17:31Z</time>
</trkpt>
<trkpt lat="49.60800927132368" lon="9.472459768876432">
<ele>257.799</ele>
<time>2024-05-11T10:17:32Z</time>
</trkpt>
<trkpt lat="49.6080360095948" lon="9.472468318417668">
<ele>257.799</ele>
<time>2024-05-11T10:17:33Z</time>
</trkpt>
<trkpt lat="49.60806651972234" lon="9.472481645643713">
<ele>257.6</ele>
<time>2024-05-11T10:17:34Z</time>
</trkpt>
<trkpt lat="49.608089402318" lon="9.472490279003978">
<ele>257.6</ele>
<time>2024-05-11T10:17:35Z</time>
</trkpt>
<trkpt lat="49.60811228491366" lon="9.472493128851056">
<ele>257.6</ele>
<time>2024-05-11T10:17:36Z</time>
</trkpt>
<trkpt lat="49.608139023184776" lon="9.472499834373592">
<ele>257.6</ele>
<time>2024-05-11T10:17:37Z</time>
</trkpt>
<trkpt lat="49.60816567763686" lon="9.472508383914828">
<ele>257.799</ele>
<time>2024-05-11T10:17:38Z</time>
</trkpt>
<trkpt lat="49.60819241590798" lon="9.472519867122172">
<ele>257.799</ele>
<time>2024-05-11T10:17:39Z</time>
</trkpt>
<trkpt lat="49.60821144282818" lon="9.472535122185946">
<ele>258</ele>
<time>2024-05-11T10:17:40Z</time>
</trkpt>
<trkpt lat="49.60824195295572" lon="9.47254652157426">
<ele>258</ele>
<time>2024-05-11T10:17:41Z</time>
</trkpt>
<trkpt lat="49.60826869122684" lon="9.472550377249718">
<ele>258.2</ele>
<time>2024-05-11T10:17:42Z</time>
</trkpt>
<trkpt lat="49.6082915738225" lon="9.472556998953223">
<ele>258.2</ele>
<time>2024-05-11T10:17:43Z</time>
</trkpt>
<trkpt lat="49.60831445641816" lon="9.472568482160568">
<ele>258.2</ele>
<time>2024-05-11T10:17:44Z</time>
</trkpt>
<trkpt lat="49.60833356715739" lon="9.472575187683104">
<ele>258.4</ele>
<time>2024-05-11T10:17:45Z</time>
</trkpt>
<trkpt lat="49.608356449753046" lon="9.472581809386613">
<ele>258.6</ele>
<time>2024-05-11T10:17:46Z</time>
</trkpt>
<trkpt lat="49.608379332348704" lon="9.472591364756228">
<ele>258.799</ele>
<time>2024-05-11T10:17:47Z</time>
</trkpt>
<trkpt lat="49.60839458741248" lon="9.472611397504808">
<ele>259</ele>
<time>2024-05-11T10:17:48Z</time>
</trkpt>
<trkpt lat="49.60840984247625" lon="9.47262665256858">
<ele>259.2</ele>
<time>2024-05-11T10:17:49Z</time>
</trkpt>
<trkpt lat="49.60842509754002" lon="9.472641907632353">
<ele>259.4</ele>
<time>2024-05-11T10:17:50Z</time>
</trkpt>
<trkpt lat="49.60844035260379" lon="9.4726600125432">
<ele>259.6</ele>
<time>2024-05-11T10:17:51Z</time>
</trkpt>
<trkpt lat="49.60846323519945" lon="9.472678117454052">
<ele>260</ele>
<time>2024-05-11T10:17:52Z</time>
</trkpt>
<trkpt lat="49.608478490263224" lon="9.47270200587809">
<ele>260.2</ele>
<time>2024-05-11T10:17:53Z</time>
</trkpt>
<trkpt lat="49.60849374532699" lon="9.47272203862667">
<ele>260.4</ele>
<time>2024-05-11T10:17:54Z</time>
</trkpt>
<trkpt lat="49.60850522853434" lon="9.4727429933846">
<ele>260.799</ele>
<time>2024-05-11T10:17:55Z</time>
</trkpt>
<trkpt lat="49.608516627922654" lon="9.472756320610642">
<ele>261.2</ele>
<time>2024-05-11T10:17:56Z</time>
</trkpt>
<trkpt lat="49.60852048359811" lon="9.472758248448372">
<ele>261.6</ele>
<time>2024-05-11T10:17:57Z</time>
</trkpt>
<trkpt lat="49.60852811113" lon="9.472766797989609">
<ele>262</ele>
<time>2024-05-11T10:17:58Z</time>
</trkpt>
<trkpt lat="49.608531882986426" lon="9.472771575674416">
<ele>262.6</ele>
<time>2024-05-11T10:17:59Z</time>
</trkpt>
<trkpt lat="49.608535738661885" lon="9.472776353359222">
<ele>263</ele>
<time>2024-05-11T10:18:00Z</time>
</trkpt>
<trkpt lat="49.60854336619377" lon="9.47278305888176">
<ele>263.4</ele>
<time>2024-05-11T10:18:01Z</time>
</trkpt>
<trkpt lat="49.6085471380502" lon="9.472787836566567">
<ele>263.8</ele>
<time>2024-05-11T10:18:02Z</time>
</trkpt>
<trkpt lat="49.60855099372566" lon="9.472787836566567">
<ele>264.2</ele>
<time>2024-05-11T10:18:03Z</time>
</trkpt>
<trkpt lat="49.608554765582085" lon="9.472787836566567">
<ele>264.6</ele>
<time>2024-05-11T10:18:04Z</time>
</trkpt>
<trkpt lat="49.608554765582085" lon="9.472789764404297">
<ele>265</ele>
<time>2024-05-11T10:18:05Z</time>
</trkpt>
<trkpt lat="49.608558621257544" lon="9.472787836566567">
<ele>265.2</ele>
<time>2024-05-11T10:18:06Z</time>
</trkpt>
<trkpt lat="49.60856239311397" lon="9.472795464098454">
<ele>265.4</ele>
<time>2024-05-11T10:18:07Z</time>
</trkpt>
<trkpt lat="49.60856239311397" lon="9.472805019468067">
<ele>265.6</ele>
<time>2024-05-11T10:18:08Z</time>
</trkpt>
<trkpt lat="49.60856624878943" lon="9.472813569009304">
<ele>265.6</ele>
<time>2024-05-11T10:18:09Z</time>
</trkpt>
<trkpt lat="49.60857764817774" lon="9.472849778831003">
<ele>265.8</ele>
<time>2024-05-11T10:18:10Z</time>
</trkpt>
<trkpt lat="49.6085815038532" lon="9.472878444939852">
<ele>265.8</ele>
<time>2024-05-11T10:18:11Z</time>
</trkpt>
<trkpt lat="49.60858527570963" lon="9.472907027229668">
<ele>265.8</ele>
<time>2024-05-11T10:18:12Z</time>
</trkpt>
<trkpt lat="49.60858913138509" lon="9.47293845936656">
<ele>265.8</ele>
<time>2024-05-11T10:18:13Z</time>
</trkpt>
<trkpt lat="49.60858527570963" lon="9.472965197637675">
<ele>265.6</ele>
<time>2024-05-11T10:18:14Z</time>
</trkpt>
<trkpt lat="49.6085815038532" lon="9.472992857918143">
<ele>265.6</ele>
<time>2024-05-11T10:18:15Z</time>
</trkpt>
<trkpt lat="49.60857002064586" lon="9.47301666252315">
<ele>265.4</ele>
<time>2024-05-11T10:18:16Z</time>
</trkpt>
<trkpt lat="49.60856239311397" lon="9.473028145730495">
<ele>265.4</ele>
<time>2024-05-11T10:18:17Z</time>
</trkpt>
<trkpt lat="49.608558621257544" lon="9.473031917586924">
<ele>265.4</ele>
<time>2024-05-11T10:18:18Z</time>
</trkpt>
<trkpt lat="49.608554765582085" lon="9.47303862310946">
<ele>265.2</ele>
<time>2024-05-11T10:18:19Z</time>
</trkpt>
<trkpt lat="49.608554765582085" lon="9.473039545118809">
<ele>265.2</ele>
<time>2024-05-11T10:18:20Z</time>
</trkpt>
<trkpt lat="49.60855099372566" lon="9.473043400794268">
<ele>265.2</ele>
<time>2024-05-11T10:18:21Z</time>
</trkpt>
<trkpt lat="49.6085471380502" lon="9.473046250641346">
<ele>265.2</ele>
<time>2024-05-11T10:18:22Z</time>
</trkpt>
<trkpt lat="49.6085471380502" lon="9.473048178479075">
<ele>265</ele>
<time>2024-05-11T10:18:24Z</time>
</trkpt>
<trkpt lat="49.6085471380502" lon="9.473051950335504">
<ele>265</ele>
<time>2024-05-11T10:18:25Z</time>
</trkpt>
<trkpt lat="49.60854336619377" lon="9.47305672802031">
<ele>265</ele>
<time>2024-05-11T10:18:26Z</time>
</trkpt>
<trkpt lat="49.60852811113" lon="9.473079610615969">
<ele>265</ele>
<time>2024-05-11T10:18:27Z</time>
</trkpt>
<trkpt lat="49.608516627922654" lon="9.473113054409623">
<ele>264.8</ele>
<time>2024-05-11T10:18:28Z</time>
</trkpt>
<trkpt lat="49.60850522853434" lon="9.473141636699438">
<ele>264.8</ele>
<time>2024-05-11T10:18:29Z</time>
</trkpt>
<trkpt lat="49.60849374532699" lon="9.47317499667406">
<ele>264.6</ele>
<time>2024-05-11T10:18:30Z</time>
</trkpt>
<trkpt lat="49.60848611779511" lon="9.473203578963876">
<ele>264.4</ele>
<time>2024-05-11T10:18:31Z</time>
</trkpt>
<trkpt lat="49.60847086273134" lon="9.473231239244342">
<ele>264.4</ele>
<time>2024-05-11T10:18:32Z</time>
</trkpt>
<trkpt lat="49.60845183581114" lon="9.473263677209616">
<ele>264.4</ele>
<time>2024-05-11T10:18:33Z</time>
</trkpt>
<trkpt lat="49.60844035260379" lon="9.473303742706776">
<ele>264.4</ele>
<time>2024-05-11T10:18:34Z</time>
</trkpt>
<trkpt lat="49.60842895321548" lon="9.473341880366206">
<ele>264.4</ele>
<time>2024-05-11T10:18:35Z</time>
</trkpt>
<trkpt lat="49.608421325683594" lon="9.47337624616921">
<ele>264.4</ele>
<time>2024-05-11T10:18:36Z</time>
</trkpt>
<trkpt lat="49.60840984247625" lon="9.473402900621297">
<ele>264.4</ele>
<time>2024-05-11T10:18:37Z</time>
</trkpt>
<trkpt lat="49.608398359268904" lon="9.473429638892412">
<ele>264.4</ele>
<time>2024-05-11T10:18:38Z</time>
</trkpt>
<trkpt lat="49.60838310420513" lon="9.473449671640992">
<ele>264.4</ele>
<time>2024-05-11T10:18:39Z</time>
</trkpt>
<trkpt lat="49.60836784914136" lon="9.473471632227302">
<ele>264.4</ele>
<time>2024-05-11T10:18:40Z</time>
</trkpt>
<trkpt lat="49.60835259407759" lon="9.473491664975882">
<ele>264.4</ele>
<time>2024-05-11T10:18:41Z</time>
</trkpt>
<trkpt lat="49.6083449665457" lon="9.473506920039654">
<ele>264.4</ele>
<time>2024-05-11T10:18:42Z</time>
</trkpt>
<trkpt lat="49.6083449665457" lon="9.47351354174316">
<ele>264.4</ele>
<time>2024-05-11T10:18:43Z</time>
</trkpt>
<trkpt lat="49.608341194689274" lon="9.473509769886732">
<ele>264.4</ele>
<time>2024-05-11T10:18:45Z</time>
</trkpt>
<trkpt lat="49.608341194689274" lon="9.473506920039654">
<ele>264.6</ele>
<time>2024-05-11T10:18:46Z</time>
</trkpt>
<trkpt lat="49.608337339013815" lon="9.473503064364197">
<ele>264.6</ele>
<time>2024-05-11T10:18:47Z</time>
</trkpt>
<trkpt lat="49.608341194689274" lon="9.473506920039654">
<ele>264.6</ele>
<time>2024-05-11T10:18:48Z</time>
</trkpt>
<trkpt lat="49.608337339013815" lon="9.473504992201924">
<ele>264.6</ele>
<time>2024-05-11T10:18:51Z</time>
</trkpt>
<trkpt lat="49.608337339013815" lon="9.473506920039654">
<ele>264.6</ele>
<time>2024-05-11T10:18:56Z</time>
</trkpt>
<trkpt lat="49.60833356715739" lon="9.473506920039654">
<ele>264.6</ele>
<time>2024-05-11T10:19:03Z</time>
</trkpt>
<trkpt lat="49.60833356715739" lon="9.473507842049004">
<ele>264.6</ele>
<time>2024-05-11T10:19:04Z</time>
</trkpt>
<trkpt lat="49.60833356715739" lon="9.473509769886732">
<ele>264.6</ele>
<time>2024-05-11T10:19:05Z</time>
</trkpt>
<trkpt lat="49.608337339013815" lon="9.473507842049004">
<ele>264.6</ele>
<time>2024-05-11T10:19:06Z</time>
</trkpt>
<trkpt lat="49.608337339013815" lon="9.47351161390543">
<ele>264.6</ele>
<time>2024-05-11T10:19:07Z</time>
</trkpt>
<trkpt lat="49.608341194689274" lon="9.47351161390543">
<ele>264.6</ele>
<time>2024-05-11T10:19:08Z</time>
</trkpt>
<trkpt lat="49.608341194689274" lon="9.47351354174316">
<ele>264.6</ele>
<time>2024-05-11T10:19:09Z</time>
</trkpt>
<trkpt lat="49.6083449665457" lon="9.473518319427969">
<ele>264.6</ele>
<time>2024-05-11T10:19:10Z</time>
</trkpt>
<trkpt lat="49.6083449665457" lon="9.473521169275044">
<ele>264.6</ele>
<time>2024-05-11T10:19:11Z</time>
</trkpt>
<trkpt lat="49.6083449665457" lon="9.473523097112777">
<ele>264.6</ele>
<time>2024-05-11T10:19:12Z</time>
</trkpt>
<trkpt lat="49.608341194689274" lon="9.473521169275044">
<ele>264.6</ele>
<time>2024-05-11T10:19:13Z</time>
</trkpt>
<trkpt lat="49.608341194689274" lon="9.473520247265697">
<ele>264.6</ele>
<time>2024-05-11T10:19:14Z</time>
</trkpt>
<trkpt lat="49.608341194689274" lon="9.473521169275044">
<ele>264.6</ele>
<time>2024-05-11T10:19:15Z</time>
</trkpt>
<trkpt lat="49.608341194689274" lon="9.473520247265697">
<ele>264.6</ele>
<time>2024-05-11T10:19:17Z</time>
</trkpt>
<trkpt lat="49.608341194689274" lon="9.473518319427969">
<ele>264.6</ele>
<time>2024-05-11T10:19:18Z</time>
</trkpt>
<trkpt lat="49.608341194689274" lon="9.473521169275044">
<ele>264.6</ele>
<time>2024-05-11T10:19:19Z</time>
</trkpt>
<trkpt lat="49.608337339013815" lon="9.473521169275044">
<ele>264.6</ele>
<time>2024-05-11T10:19:21Z</time>
</trkpt>
<trkpt lat="49.60833356715739" lon="9.473521169275044">
<ele>264.6</ele>
<time>2024-05-11T10:19:24Z</time>
</trkpt>
<trkpt lat="49.60833356715739" lon="9.473520247265697">
<ele>264.4</ele>
<time>2024-05-11T10:19:25Z</time>
</trkpt>
<trkpt lat="49.60833356715739" lon="9.473518319427969">
<ele>264.4</ele>
<time>2024-05-11T10:19:26Z</time>
</trkpt>
<trkpt lat="49.608337339013815" lon="9.473516391590238">
<ele>264.2</ele>
<time>2024-05-11T10:19:27Z</time>
</trkpt>
<trkpt lat="49.60833356715739" lon="9.47351454757154">
<ele>264.2</ele>
<time>2024-05-11T10:19:28Z</time>
</trkpt>
<trkpt lat="49.60832971148193" lon="9.47351454757154">
<ele>264.2</ele>
<time>2024-05-11T10:19:31Z</time>
</trkpt>
<trkpt lat="49.60832971148193" lon="9.47351354174316">
<ele>264</ele>
<time>2024-05-11T10:19:32Z</time>
</trkpt>
<trkpt lat="49.6083259396255" lon="9.47351161390543">
<ele>264</ele>
<time>2024-05-11T10:19:33Z</time>
</trkpt>
<trkpt lat="49.60832208395004" lon="9.473516391590238">
<ele>263.8</ele>
<time>2024-05-11T10:19:34Z</time>
</trkpt>
<trkpt lat="49.60832208395004" lon="9.473518319427969">
<ele>263.8</ele>
<time>2024-05-11T10:19:35Z</time>
</trkpt>
<trkpt lat="49.60832208395004" lon="9.473520247265697">
<ele>263.8</ele>
<time>2024-05-11T10:19:36Z</time>
</trkpt>
<trkpt lat="49.608318312093616" lon="9.473518319427969">
<ele>263.8</ele>
<time>2024-05-11T10:19:37Z</time>
</trkpt>
<trkpt lat="49.6083259396255" lon="9.473521169275044">
<ele>263.8</ele>
<time>2024-05-11T10:19:38Z</time>
</trkpt>
<trkpt lat="49.6083259396255" lon="9.473523097112777">
<ele>263.8</ele>
<time>2024-05-11T10:19:39Z</time>
</trkpt>
<trkpt lat="49.60832971148193" lon="9.473523097112777">
<ele>263.6</ele>
<time>2024-05-11T10:19:40Z</time>
</trkpt>
<trkpt lat="49.60832971148193" lon="9.473521169275044">
<ele>263.6</ele>
<time>2024-05-11T10:19:41Z</time>
</trkpt>
<trkpt lat="49.60832971148193" lon="9.473520247265697">
<ele>263.6</ele>
<time>2024-05-11T10:19:44Z</time>
</trkpt>
<trkpt lat="49.60832971148193" lon="9.473521169275044">
<ele>263.6</ele>
<time>2024-05-11T10:19:45Z</time>
</trkpt>
<trkpt lat="49.60832971148193" lon="9.473520247265697">
<ele>263.6</ele>
<time>2024-05-11T10:19:46Z</time>
</trkpt>
<trkpt lat="49.6083259396255" lon="9.473523097112777">
<ele>263.6</ele>
<time>2024-05-11T10:19:48Z</time>
</trkpt>
<trkpt lat="49.60832208395004" lon="9.473521169275044">
<ele>263.6</ele>
<time>2024-05-11T10:19:49Z</time>
</trkpt>
<trkpt lat="49.6083259396255" lon="9.473523097112777">
<ele>263.6</ele>
<time>2024-05-11T10:19:50Z</time>
</trkpt>
<trkpt lat="49.6083259396255" lon="9.473521169275044">
<ele>263.6</ele>
<time>2024-05-11T10:19:51Z</time>
</trkpt>
<trkpt lat="49.60832971148193" lon="9.473523097112777">
<ele>263.6</ele>
<time>2024-05-11T10:19:52Z</time>
</trkpt>
<trkpt lat="49.60832971148193" lon="9.473521169275044">
<ele>263.6</ele>
<time>2024-05-11T10:19:53Z</time>
</trkpt>
<trkpt lat="49.6083259396255" lon="9.473520247265697">
<ele>263.6</ele>
<time>2024-05-11T10:19:55Z</time>
</trkpt>
<trkpt lat="49.60832208395004" lon="9.473518319427969">
<ele>263.6</ele>
<time>2024-05-11T10:19:57Z</time>
</trkpt>
<trkpt lat="49.60832208395004" lon="9.473520247265697">
<ele>263.6</ele>
<time>2024-05-11T10:19:58Z</time>
</trkpt>
<trkpt lat="49.6083259396255" lon="9.473520247265697">
<ele>263.6</ele>
<time>2024-05-11T10:19:59Z</time>
</trkpt>
<trkpt lat="49.6083259396255" lon="9.473521169275044">
<ele>263.6</ele>
<time>2024-05-11T10:20:01Z</time>
</trkpt>
<trkpt lat="49.6083259396255" lon="9.473523097112777">
<ele>263.6</ele>
<time>2024-05-11T10:20:04Z</time>
</trkpt>
<trkpt lat="49.60832208395004" lon="9.473523097112777">
<ele>263.8</ele>
<time>2024-05-11T10:20:08Z</time>
</trkpt>
<trkpt lat="49.608318312093616" lon="9.473525024950504">
<ele>263.8</ele>
<time>2024-05-11T10:20:09Z</time>
</trkpt>
<trkpt lat="49.608318312093616" lon="9.473526952788234">
<ele>263.8</ele>
<time>2024-05-11T10:20:10Z</time>
</trkpt>
<trkpt lat="49.608318312093616" lon="9.473525024950504">
<ele>263.8</ele>
<time>2024-05-11T10:20:11Z</time>
</trkpt>
<trkpt lat="49.608318312093616" lon="9.473523097112777">
<ele>263.8</ele>
<time>2024-05-11T10:20:12Z</time>
</trkpt>
<trkpt lat="49.608318312093616" lon="9.473521169275044">
<ele>263.8</ele>
<time>2024-05-11T10:20:13Z</time>
</trkpt>
<trkpt lat="49.608318312093616" lon="9.473520247265697">
<ele>263.8</ele>
<time>2024-05-11T10:20:14Z</time>
</trkpt>
<trkpt lat="49.608318312093616" lon="9.473518319427969">
<ele>263.8</ele>
<time>2024-05-11T10:20:15Z</time>
</trkpt>
<trkpt lat="49.608318312093616" lon="9.473523097112777">
<ele>263.8</ele>
<time>2024-05-11T10:20:16Z</time>
</trkpt>
<trkpt lat="49.608318312093616" lon="9.473521169275044">
<ele>263.8</ele>
<time>2024-05-11T10:20:19Z</time>
</trkpt>
<trkpt lat="49.60832208395004" lon="9.473521169275044">
<ele>263.8</ele>
<time>2024-05-11T10:20:21Z</time>
</trkpt>
<trkpt lat="49.608318312093616" lon="9.473520247265697">
<ele>263.8</ele>
<time>2024-05-11T10:20:25Z</time>
</trkpt>
<trkpt lat="49.608318312093616" lon="9.473521169275044">
<ele>263.6</ele>
<time>2024-05-11T10:20:28Z</time>
</trkpt>
<trkpt lat="49.608318312093616" lon="9.473523097112777">
<ele>263.6</ele>
<time>2024-05-11T10:20:29Z</time>
</trkpt>
<trkpt lat="49.60832208395004" lon="9.473523097112777">
<ele>263.6</ele>
<time>2024-05-11T10:20:30Z</time>
</trkpt>
<trkpt lat="49.608318312093616" lon="9.473521169275044">
<ele>263.6</ele>
<time>2024-05-11T10:20:31Z</time>
</trkpt>
<trkpt lat="49.608318312093616" lon="9.473523097112777">
<ele>263.4</ele>
<time>2024-05-11T10:20:33Z</time>
</trkpt>
<trkpt lat="49.60832208395004" lon="9.473525024950504">
<ele>263.4</ele>
<time>2024-05-11T10:20:35Z</time>
</trkpt>
<trkpt lat="49.608318312093616" lon="9.473523097112777">
<ele>263.2</ele>
<time>2024-05-11T10:20:36Z</time>
</trkpt>
<trkpt lat="49.608318312093616" lon="9.473521169275044">
<ele>263.2</ele>
<time>2024-05-11T10:20:38Z</time>
</trkpt>
<trkpt lat="49.60831445641816" lon="9.473521169275044">
<ele>263.2</ele>
<time>2024-05-11T10:20:39Z</time>
</trkpt>
<trkpt lat="49.60831445641816" lon="9.473523097112777">
<ele>263.2</ele>
<time>2024-05-11T10:20:41Z</time>
</trkpt>
<trkpt lat="49.60831445641816" lon="9.473520247265697">
<ele>263.2</ele>
<time>2024-05-11T10:20:42Z</time>
</trkpt>
<trkpt lat="49.60831068456173" lon="9.473518319427969">
<ele>263.2</ele>
<time>2024-05-11T10:20:43Z</time>
</trkpt>
<trkpt lat="49.60831068456173" lon="9.473516391590238">
<ele>263</ele>
<time>2024-05-11T10:20:45Z</time>
</trkpt>
<trkpt lat="49.60830682888627" lon="9.473516391590238">
<ele>262.6</ele>
<time>2024-05-11T10:20:46Z</time>
</trkpt>
<trkpt lat="49.60831068456173" lon="9.473516391590238">
<ele>262.4</ele>
<time>2024-05-11T10:20:47Z</time>
</trkpt>
<trkpt lat="49.60830682888627" lon="9.473518319427969">
<ele>262.4</ele>
<time>2024-05-11T10:20:48Z</time>
</trkpt>
<trkpt lat="49.60830682888627" lon="9.473516391590238">
<ele>262.4</ele>
<time>2024-05-11T10:20:49Z</time>
</trkpt>
<trkpt lat="49.60830682888627" lon="9.47351454757154">
<ele>262.6</ele>
<time>2024-05-11T10:20:50Z</time>
</trkpt>
<trkpt lat="49.60831068456173" lon="9.473516391590238">
<ele>262.6</ele>
<time>2024-05-11T10:20:51Z</time>
</trkpt>
<trkpt lat="49.60830682888627" lon="9.47351354174316">
<ele>262.8</ele>
<time>2024-05-11T10:20:52Z</time>
</trkpt>
<trkpt lat="49.60830682888627" lon="9.47351454757154">
<ele>262.8</ele>
<time>2024-05-11T10:20:53Z</time>
</trkpt>
<trkpt lat="49.60830682888627" lon="9.473516391590238">
<ele>263</ele>
<time>2024-05-11T10:20:54Z</time>
</trkpt>
<trkpt lat="49.60830682888627" lon="9.473518319427969">
<ele>263</ele>
<time>2024-05-11T10:20:56Z</time>
</trkpt>
<trkpt lat="49.60831068456173" lon="9.473520247265697">
<ele>263.2</ele>
<time>2024-05-11T10:20:57Z</time>
</trkpt>
<trkpt lat="49.60831068456173" lon="9.473521169275044">
<ele>263.2</ele>
<time>2024-05-11T10:20:59Z</time>
</trkpt>
<trkpt lat="49.60831068456173" lon="9.473518319427969">
<ele>263.2</ele>
<time>2024-05-11T10:21:00Z</time>
</trkpt>
<trkpt lat="49.60830682888627" lon="9.47351454757154">
<ele>263.4</ele>
<time>2024-05-11T10:21:04Z</time>
</trkpt>
<trkpt lat="49.60830682888627" lon="9.47351354174316">
<ele>263.4</ele>
<time>2024-05-11T10:21:05Z</time>
</trkpt>
<trkpt lat="49.60830682888627" lon="9.473516391590238">
<ele>263.6</ele>
<time>2024-05-11T10:21:06Z</time>
</trkpt>
<trkpt lat="49.60831068456173" lon="9.473518319427969">
<ele>263.8</ele>
<time>2024-05-11T10:21:07Z</time>
</trkpt>
<trkpt lat="49.60830682888627" lon="9.473516391590238">
<ele>263.8</ele>
<time>2024-05-11T10:21:09Z</time>
</trkpt>
<trkpt lat="49.60830682888627" lon="9.473518319427969">
<ele>264</ele>
<time>2024-05-11T10:21:10Z</time>
</trkpt>
<trkpt lat="49.60831068456173" lon="9.473516391590238">
<ele>264</ele>
<time>2024-05-11T10:21:11Z</time>
</trkpt>
<trkpt lat="49.60831068456173" lon="9.473518319427969">
<ele>264</ele>
<time>2024-05-11T10:21:12Z</time>
</trkpt>
<trkpt lat="49.60831068456173" lon="9.473516391590238">
<ele>264</ele>
<time>2024-05-11T10:21:15Z</time>
</trkpt>
<trkpt lat="49.60831445641816" lon="9.473516391590238">
<ele>264.2</ele>
<time>2024-05-11T10:21:17Z</time>
</trkpt>
<trkpt lat="49.60831445641816" lon="9.473518319427969">
<ele>264.2</ele>
<time>2024-05-11T10:21:19Z</time>
</trkpt>
<trkpt lat="49.608318312093616" lon="9.473518319427969">
<ele>264.4</ele>
<time>2024-05-11T10:21:28Z</time>
</trkpt>
<trkpt lat="49.608318312093616" lon="9.473520247265697">
<ele>264.4</ele>
<time>2024-05-11T10:21:33Z</time>
</trkpt>
<trkpt lat="49.608318312093616" lon="9.473521169275044">
<ele>264.4</ele>
<time>2024-05-11T10:21:42Z</time>
</trkpt>
<trkpt lat="49.60832208395004" lon="9.473521169275044">
<ele>264.6</ele>
<time>2024-05-11T10:21:52Z</time>
</trkpt>
<trkpt lat="49.60832208395004" lon="9.473523097112777">
<ele>264.6</ele>
<time>2024-05-11T10:21:53Z</time>
</trkpt>
<trkpt lat="49.60832208395004" lon="9.473521169275044">
<ele>264.6</ele>
<time>2024-05-11T10:21:54Z</time>
</trkpt>
<trkpt lat="49.608318312093616" lon="9.473521169275044">
<ele>264.6</ele>
<time>2024-05-11T10:21:58Z</time>
</trkpt>
<trkpt lat="49.60832208395004" lon="9.473521169275044">
<ele>264.6</ele>
<time>2024-05-11T10:22:02Z</time>
</trkpt>
<trkpt lat="49.608318312093616" lon="9.473521169275044">
<ele>264.6</ele>
<time>2024-05-11T10:22:03Z</time>
</trkpt>
<trkpt lat="49.60832208395004" lon="9.473523097112777">
<ele>264.6</ele>
<time>2024-05-11T10:22:05Z</time>
</trkpt>
<trkpt lat="49.60832208395004" lon="9.473521169275044">
<ele>264.6</ele>
<time>2024-05-11T10:22:31Z</time>
</trkpt>
<trkpt lat="49.608318312093616" lon="9.473521169275044">
<ele>264.6</ele>
<time>2024-05-11T10:22:33Z</time>
</trkpt>
<trkpt lat="49.60832208395004" lon="9.473523097112777">
<ele>264.6</ele>
<time>2024-05-11T10:22:35Z</time>
</trkpt>
<trkpt lat="49.60832208395004" lon="9.473521169275044">
<ele>264.6</ele>
<time>2024-05-11T10:22:38Z</time>
</trkpt>
<trkpt lat="49.608318312093616" lon="9.473521169275044">
<ele>264.6</ele>
<time>2024-05-11T10:22:40Z</time>
</trkpt>
<trkpt lat="49.60832208395004" lon="9.473521169275044">
<ele>264.6</ele>
<time>2024-05-11T10:22:42Z</time>
</trkpt>
<trkpt lat="49.608318312093616" lon="9.473521169275044">
<ele>264.6</ele>
<time>2024-05-11T10:22:43Z</time>
</trkpt>
<trkpt lat="49.608318312093616" lon="9.473520247265697">
<ele>264.6</ele>
<time>2024-05-11T10:22:50Z</time>
</trkpt>
<trkpt lat="49.608318312093616" lon="9.473518319427969">
<ele>264.6</ele>
<time>2024-05-11T10:22:57Z</time>
</trkpt>
<trkpt lat="49.608318312093616" lon="9.473520247265697">
<ele>264.6</ele>
<time>2024-05-11T10:22:58Z</time>
</trkpt>
<trkpt lat="49.60832208395004" lon="9.473518319427969">
<ele>264.6</ele>
<time>2024-05-11T10:22:59Z</time>
</trkpt>
<trkpt lat="49.60832208395004" lon="9.473516391590238">
<ele>264.6</ele>
<time>2024-05-11T10:23:03Z</time>
</trkpt>
<trkpt lat="49.60832208395004" lon="9.47351454757154">
<ele>264.6</ele>
<time>2024-05-11T10:23:10Z</time>
</trkpt>
<trkpt lat="49.60832208395004" lon="9.47351354174316">
<ele>264.6</ele>
<time>2024-05-11T10:23:17Z</time>
</trkpt>
<trkpt lat="49.60832208395004" lon="9.47351161390543">
<ele>264.6</ele>
<time>2024-05-11T10:23:27Z</time>
</trkpt>
<trkpt lat="49.60832208395004" lon="9.47351354174316">
<ele>264.6</ele>
<time>2024-05-11T10:23:28Z</time>
</trkpt>
<trkpt lat="49.608318312093616" lon="9.47351354174316">
<ele>264.6</ele>
<time>2024-05-11T10:23:33Z</time>
</trkpt>
<trkpt lat="49.608318312093616" lon="9.47351454757154">
<ele>264.6</ele>
<time>2024-05-11T10:23:43Z</time>
</trkpt>
<trkpt lat="49.608318312093616" lon="9.473516391590238">
<ele>264.6</ele>
<time>2024-05-11T10:23:51Z</time>
</trkpt>
<trkpt lat="49.608318312093616" lon="9.473518319427969">
<ele>264.6</ele>
<time>2024-05-11T10:23:59Z</time>
</trkpt>
<trkpt lat="49.608318312093616" lon="9.473520247265697">
<ele>264.6</ele>
<time>2024-05-11T10:24:01Z</time>
</trkpt>
<trkpt lat="49.608318312093616" lon="9.473521169275044">
<ele>264.6</ele>
<time>2024-05-11T10:24:04Z</time>
</trkpt>
<trkpt lat="49.608318312093616" lon="9.473520247265697">
<ele>264.6</ele>
<time>2024-05-11T10:24:11Z</time>
</trkpt>
<trkpt lat="49.608318312093616" lon="9.473518319427969">
<ele>264.6</ele>
<time>2024-05-11T10:24:19Z</time>
</trkpt>
<trkpt lat="49.608318312093616" lon="9.473520247265697">
<ele>264.6</ele>
<time>2024-05-11T10:24:21Z</time>
</trkpt>
<trkpt lat="49.608318312093616" lon="9.473518319427969">
<ele>264.6</ele>
<time>2024-05-11T10:24:22Z</time>
</trkpt>
<trkpt lat="49.608318312093616" lon="9.473520247265697">
<ele>264.6</ele>
<time>2024-05-11T10:24:23Z</time>
</trkpt>
<trkpt lat="49.608318312093616" lon="9.473518319427969">
<ele>264.6</ele>
<time>2024-05-11T10:24:24Z</time>
</trkpt>
<trkpt lat="49.608318312093616" lon="9.473516391590238">
<ele>264.6</ele>
<time>2024-05-11T10:24:25Z</time>
</trkpt>
<trkpt lat="49.608318312093616" lon="9.473520247265697">
<ele>264.6</ele>
<time>2024-05-11T10:24:26Z</time>
</trkpt>
<trkpt lat="49.608318312093616" lon="9.473521169275044">
<ele>264.6</ele>
<time>2024-05-11T10:24:28Z</time>
</trkpt>
<trkpt lat="49.608318312093616" lon="9.473520247265697">
<ele>264.6</ele>
<time>2024-05-11T10:24:29Z</time>
</trkpt>
<trkpt lat="49.608318312093616" lon="9.473518319427969">
<ele>264.6</ele>
<time>2024-05-11T10:24:31Z</time>
</trkpt>
<trkpt lat="49.60831445641816" lon="9.473518319427969">
<ele>264.6</ele>
<time>2024-05-11T10:24:39Z</time>
</trkpt>
<trkpt lat="49.60831445641816" lon="9.473520247265697">
<ele>264.6</ele>
<time>2024-05-11T10:24:40Z</time>
</trkpt>
<trkpt lat="49.60831445641816" lon="9.473523097112777">
<ele>264.6</ele>
<time>2024-05-11T10:24:41Z</time>
</trkpt>
<trkpt lat="49.60831445641816" lon="9.473525024950504">
<ele>264.6</ele>
<time>2024-05-11T10:24:42Z</time>
</trkpt>
<trkpt lat="49.60831068456173" lon="9.473545057699084">
<ele>264.6</ele>
<time>2024-05-11T10:24:43Z</time>
</trkpt>
<trkpt lat="49.60830682888627" lon="9.473565090447664">
<ele>264.6</ele>
<time>2024-05-11T10:24:44Z</time>
</trkpt>
<trkpt lat="49.60830305702984" lon="9.473578417673709">
<ele>264.6</ele>
<time>2024-05-11T10:24:45Z</time>
</trkpt>
<trkpt lat="49.6082915738225" lon="9.473601300269364">
<ele>264.6</ele>
<time>2024-05-11T10:24:46Z</time>
</trkpt>
<trkpt lat="49.60828394629061" lon="9.473628038540484">
<ele>264.6</ele>
<time>2024-05-11T10:24:47Z</time>
</trkpt>
<trkpt lat="49.608276318758726" lon="9.473659470677376">
<ele>264.6</ele>
<time>2024-05-11T10:24:48Z</time>
</trkpt>
<trkpt lat="49.60826491937041" lon="9.473694758489728">
<ele>264.6</ele>
<time>2024-05-11T10:24:49Z</time>
</trkpt>
<trkpt lat="49.60825343616307" lon="9.473734823986888">
<ele>264.6</ele>
<time>2024-05-11T10:24:50Z</time>
</trkpt>
<trkpt lat="49.60824195295572" lon="9.473776817321776">
<ele>264.6</ele>
<time>2024-05-11T10:24:51Z</time>
</trkpt>
<trkpt lat="49.60823432542384" lon="9.47382635436952">
<ele>264.6</ele>
<time>2024-05-11T10:24:52Z</time>
</trkpt>
<trkpt lat="49.60822669789195" lon="9.473881674930452">
<ele>264.6</ele>
<time>2024-05-11T10:24:53Z</time>
</trkpt>
<trkpt lat="49.60821529850364" lon="9.473939845338464">
<ele>264.6</ele>
<time>2024-05-11T10:24:54Z</time>
</trkpt>
<trkpt lat="49.60820381529629" lon="9.474001871421931">
<ele>264.6</ele>
<time>2024-05-11T10:24:55Z</time>
</trkpt>
<trkpt lat="49.608196187764406" lon="9.474064819514751">
<ele>264.8</ele>
<time>2024-05-11T10:24:56Z</time>
</trkpt>
<trkpt lat="49.60818478837609" lon="9.474129611626267">
<ele>264.8</ele>
<time>2024-05-11T10:24:57Z</time>
</trkpt>
<trkpt lat="49.60817330516875" lon="9.474178310483694">
<ele>265</ele>
<time>2024-05-11T10:24:58Z</time>
</trkpt>
<trkpt lat="49.60816567763686" lon="9.474218292161822">
<ele>265</ele>
<time>2024-05-11T10:24:59Z</time>
</trkpt>
<trkpt lat="49.608158050104976" lon="9.474256513640285">
<ele>265.2</ele>
<time>2024-05-11T10:25:00Z</time>
</trkpt>
<trkpt lat="49.60815042257309" lon="9.474287945777178">
<ele>265.2</ele>
<time>2024-05-11T10:25:01Z</time>
</trkpt>
<trkpt lat="49.60814665071666" lon="9.474318455904722">
<ele>265.4</ele>
<time>2024-05-11T10:25:02Z</time>
</trkpt>
<trkpt lat="49.6081427950412" lon="9.47434326633811">
<ele>265.4</ele>
<time>2024-05-11T10:25:03Z</time>
</trkpt>
<trkpt lat="49.60813516750932" lon="9.474368076771498">
<ele>265.4</ele>
<time>2024-05-11T10:25:04Z</time>
</trkpt>
<trkpt lat="49.60812753997743" lon="9.474396659061313">
<ele>265.4</ele>
<time>2024-05-11T10:25:05Z</time>
</trkpt>
<trkpt lat="49.60811614058912" lon="9.474430019035935">
<ele>265.4</ele>
<time>2024-05-11T10:25:06Z</time>
</trkpt>
<trkpt lat="49.60809702984989" lon="9.474466312676668">
<ele>265.4</ele>
<time>2024-05-11T10:25:07Z</time>
</trkpt>
<trkpt lat="49.60807029157877" lon="9.47449866682291">
<ele>265.4</ele>
<time>2024-05-11T10:25:08Z</time>
</trkpt>
<trkpt lat="49.60804363712669" lon="9.474526327103376">
<ele>265.2</ele>
<time>2024-05-11T10:25:09Z</time>
</trkpt>
<trkpt lat="49.60801312699914" lon="9.474566392600536">
<ele>265.2</ele>
<time>2024-05-11T10:25:10Z</time>
</trkpt>
<trkpt lat="49.60796350613237" lon="9.47461794130504">
<ele>265</ele>
<time>2024-05-11T10:25:11Z</time>
</trkpt>
<trkpt lat="49.60792159661651" lon="9.47465700097382">
<ele>264.8</ele>
<time>2024-05-11T10:25:12Z</time>
</trkpt>
<trkpt lat="49.60786812007427" lon="9.474708549678326">
<ele>264.6</ele>
<time>2024-05-11T10:25:13Z</time>
</trkpt>
<trkpt lat="49.607826210558414" lon="9.47475615888834">
<ele>264.4</ele>
<time>2024-05-11T10:25:14Z</time>
</trkpt>
<trkpt lat="49.6077804453671" lon="9.474815335124733">
<ele>264</ele>
<time>2024-05-11T10:25:15Z</time>
</trkpt>
<trkpt lat="49.60773845203221" lon="9.474873505532742">
<ele>263.8</ele>
<time>2024-05-11T10:25:16Z</time>
</trkpt>
<trkpt lat="49.60768883116543" lon="9.474927820265291">
<ele>263.4</ele>
<time>2024-05-11T10:25:17Z</time>
</trkpt>
<trkpt lat="49.60764306597411" lon="9.474981296807528">
<ele>263.2</ele>
<time>2024-05-11T10:25:18Z</time>
</trkpt>
<trkpt lat="49.6075973007828" lon="9.47503661736846">
<ele>263</ele>
<time>2024-05-11T10:25:19Z</time>
</trkpt>
<trkpt lat="49.60755530744791" lon="9.475088082253931">
<ele>262.6</ele>
<time>2024-05-11T10:25:20Z</time>
</trkpt>
<trkpt lat="49.60751339793205" lon="9.475143402814863">
<ele>262.4</ele>
<time>2024-05-11T10:25:21Z</time>
</trkpt>
<trkpt lat="49.60747140459716" lon="9.47519201785326">
<ele>262.4</ele>
<time>2024-05-11T10:25:22Z</time>
</trkpt>
<trkpt lat="49.60742563940585" lon="9.475236861035228">
<ele>262.2</ele>
<time>2024-05-11T10:25:23Z</time>
</trkpt>
<trkpt lat="49.60737987421453" lon="9.475277848541737">
<ele>262</ele>
<time>2024-05-11T10:25:24Z</time>
</trkpt>
<trkpt lat="49.60733410902321" lon="9.475323613733051">
<ele>262</ele>
<time>2024-05-11T10:25:25Z</time>
</trkpt>
<trkpt lat="49.60728448815644" lon="9.475356973707676">
<ele>262</ele>
<time>2024-05-11T10:25:26Z</time>
</trkpt>
<trkpt lat="49.607234951108694" lon="9.475386561825871">
<ele>261.799</ele>
<time>2024-05-11T10:25:27Z</time>
</trkpt>
<trkpt lat="49.607192957773805" lon="9.475404666736722">
<ele>261.799</ele>
<time>2024-05-11T10:25:28Z</time>
</trkpt>
<trkpt lat="49.60714719258249" lon="9.47542855516076">
<ele>261.6</ele>
<time>2024-05-11T10:25:29Z</time>
</trkpt>
<trkpt lat="49.6071051992476" lon="9.47543140500784">
<ele>261.4</ele>
<time>2024-05-11T10:25:30Z</time>
</trkpt>
<trkpt lat="49.60706328973174" lon="9.475435176864266">
<ele>261.4</ele>
<time>2024-05-11T10:25:31Z</time>
</trkpt>
<trkpt lat="49.60702506825328" lon="9.475438110530376">
<ele>261.2</ele>
<time>2024-05-11T10:25:32Z</time>
</trkpt>
<trkpt lat="49.60699078626931" lon="9.475439954549074">
<ele>261.2</ele>
<time>2024-05-11T10:25:33Z</time>
</trkpt>
<trkpt lat="49.606956420466304" lon="9.475442804396152">
<ele>261.2</ele>
<time>2024-05-11T10:25:34Z</time>
</trkpt>
<trkpt lat="49.60692213848233" lon="9.475441882386804">
<ele>261.2</ele>
<time>2024-05-11T10:25:35Z</time>
</trkpt>
<trkpt lat="49.60689162835479" lon="9.475436182692649">
<ele>261</ele>
<time>2024-05-11T10:25:36Z</time>
</trkpt>
<trkpt lat="49.60686103440821" lon="9.47542947717011">
<ele>261</ele>
<time>2024-05-11T10:25:37Z</time>
</trkpt>
<trkpt lat="49.60682675242424" lon="9.475423777475951">
<ele>261</ele>
<time>2024-05-11T10:25:38Z</time>
</trkpt>
<trkpt lat="49.606796242296696" lon="9.475413300096989">
<ele>261</ele>
<time>2024-05-11T10:25:39Z</time>
</trkpt>
<trkpt lat="49.60676573216915" lon="9.475395195186138">
<ele>261</ele>
<time>2024-05-11T10:25:40Z</time>
</trkpt>
<trkpt lat="49.606738993898034" lon="9.475381784141064">
<ele>261</ele>
<time>2024-05-11T10:25:41Z</time>
</trkpt>
<trkpt lat="49.606719966977835" lon="9.47537038475275">
<ele>261</ele>
<time>2024-05-11T10:25:42Z</time>
</trkpt>
<trkpt lat="49.60670085623861" lon="9.475357979536057">
<ele>261</ele>
<time>2024-05-11T10:25:43Z</time>
</trkpt>
<trkpt lat="49.60668174549937" lon="9.475343646481631">
<ele>261</ele>
<time>2024-05-11T10:25:44Z</time>
</trkpt>
<trkpt lat="49.60667034611106" lon="9.47533124126494">
<ele>261</ele>
<time>2024-05-11T10:25:45Z</time>
</trkpt>
<trkpt lat="49.60665509104729" lon="9.475323613733051">
<ele>261</ele>
<time>2024-05-11T10:25:46Z</time>
</trkpt>
<trkpt lat="49.6066474635154" lon="9.475313136354089">
<ele>261.2</ele>
<time>2024-05-11T10:25:47Z</time>
</trkpt>
<trkpt lat="49.606639835983515" lon="9.475303580984471">
<ele>261.2</ele>
<time>2024-05-11T10:25:48Z</time>
</trkpt>
<trkpt lat="49.606639835983515" lon="9.475297881290317">
<ele>261.2</ele>
<time>2024-05-11T10:25:49Z</time>
</trkpt>
<trkpt lat="49.606639835983515" lon="9.47529025375843">
<ele>261.2</ele>
<time>2024-05-11T10:25:50Z</time>
</trkpt>
<trkpt lat="49.606639835983515" lon="9.475284554064274">
<ele>261.2</ele>
<time>2024-05-11T10:25:51Z</time>
</trkpt>
<trkpt lat="49.606639835983515" lon="9.475283548235891">
<ele>261.2</ele>
<time>2024-05-11T10:25:52Z</time>
</trkpt>
<trkpt lat="49.606635980308056" lon="9.475283548235891">
<ele>261.2</ele>
<time>2024-05-11T10:25:53Z</time>
</trkpt>
<trkpt lat="49.606635980308056" lon="9.475281704217196">
<ele>261.2</ele>
<time>2024-05-11T10:25:54Z</time>
</trkpt>
<trkpt lat="49.606635980308056" lon="9.475279776379466">
<ele>261.2</ele>
<time>2024-05-11T10:25:55Z</time>
</trkpt>
<trkpt lat="49.606635980308056" lon="9.475281704217196">
<ele>261</ele>
<time>2024-05-11T10:25:56Z</time>
</trkpt>
<trkpt lat="49.606635980308056" lon="9.475284554064274">
<ele>261</ele>
<time>2024-05-11T10:25:57Z</time>
</trkpt>
<trkpt lat="49.60663220845163" lon="9.475283548235891">
<ele>260.799</ele>
<time>2024-05-11T10:25:58Z</time>
</trkpt>
<trkpt lat="49.60663220845163" lon="9.475279776379466">
<ele>260.799</ele>
<time>2024-05-11T10:26:00Z</time>
</trkpt>
<trkpt lat="49.60663220845163" lon="9.475281704217196">
<ele>260.6</ele>
<time>2024-05-11T10:26:02Z</time>
</trkpt>
<trkpt lat="49.60663220845163" lon="9.475279776379466">
<ele>260.6</ele>
<time>2024-05-11T10:26:04Z</time>
</trkpt>
<trkpt lat="49.60663220845163" lon="9.475281704217196">
<ele>260.6</ele>
<time>2024-05-11T10:26:05Z</time>
</trkpt>
<trkpt lat="49.60663220845163" lon="9.475284554064274">
<ele>260.4</ele>
<time>2024-05-11T10:26:09Z</time>
</trkpt>
<trkpt lat="49.60663220845163" lon="9.4752883259207">
<ele>260.2</ele>
<time>2024-05-11T10:26:10Z</time>
</trkpt>
<trkpt lat="49.60663220845163" lon="9.47529025375843">
<ele>260.2</ele>
<time>2024-05-11T10:26:11Z</time>
</trkpt>
<trkpt lat="49.60663220845163" lon="9.4752883259207">
<ele>260</ele>
<time>2024-05-11T10:26:13Z</time>
</trkpt>
<trkpt lat="49.60663220845163" lon="9.47529025375843">
<ele>260</ele>
<time>2024-05-11T10:26:15Z</time>
</trkpt>
<trkpt lat="49.606635980308056" lon="9.475293103605509">
<ele>259.799</ele>
<time>2024-05-11T10:26:20Z</time>
</trkpt>
<trkpt lat="49.606639835983515" lon="9.475297881290317">
<ele>259.799</ele>
<time>2024-05-11T10:26:21Z</time>
</trkpt>
<trkpt lat="49.6066474635154" lon="9.475306430831552">
<ele>259.6</ele>
<time>2024-05-11T10:26:22Z</time>
</trkpt>
<trkpt lat="49.60665509104729" lon="9.47531120851636">
<ele>259.6</ele>
<time>2024-05-11T10:26:23Z</time>
</trkpt>
<trkpt lat="49.60665509104729" lon="9.475313136354089">
<ele>259.6</ele>
<time>2024-05-11T10:26:24Z</time>
</trkpt>
<trkpt lat="49.60665509104729" lon="9.475315064191818">
<ele>259.6</ele>
<time>2024-05-11T10:26:25Z</time>
</trkpt>
<trkpt lat="49.60665509104729" lon="9.475316992029548">
<ele>259.6</ele>
<time>2024-05-11T10:26:27Z</time>
</trkpt>
<trkpt lat="49.60665509104729" lon="9.475317914038897">
<ele>259.6</ele>
<time>2024-05-11T10:26:28Z</time>
</trkpt>
<trkpt lat="49.60665509104729" lon="9.475319841876626">
<ele>259.6</ele>
<time>2024-05-11T10:26:29Z</time>
</trkpt>
<trkpt lat="49.60665509104729" lon="9.475321769714355">
<ele>259.6</ele>
<time>2024-05-11T10:26:30Z</time>
</trkpt>
<trkpt lat="49.60665509104729" lon="9.475319841876626">
<ele>259.6</ele>
<time>2024-05-11T10:26:31Z</time>
</trkpt>
<trkpt lat="49.60665509104729" lon="9.475321769714355">
<ele>259.4</ele>
<time>2024-05-11T10:26:32Z</time>
</trkpt>
<trkpt lat="49.60666271857917" lon="9.47532839141786">
<ele>259.4</ele>
<time>2024-05-11T10:26:33Z</time>
</trkpt>
<trkpt lat="49.6066664904356" lon="9.475333169102669">
<ele>259.4</ele>
<time>2024-05-11T10:26:34Z</time>
</trkpt>
<trkpt lat="49.60667034611106" lon="9.475337946787477">
<ele>259.2</ele>
<time>2024-05-11T10:26:35Z</time>
</trkpt>
<trkpt lat="49.606677973642945" lon="9.475339874625206">
<ele>259.2</ele>
<time>2024-05-11T10:26:36Z</time>
</trkpt>
<trkpt lat="49.60669322870672" lon="9.47534842416644">
<ele>259.2</ele>
<time>2024-05-11T10:26:37Z</time>
</trkpt>
<trkpt lat="49.606697000563145" lon="9.47535035200417">
<ele>259.2</ele>
<time>2024-05-11T10:26:38Z</time>
</trkpt>
<trkpt lat="49.60670085623861" lon="9.475353201851249">
<ele>259.4</ele>
<time>2024-05-11T10:26:40Z</time>
</trkpt>
<trkpt lat="49.60670085623861" lon="9.475359907373786">
<ele>259.4</ele>
<time>2024-05-11T10:26:41Z</time>
</trkpt>
<trkpt lat="49.60670471191406" lon="9.475363679230211">
<ele>259.4</ele>
<time>2024-05-11T10:26:42Z</time>
</trkpt>
<trkpt lat="49.60670848377049" lon="9.475381784141064">
<ele>259.4</ele>
<time>2024-05-11T10:26:43Z</time>
</trkpt>
<trkpt lat="49.60672373883426" lon="9.475404666736722">
<ele>259.4</ele>
<time>2024-05-11T10:26:44Z</time>
</trkpt>
<trkpt lat="49.60674662142992" lon="9.47543140500784">
<ele>259.2</ele>
<time>2024-05-11T10:26:45Z</time>
</trkpt>
<trkpt lat="49.60677335970104" lon="9.475456215441229">
<ele>259.2</ele>
<time>2024-05-11T10:26:46Z</time>
</trkpt>
<trkpt lat="49.60680764168501" lon="9.475478092208505">
<ele>259.2</ele>
<time>2024-05-11T10:26:47Z</time>
</trkpt>
<trkpt lat="49.60684577934444" lon="9.475493431091309">
<ele>259.2</ele>
<time>2024-05-11T10:26:48Z</time>
</trkpt>
<trkpt lat="49.6068840008229" lon="9.475506758317351">
<ele>259.4</ele>
<time>2024-05-11T10:26:49Z</time>
</trkpt>
<trkpt lat="49.606933537870646" lon="9.475518157705665">
<ele>259.4</ele>
<time>2024-05-11T10:26:50Z</time>
</trkpt>
<trkpt lat="49.60698315873742" lon="9.475524863228202">
<ele>259.4</ele>
<time>2024-05-11T10:26:51Z</time>
</trkpt>
<trkpt lat="49.60702892392874" lon="9.475528635084627">
<ele>259.6</ele>
<time>2024-05-11T10:26:52Z</time>
</trkpt>
<trkpt lat="49.60707854479551" lon="9.475526791065931">
<ele>259.799</ele>
<time>2024-05-11T10:26:53Z</time>
</trkpt>
<trkpt lat="49.60712430998683" lon="9.475513380020857">
<ele>259.799</ele>
<time>2024-05-11T10:26:54Z</time>
</trkpt>
<trkpt lat="49.60716621950269" lon="9.475498124957085">
<ele>259.799</ele>
<time>2024-05-11T10:26:55Z</time>
</trkpt>
<trkpt lat="49.60720058530569" lon="9.475481947883964">
<ele>260</ele>
<time>2024-05-11T10:26:56Z</time>
</trkpt>
<trkpt lat="49.60723872296512" lon="9.475456215441229">
<ele>260</ele>
<time>2024-05-11T10:26:57Z</time>
</trkpt>
<trkpt lat="49.60727686062455" lon="9.47542947717011">
<ele>260</ele>
<time>2024-05-11T10:26:58Z</time>
</trkpt>
<trkpt lat="49.60731499828398" lon="9.475406594574451">
<ele>260</ele>
<time>2024-05-11T10:26:59Z</time>
</trkpt>
<trkpt lat="49.607349364086986" lon="9.475384633988142">
<ele>260</ele>
<time>2024-05-11T10:27:00Z</time>
</trkpt>
<trkpt lat="49.60737987421453" lon="9.475355129688978">
<ele>260</ele>
<time>2024-05-11T10:27:01Z</time>
</trkpt>
<trkpt lat="49.60740661248565" lon="9.47533031925559">
<ele>260</ele>
<time>2024-05-11T10:27:02Z</time>
</trkpt>
<trkpt lat="49.60743326693773" lon="9.475306430831552">
<ele>260</ele>
<time>2024-05-11T10:27:03Z</time>
</trkpt>
<trkpt lat="49.60746000520885" lon="9.475279776379466">
<ele>260</ele>
<time>2024-05-11T10:27:04Z</time>
</trkpt>
<trkpt lat="49.607486659660935" lon="9.475246416404843">
<ele>260.2</ele>
<time>2024-05-11T10:27:05Z</time>
</trkpt>
<trkpt lat="49.60751716978848" lon="9.475214900448918">
<ele>260.2</ele>
<time>2024-05-11T10:27:06Z</time>
</trkpt>
<trkpt lat="49.607547679916024" lon="9.475185312330725">
<ele>260.4</ele>
<time>2024-05-11T10:27:07Z</time>
</trkpt>
<trkpt lat="49.6075782738626" lon="9.4751519523561">
<ele>260.4</ele>
<time>2024-05-11T10:27:08Z</time>
</trkpt>
<trkpt lat="49.60761255584657" lon="9.47511482052505">
<ele>260.6</ele>
<time>2024-05-11T10:27:09Z</time>
</trkpt>
<trkpt lat="49.60764306597411" lon="9.47507282719016">
<ele>260.6</ele>
<time>2024-05-11T10:27:10Z</time>
</trkpt>
<trkpt lat="49.60767357610166" lon="9.47503368370235">
<ele>260.799</ele>
<time>2024-05-11T10:27:11Z</time>
</trkpt>
<trkpt lat="49.607707941904664" lon="9.474987918511031">
<ele>260.799</ele>
<time>2024-05-11T10:27:12Z</time>
</trkpt>
<trkpt lat="49.607746079564095" lon="9.474941231310368">
<ele>260.799</ele>
<time>2024-05-11T10:27:13Z</time>
</trkpt>
<trkpt lat="49.6077804453671" lon="9.474893538281322">
<ele>261</ele>
<time>2024-05-11T10:27:14Z</time>
</trkpt>
<trkpt lat="49.60781472735107" lon="9.474842995405195">
<ele>261</ele>
<time>2024-05-11T10:27:15Z</time>
</trkpt>
<trkpt lat="49.6078528650105" lon="9.474802007898688">
<ele>261</ele>
<time>2024-05-11T10:27:16Z</time>
</trkpt>
<trkpt lat="49.60789100266993" lon="9.474761942401528">
<ele>261.2</ele>
<time>2024-05-11T10:27:17Z</time>
</trkpt>
<trkpt lat="49.60793299600482" lon="9.474729504436256">
<ele>261.4</ele>
<time>2024-05-11T10:27:18Z</time>
</trkpt>
<trkpt lat="49.60797498933971" lon="9.47469991631806">
<ele>261.6</ele>
<time>2024-05-11T10:27:19Z</time>
</trkpt>
<trkpt lat="49.60801689885557" lon="9.4746770337224">
<ele>261.799</ele>
<time>2024-05-11T10:27:20Z</time>
</trkpt>
<trkpt lat="49.608055036515" lon="9.4746580068022">
<ele>262</ele>
<time>2024-05-11T10:27:21Z</time>
</trkpt>
<trkpt lat="49.608100885525346" lon="9.474651301279664">
<ele>262.2</ele>
<time>2024-05-11T10:27:22Z</time>
</trkpt>
<trkpt lat="49.6081427950412" lon="9.47465700097382">
<ele>262.4</ele>
<time>2024-05-11T10:27:23Z</time>
</trkpt>
<trkpt lat="49.608180932700634" lon="9.474673261865972">
<ele>262.8</ele>
<time>2024-05-11T10:27:24Z</time>
</trkpt>
<trkpt lat="49.60821144282818" lon="9.474683739244938">
<ele>263</ele>
<time>2024-05-11T10:27:25Z</time>
</trkpt>
<trkpt lat="49.608238181099296" lon="9.474713243544102">
<ele>263.2</ele>
<time>2024-05-11T10:27:26Z</time>
</trkpt>
<trkpt lat="49.60826491937041" lon="9.4747600145638">
<ele>263.6</ele>
<time>2024-05-11T10:27:27Z</time>
</trkpt>
<trkpt lat="49.60828780196607" lon="9.474809635430574">
<ele>263.8</ele>
<time>2024-05-11T10:27:28Z</time>
</trkpt>
<trkpt lat="49.60830305702984" lon="9.474869649857284">
<ele>264</ele>
<time>2024-05-11T10:27:29Z</time>
</trkpt>
<trkpt lat="49.608318312093616" lon="9.47493452578783">
<ele>264.4</ele>
<time>2024-05-11T10:27:30Z</time>
</trkpt>
<trkpt lat="49.60833356715739" lon="9.475000323727729">
<ele>264.6</ele>
<time>2024-05-11T10:27:31Z</time>
</trkpt>
<trkpt lat="49.60834882222116" lon="9.475067127496004">
<ele>265</ele>
<time>2024-05-11T10:27:32Z</time>
</trkpt>
<trkpt lat="49.60836784914136" lon="9.47513191960752">
<ele>265.2</ele>
<time>2024-05-11T10:27:33Z</time>
</trkpt>
<trkpt lat="49.60838310420513" lon="9.47519302368164">
<ele>265.4</ele>
<time>2024-05-11T10:27:34Z</time>
</trkpt>
<trkpt lat="49.60840221494436" lon="9.475254965946078">
<ele>265.8</ele>
<time>2024-05-11T10:27:35Z</time>
</trkpt>
<trkpt lat="49.608421325683594" lon="9.475315064191818">
<ele>266</ele>
<time>2024-05-11T10:27:36Z</time>
</trkpt>
<trkpt lat="49.608436580747366" lon="9.475375162437558">
<ele>266.2</ele>
<time>2024-05-11T10:27:37Z</time>
</trkpt>
<trkpt lat="49.60845183581114" lon="9.47542947717011">
<ele>266.4</ele>
<time>2024-05-11T10:27:38Z</time>
</trkpt>
<trkpt lat="49.60847086273134" lon="9.475476248189809">
<ele>266.6</ele>
<time>2024-05-11T10:27:39Z</time>
</trkpt>
<trkpt lat="49.60848611779511" lon="9.47552964091301">
<ele>266.8</ele>
<time>2024-05-11T10:27:40Z</time>
</trkpt>
<trkpt lat="49.60850522853434" lon="9.475584961473942">
<ele>267</ele>
<time>2024-05-11T10:27:41Z</time>
</trkpt>
<trkpt lat="49.60852425545454" lon="9.475641204044225">
<ele>267.2</ele>
<time>2024-05-11T10:27:42Z</time>
</trkpt>
<trkpt lat="49.60854336619377" lon="9.475698452442884">
<ele>267.4</ele>
<time>2024-05-11T10:27:43Z</time>
</trkpt>
<trkpt lat="49.60857002064586" lon="9.475751845166087">
<ele>267.4</ele>
<time>2024-05-11T10:27:44Z</time>
</trkpt>
<trkpt lat="49.60860438644886" lon="9.475801466032864">
<ele>267.6</ele>
<time>2024-05-11T10:27:45Z</time>
</trkpt>
<trkpt lat="49.608634896576405" lon="9.475850081071258">
<ele>267.6</ele>
<time>2024-05-11T10:27:46Z</time>
</trkpt>
<trkpt lat="49.60866926237941" lon="9.475894924253224">
<ele>267.6</ele>
<time>2024-05-11T10:27:47Z</time>
</trkpt>
<trkpt lat="49.60870740003884" lon="9.47594446130097">
<ele>267.6</ele>
<time>2024-05-11T10:27:48Z</time>
</trkpt>
<trkpt lat="49.60874168202281" lon="9.475991232320666">
<ele>267.6</ele>
<time>2024-05-11T10:27:49Z</time>
</trkpt>
<trkpt lat="49.60877990350127" lon="9.476033141836524">
<ele>267.8</ele>
<time>2024-05-11T10:27:50Z</time>
</trkpt>
<trkpt lat="49.60882181301713" lon="9.476071279495956">
<ele>267.8</ele>
<time>2024-05-11T10:27:51Z</time>
</trkpt>
<trkpt lat="49.60885995067656" lon="9.476116122677922">
<ele>267.8</ele>
<time>2024-05-11T10:27:52Z</time>
</trkpt>
<trkpt lat="49.60889808833599" lon="9.476158116012812">
<ele>267.8</ele>
<time>2024-05-11T10:27:53Z</time>
</trkpt>
<trkpt lat="49.60893630981445" lon="9.47620002552867">
<ele>267.8</ele>
<time>2024-05-11T10:27:54Z</time>
</trkpt>
<trkpt lat="49.608970591798425" lon="9.476242940872908">
<ele>267.8</ele>
<time>2024-05-11T10:27:55Z</time>
</trkpt>
<trkpt lat="49.60900495760143" lon="9.476287784054875">
<ele>267.8</ele>
<time>2024-05-11T10:27:56Z</time>
</trkpt>
<trkpt lat="49.60903546772897" lon="9.476334555074573">
<ele>267.8</ele>
<time>2024-05-11T10:27:57Z</time>
</trkpt>
<trkpt lat="49.609069749712944" lon="9.47637839242816">
<ele>268</ele>
<time>2024-05-11T10:27:58Z</time>
</trkpt>
<trkpt lat="49.60910025984049" lon="9.476425163447855">
<ele>267.8</ele>
<time>2024-05-11T10:27:59Z</time>
</trkpt>
<trkpt lat="49.609130853787065" lon="9.476472772657871">
<ele>267.8</ele>
<time>2024-05-11T10:28:00Z</time>
</trkpt>
<trkpt lat="49.60915750823915" lon="9.47651669383049">
<ele>267.8</ele>
<time>2024-05-11T10:28:01Z</time>
</trkpt>
<trkpt lat="49.60918039083481" lon="9.476561537012458">
<ele>267.8</ele>
<time>2024-05-11T10:28:02Z</time>
</trkpt>
<trkpt lat="49.60919950157404" lon="9.476612079888582">
<ele>267.8</ele>
<time>2024-05-11T10:28:03Z</time>
</trkpt>
<trkpt lat="49.60921475663781" lon="9.476663544774055">
<ele>267.6</ele>
<time>2024-05-11T10:28:04Z</time>
</trkpt>
<trkpt lat="49.60921852849424" lon="9.476716937497258">
<ele>267.6</ele>
<time>2024-05-11T10:28:05Z</time>
</trkpt>
<trkpt lat="49.60921475663781" lon="9.47677033022046">
<ele>267.6</ele>
<time>2024-05-11T10:28:06Z</time>
</trkpt>
<trkpt lat="49.60920327343047" lon="9.476818023249509">
<ele>267.6</ele>
<time>2024-05-11T10:28:07Z</time>
</trkpt>
<trkpt lat="49.60918424651027" lon="9.476858088746669">
<ele>267.6</ele>
<time>2024-05-11T10:28:08Z</time>
</trkpt>
<trkpt lat="49.60916513577104" lon="9.476889604702592">
<ele>267.4</ele>
<time>2024-05-11T10:28:09Z</time>
</trkpt>
<trkpt lat="49.60914610885084" lon="9.476908631622791">
<ele>267.4</ele>
<time>2024-05-11T10:28:10Z</time>
</trkpt>
<trkpt lat="49.60914225317538" lon="9.4769134093076">
<ele>267.4</ele>
<time>2024-05-11T10:28:11Z</time>
</trkpt>
<trkpt lat="49.60913848131895" lon="9.4769134093076">
<ele>267.2</ele>
<time>2024-05-11T10:28:12Z</time>
</trkpt>
<trkpt lat="49.60913848131895" lon="9.47691148146987">
<ele>267.2</ele>
<time>2024-05-11T10:28:14Z</time>
</trkpt>
<trkpt lat="49.60914225317538" lon="9.476909637451172">
<ele>267</ele>
<time>2024-05-11T10:28:15Z</time>
</trkpt>
<trkpt lat="49.60914225317538" lon="9.476908631622791">
<ele>267</ele>
<time>2024-05-11T10:28:18Z</time>
</trkpt>
<trkpt lat="49.60914225317538" lon="9.476904859766364">
<ele>267</ele>
<time>2024-05-11T10:28:19Z</time>
</trkpt>
<trkpt lat="49.60914225317538" lon="9.476902931928636">
<ele>266.8</ele>
<time>2024-05-11T10:28:23Z</time>
</trkpt>
<trkpt lat="49.60913848131895" lon="9.476902931928636">
<ele>266.6</ele>
<time>2024-05-11T10:28:24Z</time>
</trkpt>
<trkpt lat="49.60913848131895" lon="9.476901926100254">
<ele>266.2</ele>
<time>2024-05-11T10:28:27Z</time>
</trkpt>
<trkpt lat="49.60913848131895" lon="9.476900082081556">
<ele>265.8</ele>
<time>2024-05-11T10:28:35Z</time>
</trkpt>
<trkpt lat="49.60913848131895" lon="9.476901926100254">
<ele>265.6</ele>
<time>2024-05-11T10:28:43Z</time>
</trkpt>
<trkpt lat="49.60913848131895" lon="9.476900082081556">
<ele>265.4</ele>
<time>2024-05-11T10:28:46Z</time>
</trkpt>
<trkpt lat="49.60913848131895" lon="9.476898154243829">
<ele>265.2</ele>
<time>2024-05-11T10:28:48Z</time>
</trkpt>
<trkpt lat="49.60913848131895" lon="9.476896226406096">
<ele>265</ele>
<time>2024-05-11T10:28:55Z</time>
</trkpt>
<trkpt lat="49.60913848131895" lon="9.476895304396749">
<ele>264.8</ele>
<time>2024-05-11T10:28:58Z</time>
</trkpt>
<trkpt lat="49.60913848131895" lon="9.47689337655902">
<ele>264.6</ele>
<time>2024-05-11T10:29:01Z</time>
</trkpt>
<trkpt lat="49.60913848131895" lon="9.47689144872129">
<ele>264.4</ele>
<time>2024-05-11T10:29:04Z</time>
</trkpt>
<trkpt lat="49.609130853787065" lon="9.476898154243829">
<ele>264.4</ele>
<time>2024-05-11T10:29:05Z</time>
</trkpt>
<trkpt lat="49.60911559872329" lon="9.476915337145329">
<ele>264.2</ele>
<time>2024-05-11T10:29:06Z</time>
</trkpt>
<trkpt lat="49.60909648798406" lon="9.476940147578716">
<ele>264.2</ele>
<time>2024-05-11T10:29:07Z</time>
</trkpt>
<trkpt lat="49.6090736053884" lon="9.476968729868531">
<ele>264.2</ele>
<time>2024-05-11T10:29:09Z</time>
</trkpt>
<trkpt lat="49.60900495760143" lon="9.477020194754004">
<ele>264</ele>
<time>2024-05-11T10:29:10Z</time>
</trkpt>
<trkpt lat="49.608966819942" lon="9.477043077349665">
<ele>264</ele>
<time>2024-05-11T10:29:11Z</time>
</trkpt>
<trkpt lat="49.60892482660711" lon="9.477066965773702">
<ele>264</ele>
<time>2024-05-11T10:29:12Z</time>
</trkpt>
<trkpt lat="49.60888283327222" lon="9.47708792053163">
<ele>264</ele>
<time>2024-05-11T10:29:13Z</time>
</trkpt>
<trkpt lat="49.6088370680809" lon="9.47710988111794">
<ele>264</ele>
<time>2024-05-11T10:29:14Z</time>
</trkpt>
<trkpt lat="49.608791302889585" lon="9.477133685722947">
<ele>264</ele>
<time>2024-05-11T10:29:15Z</time>
</trkpt>
<trkpt lat="49.60874553769827" lon="9.477156568318604">
<ele>264</ele>
<time>2024-05-11T10:29:16Z</time>
</trkpt>
<trkpt lat="49.60869977250695" lon="9.477174757048488">
<ele>264</ele>
<time>2024-05-11T10:29:17Z</time>
</trkpt>
<trkpt lat="49.60865015164018" lon="9.477194705978036">
<ele>264</ele>
<time>2024-05-11T10:29:18Z</time>
</trkpt>
<trkpt lat="49.60860438644886" lon="9.477211888879538">
<ele>264.2</ele>
<time>2024-05-11T10:29:19Z</time>
</trkpt>
<trkpt lat="49.608554765582085" lon="9.47722814977169">
<ele>264.2</ele>
<time>2024-05-11T10:29:20Z</time>
</trkpt>
<trkpt lat="49.60850900039077" lon="9.47724524885416">
<ele>264.2</ele>
<time>2024-05-11T10:29:21Z</time>
</trkpt>
<trkpt lat="49.60846709087491" lon="9.477263437584044">
<ele>264.2</ele>
<time>2024-05-11T10:29:22Z</time>
</trkpt>
<trkpt lat="49.60842509754002" lon="9.477281542494891">
<ele>264.2</ele>
<time>2024-05-11T10:29:23Z</time>
</trkpt>
<trkpt lat="49.60839458741248" lon="9.477296797558663">
<ele>264.2</ele>
<time>2024-05-11T10:29:24Z</time>
</trkpt>
<trkpt lat="49.60836784914136" lon="9.47730819694698">
<ele>264.2</ele>
<time>2024-05-11T10:29:25Z</time>
</trkpt>
<trkpt lat="49.608341194689274" lon="9.477316830307243">
<ele>264.2</ele>
<time>2024-05-11T10:29:26Z</time>
</trkpt>
<trkpt lat="49.608318312093616" lon="9.47732345201075">
<ele>264.2</ele>
<time>2024-05-11T10:29:27Z</time>
</trkpt>
<trkpt lat="49.608299201354384" lon="9.47732822969556">
<ele>264.2</ele>
<time>2024-05-11T10:29:28Z</time>
</trkpt>
<trkpt lat="49.60828394629061" lon="9.477336863055823">
<ele>264</ele>
<time>2024-05-11T10:29:29Z</time>
</trkpt>
<trkpt lat="49.608280174434185" lon="9.477338790893556">
<ele>264</ele>
<time>2024-05-11T10:29:30Z</time>
</trkpt>
<trkpt lat="49.608280174434185" lon="9.477336863055823">
<ele>263.8</ele>
<time>2024-05-11T10:29:31Z</time>
</trkpt>
<trkpt lat="49.608280174434185" lon="9.477334935218096">
<ele>263.6</ele>
<time>2024-05-11T10:29:34Z</time>
</trkpt>
<trkpt lat="49.608280174434185" lon="9.477333007380366">
<ele>263.6</ele>
<time>2024-05-11T10:29:35Z</time>
</trkpt>
<trkpt lat="49.608280174434185" lon="9.477332085371016">
<ele>263.4</ele>
<time>2024-05-11T10:29:36Z</time>
</trkpt>
<trkpt lat="49.60828394629061" lon="9.477330157533288">
<ele>263.4</ele>
<time>2024-05-11T10:29:37Z</time>
</trkpt>
<trkpt lat="49.60828394629061" lon="9.477332085371016">
<ele>263.2</ele>
<time>2024-05-11T10:29:41Z</time>
</trkpt>
<trkpt lat="49.60828394629061" lon="9.477330157533288">
<ele>263</ele>
<time>2024-05-11T10:29:42Z</time>
</trkpt>
<trkpt lat="49.60828780196607" lon="9.477330157533288">
<ele>262.8</ele>
<time>2024-05-11T10:29:46Z</time>
</trkpt>
<trkpt lat="49.60828394629061" lon="9.47732822969556">
<ele>262.6</ele>
<time>2024-05-11T10:29:52Z</time>
</trkpt>
<trkpt lat="49.60828394629061" lon="9.477333007380366">
<ele>262.2</ele>
<time>2024-05-11T10:29:53Z</time>
</trkpt>
<trkpt lat="49.60828394629061" lon="9.477330157533288">
<ele>262</ele>
<time>2024-05-11T10:29:56Z</time>
</trkpt>
<trkpt lat="49.60828394629061" lon="9.477332085371016">
<ele>261.6</ele>
<time>2024-05-11T10:29:57Z</time>
</trkpt>
<trkpt lat="49.60828394629061" lon="9.477333007380366">
<ele>261.4</ele>
<time>2024-05-11T10:29:59Z</time>
</trkpt>
<trkpt lat="49.60828394629061" lon="9.477336863055823">
<ele>261.2</ele>
<time>2024-05-11T10:30:00Z</time>
</trkpt>
<trkpt lat="49.608299201354384" lon="9.477333007380366">
<ele>261</ele>
<time>2024-05-11T10:30:01Z</time>
</trkpt>
<trkpt lat="49.608318312093616" lon="9.477333007380366">
<ele>260.799</ele>
<time>2024-05-11T10:30:02Z</time>
</trkpt>
<trkpt lat="49.608337339013815" lon="9.477332085371016">
<ele>260.799</ele>
<time>2024-05-11T10:30:03Z</time>
</trkpt>
<trkpt lat="49.60836022160947" lon="9.47732638567686">
<ele>260.799</ele>
<time>2024-05-11T10:30:04Z</time>
</trkpt>
<trkpt lat="49.60839073173702" lon="9.477318758144976">
<ele>260.799</ele>
<time>2024-05-11T10:30:05Z</time>
</trkpt>
<trkpt lat="49.60842509754002" lon="9.477312052622436">
<ele>260.799</ele>
<time>2024-05-11T10:30:06Z</time>
</trkpt>
<trkpt lat="49.608455607667565" lon="9.477303503081204">
<ele>260.799</ele>
<time>2024-05-11T10:30:07Z</time>
</trkpt>
<trkpt lat="49.60848997347057" lon="9.477296797558663">
<ele>260.799</ele>
<time>2024-05-11T10:30:08Z</time>
</trkpt>
<trkpt lat="49.60852425545454" lon="9.477292019873856">
<ele>260.799</ele>
<time>2024-05-11T10:30:09Z</time>
</trkpt>
<trkpt lat="49.608558621257544" lon="9.477281542494891">
<ele>260.799</ele>
<time>2024-05-11T10:30:10Z</time>
</trkpt>
<trkpt lat="49.60859298706055" lon="9.477270059287548">
<ele>261</ele>
<time>2024-05-11T10:30:11Z</time>
</trkpt>
<trkpt lat="49.60862726904452" lon="9.477254804223776">
<ele>261</ele>
<time>2024-05-11T10:30:12Z</time>
</trkpt>
<trkpt lat="49.60866163484752" lon="9.477239549160004">
<ele>261.2</ele>
<time>2024-05-11T10:30:13Z</time>
</trkpt>
<trkpt lat="49.608692144975066" lon="9.47722622193396">
<ele>261.2</ele>
<time>2024-05-11T10:30:14Z</time>
</trkpt>
<trkpt lat="49.60872642695904" lon="9.477212894707918">
<ele>261.4</ele>
<time>2024-05-11T10:30:15Z</time>
</trkpt>
<trkpt lat="49.6087646484375" lon="9.477198561653497">
<ele>261.4</ele>
<time>2024-05-11T10:30:16Z</time>
</trkpt>
<trkpt lat="49.60879893042147" lon="9.477185234427452">
<ele>261.6</ele>
<time>2024-05-11T10:30:17Z</time>
</trkpt>
<trkpt lat="49.608833296224475" lon="9.47716997936368">
<ele>261.799</ele>
<time>2024-05-11T10:30:19Z</time>
</trkpt>
<trkpt lat="49.60889808833599" lon="9.477141313254831">
<ele>262</ele>
<time>2024-05-11T10:30:20Z</time>
</trkpt>
<trkpt lat="49.608932454138994" lon="9.47712798602879">
<ele>262.2</ele>
<time>2024-05-11T10:30:21Z</time>
</trkpt>
<trkpt lat="49.608966819942" lon="9.477116502821444">
<ele>262.4</ele>
<time>2024-05-11T10:30:22Z</time>
</trkpt>
<trkpt lat="49.60899733006954" lon="9.477100325748324">
<ele>262.6</ele>
<time>2024-05-11T10:30:23Z</time>
</trkpt>
<trkpt lat="49.609027840197086" lon="9.477078365162017">
<ele>262.8</ele>
<time>2024-05-11T10:30:24Z</time>
</trkpt>
<trkpt lat="49.60905835032463" lon="9.477056488394735">
<ele>263</ele>
<time>2024-05-11T10:30:25Z</time>
</trkpt>
<trkpt lat="49.60908500477672" lon="9.477036455646155">
<ele>263.4</ele>
<time>2024-05-11T10:30:26Z</time>
</trkpt>
<trkpt lat="49.60911559872329" lon="9.477014495059848">
<ele>263.6</ele>
<time>2024-05-11T10:30:27Z</time>
</trkpt>
<trkpt lat="49.60914225317538" lon="9.476995468139648">
<ele>263.6</ele>
<time>2024-05-11T10:30:28Z</time>
</trkpt>
<trkpt lat="49.609168991446495" lon="9.476978285238149">
<ele>263.8</ele>
<time>2024-05-11T10:30:29Z</time>
</trkpt>
<trkpt lat="49.60919187404215" lon="9.476963030174376">
<ele>264</ele>
<time>2024-05-11T10:30:30Z</time>
</trkpt>
<trkpt lat="49.60921475663781" lon="9.476946769282222">
<ele>264.2</ele>
<time>2024-05-11T10:30:31Z</time>
</trkpt>
<trkpt lat="49.60923763923347" lon="9.476928664371371">
<ele>264.4</ele>
<time>2024-05-11T10:30:32Z</time>
</trkpt>
<trkpt lat="49.60925666615367" lon="9.47691148146987">
<ele>264.6</ele>
<time>2024-05-11T10:30:33Z</time>
</trkpt>
<trkpt lat="49.6092757768929" lon="9.476895304396749">
<ele>264.8</ele>
<time>2024-05-11T10:30:34Z</time>
</trkpt>
<trkpt lat="49.60929488763213" lon="9.476884827017784">
<ele>265</ele>
<time>2024-05-11T10:30:35Z</time>
</trkpt>
<trkpt lat="49.60931777022779" lon="9.476884827017784">
<ele>265.2</ele>
<time>2024-05-11T10:30:36Z</time>
</trkpt>
<trkpt lat="49.6093291696161" lon="9.476882899180056">
<ele>265.2</ele>
<time>2024-05-11T10:30:37Z</time>
</trkpt>
<trkpt lat="49.60933302529156" lon="9.476882899180056">
<ele>265.4</ele>
<time>2024-05-11T10:30:38Z</time>
</trkpt>
<trkpt lat="49.60933302529156" lon="9.476881977170706">
<ele>265.4</ele>
<time>2024-05-11T10:30:39Z</time>
</trkpt>
<trkpt lat="49.60933679714799" lon="9.476881977170706">
<ele>265.4</ele>
<time>2024-05-11T10:30:40Z</time>
</trkpt>
<trkpt lat="49.60934065282345" lon="9.476881977170706">
<ele>265.6</ele>
<time>2024-05-11T10:30:41Z</time>
</trkpt>
<trkpt lat="49.609348280355334" lon="9.476880049332976">
<ele>265.6</ele>
<time>2024-05-11T10:30:42Z</time>
</trkpt>
<trkpt lat="49.60935590788722" lon="9.476881977170706">
<ele>265.6</ele>
<time>2024-05-11T10:30:43Z</time>
</trkpt>
<trkpt lat="49.60937879048288" lon="9.476896226406096">
<ele>265.6</ele>
<time>2024-05-11T10:30:44Z</time>
</trkpt>
<trkpt lat="49.60940167307854" lon="9.476916259154676">
<ele>265.8</ele>
<time>2024-05-11T10:30:45Z</time>
</trkpt>
<trkpt lat="49.60942832753062" lon="9.476944841444492">
<ele>265.8</ele>
<time>2024-05-11T10:30:46Z</time>
</trkpt>
<trkpt lat="49.6094589214772" lon="9.476976357400416">
<ele>266</ele>
<time>2024-05-11T10:30:47Z</time>
</trkpt>
<trkpt lat="49.60948180407286" lon="9.477023044601085">
<ele>266</ele>
<time>2024-05-11T10:30:48Z</time>
</trkpt>
<trkpt lat="49.60950845852494" lon="9.477065037935972">
<ele>266</ele>
<time>2024-05-11T10:30:49Z</time>
</trkpt>
<trkpt lat="49.60953519679606" lon="9.477093620225787">
<ele>266</ele>
<time>2024-05-11T10:30:50Z</time>
</trkpt>
<trkpt lat="49.60956947878003" lon="9.477101247757671">
<ele>266</ele>
<time>2024-05-11T10:30:51Z</time>
</trkpt>
<trkpt lat="49.60959621705115" lon="9.477100325748324">
<ele>265.8</ele>
<time>2024-05-11T10:30:52Z</time>
</trkpt>
<trkpt lat="49.60962672717869" lon="9.47709177620709">
<ele>265.8</ele>
<time>2024-05-11T10:30:53Z</time>
</trkpt>
<trkpt lat="49.609661092981696" lon="9.477081298828123">
<ele>265.8</ele>
<time>2024-05-11T10:30:54Z</time>
</trkpt>
<trkpt lat="49.60969160310924" lon="9.477073587477207">
<ele>265.8</ele>
<time>2024-05-11T10:30:55Z</time>
</trkpt>
<trkpt lat="49.609718257561326" lon="9.477065037935972">
<ele>265.8</ele>
<time>2024-05-11T10:30:56Z</time>
</trkpt>
<trkpt lat="49.60975262336433" lon="9.477058332413437">
<ele>265.8</ele>
<time>2024-05-11T10:30:57Z</time>
</trkpt>
<trkpt lat="49.609783133491874" lon="9.47705363854766">
<ele>265.8</ele>
<time>2024-05-11T10:30:58Z</time>
</trkpt>
<trkpt lat="49.60980987176299" lon="9.477045005187392">
<ele>266</ele>
<time>2024-05-11T10:30:59Z</time>
</trkpt>
<trkpt lat="49.60984415374696" lon="9.477040227502584">
<ele>266</ele>
<time>2024-05-11T10:31:00Z</time>
</trkpt>
<trkpt lat="49.609878519549966" lon="9.477040227502584">
<ele>266.2</ele>
<time>2024-05-11T10:31:01Z</time>
</trkpt>
<trkpt lat="49.60991665720939" lon="9.477040227502584">
<ele>266.4</ele>
<time>2024-05-11T10:31:02Z</time>
</trkpt>
<trkpt lat="49.60994716733694" lon="9.477038383483888">
<ele>266.6</ele>
<time>2024-05-11T10:31:03Z</time>
</trkpt>
<trkpt lat="49.609981533139944" lon="9.477036455646155">
<ele>266.8</ele>
<time>2024-05-11T10:31:04Z</time>
</trkpt>
<trkpt lat="49.61001204326749" lon="9.477036455646155">
<ele>267</ele>
<time>2024-05-11T10:31:05Z</time>
</trkpt>
<trkpt lat="49.61005018092692" lon="9.477038383483888">
<ele>267.2</ele>
<time>2024-05-11T10:31:06Z</time>
</trkpt>
<trkpt lat="49.61008831858635" lon="9.477041233330963">
<ele>267.4</ele>
<time>2024-05-11T10:31:07Z</time>
</trkpt>
<trkpt lat="49.61012645624578" lon="9.477043077349665">
<ele>267.6</ele>
<time>2024-05-11T10:31:08Z</time>
</trkpt>
<trkpt lat="49.61016844958067" lon="9.477046933025122">
<ele>267.8</ele>
<time>2024-05-11T10:31:09Z</time>
</trkpt>
<trkpt lat="49.6102065872401" lon="9.47705171070993">
<ele>268</ele>
<time>2024-05-11T10:31:10Z</time>
</trkpt>
<trkpt lat="49.61024472489953" lon="9.477056488394735">
<ele>268.2</ele>
<time>2024-05-11T10:31:11Z</time>
</trkpt>
<trkpt lat="49.61028286255896" lon="9.477061266079543">
<ele>268.2</ele>
<time>2024-05-11T10:31:12Z</time>
</trkpt>
<trkpt lat="49.61032485589385" lon="9.47706788778305">
<ele>268.6</ele>
<time>2024-05-11T10:31:13Z</time>
</trkpt>
<trkpt lat="49.61036299355328" lon="9.47707174345851">
<ele>268.8</ele>
<time>2024-05-11T10:31:14Z</time>
</trkpt>
<trkpt lat="49.61040113121271" lon="9.477074593305588">
<ele>268.8</ele>
<time>2024-05-11T10:31:15Z</time>
</trkpt>
<trkpt lat="49.61043926887214" lon="9.477076521143315">
<ele>269</ele>
<time>2024-05-11T10:31:16Z</time>
</trkpt>
<trkpt lat="49.61047740653157" lon="9.477080292999744">
<ele>269</ele>
<time>2024-05-11T10:31:17Z</time>
</trkpt>
<trkpt lat="49.610515544191" lon="9.477080292999744">
<ele>269.2</ele>
<time>2024-05-11T10:31:18Z</time>
</trkpt>
<trkpt lat="49.61055368185043" lon="9.477085070684552">
<ele>269.4</ele>
<time>2024-05-11T10:31:19Z</time>
</trkpt>
<trkpt lat="49.610591819509864" lon="9.47709177620709">
<ele>269.6</ele>
<time>2024-05-11T10:31:20Z</time>
</trkpt>
<trkpt lat="49.610629957169294" lon="9.477096553891895">
<ele>269.8</ele>
<time>2024-05-11T10:31:21Z</time>
</trkpt>
<trkpt lat="49.61066055111587" lon="9.477101247757671">
<ele>270</ele>
<time>2024-05-11T10:31:22Z</time>
</trkpt>
<trkpt lat="49.61069483309984" lon="9.477103175595404">
<ele>270.2</ele>
<time>2024-05-11T10:31:23Z</time>
</trkpt>
<trkpt lat="49.61072534322739" lon="9.477105103433132">
<ele>270.6</ele>
<time>2024-05-11T10:31:24Z</time>
</trkpt>
<trkpt lat="49.61075585335493" lon="9.477105103433132">
<ele>270.8</ele>
<time>2024-05-11T10:31:25Z</time>
</trkpt>
<trkpt lat="49.610786363482475" lon="9.477105103433132">
<ele>271</ele>
<time>2024-05-11T10:31:26Z</time>
</trkpt>
<trkpt lat="49.61081687361002" lon="9.477103175595404">
<ele>271.2</ele>
<time>2024-05-11T10:31:27Z</time>
</trkpt>
<trkpt lat="49.61084746755659" lon="9.477105103433132">
<ele>271.4</ele>
<time>2024-05-11T10:31:28Z</time>
</trkpt>
<trkpt lat="49.61088174954057" lon="9.477107031270862">
<ele>271.4</ele>
<time>2024-05-11T10:31:29Z</time>
</trkpt>
<trkpt lat="49.610908487811685" lon="9.477107031270862">
<ele>271.6</ele>
<time>2024-05-11T10:31:30Z</time>
</trkpt>
<trkpt lat="49.61093514226377" lon="9.477107031270862">
<ele>271.8</ele>
<time>2024-05-11T10:31:31Z</time>
</trkpt>
<trkpt lat="49.61096188053489" lon="9.477101247757671">
<ele>271.8</ele>
<time>2024-05-11T10:31:32Z</time>
</trkpt>
<trkpt lat="49.610984763130546" lon="9.477100325748324">
<ele>272</ele>
<time>2024-05-11T10:31:33Z</time>
</trkpt>
<trkpt lat="49.61101150140166" lon="9.477096553891895">
<ele>272</ele>
<time>2024-05-11T10:31:34Z</time>
</trkpt>
<trkpt lat="49.61103815585375" lon="9.477098397910597">
<ele>272.2</ele>
<time>2024-05-11T10:31:35Z</time>
</trkpt>
<trkpt lat="49.61106103844941" lon="9.477107031270862">
<ele>272.4</ele>
<time>2024-05-11T10:31:36Z</time>
</trkpt>
<trkpt lat="49.611083921045065" lon="9.477114658802748">
<ele>272.4</ele>
<time>2024-05-11T10:31:37Z</time>
</trkpt>
<trkpt lat="49.61110680364072" lon="9.477123208343984">
<ele>272.6</ele>
<time>2024-05-11T10:31:38Z</time>
</trkpt>
<trkpt lat="49.611122058704495" lon="9.477127064019442">
<ele>272.8</ele>
<time>2024-05-11T10:31:39Z</time>
</trkpt>
<trkpt lat="49.61114116944373" lon="9.47712798602879">
<ele>272.8</ele>
<time>2024-05-11T10:31:40Z</time>
</trkpt>
<trkpt lat="49.611164052039385" lon="9.47712991386652">
<ele>272.8</ele>
<time>2024-05-11T10:31:41Z</time>
</trkpt>
<trkpt lat="49.611183162778616" lon="9.477134691551328">
<ele>273</ele>
<time>2024-05-11T10:31:42Z</time>
</trkpt>
<trkpt lat="49.611206045374274" lon="9.477138463407757">
<ele>273</ele>
<time>2024-05-11T10:31:43Z</time>
</trkpt>
<trkpt lat="49.61123269982636" lon="9.477138463407757">
<ele>273</ele>
<time>2024-05-11T10:31:44Z</time>
</trkpt>
<trkpt lat="49.61125943809748" lon="9.477138463407757">
<ele>273</ele>
<time>2024-05-11T10:31:45Z</time>
</trkpt>
<trkpt lat="49.611282320693135" lon="9.477138463407757">
<ele>273.2</ele>
<time>2024-05-11T10:31:46Z</time>
</trkpt>
<trkpt lat="49.611305203288794" lon="9.477136535570024">
<ele>273.2</ele>
<time>2024-05-11T10:31:47Z</time>
</trkpt>
<trkpt lat="49.61133571341634" lon="9.477136535570024">
<ele>273.4</ele>
<time>2024-05-11T10:31:48Z</time>
</trkpt>
<trkpt lat="49.61136622354388" lon="9.47713184170425">
<ele>273.4</ele>
<time>2024-05-11T10:31:49Z</time>
</trkpt>
<trkpt lat="49.61139673367143" lon="9.47712991386652">
<ele>273.4</ele>
<time>2024-05-11T10:31:50Z</time>
</trkpt>
<trkpt lat="49.61142724379897" lon="9.47712798602879">
<ele>273.4</ele>
<time>2024-05-11T10:31:51Z</time>
</trkpt>
<trkpt lat="49.611461609601974" lon="9.477125136181712">
<ele>273.6</ele>
<time>2024-05-11T10:31:52Z</time>
</trkpt>
<trkpt lat="49.61148826405406" lon="9.477123208343984">
<ele>273.6</ele>
<time>2024-05-11T10:31:53Z</time>
</trkpt>
<trkpt lat="49.61152262985706" lon="9.477120358496904">
<ele>273.8</ele>
<time>2024-05-11T10:31:54Z</time>
</trkpt>
<trkpt lat="49.61154936812818" lon="9.477116502821444">
<ele>273.8</ele>
<time>2024-05-11T10:31:55Z</time>
</trkpt>
<trkpt lat="49.611579878255725" lon="9.47711180895567">
<ele>274</ele>
<time>2024-05-11T10:31:56Z</time>
</trkpt>
<trkpt lat="49.61160653270781" lon="9.47710795328021">
<ele>274</ele>
<time>2024-05-11T10:31:57Z</time>
</trkpt>
<trkpt lat="49.61163327097893" lon="9.477103175595404">
<ele>274.2</ele>
<time>2024-05-11T10:31:58Z</time>
</trkpt>
<trkpt lat="49.61165992543101" lon="9.477100325748324">
<ele>274.2</ele>
<time>2024-05-11T10:31:59Z</time>
</trkpt>
<trkpt lat="49.61168666370213" lon="9.477096553891895">
<ele>274.2</ele>
<time>2024-05-11T10:32:00Z</time>
</trkpt>
<trkpt lat="49.61171340197325" lon="9.47709177620709">
<ele>274.4</ele>
<time>2024-05-11T10:32:01Z</time>
</trkpt>
<trkpt lat="49.61174391210079" lon="9.477085070684552">
<ele>274.6</ele>
<time>2024-05-11T10:32:02Z</time>
</trkpt>
<trkpt lat="49.61177056655288" lon="9.477074593305588">
<ele>274.6</ele>
<time>2024-05-11T10:32:03Z</time>
</trkpt>
<trkpt lat="49.61180493235588" lon="9.477058332413437">
<ele>274.8</ele>
<time>2024-05-11T10:32:04Z</time>
</trkpt>
<trkpt lat="49.611831586807966" lon="9.477038383483888">
<ele>275</ele>
<time>2024-05-11T10:32:05Z</time>
</trkpt>
<trkpt lat="49.61186218075454" lon="9.477023044601085">
<ele>275</ele>
<time>2024-05-11T10:32:06Z</time>
</trkpt>
<trkpt lat="49.61188883520663" lon="9.47701164521277">
<ele>275.2</ele>
<time>2024-05-11T10:32:07Z</time>
</trkpt>
<trkpt lat="49.611911717802286" lon="9.476998317986729">
<ele>275.2</ele>
<time>2024-05-11T10:32:08Z</time>
</trkpt>
<trkpt lat="49.6119384560734" lon="9.476982057094574">
<ele>275.4</ele>
<time>2024-05-11T10:32:09Z</time>
</trkpt>
<trkpt lat="49.61196133866906" lon="9.476963030174376">
<ele>275.4</ele>
<time>2024-05-11T10:32:11Z</time>
</trkpt>
<trkpt lat="49.61200324818492" lon="9.476926736533642">
<ele>275.8</ele>
<time>2024-05-11T10:32:12Z</time>
</trkpt>
<trkpt lat="49.61202998645604" lon="9.4769134093076">
<ele>275.8</ele>
<time>2024-05-11T10:32:13Z</time>
</trkpt>
<trkpt lat="49.612056724727154" lon="9.476888598874211">
<ele>276</ele>
<time>2024-05-11T10:32:14Z</time>
</trkpt>
<trkpt lat="49.61207960732281" lon="9.476860016584396">
<ele>276.2</ele>
<time>2024-05-11T10:32:15Z</time>
</trkpt>
<trkpt lat="49.61211011745036" lon="9.476837133988738">
<ele>276.4</ele>
<time>2024-05-11T10:32:16Z</time>
</trkpt>
<trkpt lat="49.61213677190244" lon="9.476808467879891">
<ele>276.6</ele>
<time>2024-05-11T10:32:17Z</time>
</trkpt>
<trkpt lat="49.61216351017356" lon="9.476775107905269">
<ele>276.8</ele>
<time>2024-05-11T10:32:18Z</time>
</trkpt>
<trkpt lat="49.612190164625645" lon="9.47675029747188">
<ele>276.8</ele>
<time>2024-05-11T10:32:19Z</time>
</trkpt>
<trkpt lat="49.61222075857222" lon="9.476721715182066">
<ele>277</ele>
<time>2024-05-11T10:32:20Z</time>
</trkpt>
<trkpt lat="49.612251268699765" lon="9.476690283045173">
<ele>277.2</ele>
<time>2024-05-11T10:32:21Z</time>
</trkpt>
<trkpt lat="49.61228177882731" lon="9.476653067395093">
<ele>277.2</ele>
<time>2024-05-11T10:32:22Z</time>
</trkpt>
<trkpt lat="49.612308433279395" lon="9.47661685757339">
<ele>277.4</ele>
<time>2024-05-11T10:32:23Z</time>
</trkpt>
<trkpt lat="49.61233131587505" lon="9.476578636094928">
<ele>277.6</ele>
<time>2024-05-11T10:32:24Z</time>
</trkpt>
<trkpt lat="49.61235805414617" lon="9.476539576426148">
<ele>277.6</ele>
<time>2024-05-11T10:32:25Z</time>
</trkpt>
<trkpt lat="49.6123771648854" lon="9.47649858891964">
<ele>277.8</ele>
<time>2024-05-11T10:32:26Z</time>
</trkpt>
<trkpt lat="49.61240004748106" lon="9.476460451260207">
<ele>278</ele>
<time>2024-05-11T10:32:27Z</time>
</trkpt>
<trkpt lat="49.61242293007672" lon="9.47641460224986">
<ele>278.2</ele>
<time>2024-05-11T10:32:28Z</time>
</trkpt>
<trkpt lat="49.6124495845288" lon="9.476369842886925">
<ele>278.4</ele>
<time>2024-05-11T10:32:29Z</time>
</trkpt>
<trkpt lat="49.61247246712446" lon="9.476331705227494">
<ele>278.6</ele>
<time>2024-05-11T10:32:30Z</time>
</trkpt>
<trkpt lat="49.61249920539558" lon="9.476289711892605">
<ele>278.8</ele>
<time>2024-05-11T10:32:31Z</time>
</trkpt>
<trkpt lat="49.61252208799124" lon="9.476249646395445">
<ele>279</ele>
<time>2024-05-11T10:32:32Z</time>
</trkpt>
<trkpt lat="49.612544970586896" lon="9.476211508736014">
<ele>279.4</ele>
<time>2024-05-11T10:32:33Z</time>
</trkpt>
<trkpt lat="49.61257170885801" lon="9.476173371076584">
<ele>279.6</ele>
<time>2024-05-11T10:32:34Z</time>
</trkpt>
<trkpt lat="49.61259073577821" lon="9.476133305579424">
<ele>279.8</ele>
<time>2024-05-11T10:32:35Z</time>
</trkpt>
<trkpt lat="49.61261361837387" lon="9.476097095757725">
<ele>280</ele>
<time>2024-05-11T10:32:36Z</time>
</trkpt>
<trkpt lat="49.61263650096953" lon="9.476064657792447">
<ele>280.2</ele>
<time>2024-05-11T10:32:37Z</time>
</trkpt>
<trkpt lat="49.612663239240646" lon="9.476033141836524">
<ele>280.4</ele>
<time>2024-05-11T10:32:38Z</time>
</trkpt>
<trkpt lat="49.61268989369273" lon="9.4759997818619">
<ele>280.6</ele>
<time>2024-05-11T10:32:39Z</time>
</trkpt>
<trkpt lat="49.61272048763931" lon="9.475973127409816">
<ele>281</ele>
<time>2024-05-11T10:32:40Z</time>
</trkpt>
<trkpt lat="49.61275099776685" lon="9.47594446130097">
<ele>281.2</ele>
<time>2024-05-11T10:32:41Z</time>
</trkpt>
<trkpt lat="49.6127815078944" lon="9.47592157870531">
<ele>281.4</ele>
<time>2024-05-11T10:32:42Z</time>
</trkpt>
<trkpt lat="49.61281201802194" lon="9.47590154595673">
<ele>281.6</ele>
<time>2024-05-11T10:32:43Z</time>
</trkpt>
<trkpt lat="49.61284630000591" lon="9.475878663361073">
<ele>281.8</ele>
<time>2024-05-11T10:32:44Z</time>
</trkpt>
<trkpt lat="49.61287681013346" lon="9.475856702774765">
<ele>282</ele>
<time>2024-05-11T10:32:45Z</time>
</trkpt>
<trkpt lat="49.61290740408003" lon="9.475838597863913">
<ele>282.2</ele>
<time>2024-05-11T10:32:46Z</time>
</trkpt>
<trkpt lat="49.612941686064005" lon="9.475818565115333">
<ele>282.2</ele>
<time>2024-05-11T10:32:47Z</time>
</trkpt>
<trkpt lat="49.61297219619155" lon="9.475798532366753">
<ele>282.4</ele>
<time>2024-05-11T10:32:48Z</time>
</trkpt>
<trkpt lat="49.61300656199455" lon="9.475776655599477">
<ele>282.4</ele>
<time>2024-05-11T10:32:50Z</time>
</trkpt>
<trkpt lat="49.61306758224964" lon="9.475740361958742">
<ele>282.6</ele>
<time>2024-05-11T10:32:51Z</time>
</trkpt>
<trkpt lat="49.613098092377186" lon="9.475720329210162">
<ele>282.6</ele>
<time>2024-05-11T10:32:52Z</time>
</trkpt>
<trkpt lat="49.61313245818019" lon="9.475700296461582">
<ele>282.6</ele>
<time>2024-05-11T10:32:53Z</time>
</trkpt>
<trkpt lat="49.61316296830773" lon="9.475678419694304">
<ele>282.6</ele>
<time>2024-05-11T10:32:54Z</time>
</trkpt>
<trkpt lat="49.61319347843528" lon="9.475660314783454">
<ele>282.6</ele>
<time>2024-05-11T10:32:55Z</time>
</trkpt>
<trkpt lat="49.61322013288736" lon="9.475640282034874">
<ele>282.8</ele>
<time>2024-05-11T10:32:56Z</time>
</trkpt>
<trkpt lat="49.61324309930205" lon="9.475620249286294">
<ele>283</ele>
<time>2024-05-11T10:32:57Z</time>
</trkpt>
<trkpt lat="49.61326598189771" lon="9.475604994222522">
<ele>283</ele>
<time>2024-05-11T10:32:58Z</time>
</trkpt>
<trkpt lat="49.6132926363498" lon="9.475584961473942">
<ele>283</ele>
<time>2024-05-11T10:32:59Z</time>
</trkpt>
<trkpt lat="49.613319374620914" lon="9.475571550428867">
<ele>283.2</ele>
<time>2024-05-11T10:33:00Z</time>
</trkpt>
<trkpt lat="49.613346029073" lon="9.475563000887632">
<ele>283.2</ele>
<time>2024-05-11T10:33:01Z</time>
</trkpt>
<trkpt lat="49.61337276734412" lon="9.47554967366159">
<ele>283.2</ele>
<time>2024-05-11T10:33:02Z</time>
</trkpt>
<trkpt lat="49.613395649939775" lon="9.475536346435549">
<ele>283.4</ele>
<time>2024-05-11T10:33:03Z</time>
</trkpt>
<trkpt lat="49.61342238821089" lon="9.475524863228202">
<ele>283.4</ele>
<time>2024-05-11T10:33:04Z</time>
</trkpt>
<trkpt lat="49.61344904266298" lon="9.47550960816443">
<ele>283.6</ele>
<time>2024-05-11T10:33:05Z</time>
</trkpt>
<trkpt lat="49.61347192525864" lon="9.475495275110006">
<ele>283.8</ele>
<time>2024-05-11T10:33:06Z</time>
</trkpt>
<trkpt lat="49.613494807854295" lon="9.475476248189809">
<ele>283.8</ele>
<time>2024-05-11T10:33:07Z</time>
</trkpt>
<trkpt lat="49.61352154612541" lon="9.475456215441229">
<ele>284</ele>
<time>2024-05-11T10:33:08Z</time>
</trkpt>
<trkpt lat="49.6135482005775" lon="9.475438110530376">
<ele>284.2</ele>
<time>2024-05-11T10:33:09Z</time>
</trkpt>
<trkpt lat="49.613574938848615" lon="9.475421849638224">
<ele>284.4</ele>
<time>2024-05-11T10:33:10Z</time>
</trkpt>
<trkpt lat="49.61360167711973" lon="9.475399889051914">
<ele>284.6</ele>
<time>2024-05-11T10:33:11Z</time>
</trkpt>
<trkpt lat="49.61363218724728" lon="9.475379940122366">
<ele>284.8</ele>
<time>2024-05-11T10:33:12Z</time>
</trkpt>
<trkpt lat="49.61365884169936" lon="9.475359907373786">
<ele>284.8</ele>
<time>2024-05-11T10:33:13Z</time>
</trkpt>
<trkpt lat="49.61368557997048" lon="9.475339874625206">
<ele>285</ele>
<time>2024-05-11T10:33:14Z</time>
</trkpt>
<trkpt lat="49.613712234422565" lon="9.475319841876626">
<ele>285</ele>
<time>2024-05-11T10:33:15Z</time>
</trkpt>
<trkpt lat="49.61373897269368" lon="9.475297881290317">
<ele>285.2</ele>
<time>2024-05-11T10:33:16Z</time>
</trkpt>
<trkpt lat="49.6137657109648" lon="9.475281704217196">
<ele>285.2</ele>
<time>2024-05-11T10:33:17Z</time>
</trkpt>
<trkpt lat="49.61379236541688" lon="9.47526829317212">
<ele>285.4</ele>
<time>2024-05-11T10:33:18Z</time>
</trkpt>
<trkpt lat="49.61382287554443" lon="9.475252116099">
<ele>285.6</ele>
<time>2024-05-11T10:33:19Z</time>
</trkpt>
<trkpt lat="49.613849613815546" lon="9.475234933197498">
<ele>285.8</ele>
<time>2024-05-11T10:33:20Z</time>
</trkpt>
<trkpt lat="49.61387626826763" lon="9.475219678133726">
<ele>285.8</ele>
<time>2024-05-11T10:33:21Z</time>
</trkpt>
<trkpt lat="49.613906778395176" lon="9.475208278745413">
<ele>286</ele>
<time>2024-05-11T10:33:22Z</time>
</trkpt>
<trkpt lat="49.61393351666629" lon="9.475196795538068">
<ele>286.2</ele>
<time>2024-05-11T10:33:23Z</time>
</trkpt>
<trkpt lat="49.61396025493741" lon="9.475181540474296">
<ele>286.4</ele>
<time>2024-05-11T10:33:24Z</time>
</trkpt>
<trkpt lat="49.613986909389496" lon="9.475165363401176">
<ele>286.6</ele>
<time>2024-05-11T10:33:25Z</time>
</trkpt>
<trkpt lat="49.61401741951704" lon="9.475143402814863">
<ele>286.8</ele>
<time>2024-05-11T10:33:26Z</time>
</trkpt>
<trkpt lat="49.61404415778816" lon="9.475123370066283">
<ele>287</ele>
<time>2024-05-11T10:33:27Z</time>
</trkpt>
<trkpt lat="49.61407081224024" lon="9.475103337317703">
<ele>287.2</ele>
<time>2024-05-11T10:33:28Z</time>
</trkpt>
<trkpt lat="49.61409755051136" lon="9.475085232406856">
<ele>287.4</ele>
<time>2024-05-11T10:33:29Z</time>
</trkpt>
<trkpt lat="49.61412428878248" lon="9.475071905180812">
<ele>287.6</ele>
<time>2024-05-11T10:33:30Z</time>
</trkpt>
<trkpt lat="49.61415479891002" lon="9.475058494135736">
<ele>287.8</ele>
<time>2024-05-11T10:33:31Z</time>
</trkpt>
<trkpt lat="49.61418145336211" lon="9.475043239071963">
<ele>288</ele>
<time>2024-05-11T10:33:32Z</time>
</trkpt>
<trkpt lat="49.614208191633224" lon="9.475029911845922">
<ele>288.2</ele>
<time>2024-05-11T10:33:33Z</time>
</trkpt>
<trkpt lat="49.61423870176077" lon="9.47501365095377">
<ele>288.4</ele>
<time>2024-05-11T10:33:34Z</time>
</trkpt>
<trkpt lat="49.614265440031886" lon="9.474998395889996">
<ele>288.6</ele>
<time>2024-05-11T10:33:35Z</time>
</trkpt>
<trkpt lat="49.61429209448397" lon="9.47497651912272">
<ele>288.8</ele>
<time>2024-05-11T10:33:36Z</time>
</trkpt>
<trkpt lat="49.61431883275509" lon="9.474960258230569">
<ele>289</ele>
<time>2024-05-11T10:33:37Z</time>
</trkpt>
<trkpt lat="49.614345487207174" lon="9.474941231310368">
<ele>289</ele>
<time>2024-05-11T10:33:38Z</time>
</trkpt>
<trkpt lat="49.61437222547829" lon="9.474921198561788">
<ele>289.2</ele>
<time>2024-05-11T10:33:39Z</time>
</trkpt>
<trkpt lat="49.61439887993038" lon="9.474901165813208">
<ele>289.4</ele>
<time>2024-05-11T10:33:40Z</time>
</trkpt>
<trkpt lat="49.614425618201494" lon="9.474882055073977">
<ele>289.8</ele>
<time>2024-05-11T10:33:41Z</time>
</trkpt>
<trkpt lat="49.61445235647261" lon="9.474863028153775">
<ele>290</ele>
<time>2024-05-11T10:33:42Z</time>
</trkpt>
<trkpt lat="49.6144790109247" lon="9.474849700927734">
<ele>290.2</ele>
<time>2024-05-11T10:33:43Z</time>
</trkpt>
<trkpt lat="49.614501893520355" lon="9.474833440035582">
<ele>290.4</ele>
<time>2024-05-11T10:33:44Z</time>
</trkpt>
<trkpt lat="49.61452477611601" lon="9.47481625713408">
<ele>290.8</ele>
<time>2024-05-11T10:33:45Z</time>
</trkpt>
<trkpt lat="49.61455151438713" lon="9.47480008006096">
<ele>291</ele>
<time>2024-05-11T10:33:46Z</time>
</trkpt>
<trkpt lat="49.61457439698279" lon="9.474786752834916">
<ele>291.2</ele>
<time>2024-05-11T10:33:47Z</time>
</trkpt>
<trkpt lat="49.61459727957845" lon="9.474771497771144">
<ele>291.4</ele>
<time>2024-05-11T10:33:48Z</time>
</trkpt>
<trkpt lat="49.614620162174106" lon="9.474748531356454">
<ele>291.6</ele>
<time>2024-05-11T10:33:49Z</time>
</trkpt>
<trkpt lat="49.61463541723788" lon="9.474723804742098">
<ele>291.8</ele>
<time>2024-05-11T10:33:50Z</time>
</trkpt>
<trkpt lat="49.61465067230165" lon="9.474691366776824">
<ele>292.2</ele>
<time>2024-05-11T10:33:51Z</time>
</trkpt>
<trkpt lat="49.61466592736542" lon="9.4746580068022">
<ele>292.4</ele>
<time>2024-05-11T10:33:52Z</time>
</trkpt>
<trkpt lat="49.61467741057277" lon="9.474624563008549">
<ele>292.6</ele>
<time>2024-05-11T10:33:53Z</time>
</trkpt>
<trkpt lat="49.61468880996108" lon="9.474590281024575">
<ele>292.8</ele>
<time>2024-05-11T10:33:54Z</time>
</trkpt>
<trkpt lat="49.61470406502485" lon="9.474563542753458">
<ele>292.8</ele>
<time>2024-05-11T10:33:55Z</time>
</trkpt>
<trkpt lat="49.61472317576408" lon="9.474548287689686">
<ele>293</ele>
<time>2024-05-11T10:33:56Z</time>
</trkpt>
<trkpt lat="49.61474605835974" lon="9.47453973814845">
<ele>293.2</ele>
<time>2024-05-11T10:33:57Z</time>
</trkpt>
<trkpt lat="49.6147689409554" lon="9.474534960463645">
<ele>293.2</ele>
<time>2024-05-11T10:33:58Z</time>
</trkpt>
<trkpt lat="49.61479182355106" lon="9.474543510004878">
<ele>293.4</ele>
<time>2024-05-11T10:33:59Z</time>
</trkpt>
<trkpt lat="49.61480707861483" lon="9.4745578430593">
<ele>293.6</ele>
<time>2024-05-11T10:34:00Z</time>
</trkpt>
<trkpt lat="49.6148223336786" lon="9.47457980364561">
<ele>293.8</ele>
<time>2024-05-11T10:34:01Z</time>
</trkpt>
<trkpt lat="49.61483381688595" lon="9.474593130871654">
<ele>294</ele>
<time>2024-05-11T10:34:02Z</time>
</trkpt>
<trkpt lat="49.61484521627426" lon="9.47459690272808">
<ele>294.2</ele>
<time>2024-05-11T10:34:03Z</time>
</trkpt>
<trkpt lat="49.61484521627426" lon="9.474595058709385">
<ele>294.4</ele>
<time>2024-05-11T10:34:04Z</time>
</trkpt>
<trkpt lat="49.61484521627426" lon="9.474593130871654">
<ele>294.6</ele>
<time>2024-05-11T10:34:05Z</time>
</trkpt>
<trkpt lat="49.61484521627426" lon="9.474595058709385">
<ele>294.8</ele>
<time>2024-05-11T10:34:06Z</time>
</trkpt>
<trkpt lat="49.61485284380615" lon="9.47459983639419">
<ele>295</ele>
<time>2024-05-11T10:34:07Z</time>
</trkpt>
<trkpt lat="49.61485669948161" lon="9.474604530259969">
<ele>295</ele>
<time>2024-05-11T10:34:08Z</time>
</trkpt>
<trkpt lat="49.614860471338034" lon="9.474606458097696">
<ele>295</ele>
<time>2024-05-11T10:34:09Z</time>
</trkpt>
<trkpt lat="49.61486432701349" lon="9.474608385935426">
<ele>295.2</ele>
<time>2024-05-11T10:34:10Z</time>
</trkpt>
<trkpt lat="49.61486432701349" lon="9.474610313773155">
<ele>295.2</ele>
<time>2024-05-11T10:34:11Z</time>
</trkpt>
<trkpt lat="49.61486432701349" lon="9.474611235782504">
<ele>295.4</ele>
<time>2024-05-11T10:34:13Z</time>
</trkpt>
<trkpt lat="49.61486432701349" lon="9.474613163620234">
<ele>295.4</ele>
<time>2024-05-11T10:34:15Z</time>
</trkpt>
<trkpt lat="49.61486809886992" lon="9.474613163620234">
<ele>295.4</ele>
<time>2024-05-11T10:34:16Z</time>
</trkpt>
<trkpt lat="49.61486809886992" lon="9.474611235782504">
<ele>295.2</ele>
<time>2024-05-11T10:34:19Z</time>
</trkpt>
<trkpt lat="49.61488335393369" lon="9.47461978532374">
<ele>295.2</ele>
<time>2024-05-11T10:34:20Z</time>
</trkpt>
<trkpt lat="49.61489483714104" lon="9.474623640999198">
<ele>295</ele>
<time>2024-05-11T10:34:21Z</time>
</trkpt>
<trkpt lat="49.61491009220481" lon="9.474628418684006">
<ele>294.8</ele>
<time>2024-05-11T10:34:22Z</time>
</trkpt>
<trkpt lat="49.61492911912501" lon="9.474635124206545">
<ele>294.8</ele>
<time>2024-05-11T10:34:23Z</time>
</trkpt>
<trkpt lat="49.614955857396126" lon="9.47463981807232">
<ele>294.6</ele>
<time>2024-05-11T10:34:24Z</time>
</trkpt>
<trkpt lat="49.61499022319913" lon="9.474644595757129">
<ele>294.4</ele>
<time>2024-05-11T10:34:25Z</time>
</trkpt>
<trkpt lat="49.61502836085856" lon="9.474648451432586">
<ele>294.4</ele>
<time>2024-05-11T10:34:26Z</time>
</trkpt>
<trkpt lat="49.615058870986104" lon="9.474648451432586">
<ele>294.2</ele>
<time>2024-05-11T10:34:27Z</time>
</trkpt>
<trkpt lat="49.61508552543819" lon="9.474655073136091">
<ele>294.2</ele>
<time>2024-05-11T10:34:28Z</time>
</trkpt>
<trkpt lat="49.61511989124119" lon="9.474663706496358">
<ele>294</ele>
<time>2024-05-11T10:34:29Z</time>
</trkpt>
<trkpt lat="49.61515425704419" lon="9.474670328199863">
<ele>294</ele>
<time>2024-05-11T10:34:30Z</time>
</trkpt>
<trkpt lat="49.61519239470363" lon="9.474675105884671">
<ele>294</ele>
<time>2024-05-11T10:34:31Z</time>
</trkpt>
<trkpt lat="49.6152266766876" lon="9.474681811407208">
<ele>294</ele>
<time>2024-05-11T10:34:32Z</time>
</trkpt>
<trkpt lat="49.61526481434703" lon="9.474690360948443">
<ele>294.2</ele>
<time>2024-05-11T10:34:33Z</time>
</trkpt>
<trkpt lat="49.61529918015003" lon="9.47469706647098">
<ele>294.2</ele>
<time>2024-05-11T10:34:34Z</time>
</trkpt>
<trkpt lat="49.615333545953035" lon="9.474703771993518">
<ele>294.4</ele>
<time>2024-05-11T10:34:35Z</time>
</trkpt>
<trkpt lat="49.615371683612466" lon="9.474713243544102">
<ele>294.6</ele>
<time>2024-05-11T10:34:36Z</time>
</trkpt>
<trkpt lat="49.615409821271896" lon="9.474723804742098">
<ele>294.6</ele>
<time>2024-05-11T10:34:37Z</time>
</trkpt>
<trkpt lat="49.61544410325587" lon="9.474733276292682">
<ele>294.8</ele>
<time>2024-05-11T10:34:38Z</time>
</trkpt>
<trkpt lat="49.61548232473433" lon="9.474744759500028">
<ele>295</ele>
<time>2024-05-11T10:34:39Z</time>
</trkpt>
<trkpt lat="49.6155166067183" lon="9.47475808672607">
<ele>295.2</ele>
<time>2024-05-11T10:34:40Z</time>
</trkpt>
<trkpt lat="49.61555474437773" lon="9.474773341789842">
<ele>295.4</ele>
<time>2024-05-11T10:34:41Z</time>
</trkpt>
<trkpt lat="49.615589110180736" lon="9.474789602681994">
<ele>295.4</ele>
<time>2024-05-11T10:34:42Z</time>
</trkpt>
<trkpt lat="49.61562339216471" lon="9.474806785583496">
<ele>295.8</ele>
<time>2024-05-11T10:34:43Z</time>
</trkpt>
<trkpt lat="49.61565775796771" lon="9.47482011280954">
<ele>296</ele>
<time>2024-05-11T10:34:44Z</time>
</trkpt>
<trkpt lat="49.615692123770714" lon="9.474829668179154">
<ele>296.2</ele>
<time>2024-05-11T10:34:45Z</time>
</trkpt>
<trkpt lat="49.615726405754685" lon="9.474841989576817">
<ele>296.4</ele>
<time>2024-05-11T10:34:46Z</time>
</trkpt>
<trkpt lat="49.615768399089575" lon="9.474855400621893">
<ele>296.6</ele>
<time>2024-05-11T10:34:47Z</time>
</trkpt>
<trkpt lat="49.61580276489258" lon="9.474875433370473">
<ele>296.8</ele>
<time>2024-05-11T10:34:48Z</time>
</trkpt>
<trkpt lat="49.61583327502012" lon="9.474895466119053">
<ele>297</ele>
<time>2024-05-11T10:34:49Z</time>
</trkpt>
<trkpt lat="49.61587141267955" lon="9.474913571029902">
<ele>297.2</ele>
<time>2024-05-11T10:34:50Z</time>
</trkpt>
<trkpt lat="49.61590955033898" lon="9.474931675940752">
<ele>297.4</ele>
<time>2024-05-11T10:34:51Z</time>
</trkpt>
<trkpt lat="49.615943832322955" lon="9.474947853013871">
<ele>297.6</ele>
<time>2024-05-11T10:34:52Z</time>
</trkpt>
<trkpt lat="49.61598205380142" lon="9.474965035915377">
<ele>297.8</ele>
<time>2024-05-11T10:34:53Z</time>
</trkpt>
<trkpt lat="49.61601633578539" lon="9.474981296807528">
<ele>298</ele>
<time>2024-05-11T10:34:55Z</time>
</trkpt>
<trkpt lat="49.61608498357237" lon="9.475009879097342">
<ele>298</ele>
<time>2024-05-11T10:34:56Z</time>
</trkpt>
<trkpt lat="49.61611549369991" lon="9.475021362304688">
<ele>298.2</ele>
<time>2024-05-11T10:34:57Z</time>
</trkpt>
<trkpt lat="49.61614985950291" lon="9.47503468953073">
<ele>298.2</ele>
<time>2024-05-11T10:34:58Z</time>
</trkpt>
<trkpt lat="49.616180369630456" lon="9.475045166909696">
<ele>298.4</ele>
<time>2024-05-11T10:34:59Z</time>
</trkpt>
<trkpt lat="49.61621473543346" lon="9.475058494135736">
<ele>298.6</ele>
<time>2024-05-11T10:35:00Z</time>
</trkpt>
<trkpt lat="49.61624901741743" lon="9.47507282719016">
<ele>298.8</ele>
<time>2024-05-11T10:35:01Z</time>
</trkpt>
<trkpt lat="49.616283383220434" lon="9.475090010091662">
<ele>299</ele>
<time>2024-05-11T10:35:02Z</time>
</trkpt>
<trkpt lat="49.616321520879865" lon="9.475103337317703">
<ele>299.2</ele>
<time>2024-05-11T10:35:03Z</time>
</trkpt>
<trkpt lat="49.61635588668287" lon="9.475118592381476">
<ele>299.4</ele>
<time>2024-05-11T10:35:04Z</time>
</trkpt>
<trkpt lat="49.61639016866684" lon="9.475136697292328">
<ele>299.6</ele>
<time>2024-05-11T10:35:05Z</time>
</trkpt>
<trkpt lat="49.61642830632627" lon="9.4751519523561">
<ele>299.8</ele>
<time>2024-05-11T10:35:06Z</time>
</trkpt>
<trkpt lat="49.61646267212927" lon="9.475168213248253">
<ele>300</ele>
<time>2024-05-11T10:35:07Z</time>
</trkpt>
<trkpt lat="49.616500809788704" lon="9.475185312330725">
<ele>300</ele>
<time>2024-05-11T10:35:08Z</time>
</trkpt>
<trkpt lat="49.61653517559171" lon="9.475199645385146">
<ele>300.2</ele>
<time>2024-05-11T10:35:09Z</time>
</trkpt>
<trkpt lat="49.61656945757568" lon="9.47521205060184">
<ele>300.6</ele>
<time>2024-05-11T10:35:10Z</time>
</trkpt>
<trkpt lat="49.61659996770322" lon="9.475223533809183">
<ele>300.8</ele>
<time>2024-05-11T10:35:11Z</time>
</trkpt>
<trkpt lat="49.61663433350623" lon="9.475238788872955">
<ele>301</ele>
<time>2024-05-11T10:35:12Z</time>
</trkpt>
<trkpt lat="49.61666484363377" lon="9.475252116099">
<ele>301.2</ele>
<time>2024-05-11T10:35:13Z</time>
</trkpt>
<trkpt lat="49.6167029812932" lon="9.475263515487311">
<ele>301.4</ele>
<time>2024-05-11T10:35:14Z</time>
</trkpt>
<trkpt lat="49.616733491420746" lon="9.475277848541737">
<ele>301.6</ele>
<time>2024-05-11T10:35:15Z</time>
</trkpt>
<trkpt lat="49.616771629080176" lon="9.47529025375843">
<ele>301.8</ele>
<time>2024-05-11T10:35:16Z</time>
</trkpt>
<trkpt lat="49.61680599488318" lon="9.475299809128046">
<ele>302</ele>
<time>2024-05-11T10:35:17Z</time>
</trkpt>
<trkpt lat="49.61684036068618" lon="9.47531120851636">
<ele>302</ele>
<time>2024-05-11T10:35:18Z</time>
</trkpt>
<trkpt lat="49.61687849834561" lon="9.475326463580132">
<ele>302.2</ele>
<time>2024-05-11T10:35:19Z</time>
</trkpt>
<trkpt lat="49.616912780329585" lon="9.475339874625206">
<ele>302.2</ele>
<time>2024-05-11T10:35:20Z</time>
</trkpt>
<trkpt lat="49.61694329045713" lon="9.475356973707676">
<ele>302.2</ele>
<time>2024-05-11T10:35:21Z</time>
</trkpt>
<trkpt lat="49.61697765626013" lon="9.475375162437558">
<ele>302.2</ele>
<time>2024-05-11T10:35:22Z</time>
</trkpt>
<trkpt lat="49.61700816638768" lon="9.47539133951068">
<ele>302.2</ele>
<time>2024-05-11T10:35:23Z</time>
</trkpt>
<trkpt lat="49.61703867651522" lon="9.47541045024991">
<ele>302.4</ele>
<time>2024-05-11T10:35:24Z</time>
</trkpt>
<trkpt lat="49.617073042318225" lon="9.475426627323031">
<ele>302.4</ele>
<time>2024-05-11T10:35:25Z</time>
</trkpt>
<trkpt lat="49.6171073243022" lon="9.475442804396152">
<ele>302.4</ele>
<time>2024-05-11T10:35:26Z</time>
</trkpt>
<trkpt lat="49.6171416901052" lon="9.475459987297654">
<ele>302.4</ele>
<time>2024-05-11T10:35:27Z</time>
</trkpt>
<trkpt lat="49.617172200232744" lon="9.475476248189809">
<ele>302.2</ele>
<time>2024-05-11T10:35:28Z</time>
</trkpt>
<trkpt lat="49.61720271036029" lon="9.475493431091309">
<ele>302.2</ele>
<time>2024-05-11T10:35:29Z</time>
</trkpt>
<trkpt lat="49.61723322048783" lon="9.47550868615508">
<ele>302.2</ele>
<time>2024-05-11T10:35:30Z</time>
</trkpt>
<trkpt lat="49.61726758629083" lon="9.475522935390472">
<ele>302.2</ele>
<time>2024-05-11T10:35:31Z</time>
</trkpt>
<trkpt lat="49.61729809641838" lon="9.475546823814511">
<ele>302.4</ele>
<time>2024-05-11T10:35:32Z</time>
</trkpt>
<trkpt lat="49.617328606545925" lon="9.475582111626863">
<ele>302.4</ele>
<time>2024-05-11T10:35:33Z</time>
</trkpt>
<trkpt lat="49.61735148914158" lon="9.475625026971102">
<ele>302.6</ele>
<time>2024-05-11T10:35:34Z</time>
</trkpt>
<trkpt lat="49.61737437173724" lon="9.47566693648696">
<ele>302.6</ele>
<time>2024-05-11T10:35:35Z</time>
</trkpt>
<trkpt lat="49.617404881864786" lon="9.475701302289965">
<ele>302.8</ele>
<time>2024-05-11T10:35:36Z</time>
</trkpt>
<trkpt lat="49.61743539199233" lon="9.475727956742048">
<ele>302.8</ele>
<time>2024-05-11T10:35:37Z</time>
</trkpt>
<trkpt lat="49.617469757795334" lon="9.475740361958742">
<ele>303</ele>
<time>2024-05-11T10:35:38Z</time>
</trkpt>
<trkpt lat="49.61750026792288" lon="9.475734662264584">
<ele>303</ele>
<time>2024-05-11T10:35:39Z</time>
</trkpt>
<trkpt lat="49.61753463372588" lon="9.47572510689497">
<ele>303</ele>
<time>2024-05-11T10:35:40Z</time>
</trkpt>
<trkpt lat="49.617565143853426" lon="9.475711779668927">
<ele>303</ele>
<time>2024-05-11T10:35:41Z</time>
</trkpt>
<trkpt lat="49.6175994258374" lon="9.475694596767426">
<ele>303.2</ele>
<time>2024-05-11T10:35:42Z</time>
</trkpt>
<trkpt lat="49.61763756349683" lon="9.475681269541385">
<ele>303.2</ele>
<time>2024-05-11T10:35:43Z</time>
</trkpt>
<trkpt lat="49.61766807362437" lon="9.475681269541385">
<ele>303.2</ele>
<time>2024-05-11T10:35:44Z</time>
</trkpt>
<trkpt lat="49.61769866757095" lon="9.475681269541385">
<ele>303.2</ele>
<time>2024-05-11T10:35:45Z</time>
</trkpt>
<trkpt lat="49.617725322023034" lon="9.47568696923554">
<ele>303.2</ele>
<time>2024-05-11T10:35:46Z</time>
</trkpt>
<trkpt lat="49.61774820461869" lon="9.475691746920347">
<ele>303.2</ele>
<time>2024-05-11T10:35:47Z</time>
</trkpt>
<trkpt lat="49.61776731535792" lon="9.475696524605157">
<ele>303.2</ele>
<time>2024-05-11T10:35:48Z</time>
</trkpt>
<trkpt lat="49.61779019795358" lon="9.475703230127692">
<ele>303.2</ele>
<time>2024-05-11T10:35:49Z</time>
</trkpt>
<trkpt lat="49.61781308054924" lon="9.47570700198412">
<ele>303.2</ele>
<time>2024-05-11T10:35:50Z</time>
</trkpt>
<trkpt lat="49.617839735001326" lon="9.4757080078125">
<ele>303.2</ele>
<time>2024-05-11T10:35:51Z</time>
</trkpt>
<trkpt lat="49.61786647327244" lon="9.475709851831198">
<ele>303.2</ele>
<time>2024-05-11T10:35:52Z</time>
</trkpt>
<trkpt lat="49.61789321154356" lon="9.4757080078125">
<ele>303.2</ele>
<time>2024-05-11T10:35:53Z</time>
</trkpt>
<trkpt lat="49.617923721671104" lon="9.475709851831198">
<ele>303.2</ele>
<time>2024-05-11T10:35:54Z</time>
</trkpt>
<trkpt lat="49.61795423179865" lon="9.475713707506657">
<ele>303.2</ele>
<time>2024-05-11T10:35:55Z</time>
</trkpt>
<trkpt lat="49.61798474192619" lon="9.475721335038545">
<ele>303.2</ele>
<time>2024-05-11T10:35:56Z</time>
</trkpt>
<trkpt lat="49.61801525205374" lon="9.475727956742048">
<ele>303.2</ele>
<time>2024-05-11T10:35:57Z</time>
</trkpt>
<trkpt lat="49.61805338971317" lon="9.475734662264584">
<ele>303.2</ele>
<time>2024-05-11T10:35:58Z</time>
</trkpt>
<trkpt lat="49.61808389984071" lon="9.47574706748128">
<ele>303.2</ele>
<time>2024-05-11T10:35:59Z</time>
</trkpt>
<trkpt lat="49.61811063811183" lon="9.475761400535704">
<ele>303.2</ele>
<time>2024-05-11T10:36:00Z</time>
</trkpt>
<trkpt lat="49.61813352070749" lon="9.47578520514071">
<ele>303.2</ele>
<time>2024-05-11T10:36:01Z</time>
</trkpt>
<trkpt lat="49.618156403303146" lon="9.475814793258904">
<ele>303.2</ele>
<time>2024-05-11T10:36:02Z</time>
</trkpt>
<trkpt lat="49.61818305775523" lon="9.47584530338645">
<ele>303.2</ele>
<time>2024-05-11T10:36:03Z</time>
</trkpt>
<trkpt lat="49.61820602416992" lon="9.475874891504644">
<ele>303.2</ele>
<time>2024-05-11T10:36:04Z</time>
</trkpt>
<trkpt lat="49.61823267862201" lon="9.47590347379446">
<ele>303.2</ele>
<time>2024-05-11T10:36:05Z</time>
</trkpt>
<trkpt lat="49.618259416893125" lon="9.475930212065578">
<ele>303.2</ele>
<time>2024-05-11T10:36:06Z</time>
</trkpt>
<trkpt lat="49.61828607134521" lon="9.475954938679934">
<ele>303.2</ele>
<time>2024-05-11T10:36:07Z</time>
</trkpt>
<trkpt lat="49.61831280961633" lon="9.475977821275592">
<ele>303</ele>
<time>2024-05-11T10:36:08Z</time>
</trkpt>
<trkpt lat="49.61834331974387" lon="9.4759997818619">
<ele>303</ele>
<time>2024-05-11T10:36:09Z</time>
</trkpt>
<trkpt lat="49.618373829871416" lon="9.476017886772752">
<ele>303</ele>
<time>2024-05-11T10:36:10Z</time>
</trkpt>
<trkpt lat="49.61840433999896" lon="9.476037919521332">
<ele>303</ele>
<time>2024-05-11T10:36:11Z</time>
</trkpt>
<trkpt lat="49.618434850126505" lon="9.476055102422832">
<ele>303</ele>
<time>2024-05-11T10:36:12Z</time>
</trkpt>
<trkpt lat="49.61846921592951" lon="9.476071279495956">
<ele>302.8</ele>
<time>2024-05-11T10:36:13Z</time>
</trkpt>
<trkpt lat="49.61850349791348" lon="9.476086534559728">
<ele>302.8</ele>
<time>2024-05-11T10:36:14Z</time>
</trkpt>
<trkpt lat="49.61854163557291" lon="9.476108495146036">
<ele>302.6</ele>
<time>2024-05-11T10:36:15Z</time>
</trkpt>
<trkpt lat="49.618576001375914" lon="9.476129449903963">
<ele>302.6</ele>
<time>2024-05-11T10:36:16Z</time>
</trkpt>
<trkpt lat="49.6186179947108" lon="9.476153338328004">
<ele>302.4</ele>
<time>2024-05-11T10:36:17Z</time>
</trkpt>
<trkpt lat="49.61865990422666" lon="9.476176220923662">
<ele>302.2</ele>
<time>2024-05-11T10:36:18Z</time>
</trkpt>
<trkpt lat="49.61869804188609" lon="9.476204803213475">
<ele>302.2</ele>
<time>2024-05-11T10:36:19Z</time>
</trkpt>
<trkpt lat="49.61874003522098" lon="9.476236319169402">
<ele>302.2</ele>
<time>2024-05-11T10:36:20Z</time>
</trkpt>
<trkpt lat="49.61877817288041" lon="9.476269679144025">
<ele>302</ele>
<time>2024-05-11T10:36:21Z</time>
</trkpt>
<trkpt lat="49.61881631053984" lon="9.476308822631836">
<ele>302</ele>
<time>2024-05-11T10:36:22Z</time>
</trkpt>
<trkpt lat="49.61885830387473" lon="9.476347882300615">
<ele>302</ele>
<time>2024-05-11T10:36:23Z</time>
</trkpt>
<trkpt lat="49.61889644153416" lon="9.476389875635505">
<ele>301.8</ele>
<time>2024-05-11T10:36:24Z</time>
</trkpt>
<trkpt lat="49.61893843486905" lon="9.47643463499844">
<ele>301.8</ele>
<time>2024-05-11T10:36:25Z</time>
</trkpt>
<trkpt lat="49.618968944996595" lon="9.476485177874563">
<ele>301.6</ele>
<time>2024-05-11T10:36:26Z</time>
</trkpt>
<trkpt lat="49.61899559944868" lon="9.47653479874134">
<ele>301.4</ele>
<time>2024-05-11T10:36:27Z</time>
</trkpt>
<trkpt lat="49.61901848204434" lon="9.476588191464543">
<ele>301.4</ele>
<time>2024-05-11T10:36:28Z</time>
</trkpt>
<trkpt lat="49.61903373710811" lon="9.476636806502938">
<ele>301.4</ele>
<time>2024-05-11T10:36:29Z</time>
</trkpt>
<trkpt lat="49.619045220315456" lon="9.476683577522635">
<ele>301.4</ele>
<time>2024-05-11T10:36:30Z</time>
</trkpt>
<trkpt lat="49.61906047537923" lon="9.476731270551682">
<ele>301.4</ele>
<time>2024-05-11T10:36:31Z</time>
</trkpt>
<trkpt lat="49.619075730443" lon="9.476775107905269">
<ele>301.4</ele>
<time>2024-05-11T10:36:32Z</time>
</trkpt>
<trkpt lat="49.61909861303866" lon="9.476821878924966">
<ele>301.4</ele>
<time>2024-05-11T10:36:33Z</time>
</trkpt>
<trkpt lat="49.619125351309776" lon="9.476862866431476">
<ele>301.6</ele>
<time>2024-05-11T10:36:34Z</time>
</trkpt>
<trkpt lat="49.61915586143732" lon="9.476895304396749">
<ele>301.6</ele>
<time>2024-05-11T10:36:35Z</time>
</trkpt>
<trkpt lat="49.619186371564865" lon="9.476924892514944">
<ele>301.6</ele>
<time>2024-05-11T10:36:36Z</time>
</trkpt>
<trkpt lat="49.61921688169241" lon="9.476958252489569">
<ele>301.6</ele>
<time>2024-05-11T10:36:37Z</time>
</trkpt>
<trkpt lat="49.619247391819954" lon="9.47699161246419">
<ele>301.6</ele>
<time>2024-05-11T10:36:38Z</time>
</trkpt>
<trkpt lat="49.6192779019475" lon="9.477020194754004">
<ele>301.6</ele>
<time>2024-05-11T10:36:39Z</time>
</trkpt>
<trkpt lat="49.61930841207504" lon="9.477045005187392">
<ele>301.8</ele>
<time>2024-05-11T10:36:40Z</time>
</trkpt>
<trkpt lat="49.61933892220259" lon="9.47707174345851">
<ele>301.8</ele>
<time>2024-05-11T10:36:41Z</time>
</trkpt>
<trkpt lat="49.619361804798245" lon="9.477103175595404">
<ele>301.8</ele>
<time>2024-05-11T10:36:42Z</time>
</trkpt>
<trkpt lat="49.61938854306936" lon="9.477136535570024">
<ele>301.8</ele>
<time>2024-05-11T10:36:43Z</time>
</trkpt>
<trkpt lat="49.61941142566502" lon="9.47716997936368">
<ele>301.8</ele>
<time>2024-05-11T10:36:44Z</time>
</trkpt>
<trkpt lat="49.61943816393614" lon="9.477203339338304">
<ele>302</ele>
<time>2024-05-11T10:36:45Z</time>
</trkpt>
<trkpt lat="49.619464818388224" lon="9.477239549160004">
<ele>302.2</ele>
<time>2024-05-11T10:36:46Z</time>
</trkpt>
<trkpt lat="49.61949155665934" lon="9.477274836972356">
<ele>302.4</ele>
<time>2024-05-11T10:36:47Z</time>
</trkpt>
<trkpt lat="49.619518211111426" lon="9.477310124784708">
<ele>302.8</ele>
<time>2024-05-11T10:36:48Z</time>
</trkpt>
<trkpt lat="49.619541093707085" lon="9.47734826244414">
<ele>303</ele>
<time>2024-05-11T10:36:49Z</time>
</trkpt>
<trkpt lat="49.6195678319782" lon="9.477381706237791">
<ele>303.4</ele>
<time>2024-05-11T10:36:50Z</time>
</trkpt>
<trkpt lat="49.61959457024932" lon="9.477419843897223">
<ele>303.6</ele>
<time>2024-05-11T10:36:51Z</time>
</trkpt>
<trkpt lat="49.61961745284498" lon="9.477455131709576">
<ele>304</ele>
<time>2024-05-11T10:36:52Z</time>
</trkpt>
<trkpt lat="49.61964410729706" lon="9.477493269369006">
<ele>304.4</ele>
<time>2024-05-11T10:36:53Z</time>
</trkpt>
<trkpt lat="49.61967461742461" lon="9.477533334866166">
<ele>304.8</ele>
<time>2024-05-11T10:36:54Z</time>
</trkpt>
<trkpt lat="49.619701355695724" lon="9.477569544687867">
<ele>305</ele>
<time>2024-05-11T10:36:55Z</time>
</trkpt>
<trkpt lat="49.61973186582327" lon="9.477600054815412">
<ele>305.4</ele>
<time>2024-05-11T10:36:56Z</time>
</trkpt>
<trkpt lat="49.61976237595081" lon="9.47762201540172">
<ele>305.6</ele>
<time>2024-05-11T10:36:57Z</time>
</trkpt>
<trkpt lat="49.61980051361024" lon="9.477635342627764">
<ele>306</ele>
<time>2024-05-11T10:36:58Z</time>
</trkpt>
<trkpt lat="49.61983487941325" lon="9.477636264637113">
<ele>306.2</ele>
<time>2024-05-11T10:36:59Z</time>
</trkpt>
<trkpt lat="49.61987301707268" lon="9.477635342627764">
<ele>306.6</ele>
<time>2024-05-11T10:37:00Z</time>
</trkpt>
<trkpt lat="49.61990729905665" lon="9.477629642933609">
<ele>306.8</ele>
<time>2024-05-11T10:37:01Z</time>
</trkpt>
<trkpt lat="49.61994166485965" lon="9.47762201540172">
<ele>307</ele>
<time>2024-05-11T10:37:02Z</time>
</trkpt>
<trkpt lat="49.6199721749872" lon="9.477609610185027">
<ele>307.4</ele>
<time>2024-05-11T10:37:03Z</time>
</trkpt>
<trkpt lat="49.6200065407902" lon="9.477598126977682">
<ele>307.6</ele>
<time>2024-05-11T10:37:04Z</time>
</trkpt>
<trkpt lat="49.620037050917745" lon="9.477588571608068">
<ele>307.8</ele>
<time>2024-05-11T10:37:05Z</time>
</trkpt>
<trkpt lat="49.62007133290171" lon="9.47758194990456">
<ele>308</ele>
<time>2024-05-11T10:37:06Z</time>
</trkpt>
<trkpt lat="49.62010569870472" lon="9.477571472525597">
<ele>308.2</ele>
<time>2024-05-11T10:37:07Z</time>
</trkpt>
<trkpt lat="49.62014006450772" lon="9.477559989318252">
<ele>308.4</ele>
<time>2024-05-11T10:37:08Z</time>
</trkpt>
<trkpt lat="49.620174346491694" lon="9.477555211633444">
<ele>308.4</ele>
<time>2024-05-11T10:37:09Z</time>
</trkpt>
<trkpt lat="49.6202087122947" lon="9.477548589929938">
<ele>308.6</ele>
<time>2024-05-11T10:37:10Z</time>
</trkpt>
<trkpt lat="49.62024299427867" lon="9.4775418844074">
<ele>308.6</ele>
<time>2024-05-11T10:37:11Z</time>
</trkpt>
<trkpt lat="49.620273588225245" lon="9.477531407028437">
<ele>308.8</ele>
<time>2024-05-11T10:37:12Z</time>
</trkpt>
<trkpt lat="49.62030787020922" lon="9.47752377949655">
<ele>308.8</ele>
<time>2024-05-11T10:37:13Z</time>
</trkpt>
<trkpt lat="49.62034223601222" lon="9.477515146136284">
<ele>308.8</ele>
<time>2024-05-11T10:37:14Z</time>
</trkpt>
<trkpt lat="49.62037651799619" lon="9.477506596595047">
<ele>308.8</ele>
<time>2024-05-11T10:37:15Z</time>
</trkpt>
<trkpt lat="49.620407028123736" lon="9.477498047053814">
<ele>309</ele>
<time>2024-05-11T10:37:16Z</time>
</trkpt>
<trkpt lat="49.62043762207031" lon="9.477490419521928">
<ele>309</ele>
<time>2024-05-11T10:37:17Z</time>
</trkpt>
<trkpt lat="49.62047190405429" lon="9.47748178616166">
<ele>309.2</ele>
<time>2024-05-11T10:37:18Z</time>
</trkpt>
<trkpt lat="49.62050241418183" lon="9.477475164458156">
<ele>309.2</ele>
<time>2024-05-11T10:37:19Z</time>
</trkpt>
<trkpt lat="49.62053677998483" lon="9.47746460326016">
<ele>309.6</ele>
<time>2024-05-11T10:37:20Z</time>
</trkpt>
<trkpt lat="49.620567290112376" lon="9.477455131709576">
<ele>309.8</ele>
<time>2024-05-11T10:37:21Z</time>
</trkpt>
<trkpt lat="49.62060157209635" lon="9.477446498349307">
<ele>310</ele>
<time>2024-05-11T10:37:22Z</time>
</trkpt>
<trkpt lat="49.620628310367465" lon="9.477439876645803">
<ele>310.2</ele>
<time>2024-05-11T10:37:23Z</time>
</trkpt>
<trkpt lat="49.62065882049501" lon="9.477431243285537">
<ele>310.4</ele>
<time>2024-05-11T10:37:24Z</time>
</trkpt>
<trkpt lat="49.62069318629801" lon="9.47742361575365">
<ele>310.6</ele>
<time>2024-05-11T10:37:25Z</time>
</trkpt>
<trkpt lat="49.6207198407501" lon="9.477416910231112">
<ele>310.8</ele>
<time>2024-05-11T10:37:26Z</time>
</trkpt>
<trkpt lat="49.62075035087764" lon="9.477406432852147">
<ele>311</ele>
<time>2024-05-11T10:37:27Z</time>
</trkpt>
<trkpt lat="49.620784716680646" lon="9.477399811148643">
<ele>311</ele>
<time>2024-05-11T10:37:28Z</time>
</trkpt>
<trkpt lat="49.62081522680819" lon="9.477395033463836">
<ele>311.2</ele>
<time>2024-05-11T10:37:29Z</time>
</trkpt>
<trkpt lat="49.620849592611194" lon="9.477386400103567">
<ele>311.4</ele>
<time>2024-05-11T10:37:30Z</time>
</trkpt>
<trkpt lat="49.62088010273874" lon="9.477377850562334">
<ele>311.4</ele>
<time>2024-05-11T10:37:31Z</time>
</trkpt>
<trkpt lat="49.62091438472271" lon="9.477370223030448">
<ele>311.6</ele>
<time>2024-05-11T10:37:32Z</time>
</trkpt>
<trkpt lat="49.620944894850254" lon="9.477357817813754">
<ele>311.8</ele>
<time>2024-05-11T10:37:33Z</time>
</trkpt>
<trkpt lat="49.62097548879683" lon="9.47734826244414">
<ele>312</ele>
<time>2024-05-11T10:37:34Z</time>
</trkpt>
<trkpt lat="49.6210097707808" lon="9.477339712902904">
<ele>312.2</ele>
<time>2024-05-11T10:37:35Z</time>
</trkpt>
<trkpt lat="49.621040280908346" lon="9.477330157533288">
<ele>312.4</ele>
<time>2024-05-11T10:37:36Z</time>
</trkpt>
<trkpt lat="49.62107464671135" lon="9.477319680154324">
<ele>312.6</ele>
<time>2024-05-11T10:37:37Z</time>
</trkpt>
<trkpt lat="49.621105156838894" lon="9.477312052622436">
<ele>312.8</ele>
<time>2024-05-11T10:37:38Z</time>
</trkpt>
<trkpt lat="49.62113566696644" lon="9.477301575243471">
<ele>313</ele>
<time>2024-05-11T10:37:39Z</time>
</trkpt>
<trkpt lat="49.62117003276944" lon="9.477292941883206">
<ele>313.2</ele>
<time>2024-05-11T10:37:40Z</time>
</trkpt>
<trkpt lat="49.621200542896986" lon="9.47728531435132">
<ele>313.4</ele>
<time>2024-05-11T10:37:41Z</time>
</trkpt>
<trkpt lat="49.62123105302453" lon="9.477276764810084">
<ele>313.4</ele>
<time>2024-05-11T10:37:42Z</time>
</trkpt>
<trkpt lat="49.621261563152075" lon="9.477271987125278">
<ele>313.6</ele>
<time>2024-05-11T10:37:43Z</time>
</trkpt>
<trkpt lat="49.62129592895508" lon="9.47726821526885">
<ele>313.6</ele>
<time>2024-05-11T10:37:44Z</time>
</trkpt>
<trkpt lat="49.62133021093905" lon="9.477263437584044">
<ele>313.8</ele>
<time>2024-05-11T10:37:45Z</time>
</trkpt>
<trkpt lat="49.62135694921017" lon="9.477254804223776">
<ele>314</ele>
<time>2024-05-11T10:37:46Z</time>
</trkpt>
<trkpt lat="49.62138360366225" lon="9.47724625468254">
<ele>314.2</ele>
<time>2024-05-11T10:37:47Z</time>
</trkpt>
<trkpt lat="49.6214141137898" lon="9.477239549160004">
<ele>314.4</ele>
<time>2024-05-11T10:37:48Z</time>
</trkpt>
<trkpt lat="49.621440852060914" lon="9.477232927456498">
<ele>314.6</ele>
<time>2024-05-11T10:37:49Z</time>
</trkpt>
<trkpt lat="49.62147136218846" lon="9.47722814977169">
<ele>314.6</ele>
<time>2024-05-11T10:37:50Z</time>
</trkpt>
<trkpt lat="49.621498100459576" lon="9.477221444249151">
<ele>314.8</ele>
<time>2024-05-11T10:37:51Z</time>
</trkpt>
<trkpt lat="49.62152861058712" lon="9.47721004486084">
<ele>315</ele>
<time>2024-05-11T10:37:52Z</time>
</trkpt>
<trkpt lat="49.62156289257109" lon="9.477201411500571">
<ele>315.4</ele>
<time>2024-05-11T10:37:53Z</time>
</trkpt>
<trkpt lat="49.62159340269864" lon="9.477196633815764">
<ele>315.6</ele>
<time>2024-05-11T10:37:54Z</time>
</trkpt>
<trkpt lat="49.62162014096975" lon="9.47718808427453">
<ele>315.8</ele>
<time>2024-05-11T10:37:55Z</time>
</trkpt>
<trkpt lat="49.62165450677276" lon="9.477181378751991">
<ele>316</ele>
<time>2024-05-11T10:37:56Z</time>
</trkpt>
<trkpt lat="49.62168116122484" lon="9.477172829210758">
<ele>316.2</ele>
<time>2024-05-11T10:37:57Z</time>
</trkpt>
<trkpt lat="49.62171167135239" lon="9.477167129516602">
<ele>316.4</ele>
<time>2024-05-11T10:37:58Z</time>
</trkpt>
<trkpt lat="49.62174218147993" lon="9.477160423994064">
<ele>316.6</ele>
<time>2024-05-11T10:37:59Z</time>
</trkpt>
<trkpt lat="49.621772691607475" lon="9.477154724299908">
<ele>316.6</ele>
<time>2024-05-11T10:38:00Z</time>
</trkpt>
<trkpt lat="49.62180320173502" lon="9.47714801877737">
<ele>316.6</ele>
<time>2024-05-11T10:38:01Z</time>
</trkpt>
<trkpt lat="49.6218337956816" lon="9.477140391245484">
<ele>316.8</ele>
<time>2024-05-11T10:38:02Z</time>
</trkpt>
<trkpt lat="49.62186430580914" lon="9.47713184170425">
<ele>316.8</ele>
<time>2024-05-11T10:38:03Z</time>
</trkpt>
<trkpt lat="49.621894815936685" lon="9.477123208343984">
<ele>317</ele>
<time>2024-05-11T10:38:04Z</time>
</trkpt>
<trkpt lat="49.62192532606423" lon="9.477116502821444">
<ele>317</ele>
<time>2024-05-11T10:38:05Z</time>
</trkpt>
<trkpt lat="49.62195583619177" lon="9.47710795328021">
<ele>317</ele>
<time>2024-05-11T10:38:06Z</time>
</trkpt>
<trkpt lat="49.62199020199478" lon="9.477100325748324">
<ele>317.2</ele>
<time>2024-05-11T10:38:07Z</time>
</trkpt>
<trkpt lat="49.62202071212232" lon="9.477093620225787">
<ele>317.2</ele>
<time>2024-05-11T10:38:08Z</time>
</trkpt>
<trkpt lat="49.622051222249866" lon="9.477086998522282">
<ele>317.2</ele>
<time>2024-05-11T10:38:09Z</time>
</trkpt>
<trkpt lat="49.62208173237741" lon="9.477078365162017">
<ele>317.4</ele>
<time>2024-05-11T10:38:10Z</time>
</trkpt>
<trkpt lat="49.622112242504954" lon="9.47706788778305">
<ele>317.4</ele>
<time>2024-05-11T10:38:11Z</time>
</trkpt>
<trkpt lat="49.622146524488926" lon="9.477058332413437">
<ele>317.4</ele>
<time>2024-05-11T10:38:12Z</time>
</trkpt>
<trkpt lat="49.62217326276004" lon="9.47705171070993">
<ele>317.6</ele>
<time>2024-05-11T10:38:13Z</time>
</trkpt>
<trkpt lat="49.62220762856305" lon="9.477040227502584">
<ele>317.6</ele>
<time>2024-05-11T10:38:14Z</time>
</trkpt>
<trkpt lat="49.62223813869059" lon="9.47703167796135">
<ele>317.6</ele>
<time>2024-05-11T10:38:15Z</time>
</trkpt>
<trkpt lat="49.62227627635002" lon="9.477023044601085">
<ele>317.6</ele>
<time>2024-05-11T10:38:16Z</time>
</trkpt>
<trkpt lat="49.62231055833399" lon="9.477014495059848">
<ele>317.6</ele>
<time>2024-05-11T10:38:17Z</time>
</trkpt>
<trkpt lat="49.62234492413699" lon="9.477006867527962">
<ele>317.6</ele>
<time>2024-05-11T10:38:18Z</time>
</trkpt>
<trkpt lat="49.62238306179643" lon="9.476998317986729">
<ele>317.6</ele>
<time>2024-05-11T10:38:19Z</time>
</trkpt>
<trkpt lat="49.62242119945586" lon="9.476986834779382">
<ele>317.8</ele>
<time>2024-05-11T10:38:20Z</time>
</trkpt>
<trkpt lat="49.62245933711529" lon="9.476975435391068">
<ele>317.8</ele>
<time>2024-05-11T10:38:21Z</time>
</trkpt>
<trkpt lat="49.62249755859375" lon="9.476964874193072">
<ele>317.8</ele>
<time>2024-05-11T10:38:22Z</time>
</trkpt>
<trkpt lat="49.62253569625318" lon="9.476955402642488">
<ele>317.8</ele>
<time>2024-05-11T10:38:23Z</time>
</trkpt>
<trkpt lat="49.62257760576904" lon="9.476946769282222">
<ele>318</ele>
<time>2024-05-11T10:38:24Z</time>
</trkpt>
<trkpt lat="49.62261959910393" lon="9.476935369893909">
<ele>318</ele>
<time>2024-05-11T10:38:25Z</time>
</trkpt>
<trkpt lat="49.622661508619785" lon="9.476926736533642">
<ele>318</ele>
<time>2024-05-11T10:38:26Z</time>
</trkpt>
<trkpt lat="49.62269973009825" lon="9.4769134093076">
<ele>318</ele>
<time>2024-05-11T10:38:27Z</time>
</trkpt>
<trkpt lat="49.622741639614105" lon="9.476898154243829">
<ele>318</ele>
<time>2024-05-11T10:38:28Z</time>
</trkpt>
<trkpt lat="49.622779777273536" lon="9.476886671036482">
<ele>318</ele>
<time>2024-05-11T10:38:29Z</time>
</trkpt>
<trkpt lat="49.62282554246485" lon="9.476886671036482">
<ele>318.2</ele>
<time>2024-05-11T10:38:30Z</time>
</trkpt>
<trkpt lat="49.6228713914752" lon="9.476898154243829">
<ele>318.2</ele>
<time>2024-05-11T10:38:31Z</time>
</trkpt>
<trkpt lat="49.62291330099106" lon="9.47693151421845">
<ele>318.2</ele>
<time>2024-05-11T10:38:32Z</time>
</trkpt>
<trkpt lat="49.622940039262176" lon="9.476980129256845">
<ele>318.4</ele>
<time>2024-05-11T10:38:33Z</time>
</trkpt>
<trkpt lat="49.62296669371426" lon="9.477034527808428">
<ele>318.6</ele>
<time>2024-05-11T10:38:34Z</time>
</trkpt>
<trkpt lat="49.62298194877803" lon="9.477085070684552">
<ele>318.8</ele>
<time>2024-05-11T10:38:35Z</time>
</trkpt>
<trkpt lat="49.622997203841805" lon="9.47712798602879">
<ele>319</ele>
<time>2024-05-11T10:38:36Z</time>
</trkpt>
<trkpt lat="49.62301254272461" lon="9.47716805152595">
<ele>319.2</ele>
<time>2024-05-11T10:38:37Z</time>
</trkpt>
<trkpt lat="49.62303156964481" lon="9.477205267176032">
<ele>319.4</ele>
<time>2024-05-11T10:38:38Z</time>
</trkpt>
<trkpt lat="49.62305445224047" lon="9.477241476997731">
<ele>319.8</ele>
<time>2024-05-11T10:38:39Z</time>
</trkpt>
<trkpt lat="49.623081190511584" lon="9.477276764810084">
<ele>320</ele>
<time>2024-05-11T10:38:40Z</time>
</trkpt>
<trkpt lat="49.623100217431784" lon="9.47730819694698">
<ele>320.4</ele>
<time>2024-05-11T10:38:41Z</time>
</trkpt>
<trkpt lat="49.623119328171015" lon="9.477341640740631">
<ele>320.8</ele>
<time>2024-05-11T10:38:42Z</time>
</trkpt>
<trkpt lat="49.62313072755933" lon="9.477379778400064">
<ele>321.4</ele>
<time>2024-05-11T10:38:43Z</time>
</trkpt>
<trkpt lat="49.6231459826231" lon="9.477417916059494">
<ele>321.6</ele>
<time>2024-05-11T10:38:44Z</time>
</trkpt>
<trkpt lat="49.623157465830445" lon="9.477455131709576">
<ele>322</ele>
<time>2024-05-11T10:38:45Z</time>
</trkpt>
<trkpt lat="49.62316509336233" lon="9.477493269369006">
<ele>322.2</ele>
<time>2024-05-11T10:38:46Z</time>
</trkpt>
<trkpt lat="49.62317272089422" lon="9.477531407028437">
<ele>322.2</ele>
<time>2024-05-11T10:38:47Z</time>
</trkpt>
<trkpt lat="49.623180348426104" lon="9.477569544687867">
<ele>322.4</ele>
<time>2024-05-11T10:38:48Z</time>
</trkpt>
<trkpt lat="49.62319183163345" lon="9.477608604356648">
<ele>322.6</ele>
<time>2024-05-11T10:38:49Z</time>
</trkpt>
<trkpt lat="49.62320323102176" lon="9.477648669853806">
<ele>322.6</ele>
<time>2024-05-11T10:38:50Z</time>
</trkpt>
<trkpt lat="49.623218486085534" lon="9.477688735350966">
<ele>322.6</ele>
<time>2024-05-11T10:38:51Z</time>
</trkpt>
<trkpt lat="49.62322996929288" lon="9.47772117331624">
<ele>322.8</ele>
<time>2024-05-11T10:38:52Z</time>
</trkpt>
<trkpt lat="49.623237596824765" lon="9.477736428380013">
<ele>322.8</ele>
<time>2024-05-11T10:38:53Z</time>
</trkpt>
<trkpt lat="49.62324136868119" lon="9.47774120606482">
<ele>322.8</ele>
<time>2024-05-11T10:38:54Z</time>
</trkpt>
<trkpt lat="49.62324136868119" lon="9.477744977921247">
<ele>323</ele>
<time>2024-05-11T10:38:55Z</time>
</trkpt>
<trkpt lat="49.62324522435665" lon="9.47774120606482">
<ele>323</ele>
<time>2024-05-11T10:38:57Z</time>
</trkpt>
<trkpt lat="49.62324522435665" lon="9.477740284055471">
<ele>323.2</ele>
<time>2024-05-11T10:38:59Z</time>
</trkpt>
<trkpt lat="49.62324522435665" lon="9.477738356217742">
<ele>323.2</ele>
<time>2024-05-11T10:39:03Z</time>
</trkpt>
<trkpt lat="49.62324522435665" lon="9.477736428380013">
<ele>323.2</ele>
<time>2024-05-11T10:39:06Z</time>
</trkpt>
<trkpt lat="49.62324522435665" lon="9.477734500542285">
<ele>323.4</ele>
<time>2024-05-11T10:39:09Z</time>
</trkpt>
<trkpt lat="49.62324522435665" lon="9.477733578532934">
<ele>323.4</ele>
<time>2024-05-11T10:39:13Z</time>
</trkpt>
<trkpt lat="49.62324522435665" lon="9.477731650695205">
<ele>323.4</ele>
<time>2024-05-11T10:39:19Z</time>
</trkpt>
<trkpt lat="49.62324522435665" lon="9.477733578532934">
<ele>323.4</ele>
<time>2024-05-11T10:39:31Z</time>
</trkpt>
<trkpt lat="49.62324136868119" lon="9.477733578532934">
<ele>323.4</ele>
<time>2024-05-11T10:39:38Z</time>
</trkpt>
<trkpt lat="49.62324136868119" lon="9.477734500542285">
<ele>323.4</ele>
<time>2024-05-11T10:39:41Z</time>
</trkpt>
<trkpt lat="49.623237596824765" lon="9.477734500542285">
<ele>323.4</ele>
<time>2024-05-11T10:39:42Z</time>
</trkpt>
<trkpt lat="49.623237596824765" lon="9.477740284055471">
<ele>323.4</ele>
<time>2024-05-11T10:39:43Z</time>
</trkpt>
<trkpt lat="49.623237596824765" lon="9.47774313390255">
<ele>323.4</ele>
<time>2024-05-11T10:39:44Z</time>
</trkpt>
<trkpt lat="49.623237596824765" lon="9.477746905758975">
<ele>323.6</ele>
<time>2024-05-11T10:39:45Z</time>
</trkpt>
<trkpt lat="49.623237596824765" lon="9.477753611281514">
<ele>323.6</ele>
<time>2024-05-11T10:39:46Z</time>
</trkpt>
<trkpt lat="49.623237596824765" lon="9.477771716192365">
<ele>323.6</ele>
<time>2024-05-11T10:39:47Z</time>
</trkpt>
<trkpt lat="49.62324522435665" lon="9.477793676778674">
<ele>323.6</ele>
<time>2024-05-11T10:39:48Z</time>
</trkpt>
<trkpt lat="49.623256623744965" lon="9.477827036753297">
<ele>323.6</ele>
<time>2024-05-11T10:39:49Z</time>
</trkpt>
<trkpt lat="49.62327187880874" lon="9.477868024259806">
<ele>323.6</ele>
<time>2024-05-11T10:39:50Z</time>
</trkpt>
<trkpt lat="49.62328713387251" lon="9.477911945432425">
<ele>323.6</ele>
<time>2024-05-11T10:39:51Z</time>
</trkpt>
<trkpt lat="49.62331001646817" lon="9.47795863263309">
<ele>323.6</ele>
<time>2024-05-11T10:39:52Z</time>
</trkpt>
<trkpt lat="49.6233291272074" lon="9.478008253499866">
<ele>323.8</ele>
<time>2024-05-11T10:39:53Z</time>
</trkpt>
<trkpt lat="49.6233481541276" lon="9.47805779054761">
<ele>323.8</ele>
<time>2024-05-11T10:39:54Z</time>
</trkpt>
<trkpt lat="49.62336726486683" lon="9.478101711720228">
<ele>324</ele>
<time>2024-05-11T10:39:55Z</time>
</trkpt>
<trkpt lat="49.62338637560606" lon="9.47813984937966">
<ele>324.2</ele>
<time>2024-05-11T10:39:56Z</time>
</trkpt>
<trkpt lat="49.62340540252626" lon="9.47817798703909">
<ele>324.4</ele>
<time>2024-05-11T10:39:57Z</time>
</trkpt>
<trkpt lat="49.62342065759003" lon="9.47821520268917">
<ele>324.6</ele>
<time>2024-05-11T10:39:58Z</time>
</trkpt>
<trkpt lat="49.62343591265381" lon="9.4782533403486">
<ele>324.8</ele>
<time>2024-05-11T10:39:59Z</time>
</trkpt>
<trkpt lat="49.623451167717576" lon="9.478288628160954">
<ele>325</ele>
<time>2024-05-11T10:40:00Z</time>
</trkpt>
<trkpt lat="49.62346642278135" lon="9.478322910144923">
<ele>325.4</ele>
<time>2024-05-11T10:40:01Z</time>
</trkpt>
<trkpt lat="49.62348167784512" lon="9.47835635393858">
<ele>325.8</ele>
<time>2024-05-11T10:40:02Z</time>
</trkpt>
<trkpt lat="49.62349693290889" lon="9.47839348576963">
<ele>326.2</ele>
<time>2024-05-11T10:40:03Z</time>
</trkpt>
<trkpt lat="49.62351604364813" lon="9.478429779410362">
<ele>326.6</ele>
<time>2024-05-11T10:40:04Z</time>
</trkpt>
<trkpt lat="49.623531298711896" lon="9.478463139384983">
<ele>327</ele>
<time>2024-05-11T10:40:05Z</time>
</trkpt>
<trkpt lat="49.62354655377567" lon="9.478496499359608">
<ele>327.4</ele>
<time>2024-05-11T10:40:06Z</time>
</trkpt>
<trkpt lat="49.62356180883944" lon="9.47852985933423">
<ele>327.8</ele>
<time>2024-05-11T10:40:07Z</time>
</trkpt>
<trkpt lat="49.62357706390321" lon="9.478563303127885">
<ele>328.2</ele>
<time>2024-05-11T10:40:08Z</time>
</trkpt>
<trkpt lat="49.623592318966985" lon="9.478596663102508">
<ele>328.6</ele>
<time>2024-05-11T10:40:09Z</time>
</trkpt>
<trkpt lat="49.62360757403076" lon="9.47863002307713">
<ele>329</ele>
<time>2024-05-11T10:40:10Z</time>
</trkpt>
<trkpt lat="49.62362282909453" lon="9.478663383051751">
<ele>329.4</ele>
<time>2024-05-11T10:40:11Z</time>
</trkpt>
<trkpt lat="49.6236380841583" lon="9.478694899007678">
<ele>329.6</ele>
<time>2024-05-11T10:40:12Z</time>
</trkpt>
<trkpt lat="49.623653339222074" lon="9.478725409135222">
<ele>330</ele>
<time>2024-05-11T10:40:13Z</time>
</trkpt>
<trkpt lat="49.623668594285846" lon="9.478756841272116">
<ele>330.4</ele>
<time>2024-05-11T10:40:14Z</time>
</trkpt>
<trkpt lat="49.62368384934962" lon="9.478790201246738">
<ele>330.8</ele>
<time>2024-05-11T10:40:15Z</time>
</trkpt>
<trkpt lat="49.62369533255696" lon="9.478816939517856">
<ele>331</ele>
<time>2024-05-11T10:40:16Z</time>
</trkpt>
<trkpt lat="49.623710587620735" lon="9.478843677788973">
<ele>331.2</ele>
<time>2024-05-11T10:40:17Z</time>
</trkpt>
<trkpt lat="49.62372584268451" lon="9.478868404403327">
<ele>331.4</ele>
<time>2024-05-11T10:40:18Z</time>
</trkpt>
<trkpt lat="49.62374495342374" lon="9.478893214836717">
<ele>331.6</ele>
<time>2024-05-11T10:40:19Z</time>
</trkpt>
<trkpt lat="49.6237678360194" lon="9.478926658630373">
<ele>331.8</ele>
<time>2024-05-11T10:40:20Z</time>
</trkpt>
<trkpt lat="49.6237868629396" lon="9.478960018604994">
<ele>332</ele>
<time>2024-05-11T10:40:21Z</time>
</trkpt>
<trkpt lat="49.623809745535254" lon="9.478988600894809">
<ele>332.2</ele>
<time>2024-05-11T10:40:22Z</time>
</trkpt>
<trkpt lat="49.623828856274486" lon="9.479016261175277">
<ele>332.4</ele>
<time>2024-05-11T10:40:23Z</time>
</trkpt>
<trkpt lat="49.623851738870144" lon="9.479048699140549">
<ele>332.8</ele>
<time>2024-05-11T10:40:24Z</time>
</trkpt>
<trkpt lat="49.62386699393392" lon="9.479082059115171">
<ele>333</ele>
<time>2024-05-11T10:40:25Z</time>
</trkpt>
<trkpt lat="49.623889876529574" lon="9.479116424918177">
<ele>333.4</ele>
<time>2024-05-11T10:40:26Z</time>
</trkpt>
<trkpt lat="49.623908987268806" lon="9.47914693504572">
<ele>333.8</ele>
<time>2024-05-11T10:40:27Z</time>
</trkpt>
<trkpt lat="49.623928014189005" lon="9.479173589497805">
<ele>334.2</ele>
<time>2024-05-11T10:40:28Z</time>
</trkpt>
<trkpt lat="49.62394712492824" lon="9.479200327768922">
<ele>334.4</ele>
<time>2024-05-11T10:40:29Z</time>
</trkpt>
<trkpt lat="49.623970007523894" lon="9.47922128252685">
<ele>334.8</ele>
<time>2024-05-11T10:40:30Z</time>
</trkpt>
<trkpt lat="49.62399289011955" lon="9.479247014969587">
<ele>335.2</ele>
<time>2024-05-11T10:40:31Z</time>
</trkpt>
<trkpt lat="49.62401191703975" lon="9.479272831231356">
<ele>335.4</ele>
<time>2024-05-11T10:40:32Z</time>
</trkpt>
<trkpt lat="49.62403479963541" lon="9.479298563674092">
<ele>335.6</ele>
<time>2024-05-11T10:40:33Z</time>
</trkpt>
<trkpt lat="49.62405391037464" lon="9.479326223954558">
<ele>335.8</ele>
<time>2024-05-11T10:40:34Z</time>
</trkpt>
<trkpt lat="49.6240767929703" lon="9.479351956397297">
<ele>336</ele>
<time>2024-05-11T10:40:35Z</time>
</trkpt>
<trkpt lat="49.62410353124142" lon="9.479372911155224">
<ele>336.2</ele>
<time>2024-05-11T10:40:36Z</time>
</trkpt>
<trkpt lat="49.624126413837075" lon="9.479392943903804">
<ele>336.4</ele>
<time>2024-05-11T10:40:37Z</time>
</trkpt>
<trkpt lat="49.62414929643273" lon="9.479412976652384">
<ele>336.6</ele>
<time>2024-05-11T10:40:38Z</time>
</trkpt>
<trkpt lat="49.62417595088482" lon="9.4794397149235">
<ele>337</ele>
<time>2024-05-11T10:40:39Z</time>
</trkpt>
<trkpt lat="49.62419506162405" lon="9.47946159169078">
<ele>337.2</ele>
<time>2024-05-11T10:40:40Z</time>
</trkpt>
<trkpt lat="49.62421794421971" lon="9.479490257799624">
<ele>337.4</ele>
<time>2024-05-11T10:40:41Z</time>
</trkpt>
<trkpt lat="49.62424082681537" lon="9.479515068233011">
<ele>337.6</ele>
<time>2024-05-11T10:40:42Z</time>
</trkpt>
<trkpt lat="49.6242599375546" lon="9.47953979484737">
<ele>337.8</ele>
<time>2024-05-11T10:40:43Z</time>
</trkpt>
<trkpt lat="49.6242789644748" lon="9.47955697774887">
<ele>338.2</ele>
<time>2024-05-11T10:40:44Z</time>
</trkpt>
<trkpt lat="49.62429807521403" lon="9.479570388793944">
<ele>338.4</ele>
<time>2024-05-11T10:40:45Z</time>
</trkpt>
<trkpt lat="49.62432095780969" lon="9.479586565867066">
<ele>338.8</ele>
<time>2024-05-11T10:40:46Z</time>
</trkpt>
<trkpt lat="49.624343840405345" lon="9.47960182093084">
<ele>339</ele>
<time>2024-05-11T10:40:47Z</time>
</trkpt>
<trkpt lat="49.62437049485743" lon="9.47962185367942">
<ele>339.4</ele>
<time>2024-05-11T10:40:48Z</time>
</trkpt>
<trkpt lat="49.62439723312855" lon="9.479641886428">
<ele>339.6</ele>
<time>2024-05-11T10:40:49Z</time>
</trkpt>
<trkpt lat="49.624420115724206" lon="9.47965806350112">
<ele>339.8</ele>
<time>2024-05-11T10:40:50Z</time>
</trkpt>
<trkpt lat="49.62443922646344" lon="9.4796780962497">
<ele>340</ele>
<time>2024-05-11T10:40:51Z</time>
</trkpt>
<trkpt lat="49.62445825338364" lon="9.479700056836007">
<ele>340.2</ele>
<time>2024-05-11T10:40:52Z</time>
</trkpt>
<trkpt lat="49.624481135979295" lon="9.47971531189978">
<ele>340.6</ele>
<time>2024-05-11T10:40:53Z</time>
</trkpt>
<trkpt lat="49.62450787425041" lon="9.479733416810632">
<ele>340.8</ele>
<time>2024-05-11T10:40:54Z</time>
</trkpt>
<trkpt lat="49.62453075684607" lon="9.479749677702785">
<ele>341</ele>
<time>2024-05-11T10:40:55Z</time>
</trkpt>
<trkpt lat="49.62455363944173" lon="9.479768704622984">
<ele>341.4</ele>
<time>2024-05-11T10:40:56Z</time>
</trkpt>
<trkpt lat="49.624580377712846" lon="9.479789659380913">
<ele>341.6</ele>
<time>2024-05-11T10:40:57Z</time>
</trkpt>
<trkpt lat="49.624603260308504" lon="9.479803070425987">
<ele>341.8</ele>
<time>2024-05-11T10:40:58Z</time>
</trkpt>
<trkpt lat="49.62462991476059" lon="9.4798144698143">
<ele>342</ele>
<time>2024-05-11T10:40:59Z</time>
</trkpt>
<trkpt lat="49.62466428056359" lon="9.479827880859377">
<ele>342.2</ele>
<time>2024-05-11T10:41:00Z</time>
</trkpt>
<trkpt lat="49.62469093501568" lon="9.47983835823834">
<ele>342.4</ele>
<time>2024-05-11T10:41:01Z</time>
</trkpt>
<trkpt lat="49.62472144514322" lon="9.47985646314919">
<ele>342.6</ele>
<time>2024-05-11T10:41:02Z</time>
</trkpt>
<trkpt lat="49.6247520390898" lon="9.47987456806004">
<ele>342.8</ele>
<time>2024-05-11T10:41:03Z</time>
</trkpt>
<trkpt lat="49.62478632107377" lon="9.47989652864635">
<ele>343</ele>
<time>2024-05-11T10:41:04Z</time>
</trkpt>
<trkpt lat="49.624816831201315" lon="9.47991656139493">
<ele>343</ele>
<time>2024-05-11T10:41:05Z</time>
</trkpt>
<trkpt lat="49.62485119700432" lon="9.47993466630578">
<ele>343.2</ele>
<time>2024-05-11T10:41:06Z</time>
</trkpt>
<trkpt lat="49.62488170713186" lon="9.479958470910788">
<ele>343.4</ele>
<time>2024-05-11T10:41:07Z</time>
</trkpt>
<trkpt lat="49.624916072934866" lon="9.479983281344175">
<ele>343.6</ele>
<time>2024-05-11T10:41:08Z</time>
</trkpt>
<trkpt lat="49.62494658306241" lon="9.48001286946237">
<ele>343.4</ele>
<time>2024-05-11T10:41:09Z</time>
</trkpt>
<trkpt lat="49.624973237514496" lon="9.480036674067378">
<ele>343.4</ele>
<time>2024-05-11T10:41:10Z</time>
</trkpt>
<trkpt lat="49.6250076033175" lon="9.480065340176225">
<ele>343.2</ele>
<time>2024-05-11T10:41:12Z</time>
</trkpt>
<trkpt lat="49.62508773431182" lon="9.480125354602931">
<ele>343.2</ele>
<time>2024-05-11T10:41:13Z</time>
</trkpt>
<trkpt lat="49.62514112703502" lon="9.480156870558858">
<ele>343.2</ele>
<time>2024-05-11T10:41:14Z</time>
</trkpt>
<trkpt lat="49.62518689222634" lon="9.480181680992246">
<ele>343.2</ele>
<time>2024-05-11T10:41:15Z</time>
</trkpt>
<trkpt lat="49.625232657417655" lon="9.480206407606602">
<ele>343.2</ele>
<time>2024-05-11T10:41:16Z</time>
</trkpt>
<trkpt lat="49.62528605014086" lon="9.48023314587772">
<ele>343.2</ele>
<time>2024-05-11T10:41:17Z</time>
</trkpt>
<trkpt lat="49.625331815332174" lon="9.4802531786263">
<ele>343.2</ele>
<time>2024-05-11T10:41:18Z</time>
</trkpt>
<trkpt lat="49.62538520805538" lon="9.480266505852342">
<ele>343.2</ele>
<time>2024-05-11T10:41:19Z</time>
</trkpt>
<trkpt lat="49.62543482892215" lon="9.48027321137488">
<ele>343.2</ele>
<time>2024-05-11T10:41:20Z</time>
</trkpt>
<trkpt lat="49.625488221645355" lon="9.480275139212608">
<ele>343.2</ele>
<time>2024-05-11T10:41:21Z</time>
</trkpt>
<trkpt lat="49.62554161436856" lon="9.4802703615278">
<ele>343</ele>
<time>2024-05-11T10:41:22Z</time>
</trkpt>
<trkpt lat="49.62559886276722" lon="9.480266505852342">
<ele>343</ele>
<time>2024-05-11T10:41:23Z</time>
</trkpt>
<trkpt lat="49.62565988302231" lon="9.480257034301758">
<ele>343</ele>
<time>2024-05-11T10:41:24Z</time>
</trkpt>
<trkpt lat="49.62572853080928" lon="9.48025032877922">
<ele>342.8</ele>
<time>2024-05-11T10:41:25Z</time>
</trkpt>
<trkpt lat="49.62579340673983" lon="9.480246473103762">
<ele>342.4</ele>
<time>2024-05-11T10:41:26Z</time>
</trkpt>
<trkpt lat="49.625862054526806" lon="9.480244629085064">
<ele>342.2</ele>
<time>2024-05-11T10:41:27Z</time>
</trkpt>
<trkpt lat="49.62593078613281" lon="9.480243623256683">
<ele>341.8</ele>
<time>2024-05-11T10:41:28Z</time>
</trkpt>
<trkpt lat="49.626003205776215" lon="9.480243623256683">
<ele>341.4</ele>
<time>2024-05-11T10:41:29Z</time>
</trkpt>
<trkpt lat="49.62606808170676" lon="9.480246473103762">
<ele>341</ele>
<time>2024-05-11T10:41:30Z</time>
</trkpt>
<trkpt lat="49.626125330105424" lon="9.4802531786263">
<ele>340.4</ele>
<time>2024-05-11T10:41:31Z</time>
</trkpt>
<trkpt lat="49.62617872282863" lon="9.480257956311108">
<ele>339.8</ele>
<time>2024-05-11T10:41:32Z</time>
</trkpt>
<trkpt lat="49.62622825987637" lon="9.48025125078857">
<ele>339.4</ele>
<time>2024-05-11T10:41:33Z</time>
</trkpt>
<trkpt lat="49.626277880743146" lon="9.480216968804598">
<ele>338.6</ele>
<time>2024-05-11T10:41:34Z</time>
</trkpt>
<trkpt lat="49.626319874078035" lon="9.480154942721128">
<ele>338</ele>
<time>2024-05-11T10:41:35Z</time>
</trkpt>
<trkpt lat="49.626358011737466" lon="9.480066262185574">
<ele>337.4</ele>
<time>2024-05-11T10:41:36Z</time>
</trkpt>
<trkpt lat="49.626396149396896" lon="9.479965176433325">
<ele>336.8</ele>
<time>2024-05-11T10:41:37Z</time>
</trkpt>
<trkpt lat="49.62643043138087" lon="9.47985646314919">
<ele>336.2</ele>
<time>2024-05-11T10:41:38Z</time>
</trkpt>
<trkpt lat="49.62646865285933" lon="9.479763004928827">
<ele>335.6</ele>
<time>2024-05-11T10:41:39Z</time>
</trkpt>
<trkpt lat="49.62651056237519" lon="9.4796780962497">
<ele>335</ele>
<time>2024-05-11T10:41:40Z</time>
</trkpt>
<trkpt lat="49.626556327566504" lon="9.47959704324603">
<ele>334.4</ele>
<time>2024-05-11T10:41:41Z</time>
</trkpt>
<trkpt lat="49.626598320901394" lon="9.479517918080091">
<ele>333.8</ele>
<time>2024-05-11T10:41:42Z</time>
</trkpt>
<trkpt lat="49.62664408609271" lon="9.4794397149235">
<ele>333.2</ele>
<time>2024-05-11T10:41:43Z</time>
</trkpt>
<trkpt lat="49.6266860794276" lon="9.47935958392918">
<ele>333</ele>
<time>2024-05-11T10:41:44Z</time>
</trkpt>
<trkpt lat="49.62672421708703" lon="9.479286158457398">
<ele>332.6</ele>
<time>2024-05-11T10:41:45Z</time>
</trkpt>
<trkpt lat="49.62676612660289" lon="9.47922128252685">
<ele>332.2</ele>
<time>2024-05-11T10:41:46Z</time>
</trkpt>
<trkpt lat="49.62680811993778" lon="9.479169817641376">
<ele>331.8</ele>
<time>2024-05-11T10:41:47Z</time>
</trkpt>
<trkpt lat="49.626853885129094" lon="9.479138301685452">
<ele>331.6</ele>
<time>2024-05-11T10:41:48Z</time>
</trkpt>
<trkpt lat="49.62690350599587" lon="9.47912497445941">
<ele>331.4</ele>
<time>2024-05-11T10:41:49Z</time>
</trkpt>
<trkpt lat="49.62695304304361" lon="9.479134529829023">
<ele>331.4</ele>
<time>2024-05-11T10:41:50Z</time>
</trkpt>
<trkpt lat="49.62700266391039" lon="9.479158334434032">
<ele>331.2</ele>
<time>2024-05-11T10:41:51Z</time>
</trkpt>
<trkpt lat="49.627052284777164" lon="9.479187922552228">
<ele>331</ele>
<time>2024-05-11T10:41:52Z</time>
</trkpt>
<trkpt lat="49.62710567750037" lon="9.479218432679772">
<ele>331</ele>
<time>2024-05-11T10:41:53Z</time>
</trkpt>
<trkpt lat="49.62715907022357" lon="9.479251792654397">
<ele>330.8</ele>
<time>2024-05-11T10:41:54Z</time>
</trkpt>
<trkpt lat="49.62721246294677" lon="9.479286158457398">
<ele>330.8</ele>
<time>2024-05-11T10:41:55Z</time>
</trkpt>
<trkpt lat="49.62726208381355" lon="9.47932337410748">
<ele>330.8</ele>
<time>2024-05-11T10:41:56Z</time>
</trkpt>
<trkpt lat="49.62731170468032" lon="9.479358661919832">
<ele>330.6</ele>
<time>2024-05-11T10:41:57Z</time>
</trkpt>
<trkpt lat="49.627365097403526" lon="9.479394871741532">
<ele>330.6</ele>
<time>2024-05-11T10:41:58Z</time>
</trkpt>
<trkpt lat="49.62741849012673" lon="9.47943870909512">
<ele>330.4</ele>
<time>2024-05-11T10:41:59Z</time>
</trkpt>
<trkpt lat="49.62746039964259" lon="9.479490257799624">
<ele>330.4</ele>
<time>2024-05-11T10:42:00Z</time>
</trkpt>
<trkpt lat="49.62750239297747" lon="9.479546500369906">
<ele>330.2</ele>
<time>2024-05-11T10:42:01Z</time>
</trkpt>
<trkpt lat="49.627544386312366" lon="9.479606598615646">
<ele>330</ele>
<time>2024-05-11T10:42:02Z</time>
</trkpt>
<trkpt lat="49.62758629582822" lon="9.479668540880084">
<ele>330</ele>
<time>2024-05-11T10:42:03Z</time>
</trkpt>
<trkpt lat="49.627624433487654" lon="9.479731488972902">
<ele>330</ele>
<time>2024-05-11T10:42:04Z</time>
</trkpt>
<trkpt lat="49.62766642682254" lon="9.479793515056372">
<ele>330.2</ele>
<time>2024-05-11T10:42:05Z</time>
</trkpt>
<trkpt lat="49.62771219201386" lon="9.47985646314919">
<ele>330.2</ele>
<time>2024-05-11T10:42:06Z</time>
</trkpt>
<trkpt lat="49.62775418534875" lon="9.479918405413628">
<ele>330.2</ele>
<time>2024-05-11T10:42:07Z</time>
</trkpt>
<trkpt lat="49.627799950540066" lon="9.479981353506446">
<ele>330.4</ele>
<time>2024-05-11T10:42:08Z</time>
</trkpt>
<trkpt lat="49.627841943874955" lon="9.480045307427645">
<ele>330.4</ele>
<time>2024-05-11T10:42:09Z</time>
</trkpt>
<trkpt lat="49.62788770906627" lon="9.480106327682734">
<ele>330.4</ele>
<time>2024-05-11T10:42:10Z</time>
</trkpt>
<trkpt lat="49.62793347425759" lon="9.480161648243666">
<ele>330.6</ele>
<time>2024-05-11T10:42:11Z</time>
</trkpt>
<trkpt lat="49.62798301130533" lon="9.480216968804598">
<ele>330.8</ele>
<time>2024-05-11T10:42:12Z</time>
</trkpt>
<trkpt lat="49.62803263217211" lon="9.4802703615278">
<ele>330.8</ele>
<time>2024-05-11T10:42:13Z</time>
</trkpt>
<trkpt lat="49.62808225303888" lon="9.480318054556848">
<ele>331</ele>
<time>2024-05-11T10:42:14Z</time>
</trkpt>
<trkpt lat="49.62813179008663" lon="9.480368597432973">
<ele>331.2</ele>
<time>2024-05-11T10:42:15Z</time>
</trkpt>
<trkpt lat="49.6281814109534" lon="9.480416290462015">
<ele>331.2</ele>
<time>2024-05-11T10:42:16Z</time>
</trkpt>
<trkpt lat="49.628234803676605" lon="9.480464905500412">
<ele>331.4</ele>
<time>2024-05-11T10:42:17Z</time>
</trkpt>
<trkpt lat="49.62828442454338" lon="9.480513520538809">
<ele>331.4</ele>
<time>2024-05-11T10:42:18Z</time>
</trkpt>
<trkpt lat="49.62833404541016" lon="9.480558363720776">
<ele>331.6</ele>
<time>2024-05-11T10:42:19Z</time>
</trkpt>
<trkpt lat="49.62837981060147" lon="9.480600357055664">
<ele>331.6</ele>
<time>2024-05-11T10:42:20Z</time>
</trkpt>
<trkpt lat="49.62843320332467" lon="9.480633717030289">
<ele>331.6</ele>
<time>2024-05-11T10:42:21Z</time>
</trkpt>
<trkpt lat="49.628490367904305" lon="9.480656599625943">
<ele>331.8</ele>
<time>2024-05-11T10:42:22Z</time>
</trkpt>
<trkpt lat="49.628551471978426" lon="9.48066707700491">
<ele>331.8</ele>
<time>2024-05-11T10:42:23Z</time>
</trkpt>
<trkpt lat="49.628612492233515" lon="9.480661377310753">
<ele>331.8</ele>
<time>2024-05-11T10:42:24Z</time>
</trkpt>
<trkpt lat="49.628669656813145" lon="9.4806451164186">
<ele>331.6</ele>
<time>2024-05-11T10:42:25Z</time>
</trkpt>
<trkpt lat="49.628726905211806" lon="9.48062508367002">
<ele>331.8</ele>
<time>2024-05-11T10:42:26Z</time>
</trkpt>
<trkpt lat="49.62878415361047" lon="9.480603206902742">
<ele>331.6</ele>
<time>2024-05-11T10:42:27Z</time>
</trkpt>
<trkpt lat="49.62883754633367" lon="9.480576468631623">
<ele>331.8</ele>
<time>2024-05-11T10:42:28Z</time>
</trkpt>
<trkpt lat="49.62889093905687" lon="9.480553586035969">
<ele>331.8</ele>
<time>2024-05-11T10:42:29Z</time>
</trkpt>
<trkpt lat="49.62894433178008" lon="9.48052785359323">
<ele>331.8</ele>
<time>2024-05-11T10:42:30Z</time>
</trkpt>
<trkpt lat="49.62899772450328" lon="9.480503043159842">
<ele>332</ele>
<time>2024-05-11T10:42:31Z</time>
</trkpt>
<trkpt lat="49.62905120104551" lon="9.480478232726457">
<ele>332</ele>
<time>2024-05-11T10:42:32Z</time>
</trkpt>
<trkpt lat="49.62910459376872" lon="9.480455350130796">
<ele>332.2</ele>
<time>2024-05-11T10:42:33Z</time>
</trkpt>
<trkpt lat="49.62915798649192" lon="9.48042961768806">
<ele>332.2</ele>
<time>2024-05-11T10:42:34Z</time>
</trkpt>
<trkpt lat="49.629207607358694" lon="9.480406735092402">
<ele>332.4</ele>
<time>2024-05-11T10:42:35Z</time>
</trkpt>
<trkpt lat="49.6292610000819" lon="9.480384774506092">
<ele>332.4</ele>
<time>2024-05-11T10:42:36Z</time>
</trkpt>
<trkpt lat="49.62930676527321" lon="9.480382846668364">
<ele>332.4</ele>
<time>2024-05-11T10:42:37Z</time>
</trkpt>
<trkpt lat="49.62934867478907" lon="9.480404807254672">
<ele>332.6</ele>
<time>2024-05-11T10:42:38Z</time>
</trkpt>
<trkpt lat="49.62938689626753" lon="9.48044680058956">
<ele>332.8</ele>
<time>2024-05-11T10:42:39Z</time>
</trkpt>
<trkpt lat="49.62942503392696" lon="9.480500193312764">
<ele>332.8</ele>
<time>2024-05-11T10:42:40Z</time>
</trkpt>
<trkpt lat="49.629459315910935" lon="9.480556435883043">
<ele>333</ele>
<time>2024-05-11T10:42:41Z</time>
</trkpt>
<trkpt lat="49.629497453570366" lon="9.480609828606248">
<ele>333.2</ele>
<time>2024-05-11T10:42:42Z</time>
</trkpt>
<trkpt lat="49.62953181937337" lon="9.480667999014258">
<ele>333.4</ele>
<time>2024-05-11T10:42:43Z</time>
</trkpt>
<trkpt lat="49.6295699570328" lon="9.48072524741292">
<ele>333.6</ele>
<time>2024-05-11T10:42:44Z</time>
</trkpt>
<trkpt lat="49.62960809469223" lon="9.4807814899832">
<ele>333.6</ele>
<time>2024-05-11T10:42:45Z</time>
</trkpt>
<trkpt lat="49.62964246049523" lon="9.480839660391212">
<ele>333.8</ele>
<time>2024-05-11T10:42:46Z</time>
</trkpt>
<trkpt lat="49.629676742479205" lon="9.480897830799222">
<ele>333.8</ele>
<time>2024-05-11T10:42:47Z</time>
</trkpt>
<trkpt lat="49.62970733642578" lon="9.480957929044962">
<ele>334</ele>
<time>2024-05-11T10:42:48Z</time>
</trkpt>
<trkpt lat="49.62974161840975" lon="9.481018027290702">
<ele>334</ele>
<time>2024-05-11T10:42:49Z</time>
</trkpt>
<trkpt lat="49.6297721285373" lon="9.481078125536442">
<ele>334.2</ele>
<time>2024-05-11T10:42:50Z</time>
</trkpt>
<trkpt lat="49.62980263866484" lon="9.48114006780088">
<ele>334.4</ele>
<time>2024-05-11T10:42:51Z</time>
</trkpt>
<trkpt lat="49.62982937693596" lon="9.481203015893698">
<ele>334.4</ele>
<time>2024-05-11T10:42:52Z</time>
</trkpt>
<trkpt lat="49.6298598870635" lon="9.481266969814897">
<ele>334.4</ele>
<time>2024-05-11T10:42:53Z</time>
</trkpt>
<trkpt lat="49.62988662533462" lon="9.481326984241605">
<ele>334.6</ele>
<time>2024-05-11T10:42:54Z</time>
</trkpt>
<trkpt lat="49.629917135462165" lon="9.48137853294611">
<ele>334.6</ele>
<time>2024-05-11T10:42:55Z</time>
</trkpt>
<trkpt lat="49.62994764558971" lon="9.481428069993854">
<ele>334.6</ele>
<time>2024-05-11T10:42:56Z</time>
</trkpt>
<trkpt lat="49.629978155717254" lon="9.48147291317582">
<ele>334.8</ele>
<time>2024-05-11T10:42:57Z</time>
</trkpt>
<trkpt lat="49.630012437701225" lon="9.481510128825905">
<ele>335</ele>
<time>2024-05-11T10:42:58Z</time>
</trkpt>
<trkpt lat="49.63004680350423" lon="9.481543488800526">
<ele>335.2</ele>
<time>2024-05-11T10:42:59Z</time>
</trkpt>
<trkpt lat="49.63007731363177" lon="9.48157500475645">
<ele>335.4</ele>
<time>2024-05-11T10:43:00Z</time>
</trkpt>
<trkpt lat="49.63010782375932" lon="9.481610292568805">
<ele>335.6</ele>
<time>2024-05-11T10:43:01Z</time>
</trkpt>
<trkpt lat="49.63013833388686" lon="9.481643652543426">
<ele>335.8</ele>
<time>2024-05-11T10:43:02Z</time>
</trkpt>
<trkpt lat="49.630172699689865" lon="9.481677012518048">
<ele>336</ele>
<time>2024-05-11T10:43:03Z</time>
</trkpt>
<trkpt lat="49.63019935414195" lon="9.481706600636244">
<ele>336.2</ele>
<time>2024-05-11T10:43:04Z</time>
</trkpt>
<trkpt lat="49.63022609241307" lon="9.481726633384824">
<ele>336.6</ele>
<time>2024-05-11T10:43:05Z</time>
</trkpt>
<trkpt lat="49.63025660254061" lon="9.481731411069632">
<ele>336.8</ele>
<time>2024-05-11T10:43:06Z</time>
</trkpt>
<trkpt lat="49.63028334081173" lon="9.481726633384824">
<ele>337.2</ele>
<time>2024-05-11T10:43:07Z</time>
</trkpt>
<trkpt lat="49.630313850939274" lon="9.48171322233975">
<ele>337.4</ele>
<time>2024-05-11T10:43:08Z</time>
</trkpt>
<trkpt lat="49.63034436106682" lon="9.4816951174289">
<ele>337.6</ele>
<time>2024-05-11T10:43:09Z</time>
</trkpt>
<trkpt lat="49.63037487119436" lon="9.48167324066162">
<ele>337.8</ele>
<time>2024-05-11T10:43:10Z</time>
</trkpt>
<trkpt lat="49.63040538132191" lon="9.48165320791304">
<ele>338.2</ele>
<time>2024-05-11T10:43:11Z</time>
</trkpt>
<trkpt lat="49.63043589144945" lon="9.481631247326732">
<ele>338.4</ele>
<time>2024-05-11T10:43:12Z</time>
</trkpt>
<trkpt lat="49.63046640157699" lon="9.481608364731072">
<ele>338.6</ele>
<time>2024-05-11T10:43:13Z</time>
</trkpt>
<trkpt lat="49.63049691170454" lon="9.481586404144764">
<ele>338.8</ele>
<time>2024-05-11T10:43:14Z</time>
</trkpt>
<trkpt lat="49.630531277507544" lon="9.481563521549106">
<ele>339</ele>
<time>2024-05-11T10:43:15Z</time>
</trkpt>
<trkpt lat="49.63056178763509" lon="9.481541560962796">
<ele>339.2</ele>
<time>2024-05-11T10:43:16Z</time>
</trkpt>
<trkpt lat="49.63059615343809" lon="9.481521528214216">
<ele>339.4</ele>
<time>2024-05-11T10:43:17Z</time>
</trkpt>
<trkpt lat="49.63062666356563" lon="9.481498645618558">
<ele>339.6</ele>
<time>2024-05-11T10:43:18Z</time>
</trkpt>
<trkpt lat="49.63065331801772" lon="9.48147484101355">
<ele>339.6</ele>
<time>2024-05-11T10:43:19Z</time>
</trkpt>
<trkpt lat="49.630683828145266" lon="9.48145480826497">
<ele>339.6</ele>
<time>2024-05-11T10:43:20Z</time>
</trkpt>
<trkpt lat="49.63071433827281" lon="9.48143863119185">
<ele>339.8</ele>
<time>2024-05-11T10:43:21Z</time>
</trkpt>
<trkpt lat="49.630744932219386" lon="9.48141952045262">
<ele>340</ele>
<time>2024-05-11T10:43:22Z</time>
</trkpt>
<trkpt lat="49.63077158667147" lon="9.48139948770404">
<ele>340</ele>
<time>2024-05-11T10:43:23Z</time>
</trkpt>
<trkpt lat="49.630802096799016" lon="9.48137853294611">
<ele>340.2</ele>
<time>2024-05-11T10:43:24Z</time>
</trkpt>
<trkpt lat="49.63083646260202" lon="9.48135850019753">
<ele>340.4</ele>
<time>2024-05-11T10:43:25Z</time>
</trkpt>
<trkpt lat="49.630863117054105" lon="9.48133653961122">
<ele>340.4</ele>
<time>2024-05-11T10:43:26Z</time>
</trkpt>
<trkpt lat="49.63089748285711" lon="9.481314579024913">
<ele>340.4</ele>
<time>2024-05-11T10:43:27Z</time>
</trkpt>
<trkpt lat="49.63093184866011" lon="9.481294630095364">
<ele>340.4</ele>
<time>2024-05-11T10:43:28Z</time>
</trkpt>
<trkpt lat="49.630962358787656" lon="9.48127836920321">
<ele>340.6</ele>
<time>2024-05-11T10:43:29Z</time>
</trkpt>
<trkpt lat="49.6309928689152" lon="9.481261186301708">
<ele>340.6</ele>
<time>2024-05-11T10:43:30Z</time>
</trkpt>
<trkpt lat="49.631023379042745" lon="9.481245009228587">
<ele>340.8</ele>
<time>2024-05-11T10:43:31Z</time>
</trkpt>
<trkpt lat="49.63105766102672" lon="9.481229754164817">
<ele>340.8</ele>
<time>2024-05-11T10:43:32Z</time>
</trkpt>
<trkpt lat="49.63109202682972" lon="9.48121827095747">
<ele>341</ele>
<time>2024-05-11T10:43:33Z</time>
</trkpt>
<trkpt lat="49.631122536957264" lon="9.481208799406886">
<ele>341.2</ele>
<time>2024-05-11T10:43:34Z</time>
</trkpt>
<trkpt lat="49.63115690276027" lon="9.481196394190192">
<ele>341.2</ele>
<time>2024-05-11T10:43:35Z</time>
</trkpt>
<trkpt lat="49.63118355721235" lon="9.481184910982847">
<ele>341.2</ele>
<time>2024-05-11T10:43:36Z</time>
</trkpt>
<trkpt lat="49.63121792301536" lon="9.481176361441612">
<ele>341.4</ele>
<time>2024-05-11T10:43:37Z</time>
</trkpt>
<trkpt lat="49.6312484331429" lon="9.481166806071997">
<ele>341.6</ele>
<time>2024-05-11T10:43:38Z</time>
</trkpt>
<trkpt lat="49.631278943270445" lon="9.481156328693032">
<ele>341.6</ele>
<time>2024-05-11T10:43:39Z</time>
</trkpt>
<trkpt lat="49.63130568154156" lon="9.481142917647958">
<ele>341.8</ele>
<time>2024-05-11T10:43:40Z</time>
</trkpt>
<trkpt lat="49.63133619166911" lon="9.481121962890027">
<ele>342</ele>
<time>2024-05-11T10:43:41Z</time>
</trkpt>
<trkpt lat="49.63136670179665" lon="9.48110000230372">
<ele>342</ele>
<time>2024-05-11T10:43:42Z</time>
</trkpt>
<trkpt lat="49.631393356248736" lon="9.481073347851634">
<ele>342.2</ele>
<time>2024-05-11T10:43:43Z</time>
</trkpt>
<trkpt lat="49.631420094519854" lon="9.481048537418246">
<ele>342.2</ele>
<time>2024-05-11T10:43:44Z</time>
</trkpt>
<trkpt lat="49.6314506046474" lon="9.481029510498049">
<ele>342.2</ele>
<time>2024-05-11T10:43:45Z</time>
</trkpt>
<trkpt lat="49.63148111477494" lon="9.481015177443624">
<ele>342.4</ele>
<time>2024-05-11T10:43:46Z</time>
</trkpt>
<trkpt lat="49.63151162490249" lon="9.481006544083357">
<ele>342.4</ele>
<time>2024-05-11T10:43:47Z</time>
</trkpt>
<trkpt lat="49.63154599070549" lon="9.48100369423628">
<ele>342.6</ele>
<time>2024-05-11T10:43:48Z</time>
</trkpt>
<trkpt lat="49.631576500833035" lon="9.48100470006466">
<ele>342.6</ele>
<time>2024-05-11T10:43:49Z</time>
</trkpt>
<trkpt lat="49.63160701096058" lon="9.481006544083357">
<ele>342.8</ele>
<time>2024-05-11T10:43:50Z</time>
</trkpt>
<trkpt lat="49.63164137676358" lon="9.481008471921086">
<ele>343</ele>
<time>2024-05-11T10:43:51Z</time>
</trkpt>
<trkpt lat="49.63167188689113" lon="9.481008471921086">
<ele>343.2</ele>
<time>2024-05-11T10:43:52Z</time>
</trkpt>
<trkpt lat="49.6317061688751" lon="9.481006544083357">
<ele>343.4</ele>
<time>2024-05-11T10:43:53Z</time>
</trkpt>
<trkpt lat="49.631732907146215" lon="9.481006544083357">
<ele>343.6</ele>
<time>2024-05-11T10:43:54Z</time>
</trkpt>
<trkpt lat="49.63176341727376" lon="9.48100185021758">
<ele>343.8</ele>
<time>2024-05-11T10:43:55Z</time>
</trkpt>
<trkpt lat="49.63179015554488" lon="9.480997072532771">
<ele>344</ele>
<time>2024-05-11T10:43:56Z</time>
</trkpt>
<trkpt lat="49.63181680999696" lon="9.480988439172506">
<ele>344</ele>
<time>2024-05-11T10:43:57Z</time>
</trkpt>
<trkpt lat="49.63184732012451" lon="9.480977961793542">
<ele>344.2</ele>
<time>2024-05-11T10:43:58Z</time>
</trkpt>
<trkpt lat="49.631874058395624" lon="9.48096362873912">
<ele>344.2</ele>
<time>2024-05-11T10:43:59Z</time>
</trkpt>
<trkpt lat="49.63190071284771" lon="9.48094367980957">
<ele>344.4</ele>
<time>2024-05-11T10:44:00Z</time>
</trkpt>
<trkpt lat="49.631931222975254" lon="9.48092364706099">
<ele>344.6</ele>
<time>2024-05-11T10:44:01Z</time>
</trkpt>
<trkpt lat="49.631954189389944" lon="9.48090453632176">
<ele>344.8</ele>
<time>2024-05-11T10:44:02Z</time>
</trkpt>
<trkpt lat="49.6319770719856" lon="9.48088450357318">
<ele>344.8</ele>
<time>2024-05-11T10:44:03Z</time>
</trkpt>
<trkpt lat="49.63199995458126" lon="9.48086354881525">
<ele>345</ele>
<time>2024-05-11T10:44:04Z</time>
</trkpt>
<trkpt lat="49.63201898150146" lon="9.480839660391212">
<ele>345.2</ele>
<time>2024-05-11T10:44:05Z</time>
</trkpt>
<trkpt lat="49.63203809224069" lon="9.480813005939126">
<ele>345.4</ele>
<time>2024-05-11T10:44:06Z</time>
</trkpt>
<trkpt lat="49.63205711916089" lon="9.480786267668009">
<ele>345.6</ele>
<time>2024-05-11T10:44:07Z</time>
</trkpt>
<trkpt lat="49.63207622990012" lon="9.480756679549811">
<ele>345.8</ele>
<time>2024-05-11T10:44:08Z</time>
</trkpt>
<trkpt lat="49.63209525682032" lon="9.480728097259998">
<ele>346</ele>
<time>2024-05-11T10:44:09Z</time>
</trkpt>
<trkpt lat="49.63211822323501" lon="9.480698509141805">
<ele>346</ele>
<time>2024-05-11T10:44:10Z</time>
</trkpt>
<trkpt lat="49.63213725015521" lon="9.480669926851988">
<ele>346.2</ele>
<time>2024-05-11T10:44:11Z</time>
</trkpt>
<trkpt lat="49.63215636089444" lon="9.480641344562171">
<ele>346.6</ele>
<time>2024-05-11T10:44:12Z</time>
</trkpt>
<trkpt lat="49.632171615958214" lon="9.480613684281709">
<ele>346.8</ele>
<time>2024-05-11T10:44:13Z</time>
</trkpt>
<trkpt lat="49.632186871021986" lon="9.48058501817286">
<ele>347</ele>
<time>2024-05-11T10:44:14Z</time>
</trkpt>
<trkpt lat="49.6321982704103" lon="9.480553586035969">
<ele>347</ele>
<time>2024-05-11T10:44:15Z</time>
</trkpt>
<trkpt lat="49.63221738114953" lon="9.48052785359323">
<ele>347.2</ele>
<time>2024-05-11T10:44:16Z</time>
</trkpt>
<trkpt lat="49.63222500868142" lon="9.480504970997572">
<ele>347.4</ele>
<time>2024-05-11T10:44:17Z</time>
</trkpt>
<trkpt lat="49.63224026374519" lon="9.480491559952496">
<ele>347.6</ele>
<time>2024-05-11T10:44:18Z</time>
</trkpt>
<trkpt lat="49.63225929066539" lon="9.480491559952496">
<ele>347.8</ele>
<time>2024-05-11T10:44:19Z</time>
</trkpt>
<trkpt lat="49.63228225708008" lon="9.48050974868238">
<ele>348</ele>
<time>2024-05-11T10:44:20Z</time>
</trkpt>
<trkpt lat="49.632305139675736" lon="9.480541180819271">
<ele>348.2</ele>
<time>2024-05-11T10:44:21Z</time>
</trkpt>
<trkpt lat="49.632324166595936" lon="9.480581246316431">
<ele>348.4</ele>
<time>2024-05-11T10:44:22Z</time>
</trkpt>
<trkpt lat="49.63233942165971" lon="9.480627933517098">
<ele>348.4</ele>
<time>2024-05-11T10:44:23Z</time>
</trkpt>
<trkpt lat="49.63235467672348" lon="9.480674704536796">
<ele>348.6</ele>
<time>2024-05-11T10:44:24Z</time>
</trkpt>
<trkpt lat="49.63237378746271" lon="9.48072331957519">
<ele>348.6</ele>
<time>2024-05-11T10:44:25Z</time>
</trkpt>
<trkpt lat="49.63239667005837" lon="9.480772018432615">
<ele>348.8</ele>
<time>2024-05-11T10:44:26Z</time>
</trkpt>
<trkpt lat="49.63241569697857" lon="9.480816777795551">
<ele>348.8</ele>
<time>2024-05-11T10:44:27Z</time>
</trkpt>
<trkpt lat="49.63243857957423" lon="9.48086547665298">
<ele>348.8</ele>
<time>2024-05-11T10:44:28Z</time>
</trkpt>
<trkpt lat="49.63246154598892" lon="9.480910236015916">
<ele>349</ele>
<time>2024-05-11T10:44:29Z</time>
</trkpt>
<trkpt lat="49.632488200441" lon="9.480955079197884">
<ele>349.2</ele>
<time>2024-05-11T10:44:30Z</time>
</trkpt>
<trkpt lat="49.63251493871212" lon="9.48100185021758">
<ele>349.4</ele>
<time>2024-05-11T10:44:31Z</time>
</trkpt>
<trkpt lat="49.632541593164206" lon="9.481050465255976">
<ele>349.4</ele>
<time>2024-05-11T10:44:32Z</time>
</trkpt>
<trkpt lat="49.63256833143532" lon="9.48110000230372">
<ele>349.6</ele>
<time>2024-05-11T10:44:33Z</time>
</trkpt>
<trkpt lat="49.63259498588741" lon="9.481148701161146">
<ele>349.6</ele>
<time>2024-05-11T10:44:34Z</time>
</trkpt>
<trkpt lat="49.632625579833984" lon="9.481196394190192">
<ele>349.8</ele>
<time>2024-05-11T10:44:35Z</time>
</trkpt>
<trkpt lat="49.63265986181795" lon="9.481249786913397">
<ele>349.8</ele>
<time>2024-05-11T10:44:36Z</time>
</trkpt>
<trkpt lat="49.63269799947739" lon="9.481305107474329">
<ele>350</ele>
<time>2024-05-11T10:44:37Z</time>
</trkpt>
<trkpt lat="49.63273613713682" lon="9.481363277882338">
<ele>350.2</ele>
<time>2024-05-11T10:44:38Z</time>
</trkpt>
<trkpt lat="49.632778130471706" lon="9.48141859844327">
<ele>350.4</ele>
<time>2024-05-11T10:44:39Z</time>
</trkpt>
<trkpt lat="49.63282012380659" lon="9.48147676885128">
<ele>350.6</ele>
<time>2024-05-11T10:44:40Z</time>
</trkpt>
<trkpt lat="49.63286203332245" lon="9.48153301142156">
<ele>350.6</ele>
<time>2024-05-11T10:44:41Z</time>
</trkpt>
<trkpt lat="49.63290779851377" lon="9.481588331982492">
<ele>350.8</ele>
<time>2024-05-11T10:44:42Z</time>
</trkpt>
<trkpt lat="49.63294979184866" lon="9.481641724705696">
<ele>350.8</ele>
<time>2024-05-11T10:44:43Z</time>
</trkpt>
<trkpt lat="49.632999412715435" lon="9.4816951174289">
<ele>350.8</ele>
<time>2024-05-11T10:44:44Z</time>
</trkpt>
<trkpt lat="49.63304517790675" lon="9.481744738295674">
<ele>350.8</ele>
<time>2024-05-11T10:44:45Z</time>
</trkpt>
<trkpt lat="49.633094714954495" lon="9.4817952811718">
<ele>350.8</ele>
<time>2024-05-11T10:44:46Z</time>
</trkpt>
<trkpt lat="49.63314433582127" lon="9.481844902038574">
<ele>350.8</ele>
<time>2024-05-11T10:44:47Z</time>
</trkpt>
<trkpt lat="49.63319395668805" lon="9.4818954449147">
<ele>350.8</ele>
<time>2024-05-11T10:44:48Z</time>
</trkpt>
<trkpt lat="49.63324734941125" lon="9.481943054124711">
<ele>350.8</ele>
<time>2024-05-11T10:44:49Z</time>
</trkpt>
<trkpt lat="49.63329688645899" lon="9.48198982514441">
<ele>350.8</ele>
<time>2024-05-11T10:44:50Z</time>
</trkpt>
<trkpt lat="49.63334650732577" lon="9.482036512345076">
<ele>350.8</ele>
<time>2024-05-11T10:44:51Z</time>
</trkpt>
<trkpt lat="49.633396128192544" lon="9.482080433517694">
<ele>350.8</ele>
<time>2024-05-11T10:44:52Z</time>
</trkpt>
<trkpt lat="49.63344566524029" lon="9.482119493186474">
<ele>350.8</ele>
<time>2024-05-11T10:44:53Z</time>
</trkpt>
<trkpt lat="49.63349151425064" lon="9.482154780998826">
<ele>350.8</ele>
<time>2024-05-11T10:44:54Z</time>
</trkpt>
<trkpt lat="49.633533423766494" lon="9.48218529112637">
<ele>350.8</ele>
<time>2024-05-11T10:44:55Z</time>
</trkpt>
<trkpt lat="49.63357156142592" lon="9.482216807082295">
<ele>350.6</ele>
<time>2024-05-11T10:44:56Z</time>
</trkpt>
<trkpt lat="49.633609699085355" lon="9.482248239219189">
<ele>350.4</ele>
<time>2024-05-11T10:44:57Z</time>
</trkpt>
<trkpt lat="49.633647836744785" lon="9.482279755175114">
<ele>350.2</ele>
<time>2024-05-11T10:44:58Z</time>
</trkpt>
<trkpt lat="49.63368220254779" lon="9.482311187312009">
<ele>350.2</ele>
<time>2024-05-11T10:44:59Z</time>
</trkpt>
<trkpt lat="49.63372034020722" lon="9.48234454728663">
<ele>350</ele>
<time>2024-05-11T10:45:00Z</time>
</trkpt>
<trkpt lat="49.63376233354211" lon="9.482379835098982">
<ele>349.8</ele>
<time>2024-05-11T10:45:01Z</time>
</trkpt>
<trkpt lat="49.63380047120154" lon="9.482411351054909">
<ele>349.8</ele>
<time>2024-05-11T10:45:02Z</time>
</trkpt>
<trkpt lat="49.63383860886097" lon="9.482441861182451">
<ele>349.6</ele>
<time>2024-05-11T10:45:03Z</time>
</trkpt>
<trkpt lat="49.6338767465204" lon="9.482469521462916">
<ele>349.6</ele>
<time>2024-05-11T10:45:04Z</time>
</trkpt>
<trkpt lat="49.63391488417983" lon="9.482500031590462">
<ele>349.4</ele>
<time>2024-05-11T10:45:05Z</time>
</trkpt>
<trkpt lat="49.63395302183926" lon="9.482528613880277">
<ele>349.4</ele>
<time>2024-05-11T10:45:06Z</time>
</trkpt>
<trkpt lat="49.63399115949869" lon="9.482556274160745">
<ele>349.4</ele>
<time>2024-05-11T10:45:07Z</time>
</trkpt>
<trkpt lat="49.634025525301695" lon="9.482586784288287">
<ele>349.4</ele>
<time>2024-05-11T10:45:08Z</time>
</trkpt>
<trkpt lat="49.6340598911047" lon="9.482614444568751">
<ele>349.4</ele>
<time>2024-05-11T10:45:09Z</time>
</trkpt>
<trkpt lat="49.63409040123224" lon="9.482640260830522">
<ele>349.4</ele>
<time>2024-05-11T10:45:10Z</time>
</trkpt>
<trkpt lat="49.634124683216214" lon="9.482666915282609">
<ele>349.6</ele>
<time>2024-05-11T10:45:11Z</time>
</trkpt>
<trkpt lat="49.63415519334376" lon="9.482694575563071">
<ele>349.6</ele>
<time>2024-05-11T10:45:12Z</time>
</trkpt>
<trkpt lat="49.63418955914676" lon="9.482727013528349">
<ele>349.8</ele>
<time>2024-05-11T10:45:13Z</time>
</trkpt>
<trkpt lat="49.634223924949765" lon="9.48275844566524">
<ele>349.8</ele>
<time>2024-05-11T10:45:14Z</time>
</trkpt>
<trkpt lat="49.63425820693374" lon="9.482791889458897">
<ele>350</ele>
<time>2024-05-11T10:45:15Z</time>
</trkpt>
<trkpt lat="49.63429257273674" lon="9.48281954973936">
<ele>350</ele>
<time>2024-05-11T10:45:16Z</time>
</trkpt>
<trkpt lat="49.63432685472071" lon="9.482850059866903">
<ele>350.2</ele>
<time>2024-05-11T10:45:17Z</time>
</trkpt>
<trkpt lat="49.634361220523715" lon="9.482879564166067">
<ele>350.2</ele>
<time>2024-05-11T10:45:18Z</time>
</trkpt>
<trkpt lat="49.63439558632672" lon="9.482912002131345">
<ele>350.4</ele>
<time>2024-05-11T10:45:19Z</time>
</trkpt>
<trkpt lat="49.63442986831069" lon="9.482948295772076">
<ele>350.4</ele>
<time>2024-05-11T10:45:20Z</time>
</trkpt>
<trkpt lat="49.63446423411369" lon="9.482984505593777">
<ele>350.4</ele>
<time>2024-05-11T10:45:21Z</time>
</trkpt>
<trkpt lat="49.634498516097665" lon="9.483021721243858">
<ele>350.6</ele>
<time>2024-05-11T10:45:22Z</time>
</trkpt>
<trkpt lat="49.63453673757613" lon="9.48305700905621">
<ele>350.6</ele>
<time>2024-05-11T10:45:23Z</time>
</trkpt>
<trkpt lat="49.6345710195601" lon="9.48309514671564">
<ele>350.8</ele>
<time>2024-05-11T10:45:24Z</time>
</trkpt>
<trkpt lat="49.6346053853631" lon="9.483131356537342">
<ele>351</ele>
<time>2024-05-11T10:45:25Z</time>
</trkpt>
<trkpt lat="49.63464352302253" lon="9.483169494196773">
<ele>351</ele>
<time>2024-05-11T10:45:26Z</time>
</trkpt>
<trkpt lat="49.63468166068196" lon="9.483208637684584">
<ele>351.2</ele>
<time>2024-05-11T10:45:27Z</time>
</trkpt>
<trkpt lat="49.634716026484966" lon="9.483246775344014">
<ele>351.2</ele>
<time>2024-05-11T10:45:28Z</time>
</trkpt>
<trkpt lat="49.63475030846894" lon="9.483286840841174">
<ele>351.4</ele>
<time>2024-05-11T10:45:29Z</time>
</trkpt>
<trkpt lat="49.63478844612837" lon="9.483324978500605">
<ele>351.4</ele>
<time>2024-05-11T10:45:30Z</time>
</trkpt>
<trkpt lat="49.6348265837878" lon="9.483365043997765">
<ele>351.6</ele>
<time>2024-05-11T10:45:31Z</time>
</trkpt>
<trkpt lat="49.63486480526626" lon="9.483405109494925">
<ele>351.8</ele>
<time>2024-05-11T10:45:32Z</time>
</trkpt>
<trkpt lat="49.63490294292569" lon="9.483445091173053">
<ele>351.8</ele>
<time>2024-05-11T10:45:33Z</time>
</trkpt>
<trkpt lat="49.63494485244155" lon="9.483483312651517">
<ele>352</ele>
<time>2024-05-11T10:45:34Z</time>
</trkpt>
<trkpt lat="49.63498299010098" lon="9.483521450310946">
<ele>352</ele>
<time>2024-05-11T10:45:35Z</time>
</trkpt>
<trkpt lat="49.63502112776041" lon="9.483558582141995">
<ele>352.2</ele>
<time>2024-05-11T10:45:36Z</time>
</trkpt>
<trkpt lat="49.6350631210953" lon="9.483594875782728">
<ele>352.2</ele>
<time>2024-05-11T10:45:37Z</time>
</trkpt>
<trkpt lat="49.63510511443019" lon="9.48363301344216">
<ele>352.4</ele>
<time>2024-05-11T10:45:38Z</time>
</trkpt>
<trkpt lat="49.635150879621506" lon="9.48366830125451">
<ele>352.4</ele>
<time>2024-05-11T10:45:39Z</time>
</trkpt>
<trkpt lat="49.63519664481282" lon="9.483701661229134">
<ele>352.4</ele>
<time>2024-05-11T10:45:40Z</time>
</trkpt>
<trkpt lat="49.63523863814771" lon="9.48373317718506">
<ele>352.4</ele>
<time>2024-05-11T10:45:41Z</time>
</trkpt>
<trkpt lat="49.635288175195456" lon="9.483764609321952">
<ele>352.4</ele>
<time>2024-05-11T10:45:42Z</time>
</trkpt>
<trkpt lat="49.63533779606223" lon="9.483797969296576">
<ele>352.4</ele>
<time>2024-05-11T10:45:43Z</time>
</trkpt>
<trkpt lat="49.635391188785434" lon="9.483831329271196">
<ele>352.4</ele>
<time>2024-05-11T10:45:44Z</time>
</trkpt>
<trkpt lat="49.63544080965221" lon="9.483861923217772">
<ele>352.4</ele>
<time>2024-05-11T10:45:45Z</time>
</trkpt>
<trkpt lat="49.63549034669995" lon="9.483895283192396">
<ele>352.4</ele>
<time>2024-05-11T10:45:46Z</time>
</trkpt>
<trkpt lat="49.63554382324219" lon="9.48392864316702">
<ele>352.4</ele>
<time>2024-05-11T10:45:47Z</time>
</trkpt>
<trkpt lat="49.63559336028993" lon="9.483960075303912">
<ele>352.4</ele>
<time>2024-05-11T10:45:48Z</time>
</trkpt>
<trkpt lat="49.635646753013134" lon="9.483989663422108">
<ele>352.4</ele>
<time>2024-05-11T10:45:49Z</time>
</trkpt>
<trkpt lat="49.63570014573634" lon="9.484022101387382">
<ele>352.4</ele>
<time>2024-05-11T10:45:50Z</time>
</trkpt>
<trkpt lat="49.63575362227857" lon="9.484058311209084">
<ele>352.4</ele>
<time>2024-05-11T10:45:51Z</time>
</trkpt>
<trkpt lat="49.635807015001774" lon="9.484093599021437">
<ele>352.4</ele>
<time>2024-05-11T10:45:52Z</time>
</trkpt>
<trkpt lat="49.63585655204952" lon="9.484127964824438">
<ele>352.4</ele>
<time>2024-05-11T10:45:53Z</time>
</trkpt>
<trkpt lat="49.63590617291629" lon="9.48416518047452">
<ele>352.4</ele>
<time>2024-05-11T10:45:54Z</time>
</trkpt>
<trkpt lat="49.635959565639496" lon="9.48420139029622">
<ele>352.2</ele>
<time>2024-05-11T10:45:55Z</time>
</trkpt>
<trkpt lat="49.63600918650627" lon="9.48424145579338">
<ele>352.2</ele>
<time>2024-05-11T10:45:56Z</time>
</trkpt>
<trkpt lat="49.63605495169759" lon="9.484283365309238">
<ele>352</ele>
<time>2024-05-11T10:45:57Z</time>
</trkpt>
<trkpt lat="49.63610457256436" lon="9.484323430806398">
<ele>351.8</ele>
<time>2024-05-11T10:45:58Z</time>
</trkpt>
<trkpt lat="49.63615410961211" lon="9.484366346150637">
<ele>351.6</ele>
<time>2024-05-11T10:45:59Z</time>
</trkpt>
<trkpt lat="49.636199874803424" lon="9.484410267323256">
<ele>351.6</ele>
<time>2024-05-11T10:46:00Z</time>
</trkpt>
<trkpt lat="49.63624186813831" lon="9.484453182667494">
<ele>351.4</ele>
<time>2024-05-11T10:46:01Z</time>
</trkpt>
<trkpt lat="49.63628763332963" lon="9.48449794203043">
<ele>351.4</ele>
<time>2024-05-11T10:46:02Z</time>
</trkpt>
<trkpt lat="49.63632962666452" lon="9.484541863203049">
<ele>351.2</ele>
<time>2024-05-11T10:46:03Z</time>
</trkpt>
<trkpt lat="49.63636776432395" lon="9.484586706385016">
<ele>351.2</ele>
<time>2024-05-11T10:46:04Z</time>
</trkpt>
<trkpt lat="49.63640213012695" lon="9.484631465747952">
<ele>351.2</ele>
<time>2024-05-11T10:46:05Z</time>
</trkpt>
<trkpt lat="49.636436412110925" lon="9.484675386920571">
<ele>351.2</ele>
<time>2024-05-11T10:46:06Z</time>
</trkpt>
<trkpt lat="49.63647077791393" lon="9.48471637442708">
<ele>351.2</ele>
<time>2024-05-11T10:46:07Z</time>
</trkpt>
<trkpt lat="49.6365050598979" lon="9.48475643992424">
<ele>351.2</ele>
<time>2024-05-11T10:46:08Z</time>
</trkpt>
<trkpt lat="49.63653179816902" lon="9.484798349440098">
<ele>351.4</ele>
<time>2024-05-11T10:46:09Z</time>
</trkpt>
<trkpt lat="49.63656608015299" lon="9.484840342774987">
<ele>351.4</ele>
<time>2024-05-11T10:46:10Z</time>
</trkpt>
<trkpt lat="49.636596674099565" lon="9.484880408272147">
<ele>351.6</ele>
<time>2024-05-11T10:46:11Z</time>
</trkpt>
<trkpt lat="49.63662718422711" lon="9.484921395778656">
<ele>351.8</ele>
<time>2024-05-11T10:46:12Z</time>
</trkpt>
<trkpt lat="49.636653838679194" lon="9.484965316951277">
<ele>351.8</ele>
<time>2024-05-11T10:46:13Z</time>
</trkpt>
<trkpt lat="49.63668434880674" lon="9.485006304457784">
<ele>352</ele>
<time>2024-05-11T10:46:14Z</time>
</trkpt>
<trkpt lat="49.636711087077856" lon="9.48505014181137">
<ele>352</ele>
<time>2024-05-11T10:46:15Z</time>
</trkpt>
<trkpt lat="49.63673774152994" lon="9.48509112931788">
<ele>352.2</ele>
<time>2024-05-11T10:46:16Z</time>
</trkpt>
<trkpt lat="49.63676833547652" lon="9.485133122652767">
<ele>352.2</ele>
<time>2024-05-11T10:46:17Z</time>
</trkpt>
<trkpt lat="49.6367949899286" lon="9.485173188149927">
<ele>352.2</ele>
<time>2024-05-11T10:46:18Z</time>
</trkpt>
<trkpt lat="49.63682172819972" lon="9.485215181484818">
<ele>352.2</ele>
<time>2024-05-11T10:46:19Z</time>
</trkpt>
<trkpt lat="49.636848382651806" lon="9.485256168991327">
<ele>352.4</ele>
<time>2024-05-11T10:46:20Z</time>
</trkpt>
<trkpt lat="49.63687512092292" lon="9.485301934182644">
<ele>352.4</ele>
<time>2024-05-11T10:46:21Z</time>
</trkpt>
<trkpt lat="49.63690177537501" lon="9.485341999679804">
<ele>352.6</ele>
<time>2024-05-11T10:46:22Z</time>
</trkpt>
<trkpt lat="49.636932369321585" lon="9.485382987186313">
<ele>352.6</ele>
<time>2024-05-11T10:46:23Z</time>
</trkpt>
<trkpt lat="49.63695902377367" lon="9.4854268245399">
<ele>352.8</ele>
<time>2024-05-11T10:46:24Z</time>
</trkpt>
<trkpt lat="49.63698576204479" lon="9.48546789586544">
<ele>353</ele>
<time>2024-05-11T10:46:25Z</time>
</trkpt>
<trkpt lat="49.63701627217233" lon="9.485513661056755">
<ele>353.2</ele>
<time>2024-05-11T10:46:26Z</time>
</trkpt>
<trkpt lat="49.63704292662442" lon="9.485560348257422">
<ele>353.4</ele>
<time>2024-05-11T10:46:27Z</time>
</trkpt>
<trkpt lat="49.63706580922008" lon="9.48560519143939">
<ele>353.6</ele>
<time>2024-05-11T10:46:28Z</time>
</trkpt>
<trkpt lat="49.63709254749119" lon="9.485648106783628">
<ele>353.8</ele>
<time>2024-05-11T10:46:29Z</time>
</trkpt>
<trkpt lat="49.63711928576231" lon="9.485688172280788">
<ele>353.8</ele>
<time>2024-05-11T10:46:30Z</time>
</trkpt>
<trkpt lat="49.6371459402144" lon="9.485730165615678">
<ele>354</ele>
<time>2024-05-11T10:46:31Z</time>
</trkpt>
<trkpt lat="49.63717267848551" lon="9.485771153122188">
<ele>354.2</ele>
<time>2024-05-11T10:46:32Z</time>
</trkpt>
<trkpt lat="49.6371993329376" lon="9.485813062638044">
<ele>354.4</ele>
<time>2024-05-11T10:46:33Z</time>
</trkpt>
<trkpt lat="49.637226071208715" lon="9.485855055972934">
<ele>354.4</ele>
<time>2024-05-11T10:46:34Z</time>
</trkpt>
<trkpt lat="49.637248953804374" lon="9.485895121470094">
<ele>354.6</ele>
<time>2024-05-11T10:46:35Z</time>
</trkpt>
<trkpt lat="49.63727569207549" lon="9.485938036814332">
<ele>354.6</ele>
<time>2024-05-11T10:46:36Z</time>
</trkpt>
<trkpt lat="49.637302346527576" lon="9.48598187416792">
<ele>354.6</ele>
<time>2024-05-11T10:46:37Z</time>
</trkpt>
<trkpt lat="49.637325229123235" lon="9.48602294549346">
<ele>354.8</ele>
<time>2024-05-11T10:46:38Z</time>
</trkpt>
<trkpt lat="49.63735196739435" lon="9.486064855009316">
<ele>355</ele>
<time>2024-05-11T10:46:39Z</time>
</trkpt>
<trkpt lat="49.63737484999001" lon="9.486104920506476">
<ele>355.2</ele>
<time>2024-05-11T10:46:40Z</time>
</trkpt>
<trkpt lat="49.637401504442096" lon="9.486144986003636">
<ele>355.2</ele>
<time>2024-05-11T10:46:41Z</time>
</trkpt>
<trkpt lat="49.63742824271321" lon="9.486186979338529">
<ele>355.6</ele>
<time>2024-05-11T10:46:42Z</time>
</trkpt>
<trkpt lat="49.63745498098433" lon="9.486226961016657">
<ele>355.8</ele>
<time>2024-05-11T10:46:43Z</time>
</trkpt>
<trkpt lat="49.63747786357999" lon="9.486267026513817">
<ele>356</ele>
<time>2024-05-11T10:46:44Z</time>
</trkpt>
<trkpt lat="49.63750074617565" lon="9.486308097839355">
<ele>356.4</ele>
<time>2024-05-11T10:46:45Z</time>
</trkpt>
<trkpt lat="49.63752740062773" lon="9.486351935192944">
<ele>356.6</ele>
<time>2024-05-11T10:46:46Z</time>
</trkpt>
<trkpt lat="49.63755413889885" lon="9.48639485053718">
<ele>356.8</ele>
<time>2024-05-11T10:46:47Z</time>
</trkpt>
<trkpt lat="49.637580793350935" lon="9.48643684387207">
<ele>357</ele>
<time>2024-05-11T10:46:48Z</time>
</trkpt>
<trkpt lat="49.63760753162205" lon="9.486478753387928">
<ele>357.2</ele>
<time>2024-05-11T10:46:49Z</time>
</trkpt>
<trkpt lat="49.63763426989317" lon="9.486521668732166">
<ele>357.2</ele>
<time>2024-05-11T10:46:50Z</time>
</trkpt>
<trkpt lat="49.637660924345255" lon="9.486564584076405">
<ele>357.4</ele>
<time>2024-05-11T10:46:51Z</time>
</trkpt>
<trkpt lat="49.63768380694091" lon="9.486608505249023">
<ele>357.6</ele>
<time>2024-05-11T10:46:52Z</time>
</trkpt>
<trkpt lat="49.63771054521203" lon="9.486648486927152">
<ele>357.8</ele>
<time>2024-05-11T10:46:53Z</time>
</trkpt>
<trkpt lat="49.63773719966411" lon="9.486689558252692">
<ele>358</ele>
<time>2024-05-11T10:46:54Z</time>
</trkpt>
<trkpt lat="49.63776393793523" lon="9.48673146776855">
<ele>358.2</ele>
<time>2024-05-11T10:46:55Z</time>
</trkpt>
<trkpt lat="49.63779067620635" lon="9.48677153326571">
<ele>358.4</ele>
<time>2024-05-11T10:46:56Z</time>
</trkpt>
<trkpt lat="49.637821186333895" lon="9.486815370619295">
<ele>358.6</ele>
<time>2024-05-11T10:46:57Z</time>
</trkpt>
<trkpt lat="49.63785169646144" lon="9.486860213801265">
<ele>358.8</ele>
<time>2024-05-11T10:46:58Z</time>
</trkpt>
<trkpt lat="49.637878350913525" lon="9.486900279298425">
<ele>359</ele>
<time>2024-05-11T10:46:59Z</time>
</trkpt>
<trkpt lat="49.63790508918464" lon="9.486938416957855">
<ele>359</ele>
<time>2024-05-11T10:47:00Z</time>
</trkpt>
<trkpt lat="49.6379279717803" lon="9.486980410292745">
<ele>359.2</ele>
<time>2024-05-11T10:47:01Z</time>
</trkpt>
<trkpt lat="49.63795085437596" lon="9.487021397799252">
<ele>359.4</ele>
<time>2024-05-11T10:47:02Z</time>
</trkpt>
<trkpt lat="49.63797759264707" lon="9.487059535458684">
<ele>359.6</ele>
<time>2024-05-11T10:47:03Z</time>
</trkpt>
<trkpt lat="49.638000475242734" lon="9.487101528793572">
<ele>359.8</ele>
<time>2024-05-11T10:47:04Z</time>
</trkpt>
<trkpt lat="49.63802712969482" lon="9.487143438309433">
<ele>360</ele>
<time>2024-05-11T10:47:05Z</time>
</trkpt>
<trkpt lat="49.63805001229048" lon="9.487184509634972">
<ele>360.2</ele>
<time>2024-05-11T10:47:06Z</time>
</trkpt>
<trkpt lat="49.638076750561595" lon="9.48722641915083">
<ele>360.4</ele>
<time>2024-05-11T10:47:07Z</time>
</trkpt>
<trkpt lat="49.63809963315725" lon="9.48726648464799">
<ele>360.6</ele>
<time>2024-05-11T10:47:08Z</time>
</trkpt>
<trkpt lat="49.63812637142837" lon="9.48730462230742">
<ele>360.8</ele>
<time>2024-05-11T10:47:09Z</time>
</trkpt>
<trkpt lat="49.63814925402403" lon="9.48734376579523">
<ele>361</ele>
<time>2024-05-11T10:47:10Z</time>
</trkpt>
<trkpt lat="49.63817213661969" lon="9.48738190345466">
<ele>361.2</ele>
<time>2024-05-11T10:47:11Z</time>
</trkpt>
<trkpt lat="49.638195019215345" lon="9.487420041114092">
<ele>361.2</ele>
<time>2024-05-11T10:47:12Z</time>
</trkpt>
<trkpt lat="49.63821790181101" lon="9.487458178773522">
<ele>361.4</ele>
<time>2024-05-11T10:47:13Z</time>
</trkpt>
<trkpt lat="49.63824078440666" lon="9.487495394423604">
<ele>361.6</ele>
<time>2024-05-11T10:47:14Z</time>
</trkpt>
<trkpt lat="49.63826366700232" lon="9.487527832388878">
<ele>361.8</ele>
<time>2024-05-11T10:47:15Z</time>
</trkpt>
<trkpt lat="49.63828654959798" lon="9.48756312020123">
<ele>361.8</ele>
<time>2024-05-11T10:47:16Z</time>
</trkpt>
<trkpt lat="49.63830943219364" lon="9.48760318569839">
<ele>362</ele>
<time>2024-05-11T10:47:17Z</time>
</trkpt>
<trkpt lat="49.638332314789295" lon="9.48764132335782">
<ele>362</ele>
<time>2024-05-11T10:47:18Z</time>
</trkpt>
<trkpt lat="49.638351425528526" lon="9.48767845518887">
<ele>362.2</ele>
<time>2024-05-11T10:47:19Z</time>
</trkpt>
<trkpt lat="49.638374308124185" lon="9.487714748829603">
<ele>362.2</ele>
<time>2024-05-11T10:47:20Z</time>
</trkpt>
<trkpt lat="49.63839719071984" lon="9.487746180966496">
<ele>362.4</ele>
<time>2024-05-11T10:47:21Z</time>
</trkpt>
<trkpt lat="49.6384200733155" lon="9.48777954094112">
<ele>362.6</ele>
<time>2024-05-11T10:47:22Z</time>
</trkpt>
<trkpt lat="49.63844672776759" lon="9.487812984734774">
<ele>362.8</ele>
<time>2024-05-11T10:47:23Z</time>
</trkpt>
<trkpt lat="49.63846969418228" lon="9.487845338881016">
<ele>363</ele>
<time>2024-05-11T10:47:24Z</time>
</trkpt>
<trkpt lat="49.63848872110248" lon="9.48787878267467">
<ele>363.2</ele>
<time>2024-05-11T10:47:25Z</time>
</trkpt>
<trkpt lat="49.638511603698134" lon="9.487913064658642">
<ele>363.4</ele>
<time>2024-05-11T10:47:26Z</time>
</trkpt>
<trkpt lat="49.63853834196925" lon="9.487948352470994">
<ele>363.4</ele>
<time>2024-05-11T10:47:27Z</time>
</trkpt>
<trkpt lat="49.63856122456491" lon="9.487984646111729">
<ele>363.6</ele>
<time>2024-05-11T10:47:28Z</time>
</trkpt>
<trkpt lat="49.63858410716057" lon="9.488023705780506">
<ele>363.8</ele>
<time>2024-05-11T10:47:29Z</time>
</trkpt>
<trkpt lat="49.63860698975623" lon="9.488059915602207">
<ele>364</ele>
<time>2024-05-11T10:47:30Z</time>
</trkpt>
<trkpt lat="49.638629872351885" lon="9.48809813708067">
<ele>364.2</ele>
<time>2024-05-11T10:47:31Z</time>
</trkpt>
<trkpt lat="49.63865275494754" lon="9.488133424893022">
<ele>364.4</ele>
<time>2024-05-11T10:47:32Z</time>
</trkpt>
<trkpt lat="49.6386756375432" lon="9.488166784867644">
<ele>364.6</ele>
<time>2024-05-11T10:47:33Z</time>
</trkpt>
<trkpt lat="49.63869852013886" lon="9.488200144842269">
<ele>365</ele>
<time>2024-05-11T10:47:34Z</time>
</trkpt>
<trkpt lat="49.63872140273452" lon="9.48823543265462">
<ele>365.2</ele>
<time>2024-05-11T10:47:35Z</time>
</trkpt>
<trkpt lat="49.638744285330176" lon="9.488267870619891">
<ele>365.2</ele>
<time>2024-05-11T10:47:36Z</time>
</trkpt>
<trkpt lat="49.63876339606941" lon="9.488305086269976">
<ele>365.4</ele>
<time>2024-05-11T10:47:37Z</time>
</trkpt>
<trkpt lat="49.638786278665066" lon="9.488340374082329">
<ele>365.6</ele>
<time>2024-05-11T10:47:38Z</time>
</trkpt>
<trkpt lat="49.63880916126072" lon="9.488378511741756">
<ele>366</ele>
<time>2024-05-11T10:47:39Z</time>
</trkpt>
<trkpt lat="49.638828271999955" lon="9.488414721563458">
<ele>366</ele>
<time>2024-05-11T10:47:40Z</time>
</trkpt>
<trkpt lat="49.63885492645204" lon="9.48845000937581">
<ele>366.2</ele>
<time>2024-05-11T10:47:41Z</time>
</trkpt>
<trkpt lat="49.6388778090477" lon="9.488486219197512">
<ele>366.4</ele>
<time>2024-05-11T10:47:42Z</time>
</trkpt>
<trkpt lat="49.63890069164336" lon="9.488519662991166">
<ele>366.6</ele>
<time>2024-05-11T10:47:43Z</time>
</trkpt>
<trkpt lat="49.63891980238259" lon="9.488552017137408">
<ele>366.8</ele>
<time>2024-05-11T10:47:44Z</time>
</trkpt>
<trkpt lat="49.63894268497825" lon="9.488581605255604">
<ele>367</ele>
<time>2024-05-11T10:47:45Z</time>
</trkpt>
<trkpt lat="49.638961711898446" lon="9.4886111933738">
<ele>367.2</ele>
<time>2024-05-11T10:47:46Z</time>
</trkpt>
<trkpt lat="49.638984678313136" lon="9.488643631339071">
<ele>367.4</ele>
<time>2024-05-11T10:47:47Z</time>
</trkpt>
<trkpt lat="49.639003705233335" lon="9.488676991313696">
<ele>367.4</ele>
<time>2024-05-11T10:47:48Z</time>
</trkpt>
<trkpt lat="49.63902281597257" lon="9.488706579431891">
<ele>367.6</ele>
<time>2024-05-11T10:47:49Z</time>
</trkpt>
<trkpt lat="49.639041842892766" lon="9.488739939406514">
<ele>367.6</ele>
<time>2024-05-11T10:47:50Z</time>
</trkpt>
<trkpt lat="49.639060953632" lon="9.48876952752471">
<ele>367.8</ele>
<time>2024-05-11T10:47:51Z</time>
</trkpt>
<trkpt lat="49.6390799805522" lon="9.488800037652254">
<ele>367.8</ele>
<time>2024-05-11T10:47:52Z</time>
</trkpt>
<trkpt lat="49.63909909129143" lon="9.488828619942067">
<ele>368</ele>
<time>2024-05-11T10:47:53Z</time>
</trkpt>
<trkpt lat="49.63911811821163" lon="9.488856280222535">
<ele>368.2</ele>
<time>2024-05-11T10:47:54Z</time>
</trkpt>
<trkpt lat="49.639141000807285" lon="9.48888486251235">
<ele>368.2</ele>
<time>2024-05-11T10:47:55Z</time>
</trkpt>
<trkpt lat="49.63916011154651" lon="9.488913528621197">
<ele>368.4</ele>
<time>2024-05-11T10:47:56Z</time>
</trkpt>
<trkpt lat="49.63917922228575" lon="9.48894303292036">
<ele>368.6</ele>
<time>2024-05-11T10:47:57Z</time>
</trkpt>
<trkpt lat="49.63919824920595" lon="9.488973543047903">
<ele>368.8</ele>
<time>2024-05-11T10:47:58Z</time>
</trkpt>
<trkpt lat="49.639221131801605" lon="9.4890031311661">
<ele>369</ele>
<time>2024-05-11T10:47:59Z</time>
</trkpt>
<trkpt lat="49.63924024254083" lon="9.489033641293643">
<ele>369.2</ele>
<time>2024-05-11T10:48:00Z</time>
</trkpt>
<trkpt lat="49.63925926946104" lon="9.489061301574113">
<ele>369.4</ele>
<time>2024-05-11T10:48:01Z</time>
</trkpt>
<trkpt lat="49.63927838020027" lon="9.489091811701655">
<ele>369.6</ele>
<time>2024-05-11T10:48:02Z</time>
</trkpt>
<trkpt lat="49.639297407120466" lon="9.489120477810502">
<ele>369.8</ele>
<time>2024-05-11T10:48:03Z</time>
</trkpt>
<trkpt lat="49.6393165178597" lon="9.48914621025324">
<ele>370</ele>
<time>2024-05-11T10:48:04Z</time>
</trkpt>
<trkpt lat="49.63933562859893" lon="9.489174792543054">
<ele>370.2</ele>
<time>2024-05-11T10:48:05Z</time>
</trkpt>
<trkpt lat="49.63935851119459" lon="9.489205302670598">
<ele>370.6</ele>
<time>2024-05-11T10:48:06Z</time>
</trkpt>
<trkpt lat="49.63937376625836" lon="9.489232962951064">
<ele>370.8</ele>
<time>2024-05-11T10:48:07Z</time>
</trkpt>
<trkpt lat="49.63939279317856" lon="9.48926154524088">
<ele>371</ele>
<time>2024-05-11T10:48:08Z</time>
</trkpt>
<trkpt lat="49.63941190391779" lon="9.489290211349726">
<ele>371.4</ele>
<time>2024-05-11T10:48:09Z</time>
</trkpt>
<trkpt lat="49.63943093083799" lon="9.48931979946792">
<ele>371.6</ele>
<time>2024-05-11T10:48:10Z</time>
</trkpt>
<trkpt lat="49.63945004157722" lon="9.489348381757736">
<ele>372</ele>
<time>2024-05-11T10:48:11Z</time>
</trkpt>
<trkpt lat="49.63946906849742" lon="9.489376964047551">
<ele>372.2</ele>
<time>2024-05-11T10:48:12Z</time>
</trkpt>
<trkpt lat="49.63948817923665" lon="9.489403702318668">
<ele>372.4</ele>
<time>2024-05-11T10:48:13Z</time>
</trkpt>
<trkpt lat="49.63950728997588" lon="9.489430356770754">
<ele>372.8</ele>
<time>2024-05-11T10:48:14Z</time>
</trkpt>
<trkpt lat="49.639522545039654" lon="9.489456173032522">
<ele>373</ele>
<time>2024-05-11T10:48:15Z</time>
</trkpt>
<trkpt lat="49.63954157195985" lon="9.48948190547526">
<ele>373.2</ele>
<time>2024-05-11T10:48:16Z</time>
</trkpt>
<trkpt lat="49.639556827023625" lon="9.489506715908648">
<ele>373.4</ele>
<time>2024-05-11T10:48:17Z</time>
</trkpt>
<trkpt lat="49.6395720820874" lon="9.489533370360732">
<ele>373.6</ele>
<time>2024-05-11T10:48:18Z</time>
</trkpt>
<trkpt lat="49.63959119282663" lon="9.489562958478928">
<ele>373.8</ele>
<time>2024-05-11T10:48:19Z</time>
</trkpt>
<trkpt lat="49.63961021974683" lon="9.489591540768744">
<ele>374.2</ele>
<time>2024-05-11T10:48:20Z</time>
</trkpt>
<trkpt lat="49.63962933048606" lon="9.48962020687759">
<ele>374.4</ele>
<time>2024-05-11T10:48:21Z</time>
</trkpt>
<trkpt lat="49.63964835740626" lon="9.489646861329676">
<ele>374.4</ele>
<time>2024-05-11T10:48:22Z</time>
</trkpt>
<trkpt lat="49.63966369628906" lon="9.489673599600792">
<ele>374.6</ele>
<time>2024-05-11T10:48:23Z</time>
</trkpt>
<trkpt lat="49.63968272320926" lon="9.48969648219645">
<ele>374.8</ele>
<time>2024-05-11T10:48:24Z</time>
</trkpt>
<trkpt lat="49.63970183394849" lon="9.489721292629838">
<ele>375</ele>
<time>2024-05-11T10:48:25Z</time>
</trkpt>
<trkpt lat="49.639717089012265" lon="9.489749874919651">
<ele>375.2</ele>
<time>2024-05-11T10:48:26Z</time>
</trkpt>
<trkpt lat="49.639736115932465" lon="9.489776529371738">
<ele>375.4</ele>
<time>2024-05-11T10:48:27Z</time>
</trkpt>
<trkpt lat="49.639755226671696" lon="9.489801339805126">
<ele>375.6</ele>
<time>2024-05-11T10:48:28Z</time>
</trkpt>
<trkpt lat="49.63977048173547" lon="9.489826150238514">
<ele>375.8</ele>
<time>2024-05-11T10:48:29Z</time>
</trkpt>
<trkpt lat="49.63978950865567" lon="9.489852888509631">
<ele>376</ele>
<time>2024-05-11T10:48:30Z</time>
</trkpt>
<trkpt lat="49.63980476371944" lon="9.489878620952368">
<ele>376</ele>
<time>2024-05-11T10:48:31Z</time>
</trkpt>
<trkpt lat="49.63982001878321" lon="9.489905275404452">
<ele>376.2</ele>
<time>2024-05-11T10:48:32Z</time>
</trkpt>
<trkpt lat="49.639835357666016" lon="9.489928241819143">
<ele>376.4</ele>
<time>2024-05-11T10:48:33Z</time>
</trkpt>
<trkpt lat="49.63985061272979" lon="9.4899529684335">
<ele>376.6</ele>
<time>2024-05-11T10:48:34Z</time>
</trkpt>
<trkpt lat="49.63986586779356" lon="9.489979706704617">
<ele>376.6</ele>
<time>2024-05-11T10:48:35Z</time>
</trkpt>
<trkpt lat="49.63988112285733" lon="9.490006444975734">
<ele>376.8</ele>
<time>2024-05-11T10:48:36Z</time>
</trkpt>
<trkpt lat="49.639896377921104" lon="9.49003309942782">
<ele>377</ele>
<time>2024-05-11T10:48:37Z</time>
</trkpt>
<trkpt lat="49.63991163298488" lon="9.490063609555364">
<ele>377.2</ele>
<time>2024-05-11T10:48:38Z</time>
</trkpt>
<trkpt lat="49.63992688804865" lon="9.49009319767356">
<ele>377.6</ele>
<time>2024-05-11T10:48:39Z</time>
</trkpt>
<trkpt lat="49.63994977064431" lon="9.490121779963374">
<ele>377.8</ele>
<time>2024-05-11T10:48:40Z</time>
</trkpt>
<trkpt lat="49.63996502570808" lon="9.490148518234491">
<ele>378</ele>
<time>2024-05-11T10:48:41Z</time>
</trkpt>
<trkpt lat="49.63998405262828" lon="9.490177100524306">
<ele>378.4</ele>
<time>2024-05-11T10:48:42Z</time>
</trkpt>
<trkpt lat="49.64000316336751" lon="9.490202832967045">
<ele>378.6</ele>
<time>2024-05-11T10:48:43Z</time>
</trkpt>
<trkpt lat="49.64002227410674" lon="9.490233343094587">
<ele>378.8</ele>
<time>2024-05-11T10:48:44Z</time>
</trkpt>
<trkpt lat="49.6400451567024" lon="9.490262931212785">
<ele>379</ele>
<time>2024-05-11T10:48:45Z</time>
</trkpt>
<trkpt lat="49.64006041176617" lon="9.490293441340327">
<ele>379.4</ele>
<time>2024-05-11T10:48:46Z</time>
</trkpt>
<trkpt lat="49.64007943868637" lon="9.490322107449174">
<ele>379.6</ele>
<time>2024-05-11T10:48:47Z</time>
</trkpt>
<trkpt lat="49.64009469375014" lon="9.49034976772964">
<ele>380</ele>
<time>2024-05-11T10:48:48Z</time>
</trkpt>
<trkpt lat="49.640113804489374" lon="9.490380277857184">
<ele>380.2</ele>
<time>2024-05-11T10:48:49Z</time>
</trkpt>
<trkpt lat="49.64013668708503" lon="9.490409782156348">
<ele>380.4</ele>
<time>2024-05-11T10:48:50Z</time>
</trkpt>
<trkpt lat="49.640151942148805" lon="9.490440292283893">
<ele>380.6</ele>
<time>2024-05-11T10:48:51Z</time>
</trkpt>
<trkpt lat="49.64017482474446" lon="9.490469880402088">
<ele>380.8</ele>
<time>2024-05-11T10:48:52Z</time>
</trkpt>
<trkpt lat="49.640193935483694" lon="9.490500390529633">
<ele>381</ele>
<time>2024-05-11T10:48:53Z</time>
</trkpt>
<trkpt lat="49.64021681807935" lon="9.4905280508101">
<ele>381.2</ele>
<time>2024-05-11T10:48:54Z</time>
</trkpt>
<trkpt lat="49.64023584499955" lon="9.490556716918944">
<ele>381.4</ele>
<time>2024-05-11T10:48:55Z</time>
</trkpt>
<trkpt lat="49.64025872759521" lon="9.49058622121811">
<ele>381.6</ele>
<time>2024-05-11T10:48:56Z</time>
</trkpt>
<trkpt lat="49.64028161019087" lon="9.490619581192732">
<ele>381.8</ele>
<time>2024-05-11T10:48:57Z</time>
</trkpt>
<trkpt lat="49.6403007209301" lon="9.490653024986386">
<ele>382</ele>
<time>2024-05-11T10:48:58Z</time>
</trkpt>
<trkpt lat="49.64032360352576" lon="9.490688312798738">
<ele>382.2</ele>
<time>2024-05-11T10:48:59Z</time>
</trkpt>
<trkpt lat="49.640346486121416" lon="9.49072360061109">
<ele>382.4</ele>
<time>2024-05-11T10:49:00Z</time>
</trkpt>
<trkpt lat="49.64037699624896" lon="9.490759810432792">
<ele>382.6</ele>
<time>2024-05-11T10:49:01Z</time>
</trkpt>
<trkpt lat="49.64041136205197" lon="9.490793170407414">
<ele>382.6</ele>
<time>2024-05-11T10:49:02Z</time>
</trkpt>
<trkpt lat="49.640445644035935" lon="9.49082468636334">
<ele>382.8</ele>
<time>2024-05-11T10:49:03Z</time>
</trkpt>
<trkpt lat="49.640487637370825" lon="9.490848490968348">
<ele>383</ele>
<time>2024-05-11T10:49:04Z</time>
</trkpt>
<trkpt lat="49.6405372582376" lon="9.490859974175692">
<ele>383.2</ele>
<time>2024-05-11T10:49:05Z</time>
</trkpt>
<trkpt lat="49.6405906509608" lon="9.490858046337962">
<ele>383.2</ele>
<time>2024-05-11T10:49:06Z</time>
</trkpt>
<trkpt lat="49.64064781554043" lon="9.490837091580032">
<ele>383.4</ele>
<time>2024-05-11T10:49:07Z</time>
</trkpt>
<trkpt lat="49.640705063939095" lon="9.490797948092222">
<ele>383.4</ele>
<time>2024-05-11T10:49:08Z</time>
</trkpt>
<trkpt lat="49.64076231233776" lon="9.490748327225448">
<ele>383.4</ele>
<time>2024-05-11T10:49:09Z</time>
</trkpt>
<trkpt lat="49.640823332592845" lon="9.490694934502244">
<ele>383.4</ele>
<time>2024-05-11T10:49:10Z</time>
</trkpt>
<trkpt lat="49.640884352847934" lon="9.490636764094234">
<ele>383.2</ele>
<time>2024-05-11T10:49:11Z</time>
</trkpt>
<trkpt lat="49.64094922877848" lon="9.490571971982718">
<ele>383</ele>
<time>2024-05-11T10:49:12Z</time>
</trkpt>
<trkpt lat="49.641017876565456" lon="9.490509945899248">
<ele>383</ele>
<time>2024-05-11T10:49:13Z</time>
</trkpt>
<trkpt lat="49.64108652435243" lon="9.490443225950004">
<ele>382.8</ele>
<time>2024-05-11T10:49:14Z</time>
</trkpt>
<trkpt lat="49.64116279967129" lon="9.490373572334647">
<ele>382.8</ele>
<time>2024-05-11T10:49:15Z</time>
</trkpt>
<trkpt lat="49.641235303133726" lon="9.490298219025137">
<ele>382.6</ele>
<time>2024-05-11T10:49:16Z</time>
</trkpt>
<trkpt lat="49.64130780659616" lon="9.490222865715625">
<ele>382.4</ele>
<time>2024-05-11T10:49:17Z</time>
</trkpt>
<trkpt lat="49.641380310058594" lon="9.490138040855529">
<ele>382.2</ele>
<time>2024-05-11T10:49:18Z</time>
</trkpt>
<trkpt lat="49.641452729702" lon="9.49005120433867">
<ele>381.8</ele>
<time>2024-05-11T10:49:19Z</time>
</trkpt>
<trkpt lat="49.64152900502086" lon="9.489958751946688">
<ele>381.6</ele>
<time>2024-05-11T10:49:20Z</time>
</trkpt>
<trkpt lat="49.641593880951405" lon="9.489874765276909">
<ele>381.4</ele>
<time>2024-05-11T10:49:21Z</time>
</trkpt>
<trkpt lat="49.64166638441384" lon="9.489788012579083">
<ele>381.2</ele>
<time>2024-05-11T10:49:22Z</time>
</trkpt>
<trkpt lat="49.64173503220081" lon="9.489707881584764">
<ele>381</ele>
<time>2024-05-11T10:49:23Z</time>
</trkpt>
<trkpt lat="49.64180367998779" lon="9.489633534103632">
<ele>380.6</ele>
<time>2024-05-11T10:49:24Z</time>
</trkpt>
<trkpt lat="49.64187232777476" lon="9.48955818079412">
<ele>380.4</ele>
<time>2024-05-11T10:49:25Z</time>
</trkpt>
<trkpt lat="49.6419448312372" lon="9.489489533007143">
<ele>380</ele>
<time>2024-05-11T10:49:26Z</time>
</trkpt>
<trkpt lat="49.64202110655606" lon="9.489426584914328">
<ele>379.8</ele>
<time>2024-05-11T10:49:27Z</time>
</trkpt>
<trkpt lat="49.64209361001849" lon="9.489375036209822">
<ele>379.6</ele>
<time>2024-05-11T10:49:28Z</time>
</trkpt>
<trkpt lat="49.64216225780547" lon="9.489330276846886">
<ele>379.4</ele>
<time>2024-05-11T10:49:29Z</time>
</trkpt>
<trkpt lat="49.6422347612679" lon="9.489290211349726">
<ele>379.2</ele>
<time>2024-05-11T10:49:30Z</time>
</trkpt>
<trkpt lat="49.642303409054875" lon="9.4892586953938">
<ele>378.8</ele>
<time>2024-05-11T10:49:31Z</time>
</trkpt>
<trkpt lat="49.64236828498542" lon="9.489236818626525">
<ele>378.6</ele>
<time>2024-05-11T10:49:32Z</time>
</trkpt>
<trkpt lat="49.6424369327724" lon="9.48921862989664">
<ele>378.4</ele>
<time>2024-05-11T10:49:33Z</time>
</trkpt>
<trkpt lat="49.642501808702946" lon="9.48920153081417">
<ele>378.2</ele>
<time>2024-05-11T10:49:34Z</time>
</trkpt>
<trkpt lat="49.64256660081446" lon="9.489191975444555">
<ele>378</ele>
<time>2024-05-11T10:49:35Z</time>
</trkpt>
<trkpt lat="49.64263533242047" lon="9.48918342590332">
<ele>377.8</ele>
<time>2024-05-11T10:49:36Z</time>
</trkpt>
<trkpt lat="49.642700124531984" lon="9.489174792543054">
<ele>377.8</ele>
<time>2024-05-11T10:49:37Z</time>
</trkpt>
<trkpt lat="49.642757372930646" lon="9.48916624300182">
<ele>377.6</ele>
<time>2024-05-11T10:49:38Z</time>
</trkpt>
<trkpt lat="49.64281462132931" lon="9.48915953747928">
<ele>377.6</ele>
<time>2024-05-11T10:49:39Z</time>
</trkpt>
<trkpt lat="49.64286801405251" lon="9.489154759794474">
<ele>377.4</ele>
<time>2024-05-11T10:49:40Z</time>
</trkpt>
<trkpt lat="49.64292140677571" lon="9.489151909947395">
<ele>377.4</ele>
<time>2024-05-11T10:49:41Z</time>
</trkpt>
<trkpt lat="49.64297102764249" lon="9.48914621025324">
<ele>377.2</ele>
<time>2024-05-11T10:49:42Z</time>
</trkpt>
<trkpt lat="49.64302442036569" lon="9.489141432568433">
<ele>377.2</ele>
<time>2024-05-11T10:49:43Z</time>
</trkpt>
<trkpt lat="49.643073957413435" lon="9.489131877198815">
<ele>377.2</ele>
<time>2024-05-11T10:49:44Z</time>
</trkpt>
<trkpt lat="49.64312357828021" lon="9.489120477810502">
<ele>377.2</ele>
<time>2024-05-11T10:49:45Z</time>
</trkpt>
<trkpt lat="49.64317697100341" lon="9.489107066765428">
<ele>377.2</ele>
<time>2024-05-11T10:49:46Z</time>
</trkpt>
<trkpt lat="49.643230363726616" lon="9.489093739539385">
<ele>377.2</ele>
<time>2024-05-11T10:49:47Z</time>
</trkpt>
<trkpt lat="49.64328384026885" lon="9.489073706790805">
<ele>377.2</ele>
<time>2024-05-11T10:49:48Z</time>
</trkpt>
<trkpt lat="49.64334100484848" lon="9.489049902185798">
<ele>377.2</ele>
<time>2024-05-11T10:49:49Z</time>
</trkpt>
<trkpt lat="49.64339825324714" lon="9.48902316391468">
<ele>377.2</ele>
<time>2024-05-11T10:49:50Z</time>
</trkpt>
<trkpt lat="49.64345927350223" lon="9.488994581624866">
<ele>377.2</ele>
<time>2024-05-11T10:49:51Z</time>
</trkpt>
<trkpt lat="49.64352029375732" lon="9.4889669213444">
<ele>377.2</ele>
<time>2024-05-11T10:49:52Z</time>
</trkpt>
<trkpt lat="49.64358516968787" lon="9.488936411216857">
<ele>377.2</ele>
<time>2024-05-11T10:49:53Z</time>
</trkpt>
<trkpt lat="49.643650045618415" lon="9.488900117576122">
<ele>377.2</ele>
<time>2024-05-11T10:49:54Z</time>
</trkpt>
<trkpt lat="49.64371483772993" lon="9.488862985745072">
<ele>377.2</ele>
<time>2024-05-11T10:49:55Z</time>
</trkpt>
<trkpt lat="49.64378356933594" lon="9.488822920247912">
<ele>377.2</ele>
<time>2024-05-11T10:49:56Z</time>
</trkpt>
<trkpt lat="49.64385598897934" lon="9.488782854750752">
<ele>377.2</ele>
<time>2024-05-11T10:49:57Z</time>
</trkpt>
<trkpt lat="49.64392849244177" lon="9.48874371126294">
<ele>377.2</ele>
<time>2024-05-11T10:49:58Z</time>
</trkpt>
<trkpt lat="49.64399714022875" lon="9.488699873909354">
<ele>377.2</ele>
<time>2024-05-11T10:49:59Z</time>
</trkpt>
<trkpt lat="49.64406964369118" lon="9.488656958565116">
<ele>377</ele>
<time>2024-05-11T10:50:00Z</time>
</trkpt>
<trkpt lat="49.64414591901004" lon="9.48861018754542">
<ele>377</ele>
<time>2024-05-11T10:50:01Z</time>
</trkpt>
<trkpt lat="49.64421842247248" lon="9.488565428182484">
<ele>376.8</ele>
<time>2024-05-11T10:50:02Z</time>
</trkpt>
<trkpt lat="49.64429469779134" lon="9.488519662991166">
<ele>376.8</ele>
<time>2024-05-11T10:50:03Z</time>
</trkpt>
<trkpt lat="49.6443709731102" lon="9.488472891971467">
<ele>376.6</ele>
<time>2024-05-11T10:50:04Z</time>
</trkpt>
<trkpt lat="49.64444724842906" lon="9.488426204770803">
<ele>376.4</ele>
<time>2024-05-11T10:50:05Z</time>
</trkpt>
<trkpt lat="49.64452360756695" lon="9.48837373405695">
<ele>376.2</ele>
<time>2024-05-11T10:50:06Z</time>
</trkpt>
<trkpt lat="49.644596027210355" lon="9.488307936117051">
<ele>376</ele>
<time>2024-05-11T10:50:07Z</time>
</trkpt>
<trkpt lat="49.64466475881636" lon="9.488241132348776">
<ele>375.8</ele>
<time>2024-05-11T10:50:08Z</time>
</trkpt>
<trkpt lat="49.64472955092788" lon="9.488162929192184">
<ele>375.6</ele>
<time>2024-05-11T10:50:09Z</time>
</trkpt>
<trkpt lat="49.644794426858425" lon="9.48807617649436">
<ele>375.2</ele>
<time>2024-05-11T10:50:10Z</time>
</trkpt>
<trkpt lat="49.64484781958163" lon="9.48797701857984">
<ele>375</ele>
<time>2024-05-11T10:50:11Z</time>
</trkpt>
<trkpt lat="49.64490121230483" lon="9.487863527610898">
<ele>374.6</ele>
<time>2024-05-11T10:50:12Z</time>
</trkpt>
<trkpt lat="49.64494320563972" lon="9.487743331119418">
<ele>374.2</ele>
<time>2024-05-11T10:50:13Z</time>
</trkpt>
<trkpt lat="49.64499659836292" lon="9.487638473510742">
<ele>373.8</ele>
<time>2024-05-11T10:50:14Z</time>
</trkpt>
<trkpt lat="49.64506147429347" lon="9.487526826560496">
<ele>373.6</ele>
<time>2024-05-11T10:50:15Z</time>
</trkpt>
<trkpt lat="49.645126266404986" lon="9.487408557906749">
<ele>373.2</ele>
<time>2024-05-11T10:50:16Z</time>
</trkpt>
<trkpt lat="49.64519499801099" lon="9.487295150756836">
<ele>372.8</ele>
<time>2024-05-11T10:50:17Z</time>
</trkpt>
<trkpt lat="49.64525601826608" lon="9.487197836861014">
<ele>372.4</ele>
<time>2024-05-11T10:50:18Z</time>
</trkpt>
<trkpt lat="49.64535903185606" lon="9.487061463296412">
<ele>372.2</ele>
<time>2024-05-11T10:50:19Z</time>
</trkpt>
<trkpt lat="49.64540479704738" lon="9.487011842429638">
<ele>371.8</ele>
<time>2024-05-11T10:50:20Z</time>
</trkpt>
<trkpt lat="49.64546958915889" lon="9.486921234056354">
<ele>371.6</ele>
<time>2024-05-11T10:50:21Z</time>
</trkpt>
<trkpt lat="49.645526837557554" lon="9.486835403367875">
<ele>371.2</ele>
<time>2024-05-11T10:50:22Z</time>
</trkpt>
<trkpt lat="49.645584085956216" lon="9.486761977896094">
<ele>370.8</ele>
<time>2024-05-11T10:50:23Z</time>
</trkpt>
<trkpt lat="49.645645106211305" lon="9.48669140227139">
<ele>370.6</ele>
<time>2024-05-11T10:50:24Z</time>
</trkpt>
<trkpt lat="49.64570612646639" lon="9.486624682322145">
<ele>370.4</ele>
<time>2024-05-11T10:50:25Z</time>
</trkpt>
<trkpt lat="49.645763374865055" lon="9.486566511914134">
<ele>370.2</ele>
<time>2024-05-11T10:50:26Z</time>
</trkpt>
<trkpt lat="49.645824395120144" lon="9.486504485830665">
<ele>370</ele>
<time>2024-05-11T10:50:27Z</time>
</trkpt>
<trkpt lat="49.64588541537523" lon="9.486448243260384">
<ele>369.8</ele>
<time>2024-05-11T10:50:28Z</time>
</trkpt>
<trkpt lat="49.64594643563032" lon="9.486388145014644">
<ele>369.6</ele>
<time>2024-05-11T10:50:29Z</time>
</trkpt>
<trkpt lat="49.64600368402898" lon="9.48633668012917">
<ele>369.4</ele>
<time>2024-05-11T10:50:30Z</time>
</trkpt>
<trkpt lat="49.64606470428407" lon="9.48629468679428">
<ele>369.4</ele>
<time>2024-05-11T10:50:31Z</time>
</trkpt>
<trkpt lat="49.64612958021462" lon="9.48625654913485">
<ele>369.2</ele>
<time>2024-05-11T10:50:32Z</time>
</trkpt>
<trkpt lat="49.64619060046971" lon="9.486226961016657">
<ele>369</ele>
<time>2024-05-11T10:50:33Z</time>
</trkpt>
<trkpt lat="49.646255476400256" lon="9.486203156411648">
<ele>369</ele>
<time>2024-05-11T10:50:34Z</time>
</trkpt>
<trkpt lat="49.646316496655345" lon="9.486185051500795">
<ele>368.8</ele>
<time>2024-05-11T10:50:35Z</time>
</trkpt>
<trkpt lat="49.64638137258589" lon="9.486165018752216">
<ele>368.8</ele>
<time>2024-05-11T10:50:36Z</time>
</trkpt>
<trkpt lat="49.64644616469741" lon="9.486149763688443">
<ele>368.8</ele>
<time>2024-05-11T10:50:37Z</time>
</trkpt>
<trkpt lat="49.64650341309607" lon="9.486141130328178">
<ele>368.6</ele>
<time>2024-05-11T10:50:38Z</time>
</trkpt>
<trkpt lat="49.64656443335116" lon="9.486131658777596">
<ele>368.6</ele>
<time>2024-05-11T10:50:39Z</time>
</trkpt>
<trkpt lat="49.64661782607436" lon="9.48611824773252">
<ele>368.6</ele>
<time>2024-05-11T10:50:40Z</time>
</trkpt>
<trkpt lat="49.64667507447302" lon="9.48610014282167">
<ele>368.4</ele>
<time>2024-05-11T10:50:41Z</time>
</trkpt>
<trkpt lat="49.646732322871685" lon="9.48608011007309">
<ele>368.2</ele>
<time>2024-05-11T10:50:42Z</time>
</trkpt>
<trkpt lat="49.646789487451315" lon="9.486056305468082">
<ele>368</ele>
<time>2024-05-11T10:50:43Z</time>
</trkpt>
<trkpt lat="49.64684673584998" lon="9.486028645187616">
<ele>368</ele>
<time>2024-05-11T10:50:44Z</time>
</trkpt>
<trkpt lat="49.646907756105065" lon="9.485996207222342">
<ele>367.8</ele>
<time>2024-05-11T10:50:45Z</time>
</trkpt>
<trkpt lat="49.64696114882827" lon="9.485963769257069">
<ele>367.6</ele>
<time>2024-05-11T10:50:46Z</time>
</trkpt>
<trkpt lat="49.64701454155147" lon="9.485923703759909">
<ele>367.6</ele>
<time>2024-05-11T10:50:47Z</time>
</trkpt>
<trkpt lat="49.647068018093705" lon="9.485881794244053">
<ele>367.4</ele>
<time>2024-05-11T10:50:48Z</time>
</trkpt>
<trkpt lat="49.64711755514145" lon="9.485833095386624">
<ele>367.4</ele>
<time>2024-05-11T10:50:49Z</time>
</trkpt>
<trkpt lat="49.647163320332766" lon="9.485781630501153">
<ele>367.6</ele>
<time>2024-05-11T10:50:50Z</time>
</trkpt>
<trkpt lat="49.64721294119954" lon="9.48572630994022">
<ele>367.6</ele>
<time>2024-05-11T10:50:51Z</time>
</trkpt>
<trkpt lat="49.64725493453443" lon="9.485668139532208">
<ele>367.6</ele>
<time>2024-05-11T10:50:52Z</time>
</trkpt>
<trkpt lat="49.64730069972575" lon="9.485609969124198">
<ele>367.4</ele>
<time>2024-05-11T10:50:53Z</time>
</trkpt>
<trkpt lat="49.647346464917064" lon="9.485551798716187">
<ele>367.4</ele>
<time>2024-05-11T10:50:54Z</time>
</trkpt>
<trkpt lat="49.64739608578384" lon="9.485493628308175">
<ele>367.2</ele>
<time>2024-05-11T10:50:55Z</time>
</trkpt>
<trkpt lat="49.64744185097515" lon="9.485436379909515">
<ele>367.2</ele>
<time>2024-05-11T10:50:56Z</time>
</trkpt>
<trkpt lat="49.64748761616647" lon="9.485380137339234">
<ele>367.2</ele>
<time>2024-05-11T10:50:57Z</time>
</trkpt>
<trkpt lat="49.64753338135779" lon="9.485324816778302">
<ele>367</ele>
<time>2024-05-11T10:50:58Z</time>
</trkpt>
<trkpt lat="49.647583002224565" lon="9.485264718532562">
<ele>367</ele>
<time>2024-05-11T10:50:59Z</time>
</trkpt>
<trkpt lat="49.64763253927231" lon="9.485203698277472">
<ele>366.8</ele>
<time>2024-05-11T10:51:00Z</time>
</trkpt>
<trkpt lat="49.64768216013909" lon="9.485141672194004">
<ele>366.8</ele>
<time>2024-05-11T10:51:01Z</time>
</trkpt>
<trkpt lat="49.647739408537745" lon="9.485078807920218">
<ele>366.6</ele>
<time>2024-05-11T10:51:02Z</time>
</trkpt>
<trkpt lat="49.647796573117375" lon="9.48501200415194">
<ele>366.6</ele>
<time>2024-05-11T10:51:03Z</time>
</trkpt>
<trkpt lat="49.64784996584058" lon="9.484938578680158">
<ele>366.6</ele>
<time>2024-05-11T10:51:04Z</time>
</trkpt>
<trkpt lat="49.64790344238281" lon="9.484865153208377">
<ele>366.6</ele>
<time>2024-05-11T10:51:05Z</time>
</trkpt>
<trkpt lat="49.647956835106015" lon="9.48479457758367">
<ele>366.6</ele>
<time>2024-05-11T10:51:06Z</time>
</trkpt>
<trkpt lat="49.64800637215376" lon="9.484723079949616">
<ele>366.6</ele>
<time>2024-05-11T10:51:07Z</time>
</trkpt>
<trkpt lat="49.64805213734507" lon="9.484651498496532">
<ele>366.6</ele>
<time>2024-05-11T10:51:08Z</time>
</trkpt>
<trkpt lat="49.64810175821185" lon="9.484582850709558">
<ele>366.6</ele>
<time>2024-05-11T10:51:09Z</time>
</trkpt>
<trkpt lat="49.64814375154674" lon="9.484521830454469">
<ele>366.4</ele>
<time>2024-05-11T10:51:10Z</time>
</trkpt>
<trkpt lat="49.64819328859448" lon="9.48447983711958">
<ele>366.2</ele>
<time>2024-05-11T10:51:11Z</time>
</trkpt>
<trkpt lat="49.648250536993146" lon="9.484455026686192">
<ele>366</ele>
<time>2024-05-11T10:51:12Z</time>
</trkpt>
<trkpt lat="49.64830778539181" lon="9.484453182667494">
<ele>365.8</ele>
<time>2024-05-11T10:51:13Z</time>
</trkpt>
<trkpt lat="49.64836494997144" lon="9.484459804371">
<ele>365.8</ele>
<time>2024-05-11T10:51:14Z</time>
</trkpt>
<trkpt lat="49.64841842651367" lon="9.484473215416074">
<ele>365.6</ele>
<time>2024-05-11T10:51:15Z</time>
</trkpt>
<trkpt lat="49.648471819236875" lon="9.484488470479846">
<ele>365.4</ele>
<time>2024-05-11T10:51:16Z</time>
</trkpt>
<trkpt lat="49.64852521196008" lon="9.484501797705889">
<ele>365.2</ele>
<time>2024-05-11T10:51:17Z</time>
</trkpt>
<trkpt lat="49.64857474900782" lon="9.484513280913234">
<ele>365</ele>
<time>2024-05-11T10:51:18Z</time>
</trkpt>
<trkpt lat="49.6486243698746" lon="9.484526608139277">
<ele>364.8</ele>
<time>2024-05-11T10:51:19Z</time>
</trkpt>
<trkpt lat="49.64867013506591" lon="9.484535157680511">
<ele>364.6</ele>
<time>2024-05-11T10:51:20Z</time>
</trkpt>
<trkpt lat="49.64871975593269" lon="9.484530379995704">
<ele>364.6</ele>
<time>2024-05-11T10:51:21Z</time>
</trkpt>
<trkpt lat="49.648769376799464" lon="9.48451990261674">
<ele>364.4</ele>
<time>2024-05-11T10:51:22Z</time>
</trkpt>
<trkpt lat="49.64881514199078" lon="9.484506575390697">
<ele>364.2</ele>
<time>2024-05-11T10:51:23Z</time>
</trkpt>
<trkpt lat="49.64885705150664" lon="9.484490314498544">
<ele>364</ele>
<time>2024-05-11T10:51:24Z</time>
</trkpt>
<trkpt lat="49.648902816697955" lon="9.484471287578344">
<ele>364</ele>
<time>2024-05-11T10:51:25Z</time>
</trkpt>
<trkpt lat="49.648944810032845" lon="9.484450332820415">
<ele>363.8</ele>
<time>2024-05-11T10:51:26Z</time>
</trkpt>
<trkpt lat="49.648986803367734" lon="9.484433149918914">
<ele>363.6</ele>
<time>2024-05-11T10:51:27Z</time>
</trkpt>
<trkpt lat="49.649024941027164" lon="9.484424516558647">
<ele>363.4</ele>
<time>2024-05-11T10:51:28Z</time>
</trkpt>
<trkpt lat="49.64907070621848" lon="9.484430300071836">
<ele>363.4</ele>
<time>2024-05-11T10:51:29Z</time>
</trkpt>
<trkpt lat="49.64910884387791" lon="9.484450332820415">
<ele>363.2</ele>
<time>2024-05-11T10:51:30Z</time>
</trkpt>
<trkpt lat="49.649139354005456" lon="9.484484614804389">
<ele>363.2</ele>
<time>2024-05-11T10:51:31Z</time>
</trkpt>
<trkpt lat="49.64915460906923" lon="9.484533229842782">
<ele>363.2</ele>
<time>2024-05-11T10:51:32Z</time>
</trkpt>
<trkpt lat="49.64915460906923" lon="9.484584778547289">
<ele>363</ele>
<time>2024-05-11T10:51:33Z</time>
</trkpt>
<trkpt lat="49.64914698153734" lon="9.48464009910822">
<ele>363</ele>
<time>2024-05-11T10:51:34Z</time>
</trkpt>
<trkpt lat="49.64913558214903" lon="9.484702041372657">
<ele>363</ele>
<time>2024-05-11T10:51:35Z</time>
</trkpt>
<trkpt lat="49.64912409894168" lon="9.484767839312552">
<ele>363</ele>
<time>2024-05-11T10:51:36Z</time>
</trkpt>
<trkpt lat="49.64911269955337" lon="9.484843192622066">
<ele>363</ele>
<time>2024-05-11T10:51:37Z</time>
</trkpt>
<trkpt lat="49.649101216346025" lon="9.484916618093848">
<ele>363</ele>
<time>2024-05-11T10:51:38Z</time>
</trkpt>
<trkpt lat="49.64908973313868" lon="9.485001526772976">
<ele>363</ele>
<time>2024-05-11T10:51:39Z</time>
</trkpt>
<trkpt lat="49.649082105606794" lon="9.485078807920218">
<ele>363</ele>
<time>2024-05-11T10:51:40Z</time>
</trkpt>
<trkpt lat="49.64907833375037" lon="9.48515508323908">
<ele>363</ele>
<time>2024-05-11T10:51:41Z</time>
</trkpt>
<trkpt lat="49.64907833375037" lon="9.48523043654859">
<ele>363</ele>
<time>2024-05-11T10:51:42Z</time>
</trkpt>
<trkpt lat="49.64907447807491" lon="9.485302856191993">
<ele>363</ele>
<time>2024-05-11T10:51:43Z</time>
</trkpt>
<trkpt lat="49.64907447807491" lon="9.485375359654428">
<ele>363</ele>
<time>2024-05-11T10:51:44Z</time>
</trkpt>
<trkpt lat="49.64907447807491" lon="9.485445013269782">
<ele>363</ele>
<time>2024-05-11T10:51:45Z</time>
</trkpt>
<trkpt lat="49.64907070621848" lon="9.485516510903835">
<ele>363</ele>
<time>2024-05-11T10:51:46Z</time>
</trkpt>
<trkpt lat="49.64906685054302" lon="9.485591864213347">
<ele>363</ele>
<time>2024-05-11T10:51:47Z</time>
</trkpt>
<trkpt lat="49.649063078686595" lon="9.48566621169448">
<ele>363</ele>
<time>2024-05-11T10:51:48Z</time>
</trkpt>
<trkpt lat="49.649059223011136" lon="9.485739637166262">
<ele>363</ele>
<time>2024-05-11T10:51:49Z</time>
</trkpt>
<trkpt lat="49.64905545115471" lon="9.485813062638044">
<ele>363</ele>
<time>2024-05-11T10:51:50Z</time>
</trkpt>
<trkpt lat="49.64905159547925" lon="9.48588464409113">
<ele>363</ele>
<time>2024-05-11T10:51:51Z</time>
</trkpt>
<trkpt lat="49.64905159547925" lon="9.485956141725184">
<ele>363</ele>
<time>2024-05-11T10:51:52Z</time>
</trkpt>
<trkpt lat="49.64905159547925" lon="9.486028645187616">
<ele>363</ele>
<time>2024-05-11T10:51:53Z</time>
</trkpt>
<trkpt lat="49.64905159547925" lon="9.486102992668748">
<ele>363</ele>
<time>2024-05-11T10:51:54Z</time>
</trkpt>
<trkpt lat="49.64905159547925" lon="9.48617641814053">
<ele>363</ele>
<time>2024-05-11T10:51:55Z</time>
</trkpt>
<trkpt lat="49.64904782362282" lon="9.486251771450045">
<ele>363</ele>
<time>2024-05-11T10:51:56Z</time>
</trkpt>
<trkpt lat="49.64904396794736" lon="9.486329974606631">
<ele>363</ele>
<time>2024-05-11T10:51:57Z</time>
</trkpt>
<trkpt lat="49.64904396794736" lon="9.486408177763224">
<ele>363</ele>
<time>2024-05-11T10:51:58Z</time>
</trkpt>
<trkpt lat="49.64904782362282" lon="9.486490236595271">
<ele>363.2</ele>
<time>2024-05-11T10:51:59Z</time>
</trkpt>
<trkpt lat="49.64905159547925" lon="9.48657028377056">
<ele>363.2</ele>
<time>2024-05-11T10:52:00Z</time>
</trkpt>
<trkpt lat="49.649059223011136" lon="9.486648486927152">
<ele>363.2</ele>
<time>2024-05-11T10:52:01Z</time>
</trkpt>
<trkpt lat="49.64906685054302" lon="9.486724846065044">
<ele>363.2</ele>
<time>2024-05-11T10:52:02Z</time>
</trkpt>
<trkpt lat="49.64907447807491" lon="9.486802043393254">
<ele>363.2</ele>
<time>2024-05-11T10:52:03Z</time>
</trkpt>
<trkpt lat="49.64907833375037" lon="9.486878318712115">
<ele>363.4</ele>
<time>2024-05-11T10:52:04Z</time>
</trkpt>
<trkpt lat="49.64908596128225" lon="9.48694797232747">
<ele>363.6</ele>
<time>2024-05-11T10:52:05Z</time>
</trkpt>
<trkpt lat="49.64909358881414" lon="9.487014692276716">
<ele>363.6</ele>
<time>2024-05-11T10:52:06Z</time>
</trkpt>
<trkpt lat="49.649101216346025" lon="9.4870862737298">
<ele>363.8</ele>
<time>2024-05-11T10:52:07Z</time>
</trkpt>
<trkpt lat="49.64910507202149" lon="9.487152993679048">
<ele>363.8</ele>
<time>2024-05-11T10:52:08Z</time>
</trkpt>
<trkpt lat="49.64911269955337" lon="9.487221641466022">
<ele>363.8</ele>
<time>2024-05-11T10:52:09Z</time>
</trkpt>
<trkpt lat="49.64912032708526" lon="9.4872884452343">
<ele>363.8</ele>
<time>2024-05-11T10:52:10Z</time>
</trkpt>
<trkpt lat="49.64912795461714" lon="9.487358015030622">
<ele>363.8</ele>
<time>2024-05-11T10:52:11Z</time>
</trkpt>
<trkpt lat="49.64913172647357" lon="9.487426746636627">
<ele>363.8</ele>
<time>2024-05-11T10:52:12Z</time>
</trkpt>
<trkpt lat="49.649139354005456" lon="9.487496316432953">
<ele>363.6</ele>
<time>2024-05-11T10:52:13Z</time>
</trkpt>
<trkpt lat="49.649143209680915" lon="9.487564964219928">
<ele>363.6</ele>
<time>2024-05-11T10:52:14Z</time>
</trkpt>
<trkpt lat="49.64914698153734" lon="9.487633695825934">
<ele>363.6</ele>
<time>2024-05-11T10:52:15Z</time>
</trkpt>
<trkpt lat="49.6491508372128" lon="9.487701337784529">
<ele>363.6</ele>
<time>2024-05-11T10:52:16Z</time>
</trkpt>
<trkpt lat="49.64915846474469" lon="9.487771913409231">
<ele>363.6</ele>
<time>2024-05-11T10:52:17Z</time>
</trkpt>
<trkpt lat="49.649162236601114" lon="9.48783678933978">
<ele>363.8</ele>
<time>2024-05-11T10:52:18Z</time>
</trkpt>
<trkpt lat="49.64916609227657" lon="9.48789780959487">
<ele>363.8</ele>
<time>2024-05-11T10:52:19Z</time>
</trkpt>
<trkpt lat="49.649169864133" lon="9.48795790784061">
<ele>363.8</ele>
<time>2024-05-11T10:52:20Z</time>
</trkpt>
<trkpt lat="49.64917371980846" lon="9.488017000257967">
<ele>364</ele>
<time>2024-05-11T10:52:21Z</time>
</trkpt>
<trkpt lat="49.649181347340345" lon="9.48807810433209">
<ele>364</ele>
<time>2024-05-11T10:52:22Z</time>
</trkpt>
<trkpt lat="49.64918511919677" lon="9.4881362747401">
<ele>364</ele>
<time>2024-05-11T10:52:23Z</time>
</trkpt>
<trkpt lat="49.64918897487223" lon="9.48819536715746">
<ele>364.2</ele>
<time>2024-05-11T10:52:24Z</time>
</trkpt>
<trkpt lat="49.64919660240412" lon="9.48825353756547">
<ele>364.2</ele>
<time>2024-05-11T10:52:25Z</time>
</trkpt>
<trkpt lat="49.649200374260545" lon="9.48831170797348">
<ele>364.2</ele>
<time>2024-05-11T10:52:26Z</time>
</trkpt>
<trkpt lat="49.649204229936" lon="9.488368034362791">
<ele>364.2</ele>
<time>2024-05-11T10:52:27Z</time>
</trkpt>
<trkpt lat="49.64920800179243" lon="9.488426204770803">
<ele>364.2</ele>
<time>2024-05-11T10:52:28Z</time>
</trkpt>
<trkpt lat="49.64922711253166" lon="9.488483369350432">
<ele>364.2</ele>
<time>2024-05-11T10:52:29Z</time>
</trkpt>
<trkpt lat="49.649257622659206" lon="9.488526284694672">
<ele>364.4</ele>
<time>2024-05-11T10:52:30Z</time>
</trkpt>
<trkpt lat="49.649299615994096" lon="9.488552017137408">
<ele>364.4</ele>
<time>2024-05-11T10:52:31Z</time>
</trkpt>
<trkpt lat="49.64934152550995" lon="9.488561572507024">
<ele>364.4</ele>
<time>2024-05-11T10:52:32Z</time>
</trkpt>
<trkpt lat="49.64938351884484" lon="9.488556794822216">
<ele>364.4</ele>
<time>2024-05-11T10:52:33Z</time>
</trkpt>
<trkpt lat="49.64942928403616" lon="9.488553022965789">
<ele>364.4</ele>
<time>2024-05-11T10:52:34Z</time>
</trkpt>
<trkpt lat="49.64947504922747" lon="9.48854824528098">
<ele>364.4</ele>
<time>2024-05-11T10:52:35Z</time>
</trkpt>
<trkpt lat="49.64952467009425" lon="9.488545395433905">
<ele>364.4</ele>
<time>2024-05-11T10:52:36Z</time>
</trkpt>
<trkpt lat="49.64956657961011" lon="9.488538689911366">
<ele>364.4</ele>
<time>2024-05-11T10:52:37Z</time>
</trkpt>
<trkpt lat="49.649608572945" lon="9.488531984388828">
<ele>364.4</ele>
<time>2024-05-11T10:52:38Z</time>
</trkpt>
<trkpt lat="49.64965056627989" lon="9.488525362685325">
<ele>364.4</ele>
<time>2024-05-11T10:52:39Z</time>
</trkpt>
<trkpt lat="49.649692475795746" lon="9.488519662991166">
<ele>364.4</ele>
<time>2024-05-11T10:52:40Z</time>
</trkpt>
<trkpt lat="49.649730613455176" lon="9.488512957468629">
<ele>364.4</ele>
<time>2024-05-11T10:52:41Z</time>
</trkpt>
<trkpt lat="49.64976875111461" lon="9.488505329936745">
<ele>364.6</ele>
<time>2024-05-11T10:52:42Z</time>
</trkpt>
<trkpt lat="49.649810744449496" lon="9.488499630242586">
<ele>364.6</ele>
<time>2024-05-11T10:52:43Z</time>
</trkpt>
<trkpt lat="49.64984888210893" lon="9.488492924720047">
<ele>364.6</ele>
<time>2024-05-11T10:52:44Z</time>
</trkpt>
<trkpt lat="49.64988701976836" lon="9.488486219197512">
<ele>364.8</ele>
<time>2024-05-11T10:52:45Z</time>
</trkpt>
<trkpt lat="49.64992138557136" lon="9.488476747646928">
<ele>364.8</ele>
<time>2024-05-11T10:52:46Z</time>
</trkpt>
<trkpt lat="49.64995566755533" lon="9.48847004212439">
<ele>365</ele>
<time>2024-05-11T10:52:47Z</time>
</trkpt>
<trkpt lat="49.64998626150191" lon="9.488465264439585">
<ele>365.2</ele>
<time>2024-05-11T10:52:48Z</time>
</trkpt>
<trkpt lat="49.65001677162945" lon="9.488463336601852">
<ele>365.2</ele>
<time>2024-05-11T10:52:49Z</time>
</trkpt>
<trkpt lat="49.65004342608154" lon="9.488459564745426">
<ele>365.4</ele>
<time>2024-05-11T10:52:50Z</time>
</trkpt>
<trkpt lat="49.65007393620908" lon="9.488452859222887">
<ele>365.4</ele>
<time>2024-05-11T10:52:51Z</time>
</trkpt>
<trkpt lat="49.65010444633663" lon="9.488446153700352">
<ele>365.6</ele>
<time>2024-05-11T10:52:52Z</time>
</trkpt>
<trkpt lat="49.650131184607744" lon="9.488443303853272">
<ele>365.6</ele>
<time>2024-05-11T10:52:53Z</time>
</trkpt>
<trkpt lat="49.65016169473529" lon="9.488441459834576">
<ele>365.8</ele>
<time>2024-05-11T10:52:54Z</time>
</trkpt>
<trkpt lat="49.65019220486283" lon="9.488438526168466">
<ele>366</ele>
<time>2024-05-11T10:52:55Z</time>
</trkpt>
<trkpt lat="49.65022271499038" lon="9.488432826474307">
<ele>366</ele>
<time>2024-05-11T10:52:56Z</time>
</trkpt>
<trkpt lat="49.65025322511792" lon="9.4884280487895">
<ele>366.2</ele>
<time>2024-05-11T10:52:57Z</time>
</trkpt>
<trkpt lat="49.650287590920925" lon="9.488423271104692">
<ele>366.4</ele>
<time>2024-05-11T10:52:58Z</time>
</trkpt>
<trkpt lat="49.65031810104847" lon="9.488416649401188">
<ele>366.6</ele>
<time>2024-05-11T10:52:59Z</time>
</trkpt>
<trkpt lat="49.65035246685147" lon="9.48840994387865">
<ele>366.6</ele>
<time>2024-05-11T10:53:00Z</time>
</trkpt>
<trkpt lat="49.65038674883544" lon="9.488401394337416">
<ele>366.8</ele>
<time>2024-05-11T10:53:01Z</time>
</trkpt>
<trkpt lat="49.65042111463845" lon="9.48839376680553">
<ele>366.8</ele>
<time>2024-05-11T10:53:02Z</time>
</trkpt>
<trkpt lat="49.65045539662242" lon="9.48838798329234">
<ele>367</ele>
<time>2024-05-11T10:53:03Z</time>
</trkpt>
<trkpt lat="49.65048976242542" lon="9.488383289426563">
<ele>367</ele>
<time>2024-05-11T10:53:04Z</time>
</trkpt>
<trkpt lat="49.650524128228426" lon="9.488378511741756">
<ele>367</ele>
<time>2024-05-11T10:53:05Z</time>
</trkpt>
<trkpt lat="49.6505584102124" lon="9.48837180621922">
<ele>367.2</ele>
<time>2024-05-11T10:53:06Z</time>
</trkpt>
<trkpt lat="49.6505927760154" lon="9.488365100696685">
<ele>367.2</ele>
<time>2024-05-11T10:53:07Z</time>
</trkpt>
<trkpt lat="49.65062705799937" lon="9.488361328840256">
<ele>367.4</ele>
<time>2024-05-11T10:53:08Z</time>
</trkpt>
<trkpt lat="49.650661423802376" lon="9.488358478993176">
<ele>367.6</ele>
<time>2024-05-11T10:53:09Z</time>
</trkpt>
<trkpt lat="49.650699561461806" lon="9.48835370130837">
<ele>367.6</ele>
<time>2024-05-11T10:53:10Z</time>
</trkpt>
<trkpt lat="49.65073392726481" lon="9.488348001614211">
<ele>367.8</ele>
<time>2024-05-11T10:53:11Z</time>
</trkpt>
<trkpt lat="49.65076820924878" lon="9.488346995785832">
<ele>368</ele>
<time>2024-05-11T10:53:12Z</time>
</trkpt>
<trkpt lat="49.650802575051785" lon="9.488345067948105">
<ele>368</ele>
<time>2024-05-11T10:53:13Z</time>
</trkpt>
<trkpt lat="49.65083694085479" lon="9.488341296091676">
<ele>368</ele>
<time>2024-05-11T10:53:14Z</time>
</trkpt>
<trkpt lat="49.65087507851422" lon="9.488336518406868">
<ele>368.2</ele>
<time>2024-05-11T10:53:15Z</time>
</trkpt>
<trkpt lat="49.65090558864176" lon="9.48833366855979">
<ele>368.2</ele>
<time>2024-05-11T10:53:16Z</time>
</trkpt>
<trkpt lat="49.650939870625734" lon="9.488326963037252">
<ele>368.2</ele>
<time>2024-05-11T10:53:17Z</time>
</trkpt>
<trkpt lat="49.65097423642874" lon="9.488318413496016">
<ele>368.2</ele>
<time>2024-05-11T10:53:18Z</time>
</trkpt>
<trkpt lat="49.65100860223174" lon="9.48831170797348">
<ele>368.2</ele>
<time>2024-05-11T10:53:19Z</time>
</trkpt>
<trkpt lat="49.65104673989117" lon="9.488306930288672">
<ele>368.4</ele>
<time>2024-05-11T10:53:20Z</time>
</trkpt>
<trkpt lat="49.65108102187514" lon="9.488300308585169">
<ele>368.4</ele>
<time>2024-05-11T10:53:21Z</time>
</trkpt>
<trkpt lat="49.651115387678146" lon="9.488289831206204">
<ele>368.4</ele>
<time>2024-05-11T10:53:22Z</time>
</trkpt>
<trkpt lat="49.65114589780569" lon="9.4882744923234">
<ele>368.4</ele>
<time>2024-05-11T10:53:23Z</time>
</trkpt>
<trkpt lat="49.651180263608694" lon="9.488260243088009">
<ele>368.6</ele>
<time>2024-05-11T10:53:24Z</time>
</trkpt>
<trkpt lat="49.651218401268125" lon="9.488244988024237">
<ele>368.6</ele>
<time>2024-05-11T10:53:25Z</time>
</trkpt>
<trkpt lat="49.651256538927555" lon="9.488226883113384">
<ele>368.8</ele>
<time>2024-05-11T10:53:26Z</time>
</trkpt>
<trkpt lat="49.65129082091153" lon="9.488206850364804">
<ele>368.8</ele>
<time>2024-05-11T10:53:27Z</time>
</trkpt>
<trkpt lat="49.65132133103907" lon="9.488186817616224">
<ele>369</ele>
<time>2024-05-11T10:53:28Z</time>
</trkpt>
<trkpt lat="49.651355696842074" lon="9.488162929192184">
<ele>369</ele>
<time>2024-05-11T10:53:29Z</time>
</trkpt>
<trkpt lat="49.65139006264508" lon="9.488146752119064">
<ele>369</ele>
<time>2024-05-11T10:53:30Z</time>
</trkpt>
<trkpt lat="49.65142434462905" lon="9.488128647208214">
<ele>369</ele>
<time>2024-05-11T10:53:31Z</time>
</trkpt>
<trkpt lat="49.65145871043205" lon="9.488109536468984">
<ele>369.2</ele>
<time>2024-05-11T10:53:32Z</time>
</trkpt>
<trkpt lat="49.65149684809148" lon="9.488089503720404">
<ele>369.2</ele>
<time>2024-05-11T10:53:33Z</time>
</trkpt>
<trkpt lat="49.651534985750914" lon="9.488068548962474">
<ele>369.2</ele>
<time>2024-05-11T10:53:34Z</time>
</trkpt>
<trkpt lat="49.65156935155392" lon="9.488048516213894">
<ele>369.2</ele>
<time>2024-05-11T10:53:35Z</time>
</trkpt>
<trkpt lat="49.65160748921335" lon="9.488024711608888">
<ele>369.2</ele>
<time>2024-05-11T10:53:36Z</time>
</trkpt>
<trkpt lat="49.65164177119732" lon="9.488001745194197">
<ele>369.2</ele>
<time>2024-05-11T10:53:37Z</time>
</trkpt>
<trkpt lat="49.65167999267578" lon="9.48797986842692">
<ele>369.2</ele>
<time>2024-05-11T10:53:38Z</time>
</trkpt>
<trkpt lat="49.65171813033521" lon="9.48795698583126">
<ele>369.2</ele>
<time>2024-05-11T10:53:39Z</time>
</trkpt>
<trkpt lat="49.65175241231918" lon="9.487933097407222">
<ele>369.4</ele>
<time>2024-05-11T10:53:40Z</time>
</trkpt>
<trkpt lat="49.651790549978614" lon="9.487911220639944">
<ele>369.4</ele>
<time>2024-05-11T10:53:41Z</time>
</trkpt>
<trkpt lat="49.65182868763805" lon="9.487890182062984">
<ele>369.6</ele>
<time>2024-05-11T10:53:42Z</time>
</trkpt>
<trkpt lat="49.65186690911651" lon="9.487868305295706">
<ele>369.6</ele>
<time>2024-05-11T10:53:43Z</time>
</trkpt>
<trkpt lat="49.65190881863237" lon="9.487848272547126">
<ele>369.8</ele>
<time>2024-05-11T10:53:44Z</time>
</trkpt>
<trkpt lat="49.651946956291795" lon="9.487826311960816">
<ele>369.8</ele>
<time>2024-05-11T10:53:45Z</time>
</trkpt>
<trkpt lat="49.65198894962669" lon="9.487803429365158">
<ele>369.8</ele>
<time>2024-05-11T10:53:46Z</time>
</trkpt>
<trkpt lat="49.652030942961574" lon="9.48777954094112">
<ele>370</ele>
<time>2024-05-11T10:53:47Z</time>
</trkpt>
<trkpt lat="49.65207285247743" lon="9.487754814326763">
<ele>370</ele>
<time>2024-05-11T10:53:48Z</time>
</trkpt>
<trkpt lat="49.65211099013686" lon="9.487728076055646">
<ele>370</ele>
<time>2024-05-11T10:53:49Z</time>
</trkpt>
<trkpt lat="49.65214912779629" lon="9.487699493765833">
<ele>370</ele>
<time>2024-05-11T10:53:50Z</time>
</trkpt>
<trkpt lat="49.65218726545572" lon="9.487676611170173">
<ele>370</ele>
<time>2024-05-11T10:53:51Z</time>
</trkpt>
<trkpt lat="49.652221631258726" lon="9.487653728574514">
<ele>370.2</ele>
<time>2024-05-11T10:53:52Z</time>
</trkpt>
<trkpt lat="49.65225976891816" lon="9.487633695825934">
<ele>370.2</ele>
<time>2024-05-11T10:53:53Z</time>
</trkpt>
<trkpt lat="49.65229413472116" lon="9.487616512924433">
<ele>370.2</ele>
<time>2024-05-11T10:53:54Z</time>
</trkpt>
<trkpt lat="49.65232841670513" lon="9.48760125786066">
<ele>370.2</ele>
<time>2024-05-11T10:53:55Z</time>
</trkpt>
<trkpt lat="49.652362782508135" lon="9.487587846815586">
<ele>370.2</ele>
<time>2024-05-11T10:53:56Z</time>
</trkpt>
<trkpt lat="49.652400920167565" lon="9.48758122511208">
<ele>370.2</ele>
<time>2024-05-11T10:53:57Z</time>
</trkpt>
<trkpt lat="49.652442913502455" lon="9.487587846815586">
<ele>370.2</ele>
<time>2024-05-11T10:53:58Z</time>
</trkpt>
<trkpt lat="49.652481051161885" lon="9.487606957554815">
<ele>370.2</ele>
<time>2024-05-11T10:53:59Z</time>
</trkpt>
<trkpt lat="49.65251533314586" lon="9.487645095214248">
<ele>370.2</ele>
<time>2024-05-11T10:54:00Z</time>
</trkpt>
<trkpt lat="49.65254592709243" lon="9.487685160711408">
<ele>370.2</ele>
<time>2024-05-11T10:54:01Z</time>
</trkpt>
<trkpt lat="49.65257258154452" lon="9.487732853740454">
<ele>370.4</ele>
<time>2024-05-11T10:54:02Z</time>
</trkpt>
<trkpt lat="49.65259931981563" lon="9.487785324454308">
<ele>370.4</ele>
<time>2024-05-11T10:54:03Z</time>
</trkpt>
<trkpt lat="49.652622202411294" lon="9.48783678933978">
<ele>370.4</ele>
<time>2024-05-11T10:54:04Z</time>
</trkpt>
<trkpt lat="49.65264885686338" lon="9.487888254225254">
<ele>370.6</ele>
<time>2024-05-11T10:54:05Z</time>
</trkpt>
<trkpt lat="49.65267936699093" lon="9.487943574786186">
<ele>370.6</ele>
<time>2024-05-11T10:54:06Z</time>
</trkpt>
<trkpt lat="49.65270610526204" lon="9.4879999011755">
<ele>370.4</ele>
<time>2024-05-11T10:54:07Z</time>
</trkpt>
<trkpt lat="49.652736615389585" lon="9.488055221736431">
<ele>370.4</ele>
<time>2024-05-11T10:54:08Z</time>
</trkpt>
<trkpt lat="49.65277098119259" lon="9.488109536468984">
<ele>370.4</ele>
<time>2024-05-11T10:54:09Z</time>
</trkpt>
<trkpt lat="49.652797635644674" lon="9.488166784867644">
<ele>370.2</ele>
<time>2024-05-11T10:54:10Z</time>
</trkpt>
<trkpt lat="49.65282814577222" lon="9.488223027437924">
<ele>370.2</ele>
<time>2024-05-11T10:54:11Z</time>
</trkpt>
<trkpt lat="49.652854884043336" lon="9.488280275836589">
<ele>370.4</ele>
<time>2024-05-11T10:54:12Z</time>
</trkpt>
<trkpt lat="49.65288539417088" lon="9.488338446244596">
<ele>370.4</ele>
<time>2024-05-11T10:54:13Z</time>
</trkpt>
<trkpt lat="49.652912132442" lon="9.488394688814878">
<ele>370.4</ele>
<time>2024-05-11T10:54:14Z</time>
</trkpt>
<trkpt lat="49.65293878689408" lon="9.48845000937581">
<ele>370.4</ele>
<time>2024-05-11T10:54:15Z</time>
</trkpt>
<trkpt lat="49.65296929702163" lon="9.488503402099012">
<ele>370.4</ele>
<time>2024-05-11T10:54:16Z</time>
</trkpt>
<trkpt lat="49.652996035292745" lon="9.488561572507024">
<ele>370.4</ele>
<time>2024-05-11T10:54:17Z</time>
</trkpt>
<trkpt lat="49.65302654542029" lon="9.488614965230228">
<ele>370.2</ele>
<time>2024-05-11T10:54:18Z</time>
</trkpt>
<trkpt lat="49.65305705554783" lon="9.48867028579116">
<ele>370</ele>
<time>2024-05-11T10:54:19Z</time>
</trkpt>
<trkpt lat="49.65308379381895" lon="9.488726612180471">
<ele>370</ele>
<time>2024-05-11T10:54:20Z</time>
</trkpt>
<trkpt lat="49.653114303946495" lon="9.488782854750752">
<ele>369.8</ele>
<time>2024-05-11T10:54:21Z</time>
</trkpt>
<trkpt lat="49.65314481407404" lon="9.48884672485292">
<ele>369.6</ele>
<time>2024-05-11T10:54:22Z</time>
</trkpt>
<trkpt lat="49.65317909605801" lon="9.488911600783467">
<ele>369.6</ele>
<time>2024-05-11T10:54:23Z</time>
</trkpt>
<trkpt lat="49.653213461861014" lon="9.488978320732713">
<ele>369.6</ele>
<time>2024-05-11T10:54:24Z</time>
</trkpt>
<trkpt lat="49.65324782766402" lon="9.489047974348068">
<ele>369.4</ele>
<time>2024-05-11T10:54:25Z</time>
</trkpt>
<trkpt lat="49.65328210964799" lon="9.489120477810502">
<ele>369.4</ele>
<time>2024-05-11T10:54:27Z</time>
</trkpt>
<trkpt lat="49.65335075743496" lon="9.489263473078609">
<ele>369.2</ele>
<time>2024-05-11T10:54:28Z</time>
</trkpt>
<trkpt lat="49.653388895094395" lon="9.489333126693964">
<ele>369</ele>
<time>2024-05-11T10:54:29Z</time>
</trkpt>
<trkpt lat="49.6534232608974" lon="9.48940177448094">
<ele>368.8</ele>
<time>2024-05-11T10:54:30Z</time>
</trkpt>
<trkpt lat="49.65346139855683" lon="9.489471428096294">
<ele>368.6</ele>
<time>2024-05-11T10:54:31Z</time>
</trkpt>
<trkpt lat="49.65349190868437" lon="9.48953622020781">
<ele>368.6</ele>
<time>2024-05-11T10:54:32Z</time>
</trkpt>
<trkpt lat="49.6535300463438" lon="9.48960017412901">
<ele>368.2</ele>
<time>2024-05-11T10:54:33Z</time>
</trkpt>
<trkpt lat="49.65356055647135" lon="9.489660188555716">
<ele>368</ele>
<time>2024-05-11T10:54:34Z</time>
</trkpt>
<trkpt lat="49.65359492227435" lon="9.489720286801456">
<ele>367.8</ele>
<time>2024-05-11T10:54:35Z</time>
</trkpt>
<trkpt lat="49.653625432401896" lon="9.489780385047196">
<ele>367.6</ele>
<time>2024-05-11T10:54:36Z</time>
</trkpt>
<trkpt lat="49.6536597982049" lon="9.489839477464557">
<ele>367.6</ele>
<time>2024-05-11T10:54:37Z</time>
</trkpt>
<trkpt lat="49.65369030833244" lon="9.489901503548026">
<ele>367.4</ele>
<time>2024-05-11T10:54:38Z</time>
</trkpt>
<trkpt lat="49.65372081845999" lon="9.489961601793766">
<ele>367.2</ele>
<time>2024-05-11T10:54:39Z</time>
</trkpt>
<trkpt lat="49.65375518426299" lon="9.490024549886584">
<ele>367</ele>
<time>2024-05-11T10:54:40Z</time>
</trkpt>
<trkpt lat="49.65378946624696" lon="9.490086492151022">
<ele>367</ele>
<time>2024-05-11T10:54:41Z</time>
</trkpt>
<trkpt lat="49.65381997637451" lon="9.490144662559032">
<ele>366.8</ele>
<time>2024-05-11T10:54:42Z</time>
</trkpt>
<trkpt lat="49.65385434217751" lon="9.490202832967045">
<ele>366.8</ele>
<time>2024-05-11T10:54:43Z</time>
</trkpt>
<trkpt lat="49.653884852305055" lon="9.490260081365705">
<ele>366.8</ele>
<time>2024-05-11T10:54:44Z</time>
</trkpt>
<trkpt lat="49.6539153624326" lon="9.490313474088907">
<ele>366.8</ele>
<time>2024-05-11T10:54:45Z</time>
</trkpt>
<trkpt lat="49.65394587256014" lon="9.490365022793412">
<ele>366.6</ele>
<time>2024-05-11T10:54:46Z</time>
</trkpt>
<trkpt lat="49.65397638268769" lon="9.490413637831807">
<ele>366.6</ele>
<time>2024-05-11T10:54:47Z</time>
</trkpt>
<trkpt lat="49.654003120958805" lon="9.490461330860851">
<ele>366.6</ele>
<time>2024-05-11T10:54:48Z</time>
</trkpt>
<trkpt lat="49.65402977541089" lon="9.490509945899248">
<ele>366.6</ele>
<time>2024-05-11T10:54:49Z</time>
</trkpt>
<trkpt lat="49.65405651368201" lon="9.490552861243486">
<ele>366.6</ele>
<time>2024-05-11T10:54:50Z</time>
</trkpt>
<trkpt lat="49.654079396277666" lon="9.490598626434805">
<ele>366.6</ele>
<time>2024-05-11T10:54:51Z</time>
</trkpt>
<trkpt lat="49.65410613454878" lon="9.490646319463847">
<ele>366.6</ele>
<time>2024-05-11T10:54:52Z</time>
</trkpt>
<trkpt lat="49.65412901714444" lon="9.490688312798738">
<ele>366.6</ele>
<time>2024-05-11T10:54:53Z</time>
</trkpt>
<trkpt lat="49.654159527271986" lon="9.490719744935632">
<ele>366.6</ele>
<time>2024-05-11T10:54:54Z</time>
</trkpt>
<trkpt lat="49.65419003739953" lon="9.49074363335967">
<ele>366.8</ele>
<time>2024-05-11T10:54:55Z</time>
</trkpt>
<trkpt lat="49.6542243193835" lon="9.49074455536902">
<ele>366.8</ele>
<time>2024-05-11T10:54:56Z</time>
</trkpt>
<trkpt lat="49.654258685186505" lon="9.49072452262044">
<ele>366.8</ele>
<time>2024-05-11T10:54:57Z</time>
</trkpt>
<trkpt lat="49.65428542345762" lon="9.490690156817436">
<ele>367</ele>
<time>2024-05-11T10:54:58Z</time>
</trkpt>
<trkpt lat="49.65430830605328" lon="9.490646319463847">
<ele>367</ele>
<time>2024-05-11T10:54:59Z</time>
</trkpt>
<trkpt lat="49.65433118864894" lon="9.49060340411961">
<ele>367.2</ele>
<time>2024-05-11T10:55:00Z</time>
</trkpt>
<trkpt lat="49.654357843101025" lon="9.490554789081216">
<ele>367</ele>
<time>2024-05-11T10:55:01Z</time>
</trkpt>
<trkpt lat="49.65438835322857" lon="9.490501396358011">
<ele>367</ele>
<time>2024-05-11T10:55:02Z</time>
</trkpt>
<trkpt lat="49.654415091499686" lon="9.490451775491238">
<ele>367</ele>
<time>2024-05-11T10:55:03Z</time>
</trkpt>
<trkpt lat="49.65444945730269" lon="9.490413637831807">
<ele>367</ele>
<time>2024-05-11T10:55:04Z</time>
</trkpt>
<trkpt lat="49.65448759496212" lon="9.490381199866532">
<ele>367</ele>
<time>2024-05-11T10:55:05Z</time>
</trkpt>
<trkpt lat="49.65452573262155" lon="9.490353539586067">
<ele>367.2</ele>
<time>2024-05-11T10:55:06Z</time>
</trkpt>
<trkpt lat="49.65456387028098" lon="9.49032680131495">
<ele>367.2</ele>
<time>2024-05-11T10:55:07Z</time>
</trkpt>
<trkpt lat="49.65460586361587" lon="9.490296291187406">
<ele>367.2</ele>
<time>2024-05-11T10:55:08Z</time>
</trkpt>
<trkpt lat="49.6546440012753" lon="9.49026863090694">
<ele>367.2</ele>
<time>2024-05-11T10:55:09Z</time>
</trkpt>
<trkpt lat="49.65468591079116" lon="9.490240048617125">
<ele>367.4</ele>
<time>2024-05-11T10:55:10Z</time>
</trkpt>
<trkpt lat="49.654731675982475" lon="9.49021339416504">
<ele>367.4</ele>
<time>2024-05-11T10:55:11Z</time>
</trkpt>
<trkpt lat="49.654777524992824" lon="9.490188583731651">
<ele>367.4</ele>
<time>2024-05-11T10:55:12Z</time>
</trkpt>
<trkpt lat="49.65481943450868" lon="9.490161845460534">
<ele>367.6</ele>
<time>2024-05-11T10:55:13Z</time>
</trkpt>
<trkpt lat="49.65486142784357" lon="9.49013133533299">
<ele>367.6</ele>
<time>2024-05-11T10:55:14Z</time>
</trkpt>
<trkpt lat="49.65490333735943" lon="9.490101747214794">
<ele>367.8</ele>
<time>2024-05-11T10:55:15Z</time>
</trkpt>
<trkpt lat="49.65494155883789" lon="9.490075092762709">
<ele>368</ele>
<time>2024-05-11T10:55:16Z</time>
</trkpt>
<trkpt lat="49.65498346835375" lon="9.49005120433867">
<ele>368.2</ele>
<time>2024-05-11T10:55:17Z</time>
</trkpt>
<trkpt lat="49.65502546168864" lon="9.490026393905282">
<ele>368.4</ele>
<time>2024-05-11T10:55:18Z</time>
</trkpt>
<trkpt lat="49.655067371204495" lon="9.489999739453197">
<ele>368.4</ele>
<time>2024-05-11T10:55:19Z</time>
</trkpt>
<trkpt lat="49.655109364539385" lon="9.48997207917273">
<ele>368.6</ele>
<time>2024-05-11T10:55:20Z</time>
</trkpt>
<trkpt lat="49.6551551297307" lon="9.489945340901611">
<ele>368.8</ele>
<time>2024-05-11T10:55:21Z</time>
</trkpt>
<trkpt lat="49.65519712306559" lon="9.489916758611798">
<ele>369</ele>
<time>2024-05-11T10:55:22Z</time>
</trkpt>
<trkpt lat="49.65523903258145" lon="9.489888176321983">
<ele>369.2</ele>
<time>2024-05-11T10:55:23Z</time>
</trkpt>
<trkpt lat="49.65528102591634" lon="9.489859510213137">
<ele>369.2</ele>
<time>2024-05-11T10:55:24Z</time>
</trkpt>
<trkpt lat="49.65532301925123" lon="9.489832855761051">
<ele>369.2</ele>
<time>2024-05-11T10:55:25Z</time>
</trkpt>
<trkpt lat="49.655364928767085" lon="9.489803267642856">
<ele>369.2</ele>
<time>2024-05-11T10:55:26Z</time>
</trkpt>
<trkpt lat="49.655406922101974" lon="9.489776529371738">
<ele>369.2</ele>
<time>2024-05-11T10:55:27Z</time>
</trkpt>
<trkpt lat="49.65544883161783" lon="9.489751802757382">
<ele>369</ele>
<time>2024-05-11T10:55:28Z</time>
</trkpt>
<trkpt lat="49.65549082495272" lon="9.489726992323996">
<ele>369</ele>
<time>2024-05-11T10:55:29Z</time>
</trkpt>
<trkpt lat="49.65553281828761" lon="9.48969841003418">
<ele>369</ele>
<time>2024-05-11T10:55:30Z</time>
</trkpt>
<trkpt lat="49.65557095594704" lon="9.489673599600792">
<ele>369</ele>
<time>2024-05-11T10:55:31Z</time>
</trkpt>
<trkpt lat="49.6556128654629" lon="9.489646861329676">
<ele>369</ele>
<time>2024-05-11T10:55:32Z</time>
</trkpt>
<trkpt lat="49.65565108694136" lon="9.489622050896289">
<ele>369</ele>
<time>2024-05-11T10:55:33Z</time>
</trkpt>
<trkpt lat="49.65568922460079" lon="9.489602018147709">
<ele>369</ele>
<time>2024-05-11T10:55:34Z</time>
</trkpt>
<trkpt lat="49.65572350658476" lon="9.489581985399129">
<ele>369</ele>
<time>2024-05-11T10:55:35Z</time>
</trkpt>
<trkpt lat="49.65575787238777" lon="9.489561952650549">
<ele>369</ele>
<time>2024-05-11T10:55:36Z</time>
</trkpt>
<trkpt lat="49.65578452683985" lon="9.48954007588327">
<ele>369</ele>
<time>2024-05-11T10:55:37Z</time>
</trkpt>
<trkpt lat="49.65581126511097" lon="9.48951618745923">
<ele>369</ele>
<time>2024-05-11T10:55:38Z</time>
</trkpt>
<trkpt lat="49.65583414770663" lon="9.48949615471065">
<ele>369</ele>
<time>2024-05-11T10:55:39Z</time>
</trkpt>
<trkpt lat="49.655857030302286" lon="9.489477127790453">
<ele>369.2</ele>
<time>2024-05-11T10:55:40Z</time>
</trkpt>
<trkpt lat="49.65587614104152" lon="9.489463800564408">
<ele>369.4</ele>
<time>2024-05-11T10:55:41Z</time>
</trkpt>
<trkpt lat="49.65589516796172" lon="9.489446617662908">
<ele>369.4</ele>
<time>2024-05-11T10:55:42Z</time>
</trkpt>
<trkpt lat="49.65591042302549" lon="9.489426584914328">
<ele>369.4</ele>
<time>2024-05-11T10:55:43Z</time>
</trkpt>
<trkpt lat="49.655921906232834" lon="9.489408480003476">
<ele>369.4</ele>
<time>2024-05-11T10:55:44Z</time>
</trkpt>
<trkpt lat="49.655937161296606" lon="9.489390291273594">
<ele>369.4</ele>
<time>2024-05-11T10:55:45Z</time>
</trkpt>
<trkpt lat="49.65594856068492" lon="9.489370342344046">
<ele>369.4</ele>
<time>2024-05-11T10:55:46Z</time>
</trkpt>
<trkpt lat="49.655956188216805" lon="9.489357937127352">
<ele>369.4</ele>
<time>2024-05-11T10:55:47Z</time>
</trkpt>
<trkpt lat="49.655960043892264" lon="9.489355087280272">
<ele>369.4</ele>
<time>2024-05-11T10:55:48Z</time>
</trkpt>
<trkpt lat="49.655960043892264" lon="9.489357937127352">
<ele>369.4</ele>
<time>2024-05-11T10:55:49Z</time>
</trkpt>
<trkpt lat="49.655960043892264" lon="9.489356931298971">
<ele>369.4</ele>
<time>2024-05-11T10:55:50Z</time>
</trkpt>
<trkpt lat="49.655960043892264" lon="9.489357937127352">
<ele>369.6</ele>
<time>2024-05-11T10:55:51Z</time>
</trkpt>
<trkpt lat="49.655956188216805" lon="9.489356931298971">
<ele>369.6</ele>
<time>2024-05-11T10:55:52Z</time>
</trkpt>
<trkpt lat="49.655956188216805" lon="9.489355087280272">
<ele>369.6</ele>
<time>2024-05-11T10:55:55Z</time>
</trkpt>
<trkpt lat="49.655956188216805" lon="9.489353159442544">
<ele>369.6</ele>
<time>2024-05-11T10:55:57Z</time>
</trkpt>
<trkpt lat="49.655956188216805" lon="9.489351231604816">
<ele>369.6</ele>
<time>2024-05-11T10:55:59Z</time>
</trkpt>
<trkpt lat="49.655956188216805" lon="9.489350309595466">
<ele>369.6</ele>
<time>2024-05-11T10:56:01Z</time>
</trkpt>
<trkpt lat="49.655960043892264" lon="9.489350309595466">
<ele>369.4</ele>
<time>2024-05-11T10:56:03Z</time>
</trkpt>
<trkpt lat="49.655960043892264" lon="9.489348381757736">
<ele>369.4</ele>
<time>2024-05-11T10:56:04Z</time>
</trkpt>
<trkpt lat="49.655960043892264" lon="9.489346453920009">
<ele>369.4</ele>
<time>2024-05-11T10:56:20Z</time>
</trkpt>
<trkpt lat="49.655960043892264" lon="9.489348381757736">
<ele>369.2</ele>
<time>2024-05-11T10:56:22Z</time>
</trkpt>
<trkpt lat="49.655960043892264" lon="9.489350309595466">
<ele>369.2</ele>
<time>2024-05-11T10:56:23Z</time>
</trkpt>
<trkpt lat="49.655956188216805" lon="9.489346453920009">
<ele>369</ele>
<time>2024-05-11T10:56:24Z</time>
</trkpt>
<trkpt lat="49.655956188216805" lon="9.489344526082276">
<ele>369</ele>
<time>2024-05-11T10:56:25Z</time>
</trkpt>
<trkpt lat="49.655956188216805" lon="9.489346453920009">
<ele>368.8</ele>
<time>2024-05-11T10:56:26Z</time>
</trkpt>
<trkpt lat="49.655956188216805" lon="9.489348381757736">
<ele>368.8</ele>
<time>2024-05-11T10:56:33Z</time>
</trkpt>
<trkpt lat="49.655956188216805" lon="9.489346453920009">
<ele>368.6</ele>
<time>2024-05-11T10:56:41Z</time>
</trkpt>
<trkpt lat="49.655956188216805" lon="9.489344526082276">
<ele>368.2</ele>
<time>2024-05-11T10:56:52Z</time>
</trkpt>
<trkpt lat="49.655956188216805" lon="9.489346453920009">
<ele>368</ele>
<time>2024-05-11T10:56:59Z</time>
</trkpt>
<trkpt lat="49.655960043892264" lon="9.489348381757736">
<ele>367.6</ele>
<time>2024-05-11T10:57:00Z</time>
</trkpt>
<trkpt lat="49.655960043892264" lon="9.489350309595466">
<ele>367.4</ele>
<time>2024-05-11T10:57:02Z</time>
</trkpt>
<trkpt lat="49.655960043892264" lon="9.489351231604816">
<ele>367.2</ele>
<time>2024-05-11T10:57:03Z</time>
</trkpt>
<trkpt lat="49.65596381574869" lon="9.489351231604816">
<ele>367</ele>
<time>2024-05-11T10:57:04Z</time>
</trkpt>
<trkpt lat="49.65596381574869" lon="9.489350309595466">
<ele>366.8</ele>
<time>2024-05-11T10:57:07Z</time>
</trkpt>
<trkpt lat="49.65596381574869" lon="9.489348381757736">
<ele>366.6</ele>
<time>2024-05-11T10:57:08Z</time>
</trkpt>
<trkpt lat="49.65596767142415" lon="9.489348381757736">
<ele>366.4</ele>
<time>2024-05-11T10:57:09Z</time>
</trkpt>
<trkpt lat="49.65596767142415" lon="9.489346453920009">
<ele>366.2</ele>
<time>2024-05-11T10:57:10Z</time>
</trkpt>
<trkpt lat="49.65596767142415" lon="9.489344526082276">
<ele>366.2</ele>
<time>2024-05-11T10:57:12Z</time>
</trkpt>
<trkpt lat="49.65596767142415" lon="9.489346453920009">
<ele>366.2</ele>
<time>2024-05-11T10:57:16Z</time>
</trkpt>
<trkpt lat="49.65596767142415" lon="9.489344526082276">
<ele>366</ele>
<time>2024-05-11T10:57:20Z</time>
</trkpt>
<trkpt lat="49.65596381574869" lon="9.489344526082276">
<ele>366</ele>
<time>2024-05-11T10:57:27Z</time>
</trkpt>
<trkpt lat="49.65596381574869" lon="9.489343604072928">
<ele>366</ele>
<time>2024-05-11T10:57:40Z</time>
</trkpt>
<trkpt lat="49.65596381574869" lon="9.4893416762352">
<ele>366</ele>
<time>2024-05-11T10:57:46Z</time>
</trkpt>
<trkpt lat="49.655960043892264" lon="9.4893416762352">
<ele>366</ele>
<time>2024-05-11T10:57:48Z</time>
</trkpt>
<trkpt lat="49.655960043892264" lon="9.489343604072928">
<ele>366</ele>
<time>2024-05-11T10:57:51Z</time>
</trkpt>
<trkpt lat="49.655960043892264" lon="9.489344526082276">
<ele>366</ele>
<time>2024-05-11T10:57:54Z</time>
</trkpt>
<trkpt lat="49.655960043892264" lon="9.489348381757736">
<ele>366</ele>
<time>2024-05-11T10:57:59Z</time>
</trkpt>
<trkpt lat="49.655960043892264" lon="9.489350309595466">
<ele>366</ele>
<time>2024-05-11T10:58:00Z</time>
</trkpt>
<trkpt lat="49.655960043892264" lon="9.489348381757736">
<ele>366</ele>
<time>2024-05-11T10:58:02Z</time>
</trkpt>
<trkpt lat="49.65596381574869" lon="9.489350309595466">
<ele>366</ele>
<time>2024-05-11T10:58:03Z</time>
</trkpt>
<trkpt lat="49.65596381574869" lon="9.489351231604816">
<ele>366</ele>
<time>2024-05-11T10:58:05Z</time>
</trkpt>
<trkpt lat="49.65596381574869" lon="9.489353159442544">
<ele>366</ele>
<time>2024-05-11T10:58:06Z</time>
</trkpt>
<trkpt lat="49.65596381574869" lon="9.489355087280272">
<ele>366</ele>
<time>2024-05-11T10:58:07Z</time>
</trkpt>
<trkpt lat="49.65596381574869" lon="9.489353159442544">
<ele>366</ele>
<time>2024-05-11T10:58:14Z</time>
</trkpt>
<trkpt lat="49.65596381574869" lon="9.489351231604816">
<ele>366</ele>
<time>2024-05-11T10:58:19Z</time>
</trkpt>
<trkpt lat="49.655960043892264" lon="9.489351231604816">
<ele>366</ele>
<time>2024-05-11T10:58:20Z</time>
</trkpt>
<trkpt lat="49.655960043892264" lon="9.489350309595466">
<ele>366.2</ele>
<time>2024-05-11T10:58:23Z</time>
</trkpt>
<trkpt lat="49.655960043892264" lon="9.489351231604816">
<ele>366.2</ele>
<time>2024-05-11T10:58:34Z</time>
</trkpt>
<trkpt lat="49.655960043892264" lon="9.489350309595466">
<ele>366.2</ele>
<time>2024-05-11T10:58:37Z</time>
</trkpt>
<trkpt lat="49.655960043892264" lon="9.489348381757736">
<ele>366.4</ele>
<time>2024-05-11T10:58:42Z</time>
</trkpt>
<trkpt lat="49.655960043892264" lon="9.489350309595466">
<ele>366.4</ele>
<time>2024-05-11T10:58:43Z</time>
</trkpt>
<trkpt lat="49.655960043892264" lon="9.489348381757736">
<ele>366.6</ele>
<time>2024-05-11T10:59:19Z</time>
</trkpt>
<trkpt lat="49.65596381574869" lon="9.489348381757736">
<ele>366.6</ele>
<time>2024-05-11T10:59:20Z</time>
</trkpt>
<trkpt lat="49.655960043892264" lon="9.489348381757736">
<ele>366.8</ele>
<time>2024-05-11T10:59:21Z</time>
</trkpt>
<trkpt lat="49.655960043892264" lon="9.489346453920009">
<ele>366.8</ele>
<time>2024-05-11T10:59:23Z</time>
</trkpt>
<trkpt lat="49.655960043892264" lon="9.489344526082276">
<ele>366.8</ele>
<time>2024-05-11T10:59:25Z</time>
</trkpt>
<trkpt lat="49.655960043892264" lon="9.489343604072928">
<ele>366.8</ele>
<time>2024-05-11T10:59:31Z</time>
</trkpt>
<trkpt lat="49.655960043892264" lon="9.489344526082276">
<ele>367</ele>
<time>2024-05-11T10:59:48Z</time>
</trkpt>
<trkpt lat="49.655960043892264" lon="9.489343604072928">
<ele>367</ele>
<time>2024-05-11T10:59:50Z</time>
</trkpt>
<trkpt lat="49.655960043892264" lon="9.4893416762352">
<ele>367</ele>
<time>2024-05-11T10:59:59Z</time>
</trkpt>
<trkpt lat="49.655960043892264" lon="9.48933974839747">
<ele>367</ele>
<time>2024-05-11T11:00:02Z</time>
</trkpt>
<trkpt lat="49.655960043892264" lon="9.489337904378772">
<ele>367.2</ele>
<time>2024-05-11T11:00:06Z</time>
</trkpt>
<trkpt lat="49.655960043892264" lon="9.48933974839747">
<ele>367.2</ele>
<time>2024-05-11T11:00:21Z</time>
</trkpt>
<trkpt lat="49.655960043892264" lon="9.4893416762352">
<ele>367.4</ele>
<time>2024-05-11T11:00:30Z</time>
</trkpt>
<trkpt lat="49.655960043892264" lon="9.489343604072928">
<ele>367.6</ele>
<time>2024-05-11T11:00:44Z</time>
</trkpt>
<trkpt lat="49.655960043892264" lon="9.4893416762352">
<ele>367.6</ele>
<time>2024-05-11T11:00:48Z</time>
</trkpt>
<trkpt lat="49.655960043892264" lon="9.489343604072928">
<ele>367.8</ele>
<time>2024-05-11T11:00:49Z</time>
</trkpt>
<trkpt lat="49.655960043892264" lon="9.4893416762352">
<ele>367.8</ele>
<time>2024-05-11T11:00:51Z</time>
</trkpt>
<trkpt lat="49.655960043892264" lon="9.489343604072928">
<ele>368</ele>
<time>2024-05-11T11:01:07Z</time>
</trkpt>
<trkpt lat="49.655960043892264" lon="9.4893416762352">
<ele>368</ele>
<time>2024-05-11T11:01:17Z</time>
</trkpt>
<trkpt lat="49.655960043892264" lon="9.489343604072928">
<ele>368</ele>
<time>2024-05-11T11:01:32Z</time>
</trkpt>
<trkpt lat="49.655960043892264" lon="9.489344526082276">
<ele>368.2</ele>
<time>2024-05-11T11:01:36Z</time>
</trkpt>
<trkpt lat="49.655960043892264" lon="9.489346453920009">
<ele>368.2</ele>
<time>2024-05-11T11:01:42Z</time>
</trkpt>
<trkpt lat="49.655960043892264" lon="9.489344526082276">
<ele>368.2</ele>
<time>2024-05-11T11:01:43Z</time>
</trkpt>
<trkpt lat="49.655960043892264" lon="9.489346453920009">
<ele>368.2</ele>
<time>2024-05-11T11:01:46Z</time>
</trkpt>
<trkpt lat="49.655956188216805" lon="9.489346453920009">
<ele>368.2</ele>
<time>2024-05-11T11:01:53Z</time>
</trkpt>
<trkpt lat="49.655956188216805" lon="9.489348381757736">
<ele>368.2</ele>
<time>2024-05-11T11:01:55Z</time>
</trkpt>
<trkpt lat="49.655956188216805" lon="9.489346453920009">
<ele>368.2</ele>
<time>2024-05-11T11:01:57Z</time>
</trkpt>
<trkpt lat="49.655960043892264" lon="9.489344526082276">
<ele>368.2</ele>
<time>2024-05-11T11:02:01Z</time>
</trkpt>
<trkpt lat="49.655960043892264" lon="9.489346453920009">
<ele>368.2</ele>
<time>2024-05-11T11:02:03Z</time>
</trkpt>
<trkpt lat="49.655960043892264" lon="9.489344526082276">
<ele>368.2</ele>
<time>2024-05-11T11:02:07Z</time>
</trkpt>
<trkpt lat="49.655960043892264" lon="9.489343604072928">
<ele>368.2</ele>
<time>2024-05-11T11:03:06Z</time>
</trkpt>
<trkpt lat="49.65596381574869" lon="9.489343604072928">
<ele>368.2</ele>
<time>2024-05-11T11:03:19Z</time>
</trkpt>
<trkpt lat="49.65596381574869" lon="9.489344526082276">
<ele>368.2</ele>
<time>2024-05-11T11:03:22Z</time>
</trkpt>
<trkpt lat="49.65596381574869" lon="9.489346453920009">
<ele>368.2</ele>
<time>2024-05-11T11:03:27Z</time>
</trkpt>
<trkpt lat="49.65596381574869" lon="9.489348381757736">
<ele>368.2</ele>
<time>2024-05-11T11:03:31Z</time>
</trkpt>
<trkpt lat="49.65596767142415" lon="9.489348381757736">
<ele>368.2</ele>
<time>2024-05-11T11:03:37Z</time>
</trkpt>
<trkpt lat="49.65596767142415" lon="9.489350309595466">
<ele>368.2</ele>
<time>2024-05-11T11:03:44Z</time>
</trkpt>
<trkpt lat="49.65596381574869" lon="9.489350309595466">
<ele>368.2</ele>
<time>2024-05-11T11:03:50Z</time>
</trkpt>
<trkpt lat="49.65596381574869" lon="9.489351231604816">
<ele>368.2</ele>
<time>2024-05-11T11:03:54Z</time>
</trkpt>
<trkpt lat="49.65596381574869" lon="9.489355087280272">
<ele>368.2</ele>
<time>2024-05-11T11:04:04Z</time>
</trkpt>
<trkpt lat="49.65596381574869" lon="9.489353159442544">
<ele>368.2</ele>
<time>2024-05-11T11:04:06Z</time>
</trkpt>
<trkpt lat="49.65596767142415" lon="9.489351231604816">
<ele>368.2</ele>
<time>2024-05-11T11:04:07Z</time>
</trkpt>
<trkpt lat="49.65596767142415" lon="9.489353159442544">
<ele>368.2</ele>
<time>2024-05-11T11:04:08Z</time>
</trkpt>
<trkpt lat="49.65596767142415" lon="9.489351231604816">
<ele>368.2</ele>
<time>2024-05-11T11:04:10Z</time>
</trkpt>
<trkpt lat="49.65596767142415" lon="9.489353159442544">
<ele>368.2</ele>
<time>2024-05-11T11:04:11Z</time>
</trkpt>
<trkpt lat="49.65596767142415" lon="9.489351231604816">
<ele>368.2</ele>
<time>2024-05-11T11:04:12Z</time>
</trkpt>
<trkpt lat="49.65597152709961" lon="9.489353159442544">
<ele>368.2</ele>
<time>2024-05-11T11:04:17Z</time>
</trkpt>
<trkpt lat="49.65597152709961" lon="9.489351231604816">
<ele>368.2</ele>
<time>2024-05-11T11:04:19Z</time>
</trkpt>
<trkpt lat="49.65597152709961" lon="9.489350309595466">
<ele>368.2</ele>
<time>2024-05-11T11:04:20Z</time>
</trkpt>
<trkpt lat="49.65597152709961" lon="9.489348381757736">
<ele>368.2</ele>
<time>2024-05-11T11:04:22Z</time>
</trkpt>
<trkpt lat="49.65596767142415" lon="9.489348381757736">
<ele>368.2</ele>
<time>2024-05-11T11:04:23Z</time>
</trkpt>
<trkpt lat="49.65596767142415" lon="9.489346453920009">
<ele>368.2</ele>
<time>2024-05-11T11:04:24Z</time>
</trkpt>
<trkpt lat="49.65596767142415" lon="9.489344526082276">
<ele>368.2</ele>
<time>2024-05-11T11:04:26Z</time>
</trkpt>
<trkpt lat="49.65597152709961" lon="9.489344526082276">
<ele>368.2</ele>
<time>2024-05-11T11:04:33Z</time>
</trkpt>
<trkpt lat="49.65597152709961" lon="9.489343604072928">
<ele>368.2</ele>
<time>2024-05-11T11:04:35Z</time>
</trkpt>
<trkpt lat="49.65597152709961" lon="9.4893416762352">
<ele>368.2</ele>
<time>2024-05-11T11:04:38Z</time>
</trkpt>
<trkpt lat="49.65597152709961" lon="9.489343604072928">
<ele>368.2</ele>
<time>2024-05-11T11:04:39Z</time>
</trkpt>
<trkpt lat="49.65597152709961" lon="9.4893416762352">
<ele>368.2</ele>
<time>2024-05-11T11:04:42Z</time>
</trkpt>
<trkpt lat="49.65596767142415" lon="9.4893416762352">
<ele>368.2</ele>
<time>2024-05-11T11:04:46Z</time>
</trkpt>
<trkpt lat="49.65596767142415" lon="9.48933974839747">
<ele>368.2</ele>
<time>2024-05-11T11:04:49Z</time>
</trkpt>
<trkpt lat="49.65596767142415" lon="9.489337904378772">
<ele>368.2</ele>
<time>2024-05-11T11:04:52Z</time>
</trkpt>
<trkpt lat="49.65596381574869" lon="9.489337904378772">
<ele>368.2</ele>
<time>2024-05-11T11:04:57Z</time>
</trkpt>
<trkpt lat="49.65596381574869" lon="9.48933974839747">
<ele>368.2</ele>
<time>2024-05-11T11:05:02Z</time>
</trkpt>
<trkpt lat="49.65596381574869" lon="9.4893416762352">
<ele>368.2</ele>
<time>2024-05-11T11:05:09Z</time>
</trkpt>
<trkpt lat="49.655960043892264" lon="9.48933974839747">
<ele>368.2</ele>
<time>2024-05-11T11:05:10Z</time>
</trkpt>
<trkpt lat="49.65596381574869" lon="9.48933974839747">
<ele>368.2</ele>
<time>2024-05-11T11:05:18Z</time>
</trkpt>
<trkpt lat="49.65596381574869" lon="9.489337904378772">
<ele>368.2</ele>
<time>2024-05-11T11:05:30Z</time>
</trkpt>
<trkpt lat="49.65596381574869" lon="9.489336898550391">
<ele>368.2</ele>
<time>2024-05-11T11:05:37Z</time>
</trkpt>
<trkpt lat="49.65596381574869" lon="9.489335054531692">
<ele>368.2</ele>
<time>2024-05-11T11:05:45Z</time>
</trkpt>
<trkpt lat="49.65596381574869" lon="9.489336898550391">
<ele>368.2</ele>
<time>2024-05-11T11:05:54Z</time>
</trkpt>
<trkpt lat="49.65596381574869" lon="9.489335054531692">
<ele>368.2</ele>
<time>2024-05-11T11:06:02Z</time>
</trkpt>
<trkpt lat="49.655960043892264" lon="9.489333126693964">
<ele>368.2</ele>
<time>2024-05-11T11:06:11Z</time>
</trkpt>
<trkpt lat="49.65596381574869" lon="9.489333126693964">
<ele>368.2</ele>
<time>2024-05-11T11:06:14Z</time>
</trkpt>
<trkpt lat="49.65596381574869" lon="9.489331198856236">
<ele>368.2</ele>
<time>2024-05-11T11:06:16Z</time>
</trkpt>
<trkpt lat="49.65596381574869" lon="9.489333126693964">
<ele>368.2</ele>
<time>2024-05-11T11:06:19Z</time>
</trkpt>
<trkpt lat="49.65596381574869" lon="9.489335054531692">
<ele>368.2</ele>
<time>2024-05-11T11:06:22Z</time>
</trkpt>
<trkpt lat="49.65596381574869" lon="9.489336898550391">
<ele>368.2</ele>
<time>2024-05-11T11:06:25Z</time>
</trkpt>
<trkpt lat="49.65596381574869" lon="9.489337904378772">
<ele>368.2</ele>
<time>2024-05-11T11:06:36Z</time>
</trkpt>
<trkpt lat="49.65596381574869" lon="9.48933974839747">
<ele>368.2</ele>
<time>2024-05-11T11:06:39Z</time>
</trkpt>
<trkpt lat="49.65596381574869" lon="9.4893416762352">
<ele>368.2</ele>
<time>2024-05-11T11:06:42Z</time>
</trkpt>
<trkpt lat="49.65596381574869" lon="9.489343604072928">
<ele>368.2</ele>
<time>2024-05-11T11:06:57Z</time>
</trkpt>
<trkpt lat="49.655960043892264" lon="9.489343604072928">
<ele>368.2</ele>
<time>2024-05-11T11:07:04Z</time>
</trkpt>
<trkpt lat="49.655960043892264" lon="9.4893416762352">
<ele>368.2</ele>
<time>2024-05-11T11:07:10Z</time>
</trkpt>
<trkpt lat="49.655960043892264" lon="9.489343604072928">
<ele>368.2</ele>
<time>2024-05-11T11:07:12Z</time>
</trkpt>
<trkpt lat="49.655960043892264" lon="9.489344526082276">
<ele>368.2</ele>
<time>2024-05-11T11:07:20Z</time>
</trkpt>
<trkpt lat="49.655960043892264" lon="9.489343604072928">
<ele>368.2</ele>
<time>2024-05-11T11:07:21Z</time>
</trkpt>
<trkpt lat="49.65596767142415" lon="9.489333126693964">
<ele>368.2</ele>
<time>2024-05-11T11:07:25Z</time>
</trkpt>
<trkpt lat="49.65597529895604" lon="9.48932164348662">
<ele>368.2</ele>
<time>2024-05-11T11:07:26Z</time>
</trkpt>
<trkpt lat="49.65598292648792" lon="9.489308316260576">
<ele>368.2</ele>
<time>2024-05-11T11:07:27Z</time>
</trkpt>
<trkpt lat="49.65599440969527" lon="9.48928157798946">
<ele>368.2</ele>
<time>2024-05-11T11:07:28Z</time>
</trkpt>
<trkpt lat="49.65600966475904" lon="9.489246290177109">
<ele>368.2</ele>
<time>2024-05-11T11:07:29Z</time>
</trkpt>
<trkpt lat="49.65602106414735" lon="9.489216785877945">
<ele>368.2</ele>
<time>2024-05-11T11:07:30Z</time>
</trkpt>
<trkpt lat="49.656036319211125" lon="9.489185269922018">
<ele>368.2</ele>
<time>2024-05-11T11:07:31Z</time>
</trkpt>
<trkpt lat="49.65604780241847" lon="9.48914621025324">
<ele>368.2</ele>
<time>2024-05-11T11:07:32Z</time>
</trkpt>
<trkpt lat="49.65606305748224" lon="9.489108072593808">
<ele>368.2</ele>
<time>2024-05-11T11:07:33Z</time>
</trkpt>
<trkpt lat="49.65607445687056" lon="9.489069934934378">
<ele>368.2</ele>
<time>2024-05-11T11:07:34Z</time>
</trkpt>
<trkpt lat="49.65608971193433" lon="9.489029869437218">
<ele>368.2</ele>
<time>2024-05-11T11:07:35Z</time>
</trkpt>
<trkpt lat="49.6561049669981" lon="9.488991731777787">
<ele>368.2</ele>
<time>2024-05-11T11:07:36Z</time>
</trkpt>
<trkpt lat="49.65612022206187" lon="9.488949738442898">
<ele>368.2</ele>
<time>2024-05-11T11:07:37Z</time>
</trkpt>
<trkpt lat="49.656139332801104" lon="9.488902045413852">
<ele>368.2</ele>
<time>2024-05-11T11:07:38Z</time>
</trkpt>
<trkpt lat="49.65615458786488" lon="9.488851502537727">
<ele>368.2</ele>
<time>2024-05-11T11:07:39Z</time>
</trkpt>
<trkpt lat="49.65617369860411" lon="9.488804815337062">
<ele>368.2</ele>
<time>2024-05-11T11:07:40Z</time>
</trkpt>
<trkpt lat="49.656196581199765" lon="9.488759972155094">
<ele>368.2</ele>
<time>2024-05-11T11:07:41Z</time>
</trkpt>
<trkpt lat="49.656215608119965" lon="9.48871035128832">
<ele>368.2</ele>
<time>2024-05-11T11:07:42Z</time>
</trkpt>
<trkpt lat="49.65623086318374" lon="9.488657880574465">
<ele>368.2</ele>
<time>2024-05-11T11:07:43Z</time>
</trkpt>
<trkpt lat="49.65624997392297" lon="9.48861018754542">
<ele>368.2</ele>
<time>2024-05-11T11:07:44Z</time>
</trkpt>
<trkpt lat="49.656272856518626" lon="9.488559644669294">
<ele>368.2</ele>
<time>2024-05-11T11:07:45Z</time>
</trkpt>
<trkpt lat="49.656291883438826" lon="9.488506251946092">
<ele>368.2</ele>
<time>2024-05-11T11:07:46Z</time>
</trkpt>
<trkpt lat="49.65631484985352" lon="9.488458558917046">
<ele>368.2</ele>
<time>2024-05-11T11:07:47Z</time>
</trkpt>
<trkpt lat="49.656337732449174" lon="9.488403238356112">
<ele>368.2</ele>
<time>2024-05-11T11:07:48Z</time>
</trkpt>
<trkpt lat="49.65636438690126" lon="9.488345067948105">
<ele>368.2</ele>
<time>2024-05-11T11:07:49Z</time>
</trkpt>
<trkpt lat="49.65638726949692" lon="9.488280275836589">
<ele>368.2</ele>
<time>2024-05-11T11:07:50Z</time>
</trkpt>
<trkpt lat="49.656414007768035" lon="9.488209700211884">
<ele>368.2</ele>
<time>2024-05-11T11:07:51Z</time>
</trkpt>
<trkpt lat="49.65643689036369" lon="9.488142896443604">
<ele>368.4</ele>
<time>2024-05-11T11:07:52Z</time>
</trkpt>
<trkpt lat="49.65646354481578" lon="9.488081876188517">
<ele>368.4</ele>
<time>2024-05-11T11:07:53Z</time>
</trkpt>
<trkpt lat="49.65648651123047" lon="9.488024711608888">
<ele>368.6</ele>
<time>2024-05-11T11:07:54Z</time>
</trkpt>
<trkpt lat="49.65651702135801" lon="9.487971235066652">
<ele>368.8</ele>
<time>2024-05-11T11:07:55Z</time>
</trkpt>
<trkpt lat="49.65655515901744" lon="9.487923542037606">
<ele>369</ele>
<time>2024-05-11T11:07:56Z</time>
</trkpt>
<trkpt lat="49.656593296676874" lon="9.48787878267467">
<ele>369.2</ele>
<time>2024-05-11T11:07:57Z</time>
</trkpt>
<trkpt lat="49.656631434336305" lon="9.48783678933978">
<ele>369.4</ele>
<time>2024-05-11T11:07:58Z</time>
</trkpt>
<trkpt lat="49.656673427671194" lon="9.48779865168035">
<ele>369.6</ele>
<time>2024-05-11T11:07:59Z</time>
</trkpt>
<trkpt lat="49.65671533718705" lon="9.48775950819254">
<ele>369.8</ele>
<time>2024-05-11T11:08:00Z</time>
</trkpt>
<trkpt lat="49.65676110237837" lon="9.487723298370838">
<ele>370</ele>
<time>2024-05-11T11:08:01Z</time>
</trkpt>
<trkpt lat="49.65680309571326" lon="9.487691866233943">
<ele>370.2</ele>
<time>2024-05-11T11:08:02Z</time>
</trkpt>
<trkpt lat="49.65685271658003" lon="9.4876613561064">
<ele>370.4</ele>
<time>2024-05-11T11:08:03Z</time>
</trkpt>
<trkpt lat="49.65690225362778" lon="9.487631767988203">
<ele>370.4</ele>
<time>2024-05-11T11:08:04Z</time>
</trkpt>
<trkpt lat="49.65695187449455" lon="9.48760318569839">
<ele>370.4</ele>
<time>2024-05-11T11:08:05Z</time>
</trkpt>
<trkpt lat="49.657005267217755" lon="9.487576447427273">
<ele>370.6</ele>
<time>2024-05-11T11:08:06Z</time>
</trkpt>
<trkpt lat="49.65705488808453" lon="9.487551636993883">
<ele>370.6</ele>
<time>2024-05-11T11:08:07Z</time>
</trkpt>
<trkpt lat="49.65710828080773" lon="9.48752305470407">
<ele>370.8</ele>
<time>2024-05-11T11:08:08Z</time>
</trkpt>
<trkpt lat="49.65715404599905" lon="9.487498244270682">
<ele>370.8</ele>
<time>2024-05-11T11:08:09Z</time>
</trkpt>
<trkpt lat="49.657203666865826" lon="9.487475361675024">
<ele>370.8</ele>
<time>2024-05-11T11:08:10Z</time>
</trkpt>
<trkpt lat="49.65724943205714" lon="9.487449629232287">
<ele>370.8</ele>
<time>2024-05-11T11:08:11Z</time>
</trkpt>
<trkpt lat="49.65729519724846" lon="9.48742196895182">
<ele>371</ele>
<time>2024-05-11T11:08:12Z</time>
</trkpt>
<trkpt lat="49.65733710676432" lon="9.487395230680704">
<ele>371</ele>
<time>2024-05-11T11:08:13Z</time>
</trkpt>
<trkpt lat="49.657379100099206" lon="9.48736664839089">
<ele>370.8</ele>
<time>2024-05-11T11:08:14Z</time>
</trkpt>
<trkpt lat="49.65741723775864" lon="9.487337060272694">
<ele>370.6</ele>
<time>2024-05-11T11:08:15Z</time>
</trkpt>
<trkpt lat="49.657459231093526" lon="9.48730462230742">
<ele>370.6</ele>
<time>2024-05-11T11:08:16Z</time>
</trkpt>
<trkpt lat="49.657501140609384" lon="9.48726841248572">
<ele>370.8</ele>
<time>2024-05-11T11:08:17Z</time>
</trkpt>
<trkpt lat="49.657539362087846" lon="9.487231196835635">
<ele>370.8</ele>
<time>2024-05-11T11:08:18Z</time>
</trkpt>
<trkpt lat="49.6575812716037" lon="9.487192137166858">
<ele>371</ele>
<time>2024-05-11T11:08:19Z</time>
</trkpt>
<trkpt lat="49.65762326493859" lon="9.487152071669698">
<ele>371</ele>
<time>2024-05-11T11:08:20Z</time>
</trkpt>
<trkpt lat="49.65766140259802" lon="9.487112928181888">
<ele>371</ele>
<time>2024-05-11T11:08:21Z</time>
</trkpt>
<trkpt lat="49.657699540257454" lon="9.487071940675378">
<ele>370.8</ele>
<time>2024-05-11T11:08:22Z</time>
</trkpt>
<trkpt lat="49.65773767791688" lon="9.487029947340488">
<ele>370.8</ele>
<time>2024-05-11T11:08:23Z</time>
</trkpt>
<trkpt lat="49.657779671251774" lon="9.48698703199625">
<ele>370.8</ele>
<time>2024-05-11T11:08:24Z</time>
</trkpt>
<trkpt lat="49.6578178089112" lon="9.486943194642665">
<ele>370.8</ele>
<time>2024-05-11T11:08:25Z</time>
</trkpt>
<trkpt lat="49.657859802246094" lon="9.486900279298425">
<ele>370.8</ele>
<time>2024-05-11T11:08:26Z</time>
</trkpt>
<trkpt lat="49.65790171176195" lon="9.486858285963535">
<ele>370.8</ele>
<time>2024-05-11T11:08:27Z</time>
</trkpt>
<trkpt lat="49.65793984942138" lon="9.486816376447678">
<ele>370.8</ele>
<time>2024-05-11T11:08:28Z</time>
</trkpt>
<trkpt lat="49.65798184275627" lon="9.486776310950518">
<ele>370.8</ele>
<time>2024-05-11T11:08:29Z</time>
</trkpt>
<trkpt lat="49.65802375227213" lon="9.48673339560628">
<ele>370.8</ele>
<time>2024-05-11T11:08:30Z</time>
</trkpt>
<trkpt lat="49.65806574560702" lon="9.486688552424312">
<ele>370.8</ele>
<time>2024-05-11T11:08:31Z</time>
</trkpt>
<trkpt lat="49.65810388326645" lon="9.486646642908454">
<ele>370.6</ele>
<time>2024-05-11T11:08:32Z</time>
</trkpt>
<trkpt lat="49.65814587660134" lon="9.486606577411294">
<ele>370.6</ele>
<time>2024-05-11T11:08:33Z</time>
</trkpt>
<trkpt lat="49.65818401426077" lon="9.486563662067056">
<ele>370.6</ele>
<time>2024-05-11T11:08:34Z</time>
</trkpt>
<trkpt lat="49.6582221519202" lon="9.486523596569896">
<ele>370.6</ele>
<time>2024-05-11T11:08:35Z</time>
</trkpt>
<trkpt lat="49.65826028957963" lon="9.486481603235006">
<ele>370.6</ele>
<time>2024-05-11T11:08:36Z</time>
</trkpt>
<trkpt lat="49.65829842723906" lon="9.486441537737846">
<ele>370.6</ele>
<time>2024-05-11T11:08:37Z</time>
</trkpt>
<trkpt lat="49.658332793042064" lon="9.486399628221989">
<ele>370.8</ele>
<time>2024-05-11T11:08:38Z</time>
</trkpt>
<trkpt lat="49.658370930701494" lon="9.486361490562558">
<ele>370.8</ele>
<time>2024-05-11T11:08:39Z</time>
</trkpt>
<trkpt lat="49.658412924036384" lon="9.486323352903128">
<ele>370.8</ele>
<time>2024-05-11T11:08:40Z</time>
</trkpt>
<trkpt lat="49.658451061695814" lon="9.486281359568238">
<ele>371</ele>
<time>2024-05-11T11:08:41Z</time>
</trkpt>
<trkpt lat="49.658489199355245" lon="9.486238444224">
<ele>371</ele>
<time>2024-05-11T11:08:42Z</time>
</trkpt>
<trkpt lat="49.658527337014675" lon="9.48619645088911">
<ele>371.2</ele>
<time>2024-05-11T11:08:43Z</time>
</trkpt>
<trkpt lat="49.658569330349565" lon="9.48615831322968">
<ele>371.2</ele>
<time>2024-05-11T11:08:44Z</time>
</trkpt>
<trkpt lat="49.65861123986542" lon="9.486115397885442">
<ele>371.2</ele>
<time>2024-05-11T11:08:45Z</time>
</trkpt>
<trkpt lat="49.65864937752485" lon="9.486069632694123">
<ele>371.4</ele>
<time>2024-05-11T11:08:46Z</time>
</trkpt>
<trkpt lat="49.65869137085974" lon="9.486031495034696">
<ele>371.4</ele>
<time>2024-05-11T11:08:47Z</time>
</trkpt>
<trkpt lat="49.65873336419463" lon="9.485996207222342">
<ele>371.4</ele>
<time>2024-05-11T11:08:48Z</time>
</trkpt>
<trkpt lat="49.65877527371049" lon="9.485963769257069">
<ele>371.6</ele>
<time>2024-05-11T11:08:49Z</time>
</trkpt>
<trkpt lat="49.658821038901806" lon="9.48594180867076">
<ele>371.6</ele>
<time>2024-05-11T11:08:50Z</time>
</trkpt>
<trkpt lat="49.65887065976858" lon="9.485931331291797">
<ele>371.6</ele>
<time>2024-05-11T11:08:51Z</time>
</trkpt>
<trkpt lat="49.65891265310347" lon="9.485930409282446">
<ele>371.6</ele>
<time>2024-05-11T11:08:52Z</time>
</trkpt>
<trkpt lat="49.65895456261933" lon="9.48593996465206">
<ele>371.6</ele>
<time>2024-05-11T11:08:53Z</time>
</trkpt>
<trkpt lat="49.65899270027876" lon="9.485951364040377">
<ele>371.8</ele>
<time>2024-05-11T11:08:54Z</time>
</trkpt>
<trkpt lat="49.65902706608176" lon="9.48596184141934">
<ele>371.8</ele>
<time>2024-05-11T11:08:55Z</time>
</trkpt>
<trkpt lat="49.65906520374119" lon="9.485973324626684">
<ele>372</ele>
<time>2024-05-11T11:08:56Z</time>
</trkpt>
<trkpt lat="49.65909571386874" lon="9.485988579690456">
<ele>372</ele>
<time>2024-05-11T11:08:57Z</time>
</trkpt>
<trkpt lat="49.65913007967174" lon="9.486011462286116">
<ele>372</ele>
<time>2024-05-11T11:08:58Z</time>
</trkpt>
<trkpt lat="49.659160589799285" lon="9.486028645187616">
<ele>372.2</ele>
<time>2024-05-11T11:08:59Z</time>
</trkpt>
<trkpt lat="49.65919109992683" lon="9.486042894423008">
<ele>372.4</ele>
<time>2024-05-11T11:09:00Z</time>
</trkpt>
<trkpt lat="49.6592253819108" lon="9.486053455621004">
<ele>372.6</ele>
<time>2024-05-11T11:09:01Z</time>
</trkpt>
<trkpt lat="49.65925597585738" lon="9.486066782847049">
<ele>373</ele>
<time>2024-05-11T11:09:02Z</time>
</trkpt>
<trkpt lat="49.65929025784135" lon="9.48608203791082">
<ele>373.2</ele>
<time>2024-05-11T11:09:03Z</time>
</trkpt>
<trkpt lat="49.65932462364435" lon="9.486091593280436">
<ele>373.6</ele>
<time>2024-05-11T11:09:04Z</time>
</trkpt>
<trkpt lat="49.659355133771896" lon="9.4861020706594">
<ele>373.8</ele>
<time>2024-05-11T11:09:05Z</time>
</trkpt>
<trkpt lat="49.65938941575587" lon="9.486109698191283">
<ele>374.2</ele>
<time>2024-05-11T11:09:06Z</time>
</trkpt>
<trkpt lat="49.65942000970245" lon="9.48611824773252">
<ele>374.4</ele>
<time>2024-05-11T11:09:07Z</time>
</trkpt>
<trkpt lat="49.659458147361875" lon="9.48611824773252">
<ele>374.6</ele>
<time>2024-05-11T11:09:08Z</time>
</trkpt>
<trkpt lat="49.659496285021305" lon="9.48612017557025">
<ele>375</ele>
<time>2024-05-11T11:09:09Z</time>
</trkpt>
<trkpt lat="49.659534422680736" lon="9.486123025417328">
<ele>375.2</ele>
<time>2024-05-11T11:09:10Z</time>
</trkpt>
<trkpt lat="49.659572560340166" lon="9.486131658777596">
<ele>375.6</ele>
<time>2024-05-11T11:09:11Z</time>
</trkpt>
<trkpt lat="49.659614553675056" lon="9.486143058165908">
<ele>375.8</ele>
<time>2024-05-11T11:09:12Z</time>
</trkpt>
<trkpt lat="49.65965646319091" lon="9.486149763688443">
<ele>376</ele>
<time>2024-05-11T11:09:13Z</time>
</trkpt>
<trkpt lat="49.6596984565258" lon="9.48615831322968">
<ele>376.2</ele>
<time>2024-05-11T11:09:14Z</time>
</trkpt>
<trkpt lat="49.65973659418523" lon="9.486167868599296">
<ele>376.4</ele>
<time>2024-05-11T11:09:15Z</time>
</trkpt>
<trkpt lat="49.659774731844664" lon="9.48617834597826">
<ele>376.4</ele>
<time>2024-05-11T11:09:16Z</time>
</trkpt>
<trkpt lat="49.659812869504094" lon="9.486189829185603">
<ele>376.6</ele>
<time>2024-05-11T11:09:17Z</time>
</trkpt>
<trkpt lat="49.659851007163525" lon="9.486201228573918">
<ele>376.6</ele>
<time>2024-05-11T11:09:18Z</time>
</trkpt>
<trkpt lat="49.659889144822955" lon="9.48621841147542">
<ele>376.8</ele>
<time>2024-05-11T11:09:19Z</time>
</trkpt>
<trkpt lat="49.65992351062596" lon="9.486238444224">
<ele>376.8</ele>
<time>2024-05-11T11:09:20Z</time>
</trkpt>
<trkpt lat="49.65995787642896" lon="9.486273732036352">
<ele>376.8</ele>
<time>2024-05-11T11:09:21Z</time>
</trkpt>
<trkpt lat="49.65998453088105" lon="9.486321425065398">
<ele>376.8</ele>
<time>2024-05-11T11:09:22Z</time>
</trkpt>
<trkpt lat="49.65999978594482" lon="9.486383367329836">
<ele>376.8</ele>
<time>2024-05-11T11:09:23Z</time>
</trkpt>
<trkpt lat="49.66001126915216" lon="9.486452098935844">
<ele>376.6</ele>
<time>2024-05-11T11:09:24Z</time>
</trkpt>
<trkpt lat="49.66002266854048" lon="9.486521668732166">
<ele>376.6</ele>
<time>2024-05-11T11:09:25Z</time>
</trkpt>
<trkpt lat="49.66003415174782" lon="9.486588472500443">
<ele>376.4</ele>
<time>2024-05-11T11:09:26Z</time>
</trkpt>
<trkpt lat="49.660049406811595" lon="9.486655192449687">
<ele>376.4</ele>
<time>2024-05-11T11:09:27Z</time>
</trkpt>
<trkpt lat="49.66006080619991" lon="9.486721912398934">
<ele>376.2</ele>
<time>2024-05-11T11:09:28Z</time>
</trkpt>
<trkpt lat="49.66007228940725" lon="9.486788716167212">
<ele>376.2</ele>
<time>2024-05-11T11:09:29Z</time>
</trkpt>
<trkpt lat="49.660087544471025" lon="9.48685359209776">
<ele>376</ele>
<time>2024-05-11T11:09:30Z</time>
</trkpt>
<trkpt lat="49.6601027995348" lon="9.486918384209275">
<ele>375.8</ele>
<time>2024-05-11T11:09:31Z</time>
</trkpt>
<trkpt lat="49.66011428274214" lon="9.48698703199625">
<ele>375.8</ele>
<time>2024-05-11T11:09:32Z</time>
</trkpt>
<trkpt lat="49.660129537805915" lon="9.487051907926798">
<ele>375.6</ele>
<time>2024-05-11T11:09:33Z</time>
</trkpt>
<trkpt lat="49.66014479286969" lon="9.487116783857346">
<ele>375.4</ele>
<time>2024-05-11T11:09:34Z</time>
</trkpt>
<trkpt lat="49.66016004793346" lon="9.487178726121783">
<ele>375.2</ele>
<time>2024-05-11T11:09:35Z</time>
</trkpt>
<trkpt lat="49.66017530299723" lon="9.487241674214602">
<ele>375</ele>
<time>2024-05-11T11:09:36Z</time>
</trkpt>
<trkpt lat="49.66019818559289" lon="9.487303700298073">
<ele>375</ele>
<time>2024-05-11T11:09:37Z</time>
</trkpt>
<trkpt lat="49.66021344065666" lon="9.48736472055316">
<ele>374.8</ele>
<time>2024-05-11T11:09:38Z</time>
</trkpt>
<trkpt lat="49.660228695720434" lon="9.487426746636627">
<ele>374.8</ele>
<time>2024-05-11T11:09:39Z</time>
</trkpt>
<trkpt lat="49.660243950784206" lon="9.487486761063336">
<ele>374.6</ele>
<time>2024-05-11T11:09:40Z</time>
</trkpt>
<trkpt lat="49.66025920584798" lon="9.48754308745265">
<ele>374.6</ele>
<time>2024-05-11T11:09:41Z</time>
</trkpt>
<trkpt lat="49.66027068905533" lon="9.487594552338123">
<ele>374.6</ele>
<time>2024-05-11T11:09:42Z</time>
</trkpt>
<trkpt lat="49.660285944119096" lon="9.48764132335782">
<ele>374.4</ele>
<time>2024-05-11T11:09:43Z</time>
</trkpt>
<trkpt lat="49.66030119918287" lon="9.487685160711408">
<ele>374.4</ele>
<time>2024-05-11T11:09:44Z</time>
</trkpt>
<trkpt lat="49.66031259857118" lon="9.487731931731105">
<ele>374.4</ele>
<time>2024-05-11T11:09:45Z</time>
</trkpt>
<trkpt lat="49.66032785363495" lon="9.48777861893177">
<ele>374.4</ele>
<time>2024-05-11T11:09:46Z</time>
</trkpt>
<trkpt lat="49.660343108698726" lon="9.487823462113738">
<ele>374.4</ele>
<time>2024-05-11T11:09:47Z</time>
</trkpt>
<trkpt lat="49.6603583637625" lon="9.487870149314404">
<ele>374.4</ele>
<time>2024-05-11T11:09:48Z</time>
</trkpt>
<trkpt lat="49.66037747450173" lon="9.48791784234345">
<ele>374.4</ele>
<time>2024-05-11T11:09:49Z</time>
</trkpt>
<trkpt lat="49.6603927295655" lon="9.487968385219574">
<ele>374.4</ele>
<time>2024-05-11T11:09:50Z</time>
</trkpt>
<trkpt lat="49.6604117564857" lon="9.488017000257967">
<ele>374.2</ele>
<time>2024-05-11T11:09:51Z</time>
</trkpt>
<trkpt lat="49.66042701154947" lon="9.488063771277666">
<ele>374.2</ele>
<time>2024-05-11T11:09:52Z</time>
</trkpt>
<trkpt lat="49.66044235043228" lon="9.488109536468984">
<ele>374.2</ele>
<time>2024-05-11T11:09:53Z</time>
</trkpt>
<trkpt lat="49.66046137735248" lon="9.488162007182837">
<ele>374</ele>
<time>2024-05-11T11:09:54Z</time>
</trkpt>
<trkpt lat="49.660484259948134" lon="9.488208694383502">
<ele>374</ele>
<time>2024-05-11T11:09:55Z</time>
</trkpt>
<trkpt lat="49.660503370687366" lon="9.48825454339385">
<ele>373.8</ele>
<time>2024-05-11T11:09:56Z</time>
</trkpt>
<trkpt lat="49.660526253283024" lon="9.488301230594516">
<ele>373.6</ele>
<time>2024-05-11T11:09:57Z</time>
</trkpt>
<trkpt lat="49.66054528020322" lon="9.48835177347064">
<ele>373.4</ele>
<time>2024-05-11T11:09:58Z</time>
</trkpt>
<trkpt lat="49.660564390942454" lon="9.488405166193845">
<ele>373.2</ele>
<time>2024-05-11T11:09:59Z</time>
</trkpt>
<trkpt lat="49.660583417862654" lon="9.488459564745426">
<ele>373.2</ele>
<time>2024-05-11T11:10:00Z</time>
</trkpt>
<trkpt lat="49.660602528601885" lon="9.488512957468629">
<ele>373</ele>
<time>2024-05-11T11:10:01Z</time>
</trkpt>
<trkpt lat="49.66062163934112" lon="9.488566350191832">
<ele>372.8</ele>
<time>2024-05-11T11:10:02Z</time>
</trkpt>
<trkpt lat="49.66063689440489" lon="9.488619742915034">
<ele>372.8</ele>
<time>2024-05-11T11:10:03Z</time>
</trkpt>
<trkpt lat="49.66065592132509" lon="9.488675063475966">
<ele>372.6</ele>
<time>2024-05-11T11:10:04Z</time>
</trkpt>
<trkpt lat="49.66067503206432" lon="9.4887303840369">
<ele>372.4</ele>
<time>2024-05-11T11:10:05Z</time>
</trkpt>
<trkpt lat="49.66069791465998" lon="9.488784782588482">
<ele>372.2</ele>
<time>2024-05-11T11:10:06Z</time>
</trkpt>
<trkpt lat="49.660716941580176" lon="9.488840103149414">
<ele>372.2</ele>
<time>2024-05-11T11:10:07Z</time>
</trkpt>
<trkpt lat="49.660739824175835" lon="9.488898273557425">
<ele>372</ele>
<time>2024-05-11T11:10:08Z</time>
</trkpt>
<trkpt lat="49.660758934915066" lon="9.488956443965437">
<ele>372</ele>
<time>2024-05-11T11:10:09Z</time>
</trkpt>
<trkpt lat="49.66078181751072" lon="9.489016458392143">
<ele>371.8</ele>
<time>2024-05-11T11:10:10Z</time>
</trkpt>
<trkpt lat="49.660800928249955" lon="9.489078484475613">
<ele>371.8</ele>
<time>2024-05-11T11:10:11Z</time>
</trkpt>
<trkpt lat="49.66082381084561" lon="9.4891395047307">
<ele>371.8</ele>
<time>2024-05-11T11:10:12Z</time>
</trkpt>
<trkpt lat="49.66084669344127" lon="9.48920153081417">
<ele>371.6</ele>
<time>2024-05-11T11:10:13Z</time>
</trkpt>
<trkpt lat="49.66086957603693" lon="9.489265400916338">
<ele>371.6</ele>
<time>2024-05-11T11:10:14Z</time>
</trkpt>
<trkpt lat="49.66089245863259" lon="9.489328349009156">
<ele>371.6</ele>
<time>2024-05-11T11:10:15Z</time>
</trkpt>
<trkpt lat="49.66091534122825" lon="9.489395068958402">
<ele>371.6</ele>
<time>2024-05-11T11:10:16Z</time>
</trkpt>
<trkpt lat="49.660938223823905" lon="9.489463800564408">
<ele>371.6</ele>
<time>2024-05-11T11:10:17Z</time>
</trkpt>
<trkpt lat="49.66096496209502" lon="9.489533370360732">
<ele>371.6</ele>
<time>2024-05-11T11:10:18Z</time>
</trkpt>
<trkpt lat="49.66098784469068" lon="9.489606795832517">
<ele>371.6</ele>
<time>2024-05-11T11:10:19Z</time>
</trkpt>
<trkpt lat="49.661018354818225" lon="9.48967644944787">
<ele>371.8</ele>
<time>2024-05-11T11:10:20Z</time>
</trkpt>
<trkpt lat="49.66104886494577" lon="9.489749874919651">
<ele>371.8</ele>
<time>2024-05-11T11:10:21Z</time>
</trkpt>
<trkpt lat="49.66107174754143" lon="9.489820450544356">
<ele>372</ele>
<time>2024-05-11T11:10:22Z</time>
</trkpt>
<trkpt lat="49.66110225766897" lon="9.48989002034068">
<ele>372</ele>
<time>2024-05-11T11:10:23Z</time>
</trkpt>
<trkpt lat="49.66112514026463" lon="9.489961601793766">
<ele>372</ele>
<time>2024-05-11T11:10:24Z</time>
</trkpt>
<trkpt lat="49.66114802286029" lon="9.490035027265549">
<ele>371.8</ele>
<time>2024-05-11T11:10:25Z</time>
</trkpt>
<trkpt lat="49.661174761131406" lon="9.490108452737331">
<ele>371.8</ele>
<time>2024-05-11T11:10:26Z</time>
</trkpt>
<trkpt lat="49.66120141558349" lon="9.490182800218465">
<ele>371.8</ele>
<time>2024-05-11T11:10:27Z</time>
</trkpt>
<trkpt lat="49.66123192571104" lon="9.490258153527977">
<ele>371.8</ele>
<time>2024-05-11T11:10:28Z</time>
</trkpt>
<trkpt lat="49.66125866398215" lon="9.490331578999758">
<ele>371.6</ele>
<time>2024-05-11T11:10:29Z</time>
</trkpt>
<trkpt lat="49.66128154657781" lon="9.49040500447154">
<ele>371.6</ele>
<time>2024-05-11T11:10:30Z</time>
</trkpt>
<trkpt lat="49.66130442917347" lon="9.490480357781053">
<ele>371.6</ele>
<time>2024-05-11T11:10:31Z</time>
</trkpt>
<trkpt lat="49.66133116744459" lon="9.490556716918944">
<ele>371.4</ele>
<time>2024-05-11T11:10:32Z</time>
</trkpt>
<trkpt lat="49.66135782189667" lon="9.490636764094234">
<ele>371.4</ele>
<time>2024-05-11T11:10:33Z</time>
</trkpt>
<trkpt lat="49.66138456016779" lon="9.490714967250824">
<ele>371.4</ele>
<time>2024-05-11T11:10:34Z</time>
</trkpt>
<trkpt lat="49.661411214619875" lon="9.490795098245144">
<ele>371.4</ele>
<time>2024-05-11T11:10:35Z</time>
</trkpt>
<trkpt lat="49.66143795289099" lon="9.490871373564003">
<ele>371.4</ele>
<time>2024-05-11T11:10:36Z</time>
</trkpt>
<trkpt lat="49.66146846301854" lon="9.490953432396054">
<ele>371.2</ele>
<time>2024-05-11T11:10:37Z</time>
</trkpt>
<trkpt lat="49.661495201289654" lon="9.491036413237453">
<ele>371.2</ele>
<time>2024-05-11T11:10:38Z</time>
</trkpt>
<trkpt lat="49.661529483273625" lon="9.4911203160882">
<ele>371</ele>
<time>2024-05-11T11:10:39Z</time>
</trkpt>
<trkpt lat="49.66155999340117" lon="9.491205140948296">
<ele>370.8</ele>
<time>2024-05-11T11:10:40Z</time>
</trkpt>
<trkpt lat="49.66159435920417" lon="9.491292899474502">
<ele>370.6</ele>
<time>2024-05-11T11:10:41Z</time>
</trkpt>
<trkpt lat="49.661628641188145" lon="9.491381580010056">
<ele>370.4</ele>
<time>2024-05-11T11:10:42Z</time>
</trkpt>
<trkpt lat="49.66166300699115" lon="9.491471266373992">
<ele>370</ele>
<time>2024-05-11T11:10:43Z</time>
</trkpt>
<trkpt lat="49.66169351711869" lon="9.491561874747276">
<ele>369.8</ele>
<time>2024-05-11T11:10:44Z</time>
</trkpt>
<trkpt lat="49.661727882921696" lon="9.49165147729218">
<ele>369.4</ele>
<time>2024-05-11T11:10:45Z</time>
</trkpt>
<trkpt lat="49.66175839304924" lon="9.491741163656116">
<ele>369</ele>
<time>2024-05-11T11:10:46Z</time>
</trkpt>
<trkpt lat="49.66179267503321" lon="9.4918317720294">
<ele>368.8</ele>
<time>2024-05-11T11:10:47Z</time>
</trkpt>
<trkpt lat="49.66182326897979" lon="9.491921374574304">
<ele>368.6</ele>
<time>2024-05-11T11:10:48Z</time>
</trkpt>
<trkpt lat="49.66185755096376" lon="9.492008127272127">
<ele>368.2</ele>
<time>2024-05-11T11:10:49Z</time>
</trkpt>
<trkpt lat="49.661888061091304" lon="9.492094963788986">
<ele>368</ele>
<time>2024-05-11T11:10:50Z</time>
</trkpt>
<trkpt lat="49.66191857121885" lon="9.49218649417162">
<ele>367.8</ele>
<time>2024-05-11T11:10:51Z</time>
</trkpt>
<trkpt lat="49.66194908134639" lon="9.492277102544904">
<ele>367.6</ele>
<time>2024-05-11T11:10:52Z</time>
</trkpt>
<trkpt lat="49.66197967529297" lon="9.49236486107111">
<ele>367.4</ele>
<time>2024-05-11T11:10:53Z</time>
</trkpt>
<trkpt lat="49.66201395727694" lon="9.492451613768935">
<ele>367.2</ele>
<time>2024-05-11T11:10:54Z</time>
</trkpt>
<trkpt lat="49.662048323079944" lon="9.49254029430449">
<ele>367</ele>
<time>2024-05-11T11:10:55Z</time>
</trkpt>
<trkpt lat="49.66207883320749" lon="9.492631908506157">
<ele>367</ele>
<time>2024-05-11T11:10:56Z</time>
</trkpt>
<trkpt lat="49.66210934333503" lon="9.492723438888788">
<ele>366.6</ele>
<time>2024-05-11T11:10:57Z</time>
</trkpt>
<trkpt lat="49.66213985346258" lon="9.49281496927142">
<ele>366.4</ele>
<time>2024-05-11T11:10:58Z</time>
</trkpt>
<trkpt lat="49.66217421926558" lon="9.492908427491784">
<ele>366.2</ele>
<time>2024-05-11T11:10:59Z</time>
</trkpt>
<trkpt lat="49.662204729393125" lon="9.493001885712149">
<ele>365.8</ele>
<time>2024-05-11T11:11:00Z</time>
</trkpt>
<trkpt lat="49.66223523952067" lon="9.493091572076082">
<ele>365.6</ele>
<time>2024-05-11T11:11:01Z</time>
</trkpt>
<trkpt lat="49.66226952150464" lon="9.493180252611635">
<ele>365.2</ele>
<time>2024-05-11T11:11:02Z</time>
</trkpt>
<trkpt lat="49.66230388730765" lon="9.49327178299427">
<ele>365</ele>
<time>2024-05-11T11:11:03Z</time>
</trkpt>
<trkpt lat="49.66233825311065" lon="9.493361469358206">
<ele>364.6</ele>
<time>2024-05-11T11:11:04Z</time>
</trkpt>
<trkpt lat="49.66237253509462" lon="9.49345299974084">
<ele>364.4</ele>
<time>2024-05-11T11:11:05Z</time>
</trkpt>
<trkpt lat="49.66240690089762" lon="9.493548385798931">
<ele>364</ele>
<time>2024-05-11T11:11:06Z</time>
</trkpt>
<trkpt lat="49.66244503855705" lon="9.493643688037992">
<ele>363.8</ele>
<time>2024-05-11T11:11:07Z</time>
</trkpt>
<trkpt lat="49.66248317621648" lon="9.493738152086737">
<ele>363.6</ele>
<time>2024-05-11T11:11:08Z</time>
</trkpt>
<trkpt lat="49.662521313875914" lon="9.493838232010605">
<ele>363.2</ele>
<time>2024-05-11T11:11:09Z</time>
</trkpt>
<trkpt lat="49.66255567967892" lon="9.493940323591232">
<ele>363</ele>
<time>2024-05-11T11:11:10Z</time>
</trkpt>
<trkpt lat="49.66259381733835" lon="9.49404333718121">
<ele>362.8</ele>
<time>2024-05-11T11:11:11Z</time>
</trkpt>
<trkpt lat="49.66263195499778" lon="9.494148194789886">
<ele>362.6</ele>
<time>2024-05-11T11:11:12Z</time>
</trkpt>
<trkpt lat="49.66267394833267" lon="9.494251208379865">
<ele>362.4</ele>
<time>2024-05-11T11:11:13Z</time>
</trkpt>
<trkpt lat="49.6627120859921" lon="9.49435799382627">
<ele>362</ele>
<time>2024-05-11T11:11:14Z</time>
</trkpt>
<trkpt lat="49.66275022365153" lon="9.494462935253978">
<ele>361.8</ele>
<time>2024-05-11T11:11:15Z</time>
</trkpt>
<trkpt lat="49.66278836131096" lon="9.494567792862654">
<ele>361.4</ele>
<time>2024-05-11T11:11:16Z</time>
</trkpt>
<trkpt lat="49.66282649897039" lon="9.494678433984518">
<ele>361.2</ele>
<time>2024-05-11T11:11:17Z</time>
</trkpt>
<trkpt lat="49.66286463662982" lon="9.494786225259304">
<ele>360.8</ele>
<time>2024-05-11T11:11:18Z</time>
</trkpt>
<trkpt lat="49.66290662996471" lon="9.49489493854344">
<ele>360.6</ele>
<time>2024-05-11T11:11:19Z</time>
</trkpt>
<trkpt lat="49.66294476762414" lon="9.495006501674652">
<ele>360.4</ele>
<time>2024-05-11T11:11:20Z</time>
</trkpt>
<trkpt lat="49.66298290528357" lon="9.495115214958789">
<ele>360</ele>
<time>2024-05-11T11:11:21Z</time>
</trkpt>
<trkpt lat="49.663021042943" lon="9.495223006233571">
<ele>359.8</ele>
<time>2024-05-11T11:11:22Z</time>
</trkpt>
<trkpt lat="49.663055408746" lon="9.49532794766128">
<ele>359.6</ele>
<time>2024-05-11T11:11:23Z</time>
</trkpt>
<trkpt lat="49.663093546405435" lon="9.495431883260608">
<ele>359.2</ele>
<time>2024-05-11T11:11:24Z</time>
</trkpt>
<trkpt lat="49.663131684064865" lon="9.495536740869284">
<ele>358.8</ele>
<time>2024-05-11T11:11:25Z</time>
</trkpt>
<trkpt lat="49.66316596604884" lon="9.495639754459262">
<ele>358.6</ele>
<time>2024-05-11T11:11:26Z</time>
</trkpt>
<trkpt lat="49.663207959383726" lon="9.495743690058587">
<ele>358.4</ele>
<time>2024-05-11T11:11:27Z</time>
</trkpt>
<trkpt lat="49.66324609704316" lon="9.495846703648567">
<ele>358</ele>
<time>2024-05-11T11:11:28Z</time>
</trkpt>
<trkpt lat="49.66328046284616" lon="9.495951645076277">
<ele>357.8</ele>
<time>2024-05-11T11:11:29Z</time>
</trkpt>
<trkpt lat="49.66331474483013" lon="9.49605457484722">
<ele>357.6</ele>
<time>2024-05-11T11:11:30Z</time>
</trkpt>
<trkpt lat="49.663349110633135" lon="9.49615473859012">
<ele>357.4</ele>
<time>2024-05-11T11:11:31Z</time>
</trkpt>
<trkpt lat="49.66338347643614" lon="9.496259680017827">
<ele>357.2</ele>
<time>2024-05-11T11:11:32Z</time>
</trkpt>
<trkpt lat="49.66342161409557" lon="9.496364537626503">
<ele>356.8</ele>
<time>2024-05-11T11:11:33Z</time>
</trkpt>
<trkpt lat="49.663463523611426" lon="9.496468473225832">
<ele>356.6</ele>
<time>2024-05-11T11:11:34Z</time>
</trkpt>
<trkpt lat="49.66350166127086" lon="9.496568636968732">
<ele>356.2</ele>
<time>2024-05-11T11:11:35Z</time>
</trkpt>
<trkpt lat="49.663543654605746" lon="9.49666972272098">
<ele>355.8</ele>
<time>2024-05-11T11:11:36Z</time>
</trkpt>
<trkpt lat="49.66358179226518" lon="9.496771730482578">
<ele>355.4</ele>
<time>2024-05-11T11:11:37Z</time>
</trkpt>
<trkpt lat="49.66361992992461" lon="9.49687290005386">
<ele>355.2</ele>
<time>2024-05-11T11:11:38Z</time>
</trkpt>
<trkpt lat="49.66365806758404" lon="9.496972979977729">
<ele>354.8</ele>
<time>2024-05-11T11:11:39Z</time>
</trkpt>
<trkpt lat="49.66369243338704" lon="9.497073143720629">
<ele>354.6</ele>
<time>2024-05-11T11:11:40Z</time>
</trkpt>
<trkpt lat="49.66372679919005" lon="9.497175151482224">
<ele>354.2</ele>
<time>2024-05-11T11:11:41Z</time>
</trkpt>
<trkpt lat="49.663761081174016" lon="9.497275315225124">
<ele>354</ele>
<time>2024-05-11T11:11:42Z</time>
</trkpt>
<trkpt lat="49.66379544697702" lon="9.497375478968024">
<ele>353.6</ele>
<time>2024-05-11T11:11:43Z</time>
</trkpt>
<trkpt lat="49.66383358463645" lon="9.497476564720271">
<ele>353.4</ele>
<time>2024-05-11T11:11:44Z</time>
</trkpt>
<trkpt lat="49.66387172229588" lon="9.49757857248187">
<ele>353</ele>
<time>2024-05-11T11:11:45Z</time>
</trkpt>
<trkpt lat="49.66390608809888" lon="9.497681586071849">
<ele>352.8</ele>
<time>2024-05-11T11:11:46Z</time>
</trkpt>
<trkpt lat="49.663944225758314" lon="9.497783593833448">
<ele>352.4</ele>
<time>2024-05-11T11:11:47Z</time>
</trkpt>
<trkpt lat="49.663978507742286" lon="9.497882835566998">
<ele>352</ele>
<time>2024-05-11T11:11:48Z</time>
</trkpt>
<trkpt lat="49.66401664540171" lon="9.497984843328595">
<ele>351.8</ele>
<time>2024-05-11T11:11:49Z</time>
</trkpt>
<trkpt lat="49.66405101120472" lon="9.498083079233766">
<ele>351.4</ele>
<time>2024-05-11T11:11:50Z</time>
</trkpt>
<trkpt lat="49.66408537700772" lon="9.498181315138936">
<ele>351</ele>
<time>2024-05-11T11:11:51Z</time>
</trkpt>
<trkpt lat="49.66412351466715" lon="9.498279551044106">
<ele>350.8</ele>
<time>2024-05-11T11:11:52Z</time>
</trkpt>
<trkpt lat="49.664161652326584" lon="9.498379630967976">
<ele>350.4</ele>
<time>2024-05-11T11:11:53Z</time>
</trkpt>
<trkpt lat="49.664195934310555" lon="9.498479794710876">
<ele>350.2</ele>
<time>2024-05-11T11:11:54Z</time>
</trkpt>
<trkpt lat="49.66423030011356" lon="9.498579958453774">
<ele>349.8</ele>
<time>2024-05-11T11:11:55Z</time>
</trkpt>
<trkpt lat="49.66426466591656" lon="9.498676266521215">
<ele>349.4</ele>
<time>2024-05-11T11:11:56Z</time>
</trkpt>
<trkpt lat="49.664298947900534" lon="9.498775424435737">
<ele>349.2</ele>
<time>2024-05-11T11:11:57Z</time>
</trkpt>
<trkpt lat="49.66433331370354" lon="9.498874582350254">
<ele>349</ele>
<time>2024-05-11T11:11:58Z</time>
</trkpt>
<trkpt lat="49.66437145136297" lon="9.498976673930883">
<ele>348.6</ele>
<time>2024-05-11T11:11:59Z</time>
</trkpt>
<trkpt lat="49.66440581716597" lon="9.499076837673783">
<ele>348.4</ele>
<time>2024-05-11T11:12:00Z</time>
</trkpt>
<trkpt lat="49.6644439548254" lon="9.499176917597651">
<ele>348.2</ele>
<time>2024-05-11T11:12:01Z</time>
</trkpt>
<trkpt lat="49.66447823680937" lon="9.499277081340551">
<ele>347.8</ele>
<time>2024-05-11T11:12:02Z</time>
</trkpt>
<trkpt lat="49.664512602612376" lon="9.49937623925507">
<ele>347.4</ele>
<time>2024-05-11T11:12:03Z</time>
</trkpt>
<trkpt lat="49.66454311273992" lon="9.4994783308357">
<ele>347</ele>
<time>2024-05-11T11:12:04Z</time>
</trkpt>
<trkpt lat="49.66457747854293" lon="9.499581260606648">
<ele>346.6</ele>
<time>2024-05-11T11:12:05Z</time>
</trkpt>
<trkpt lat="49.664611760526896" lon="9.499685280025004">
<ele>346.2</ele>
<time>2024-05-11T11:12:06Z</time>
</trkpt>
<trkpt lat="49.6646461263299" lon="9.49979013763368">
<ele>346</ele>
<time>2024-05-11T11:12:07Z</time>
</trkpt>
<trkpt lat="49.66468040831387" lon="9.49989315122366">
<ele>345.6</ele>
<time>2024-05-11T11:12:08Z</time>
</trkpt>
<trkpt lat="49.664714774116874" lon="9.499996164813638">
<ele>345.4</ele>
<time>2024-05-11T11:12:09Z</time>
</trkpt>
<trkpt lat="49.66474528424442" lon="9.500100100412965">
<ele>345.2</ele>
<time>2024-05-11T11:12:10Z</time>
</trkpt>
<trkpt lat="49.66477965004742" lon="9.50020495802164">
<ele>344.8</ele>
<time>2024-05-11T11:12:11Z</time>
</trkpt>
<trkpt lat="49.664810160174966" lon="9.50030797161162">
<ele>344.6</ele>
<time>2024-05-11T11:12:12Z</time>
</trkpt>
<trkpt lat="49.66484444215894" lon="9.500414840877056">
<ele>344.2</ele>
<time>2024-05-11T11:12:13Z</time>
</trkpt>
<trkpt lat="49.66487495228648" lon="9.500523554161193">
<ele>344</ele>
<time>2024-05-11T11:12:14Z</time>
</trkpt>
<trkpt lat="49.66490554623306" lon="9.500631261616943">
<ele>343.6</ele>
<time>2024-05-11T11:12:15Z</time>
</trkpt>
<trkpt lat="49.66493982821703" lon="9.50073997490108">
<ele>343.4</ele>
<time>2024-05-11T11:12:16Z</time>
</trkpt>
<trkpt lat="49.664970338344574" lon="9.500848688185217">
<ele>343</ele>
<time>2024-05-11T11:12:17Z</time>
</trkpt>
<trkpt lat="49.66500470414758" lon="9.50095647946">
<ele>342.6</ele>
<time>2024-05-11T11:12:18Z</time>
</trkpt>
<trkpt lat="49.66503135859966" lon="9.501063264906406">
<ele>342.2</ele>
<time>2024-05-11T11:12:19Z</time>
</trkpt>
<trkpt lat="49.66506186872721" lon="9.501170134171844">
<ele>342</ele>
<time>2024-05-11T11:12:20Z</time>
</trkpt>
<trkpt lat="49.66508860699832" lon="9.501277841627598">
<ele>341.6</ele>
<time>2024-05-11T11:12:21Z</time>
</trkpt>
<trkpt lat="49.66511911712587" lon="9.501384710893037">
<ele>341.4</ele>
<time>2024-05-11T11:12:22Z</time>
</trkpt>
<trkpt lat="49.66514962725341" lon="9.5014953520149">
<ele>341</ele>
<time>2024-05-11T11:12:23Z</time>
</trkpt>
<trkpt lat="49.66517636552453" lon="9.501606915146112">
<ele>340.8</ele>
<time>2024-05-11T11:12:24Z</time>
</trkpt>
<trkpt lat="49.665203019976616" lon="9.501718478277326">
<ele>340.6</ele>
<time>2024-05-11T11:12:25Z</time>
</trkpt>
<trkpt lat="49.66522975824773" lon="9.501832891255615">
<ele>340.2</ele>
<time>2024-05-11T11:12:26Z</time>
</trkpt>
<trkpt lat="49.66525649651885" lon="9.501945460215213">
<ele>340</ele>
<time>2024-05-11T11:12:27Z</time>
</trkpt>
<trkpt lat="49.665283150970936" lon="9.502058029174805">
<ele>339.8</ele>
<time>2024-05-11T11:12:28Z</time>
</trkpt>
<trkpt lat="49.66531366109848" lon="9.502171436324716">
<ele>339.8</ele>
<time>2024-05-11T11:12:29Z</time>
</trkpt>
<trkpt lat="49.6653403993696" lon="9.502286855131388">
<ele>339.6</ele>
<time>2024-05-11T11:12:30Z</time>
</trkpt>
<trkpt lat="49.66536705382168" lon="9.50240034610033">
<ele>339.4</ele>
<time>2024-05-11T11:12:31Z</time>
</trkpt>
<trkpt lat="49.6653937920928" lon="9.502514759078622">
<ele>339.2</ele>
<time>2024-05-11T11:12:32Z</time>
</trkpt>
<trkpt lat="49.66542053036392" lon="9.502628250047565">
<ele>339</ele>
<time>2024-05-11T11:12:33Z</time>
</trkpt>
<trkpt lat="49.665447184816" lon="9.502743668854237">
<ele>338.8</ele>
<time>2024-05-11T11:12:34Z</time>
</trkpt>
<trkpt lat="49.66547769494355" lon="9.502858081832528">
<ele>338.6</ele>
<time>2024-05-11T11:12:35Z</time>
</trkpt>
<trkpt lat="49.665504433214664" lon="9.50297542847693">
<ele>338.4</ele>
<time>2024-05-11T11:12:36Z</time>
</trkpt>
<trkpt lat="49.66553108766675" lon="9.50309176929295">
<ele>338.2</ele>
<time>2024-05-11T11:12:37Z</time>
</trkpt>
<trkpt lat="49.66555397026241" lon="9.503206182271242">
<ele>338</ele>
<time>2024-05-11T11:12:38Z</time>
</trkpt>
<trkpt lat="49.665580708533525" lon="9.503318751230836">
<ele>337.8</ele>
<time>2024-05-11T11:12:39Z</time>
</trkpt>
<trkpt lat="49.665603591129184" lon="9.503426542505622">
<ele>337.6</ele>
<time>2024-05-11T11:12:40Z</time>
</trkpt>
<trkpt lat="49.6656303294003" lon="9.503536177799106">
<ele>337.4</ele>
<time>2024-05-11T11:12:41Z</time>
</trkpt>
<trkpt lat="49.66565698385239" lon="9.50364489108324">
<ele>337.2</ele>
<time>2024-05-11T11:12:42Z</time>
</trkpt>
<trkpt lat="49.665683722123504" lon="9.503754610195756">
<ele>337</ele>
<time>2024-05-11T11:12:43Z</time>
</trkpt>
<trkpt lat="49.66571037657559" lon="9.50386332347989">
<ele>336.8</ele>
<time>2024-05-11T11:12:44Z</time>
</trkpt>
<trkpt lat="49.665737114846706" lon="9.503974886611104">
<ele>336.6</ele>
<time>2024-05-11T11:12:45Z</time>
</trkpt>
<trkpt lat="49.665763853117824" lon="9.504084521904588">
<ele>336.2</ele>
<time>2024-05-11T11:12:46Z</time>
</trkpt>
<trkpt lat="49.66579436324537" lon="9.504193235188724">
<ele>336</ele>
<time>2024-05-11T11:12:47Z</time>
</trkpt>
<trkpt lat="49.66582101769745" lon="9.504304882138968">
<ele>335.8</ele>
<time>2024-05-11T11:12:48Z</time>
</trkpt>
<trkpt lat="49.66584775596857" lon="9.504409739747643">
<ele>335.6</ele>
<time>2024-05-11T11:12:49Z</time>
</trkpt>
<trkpt lat="49.665874410420656" lon="9.504518453031778">
<ele>335.4</ele>
<time>2024-05-11T11:12:50Z</time>
</trkpt>
<trkpt lat="49.66590114869177" lon="9.504625238478184">
<ele>335</ele>
<time>2024-05-11T11:12:51Z</time>
</trkpt>
<trkpt lat="49.66592788696289" lon="9.50473210774362">
<ele>334.8</ele>
<time>2024-05-11T11:12:52Z</time>
</trkpt>
<trkpt lat="49.66595076955855" lon="9.504837971180676">
<ele>334.6</ele>
<time>2024-05-11T11:12:53Z</time>
</trkpt>
<trkpt lat="49.665977424010634" lon="9.504941906780005">
<ele>334.4</ele>
<time>2024-05-11T11:12:54Z</time>
</trkpt>
<trkpt lat="49.66600416228175" lon="9.505042992532251">
<ele>334.2</ele>
<time>2024-05-11T11:12:55Z</time>
</trkpt>
<trkpt lat="49.66603081673384" lon="9.505143156275151">
<ele>334</ele>
<time>2024-05-11T11:12:56Z</time>
</trkpt>
<trkpt lat="49.666057555004954" lon="9.50524323619902">
<ele>333.8</ele>
<time>2024-05-11T11:12:57Z</time>
</trkpt>
<trkpt lat="49.66608043760061" lon="9.50534532777965">
<ele>333.6</ele>
<time>2024-05-11T11:12:58Z</time>
</trkpt>
<trkpt lat="49.66610332019627" lon="9.50544540770352">
<ele>333.4</ele>
<time>2024-05-11T11:12:59Z</time>
</trkpt>
<trkpt lat="49.66612620279193" lon="9.50554364360869">
<ele>333.2</ele>
<time>2024-05-11T11:13:00Z</time>
</trkpt>
<trkpt lat="49.66614908538759" lon="9.50564187951386">
<ele>333</ele>
<time>2024-05-11T11:13:01Z</time>
</trkpt>
<trkpt lat="49.666175823658705" lon="9.50574011541903">
<ele>333</ele>
<time>2024-05-11T11:13:02Z</time>
</trkpt>
<trkpt lat="49.666194850578904" lon="9.505836423486471">
<ele>332.8</ele>
<time>2024-05-11T11:13:03Z</time>
</trkpt>
<trkpt lat="49.66622158885002" lon="9.505934659391642">
<ele>332.6</ele>
<time>2024-05-11T11:13:04Z</time>
</trkpt>
<trkpt lat="49.66624447144568" lon="9.506031973287463">
<ele>332.2</ele>
<time>2024-05-11T11:13:05Z</time>
</trkpt>
<trkpt lat="49.66626735404134" lon="9.506130209192634">
<ele>332</ele>
<time>2024-05-11T11:13:06Z</time>
</trkpt>
<trkpt lat="49.66628646478057" lon="9.506228445097804">
<ele>331.8</ele>
<time>2024-05-11T11:13:07Z</time>
</trkpt>
<trkpt lat="49.666313119232655" lon="9.506321903318169">
<ele>331.6</ele>
<time>2024-05-11T11:13:08Z</time>
</trkpt>
<trkpt lat="49.66633600182831" lon="9.506416283547878">
<ele>331.4</ele>
<time>2024-05-11T11:13:09Z</time>
</trkpt>
<trkpt lat="49.66635888442397" lon="9.50650974176824">
<ele>331.2</ele>
<time>2024-05-11T11:13:10Z</time>
</trkpt>
<trkpt lat="49.66638176701963" lon="9.506605127826331">
<ele>331</ele>
<time>2024-05-11T11:13:11Z</time>
</trkpt>
<trkpt lat="49.66640087775886" lon="9.506699508056045">
<ele>330.8</ele>
<time>2024-05-11T11:13:12Z</time>
</trkpt>
<trkpt lat="49.66641990467906" lon="9.506792966276407">
<ele>330.6</ele>
<time>2024-05-11T11:13:13Z</time>
</trkpt>
<trkpt lat="49.66644287109375" lon="9.50688642449677">
<ele>330.4</ele>
<time>2024-05-11T11:13:14Z</time>
</trkpt>
<trkpt lat="49.66646189801395" lon="9.506977954879403">
<ele>330.4</ele>
<time>2024-05-11T11:13:15Z</time>
</trkpt>
<trkpt lat="49.66648478060961" lon="9.507069569081068">
<ele>330.2</ele>
<time>2024-05-11T11:13:16Z</time>
</trkpt>
<trkpt lat="49.666507663205266" lon="9.50716202147305">
<ele>330.2</ele>
<time>2024-05-11T11:13:17Z</time>
</trkpt>
<trkpt lat="49.66653440147638" lon="9.507249779999256">
<ele>330</ele>
<time>2024-05-11T11:13:18Z</time>
</trkpt>
<trkpt lat="49.66655728407204" lon="9.50734038837254">
<ele>330</ele>
<time>2024-05-11T11:13:19Z</time>
</trkpt>
<trkpt lat="49.6665801666677" lon="9.507430074736476">
<ele>329.8</ele>
<time>2024-05-11T11:13:20Z</time>
</trkpt>
<trkpt lat="49.66660304926336" lon="9.50751967728138">
<ele>329.8</ele>
<time>2024-05-11T11:13:21Z</time>
</trkpt>
<trkpt lat="49.666625931859016" lon="9.507611207664011">
<ele>329.8</ele>
<time>2024-05-11T11:13:22Z</time>
</trkpt>
<trkpt lat="49.666648814454675" lon="9.507703743875028">
<ele>329.6</ele>
<time>2024-05-11T11:13:23Z</time>
</trkpt>
<trkpt lat="49.66667169705033" lon="9.50779527425766">
<ele>329.4</ele>
<time>2024-05-11T11:13:24Z</time>
</trkpt>
<trkpt lat="49.66669080778957" lon="9.507886804640291">
<ele>329.2</ele>
<time>2024-05-11T11:13:25Z</time>
</trkpt>
<trkpt lat="49.66671369038522" lon="9.507978418841958">
<ele>328.8</ele>
<time>2024-05-11T11:13:26Z</time>
</trkpt>
<trkpt lat="49.66673657298088" lon="9.508068021386862">
<ele>328.6</ele>
<time>2024-05-11T11:13:27Z</time>
</trkpt>
<trkpt lat="49.66675945557654" lon="9.508159635588529">
<ele>328.4</ele>
<time>2024-05-11T11:13:28Z</time>
</trkpt>
<trkpt lat="49.66677848249674" lon="9.508254937827587">
<ele>328.2</ele>
<time>2024-05-11T11:13:29Z</time>
</trkpt>
<trkpt lat="49.66680144891143" lon="9.50835032388568">
<ele>328.2</ele>
<time>2024-05-11T11:13:30Z</time>
</trkpt>
<trkpt lat="49.66682047583163" lon="9.50844470411539">
<ele>328</ele>
<time>2024-05-11T11:13:31Z</time>
</trkpt>
<trkpt lat="49.666843358427286" lon="9.508542018011212">
<ele>327.8</ele>
<time>2024-05-11T11:13:32Z</time>
</trkpt>
<trkpt lat="49.666866241022944" lon="9.508640253916385">
<ele>327.8</ele>
<time>2024-05-11T11:13:33Z</time>
</trkpt>
<trkpt lat="49.666885351762176" lon="9.508738489821551">
<ele>327.8</ele>
<time>2024-05-11T11:13:34Z</time>
</trkpt>
<trkpt lat="49.666908234357834" lon="9.508836725726724">
<ele>327.6</ele>
<time>2024-05-11T11:13:35Z</time>
</trkpt>
<trkpt lat="49.66692726127803" lon="9.508936805650592">
<ele>327.6</ele>
<time>2024-05-11T11:13:36Z</time>
</trkpt>
<trkpt lat="49.666946372017264" lon="9.509035041555762">
<ele>327.6</ele>
<time>2024-05-11T11:13:37Z</time>
</trkpt>
<trkpt lat="49.666965482756495" lon="9.509135205298662">
<ele>327.4</ele>
<time>2024-05-11T11:13:38Z</time>
</trkpt>
<trkpt lat="49.666988365352154" lon="9.509233441203833">
<ele>327.4</ele>
<time>2024-05-11T11:13:39Z</time>
</trkpt>
<trkpt lat="49.66700739227235" lon="9.509331677109005">
<ele>327.2</ele>
<time>2024-05-11T11:13:40Z</time>
</trkpt>
<trkpt lat="49.667026503011584" lon="9.509429913014174">
<ele>327.2</ele>
<time>2024-05-11T11:13:41Z</time>
</trkpt>
<trkpt lat="49.66704938560724" lon="9.509529992938042">
<ele>327</ele>
<time>2024-05-11T11:13:42Z</time>
</trkpt>
<trkpt lat="49.66706841252744" lon="9.509630156680942">
<ele>327</ele>
<time>2024-05-11T11:13:43Z</time>
</trkpt>
<trkpt lat="49.667083667591214" lon="9.50973032042384">
<ele>327</ele>
<time>2024-05-11T11:13:44Z</time>
</trkpt>
<trkpt lat="49.667102778330445" lon="9.50983040034771">
<ele>326.8</ele>
<time>2024-05-11T11:13:45Z</time>
</trkpt>
<trkpt lat="49.667121805250645" lon="9.509931486099958">
<ele>326.8</ele>
<time>2024-05-11T11:13:46Z</time>
</trkpt>
<trkpt lat="49.66714091598987" lon="9.510033577680588">
<ele>326.6</ele>
<time>2024-05-11T11:13:47Z</time>
</trkpt>
<trkpt lat="49.66715617105365" lon="9.510134663432837">
<ele>326.6</ele>
<time>2024-05-11T11:13:48Z</time>
</trkpt>
<trkpt lat="49.66716765426099" lon="9.510238599032164">
<ele>326.4</ele>
<time>2024-05-11T11:13:49Z</time>
</trkpt>
<trkpt lat="49.667182909324765" lon="9.510341612622142">
<ele>326.2</ele>
<time>2024-05-11T11:13:50Z</time>
</trkpt>
<trkpt lat="49.66719430871308" lon="9.510446470230818">
<ele>326</ele>
<time>2024-05-11T11:13:51Z</time>
</trkpt>
<trkpt lat="49.66720956377685" lon="9.510549483820796">
<ele>325.8</ele>
<time>2024-05-11T11:13:52Z</time>
</trkpt>
<trkpt lat="49.66722104698419" lon="9.510653419420125">
<ele>325.6</ele>
<time>2024-05-11T11:13:53Z</time>
</trkpt>
<trkpt lat="49.66723244637251" lon="9.510761210694907">
<ele>325.4</ele>
<time>2024-05-11T11:13:54Z</time>
</trkpt>
<trkpt lat="49.667243929579854" lon="9.510869923979044">
<ele>325.2</ele>
<time>2024-05-11T11:13:55Z</time>
</trkpt>
<trkpt lat="49.66725155711174" lon="9.51097670942545">
<ele>325</ele>
<time>2024-05-11T11:13:56Z</time>
</trkpt>
<trkpt lat="49.667259184643626" lon="9.511084500700235">
<ele>325</ele>
<time>2024-05-11T11:13:57Z</time>
</trkpt>
<trkpt lat="49.66726681217551" lon="9.51119321398437">
<ele>324.8</ele>
<time>2024-05-11T11:13:58Z</time>
</trkpt>
<trkpt lat="49.66727058403194" lon="9.511301927268503">
<ele>324.6</ele>
<time>2024-05-11T11:13:59Z</time>
</trkpt>
<trkpt lat="49.6672744397074" lon="9.511409718543293">
<ele>324.4</ele>
<time>2024-05-11T11:14:00Z</time>
</trkpt>
<trkpt lat="49.667278211563826" lon="9.511516503989697">
<ele>324.2</ele>
<time>2024-05-11T11:14:01Z</time>
</trkpt>
<trkpt lat="49.667282067239285" lon="9.511621445417404">
<ele>324</ele>
<time>2024-05-11T11:14:02Z</time>
</trkpt>
<trkpt lat="49.667282067239285" lon="9.51172630302608">
<ele>323.8</ele>
<time>2024-05-11T11:14:03Z</time>
</trkpt>
<trkpt lat="49.667282067239285" lon="9.511833172291515">
<ele>323.6</ele>
<time>2024-05-11T11:14:04Z</time>
</trkpt>
<trkpt lat="49.66728583909571" lon="9.511938029900191">
<ele>323.4</ele>
<time>2024-05-11T11:14:05Z</time>
</trkpt>
<trkpt lat="49.66728583909571" lon="9.51204196549952">
<ele>323.2</ele>
<time>2024-05-11T11:14:06Z</time>
</trkpt>
<trkpt lat="49.66728969477117" lon="9.512146906927228">
<ele>323</ele>
<time>2024-05-11T11:14:07Z</time>
</trkpt>
<trkpt lat="49.66728969477117" lon="9.512254698202014">
<ele>322.8</ele>
<time>2024-05-11T11:14:08Z</time>
</trkpt>
<trkpt lat="49.66728969477117" lon="9.512363411486149">
<ele>322.6</ele>
<time>2024-05-11T11:14:09Z</time>
</trkpt>
<trkpt lat="49.6672934666276" lon="9.512472124770284">
<ele>322.4</ele>
<time>2024-05-11T11:14:10Z</time>
</trkpt>
<trkpt lat="49.66729732230306" lon="9.51257798820734">
<ele>322.2</ele>
<time>2024-05-11T11:14:11Z</time>
</trkpt>
<trkpt lat="49.66730117797851" lon="9.512684773653746">
<ele>322</ele>
<time>2024-05-11T11:14:12Z</time>
</trkpt>
<trkpt lat="49.66730494983494" lon="9.512791559100153">
<ele>321.6</ele>
<time>2024-05-11T11:14:13Z</time>
</trkpt>
<trkpt lat="49.66730494983494" lon="9.51289650052786">
<ele>321.6</ele>
<time>2024-05-11T11:14:14Z</time>
</trkpt>
<trkpt lat="49.6673088055104" lon="9.513003285974264">
<ele>321.4</ele>
<time>2024-05-11T11:14:15Z</time>
</trkpt>
<trkpt lat="49.66731257736683" lon="9.513108227401972">
<ele>321.4</ele>
<time>2024-05-11T11:14:16Z</time>
</trkpt>
<trkpt lat="49.667320204898715" lon="9.513215012848375">
<ele>321.2</ele>
<time>2024-05-11T11:14:17Z</time>
</trkpt>
<trkpt lat="49.6673278324306" lon="9.513319954276083">
<ele>321</ele>
<time>2024-05-11T11:14:18Z</time>
</trkpt>
<trkpt lat="49.66733168810606" lon="9.51342866756022">
<ele>321</ele>
<time>2024-05-11T11:14:19Z</time>
</trkpt>
<trkpt lat="49.66734308749437" lon="9.513536375015974">
<ele>320.8</ele>
<time>2024-05-11T11:14:20Z</time>
</trkpt>
<trkpt lat="49.66735071502626" lon="9.513643244281411">
<ele>320.6</ele>
<time>2024-05-11T11:14:21Z</time>
</trkpt>
<trkpt lat="49.667358342558146" lon="9.513751957565546">
<ele>320.6</ele>
<time>2024-05-11T11:14:22Z</time>
</trkpt>
<trkpt lat="49.66736982576549" lon="9.513859748840332">
<ele>320.2</ele>
<time>2024-05-11T11:14:23Z</time>
</trkpt>
<trkpt lat="49.66738508082926" lon="9.513966534286736">
<ele>320</ele>
<time>2024-05-11T11:14:24Z</time>
</trkpt>
<trkpt lat="49.66740410774946" lon="9.514071391895412">
<ele>320</ele>
<time>2024-05-11T11:14:25Z</time>
</trkpt>
<trkpt lat="49.66742321848869" lon="9.51417633332312">
<ele>319.8</ele>
<time>2024-05-11T11:14:26Z</time>
</trkpt>
<trkpt lat="49.66744610108435" lon="9.514280268922448">
<ele>319.6</ele>
<time>2024-05-11T11:14:27Z</time>
</trkpt>
<trkpt lat="49.66746512800455" lon="9.514383282512426">
<ele>319.6</ele>
<time>2024-05-11T11:14:28Z</time>
</trkpt>
<trkpt lat="49.66748809441924" lon="9.514490067958832">
<ele>319.6</ele>
<time>2024-05-11T11:14:29Z</time>
</trkpt>
<trkpt lat="49.667514748871326" lon="9.51459500938654">
<ele>319.6</ele>
<time>2024-05-11T11:14:30Z</time>
</trkpt>
<trkpt lat="49.66754148714245" lon="9.514697017148135">
<ele>319.4</ele>
<time>2024-05-11T11:14:31Z</time>
</trkpt>
<trkpt lat="49.66757199726999" lon="9.514795253053308">
<ele>319.4</ele>
<time>2024-05-11T11:14:32Z</time>
</trkpt>
<trkpt lat="49.66760250739753" lon="9.514893488958478">
<ele>319.4</ele>
<time>2024-05-11T11:14:33Z</time>
</trkpt>
<trkpt lat="49.667636789381504" lon="9.514993652701378">
<ele>319.2</ele>
<time>2024-05-11T11:14:34Z</time>
</trkpt>
<trkpt lat="49.667675010859966" lon="9.515091888606548">
<ele>319.2</ele>
<time>2024-05-11T11:14:35Z</time>
</trkpt>
<trkpt lat="49.6677131485194" lon="9.51519012451172">
<ele>319</ele>
<time>2024-05-11T11:14:36Z</time>
</trkpt>
<trkpt lat="49.667755058035254" lon="9.51528643257916">
<ele>318.8</ele>
<time>2024-05-11T11:14:37Z</time>
</trkpt>
<trkpt lat="49.667797051370144" lon="9.515379890799522">
<ele>318.6</ele>
<time>2024-05-11T11:14:38Z</time>
</trkpt>
<trkpt lat="49.66784667223692" lon="9.515470499172809">
<ele>318.2</ele>
<time>2024-05-11T11:14:39Z</time>
</trkpt>
<trkpt lat="49.66789243742824" lon="9.51555817387998">
<ele>318</ele>
<time>2024-05-11T11:14:40Z</time>
</trkpt>
<trkpt lat="49.66794583015144" lon="9.515646854415536">
<ele>317.6</ele>
<time>2024-05-11T11:14:41Z</time>
</trkpt>
<trkpt lat="49.66799922287464" lon="9.515729835256934">
<ele>317.4</ele>
<time>2024-05-11T11:14:42Z</time>
</trkpt>
<trkpt lat="49.66805261559784" lon="9.515816671773791">
<ele>317</ele>
<time>2024-05-11T11:14:43Z</time>
</trkpt>
<trkpt lat="49.668109863996506" lon="9.515898646786807">
<ele>316.8</ele>
<time>2024-05-11T11:14:44Z</time>
</trkpt>
<trkpt lat="49.66817473992705" lon="9.5159768499434">
<ele>316.4</ele>
<time>2024-05-11T11:14:45Z</time>
</trkpt>
<trkpt lat="49.66823953203857" lon="9.516057902947068">
<ele>316.2</ele>
<time>2024-05-11T11:14:46Z</time>
</trkpt>
<trkpt lat="49.66830055229366" lon="9.51613610610366">
<ele>315.8</ele>
<time>2024-05-11T11:14:47Z</time>
</trkpt>
<trkpt lat="49.668369283899665" lon="9.51621145941317">
<ele>315.6</ele>
<time>2024-05-11T11:14:48Z</time>
</trkpt>
<trkpt lat="49.66843793168664" lon="9.516288740560412">
<ele>315.2</ele>
<time>2024-05-11T11:14:49Z</time>
</trkpt>
<trkpt lat="49.668506579473615" lon="9.516361160203816">
<ele>315</ele>
<time>2024-05-11T11:14:50Z</time>
</trkpt>
<trkpt lat="49.66857145540416" lon="9.516433663666248">
<ele>314.8</ele>
<time>2024-05-11T11:14:51Z</time>
</trkpt>
<trkpt lat="49.66864010319114" lon="9.516500467434524">
<ele>314.6</ele>
<time>2024-05-11T11:14:52Z</time>
</trkpt>
<trkpt lat="49.66870875097811" lon="9.516559559851885">
<ele>314.2</ele>
<time>2024-05-11T11:14:53Z</time>
</trkpt>
<trkpt lat="49.66877739876509" lon="9.516618652269244">
<ele>314</ele>
<time>2024-05-11T11:14:54Z</time>
</trkpt>
<trkpt lat="49.668846130371094" lon="9.516674978658555">
<ele>313.8</ele>
<time>2024-05-11T11:14:55Z</time>
</trkpt>
<trkpt lat="49.66891477815807" lon="9.51672837138176">
<ele>313.6</ele>
<time>2024-05-11T11:14:56Z</time>
</trkpt>
<trkpt lat="49.66898719780147" lon="9.516776986420156">
<ele>313.2</ele>
<time>2024-05-11T11:14:57Z</time>
</trkpt>
<trkpt lat="49.66906355693936" lon="9.516821829602122">
<ele>313</ele>
<time>2024-05-11T11:14:58Z</time>
</trkpt>
<trkpt lat="49.669139832258224" lon="9.51686667278409">
<ele>312.6</ele>
<time>2024-05-11T11:14:59Z</time>
</trkpt>
<trkpt lat="49.66921233572066" lon="9.516911432147026">
<ele>312.4</ele>
<time>2024-05-11T11:15:00Z</time>
</trkpt>
<trkpt lat="49.66928475536406" lon="9.516958203166723">
<ele>312</ele>
<time>2024-05-11T11:15:01Z</time>
</trkpt>
<trkpt lat="49.669357258826494" lon="9.516998268663883">
<ele>311.6</ele>
<time>2024-05-11T11:15:02Z</time>
</trkpt>
<trkpt lat="49.669433534145355" lon="9.517036406323314">
<ele>311.2</ele>
<time>2024-05-11T11:15:03Z</time>
</trkpt>
<trkpt lat="49.669509809464216" lon="9.517071694135666">
<ele>310.8</ele>
<time>2024-05-11T11:15:04Z</time>
</trkpt>
<trkpt lat="49.669589940458536" lon="9.51710312627256">
<ele>310.4</ele>
<time>2024-05-11T11:15:05Z</time>
</trkpt>
<trkpt lat="49.669670071452856" lon="9.517133636400104">
<ele>310</ele>
<time>2024-05-11T11:15:06Z</time>
</trkpt>
<trkpt lat="49.66974634677172" lon="9.517165152356029">
<ele>309.6</ele>
<time>2024-05-11T11:15:07Z</time>
</trkpt>
<trkpt lat="49.66981885023415" lon="9.517198512330651">
<ele>309</ele>
<time>2024-05-11T11:15:08Z</time>
</trkpt>
<trkpt lat="49.669891353696585" lon="9.517231872305274">
<ele>308.6</ele>
<time>2024-05-11T11:15:09Z</time>
</trkpt>
<trkpt lat="49.66996377333999" lon="9.51726146042347">
<ele>308</ele>
<time>2024-05-11T11:15:10Z</time>
</trkpt>
<trkpt lat="49.67004004865885" lon="9.517298676073551">
<ele>307.6</ele>
<time>2024-05-11T11:15:11Z</time>
</trkpt>
<trkpt lat="49.67011640779674" lon="9.517338741570711">
<ele>307.2</ele>
<time>2024-05-11T11:15:12Z</time>
</trkpt>
<trkpt lat="49.6701926831156" lon="9.517376879230142">
<ele>306.8</ele>
<time>2024-05-11T11:15:13Z</time>
</trkpt>
<trkpt lat="49.670265186578035" lon="9.517413089051844">
<ele>306.4</ele>
<time>2024-05-11T11:15:14Z</time>
</trkpt>
<trkpt lat="49.670341461896896" lon="9.517450304701924">
<ele>306</ele>
<time>2024-05-11T11:15:15Z</time>
</trkpt>
<trkpt lat="49.67041773721576" lon="9.517484586685896">
<ele>305.6</ele>
<time>2024-05-11T11:15:16Z</time>
</trkpt>
<trkpt lat="49.670501640066504" lon="9.517521802335978">
<ele>305</ele>
<time>2024-05-11T11:15:17Z</time>
</trkpt>
<trkpt lat="49.6705779992044" lon="9.517562789842486">
<ele>304.6</ele>
<time>2024-05-11T11:15:18Z</time>
</trkpt>
<trkpt lat="49.67065427452326" lon="9.517609560862184">
<ele>304.2</ele>
<time>2024-05-11T11:15:19Z</time>
</trkpt>
<trkpt lat="49.67072292231023" lon="9.517664881423116">
<ele>303.8</ele>
<time>2024-05-11T11:15:20Z</time>
</trkpt>
<trkpt lat="49.67079157009721" lon="9.517728751525285">
<ele>303.6</ele>
<time>2024-05-11T11:15:21Z</time>
</trkpt>
<trkpt lat="49.67086021788418" lon="9.5177916996181">
<ele>303.4</ele>
<time>2024-05-11T11:15:22Z</time>
</trkpt>
<trkpt lat="49.67092894949019" lon="9.517849870026112">
<ele>303.2</ele>
<time>2024-05-11T11:15:23Z</time>
</trkpt>
<trkpt lat="49.670997597277164" lon="9.517908040434122">
<ele>303</ele>
<time>2024-05-11T11:15:24Z</time>
</trkpt>
<trkpt lat="49.67106624506414" lon="9.517963360995054">
<ele>302.8</ele>
<time>2024-05-11T11:15:25Z</time>
</trkpt>
<trkpt lat="49.67113112099469" lon="9.518019603565335">
<ele>302.6</ele>
<time>2024-05-11T11:15:26Z</time>
</trkpt>
<trkpt lat="49.6711959131062" lon="9.518077773973346">
<ele>302.4</ele>
<time>2024-05-11T11:15:27Z</time>
</trkpt>
<trkpt lat="49.67126078903675" lon="9.518135022372007">
<ele>302</ele>
<time>2024-05-11T11:15:28Z</time>
</trkpt>
<trkpt lat="49.671329436823726" lon="9.518191264942288">
<ele>301.8</ele>
<time>2024-05-11T11:15:29Z</time>
</trkpt>
<trkpt lat="49.67139431275427" lon="9.518253291025758">
<ele>301.6</ele>
<time>2024-05-11T11:15:30Z</time>
</trkpt>
<trkpt lat="49.67145918868482" lon="9.518315233290195">
<ele>301.2</ele>
<time>2024-05-11T11:15:31Z</time>
</trkpt>
<trkpt lat="49.67152783647179" lon="9.518375331535935">
<ele>300.8</ele>
<time>2024-05-11T11:15:32Z</time>
</trkpt>
<trkpt lat="49.671592712402344" lon="9.518436351791024">
<ele>300.4</ele>
<time>2024-05-11T11:15:33Z</time>
</trkpt>
<trkpt lat="49.67165750451386" lon="9.518496450036764">
<ele>300.2</ele>
<time>2024-05-11T11:15:34Z</time>
</trkpt>
<trkpt lat="49.67171852476895" lon="9.518556548282504">
<ele>299.8</ele>
<time>2024-05-11T11:15:35Z</time>
</trkpt>
<trkpt lat="49.671783400699496" lon="9.518614718690516">
<ele>299.6</ele>
<time>2024-05-11T11:15:36Z</time>
</trkpt>
<trkpt lat="49.67184064909816" lon="9.518674816936256">
<ele>299.4</ele>
<time>2024-05-11T11:15:37Z</time>
</trkpt>
<trkpt lat="49.67190166935325" lon="9.518734915181994">
<ele>299</ele>
<time>2024-05-11T11:15:38Z</time>
</trkpt>
<trkpt lat="49.671962689608335" lon="9.518795013427734">
<ele>298.8</ele>
<time>2024-05-11T11:15:39Z</time>
</trkpt>
<trkpt lat="49.672019938007" lon="9.518853183835745">
<ele>298.6</ele>
<time>2024-05-11T11:15:40Z</time>
</trkpt>
<trkpt lat="49.672080958262086" lon="9.518911354243755">
<ele>298.2</ele>
<time>2024-05-11T11:15:41Z</time>
</trkpt>
<trkpt lat="49.67213820666075" lon="9.518966674804688">
<ele>298</ele>
<time>2024-05-11T11:15:42Z</time>
</trkpt>
<trkpt lat="49.67219537124038" lon="9.519022917374969">
<ele>297.8</ele>
<time>2024-05-11T11:15:43Z</time>
</trkpt>
<trkpt lat="49.672256391495466" lon="9.519075388088822">
<ele>297.4</ele>
<time>2024-05-11T11:15:44Z</time>
</trkpt>
<trkpt lat="49.67231749556959" lon="9.519124925136566">
<ele>297.2</ele>
<time>2024-05-11T11:15:45Z</time>
</trkpt>
<trkpt lat="49.6723822876811" lon="9.51917354017496">
<ele>297</ele>
<time>2024-05-11T11:15:46Z</time>
</trkpt>
<trkpt lat="49.67244716361165" lon="9.519220311194658">
<ele>296.8</ele>
<time>2024-05-11T11:15:47Z</time>
</trkpt>
<trkpt lat="49.672515811398625" lon="9.519265154376626">
<ele>296.6</ele>
<time>2024-05-11T11:15:48Z</time>
</trkpt>
<trkpt lat="49.6725844591856" lon="9.519308069720864">
<ele>296.4</ele>
<time>2024-05-11T11:15:49Z</time>
</trkpt>
<trkpt lat="49.67265319079161" lon="9.519346207380297">
<ele>296.2</ele>
<time>2024-05-11T11:15:50Z</time>
</trkpt>
<trkpt lat="49.67272183857858" lon="9.519385267049074">
<ele>296</ele>
<time>2024-05-11T11:15:51Z</time>
</trkpt>
<trkpt lat="49.67279048636556" lon="9.519423404708505">
<ele>295.8</ele>
<time>2024-05-11T11:15:52Z</time>
</trkpt>
<trkpt lat="49.67286298982799" lon="9.51945492066443">
<ele>295.8</ele>
<time>2024-05-11T11:15:53Z</time>
</trkpt>
<trkpt lat="49.67293540947139" lon="9.519486352801325">
<ele>295.6</ele>
<time>2024-05-11T11:15:54Z</time>
</trkpt>
<trkpt lat="49.6730041410774" lon="9.519519796594976">
<ele>295.4</ele>
<time>2024-05-11T11:15:55Z</time>
</trkpt>
<trkpt lat="49.6730765607208" lon="9.5195531565696">
<ele>295.2</ele>
<time>2024-05-11T11:15:56Z</time>
</trkpt>
<trkpt lat="49.67314143665135" lon="9.519583666697145">
<ele>295</ele>
<time>2024-05-11T11:15:57Z</time>
</trkpt>
<trkpt lat="49.67320245690644" lon="9.519604621455072">
<ele>294.8</ele>
<time>2024-05-11T11:15:58Z</time>
</trkpt>
<trkpt lat="49.67326347716153" lon="9.519626582041385">
<ele>294.6</ele>
<time>2024-05-11T11:15:59Z</time>
</trkpt>
<trkpt lat="49.673328353092074" lon="9.519646614789965">
<ele>294.4</ele>
<time>2024-05-11T11:16:00Z</time>
</trkpt>
<trkpt lat="49.67339322902262" lon="9.519662791863084">
<ele>294.2</ele>
<time>2024-05-11T11:16:01Z</time>
</trkpt>
<trkpt lat="49.6734618768096" lon="9.519681902602317">
<ele>294.2</ele>
<time>2024-05-11T11:16:02Z</time>
</trkpt>
<trkpt lat="49.673526752740145" lon="9.519704785197971">
<ele>294.2</ele>
<time>2024-05-11T11:16:03Z</time>
</trkpt>
<trkpt lat="49.67359540052712" lon="9.519726745784284">
<ele>294</ele>
<time>2024-05-11T11:16:04Z</time>
</trkpt>
<trkpt lat="49.67366790398955" lon="9.51974862255156">
<ele>294</ele>
<time>2024-05-11T11:16:05Z</time>
</trkpt>
<trkpt lat="49.67373655177653" lon="9.51977150514722">
<ele>293.8</ele>
<time>2024-05-11T11:16:06Z</time>
</trkpt>
<trkpt lat="49.67380897141993" lon="9.519798243418336">
<ele>293.6</ele>
<time>2024-05-11T11:16:07Z</time>
</trkpt>
<trkpt lat="49.67388147488237" lon="9.51983160339296">
<ele>293.4</ele>
<time>2024-05-11T11:16:08Z</time>
</trkpt>
<trkpt lat="49.6739539783448" lon="9.51986689120531">
<ele>293.4</ele>
<time>2024-05-11T11:16:09Z</time>
</trkpt>
<trkpt lat="49.67402262613177" lon="9.519903101027012">
<ele>293.2</ele>
<time>2024-05-11T11:16:10Z</time>
</trkpt>
<trkpt lat="49.67409512959421" lon="9.519943166524172">
<ele>293</ele>
<time>2024-05-11T11:16:11Z</time>
</trkpt>
<trkpt lat="49.67416763305664" lon="9.519983232021332">
<ele>293</ele>
<time>2024-05-11T11:16:12Z</time>
</trkpt>
<trkpt lat="49.67424005270004" lon="9.5200280752033">
<ele>292.8</ele>
<time>2024-05-11T11:16:13Z</time>
</trkpt>
<trkpt lat="49.67430870048702" lon="9.520071912556888">
<ele>292.8</ele>
<time>2024-05-11T11:16:14Z</time>
</trkpt>
<trkpt lat="49.67438120394945" lon="9.520118683576584">
<ele>292.8</ele>
<time>2024-05-11T11:16:15Z</time>
</trkpt>
<trkpt lat="49.674449851736426" lon="9.520170148462055">
<ele>292.6</ele>
<time>2024-05-11T11:16:16Z</time>
</trkpt>
<trkpt lat="49.67451858334243" lon="9.520221697166562">
<ele>292.4</ele>
<time>2024-05-11T11:16:17Z</time>
</trkpt>
<trkpt lat="49.674591002985835" lon="9.520275089889765">
<ele>292.2</ele>
<time>2024-05-11T11:16:18Z</time>
</trkpt>
<trkpt lat="49.67465965077281" lon="9.520331332460046">
<ele>292</ele>
<time>2024-05-11T11:16:19Z</time>
</trkpt>
<trkpt lat="49.67472452670336" lon="9.520389502868056">
<ele>291.8</ele>
<time>2024-05-11T11:16:20Z</time>
</trkpt>
<trkpt lat="49.674789402633905" lon="9.520448679104447">
<ele>291.6</ele>
<time>2024-05-11T11:16:21Z</time>
</trkpt>
<trkpt lat="49.674850422888994" lon="9.520504921674728">
<ele>291.4</ele>
<time>2024-05-11T11:16:22Z</time>
</trkpt>
<trkpt lat="49.67491144314408" lon="9.520558314397933">
<ele>291.4</ele>
<time>2024-05-11T11:16:23Z</time>
</trkpt>
<trkpt lat="49.67497631907463" lon="9.520613634958863">
<ele>291.2</ele>
<time>2024-05-11T11:16:24Z</time>
</trkpt>
<trkpt lat="49.67503733932972" lon="9.520667027682066">
<ele>291</ele>
<time>2024-05-11T11:16:25Z</time>
</trkpt>
<trkpt lat="49.67510221526027" lon="9.52071849256754">
<ele>290.8</ele>
<time>2024-05-11T11:16:26Z</time>
</trkpt>
<trkpt lat="49.67516700737178" lon="9.520771969109774">
<ele>290.6</ele>
<time>2024-05-11T11:16:27Z</time>
</trkpt>
<trkpt lat="49.675228111445904" lon="9.520826283842323">
<ele>290.4</ele>
<time>2024-05-11T11:16:28Z</time>
</trkpt>
<trkpt lat="49.67528913170099" lon="9.520881604403256">
<ele>290.2</ele>
<time>2024-05-11T11:16:29Z</time>
</trkpt>
<trkpt lat="49.67535392381251" lon="9.52093499712646">
<ele>289.8</ele>
<time>2024-05-11T11:16:30Z</time>
</trkpt>
<trkpt lat="49.67541502788663" lon="9.520986545830963">
<ele>289.6</ele>
<time>2024-05-11T11:16:31Z</time>
</trkpt>
<trkpt lat="49.675479819998145" lon="9.521041866391895">
<ele>289.4</ele>
<time>2024-05-11T11:16:32Z</time>
</trkpt>
<trkpt lat="49.67554469592869" lon="9.52109333127737">
<ele>289.2</ele>
<time>2024-05-11T11:16:33Z</time>
</trkpt>
<trkpt lat="49.67561334371567" lon="9.521146724000571">
<ele>289</ele>
<time>2024-05-11T11:16:34Z</time>
</trkpt>
<trkpt lat="49.675678219646215" lon="9.521196344867349">
<ele>288.6</ele>
<time>2024-05-11T11:16:35Z</time>
</trkpt>
<trkpt lat="49.67574686743319" lon="9.521246887743471">
<ele>288.4</ele>
<time>2024-05-11T11:16:36Z</time>
</trkpt>
<trkpt lat="49.675819370895624" lon="9.52129357494414">
<ele>288.2</ele>
<time>2024-05-11T11:16:37Z</time>
</trkpt>
<trkpt lat="49.67589187435806" lon="9.521340345963836">
<ele>288.2</ele>
<time>2024-05-11T11:16:38Z</time>
</trkpt>
<trkpt lat="49.67596052214503" lon="9.521381333470345">
<ele>288</ele>
<time>2024-05-11T11:16:39Z</time>
</trkpt>
<trkpt lat="49.676036797463894" lon="9.521425170823932">
<ele>287.8</ele>
<time>2024-05-11T11:16:40Z</time>
</trkpt>
<trkpt lat="49.67610544525087" lon="9.521463392302394">
<ele>287.8</ele>
<time>2024-05-11T11:16:41Z</time>
</trkpt>
<trkpt lat="49.67618172056973" lon="9.521501529961824">
<ele>287.6</ele>
<time>2024-05-11T11:16:42Z</time>
</trkpt>
<trkpt lat="49.67625422403216" lon="9.521539667621257">
<ele>287.4</ele>
<time>2024-05-11T11:16:43Z</time>
</trkpt>
<trkpt lat="49.6763267274946" lon="9.521574955433609">
<ele>287.2</ele>
<time>2024-05-11T11:16:44Z</time>
</trkpt>
<trkpt lat="49.67640300281346" lon="9.521612087264655">
<ele>287.2</ele>
<time>2024-05-11T11:16:45Z</time>
</trkpt>
<trkpt lat="49.67647550627589" lon="9.52165030874312">
<ele>287</ele>
<time>2024-05-11T11:16:46Z</time>
</trkpt>
<trkpt lat="49.676547925919294" lon="9.521683668717742">
<ele>286.8</ele>
<time>2024-05-11T11:16:47Z</time>
</trkpt>
<trkpt lat="49.67662042938173" lon="9.521715100854635">
<ele>286.8</ele>
<time>2024-05-11T11:16:48Z</time>
</trkpt>
<trkpt lat="49.67669670470059" lon="9.52174661681056">
<ele>286.8</ele>
<time>2024-05-11T11:16:49Z</time>
</trkpt>
<trkpt lat="49.67676920816302" lon="9.521778048947452">
<ele>286.6</ele>
<time>2024-05-11T11:16:50Z</time>
</trkpt>
<trkpt lat="49.67684548348189" lon="9.5218067150563">
<ele>286.4</ele>
<time>2024-05-11T11:16:51Z</time>
</trkpt>
<trkpt lat="49.67691798694432" lon="9.521836219355464">
<ele>286.4</ele>
<time>2024-05-11T11:16:52Z</time>
</trkpt>
<trkpt lat="49.67699426226318" lon="9.52186488546431">
<ele>286.2</ele>
<time>2024-05-11T11:16:53Z</time>
</trkpt>
<trkpt lat="49.67706676572561" lon="9.521888690069318">
<ele>286.2</ele>
<time>2024-05-11T11:16:54Z</time>
</trkpt>
<trkpt lat="49.67714689671993" lon="9.521913500502706">
<ele>286</ele>
<time>2024-05-11T11:16:55Z</time>
</trkpt>
<trkpt lat="49.677223172038794" lon="9.521936383098364">
<ele>285.8</ele>
<time>2024-05-11T11:16:56Z</time>
</trkpt>
<trkpt lat="49.67730330303311" lon="9.521956415846944">
<ele>285.8</ele>
<time>2024-05-11T11:16:57Z</time>
</trkpt>
<trkpt lat="49.6773833502084" lon="9.521976448595524">
<ele>285.4</ele>
<time>2024-05-11T11:16:58Z</time>
</trkpt>
<trkpt lat="49.677455853670835" lon="9.521996481344104">
<ele>285.2</ele>
<time>2024-05-11T11:16:59Z</time>
</trkpt>
<trkpt lat="49.6775321289897" lon="9.522013664245604">
<ele>285</ele>
<time>2024-05-11T11:17:00Z</time>
</trkpt>
<trkpt lat="49.67760848812759" lon="9.522033613175154">
<ele>284.8</ele>
<time>2024-05-11T11:17:01Z</time>
</trkpt>
<trkpt lat="49.67768853530288" lon="9.522053645923734">
<ele>284.6</ele>
<time>2024-05-11T11:17:02Z</time>
</trkpt>
<trkpt lat="49.67776481062174" lon="9.522073678672314">
<ele>284.2</ele>
<time>2024-05-11T11:17:03Z</time>
</trkpt>
<trkpt lat="49.67784116975963" lon="9.5220984891057">
<ele>284</ele>
<time>2024-05-11T11:17:04Z</time>
</trkpt>
<trkpt lat="49.67791358940303" lon="9.52212137170136">
<ele>283.6</ele>
<time>2024-05-11T11:17:05Z</time>
</trkpt>
<trkpt lat="49.677989948540926" lon="9.5221452601254">
<ele>283.4</ele>
<time>2024-05-11T11:17:06Z</time>
</trkpt>
<trkpt lat="49.678069995716214" lon="9.522169986739756">
<ele>283</ele>
<time>2024-05-11T11:17:07Z</time>
</trkpt>
<trkpt lat="49.67814635485411" lon="9.522192953154445">
<ele>282.6</ele>
<time>2024-05-11T11:17:08Z</time>
</trkpt>
<trkpt lat="49.678226402029395" lon="9.522216757759452">
<ele>282.2</ele>
<time>2024-05-11T11:17:09Z</time>
</trkpt>
<trkpt lat="49.678306533023715" lon="9.522243496030567">
<ele>281.8</ele>
<time>2024-05-11T11:17:10Z</time>
</trkpt>
<trkpt lat="49.678386664018035" lon="9.522272078320384">
<ele>281.6</ele>
<time>2024-05-11T11:17:11Z</time>
</trkpt>
<trkpt lat="49.678466795012355" lon="9.522310215979816">
<ele>281.2</ele>
<time>2024-05-11T11:17:12Z</time>
</trkpt>
<trkpt lat="49.678543070331216" lon="9.522353131324053">
<ele>280.8</ele>
<time>2024-05-11T11:17:13Z</time>
</trkpt>
<trkpt lat="49.67861934565008" lon="9.522395124658942">
<ele>280.6</ele>
<time>2024-05-11T11:17:14Z</time>
</trkpt>
<trkpt lat="49.67869562096894" lon="9.5224370341748">
<ele>280.2</ele>
<time>2024-05-11T11:17:15Z</time>
</trkpt>
<trkpt lat="49.6787718962878" lon="9.522481877356768">
<ele>280</ele>
<time>2024-05-11T11:17:16Z</time>
</trkpt>
<trkpt lat="49.67884825542569" lon="9.522524792701006">
<ele>279.8</ele>
<time>2024-05-11T11:17:17Z</time>
</trkpt>
<trkpt lat="49.67892830260098" lon="9.5225734077394">
<ele>279.6</ele>
<time>2024-05-11T11:17:18Z</time>
</trkpt>
<trkpt lat="49.679000806063414" lon="9.522628728300331">
<ele>279.4</ele>
<time>2024-05-11T11:17:19Z</time>
</trkpt>
<trkpt lat="49.67907330952585" lon="9.522683126851916">
<ele>279.2</ele>
<time>2024-05-11T11:17:20Z</time>
</trkpt>
<trkpt lat="49.67915344052017" lon="9.522746996954083">
<ele>279.2</ele>
<time>2024-05-11T11:17:21Z</time>
</trkpt>
<trkpt lat="49.67922586016357" lon="9.52281472273171">
<ele>279</ele>
<time>2024-05-11T11:17:22Z</time>
</trkpt>
<trkpt lat="49.67930213548243" lon="9.522885298356414">
<ele>278.8</ele>
<time>2024-05-11T11:17:23Z</time>
</trkpt>
<trkpt lat="49.67937086708844" lon="9.522954868152738">
<ele>278.8</ele>
<time>2024-05-11T11:17:24Z</time>
</trkpt>
<trkpt lat="49.67944328673184" lon="9.523026449605824">
<ele>278.6</ele>
<time>2024-05-11T11:17:25Z</time>
</trkpt>
<trkpt lat="49.67950816266239" lon="9.523103646934032">
<ele>278.4</ele>
<time>2024-05-11T11:17:26Z</time>
</trkpt>
<trkpt lat="49.67957681044936" lon="9.523181850090625">
<ele>278.2</ele>
<time>2024-05-11T11:17:27Z</time>
</trkpt>
<trkpt lat="49.67963783070445" lon="9.523262903094292">
<ele>278.2</ele>
<time>2024-05-11T11:17:28Z</time>
</trkpt>
<trkpt lat="49.67969507910311" lon="9.52334781177342">
<ele>278</ele>
<time>2024-05-11T11:17:29Z</time>
</trkpt>
<trkpt lat="49.679748471826315" lon="9.523433642461896">
<ele>277.6</ele>
<time>2024-05-11T11:17:30Z</time>
</trkpt>
<trkpt lat="49.67979809269309" lon="9.523523328825831">
<ele>277.4</ele>
<time>2024-05-11T11:17:31Z</time>
</trkpt>
<trkpt lat="49.67985148541629" lon="9.523614859208465">
<ele>277.2</ele>
<time>2024-05-11T11:17:32Z</time>
</trkpt>
<trkpt lat="49.679904878139496" lon="9.523708317428827">
<ele>276.8</ele>
<time>2024-05-11T11:17:33Z</time>
</trkpt>
<trkpt lat="49.6799582708627" lon="9.52379984781146">
<ele>276.4</ele>
<time>2024-05-11T11:17:34Z</time>
</trkpt>
<trkpt lat="49.68001174740493" lon="9.523893306031823">
<ele>276.2</ele>
<time>2024-05-11T11:17:35Z</time>
</trkpt>
<trkpt lat="49.680065140128136" lon="9.523986764252186">
<ele>275.8</ele>
<time>2024-05-11T11:17:36Z</time>
</trkpt>
<trkpt lat="49.68011853285134" lon="9.524080222472548">
<ele>275.6</ele>
<time>2024-05-11T11:17:37Z</time>
</trkpt>
<trkpt lat="49.68017192557454" lon="9.524171752855182">
<ele>275.4</ele>
<time>2024-05-11T11:17:38Z</time>
</trkpt>
<trkpt lat="49.6802291739732" lon="9.524259511381388">
<ele>275.2</ele>
<time>2024-05-11T11:17:39Z</time>
</trkpt>
<trkpt lat="49.680282566696405" lon="9.524345342069864">
<ele>274.8</ele>
<time>2024-05-11T11:17:40Z</time>
</trkpt>
<trkpt lat="49.680339731276035" lon="9.524425473064184">
<ele>274.6</ele>
<time>2024-05-11T11:17:41Z</time>
</trkpt>
<trkpt lat="49.6803969796747" lon="9.524506526067851">
<ele>274.4</ele>
<time>2024-05-11T11:17:42Z</time>
</trkpt>
<trkpt lat="49.680457999929786" lon="9.524584729224443">
<ele>274.2</ele>
<time>2024-05-11T11:17:43Z</time>
</trkpt>
<trkpt lat="49.68051524832845" lon="9.524662932381034">
<ele>274</ele>
<time>2024-05-11T11:17:44Z</time>
</trkpt>
<trkpt lat="49.68057249672711" lon="9.524740213528275">
<ele>273.8</ele>
<time>2024-05-11T11:17:45Z</time>
</trkpt>
<trkpt lat="49.6806335169822" lon="9.524814561009409">
<ele>273.6</ele>
<time>2024-05-11T11:17:46Z</time>
</trkpt>
<trkpt lat="49.68069076538086" lon="9.52488706447184">
<ele>273.4</ele>
<time>2024-05-11T11:17:47Z</time>
</trkpt>
<trkpt lat="49.68075178563595" lon="9.524952862411736">
<ele>273.4</ele>
<time>2024-05-11T11:17:48Z</time>
</trkpt>
<trkpt lat="49.68081280589104" lon="9.525018660351634">
<ele>273.2</ele>
<time>2024-05-11T11:17:49Z</time>
</trkpt>
<trkpt lat="49.680873826146126" lon="9.52508538030088">
<ele>273</ele>
<time>2024-05-11T11:17:50Z</time>
</trkpt>
<trkpt lat="49.68093107454479" lon="9.525150256231427">
<ele>273</ele>
<time>2024-05-11T11:17:51Z</time>
</trkpt>
<trkpt lat="49.68099209479987" lon="9.525210354477167">
<ele>272.8</ele>
<time>2024-05-11T11:17:52Z</time>
</trkpt>
<trkpt lat="49.681053115054965" lon="9.52526282519102">
<ele>272.8</ele>
<time>2024-05-11T11:17:53Z</time>
</trkpt>
<trkpt lat="49.68111799098551" lon="9.525318145751951">
<ele>272.8</ele>
<time>2024-05-11T11:17:54Z</time>
</trkpt>
<trkpt lat="49.68118278309703" lon="9.525371538475156">
<ele>272.6</ele>
<time>2024-05-11T11:17:55Z</time>
</trkpt>
<trkpt lat="49.681247659027576" lon="9.525423003360627">
<ele>272.2</ele>
<time>2024-05-11T11:17:56Z</time>
</trkpt>
<trkpt lat="49.681308679282665" lon="9.525469774380326">
<ele>272</ele>
<time>2024-05-11T11:17:57Z</time>
</trkpt>
<trkpt lat="49.68137355521321" lon="9.525507912039757">
<ele>271.6</ele>
<time>2024-05-11T11:17:58Z</time>
</trkpt>
<trkpt lat="49.68143843114376" lon="9.525543199852107">
<ele>271.6</ele>
<time>2024-05-11T11:17:59Z</time>
</trkpt>
<trkpt lat="49.68150322325528" lon="9.525576559826732">
<ele>271.4</ele>
<time>2024-05-11T11:18:00Z</time>
</trkpt>
<trkpt lat="49.681568099185824" lon="9.525607991963623">
<ele>271.4</ele>
<time>2024-05-11T11:18:01Z</time>
</trkpt>
<trkpt lat="49.6816367469728" lon="9.52564143575728">
<ele>271.4</ele>
<time>2024-05-11T11:18:02Z</time>
</trkpt>
<trkpt lat="49.68170162290335" lon="9.525670018047094">
<ele>271.4</ele>
<time>2024-05-11T11:18:03Z</time>
</trkpt>
<trkpt lat="49.68177412636578" lon="9.52569667249918">
<ele>271.2</ele>
<time>2024-05-11T11:18:04Z</time>
</trkpt>
<trkpt lat="49.68184654600918" lon="9.52571863308549">
<ele>271.2</ele>
<time>2024-05-11T11:18:05Z</time>
</trkpt>
<trkpt lat="49.68191527761519" lon="9.525739587843418">
<ele>271.2</ele>
<time>2024-05-11T11:18:06Z</time>
</trkpt>
<trkpt lat="49.68198769725859" lon="9.52575869858265">
<ele>271</ele>
<time>2024-05-11T11:18:07Z</time>
</trkpt>
<trkpt lat="49.682060200721025" lon="9.525773031637073">
<ele>271</ele>
<time>2024-05-11T11:18:08Z</time>
</trkpt>
<trkpt lat="49.682128848508" lon="9.525793064385653">
<ele>270.8</ele>
<time>2024-05-11T11:18:09Z</time>
</trkpt>
<trkpt lat="49.682201351970434" lon="9.525812091305852">
<ele>270.8</ele>
<time>2024-05-11T11:18:10Z</time>
</trkpt>
<trkpt lat="49.68226999975741" lon="9.525831202045085">
<ele>270.6</ele>
<time>2024-05-11T11:18:11Z</time>
</trkpt>
<trkpt lat="49.682338647544384" lon="9.52585307881236">
<ele>270.4</ele>
<time>2024-05-11T11:18:12Z</time>
</trkpt>
<trkpt lat="49.68241500668228" lon="9.525871267542245">
<ele>270.4</ele>
<time>2024-05-11T11:18:13Z</time>
</trkpt>
<trkpt lat="49.68248742632568" lon="9.525888366624711">
<ele>270.2</ele>
<time>2024-05-11T11:18:14Z</time>
</trkpt>
<trkpt lat="49.68255992978811" lon="9.525904627516866">
<ele>270</ele>
<time>2024-05-11T11:18:15Z</time>
</trkpt>
<trkpt lat="49.68263243325055" lon="9.525924660265446">
<ele>269.8</ele>
<time>2024-05-11T11:18:16Z</time>
</trkpt>
<trkpt lat="49.68270485289395" lon="9.525944693014026">
<ele>269.6</ele>
<time>2024-05-11T11:18:17Z</time>
</trkpt>
<trkpt lat="49.68277735635638" lon="9.525968497619033">
<ele>269.4</ele>
<time>2024-05-11T11:18:18Z</time>
</trkpt>
<trkpt lat="49.682849859818816" lon="9.525991380214691">
<ele>269.2</ele>
<time>2024-05-11T11:18:19Z</time>
</trkpt>
<trkpt lat="49.68292613513768" lon="9.526018118485808">
<ele>269</ele>
<time>2024-05-11T11:18:20Z</time>
</trkpt>
<trkpt lat="49.68299863860011" lon="9.526046700775623">
<ele>268.8</ele>
<time>2024-05-11T11:18:21Z</time>
</trkpt>
<trkpt lat="49.68307105824351" lon="9.526075283065438">
<ele>268.6</ele>
<time>2024-05-11T11:18:22Z</time>
</trkpt>
<trkpt lat="49.683147417381406" lon="9.526106799021363">
<ele>268.4</ele>
<time>2024-05-11T11:18:23Z</time>
</trkpt>
<trkpt lat="49.68322369270027" lon="9.526143008843064">
<ele>268.4</ele>
<time>2024-05-11T11:18:24Z</time>
</trkpt>
<trkpt lat="49.6832961961627" lon="9.526181146502497">
<ele>268.2</ele>
<time>2024-05-11T11:18:25Z</time>
</trkpt>
<trkpt lat="49.6833686158061" lon="9.526223139837384">
<ele>268</ele>
<time>2024-05-11T11:18:26Z</time>
</trkpt>
<trkpt lat="49.68344111926854" lon="9.526267983019352">
<ele>267.6</ele>
<time>2024-05-11T11:18:27Z</time>
</trkpt>
<trkpt lat="49.68350976705551" lon="9.526314670220016">
<ele>267.4</ele>
<time>2024-05-11T11:18:28Z</time>
</trkpt>
<trkpt lat="49.683578414842486" lon="9.526365213096142">
<ele>267.2</ele>
<time>2024-05-11T11:18:29Z</time>
</trkpt>
<trkpt lat="49.683643290773034" lon="9.526418605819345">
<ele>266.8</ele>
<time>2024-05-11T11:18:30Z</time>
</trkpt>
<trkpt lat="49.68371193856001" lon="9.526473004370928">
<ele>266.6</ele>
<time>2024-05-11T11:18:31Z</time>
</trkpt>
<trkpt lat="49.6837882976979" lon="9.52652832493186">
<ele>266.2</ele>
<time>2024-05-11T11:18:32Z</time>
</trkpt>
<trkpt lat="49.68385694548488" lon="9.526590267196298">
<ele>266</ele>
<time>2024-05-11T11:18:33Z</time>
</trkpt>
<trkpt lat="49.68392559327185" lon="9.526657070964577">
<ele>265.6</ele>
<time>2024-05-11T11:18:34Z</time>
</trkpt>
<trkpt lat="49.6839904692024" lon="9.526721946895124">
<ele>265.4</ele>
<time>2024-05-11T11:18:35Z</time>
</trkpt>
<trkpt lat="49.684055261313915" lon="9.526789588853717">
<ele>265.2</ele>
<time>2024-05-11T11:18:36Z</time>
</trkpt>
<trkpt lat="49.68412013724446" lon="9.52686016447842">
<ele>264.8</ele>
<time>2024-05-11T11:18:37Z</time>
</trkpt>
<trkpt lat="49.68418501317501" lon="9.526933589950204">
<ele>264.2</ele>
<time>2024-05-11T11:18:38Z</time>
</trkpt>
<trkpt lat="49.6842460334301" lon="9.527011793106794">
<ele>263.8</ele>
<time>2024-05-11T11:18:39Z</time>
</trkpt>
<trkpt lat="49.68430705368519" lon="9.527091924101114">
<ele>263.2</ele>
<time>2024-05-11T11:18:40Z</time>
</trkpt>
<trkpt lat="49.68436807394028" lon="9.527176832780242">
<ele>262.8</ele>
<time>2024-05-11T11:18:41Z</time>
</trkpt>
<trkpt lat="49.68442532233894" lon="9.527264591306448">
<ele>262.6</ele>
<time>2024-05-11T11:18:42Z</time>
</trkpt>
<trkpt lat="49.68448634259403" lon="9.5273551158607">
<ele>262.2</ele>
<time>2024-05-11T11:18:43Z</time>
</trkpt>
<trkpt lat="49.68454736284912" lon="9.527448574081063">
<ele>261.799</ele>
<time>2024-05-11T11:18:44Z</time>
</trkpt>
<trkpt lat="49.68460461124778" lon="9.527542032301426">
<ele>261.4</ele>
<time>2024-05-11T11:18:45Z</time>
</trkpt>
<trkpt lat="49.68465800397098" lon="9.5276384241879">
<ele>261</ele>
<time>2024-05-11T11:18:46Z</time>
</trkpt>
<trkpt lat="49.68471139669418" lon="9.52773188240826">
<ele>260.799</ele>
<time>2024-05-11T11:18:47Z</time>
</trkpt>
<trkpt lat="49.6847571618855" lon="9.527828190475702">
<ele>260.799</ele>
<time>2024-05-11T11:18:48Z</time>
</trkpt>
<trkpt lat="49.68480292707682" lon="9.527923576533794">
<ele>260.6</ele>
<time>2024-05-11T11:18:49Z</time>
</trkpt>
<trkpt lat="49.684844920411706" lon="9.528021812438965">
<ele>260.4</ele>
<time>2024-05-11T11:18:50Z</time>
</trkpt>
<trkpt lat="49.68489068560302" lon="9.528121892362831">
<ele>260.2</ele>
<time>2024-05-11T11:18:51Z</time>
</trkpt>
<trkpt lat="49.68493267893791" lon="9.52822683379054">
<ele>260</ele>
<time>2024-05-11T11:18:52Z</time>
</trkpt>
<trkpt lat="49.68497081659734" lon="9.528333619236946">
<ele>259.799</ele>
<time>2024-05-11T11:18:53Z</time>
</trkpt>
<trkpt lat="49.68500895425677" lon="9.528440404683352">
<ele>259.6</ele>
<time>2024-05-11T11:18:54Z</time>
</trkpt>
<trkpt lat="49.685043320059776" lon="9.528550123795869">
<ele>259.4</ele>
<time>2024-05-11T11:18:55Z</time>
</trkpt>
<trkpt lat="49.68508145771921" lon="9.52866168692708">
<ele>259</ele>
<time>2024-05-11T11:18:56Z</time>
</trkpt>
<trkpt lat="49.68511196784675" lon="9.528775177896025">
<ele>258.799</ele>
<time>2024-05-11T11:18:57Z</time>
</trkpt>
<trkpt lat="49.68514624983072" lon="9.528888668864964">
<ele>258.6</ele>
<time>2024-05-11T11:18:58Z</time>
</trkpt>
<trkpt lat="49.6851768437773" lon="9.52900023199618">
<ele>258.4</ele>
<time>2024-05-11T11:18:59Z</time>
</trkpt>
<trkpt lat="49.68521112576127" lon="9.52911464497447">
<ele>258.4</ele>
<time>2024-05-11T11:19:00Z</time>
</trkpt>
<trkpt lat="49.685241635888815" lon="9.529231991618872">
<ele>258.2</ele>
<time>2024-05-11T11:19:01Z</time>
</trkpt>
<trkpt lat="49.68527214601636" lon="9.529351182281973">
<ele>258</ele>
<time>2024-05-11T11:19:02Z</time>
</trkpt>
<trkpt lat="49.685302656143904" lon="9.529466601088645">
<ele>257.799</ele>
<time>2024-05-11T11:19:03Z</time>
</trkpt>
<trkpt lat="49.68533325009048" lon="9.529580092057586">
<ele>257.6</ele>
<time>2024-05-11T11:19:04Z</time>
</trkpt>
<trkpt lat="49.685359904542565" lon="9.529694505035875">
<ele>257.2</ele>
<time>2024-05-11T11:19:05Z</time>
</trkpt>
<trkpt lat="49.68538664281368" lon="9.52980992384255">
<ele>257</ele>
<time>2024-05-11T11:19:06Z</time>
</trkpt>
<trkpt lat="49.68541329726577" lon="9.52992534264922">
<ele>256.6</ele>
<time>2024-05-11T11:19:07Z</time>
</trkpt>
<trkpt lat="49.685440035536885" lon="9.530041683465242">
<ele>256.4</ele>
<time>2024-05-11T11:19:08Z</time>
</trkpt>
<trkpt lat="49.68546668998897" lon="9.530157018452885">
<ele>256.2</ele>
<time>2024-05-11T11:19:09Z</time>
</trkpt>
<trkpt lat="49.68549342826009" lon="9.530268665403128">
<ele>256</ele>
<time>2024-05-11T11:19:10Z</time>
</trkpt>
<trkpt lat="49.68552393838763" lon="9.530376372858882">
<ele>255.8</ele>
<time>2024-05-11T11:19:11Z</time>
</trkpt>
<trkpt lat="49.68555067665875" lon="9.530487013980746">
<ele>255.6</ele>
<time>2024-05-11T11:19:12Z</time>
</trkpt>
<trkpt lat="49.685577331110835" lon="9.53059857711196">
<ele>255.4</ele>
<time>2024-05-11T11:19:13Z</time>
</trkpt>
<trkpt lat="49.68560406938195" lon="9.530712068080902">
<ele>255.2</ele>
<time>2024-05-11T11:19:14Z</time>
</trkpt>
<trkpt lat="49.6856345795095" lon="9.530819859355688">
<ele>255</ele>
<time>2024-05-11T11:19:15Z</time>
</trkpt>
<trkpt lat="49.68566123396158" lon="9.530928572639825">
<ele>254.8</ele>
<time>2024-05-11T11:19:16Z</time>
</trkpt>
<trkpt lat="49.6856879722327" lon="9.531035358086228">
<ele>254.6</ele>
<time>2024-05-11T11:19:17Z</time>
</trkpt>
<trkpt lat="49.68571848236024" lon="9.531140299513936">
<ele>254.4</ele>
<time>2024-05-11T11:19:18Z</time>
</trkpt>
<trkpt lat="49.68574522063136" lon="9.531246162950993">
<ele>254</ele>
<time>2024-05-11T11:19:19Z</time>
</trkpt>
<trkpt lat="49.685775730758905" lon="9.53134817071259">
<ele>254</ele>
<time>2024-05-11T11:19:20Z</time>
</trkpt>
<trkpt lat="49.68581001274288" lon="9.531451184302568">
<ele>253.8</ele>
<time>2024-05-11T11:19:21Z</time>
</trkpt>
<trkpt lat="49.685832895338535" lon="9.531559897586703">
<ele>253.6</ele>
<time>2024-05-11T11:19:22Z</time>
</trkpt>
<trkpt lat="49.68585963360965" lon="9.531662911176682">
<ele>253.6</ele>
<time>2024-05-11T11:19:23Z</time>
</trkpt>
<trkpt lat="49.68588251620531" lon="9.531761147081852">
<ele>253.4</ele>
<time>2024-05-11T11:19:24Z</time>
</trkpt>
<trkpt lat="49.68590539880097" lon="9.531854605302216">
<ele>253.2</ele>
<time>2024-05-11T11:19:25Z</time>
</trkpt>
<trkpt lat="49.68592828139663" lon="9.531953763216734">
<ele>253</ele>
<time>2024-05-11T11:19:26Z</time>
</trkpt>
<trkpt lat="49.685951163992286" lon="9.532054848968984">
<ele>253</ele>
<time>2024-05-11T11:19:27Z</time>
</trkpt>
<trkpt lat="49.6859779022634" lon="9.532155012711884">
<ele>253</ele>
<time>2024-05-11T11:19:28Z</time>
</trkpt>
<trkpt lat="49.68600455671549" lon="9.53225702047348">
<ele>252.8</ele>
<time>2024-05-11T11:19:29Z</time>
</trkpt>
<trkpt lat="49.686031294986606" lon="9.532356262207031">
<ele>252.8</ele>
<time>2024-05-11T11:19:30Z</time>
</trkpt>
<trkpt lat="49.686054177582264" lon="9.532458269968629">
<ele>252.8</ele>
<time>2024-05-11T11:19:31Z</time>
</trkpt>
<trkpt lat="49.68608468770981" lon="9.5325565058738">
<ele>252.6</ele>
<time>2024-05-11T11:19:32Z</time>
</trkpt>
<trkpt lat="49.686111425980926" lon="9.532648036256433">
<ele>252.4</ele>
<time>2024-05-11T11:19:33Z</time>
</trkpt>
<trkpt lat="49.686134308576584" lon="9.532738644629717">
<ele>252.2</ele>
<time>2024-05-11T11:19:34Z</time>
</trkpt>
<trkpt lat="49.68616096302867" lon="9.532834952697158">
<ele>252</ele>
<time>2024-05-11T11:19:35Z</time>
</trkpt>
<trkpt lat="49.6861800737679" lon="9.532935116440058">
<ele>251.8</ele>
<time>2024-05-11T11:19:36Z</time>
</trkpt>
<trkpt lat="49.68620295636356" lon="9.53302949666977">
<ele>251.6</ele>
<time>2024-05-11T11:19:37Z</time>
</trkpt>
<trkpt lat="49.68622969463467" lon="9.53312488272786">
<ele>251.2</ele>
<time>2024-05-11T11:19:38Z</time>
</trkpt>
<trkpt lat="49.68624494969845" lon="9.53322689048946">
<ele>251</ele>
<time>2024-05-11T11:19:39Z</time>
</trkpt>
<trkpt lat="49.68626783229411" lon="9.533323282375932">
<ele>250.8</ele>
<time>2024-05-11T11:19:40Z</time>
</trkpt>
<trkpt lat="49.686290714889765" lon="9.5334233622998">
<ele>250.6</ele>
<time>2024-05-11T11:19:41Z</time>
</trkpt>
<trkpt lat="49.68630974180997" lon="9.53352545388043">
<ele>250.4</ele>
<time>2024-05-11T11:19:42Z</time>
</trkpt>
<trkpt lat="49.68633648008108" lon="9.533624611794949">
<ele>250</ele>
<time>2024-05-11T11:19:43Z</time>
</trkpt>
<trkpt lat="49.6863632183522" lon="9.533723769709468">
<ele>249.8</ele>
<time>2024-05-11T11:19:44Z</time>
</trkpt>
<trkpt lat="49.68638987280429" lon="9.533816305920482">
<ele>249.6</ele>
<time>2024-05-11T11:19:45Z</time>
</trkpt>
<trkpt lat="49.68642423860729" lon="9.533907836303117">
<ele>249.4</ele>
<time>2024-05-11T11:19:46Z</time>
</trkpt>
<trkpt lat="49.68645089305937" lon="9.534005150198936">
<ele>249</ele>
<time>2024-05-11T11:19:47Z</time>
</trkpt>
<trkpt lat="49.686485258862376" lon="9.534099530428648">
<ele>248.8</ele>
<time>2024-05-11T11:19:48Z</time>
</trkpt>
<trkpt lat="49.68651954084635" lon="9.53419684432447">
<ele>248.6</ele>
<time>2024-05-11T11:19:49Z</time>
</trkpt>
<trkpt lat="49.68655013479293" lon="9.534296924248338">
<ele>248.4</ele>
<time>2024-05-11T11:19:50Z</time>
</trkpt>
<trkpt lat="49.686584416776896" lon="9.534398010000588">
<ele>248.2</ele>
<time>2024-05-11T11:19:51Z</time>
</trkpt>
<trkpt lat="49.68661492690444" lon="9.534496245905755">
<ele>248</ele>
<time>2024-05-11T11:19:52Z</time>
</trkpt>
<trkpt lat="49.68664166517556" lon="9.534591631963847">
<ele>247.8</ele>
<time>2024-05-11T11:19:53Z</time>
</trkpt>
<trkpt lat="49.68667594715953" lon="9.534685090184212">
<ele>247.6</ele>
<time>2024-05-11T11:19:54Z</time>
</trkpt>
<trkpt lat="49.68671031296253" lon="9.534778548404574">
<ele>247.6</ele>
<time>2024-05-11T11:19:55Z</time>
</trkpt>
<trkpt lat="49.68675230629742" lon="9.534872006624935">
<ele>247.6</ele>
<time>2024-05-11T11:19:56Z</time>
</trkpt>
<trkpt lat="49.68679044395685" lon="9.534970242530107">
<ele>247.4</ele>
<time>2024-05-11T11:19:57Z</time>
</trkpt>
<trkpt lat="49.68683235347271" lon="9.53506370075047">
<ele>247.4</ele>
<time>2024-05-11T11:19:58Z</time>
</trkpt>
<trkpt lat="49.68687057495117" lon="9.535156236961484">
<ele>247.2</ele>
<time>2024-05-11T11:19:59Z</time>
</trkpt>
<trkpt lat="49.68692011199891" lon="9.535246845334768">
<ele>247</ele>
<time>2024-05-11T11:20:00Z</time>
</trkpt>
<trkpt lat="49.68696587719023" lon="9.535336447879672">
<ele>246.8</ele>
<time>2024-05-11T11:20:01Z</time>
</trkpt>
<trkpt lat="49.68701164238155" lon="9.535427978262303">
<ele>246.6</ele>
<time>2024-05-11T11:20:02Z</time>
</trkpt>
<trkpt lat="49.68705363571644" lon="9.53551858663559">
<ele>246.4</ele>
<time>2024-05-11T11:20:03Z</time>
</trkpt>
<trkpt lat="49.687099400907755" lon="9.535605423152449">
<ele>246.2</ele>
<time>2024-05-11T11:20:04Z</time>
</trkpt>
<trkpt lat="49.68714139424264" lon="9.535684548318386">
<ele>246</ele>
<time>2024-05-11T11:20:05Z</time>
</trkpt>
<trkpt lat="49.68718715943396" lon="9.535763673484324">
<ele>245.6</ele>
<time>2024-05-11T11:20:06Z</time>
</trkpt>
<trkpt lat="49.68723292462528" lon="9.535841876640916">
<ele>245.4</ele>
<time>2024-05-11T11:20:07Z</time>
</trkpt>
<trkpt lat="49.687278689816594" lon="9.535924857482314">
<ele>245.2</ele>
<time>2024-05-11T11:20:08Z</time>
</trkpt>
<trkpt lat="49.68732445500791" lon="9.536009766161442">
<ele>245</ele>
<time>2024-05-11T11:20:09Z</time>
</trkpt>
<trkpt lat="49.687374075874686" lon="9.536093669012187">
<ele>244.8</ele>
<time>2024-05-11T11:20:10Z</time>
</trkpt>
<trkpt lat="49.687419841066" lon="9.536174722015858">
<ele>244.6</ele>
<time>2024-05-11T11:20:11Z</time>
</trkpt>
<trkpt lat="49.68746946193278" lon="9.536254853010178">
<ele>244.4</ele>
<time>2024-05-11T11:20:12Z</time>
</trkpt>
<trkpt lat="49.687515227124095" lon="9.536334984004498">
<ele>244.4</ele>
<time>2024-05-11T11:20:13Z</time>
</trkpt>
<trkpt lat="49.68756099231541" lon="9.536416959017515">
<ele>244.2</ele>
<time>2024-05-11T11:20:14Z</time>
</trkpt>
<trkpt lat="49.68760675750673" lon="9.536497090011837">
<ele>243.8</ele>
<time>2024-05-11T11:20:15Z</time>
</trkpt>
<trkpt lat="49.687652522698045" lon="9.536581914871933">
<ele>243.6</ele>
<time>2024-05-11T11:20:16Z</time>
</trkpt>
<trkpt lat="49.68769828788936" lon="9.53666489571333">
<ele>243.6</ele>
<time>2024-05-11T11:20:17Z</time>
</trkpt>
<trkpt lat="49.68774028122425" lon="9.536754582077265">
<ele>243.4</ele>
<time>2024-05-11T11:20:18Z</time>
</trkpt>
<trkpt lat="49.68778604641557" lon="9.53684041276574">
<ele>243.4</ele>
<time>2024-05-11T11:20:19Z</time>
</trkpt>
<trkpt lat="49.68783566728234" lon="9.53691953793168">
<ele>243.2</ele>
<time>2024-05-11T11:20:20Z</time>
</trkpt>
<trkpt lat="49.68788143247366" lon="9.537005368620155">
<ele>243.2</ele>
<time>2024-05-11T11:20:21Z</time>
</trkpt>
<trkpt lat="49.687931053340435" lon="9.537091199308634">
<ele>243</ele>
<time>2024-05-11T11:20:22Z</time>
</trkpt>
<trkpt lat="49.68798059038818" lon="9.537173258140683">
<ele>242.8</ele>
<time>2024-05-11T11:20:23Z</time>
</trkpt>
<trkpt lat="49.688026355579495" lon="9.53725808300078">
<ele>242.8</ele>
<time>2024-05-11T11:20:24Z</time>
</trkpt>
<trkpt lat="49.68807597644627" lon="9.537346763536334">
<ele>242.6</ele>
<time>2024-05-11T11:20:25Z</time>
</trkpt>
<trkpt lat="49.68812174163759" lon="9.537433600053191">
<ele>242.4</ele>
<time>2024-05-11T11:20:26Z</time>
</trkpt>
<trkpt lat="49.68817513436079" lon="9.537523202598097">
<ele>242.2</ele>
<time>2024-05-11T11:20:27Z</time>
</trkpt>
<trkpt lat="49.688224755227566" lon="9.53761481679976">
<ele>242</ele>
<time>2024-05-11T11:20:28Z</time>
</trkpt>
<trkpt lat="49.68827814795077" lon="9.537706347182391">
<ele>241.8</ele>
<time>2024-05-11T11:20:29Z</time>
</trkpt>
<trkpt lat="49.68833154067397" lon="9.537796955555676">
<ele>241.6</ele>
<time>2024-05-11T11:20:30Z</time>
</trkpt>
<trkpt lat="49.688384933397174" lon="9.537879936397076">
<ele>241.4</ele>
<time>2024-05-11T11:20:31Z</time>
</trkpt>
<trkpt lat="49.688442181795835" lon="9.537953361868858">
<ele>241.2</ele>
<time>2024-05-11T11:20:32Z</time>
</trkpt>
<trkpt lat="49.68849557451904" lon="9.538013376295568">
<ele>240.8</ele>
<time>2024-05-11T11:20:33Z</time>
</trkpt>
<trkpt lat="49.688545195385814" lon="9.53806970268488">
<ele>240.8</ele>
<time>2024-05-11T11:20:34Z</time>
</trkpt>
<trkpt lat="49.6886062156409" lon="9.538118317723274">
<ele>240.6</ele>
<time>2024-05-11T11:20:35Z</time>
</trkpt>
<trkpt lat="49.68866346403957" lon="9.538156455382705">
<ele>240.4</ele>
<time>2024-05-11T11:20:36Z</time>
</trkpt>
<trkpt lat="49.68872825615108" lon="9.538189815357327">
<ele>240.2</ele>
<time>2024-05-11T11:20:37Z</time>
</trkpt>
<trkpt lat="49.68879698775709" lon="9.538227031007407">
<ele>240</ele>
<time>2024-05-11T11:20:38Z</time>
</trkpt>
<trkpt lat="49.68887326307595" lon="9.538258546963334">
<ele>239.8</ele>
<time>2024-05-11T11:20:39Z</time>
</trkpt>
<trkpt lat="49.68894953839481" lon="9.5382862072438">
<ele>239.6</ele>
<time>2024-05-11T11:20:40Z</time>
</trkpt>
<trkpt lat="49.68902204185724" lon="9.538306156173348">
<ele>239.4</ele>
<time>2024-05-11T11:20:41Z</time>
</trkpt>
<trkpt lat="49.68910217285156" lon="9.53832333907485">
<ele>239</ele>
<time>2024-05-11T11:20:42Z</time>
</trkpt>
<trkpt lat="49.68917844817042" lon="9.53834337182343">
<ele>238.8</ele>
<time>2024-05-11T11:20:43Z</time>
</trkpt>
<trkpt lat="49.689254723489285" lon="9.53836340457201">
<ele>238.4</ele>
<time>2024-05-11T11:20:44Z</time>
</trkpt>
<trkpt lat="49.68932337127626" lon="9.538390142843127">
<ele>238.2</ele>
<time>2024-05-11T11:20:45Z</time>
</trkpt>
<trkpt lat="49.689392019063234" lon="9.53842157498002">
<ele>238</ele>
<time>2024-05-11T11:20:46Z</time>
</trkpt>
<trkpt lat="49.68946075066924" lon="9.538456862792373">
<ele>237.8</ele>
<time>2024-05-11T11:20:47Z</time>
</trkpt>
<trkpt lat="49.689529398456216" lon="9.53850170597434">
<ele>237.6</ele>
<time>2024-05-11T11:20:48Z</time>
</trkpt>
<trkpt lat="49.689590418711305" lon="9.538553170859814">
<ele>237.2</ele>
<time>2024-05-11T11:20:49Z</time>
</trkpt>
<trkpt lat="49.68965143896639" lon="9.538606563583016">
<ele>237</ele>
<time>2024-05-11T11:20:50Z</time>
</trkpt>
<trkpt lat="49.68971245922148" lon="9.53866288997233">
<ele>236.8</ele>
<time>2024-05-11T11:20:51Z</time>
</trkpt>
<trkpt lat="49.689769707620144" lon="9.538722988218067">
<ele>236.6</ele>
<time>2024-05-11T11:20:52Z</time>
</trkpt>
<trkpt lat="49.689826956018806" lon="9.538787780329583">
<ele>236.4</ele>
<time>2024-05-11T11:20:53Z</time>
</trkpt>
<trkpt lat="49.68988034874201" lon="9.53885835595429">
<ele>236</ele>
<time>2024-05-11T11:20:54Z</time>
</trkpt>
<trkpt lat="49.68993374146521" lon="9.53893463127315">
<ele>235.8</ele>
<time>2024-05-11T11:20:55Z</time>
</trkpt>
<trkpt lat="49.689987134188414" lon="9.53901861794293">
<ele>235.4</ele>
<time>2024-05-11T11:20:56Z</time>
</trkpt>
<trkpt lat="49.69003675505519" lon="9.539101598784328">
<ele>235.2</ele>
<time>2024-05-11T11:20:57Z</time>
</trkpt>
<trkpt lat="49.69009014777839" lon="9.539186423644423">
<ele>235</ele>
<time>2024-05-11T11:20:58Z</time>
</trkpt>
<trkpt lat="49.69013976864517" lon="9.539271332323551">
<ele>234.8</ele>
<time>2024-05-11T11:20:59Z</time>
</trkpt>
<trkpt lat="49.69018930569291" lon="9.539360012859106">
<ele>234.4</ele>
<time>2024-05-11T11:21:00Z</time>
</trkpt>
<trkpt lat="49.690242698416114" lon="9.539444921538234">
<ele>234.2</ele>
<time>2024-05-11T11:21:01Z</time>
</trkpt>
<trkpt lat="49.69029609113932" lon="9.53952974639833">
<ele>233.8</ele>
<time>2024-05-11T11:21:02Z</time>
</trkpt>
<trkpt lat="49.69034571200609" lon="9.539614655077456">
<ele>233.6</ele>
<time>2024-05-11T11:21:03Z</time>
</trkpt>
<trkpt lat="49.690399104729295" lon="9.539698557928205">
<ele>233.4</ele>
<time>2024-05-11T11:21:04Z</time>
</trkpt>
<trkpt lat="49.69044872559607" lon="9.53978531062603">
<ele>233.2</ele>
<time>2024-05-11T11:21:05Z</time>
</trkpt>
<trkpt lat="49.69050211831927" lon="9.539874996989964">
<ele>233.2</ele>
<time>2024-05-11T11:21:06Z</time>
</trkpt>
<trkpt lat="49.69054788351059" lon="9.53996174968779">
<ele>233</ele>
<time>2024-05-11T11:21:07Z</time>
</trkpt>
<trkpt lat="49.690593648701906" lon="9.540050430223346">
<ele>232.8</ele>
<time>2024-05-11T11:21:08Z</time>
</trkpt>
<trkpt lat="49.69063941389322" lon="9.540138188749552">
<ele>232.8</ele>
<time>2024-05-11T11:21:09Z</time>
</trkpt>
<trkpt lat="49.69068526290357" lon="9.54022309742868">
<ele>232.6</ele>
<time>2024-05-11T11:21:10Z</time>
</trkpt>
<trkpt lat="49.690734799951315" lon="9.540307922288775">
<ele>232.4</ele>
<time>2024-05-11T11:21:11Z</time>
</trkpt>
<trkpt lat="49.69078819267452" lon="9.54039953649044">
<ele>232.4</ele>
<time>2024-05-11T11:21:12Z</time>
</trkpt>
<trkpt lat="49.69083781354129" lon="9.540486289188266">
<ele>232.2</ele>
<time>2024-05-11T11:21:13Z</time>
</trkpt>
<trkpt lat="49.690891206264496" lon="9.540568348020315">
<ele>232.2</ele>
<time>2024-05-11T11:21:14Z</time>
</trkpt>
<trkpt lat="49.690933199599385" lon="9.540651245042682">
<ele>232</ele>
<time>2024-05-11T11:21:15Z</time>
</trkpt>
<trkpt lat="49.69097510911524" lon="9.540731376037002">
<ele>231.8</ele>
<time>2024-05-11T11:21:16Z</time>
</trkpt>
<trkpt lat="49.69101710245013" lon="9.540808657184243">
<ele>231.6</ele>
<time>2024-05-11T11:21:17Z</time>
</trkpt>
<trkpt lat="49.69106286764145" lon="9.54089163802564">
<ele>231.4</ele>
<time>2024-05-11T11:21:18Z</time>
</trkpt>
<trkpt lat="49.69110486097634" lon="9.540965063497424">
<ele>231</ele>
<time>2024-05-11T11:21:19Z</time>
</trkpt>
<trkpt lat="49.69114677049219" lon="9.541045110672712">
<ele>230.8</ele>
<time>2024-05-11T11:21:20Z</time>
</trkpt>
<trkpt lat="49.691188763827085" lon="9.54113001935184">
<ele>230.4</ele>
<time>2024-05-11T11:21:21Z</time>
</trkpt>
<trkpt lat="49.69123838469386" lon="9.541214928030968">
<ele>230.2</ele>
<time>2024-05-11T11:21:22Z</time>
</trkpt>
<trkpt lat="49.69128029420972" lon="9.541297908872366">
<ele>230</ele>
<time>2024-05-11T11:21:23Z</time>
</trkpt>
<trkpt lat="49.69132228754461" lon="9.541375106200576">
<ele>229.6</ele>
<time>2024-05-11T11:21:24Z</time>
</trkpt>
<trkpt lat="49.691368052735925" lon="9.541453309357166">
<ele>229.4</ele>
<time>2024-05-11T11:21:25Z</time>
</trkpt>
<trkpt lat="49.691410046070814" lon="9.541529584676027">
<ele>229.2</ele>
<time>2024-05-11T11:21:26Z</time>
</trkpt>
<trkpt lat="49.69145195558667" lon="9.54160493798554">
<ele>229.2</ele>
<time>2024-05-11T11:21:27Z</time>
</trkpt>
<trkpt lat="49.6914900932461" lon="9.541678363457322">
<ele>229</ele>
<time>2024-05-11T11:21:28Z</time>
</trkpt>
<trkpt lat="49.69153208658099" lon="9.541751788929105">
<ele>229</ele>
<time>2024-05-11T11:21:29Z</time>
</trkpt>
<trkpt lat="49.69157022424042" lon="9.541826220229268">
<ele>228.8</ele>
<time>2024-05-11T11:21:30Z</time>
</trkpt>
<trkpt lat="49.69161221757531" lon="9.54190157353878">
<ele>228.8</ele>
<time>2024-05-11T11:21:31Z</time>
</trkpt>
<trkpt lat="49.69165412709117" lon="9.541971143335104">
<ele>228.8</ele>
<time>2024-05-11T11:21:32Z</time>
</trkpt>
<trkpt lat="49.69169997610152" lon="9.542041718959808">
<ele>228.8</ele>
<time>2024-05-11T11:21:33Z</time>
</trkpt>
<trkpt lat="49.691745741292834" lon="9.542110366746783">
<ele>228.8</ele>
<time>2024-05-11T11:21:34Z</time>
</trkpt>
<trkpt lat="49.69179527834058" lon="9.542175242677333">
<ele>228.8</ele>
<time>2024-05-11T11:21:35Z</time>
</trkpt>
<trkpt lat="49.69184875488281" lon="9.54223819077015">
<ele>228.8</ele>
<time>2024-05-11T11:21:36Z</time>
</trkpt>
<trkpt lat="49.69190591946244" lon="9.54229636117816">
<ele>228.6</ele>
<time>2024-05-11T11:21:37Z</time>
</trkpt>
<trkpt lat="49.691959312185645" lon="9.542349753901362">
<ele>228.6</ele>
<time>2024-05-11T11:21:38Z</time>
</trkpt>
<trkpt lat="49.69201270490885" lon="9.542403146624563">
<ele>228.6</ele>
<time>2024-05-11T11:21:39Z</time>
</trkpt>
<trkpt lat="49.69206995330751" lon="9.542447989806533">
<ele>228.4</ele>
<time>2024-05-11T11:21:40Z</time>
</trkpt>
<trkpt lat="49.69213860109448" lon="9.542489983141422">
<ele>228.4</ele>
<time>2024-05-11T11:21:41Z</time>
</trkpt>
<trkpt lat="49.69220733270049" lon="9.54253189265728">
<ele>228.4</ele>
<time>2024-05-11T11:21:42Z</time>
</trkpt>
<trkpt lat="49.692275980487466" lon="9.542565336450934">
<ele>228.4</ele>
<time>2024-05-11T11:21:43Z</time>
</trkpt>
<trkpt lat="49.69234462827444" lon="9.542599618434906">
<ele>228.2</ele>
<time>2024-05-11T11:21:44Z</time>
</trkpt>
<trkpt lat="49.692417131736875" lon="9.542634906247258">
<ele>228.2</ele>
<time>2024-05-11T11:21:45Z</time>
</trkpt>
<trkpt lat="49.69249717891216" lon="9.542673043906689">
<ele>228</ele>
<time>2024-05-11T11:21:46Z</time>
</trkpt>
<trkpt lat="49.692573538050056" lon="9.54271118156612">
<ele>227.8</ele>
<time>2024-05-11T11:21:47Z</time>
</trkpt>
<trkpt lat="49.69264981336892" lon="9.5427483972162">
<ele>227.6</ele>
<time>2024-05-11T11:21:48Z</time>
</trkpt>
<trkpt lat="49.69271846115589" lon="9.542783685028551">
<ele>227.2</ele>
<time>2024-05-11T11:21:49Z</time>
</trkpt>
<trkpt lat="49.692787108942866" lon="9.542818050831556">
<ele>227</ele>
<time>2024-05-11T11:21:50Z</time>
</trkpt>
<trkpt lat="49.69285575672984" lon="9.54285141080618">
<ele>226.6</ele>
<time>2024-05-11T11:21:51Z</time>
</trkpt>
<trkpt lat="49.69292448833585" lon="9.542884770780802">
<ele>226.4</ele>
<time>2024-05-11T11:21:52Z</time>
</trkpt>
<trkpt lat="49.69299313612282" lon="9.542918130755424">
<ele>226.2</ele>
<time>2024-05-11T11:21:53Z</time>
</trkpt>
<trkpt lat="49.6930617839098" lon="9.542955346405506">
<ele>226</ele>
<time>2024-05-11T11:21:54Z</time>
</trkpt>
<trkpt lat="49.693126659840345" lon="9.542991556227207">
<ele>225.8</ele>
<time>2024-05-11T11:21:55Z</time>
</trkpt>
<trkpt lat="49.693187680095434" lon="9.543025000020862">
<ele>225.4</ele>
<time>2024-05-11T11:21:56Z</time>
</trkpt>
<trkpt lat="49.69324870035052" lon="9.543058359995484">
<ele>225.2</ele>
<time>2024-05-11T11:21:57Z</time>
</trkpt>
<trkpt lat="49.69330972060561" lon="9.54308794811368">
<ele>224.8</ele>
<time>2024-05-11T11:21:58Z</time>
</trkpt>
<trkpt lat="49.69337459653616" lon="9.543116530403497">
<ele>224.6</ele>
<time>2024-05-11T11:21:59Z</time>
</trkpt>
<trkpt lat="49.69343561679125" lon="9.543143268674612">
<ele>224.2</ele>
<time>2024-05-11T11:22:00Z</time>
</trkpt>
<trkpt lat="49.69349663704634" lon="9.543167995288968">
<ele>224</ele>
<time>2024-05-11T11:22:01Z</time>
</trkpt>
<trkpt lat="49.693561512976885" lon="9.543193811550736">
<ele>223.8</ele>
<time>2024-05-11T11:22:02Z</time>
</trkpt>
<trkpt lat="49.693622533231974" lon="9.543221471831204">
<ele>223.6</ele>
<time>2024-05-11T11:22:03Z</time>
</trkpt>
<trkpt lat="49.69368740916252" lon="9.543252903968096">
<ele>223.4</ele>
<time>2024-05-11T11:22:04Z</time>
</trkpt>
<trkpt lat="49.69374842941761" lon="9.543290119618176">
<ele>223</ele>
<time>2024-05-11T11:22:05Z</time>
</trkpt>
<trkpt lat="49.69381330534816" lon="9.543338734656572">
<ele>222.8</ele>
<time>2024-05-11T11:22:06Z</time>
</trkpt>
<trkpt lat="49.69387046992779" lon="9.543397827073932">
<ele>222.4</ele>
<time>2024-05-11T11:22:07Z</time>
</trkpt>
<trkpt lat="49.69393157400191" lon="9.543464630842209">
<ele>222.2</ele>
<time>2024-05-11T11:22:08Z</time>
</trkpt>
<trkpt lat="49.69398496672511" lon="9.543535206466911">
<ele>221.8</ele>
<time>2024-05-11T11:22:09Z</time>
</trkpt>
<trkpt lat="49.694038359448314" lon="9.54360293224454">
<ele>221.6</ele>
<time>2024-05-11T11:22:10Z</time>
</trkpt>
<trkpt lat="49.69409175217152" lon="9.54367535188794">
<ele>221.4</ele>
<time>2024-05-11T11:22:11Z</time>
</trkpt>
<trkpt lat="49.69414137303829" lon="9.543751711025834">
<ele>221.2</ele>
<time>2024-05-11T11:22:12Z</time>
</trkpt>
<trkpt lat="49.69418713822961" lon="9.543827986344697">
<ele>221</ele>
<time>2024-05-11T11:22:13Z</time>
</trkpt>
<trkpt lat="49.694229047745466" lon="9.543908117339017">
<ele>220.8</ele>
<time>2024-05-11T11:22:14Z</time>
</trkpt>
<trkpt lat="49.69427104108035" lon="9.54399679787457">
<ele>220.6</ele>
<time>2024-05-11T11:22:15Z</time>
</trkpt>
<trkpt lat="49.694313034415245" lon="9.544083550572395">
<ele>220.4</ele>
<time>2024-05-11T11:22:16Z</time>
</trkpt>
<trkpt lat="49.6943549439311" lon="9.5441713090986">
<ele>220.2</ele>
<time>2024-05-11T11:22:17Z</time>
</trkpt>
<trkpt lat="49.69439693726599" lon="9.544256133958696">
<ele>220</ele>
<time>2024-05-11T11:22:18Z</time>
</trkpt>
<trkpt lat="49.69444270245731" lon="9.544344898313284">
<ele>219.8</ele>
<time>2024-05-11T11:22:19Z</time>
</trkpt>
<trkpt lat="49.694488467648625" lon="9.544435422867537">
<ele>219.8</ele>
<time>2024-05-11T11:22:20Z</time>
</trkpt>
<trkpt lat="49.694530460983515" lon="9.544525109231472">
<ele>219.8</ele>
<time>2024-05-11T11:22:21Z</time>
</trkpt>
<trkpt lat="49.69457622617483" lon="9.544616639614103">
<ele>219.8</ele>
<time>2024-05-11T11:22:22Z</time>
</trkpt>
<trkpt lat="49.69461821950972" lon="9.544710097834468">
<ele>219.8</ele>
<time>2024-05-11T11:22:23Z</time>
</trkpt>
<trkpt lat="49.69467161223292" lon="9.544799784198403">
<ele>219.8</ele>
<time>2024-05-11T11:22:24Z</time>
</trkpt>
<trkpt lat="49.694725004956126" lon="9.544893242418766">
<ele>220</ele>
<time>2024-05-11T11:22:25Z</time>
</trkpt>
<trkpt lat="49.69477839767933" lon="9.544986700639129">
<ele>220</ele>
<time>2024-05-11T11:22:26Z</time>
</trkpt>
<trkpt lat="49.69483564607799" lon="9.545078231021762">
<ele>219.8</ele>
<time>2024-05-11T11:22:27Z</time>
</trkpt>
<trkpt lat="49.69488903880119" lon="9.545169761404397">
<ele>219.8</ele>
<time>2024-05-11T11:22:28Z</time>
</trkpt>
<trkpt lat="49.6949424315244" lon="9.54526036977768">
<ele>219.6</ele>
<time>2024-05-11T11:22:29Z</time>
</trkpt>
<trkpt lat="49.69499205239117" lon="9.545351900160313">
<ele>219.6</ele>
<time>2024-05-11T11:22:30Z</time>
</trkpt>
<trkpt lat="49.695045445114374" lon="9.545441586524248">
<ele>219.4</ele>
<time>2024-05-11T11:22:31Z</time>
</trkpt>
<trkpt lat="49.69509883783758" lon="9.545530267059805">
<ele>219.4</ele>
<time>2024-05-11T11:22:32Z</time>
</trkpt>
<trkpt lat="49.69515223056078" lon="9.545618025586007">
<ele>219.2</ele>
<time>2024-05-11T11:22:33Z</time>
</trkpt>
<trkpt lat="49.69520562328398" lon="9.545704778283834">
<ele>219</ele>
<time>2024-05-11T11:22:34Z</time>
</trkpt>
<trkpt lat="49.695259016007185" lon="9.545788764953612">
<ele>218.8</ele>
<time>2024-05-11T11:22:35Z</time>
</trkpt>
<trkpt lat="49.69530486501753" lon="9.54587358981371">
<ele>218.6</ele>
<time>2024-05-11T11:22:36Z</time>
</trkpt>
<trkpt lat="49.69534677453339" lon="9.545956570655107">
<ele>218.4</ele>
<time>2024-05-11T11:22:37Z</time>
</trkpt>
<trkpt lat="49.69539639540017" lon="9.546041479334235">
<ele>218.2</ele>
<time>2024-05-11T11:22:38Z</time>
</trkpt>
<trkpt lat="49.69544593244791" lon="9.546125382184982">
<ele>218</ele>
<time>2024-05-11T11:22:39Z</time>
</trkpt>
<trkpt lat="49.695499408990145" lon="9.546210207045078">
<ele>218</ele>
<time>2024-05-11T11:22:40Z</time>
</trkpt>
<trkpt lat="49.69555280171335" lon="9.546290338039398">
<ele>217.8</ele>
<time>2024-05-11T11:22:41Z</time>
</trkpt>
<trkpt lat="49.69560619443655" lon="9.54636376351118">
<ele>217.6</ele>
<time>2024-05-11T11:22:42Z</time>
</trkpt>
<trkpt lat="49.6956710703671" lon="9.546421933919191">
<ele>217.2</ele>
<time>2024-05-11T11:22:43Z</time>
</trkpt>
<trkpt lat="49.69573971815407" lon="9.54646484926343">
<ele>217</ele>
<time>2024-05-11T11:22:44Z</time>
</trkpt>
<trkpt lat="49.69580836594105" lon="9.546493515372276">
<ele>216.8</ele>
<time>2024-05-11T11:22:45Z</time>
</trkpt>
<trkpt lat="49.69588464125991" lon="9.546498293057084">
<ele>216.4</ele>
<time>2024-05-11T11:22:46Z</time>
</trkpt>
<trkpt lat="49.69596477225423" lon="9.54648488201201">
<ele>216.2</ele>
<time>2024-05-11T11:22:47Z</time>
</trkpt>
<trkpt lat="49.69604490324855" lon="9.546449594199656">
<ele>216</ele>
<time>2024-05-11T11:22:48Z</time>
</trkpt>
<trkpt lat="49.69611355103552" lon="9.546402906998992">
<ele>215.8</ele>
<time>2024-05-11T11:22:49Z</time>
</trkpt>
<trkpt lat="49.6961821988225" lon="9.546361919492483">
<ele>215.4</ele>
<time>2024-05-11T11:22:50Z</time>
</trkpt>
<trkpt lat="49.696247074753046" lon="9.546317998319864">
<ele>215.2</ele>
<time>2024-05-11T11:22:51Z</time>
</trkpt>
<trkpt lat="49.696311950683594" lon="9.546273155137897">
<ele>214.8</ele>
<time>2024-05-11T11:22:52Z</time>
</trkpt>
<trkpt lat="49.69638059847057" lon="9.546226467937233">
<ele>214.4</ele>
<time>2024-05-11T11:22:53Z</time>
</trkpt>
<trkpt lat="49.696445390582085" lon="9.546184474602342">
<ele>214.2</ele>
<time>2024-05-11T11:22:54Z</time>
</trkpt>
<trkpt lat="49.69651789404452" lon="9.546145414933562">
<ele>214</ele>
<time>2024-05-11T11:22:55Z</time>
</trkpt>
<trkpt lat="49.69658654183149" lon="9.546105349436402">
<ele>213.6</ele>
<time>2024-05-11T11:22:56Z</time>
</trkpt>
<trkpt lat="49.69665141776204" lon="9.546066205948591">
<ele>213.4</ele>
<time>2024-05-11T11:22:57Z</time>
</trkpt>
<trkpt lat="49.696720065549016" lon="9.54602806828916">
<ele>213.2</ele>
<time>2024-05-11T11:22:58Z</time>
</trkpt>
<trkpt lat="49.69678494147957" lon="9.54598993062973">
<ele>213.2</ele>
<time>2024-05-11T11:22:59Z</time>
</trkpt>
<trkpt lat="49.69684981741011" lon="9.545954642817378">
<ele>213</ele>
<time>2024-05-11T11:23:00Z</time>
</trkpt>
<trkpt lat="49.696918465197086" lon="9.545920360833406">
<ele>212.8</ele>
<time>2024-05-11T11:23:01Z</time>
</trkpt>
<trkpt lat="49.69698711298406" lon="9.545880295336246">
<ele>212.6</ele>
<time>2024-05-11T11:23:02Z</time>
</trkpt>
<trkpt lat="49.69705198891461" lon="9.545841151848435">
<ele>212.4</ele>
<time>2024-05-11T11:23:03Z</time>
</trkpt>
<trkpt lat="49.697120636701584" lon="9.545804942026734">
<ele>212.2</ele>
<time>2024-05-11T11:23:04Z</time>
</trkpt>
<trkpt lat="49.69718551263213" lon="9.545769654214382">
<ele>212</ele>
<time>2024-05-11T11:23:05Z</time>
</trkpt>
<trkpt lat="49.69725416041911" lon="9.545728666707872">
<ele>212</ele>
<time>2024-05-11T11:23:06Z</time>
</trkpt>
<trkpt lat="49.69732280820608" lon="9.545686673372984">
<ele>211.8</ele>
<time>2024-05-11T11:23:07Z</time>
</trkpt>
<trkpt lat="49.69738768413663" lon="9.545639986172318">
<ele>211.6</ele>
<time>2024-05-11T11:23:08Z</time>
</trkpt>
<trkpt lat="49.6974563319236" lon="9.54559321515262">
<ele>211.4</ele>
<time>2024-05-11T11:23:09Z</time>
</trkpt>
<trkpt lat="49.69752883538604" lon="9.545546527951956">
<ele>211.2</ele>
<time>2024-05-11T11:23:10Z</time>
</trkpt>
<trkpt lat="49.69760125502944" lon="9.545504534617066">
<ele>211</ele>
<time>2024-05-11T11:23:11Z</time>
</trkpt>
<trkpt lat="49.697669902816415" lon="9.54545491375029">
<ele>211</ele>
<time>2024-05-11T11:23:12Z</time>
</trkpt>
<trkpt lat="49.69774240627885" lon="9.545401521027088">
<ele>210.8</ele>
<time>2024-05-11T11:23:13Z</time>
</trkpt>
<trkpt lat="49.69780728220939" lon="9.545346200466156">
<ele>210.8</ele>
<time>2024-05-11T11:23:14Z</time>
</trkpt>
<trkpt lat="49.69787592999637" lon="9.545285180211067">
<ele>210.6</ele>
<time>2024-05-11T11:23:15Z</time>
</trkpt>
<trkpt lat="49.697944577783346" lon="9.54522030428052">
<ele>210.4</ele>
<time>2024-05-11T11:23:16Z</time>
</trkpt>
<trkpt lat="49.698005598038435" lon="9.545147884637116">
<ele>210</ele>
<time>2024-05-11T11:23:17Z</time>
</trkpt>
<trkpt lat="49.69806670211256" lon="9.545069681480529">
<ele>209.8</ele>
<time>2024-05-11T11:23:18Z</time>
</trkpt>
<trkpt lat="49.69812009483576" lon="9.54498284496367">
<ele>209.8</ele>
<time>2024-05-11T11:23:19Z</time>
</trkpt>
<trkpt lat="49.6981696318835" lon="9.544893242418766">
<ele>209.6</ele>
<time>2024-05-11T11:23:20Z</time>
</trkpt>
<trkpt lat="49.69821548089385" lon="9.544806405901909">
<ele>209.4</ele>
<time>2024-05-11T11:23:21Z</time>
</trkpt>
<trkpt lat="49.69825739040971" lon="9.544712947681546">
<ele>209.2</ele>
<time>2024-05-11T11:23:22Z</time>
</trkpt>
<trkpt lat="49.69829552806914" lon="9.544616639614103">
<ele>209</ele>
<time>2024-05-11T11:23:23Z</time>
</trkpt>
<trkpt lat="49.69833752140403" lon="9.544520331546664">
<ele>208.8</ele>
<time>2024-05-11T11:23:24Z</time>
</trkpt>
<trkpt lat="49.69837188720703" lon="9.544422095641494">
<ele>208.6</ele>
<time>2024-05-11T11:23:26Z</time>
</trkpt>
<trkpt lat="49.69843667931855" lon="9.544226629659534">
<ele>208.4</ele>
<time>2024-05-11T11:23:27Z</time>
</trkpt>
<trkpt lat="49.69846718944609" lon="9.54413317143917">
<ele>208.2</ele>
<time>2024-05-11T11:23:28Z</time>
</trkpt>
<trkpt lat="49.69850532710552" lon="9.544039713218808">
<ele>208</ele>
<time>2024-05-11T11:23:29Z</time>
</trkpt>
<trkpt lat="49.69855117611587" lon="9.543946254998446">
<ele>207.8</ele>
<time>2024-05-11T11:23:30Z</time>
</trkpt>
<trkpt lat="49.69859308563173" lon="9.54385656863451">
<ele>207.6</ele>
<time>2024-05-11T11:23:31Z</time>
</trkpt>
<trkpt lat="49.698638850823045" lon="9.543767888098955">
<ele>207.4</ele>
<time>2024-05-11T11:23:32Z</time>
</trkpt>
<trkpt lat="49.698680844157934" lon="9.543684907257555">
<ele>207.2</ele>
<time>2024-05-11T11:23:33Z</time>
</trkpt>
<trkpt lat="49.69872660934925" lon="9.543606704100966">
<ele>207</ele>
<time>2024-05-11T11:23:34Z</time>
</trkpt>
<trkpt lat="49.69877237454057" lon="9.543535206466911">
<ele>206.6</ele>
<time>2024-05-11T11:23:35Z</time>
</trkpt>
<trkpt lat="49.69881813973189" lon="9.543468402698636">
<ele>206.4</ele>
<time>2024-05-11T11:23:36Z</time>
</trkpt>
<trkpt lat="49.69886776059866" lon="9.543408388271928">
<ele>206.2</ele>
<time>2024-05-11T11:23:37Z</time>
</trkpt>
<trkpt lat="49.698917381465435" lon="9.543354911729692">
<ele>206</ele>
<time>2024-05-11T11:23:38Z</time>
</trkpt>
<trkpt lat="49.69896314665675" lon="9.54330537468195">
<ele>205.8</ele>
<time>2024-05-11T11:23:39Z</time>
</trkpt>
<trkpt lat="49.699016539379954" lon="9.543259609490631">
<ele>205.6</ele>
<time>2024-05-11T11:23:40Z</time>
</trkpt>
<trkpt lat="49.69906993210316" lon="9.5432233158499">
<ele>205.4</ele>
<time>2024-05-11T11:23:41Z</time>
</trkpt>
<trkpt lat="49.69912718050182" lon="9.543196661397817">
<ele>205.2</ele>
<time>2024-05-11T11:23:42Z</time>
</trkpt>
<trkpt lat="49.69918820075691" lon="9.543191883713009">
<ele>205</ele>
<time>2024-05-11T11:23:43Z</time>
</trkpt>
<trkpt lat="49.699249221012" lon="9.54320713877678">
<ele>204.8</ele>
<time>2024-05-11T11:23:44Z</time>
</trkpt>
<trkpt lat="49.699314096942544" lon="9.54324619844556">
<ele>204.6</ele>
<time>2024-05-11T11:23:45Z</time>
</trkpt>
<trkpt lat="49.69936748966575" lon="9.543308224529028">
<ele>204.4</ele>
<time>2024-05-11T11:23:46Z</time>
</trkpt>
<trkpt lat="49.69940948300064" lon="9.543388355523348">
<ele>204.2</ele>
<time>2024-05-11T11:23:47Z</time>
</trkpt>
<trkpt lat="49.69943999312818" lon="9.543477958068252">
<ele>204</ele>
<time>2024-05-11T11:23:48Z</time>
</trkpt>
<trkpt lat="49.69945902004838" lon="9.543573344126344">
<ele>203.8</ele>
<time>2024-05-11T11:23:49Z</time>
</trkpt>
<trkpt lat="49.69947427511215" lon="9.543673507869244">
<ele>203.4</ele>
<time>2024-05-11T11:23:50Z</time>
</trkpt>
<trkpt lat="49.6994857583195" lon="9.543769815936685">
<ele>203.2</ele>
<time>2024-05-11T11:23:51Z</time>
</trkpt>
<trkpt lat="49.69949338585138" lon="9.543867046013474">
<ele>203</ele>
<time>2024-05-11T11:23:52Z</time>
</trkpt>
<trkpt lat="49.69950101338327" lon="9.543961510062218">
<ele>202.8</ele>
<time>2024-05-11T11:23:53Z</time>
</trkpt>
<trkpt lat="49.699508640915155" lon="9.544059745967388">
<ele>202.6</ele>
<time>2024-05-11T11:23:54Z</time>
</trkpt>
<trkpt lat="49.69952004030347" lon="9.54415127635002">
<ele>202.4</ele>
<time>2024-05-11T11:23:55Z</time>
</trkpt>
<trkpt lat="49.69953529536724" lon="9.544244734570384">
<ele>202.2</ele>
<time>2024-05-11T11:23:56Z</time>
</trkpt>
<trkpt lat="49.6995581779629" lon="9.54433341510594">
<ele>202</ele>
<time>2024-05-11T11:23:57Z</time>
</trkpt>
<trkpt lat="49.699588771909475" lon="9.54441354610026">
<ele>202</ele>
<time>2024-05-11T11:23:58Z</time>
</trkpt>
<trkpt lat="49.69963068142533" lon="9.544480266049504">
<ele>201.8</ele>
<time>2024-05-11T11:23:59Z</time>
</trkpt>
<trkpt lat="49.69968030229211" lon="9.544538436457517">
<ele>201.6</ele>
<time>2024-05-11T11:24:00Z</time>
</trkpt>
<trkpt lat="49.69973746687174" lon="9.544576574116943">
<ele>201.6</ele>
<time>2024-05-11T11:24:01Z</time>
</trkpt>
<trkpt lat="49.69979857094586" lon="9.544603312388062">
<ele>201.4</ele>
<time>2024-05-11T11:24:02Z</time>
</trkpt>
<trkpt lat="49.699863363057375" lon="9.544616639614103">
<ele>201.2</ele>
<time>2024-05-11T11:24:03Z</time>
</trkpt>
<trkpt lat="49.69993209466338" lon="9.544621417298911">
<ele>201</ele>
<time>2024-05-11T11:24:04Z</time>
</trkpt>
<trkpt lat="49.70000074245036" lon="9.544618567451836">
<ele>201</ele>
<time>2024-05-11T11:24:05Z</time>
</trkpt>
<trkpt lat="49.70007701776922" lon="9.54460708424449">
<ele>200.8</ele>
<time>2024-05-11T11:24:06Z</time>
</trkpt>
<trkpt lat="49.70015329308808" lon="9.544591829180716">
<ele>200.8</ele>
<time>2024-05-11T11:24:07Z</time>
</trkpt>
<trkpt lat="49.70022956840694" lon="9.544576574116943">
<ele>200.4</ele>
<time>2024-05-11T11:24:08Z</time>
</trkpt>
<trkpt lat="49.70030592754483" lon="9.544565174728632">
<ele>200.2</ele>
<time>2024-05-11T11:24:09Z</time>
</trkpt>
<trkpt lat="49.70038220286369" lon="9.544558469206097">
<ele>200</ele>
<time>2024-05-11T11:24:10Z</time>
</trkpt>
<trkpt lat="49.700458478182554" lon="9.544554697349668">
<ele>199.8</ele>
<time>2024-05-11T11:24:11Z</time>
</trkpt>
<trkpt lat="49.700534753501415" lon="9.544554697349668">
<ele>199.4</ele>
<time>2024-05-11T11:24:12Z</time>
</trkpt>
<trkpt lat="49.70061111263931" lon="9.544558469206097">
<ele>199.2</ele>
<time>2024-05-11T11:24:13Z</time>
</trkpt>
<trkpt lat="49.70068353228271" lon="9.544565174728632">
<ele>199</ele>
<time>2024-05-11T11:24:14Z</time>
</trkpt>
<trkpt lat="49.70075980760157" lon="9.544574730098248">
<ele>198.6</ele>
<time>2024-05-11T11:24:15Z</time>
</trkpt>
<trkpt lat="49.700836166739464" lon="9.544585207477212">
<ele>198.4</ele>
<time>2024-05-11T11:24:16Z</time>
</trkpt>
<trkpt lat="49.70090481452644" lon="9.544594762846828">
<ele>198.2</ele>
<time>2024-05-11T11:24:17Z</time>
</trkpt>
<trkpt lat="49.70097731798887" lon="9.544611861929296">
<ele>197.8</ele>
<time>2024-05-11T11:24:18Z</time>
</trkpt>
<trkpt lat="49.701049737632275" lon="9.54463005065918">
<ele>197.6</ele>
<time>2024-05-11T11:24:19Z</time>
</trkpt>
<trkpt lat="49.70111846923828" lon="9.544652933254838">
<ele>197.4</ele>
<time>2024-05-11T11:24:20Z</time>
</trkpt>
<trkpt lat="49.701187117025256" lon="9.544676737859843">
<ele>197.2</ele>
<time>2024-05-11T11:24:21Z</time>
</trkpt>
<trkpt lat="49.70125953666866" lon="9.544698698446156">
<ele>196.8</ele>
<time>2024-05-11T11:24:22Z</time>
</trkpt>
<trkpt lat="49.701328268274665" lon="9.544723508879542">
<ele>196.6</ele>
<time>2024-05-11T11:24:24Z</time>
</trkpt>
<trkpt lat="49.7014731913805" lon="9.54476349055767">
<ele>196.2</ele>
<time>2024-05-11T11:24:25Z</time>
</trkpt>
<trkpt lat="49.70154183916747" lon="9.544774973765016">
<ele>196.2</ele>
<time>2024-05-11T11:24:26Z</time>
</trkpt>
<trkpt lat="49.70161048695445" lon="9.54478352330625">
<ele>196</ele>
<time>2024-05-11T11:24:27Z</time>
</trkpt>
<trkpt lat="49.701675362885" lon="9.544781679287553">
<ele>196</ele>
<time>2024-05-11T11:24:28Z</time>
</trkpt>
<trkpt lat="49.70174401067197" lon="9.54476642422378">
<ele>195.8</ele>
<time>2024-05-11T11:24:29Z</time>
</trkpt>
<trkpt lat="49.70181274227798" lon="9.54474538564682">
<ele>195.6</ele>
<time>2024-05-11T11:24:30Z</time>
</trkpt>
<trkpt lat="49.701877534389496" lon="9.544712947681546">
<ele>195.4</ele>
<time>2024-05-11T11:24:31Z</time>
</trkpt>
<trkpt lat="49.701938554644585" lon="9.544674810022116">
<ele>195.2</ele>
<time>2024-05-11T11:24:32Z</time>
</trkpt>
<trkpt lat="49.70200343057513" lon="9.54463005065918">
<ele>195</ele>
<time>2024-05-11T11:24:33Z</time>
</trkpt>
<trkpt lat="49.702060678973794" lon="9.544576574116943">
<ele>194.6</ele>
<time>2024-05-11T11:24:34Z</time>
</trkpt>
<trkpt lat="49.702117843553424" lon="9.544513626024129">
<ele>194.6</ele>
<time>2024-05-11T11:24:35Z</time>
</trkpt>
<trkpt lat="49.7021674644202" lon="9.544446906074882">
<ele>194.4</ele>
<time>2024-05-11T11:24:36Z</time>
</trkpt>
<trkpt lat="49.702217085286975" lon="9.54436962492764">
<ele>194.2</ele>
<time>2024-05-11T11:24:37Z</time>
</trkpt>
<trkpt lat="49.70226285047829" lon="9.544281950220466">
<ele>194</ele>
<time>2024-05-11T11:24:38Z</time>
</trkpt>
<trkpt lat="49.70230475999415" lon="9.54419318586588">
<ele>193.8</ele>
<time>2024-05-11T11:24:39Z</time>
</trkpt>
<trkpt lat="49.70233912579715" lon="9.544099727645516">
<ele>193.6</ele>
<time>2024-05-11T11:24:40Z</time>
</trkpt>
<trkpt lat="49.7023696359247" lon="9.544003419578075">
<ele>193.4</ele>
<time>2024-05-11T11:24:41Z</time>
</trkpt>
<trkpt lat="49.702396374195814" lon="9.543899483978748">
<ele>193.4</ele>
<time>2024-05-11T11:24:42Z</time>
</trkpt>
<trkpt lat="49.702411629259586" lon="9.543794626370072">
<ele>193.2</ele>
<time>2024-05-11T11:24:43Z</time>
</trkpt>
<trkpt lat="49.7024230286479" lon="9.543684907257555">
<ele>193.2</ele>
<time>2024-05-11T11:24:44Z</time>
</trkpt>
<trkpt lat="49.702434511855245" lon="9.543576193973422">
<ele>193.2</ele>
<time>2024-05-11T11:24:45Z</time>
</trkpt>
<trkpt lat="49.70244591124356" lon="9.543470330536366">
<ele>193</ele>
<time>2024-05-11T11:24:46Z</time>
</trkpt>
<trkpt lat="49.70246116630733" lon="9.54336547292769">
<ele>193</ele>
<time>2024-05-11T11:24:47Z</time>
</trkpt>
<trkpt lat="49.702472649514675" lon="9.543258603662252">
<ele>192.8</ele>
<time>2024-05-11T11:24:48Z</time>
</trkpt>
<trkpt lat="49.702491760253906" lon="9.543154668062924">
<ele>192.8</ele>
<time>2024-05-11T11:24:49Z</time>
</trkpt>
<trkpt lat="49.702514642849565" lon="9.543056432157757">
<ele>192.6</ele>
<time>2024-05-11T11:24:50Z</time>
</trkpt>
<trkpt lat="49.70254129730165" lon="9.542962051928043">
<ele>192.6</ele>
<time>2024-05-11T11:24:51Z</time>
</trkpt>
<trkpt lat="49.702571807429194" lon="9.54286951571703">
<ele>192.6</ele>
<time>2024-05-11T11:24:52Z</time>
</trkpt>
<trkpt lat="49.702609945088625" lon="9.542781757190824">
<ele>192.4</ele>
<time>2024-05-11T11:24:53Z</time>
</trkpt>
<trkpt lat="49.702651938423514" lon="9.542699782177806">
<ele>192.2</ele>
<time>2024-05-11T11:24:54Z</time>
</trkpt>
<trkpt lat="49.70270155929029" lon="9.542628284543753">
<ele>192</ele>
<time>2024-05-11T11:24:55Z</time>
</trkpt>
<trkpt lat="49.70275495201349" lon="9.542563408613203">
<ele>191.6</ele>
<time>2024-05-11T11:24:56Z</time>
</trkpt>
<trkpt lat="49.70280448906123" lon="9.542501382529736">
<ele>191.4</ele>
<time>2024-05-11T11:24:57Z</time>
</trkpt>
<trkpt lat="49.7028617374599" lon="9.542447067797184">
<ele>191.2</ele>
<time>2024-05-11T11:24:58Z</time>
</trkpt>
<trkpt lat="49.70291898585856" lon="9.542400296777489">
<ele>191.2</ele>
<time>2024-05-11T11:24:59Z</time>
</trkpt>
<trkpt lat="49.70298000611365" lon="9.542360231280329">
<ele>190.8</ele>
<time>2024-05-11T11:25:00Z</time>
</trkpt>
<trkpt lat="49.70304102636874" lon="9.542323099449275">
<ele>190.6</ele>
<time>2024-05-11T11:25:01Z</time>
</trkpt>
<trkpt lat="49.70310967415571" lon="9.54229828901589">
<ele>190.4</ele>
<time>2024-05-11T11:25:02Z</time>
</trkpt>
<trkpt lat="49.703182177618146" lon="9.542283033952115">
<ele>190.2</ele>
<time>2024-05-11T11:25:03Z</time>
</trkpt>
<trkpt lat="49.70325468108058" lon="9.54227540642023">
<ele>190.2</ele>
<time>2024-05-11T11:25:04Z</time>
</trkpt>
<trkpt lat="49.70332710072398" lon="9.54227540642023">
<ele>190.2</ele>
<time>2024-05-11T11:25:05Z</time>
</trkpt>
<trkpt lat="49.703399604186416" lon="9.542288733646274">
<ele>190</ele>
<time>2024-05-11T11:25:06Z</time>
</trkpt>
<trkpt lat="49.70346825197339" lon="9.542309688404202">
<ele>189.8</ele>
<time>2024-05-11T11:25:07Z</time>
</trkpt>
<trkpt lat="49.7035369835794" lon="9.542340198531749">
<ele>189.6</ele>
<time>2024-05-11T11:25:08Z</time>
</trkpt>
<trkpt lat="49.7036094032228" lon="9.542380264028909">
<ele>189.4</ele>
<time>2024-05-11T11:25:09Z</time>
</trkpt>
<trkpt lat="49.703678051009774" lon="9.542427035048604">
<ele>189.2</ele>
<time>2024-05-11T11:25:10Z</time>
</trkpt>
<trkpt lat="49.70374678261578" lon="9.542483277618883">
<ele>189</ele>
<time>2024-05-11T11:25:11Z</time>
</trkpt>
<trkpt lat="49.70380780287087" lon="9.542541448026896">
<ele>188.6</ele>
<time>2024-05-11T11:25:12Z</time>
</trkpt>
<trkpt lat="49.70386505126953" lon="9.542616801336408">
<ele>188.4</ele>
<time>2024-05-11T11:25:13Z</time>
</trkpt>
<trkpt lat="49.70392221584916" lon="9.542696932330728">
<ele>188.2</ele>
<time>2024-05-11T11:25:14Z</time>
</trkpt>
<trkpt lat="49.70397560857237" lon="9.542779913172126">
<ele>188</ele>
<time>2024-05-11T11:25:15Z</time>
</trkpt>
<trkpt lat="49.70402522943914" lon="9.54286859370768">
<ele>187.6</ele>
<time>2024-05-11T11:25:16Z</time>
</trkpt>
<trkpt lat="49.704074850305915" lon="9.542962051928043">
<ele>187.4</ele>
<time>2024-05-11T11:25:17Z</time>
</trkpt>
<trkpt lat="49.70412061549723" lon="9.543056432157757">
<ele>187.2</ele>
<time>2024-05-11T11:25:18Z</time>
</trkpt>
<trkpt lat="49.70416638068855" lon="9.543149890378118">
<ele>187</ele>
<time>2024-05-11T11:25:19Z</time>
</trkpt>
<trkpt lat="49.704212145879865" lon="9.543248126283288">
<ele>186.8</ele>
<time>2024-05-11T11:25:20Z</time>
</trkpt>
<trkpt lat="49.704254139214754" lon="9.543346362188458">
<ele>186.6</ele>
<time>2024-05-11T11:25:21Z</time>
</trkpt>
<trkpt lat="49.70429990440607" lon="9.54343982040882">
<ele>186.4</ele>
<time>2024-05-11T11:25:22Z</time>
</trkpt>
<trkpt lat="49.70434566959739" lon="9.543529506772757">
<ele>186.2</ele>
<time>2024-05-11T11:25:23Z</time>
</trkpt>
<trkpt lat="49.704391434788704" lon="9.54362195916474">
<ele>186</ele>
<time>2024-05-11T11:25:24Z</time>
</trkpt>
<trkpt lat="49.70443719998002" lon="9.54371826723218">
<ele>185.8</ele>
<time>2024-05-11T11:25:25Z</time>
</trkpt>
<trkpt lat="49.70448296517134" lon="9.543813653290272">
<ele>185.6</ele>
<time>2024-05-11T11:25:26Z</time>
</trkpt>
<trkpt lat="49.704528730362654" lon="9.543907111510634">
<ele>185.6</ele>
<time>2024-05-11T11:25:27Z</time>
</trkpt>
<trkpt lat="49.70457072369754" lon="9.544003419578075">
<ele>185.4</ele>
<time>2024-05-11T11:25:28Z</time>
</trkpt>
<trkpt lat="49.70461648888886" lon="9.54409503377974">
<ele>185.4</ele>
<time>2024-05-11T11:25:29Z</time>
</trkpt>
<trkpt lat="49.704662254080176" lon="9.5441903360188">
<ele>185.2</ele>
<time>2024-05-11T11:25:30Z</time>
</trkpt>
<trkpt lat="49.70470801927149" lon="9.544284800067544">
<ele>185</ele>
<time>2024-05-11T11:25:31Z</time>
</trkpt>
<trkpt lat="49.70475001260638" lon="9.544382030144334">
<ele>184.8</ele>
<time>2024-05-11T11:25:32Z</time>
</trkpt>
<trkpt lat="49.70479200594127" lon="9.544474566355348">
<ele>184.6</ele>
<time>2024-05-11T11:25:33Z</time>
</trkpt>
<trkpt lat="49.70483777113259" lon="9.54456995241344">
<ele>184.6</ele>
<time>2024-05-11T11:25:34Z</time>
</trkpt>
<trkpt lat="49.704879680648446" lon="9.544663410633802">
<ele>184.4</ele>
<time>2024-05-11T11:25:35Z</time>
</trkpt>
<trkpt lat="49.704925529658794" lon="9.544753013178706">
<ele>184.2</ele>
<time>2024-05-11T11:25:36Z</time>
</trkpt>
<trkpt lat="49.70496743917465" lon="9.54484362155199">
<ele>184</ele>
<time>2024-05-11T11:25:37Z</time>
</trkpt>
<trkpt lat="49.70500943250954" lon="9.544933307915926">
<ele>183.8</ele>
<time>2024-05-11T11:25:38Z</time>
</trkpt>
<trkpt lat="49.70505519770086" lon="9.54502291046083">
<ele>183.8</ele>
<time>2024-05-11T11:25:39Z</time>
</trkpt>
<trkpt lat="49.70509719103575" lon="9.545113518834114">
<ele>183.6</ele>
<time>2024-05-11T11:25:40Z</time>
</trkpt>
<trkpt lat="49.705139100551605" lon="9.545205049216747">
<ele>183.4</ele>
<time>2024-05-11T11:25:41Z</time>
</trkpt>
<trkpt lat="49.705181093886495" lon="9.545294735580685">
<ele>183.4</ele>
<time>2024-05-11T11:25:42Z</time>
</trkpt>
<trkpt lat="49.705219231545925" lon="9.545383416116238">
<ele>183.2</ele>
<time>2024-05-11T11:25:43Z</time>
</trkpt>
<trkpt lat="49.70526499673724" lon="9.545468324795364">
<ele>183</ele>
<time>2024-05-11T11:25:44Z</time>
</trkpt>
<trkpt lat="49.70530699007213" lon="9.545550299808385">
<ele>183</ele>
<time>2024-05-11T11:25:45Z</time>
</trkpt>
<trkpt lat="49.70535275526345" lon="9.545628502964972">
<ele>182.8</ele>
<time>2024-05-11T11:25:46Z</time>
</trkpt>
<trkpt lat="49.70539852045477" lon="9.545709555968642">
<ele>182.6</ele>
<time>2024-05-11T11:25:47Z</time>
</trkpt>
<trkpt lat="49.70544814132154" lon="9.54579345881939">
<ele>182.4</ele>
<time>2024-05-11T11:25:48Z</time>
</trkpt>
<trkpt lat="49.70549390651286" lon="9.54587358981371">
<ele>182.2</ele>
<time>2024-05-11T11:25:49Z</time>
</trkpt>
<trkpt lat="49.70553967170417" lon="9.5459517929703">
<ele>182</ele>
<time>2024-05-11T11:25:50Z</time>
</trkpt>
<trkpt lat="49.70558929257095" lon="9.54603192396462">
<ele>181.8</ele>
<time>2024-05-11T11:25:51Z</time>
</trkpt>
<trkpt lat="49.70563882961869" lon="9.546112976968288">
<ele>181.4</ele>
<time>2024-05-11T11:25:52Z</time>
</trkpt>
<trkpt lat="49.70568845048547" lon="9.546192102134228">
<ele>181</ele>
<time>2024-05-11T11:25:53Z</time>
</trkpt>
<trkpt lat="49.7057265881449" lon="9.546270305290818">
<ele>180.8</ele>
<time>2024-05-11T11:25:54Z</time>
</trkpt>
<trkpt lat="49.705776209011674" lon="9.546348508447409">
<ele>180.4</ele>
<time>2024-05-11T11:25:55Z</time>
</trkpt>
<trkpt lat="49.70581811852753" lon="9.546431489288809">
<ele>180.2</ele>
<time>2024-05-11T11:25:56Z</time>
</trkpt>
<trkpt lat="49.70586011186242" lon="9.546518325805664">
<ele>180</ele>
<time>2024-05-11T11:25:57Z</time>
</trkpt>
<trkpt lat="49.70589824952185" lon="9.54660507850349">
<ele>179.6</ele>
<time>2024-05-11T11:25:58Z</time>
</trkpt>
<trkpt lat="49.70593638718128" lon="9.546693759039044">
<ele>179.4</ele>
<time>2024-05-11T11:25:59Z</time>
</trkpt>
<trkpt lat="49.70597838051617" lon="9.54677958972752">
<ele>179.2</ele>
<time>2024-05-11T11:26:00Z</time>
</trkpt>
<trkpt lat="49.7060165181756" lon="9.546865420415998">
<ele>178.8</ele>
<time>2024-05-11T11:26:01Z</time>
</trkpt>
<trkpt lat="49.70605842769146" lon="9.546951251104474">
<ele>178.6</ele>
<time>2024-05-11T11:26:02Z</time>
</trkpt>
<trkpt lat="49.70609664916992" lon="9.5470380038023">
<ele>178.6</ele>
<time>2024-05-11T11:26:03Z</time>
</trkpt>
<trkpt lat="49.70613478682935" lon="9.547122912481427">
<ele>178.4</ele>
<time>2024-05-11T11:26:04Z</time>
</trkpt>
<trkpt lat="49.70617292448878" lon="9.547211593016982">
<ele>178.2</ele>
<time>2024-05-11T11:26:05Z</time>
</trkpt>
<trkpt lat="49.70621106214821" lon="9.547301279380918">
<ele>177.8</ele>
<time>2024-05-11T11:26:06Z</time>
</trkpt>
<trkpt lat="49.70624919980765" lon="9.5473937317729">
<ele>177.6</ele>
<time>2024-05-11T11:26:07Z</time>
</trkpt>
<trkpt lat="49.706287337467074" lon="9.547486267983912">
<ele>177.4</ele>
<time>2024-05-11T11:26:08Z</time>
</trkpt>
<trkpt lat="49.70632170327008" lon="9.547578804194927">
<ele>177.2</ele>
<time>2024-05-11T11:26:09Z</time>
</trkpt>
<trkpt lat="49.70635984092951" lon="9.54767033457756">
<ele>177.2</ele>
<time>2024-05-11T11:26:10Z</time>
</trkpt>
<trkpt lat="49.70639797858894" lon="9.547761864960194">
<ele>176.8</ele>
<time>2024-05-11T11:26:11Z</time>
</trkpt>
<trkpt lat="49.70643611624837" lon="9.547858173027636">
<ele>176.6</ele>
<time>2024-05-11T11:26:12Z</time>
</trkpt>
<trkpt lat="49.70647048205137" lon="9.547954481095076">
<ele>176.4</ele>
<time>2024-05-11T11:26:13Z</time>
</trkpt>
<trkpt lat="49.7065086197108" lon="9.548053722828628">
<ele>176.2</ele>
<time>2024-05-11T11:26:14Z</time>
</trkpt>
<trkpt lat="49.706542901694775" lon="9.548150030896068">
<ele>176</ele>
<time>2024-05-11T11:26:15Z</time>
</trkpt>
<trkpt lat="49.70657726749778" lon="9.54824541695416">
<ele>175.8</ele>
<time>2024-05-11T11:26:16Z</time>
</trkpt>
<trkpt lat="49.70660777762532" lon="9.548339797183871">
<ele>175.8</ele>
<time>2024-05-11T11:26:17Z</time>
</trkpt>
<trkpt lat="49.70663828775287" lon="9.548435183241963">
<ele>175.8</ele>
<time>2024-05-11T11:26:18Z</time>
</trkpt>
<trkpt lat="49.70667265355587" lon="9.548528641462326">
<ele>175.6</ele>
<time>2024-05-11T11:26:19Z</time>
</trkpt>
<trkpt lat="49.706703163683414" lon="9.54861824400723">
<ele>175.4</ele>
<time>2024-05-11T11:26:20Z</time>
</trkpt>
<trkpt lat="49.70673367381096" lon="9.548711702227592">
<ele>175.2</ele>
<time>2024-05-11T11:26:21Z</time>
</trkpt>
<trkpt lat="49.7067641839385" lon="9.548805160447955">
<ele>175.2</ele>
<time>2024-05-11T11:26:22Z</time>
</trkpt>
<trkpt lat="49.70679469406605" lon="9.54889291897416">
<ele>175</ele>
<time>2024-05-11T11:26:23Z</time>
</trkpt>
<trkpt lat="49.70682905986905" lon="9.54897497780621">
<ele>174.6</ele>
<time>2024-05-11T11:26:24Z</time>
</trkpt>
<trkpt lat="49.70686334185302" lon="9.549050331115724">
<ele>174.4</ele>
<time>2024-05-11T11:26:25Z</time>
</trkpt>
<trkpt lat="49.70690533518791" lon="9.54911319538951">
<ele>174.2</ele>
<time>2024-05-11T11:26:26Z</time>
</trkpt>
<trkpt lat="49.70695495605469" lon="9.549159966409206">
<ele>174</ele>
<time>2024-05-11T11:26:27Z</time>
</trkpt>
<trkpt lat="49.70700834877789" lon="9.5491913985461">
<ele>173.8</ele>
<time>2024-05-11T11:26:28Z</time>
</trkpt>
<trkpt lat="49.707057885825634" lon="9.549201959744096">
<ele>173.8</ele>
<time>2024-05-11T11:26:29Z</time>
</trkpt>
<trkpt lat="49.70711127854884" lon="9.549198104068635">
<ele>173.6</ele>
<time>2024-05-11T11:26:30Z</time>
</trkpt>
<trkpt lat="49.70716475509107" lon="9.54917522147298">
<ele>173.4</ele>
<time>2024-05-11T11:26:31Z</time>
</trkpt>
<trkpt lat="49.707214292138815" lon="9.549139933660626">
<ele>173.4</ele>
<time>2024-05-11T11:26:32Z</time>
</trkpt>
<trkpt lat="49.70726391300559" lon="9.549088468775151">
<ele>173.2</ele>
<time>2024-05-11T11:26:33Z</time>
</trkpt>
<trkpt lat="49.70730967819691" lon="9.54903314821422">
<ele>173.2</ele>
<time>2024-05-11T11:26:34Z</time>
</trkpt>
<trkpt lat="49.7073516715318" lon="9.548970200121405">
<ele>173</ele>
<time>2024-05-11T11:26:35Z</time>
</trkpt>
<trkpt lat="49.70739743672311" lon="9.548898618668318">
<ele>173</ele>
<time>2024-05-11T11:26:36Z</time>
</trkpt>
<trkpt lat="49.70744320191443" lon="9.548825193196537">
<ele>173</ele>
<time>2024-05-11T11:26:37Z</time>
</trkpt>
<trkpt lat="49.70748519524932" lon="9.548751767724752">
<ele>172.8</ele>
<time>2024-05-11T11:26:38Z</time>
</trkpt>
<trkpt lat="49.70752710476518" lon="9.54867641441524">
<ele>172.6</ele>
<time>2024-05-11T11:26:39Z</time>
</trkpt>
<trkpt lat="49.70756524242461" lon="9.548602988943458">
<ele>172.6</ele>
<time>2024-05-11T11:26:40Z</time>
</trkpt>
<trkpt lat="49.70760338008404" lon="9.548526713624597">
<ele>172.6</ele>
<time>2024-05-11T11:26:41Z</time>
</trkpt>
<trkpt lat="49.7076416015625" lon="9.548450438305736">
<ele>172.4</ele>
<time>2024-05-11T11:26:42Z</time>
</trkpt>
<trkpt lat="49.70767973922193" lon="9.548377012833951">
<ele>172.4</ele>
<time>2024-05-11T11:26:43Z</time>
</trkpt>
<trkpt lat="49.70772164873779" lon="9.54830165952444">
<ele>172.6</ele>
<time>2024-05-11T11:26:44Z</time>
</trkpt>
<trkpt lat="49.70775978639722" lon="9.548226306214929">
<ele>172.6</ele>
<time>2024-05-11T11:26:45Z</time>
</trkpt>
<trkpt lat="49.70780177973211" lon="9.548151958733795">
<ele>172.6</ele>
<time>2024-05-11T11:26:46Z</time>
</trkpt>
<trkpt lat="49.707847544923425" lon="9.548078533262014">
<ele>172.6</ele>
<time>2024-05-11T11:26:47Z</time>
</trkpt>
<trkpt lat="49.70789331011474" lon="9.5480050239712">
<ele>172.4</ele>
<time>2024-05-11T11:26:48Z</time>
</trkpt>
<trkpt lat="49.70793530344963" lon="9.547938304021956">
<ele>172.4</ele>
<time>2024-05-11T11:26:49Z</time>
</trkpt>
<trkpt lat="49.70798106864095" lon="9.54786965623498">
<ele>172.2</ele>
<time>2024-05-11T11:26:50Z</time>
</trkpt>
<trkpt lat="49.708026833832264" lon="9.547804780304432">
<ele>172</ele>
<time>2024-05-11T11:26:51Z</time>
</trkpt>
<trkpt lat="49.70807259902358" lon="9.547741832211614">
<ele>172</ele>
<time>2024-05-11T11:26:52Z</time>
</trkpt>
<trkpt lat="49.7081183642149" lon="9.547684667631984">
<ele>171.8</ele>
<time>2024-05-11T11:26:53Z</time>
</trkpt>
<trkpt lat="49.70816798508167" lon="9.547628341242673">
<ele>171.6</ele>
<time>2024-05-11T11:26:54Z</time>
</trkpt>
<trkpt lat="49.70820997841656" lon="9.547568242996933">
<ele>171.6</ele>
<time>2024-05-11T11:26:55Z</time>
</trkpt>
<trkpt lat="49.708259515464306" lon="9.54751007258892">
<ele>171.4</ele>
<time>2024-05-11T11:26:56Z</time>
</trkpt>
<trkpt lat="49.70830528065562" lon="9.547450058162212">
<ele>171.4</ele>
<time>2024-05-11T11:26:57Z</time>
</trkpt>
<trkpt lat="49.70835112966597" lon="9.547389959916472">
<ele>171.2</ele>
<time>2024-05-11T11:26:58Z</time>
</trkpt>
<trkpt lat="49.70839689485729" lon="9.547329861670732">
<ele>171.2</ele>
<time>2024-05-11T11:26:59Z</time>
</trkpt>
<trkpt lat="49.70844643190503" lon="9.547269763424993">
<ele>171.2</ele>
<time>2024-05-11T11:27:00Z</time>
</trkpt>
<trkpt lat="49.70849219709635" lon="9.54721444286406">
<ele>171</ele>
<time>2024-05-11T11:27:01Z</time>
</trkpt>
<trkpt lat="49.708538046106696" lon="9.54715627245605">
<ele>171</ele>
<time>2024-05-11T11:27:02Z</time>
</trkpt>
<trkpt lat="49.70858381129801" lon="9.547100029885767">
<ele>170.8</ele>
<time>2024-05-11T11:27:03Z</time>
</trkpt>
<trkpt lat="49.70863334834576" lon="9.547048565000296">
<ele>170.6</ele>
<time>2024-05-11T11:27:04Z</time>
</trkpt>
<trkpt lat="49.708679197356105" lon="9.546999866142867">
<ele>170.4</ele>
<time>2024-05-11T11:27:05Z</time>
</trkpt>
<trkpt lat="49.70872873440385" lon="9.546946473419666">
<ele>170.2</ele>
<time>2024-05-11T11:27:06Z</time>
</trkpt>
<trkpt lat="49.708774499595165" lon="9.546890230849383">
<ele>170.2</ele>
<time>2024-05-11T11:27:07Z</time>
</trkpt>
<trkpt lat="49.70882412046194" lon="9.546834910288451">
<ele>170</ele>
<time>2024-05-11T11:27:08Z</time>
</trkpt>
<trkpt lat="49.70887374132872" lon="9.546778667718172">
<ele>170</ele>
<time>2024-05-11T11:27:09Z</time>
</trkpt>
<trkpt lat="49.70892327837646" lon="9.546718569472432">
<ele>169.8</ele>
<time>2024-05-11T11:27:10Z</time>
</trkpt>
<trkpt lat="49.70896904356778" lon="9.54666132107377">
<ele>169.6</ele>
<time>2024-05-11T11:27:11Z</time>
</trkpt>
<trkpt lat="49.70902252011001" lon="9.546613628044724">
<ele>169.6</ele>
<time>2024-05-11T11:27:12Z</time>
</trkpt>
<trkpt lat="49.709075912833214" lon="9.546560235321522">
<ele>169.4</ele>
<time>2024-05-11T11:27:13Z</time>
</trkpt>
<trkpt lat="49.70912930555642" lon="9.546509692445396">
<ele>169.2</ele>
<time>2024-05-11T11:27:14Z</time>
</trkpt>
<trkpt lat="49.70918269827962" lon="9.54646484926343">
<ele>169</ele>
<time>2024-05-11T11:27:15Z</time>
</trkpt>
<trkpt lat="49.70923609100282" lon="9.546421933919191">
<ele>168.8</ele>
<time>2024-05-11T11:27:16Z</time>
</trkpt>
<trkpt lat="49.7092857118696" lon="9.546373318880796">
<ele>168.6</ele>
<time>2024-05-11T11:27:17Z</time>
</trkpt>
<trkpt lat="49.7093391045928" lon="9.546324703842402">
<ele>168.4</ele>
<time>2024-05-11T11:27:18Z</time>
</trkpt>
<trkpt lat="49.709392497316" lon="9.546277932822704">
<ele>168.2</ele>
<time>2024-05-11T11:27:19Z</time>
</trkpt>
<trkpt lat="49.709445890039206" lon="9.54622839577496">
<ele>168.2</ele>
<time>2024-05-11T11:27:20Z</time>
</trkpt>
<trkpt lat="49.70950313843787" lon="9.546181624755263">
<ele>168</ele>
<time>2024-05-11T11:27:21Z</time>
</trkpt>
<trkpt lat="49.70955653116107" lon="9.546138709411023">
<ele>167.8</ele>
<time>2024-05-11T11:27:22Z</time>
</trkpt>
<trkpt lat="49.70961377955973" lon="9.546096799895167">
<ele>167.6</ele>
<time>2024-05-11T11:27:23Z</time>
</trkpt>
<trkpt lat="49.70967094413936" lon="9.546052878722548">
<ele>167.2</ele>
<time>2024-05-11T11:27:24Z</time>
</trkpt>
<trkpt lat="49.7097244206816" lon="9.546007113531232">
<ele>167.2</ele>
<time>2024-05-11T11:27:25Z</time>
</trkpt>
<trkpt lat="49.7097778134048" lon="9.545958498492835">
<ele>167</ele>
<time>2024-05-11T11:27:26Z</time>
</trkpt>
<trkpt lat="49.70983497798443" lon="9.54590979963541">
<ele>166.8</ele>
<time>2024-05-11T11:27:27Z</time>
</trkpt>
<trkpt lat="49.70989608205855" lon="9.545860262587668">
<ele>166.4</ele>
<time>2024-05-11T11:27:28Z</time>
</trkpt>
<trkpt lat="49.70995710231364" lon="9.545808713883162">
<ele>166.2</ele>
<time>2024-05-11T11:27:29Z</time>
</trkpt>
<trkpt lat="49.71001812256873" lon="9.545762948691843">
<ele>165.8</ele>
<time>2024-05-11T11:27:30Z</time>
</trkpt>
<trkpt lat="49.710079142823815" lon="9.545709555968642">
<ele>165.6</ele>
<time>2024-05-11T11:27:31Z</time>
</trkpt>
<trkpt lat="49.710140163078904" lon="9.54565616324544">
<ele>165.2</ele>
<time>2024-05-11T11:27:32Z</time>
</trkpt>
<trkpt lat="49.71020503900945" lon="9.545604698359966">
<ele>165</ele>
<time>2024-05-11T11:27:33Z</time>
</trkpt>
<trkpt lat="49.71026605926454" lon="9.54555314965546">
<ele>164.8</ele>
<time>2024-05-11T11:27:34Z</time>
</trkpt>
<trkpt lat="49.71033093519509" lon="9.545503612607718">
<ele>164.4</ele>
<time>2024-05-11T11:27:35Z</time>
</trkpt>
<trkpt lat="49.71039195545018" lon="9.545452063903213">
<ele>164.2</ele>
<time>2024-05-11T11:27:36Z</time>
</trkpt>
<trkpt lat="49.710456831380725" lon="9.545401521027088">
<ele>164</ele>
<time>2024-05-11T11:27:37Z</time>
</trkpt>
<trkpt lat="49.710517851635814" lon="9.545351900160313">
<ele>163.8</ele>
<time>2024-05-11T11:27:38Z</time>
</trkpt>
<trkpt lat="49.7105788718909" lon="9.545301357284188">
<ele>163.4</ele>
<time>2024-05-11T11:27:39Z</time>
</trkpt>
<trkpt lat="49.71064374782145" lon="9.545254670083525">
<ele>163.2</ele>
<time>2024-05-11T11:27:40Z</time>
</trkpt>
<trkpt lat="49.710708539932966" lon="9.545206977054477">
<ele>163</ele>
<time>2024-05-11T11:27:41Z</time>
</trkpt>
<trkpt lat="49.710773415863514" lon="9.545160289853811">
<ele>162.8</ele>
<time>2024-05-11T11:27:42Z</time>
</trkpt>
<trkpt lat="49.710830664262176" lon="9.545118296518922">
<ele>162.6</ele>
<time>2024-05-11T11:27:43Z</time>
</trkpt>
<trkpt lat="49.710887828841805" lon="9.545076303184032">
<ele>162.4</ele>
<time>2024-05-11T11:27:44Z</time>
</trkpt>
<trkpt lat="49.710948932915926" lon="9.545035315677524">
<ele>162.2</ele>
<time>2024-05-11T11:27:45Z</time>
</trkpt>
<trkpt lat="49.711009953171015" lon="9.544991478323936">
<ele>162</ele>
<time>2024-05-11T11:27:46Z</time>
</trkpt>
<trkpt lat="49.71107482910156" lon="9.54494470730424">
<ele>161.8</ele>
<time>2024-05-11T11:27:47Z</time>
</trkpt>
<trkpt lat="49.71113962121308" lon="9.54490179196">
<ele>161.6</ele>
<time>2024-05-11T11:27:48Z</time>
</trkpt>
<trkpt lat="49.711204497143626" lon="9.54486365430057">
<ele>161.4</ele>
<time>2024-05-11T11:27:49Z</time>
</trkpt>
<trkpt lat="49.711269373074174" lon="9.544826438650489">
<ele>161.2</ele>
<time>2024-05-11T11:27:50Z</time>
</trkpt>
<trkpt lat="49.71133802086115" lon="9.544793078675866">
<ele>161.2</ele>
<time>2024-05-11T11:27:51Z</time>
</trkpt>
<trkpt lat="49.711402812972665" lon="9.544759718701243">
<ele>161</ele>
<time>2024-05-11T11:27:52Z</time>
</trkpt>
<trkpt lat="49.71146768890321" lon="9.54472635872662">
<ele>161</ele>
<time>2024-05-11T11:27:53Z</time>
</trkpt>
<trkpt lat="49.71153256483376" lon="9.544696770608423">
<ele>161</ele>
<time>2024-05-11T11:27:54Z</time>
</trkpt>
<trkpt lat="49.71159744076431" lon="9.544670032337308">
<ele>160.8</ele>
<time>2024-05-11T11:27:55Z</time>
</trkpt>
<trkpt lat="49.71166608855128" lon="9.544645305722952">
<ele>160.8</ele>
<time>2024-05-11T11:27:56Z</time>
</trkpt>
<trkpt lat="49.71173473633826" lon="9.544621417298911">
<ele>160.6</ele>
<time>2024-05-11T11:27:57Z</time>
</trkpt>
<trkpt lat="49.711799612268806" lon="9.544596606865523">
<ele>160.6</ele>
<time>2024-05-11T11:27:58Z</time>
</trkpt>
<trkpt lat="49.71186440438032" lon="9.544571796432136">
<ele>160.4</ele>
<time>2024-05-11T11:27:59Z</time>
</trkpt>
<trkpt lat="49.71192928031087" lon="9.54454991966486">
<ele>160.2</ele>
<time>2024-05-11T11:28:00Z</time>
</trkpt>
<trkpt lat="49.71199415624142" lon="9.54453181475401">
<ele>160</ele>
<time>2024-05-11T11:28:01Z</time>
</trkpt>
<trkpt lat="49.71206280402839" lon="9.544514631852508">
<ele>159.8</ele>
<time>2024-05-11T11:28:02Z</time>
</trkpt>
<trkpt lat="49.71212767995894" lon="9.544494599103928">
<ele>159.6</ele>
<time>2024-05-11T11:28:03Z</time>
</trkpt>
<trkpt lat="49.71218870021403" lon="9.544478338211777">
<ele>159.2</ele>
<time>2024-05-11T11:28:04Z</time>
</trkpt>
<trkpt lat="49.712253492325544" lon="9.544460233300924">
<ele>159</ele>
<time>2024-05-11T11:28:05Z</time>
</trkpt>
<trkpt lat="49.712314596399665" lon="9.544444978237152">
<ele>158.8</ele>
<time>2024-05-11T11:28:06Z</time>
</trkpt>
<trkpt lat="49.712371760979295" lon="9.54442972317338">
<ele>158.4</ele>
<time>2024-05-11T11:28:07Z</time>
</trkpt>
<trkpt lat="49.71242900937795" lon="9.54441354610026">
<ele>158</ele>
<time>2024-05-11T11:28:08Z</time>
</trkpt>
<trkpt lat="49.71248625777662" lon="9.544398291036488">
<ele>157.8</ele>
<time>2024-05-11T11:28:09Z</time>
</trkpt>
<trkpt lat="49.71253965049982" lon="9.544380186125636">
<ele>157.4</ele>
<time>2024-05-11T11:28:10Z</time>
</trkpt>
<trkpt lat="49.71259304322302" lon="9.544363003224134">
<ele>157.2</ele>
<time>2024-05-11T11:28:11Z</time>
</trkpt>
<trkpt lat="49.712646435946226" lon="9.544348670169711">
<ele>157</ele>
<time>2024-05-11T11:28:12Z</time>
</trkpt>
<trkpt lat="49.71269982866943" lon="9.54433148726821">
<ele>157</ele>
<time>2024-05-11T11:28:13Z</time>
</trkpt>
<trkpt lat="49.71274944953621" lon="9.544316232204435">
<ele>156.8</ele>
<time>2024-05-11T11:28:14Z</time>
</trkpt>
<trkpt lat="49.71279907040298" lon="9.544300055131316">
<ele>156.8</ele>
<time>2024-05-11T11:28:15Z</time>
</trkpt>
<trkpt lat="49.7128448355943" lon="9.544286727905272">
<ele>156.8</ele>
<time>2024-05-11T11:28:16Z</time>
</trkpt>
<trkpt lat="49.71289060078561" lon="9.544275244697928">
<ele>156.8</ele>
<time>2024-05-11T11:28:17Z</time>
</trkpt>
<trkpt lat="49.71293251030147" lon="9.544264767318964">
<ele>156.8</ele>
<time>2024-05-11T11:28:18Z</time>
</trkpt>
<trkpt lat="49.71297450363636" lon="9.544255211949348">
<ele>156.6</ele>
<time>2024-05-11T11:28:19Z</time>
</trkpt>
<trkpt lat="49.71301264129579" lon="9.544244734570384">
<ele>156.6</ele>
<time>2024-05-11T11:28:20Z</time>
</trkpt>
<trkpt lat="49.71305463463068" lon="9.544235179200768">
<ele>156.4</ele>
<time>2024-05-11T11:28:21Z</time>
</trkpt>
<trkpt lat="49.71309654414654" lon="9.544219924136996">
<ele>156.4</ele>
<time>2024-05-11T11:28:22Z</time>
</trkpt>
<trkpt lat="49.71313853748143" lon="9.544206596910954">
<ele>156.2</ele>
<time>2024-05-11T11:28:23Z</time>
</trkpt>
<trkpt lat="49.71318053081632" lon="9.54419318586588">
<ele>156.2</ele>
<time>2024-05-11T11:28:24Z</time>
</trkpt>
<trkpt lat="49.71321481280029" lon="9.544177008792758">
<ele>156</ele>
<time>2024-05-11T11:28:25Z</time>
</trkpt>
<trkpt lat="49.71325680613518" lon="9.544163681566715">
<ele>156</ele>
<time>2024-05-11T11:28:26Z</time>
</trkpt>
<trkpt lat="49.71329494379461" lon="9.544155048206449">
<ele>155.8</ele>
<time>2024-05-11T11:28:27Z</time>
</trkpt>
<trkpt lat="49.71333308145404" lon="9.544155048206449">
<ele>155.6</ele>
<time>2024-05-11T11:28:28Z</time>
</trkpt>
<trkpt lat="49.71337121911347" lon="9.544166531413794">
<ele>155.6</ele>
<time>2024-05-11T11:28:29Z</time>
</trkpt>
<trkpt lat="49.71340172924101" lon="9.544197963550689">
<ele>155.4</ele>
<time>2024-05-11T11:28:30Z</time>
</trkpt>
<trkpt lat="49.71343223936856" lon="9.544235179200768">
<ele>155.4</ele>
<time>2024-05-11T11:28:31Z</time>
</trkpt>
<trkpt lat="49.713458977639675" lon="9.544280022382736">
<ele>155.2</ele>
<time>2024-05-11T11:28:32Z</time>
</trkpt>
<trkpt lat="49.713478088378906" lon="9.54433148726821">
<ele>155</ele>
<time>2024-05-11T11:28:33Z</time>
</trkpt>
<trkpt lat="49.713497115299106" lon="9.54439158551395">
<ele>154.8</ele>
<time>2024-05-11T11:28:34Z</time>
</trkpt>
<trkpt lat="49.71350474283099" lon="9.544454533606768">
<ele>154.6</ele>
<time>2024-05-11T11:28:35Z</time>
</trkpt>
<trkpt lat="49.71351237036288" lon="9.544516559690235">
<ele>154.4</ele>
<time>2024-05-11T11:28:36Z</time>
</trkpt>
<trkpt lat="49.71351622603834" lon="9.544583279639482">
<ele>154.2</ele>
<time>2024-05-11T11:28:37Z</time>
</trkpt>
<trkpt lat="49.71352385357022" lon="9.544651927426456">
<ele>154</ele>
<time>2024-05-11T11:28:38Z</time>
</trkpt>
<trkpt lat="49.71352762542665" lon="9.54472535289824">
<ele>153.6</ele>
<time>2024-05-11T11:28:39Z</time>
</trkpt>
<trkpt lat="49.71353148110211" lon="9.544799784198403">
<ele>153.4</ele>
<time>2024-05-11T11:28:40Z</time>
</trkpt>
<trkpt lat="49.713539108633995" lon="9.544879831373692">
<ele>153.2</ele>
<time>2024-05-11T11:28:41Z</time>
</trkpt>
<trkpt lat="49.71354288049042" lon="9.54496189020574">
<ele>153</ele>
<time>2024-05-11T11:28:42Z</time>
</trkpt>
<trkpt lat="49.71355050802231" lon="9.54504294320941">
<ele>152.8</ele>
<time>2024-05-11T11:28:43Z</time>
</trkpt>
<trkpt lat="49.713558135554194" lon="9.54512307420373">
<ele>152.8</ele>
<time>2024-05-11T11:28:44Z</time>
</trkpt>
<trkpt lat="49.71356576308608" lon="9.54520027153194">
<ele>152.6</ele>
<time>2024-05-11T11:28:45Z</time>
</trkpt>
<trkpt lat="49.71357339061797" lon="9.545276630669832">
<ele>152.4</ele>
<time>2024-05-11T11:28:46Z</time>
</trkpt>
<trkpt lat="49.713577246293426" lon="9.545352905988691">
<ele>152.2</ele>
<time>2024-05-11T11:28:47Z</time>
</trkpt>
<trkpt lat="49.71358101814985" lon="9.545432031154633">
<ele>152</ele>
<time>2024-05-11T11:28:48Z</time>
</trkpt>
<trkpt lat="49.71358487382531" lon="9.545504534617066">
<ele>151.8</ele>
<time>2024-05-11T11:28:49Z</time>
</trkpt>
<trkpt lat="49.71358864568174" lon="9.545577960088847">
<ele>151.8</ele>
<time>2024-05-11T11:28:50Z</time>
</trkpt>
<trkpt lat="49.713596273213625" lon="9.54565331339836">
<ele>151.6</ele>
<time>2024-05-11T11:28:51Z</time>
</trkpt>
<trkpt lat="49.71360012888909" lon="9.545721961185336">
<ele>151.4</ele>
<time>2024-05-11T11:28:52Z</time>
</trkpt>
<trkpt lat="49.71360775642097" lon="9.545780131593348">
<ele>151.4</ele>
<time>2024-05-11T11:28:53Z</time>
</trkpt>
<trkpt lat="49.7136115282774" lon="9.545836374163628">
<ele>151.2</ele>
<time>2024-05-11T11:28:54Z</time>
</trkpt>
<trkpt lat="49.713615383952856" lon="9.545889850705862">
<ele>151.2</ele>
<time>2024-05-11T11:28:55Z</time>
</trkpt>
<trkpt lat="49.71361915580928" lon="9.545934610068798">
<ele>151.2</ele>
<time>2024-05-11T11:28:56Z</time>
</trkpt>
<trkpt lat="49.71362301148474" lon="9.545980375260116">
<ele>151.2</ele>
<time>2024-05-11T11:28:57Z</time>
</trkpt>
<trkpt lat="49.71362678334117" lon="9.546019518747926">
<ele>151</ele>
<time>2024-05-11T11:28:58Z</time>
</trkpt>
<trkpt lat="49.71362678334117" lon="9.546054806560278">
<ele>151</ele>
<time>2024-05-11T11:28:59Z</time>
</trkpt>
<trkpt lat="49.71362678334117" lon="9.546092944219708">
<ele>151</ele>
<time>2024-05-11T11:29:00Z</time>
</trkpt>
<trkpt lat="49.71362678334117" lon="9.546126304194331">
<ele>151</ele>
<time>2024-05-11T11:29:01Z</time>
</trkpt>
<trkpt lat="49.71362678334117" lon="9.546163519844413">
<ele>151</ele>
<time>2024-05-11T11:29:02Z</time>
</trkpt>
<trkpt lat="49.71362678334117" lon="9.546199729666114">
<ele>151</ele>
<time>2024-05-11T11:29:03Z</time>
</trkpt>
<trkpt lat="49.71362678334117" lon="9.546241723001003">
<ele>151.2</ele>
<time>2024-05-11T11:29:04Z</time>
</trkpt>
<trkpt lat="49.71362678334117" lon="9.546284638345242">
<ele>151.2</ele>
<time>2024-05-11T11:29:05Z</time>
</trkpt>
<trkpt lat="49.71362301148474" lon="9.54632948152721">
<ele>151.2</ele>
<time>2024-05-11T11:29:06Z</time>
</trkpt>
<trkpt lat="49.7136115282774" lon="9.546375246718526">
<ele>151.2</ele>
<time>2024-05-11T11:29:07Z</time>
</trkpt>
<trkpt lat="49.71360012888909" lon="9.546411456540229">
<ele>151.2</ele>
<time>2024-05-11T11:29:08Z</time>
</trkpt>
<trkpt lat="49.713577246293426" lon="9.54644481651485">
<ele>151.2</ele>
<time>2024-05-11T11:29:10Z</time>
</trkpt>
<trkpt lat="49.71353148110211" lon="9.546498293057084">
<ele>151.2</ele>
<time>2024-05-11T11:29:11Z</time>
</trkpt>
<trkpt lat="49.71350474283099" lon="9.546516397967936">
<ele>151.2</ele>
<time>2024-05-11T11:29:12Z</time>
</trkpt>
<trkpt lat="49.713478088378906" lon="9.546531653031709">
<ele>151.2</ele>
<time>2024-05-11T11:29:13Z</time>
</trkpt>
<trkpt lat="49.7134437225759" lon="9.54654690809548">
<ele>151.2</ele>
<time>2024-05-11T11:29:14Z</time>
</trkpt>
<trkpt lat="49.7134093567729" lon="9.546560235321522">
<ele>151.2</ele>
<time>2024-05-11T11:29:15Z</time>
</trkpt>
<trkpt lat="49.71337507478893" lon="9.546576496213676">
<ele>151.2</ele>
<time>2024-05-11T11:29:16Z</time>
</trkpt>
<trkpt lat="49.713340708985925" lon="9.546594601124523">
<ele>151.2</ele>
<time>2024-05-11T11:29:17Z</time>
</trkpt>
<trkpt lat="49.71331019885838" lon="9.546611784026029">
<ele>151.4</ele>
<time>2024-05-11T11:29:18Z</time>
</trkpt>
<trkpt lat="49.71328346058726" lon="9.54662511125207">
<ele>151.4</ele>
<time>2024-05-11T11:29:19Z</time>
</trkpt>
<trkpt lat="49.71325680613518" lon="9.546634666621683">
<ele>151.4</ele>
<time>2024-05-11T11:29:20Z</time>
</trkpt>
<trkpt lat="49.71323006786406" lon="9.54664514400065">
<ele>151.4</ele>
<time>2024-05-11T11:29:21Z</time>
</trkpt>
<trkpt lat="49.713203413411975" lon="9.546656543388965">
<ele>151.4</ele>
<time>2024-05-11T11:29:22Z</time>
</trkpt>
<trkpt lat="49.713184302672744" lon="9.546673726290464">
<ele>151.4</ele>
<time>2024-05-11T11:29:23Z</time>
</trkpt>
<trkpt lat="49.713161420077085" lon="9.546686131507158">
<ele>151.4</ele>
<time>2024-05-11T11:29:24Z</time>
</trkpt>
<trkpt lat="49.71315002068877" lon="9.546694681048391">
<ele>151.4</ele>
<time>2024-05-11T11:29:25Z</time>
</trkpt>
<trkpt lat="49.71313090994954" lon="9.546707086265087">
<ele>151.4</ele>
<time>2024-05-11T11:29:26Z</time>
</trkpt>
<trkpt lat="49.71311179921031" lon="9.546726197004318">
<ele>151.4</ele>
<time>2024-05-11T11:29:27Z</time>
</trkpt>
<trkpt lat="49.71308891661465" lon="9.546751929447057">
<ele>151.4</ele>
<time>2024-05-11T11:29:28Z</time>
</trkpt>
<trkpt lat="49.71306988969445" lon="9.54678151756525">
<ele>151.4</ele>
<time>2024-05-11T11:29:29Z</time>
</trkpt>
<trkpt lat="49.71305463463068" lon="9.546810099855064">
<ele>151.6</ele>
<time>2024-05-11T11:29:30Z</time>
</trkpt>
<trkpt lat="49.71303937956691" lon="9.546836838126184">
<ele>151.6</ele>
<time>2024-05-11T11:29:31Z</time>
</trkpt>
<trkpt lat="49.71302026882768" lon="9.54686164855957">
<ele>151.6</ele>
<time>2024-05-11T11:29:32Z</time>
</trkpt>
<trkpt lat="49.713005013763905" lon="9.546884531155229">
<ele>151.6</ele>
<time>2024-05-11T11:29:33Z</time>
</trkpt>
<trkpt lat="49.712985986843705" lon="9.546906407922506">
<ele>151.6</ele>
<time>2024-05-11T11:29:34Z</time>
</trkpt>
<trkpt lat="49.71297073177993" lon="9.546930296346543">
<ele>151.6</ele>
<time>2024-05-11T11:29:35Z</time>
</trkpt>
<trkpt lat="49.71295924857259" lon="9.546953178942204">
<ele>151.6</ele>
<time>2024-05-11T11:29:36Z</time>
</trkpt>
<trkpt lat="49.712943993508816" lon="9.54697698354721">
<ele>151.6</ele>
<time>2024-05-11T11:29:37Z</time>
</trkpt>
<trkpt lat="49.71292873844504" lon="9.546999866142867">
<ele>151.6</ele>
<time>2024-05-11T11:29:38Z</time>
</trkpt>
<trkpt lat="49.71291348338127" lon="9.547024676576257">
<ele>151.6</ele>
<time>2024-05-11T11:29:39Z</time>
</trkpt>
<trkpt lat="49.7128982283175" lon="9.547051414847374">
<ele>151.6</ele>
<time>2024-05-11T11:29:40Z</time>
</trkpt>
<trkpt lat="49.712886745110154" lon="9.547079997137187">
<ele>151.6</ele>
<time>2024-05-11T11:29:41Z</time>
</trkpt>
<trkpt lat="49.71287149004638" lon="9.547108579427004">
<ele>151.6</ele>
<time>2024-05-11T11:29:42Z</time>
</trkpt>
<trkpt lat="49.71286009065807" lon="9.54713623970747">
<ele>151.6</ele>
<time>2024-05-11T11:29:43Z</time>
</trkpt>
<trkpt lat="49.7128448355943" lon="9.547162977978587">
<ele>151.6</ele>
<time>2024-05-11T11:29:44Z</time>
</trkpt>
<trkpt lat="49.71283720806241" lon="9.547189632430673">
<ele>151.6</ele>
<time>2024-05-11T11:29:45Z</time>
</trkpt>
<trkpt lat="49.712825724855065" lon="9.54721444286406">
<ele>151.6</ele>
<time>2024-05-11T11:29:46Z</time>
</trkpt>
<trkpt lat="49.71281809732318" lon="9.5472383312881">
<ele>151.8</ele>
<time>2024-05-11T11:29:47Z</time>
</trkpt>
<trkpt lat="49.712806697934866" lon="9.547260208055375">
<ele>151.8</ele>
<time>2024-05-11T11:29:48Z</time>
</trkpt>
<trkpt lat="49.71279521472752" lon="9.547283090651035">
<ele>151.8</ele>
<time>2024-05-11T11:29:49Z</time>
</trkpt>
<trkpt lat="49.712783731520176" lon="9.547305051237345">
<ele>152</ele>
<time>2024-05-11T11:29:50Z</time>
</trkpt>
<trkpt lat="49.71277610398829" lon="9.547327933833005">
<ele>152</ele>
<time>2024-05-11T11:29:51Z</time>
</trkpt>
<trkpt lat="49.71277610398829" lon="9.547347966581585">
<ele>152</ele>
<time>2024-05-11T11:29:52Z</time>
</trkpt>
<trkpt lat="49.712783731520176" lon="9.547360371798275">
<ele>152.2</ele>
<time>2024-05-11T11:29:53Z</time>
</trkpt>
<trkpt lat="49.712791442871094" lon="9.547365149483085">
<ele>152.4</ele>
<time>2024-05-11T11:29:54Z</time>
</trkpt>
<trkpt lat="49.712791442871094" lon="9.547367999330165">
<ele>152.4</ele>
<time>2024-05-11T11:29:55Z</time>
</trkpt>
<trkpt lat="49.71279521472752" lon="9.547367999330165">
<ele>152.6</ele>
<time>2024-05-11T11:29:56Z</time>
</trkpt>
<trkpt lat="49.71279907040298" lon="9.547367999330165">
<ele>152.6</ele>
<time>2024-05-11T11:29:57Z</time>
</trkpt>
<trkpt lat="49.71279907040298" lon="9.547369927167892">
<ele>152.8</ele>
<time>2024-05-11T11:29:58Z</time>
</trkpt>
<trkpt lat="49.71280284225941" lon="9.547369927167892">
<ele>152.8</ele>
<time>2024-05-11T11:29:59Z</time>
</trkpt>
<trkpt lat="49.712806697934866" lon="9.547367999330165">
<ele>153</ele>
<time>2024-05-11T11:30:00Z</time>
</trkpt>
<trkpt lat="49.712806697934866" lon="9.547367077320814">
<ele>153</ele>
<time>2024-05-11T11:30:01Z</time>
</trkpt>
<trkpt lat="49.712806697934866" lon="9.547365149483085">
<ele>153.2</ele>
<time>2024-05-11T11:30:03Z</time>
</trkpt>
<trkpt lat="49.71281046979129" lon="9.547365149483085">
<ele>153.2</ele>
<time>2024-05-11T11:30:07Z</time>
</trkpt>
<trkpt lat="49.71281432546675" lon="9.547365149483085">
<ele>153.2</ele>
<time>2024-05-11T11:30:14Z</time>
</trkpt>
<trkpt lat="49.71281432546675" lon="9.547360371798275">
<ele>153.4</ele>
<time>2024-05-11T11:30:15Z</time>
</trkpt>
<trkpt lat="49.71281809732318" lon="9.547360371798275">
<ele>153.4</ele>
<time>2024-05-11T11:30:17Z</time>
</trkpt>
<trkpt lat="49.71281809732318" lon="9.547358443960547">
<ele>153.4</ele>
<time>2024-05-11T11:30:19Z</time>
</trkpt>
<trkpt lat="49.71281809732318" lon="9.54735659994185">
<ele>153.4</ele>
<time>2024-05-11T11:30:21Z</time>
</trkpt>
<trkpt lat="49.71281809732318" lon="9.54735467210412">
<ele>153.4</ele>
<time>2024-05-11T11:30:22Z</time>
</trkpt>
<trkpt lat="49.71281809732318" lon="9.54735366627574">
<ele>153.2</ele>
<time>2024-05-11T11:30:23Z</time>
</trkpt>
<trkpt lat="49.71281809732318" lon="9.547351822257042">
<ele>153.2</ele>
<time>2024-05-11T11:30:25Z</time>
</trkpt>
<trkpt lat="49.71281809732318" lon="9.547349894419312">
<ele>153</ele>
<time>2024-05-11T11:30:26Z</time>
</trkpt>
<trkpt lat="49.71281809732318" lon="9.547347966581585">
<ele>153</ele>
<time>2024-05-11T11:30:39Z</time>
</trkpt>
<trkpt lat="49.71282195299864" lon="9.547347966581585">
<ele>152.8</ele>
<time>2024-05-11T11:30:40Z</time>
</trkpt>
<trkpt lat="49.71281809732318" lon="9.547347966581585">
<ele>152.6</ele>
<time>2024-05-11T11:30:48Z</time>
</trkpt>
<trkpt lat="49.71282195299864" lon="9.547347966581585">
<ele>152.6</ele>
<time>2024-05-11T11:30:51Z</time>
</trkpt>
<trkpt lat="49.71282195299864" lon="9.547347044572234">
<ele>152.4</ele>
<time>2024-05-11T11:30:54Z</time>
</trkpt>
<trkpt lat="49.712825724855065" lon="9.547347044572234">
<ele>152.4</ele>
<time>2024-05-11T11:31:00Z</time>
</trkpt>
<trkpt lat="49.712825724855065" lon="9.547345116734505">
<ele>152.4</ele>
<time>2024-05-11T11:31:04Z</time>
</trkpt>
<trkpt lat="49.71282958053053" lon="9.547345116734505">
<ele>152.4</ele>
<time>2024-05-11T11:31:09Z</time>
</trkpt>
<trkpt lat="49.71282958053053" lon="9.547343188896775">
<ele>152.4</ele>
<time>2024-05-11T11:31:14Z</time>
</trkpt>
<trkpt lat="49.71282958053053" lon="9.547341344878078">
<ele>152.2</ele>
<time>2024-05-11T11:31:18Z</time>
</trkpt>
<trkpt lat="49.71283335238695" lon="9.547341344878078">
<ele>152.2</ele>
<time>2024-05-11T11:31:27Z</time>
</trkpt>
<trkpt lat="49.71283335238695" lon="9.547343188896775">
<ele>152.2</ele>
<time>2024-05-11T11:31:30Z</time>
</trkpt>
<trkpt lat="49.71283335238695" lon="9.547341344878078">
<ele>152</ele>
<time>2024-05-11T11:31:32Z</time>
</trkpt>
<trkpt lat="49.71283335238695" lon="9.547340339049695">
<ele>152</ele>
<time>2024-05-11T11:31:46Z</time>
</trkpt>
<trkpt lat="49.71283335238695" lon="9.547341344878078">
<ele>152</ele>
<time>2024-05-11T11:31:54Z</time>
</trkpt>
<trkpt lat="49.71283335238695" lon="9.547343188896775">
<ele>152</ele>
<time>2024-05-11T11:31:58Z</time>
</trkpt>
<trkpt lat="49.71283335238695" lon="9.547341344878078">
<ele>152</ele>
<time>2024-05-11T11:32:06Z</time>
</trkpt>
<trkpt lat="49.71283335238695" lon="9.547340339049695">
<ele>151.8</ele>
<time>2024-05-11T11:32:10Z</time>
</trkpt>
<trkpt lat="49.71283335238695" lon="9.547338411211967">
<ele>151.8</ele>
<time>2024-05-11T11:32:30Z</time>
</trkpt>
<trkpt lat="49.71283335238695" lon="9.547340339049695">
<ele>151.8</ele>
<time>2024-05-11T11:32:34Z</time>
</trkpt>
<trkpt lat="49.71283335238695" lon="9.547338411211967">
<ele>151.6</ele>
<time>2024-05-11T11:32:35Z</time>
</trkpt>
<trkpt lat="49.71283335238695" lon="9.54733656719327">
<ele>151.6</ele>
<time>2024-05-11T11:32:38Z</time>
</trkpt>
<trkpt lat="49.71283335238695" lon="9.54733463935554">
<ele>151.6</ele>
<time>2024-05-11T11:32:42Z</time>
</trkpt>
<trkpt lat="49.71283335238695" lon="9.54733656719327">
<ele>151.6</ele>
<time>2024-05-11T11:32:46Z</time>
</trkpt>
<trkpt lat="49.71283335238695" lon="9.547338411211967">
<ele>151.6</ele>
<time>2024-05-11T11:32:50Z</time>
</trkpt>
<trkpt lat="49.71283335238695" lon="9.547340339049695">
<ele>151.8</ele>
<time>2024-05-11T11:32:55Z</time>
</trkpt>
<trkpt lat="49.71283335238695" lon="9.547341344878078">
<ele>151.8</ele>
<time>2024-05-11T11:33:02Z</time>
</trkpt>
<trkpt lat="49.71283335238695" lon="9.547340339049695">
<ele>151.8</ele>
<time>2024-05-11T11:33:03Z</time>
</trkpt>
<trkpt lat="49.71283335238695" lon="9.547338411211967">
<ele>151.8</ele>
<time>2024-05-11T11:33:08Z</time>
</trkpt>
<trkpt lat="49.71283335238695" lon="9.54733656719327">
<ele>152</ele>
<time>2024-05-11T11:33:11Z</time>
</trkpt>
<trkpt lat="49.71283335238695" lon="9.54733463935554">
<ele>152</ele>
<time>2024-05-11T11:33:13Z</time>
</trkpt>
<trkpt lat="49.71283335238695" lon="9.547333717346191">
<ele>152</ele>
<time>2024-05-11T11:33:15Z</time>
</trkpt>
<trkpt lat="49.71283335238695" lon="9.547331789508462">
<ele>152</ele>
<time>2024-05-11T11:33:20Z</time>
</trkpt>
<trkpt lat="49.71283335238695" lon="9.547329861670732">
<ele>152</ele>
<time>2024-05-11T11:33:25Z</time>
</trkpt>
<trkpt lat="49.71283335238695" lon="9.547331789508462">
<ele>152</ele>
<time>2024-05-11T11:33:26Z</time>
</trkpt>
<trkpt lat="49.71283335238695" lon="9.547329861670732">
<ele>152.2</ele>
<time>2024-05-11T11:33:28Z</time>
</trkpt>
<trkpt lat="49.71283335238695" lon="9.547331789508462">
<ele>152.2</ele>
<time>2024-05-11T11:33:30Z</time>
</trkpt>
<trkpt lat="49.71283335238695" lon="9.547329861670732">
<ele>152.2</ele>
<time>2024-05-11T11:33:35Z</time>
</trkpt>
<trkpt lat="49.71283335238695" lon="9.547331789508462">
<ele>152.2</ele>
<time>2024-05-11T11:33:37Z</time>
</trkpt>
<trkpt lat="49.71283720806241" lon="9.547333717346191">
<ele>152.4</ele>
<time>2024-05-11T11:33:46Z</time>
</trkpt>
<trkpt lat="49.71283720806241" lon="9.547331789508462">
<ele>152.6</ele>
<time>2024-05-11T11:33:53Z</time>
</trkpt>
<trkpt lat="49.71284097991884" lon="9.547331789508462">
<ele>152.6</ele>
<time>2024-05-11T11:33:54Z</time>
</trkpt>
<trkpt lat="49.71284097991884" lon="9.547329861670732">
<ele>152.6</ele>
<time>2024-05-11T11:34:00Z</time>
</trkpt>
<trkpt lat="49.7128448355943" lon="9.547329861670732">
<ele>152.8</ele>
<time>2024-05-11T11:34:02Z</time>
</trkpt>
<trkpt lat="49.7128448355943" lon="9.547327933833005">
<ele>152.8</ele>
<time>2024-05-11T11:34:05Z</time>
</trkpt>
<trkpt lat="49.7128448355943" lon="9.547327011823654">
<ele>152.8</ele>
<time>2024-05-11T11:34:07Z</time>
</trkpt>
<trkpt lat="49.71284097991884" lon="9.547327011823654">
<ele>152.8</ele>
<time>2024-05-11T11:34:08Z</time>
</trkpt>
<trkpt lat="49.71284097991884" lon="9.547325083985925">
<ele>152.8</ele>
<time>2024-05-11T11:34:09Z</time>
</trkpt>
<trkpt lat="49.71284097991884" lon="9.547323156148195">
<ele>152.8</ele>
<time>2024-05-11T11:34:11Z</time>
</trkpt>
<trkpt lat="49.71284097991884" lon="9.547321312129498">
<ele>152.8</ele>
<time>2024-05-11T11:34:14Z</time>
</trkpt>
<trkpt lat="49.71284097991884" lon="9.547320306301115">
<ele>152.8</ele>
<time>2024-05-11T11:34:18Z</time>
</trkpt>
<trkpt lat="49.71283720806241" lon="9.547320306301115">
<ele>152.8</ele>
<time>2024-05-11T11:34:20Z</time>
</trkpt>
<trkpt lat="49.71283720806241" lon="9.547318378463387">
<ele>152.8</ele>
<time>2024-05-11T11:34:26Z</time>
</trkpt>
<trkpt lat="49.71283335238695" lon="9.547318378463387">
<ele>152.8</ele>
<time>2024-05-11T11:34:29Z</time>
</trkpt>
<trkpt lat="49.71283335238695" lon="9.54731653444469">
<ele>152.8</ele>
<time>2024-05-11T11:34:30Z</time>
</trkpt>
<trkpt lat="49.71283335238695" lon="9.547318378463387">
<ele>152.8</ele>
<time>2024-05-11T11:34:33Z</time>
</trkpt>
<trkpt lat="49.71283335238695" lon="9.547320306301115">
<ele>152.8</ele>
<time>2024-05-11T11:34:39Z</time>
</trkpt>
<trkpt lat="49.71283720806241" lon="9.547320306301115">
<ele>152.6</ele>
<time>2024-05-11T11:34:41Z</time>
</trkpt>
<trkpt lat="49.71283335238695" lon="9.547320306301115">
<ele>152.6</ele>
<time>2024-05-11T11:34:45Z</time>
</trkpt>
<trkpt lat="49.71283335238695" lon="9.547318378463387">
<ele>152.6</ele>
<time>2024-05-11T11:34:47Z</time>
</trkpt>
<trkpt lat="49.71283335238695" lon="9.547320306301115">
<ele>152.6</ele>
<time>2024-05-11T11:34:50Z</time>
</trkpt>
<trkpt lat="49.71283335238695" lon="9.547321312129498">
<ele>152.6</ele>
<time>2024-05-11T11:34:55Z</time>
</trkpt>
<trkpt lat="49.71283335238695" lon="9.547320306301115">
<ele>152.6</ele>
<time>2024-05-11T11:34:59Z</time>
</trkpt>
<trkpt lat="49.71283335238695" lon="9.547321312129498">
<ele>152.6</ele>
<time>2024-05-11T11:35:12Z</time>
</trkpt>
<trkpt lat="49.71283335238695" lon="9.547323156148195">
<ele>152.6</ele>
<time>2024-05-11T11:35:22Z</time>
</trkpt>
<trkpt lat="49.71283335238695" lon="9.547325083985925">
<ele>152.6</ele>
<time>2024-05-11T11:35:32Z</time>
</trkpt>
<trkpt lat="49.71283335238695" lon="9.547323156148195">
<ele>152.6</ele>
<time>2024-05-11T11:35:34Z</time>
</trkpt>
<trkpt lat="49.71283335238695" lon="9.547325083985925">
<ele>152.6</ele>
<time>2024-05-11T11:35:37Z</time>
</trkpt>
<trkpt lat="49.71283335238695" lon="9.547323156148195">
<ele>152.6</ele>
<time>2024-05-11T11:35:39Z</time>
</trkpt>
<trkpt lat="49.71282958053053" lon="9.547323156148195">
<ele>152.6</ele>
<time>2024-05-11T11:35:54Z</time>
</trkpt>
<trkpt lat="49.71282958053053" lon="9.547321312129498">
<ele>152.6</ele>
<time>2024-05-11T11:35:57Z</time>
</trkpt>
<trkpt lat="49.71282958053053" lon="9.547323156148195">
<ele>152.6</ele>
<time>2024-05-11T11:35:58Z</time>
</trkpt>
<trkpt lat="49.71282958053053" lon="9.547325083985925">
<ele>152.6</ele>
<time>2024-05-11T11:36:21Z</time>
</trkpt>
<trkpt lat="49.71282958053053" lon="9.547323156148195">
<ele>152.6</ele>
<time>2024-05-11T11:36:26Z</time>
</trkpt>
<trkpt lat="49.71282958053053" lon="9.547325083985925">
<ele>152.6</ele>
<time>2024-05-11T11:36:27Z</time>
</trkpt>
<trkpt lat="49.71283335238695" lon="9.547325083985925">
<ele>152.6</ele>
<time>2024-05-11T11:36:29Z</time>
</trkpt>
<trkpt lat="49.71283335238695" lon="9.547323156148195">
<ele>152.6</ele>
<time>2024-05-11T11:36:34Z</time>
</trkpt>
<trkpt lat="49.71283335238695" lon="9.547325083985925">
<ele>152.6</ele>
<time>2024-05-11T11:36:43Z</time>
</trkpt>
<trkpt lat="49.71283335238695" lon="9.547323156148195">
<ele>152.6</ele>
<time>2024-05-11T11:36:45Z</time>
</trkpt>
<trkpt lat="49.71283335238695" lon="9.547325083985925">
<ele>152.6</ele>
<time>2024-05-11T11:36:46Z</time>
</trkpt>
<trkpt lat="49.71283335238695" lon="9.547323156148195">
<ele>152.6</ele>
<time>2024-05-11T11:36:47Z</time>
</trkpt>
<trkpt lat="49.71282958053053" lon="9.547323156148195">
<ele>152.6</ele>
<time>2024-05-11T11:36:48Z</time>
</trkpt>
<trkpt lat="49.71282958053053" lon="9.547325083985925">
<ele>152.6</ele>
<time>2024-05-11T11:36:49Z</time>
</trkpt>
<trkpt lat="49.71282958053053" lon="9.547327011823654">
<ele>152.6</ele>
<time>2024-05-11T11:36:55Z</time>
</trkpt>
<trkpt lat="49.71282958053053" lon="9.547323156148195">
<ele>152.6</ele>
<time>2024-05-11T11:36:57Z</time>
</trkpt>
<trkpt lat="49.71282958053053" lon="9.547325083985925">
<ele>152.6</ele>
<time>2024-05-11T11:36:58Z</time>
</trkpt>
<trkpt lat="49.71282958053053" lon="9.547327011823654">
<ele>152.6</ele>
<time>2024-05-11T11:37:01Z</time>
</trkpt>
<trkpt lat="49.71283335238695" lon="9.547325083985925">
<ele>152.6</ele>
<time>2024-05-11T11:37:06Z</time>
</trkpt>
<trkpt lat="49.71282958053053" lon="9.547325083985925">
<ele>152.6</ele>
<time>2024-05-11T11:37:07Z</time>
</trkpt>
<trkpt lat="49.71282958053053" lon="9.547323156148195">
<ele>152.6</ele>
<time>2024-05-11T11:37:11Z</time>
</trkpt>
<trkpt lat="49.71282958053053" lon="9.547321312129498">
<ele>152.6</ele>
<time>2024-05-11T11:37:17Z</time>
</trkpt>
<trkpt lat="49.71282958053053" lon="9.547323156148195">
<ele>152.6</ele>
<time>2024-05-11T11:37:19Z</time>
</trkpt>
<trkpt lat="49.71282958053053" lon="9.547321312129498">
<ele>152.6</ele>
<time>2024-05-11T11:37:20Z</time>
</trkpt>
<trkpt lat="49.71282958053053" lon="9.547323156148195">
<ele>152.6</ele>
<time>2024-05-11T11:37:21Z</time>
</trkpt>
<trkpt lat="49.712825724855065" lon="9.547323156148195">
<ele>152.6</ele>
<time>2024-05-11T11:37:25Z</time>
</trkpt>
<trkpt lat="49.712825724855065" lon="9.547325083985925">
<ele>152.6</ele>
<time>2024-05-11T11:37:29Z</time>
</trkpt>
<trkpt lat="49.712825724855065" lon="9.547323156148195">
<ele>152.6</ele>
<time>2024-05-11T11:37:30Z</time>
</trkpt>
<trkpt lat="49.712825724855065" lon="9.547325083985925">
<ele>152.6</ele>
<time>2024-05-11T11:37:31Z</time>
</trkpt>
<trkpt lat="49.712825724855065" lon="9.547323156148195">
<ele>152.6</ele>
<time>2024-05-11T11:37:32Z</time>
</trkpt>
<trkpt lat="49.712825724855065" lon="9.547325083985925">
<ele>152.6</ele>
<time>2024-05-11T11:37:42Z</time>
</trkpt>
<trkpt lat="49.712825724855065" lon="9.547327011823654">
<ele>152.6</ele>
<time>2024-05-11T11:37:49Z</time>
</trkpt>
<trkpt lat="49.712825724855065" lon="9.547327933833005">
<ele>152.6</ele>
<time>2024-05-11T11:38:02Z</time>
</trkpt>
<trkpt lat="49.71282958053053" lon="9.547327933833005">
<ele>152.6</ele>
<time>2024-05-11T11:38:03Z</time>
</trkpt>
<trkpt lat="49.71282958053053" lon="9.547327011823654">
<ele>152.6</ele>
<time>2024-05-11T11:38:05Z</time>
</trkpt>
<trkpt lat="49.71282958053053" lon="9.547327933833005">
<ele>152.6</ele>
<time>2024-05-11T11:38:11Z</time>
</trkpt>
<trkpt lat="49.71282958053053" lon="9.547327011823654">
<ele>152.6</ele>
<time>2024-05-11T11:38:14Z</time>
</trkpt>
<trkpt lat="49.71282958053053" lon="9.547327933833005">
<ele>152.6</ele>
<time>2024-05-11T11:38:16Z</time>
</trkpt>
<trkpt lat="49.712825724855065" lon="9.547327933833005">
<ele>152.6</ele>
<time>2024-05-11T11:38:17Z</time>
</trkpt>
<trkpt lat="49.712825724855065" lon="9.547327011823654">
<ele>152.6</ele>
<time>2024-05-11T11:38:21Z</time>
</trkpt>
<trkpt lat="49.71282195299864" lon="9.547327011823654">
<ele>152.6</ele>
<time>2024-05-11T11:38:27Z</time>
</trkpt>
<trkpt lat="49.71282195299864" lon="9.547325083985925">
<ele>152.6</ele>
<time>2024-05-11T11:38:29Z</time>
</trkpt>
<trkpt lat="49.71282195299864" lon="9.547323156148195">
<ele>152.6</ele>
<time>2024-05-11T11:38:34Z</time>
</trkpt>
<trkpt lat="49.712825724855065" lon="9.547323156148195">
<ele>152.6</ele>
<time>2024-05-11T11:38:47Z</time>
</trkpt>
<trkpt lat="49.71282958053053" lon="9.547323156148195">
<ele>152.6</ele>
<time>2024-05-11T11:38:53Z</time>
</trkpt>
<trkpt lat="49.71282958053053" lon="9.547325083985925">
<ele>152.6</ele>
<time>2024-05-11T11:38:55Z</time>
</trkpt>
<trkpt lat="49.71282958053053" lon="9.547323156148195">
<ele>152.6</ele>
<time>2024-05-11T11:38:56Z</time>
</trkpt>
<trkpt lat="49.71282958053053" lon="9.547321312129498">
<ele>152.6</ele>
<time>2024-05-11T11:39:01Z</time>
</trkpt>
<trkpt lat="49.71282958053053" lon="9.547320306301115">
<ele>152.6</ele>
<time>2024-05-11T11:39:05Z</time>
</trkpt>
<trkpt lat="49.71282958053053" lon="9.547321312129498">
<ele>152.6</ele>
<time>2024-05-11T11:39:10Z</time>
</trkpt>
<trkpt lat="49.71283335238695" lon="9.547321312129498">
<ele>152.6</ele>
<time>2024-05-11T11:39:11Z</time>
</trkpt>
<trkpt lat="49.71283335238695" lon="9.547320306301115">
<ele>152.6</ele>
<time>2024-05-11T11:39:15Z</time>
</trkpt>
<trkpt lat="49.71283335238695" lon="9.547318378463387">
<ele>152.6</ele>
<time>2024-05-11T11:39:19Z</time>
</trkpt>
<trkpt lat="49.71283335238695" lon="9.54731653444469">
<ele>152.6</ele>
<time>2024-05-11T11:39:20Z</time>
</trkpt>
<trkpt lat="49.71282958053053" lon="9.54731653444469">
<ele>152.6</ele>
<time>2024-05-11T11:39:24Z</time>
</trkpt>
<trkpt lat="49.71282958053053" lon="9.54731460660696">
<ele>152.6</ele>
<time>2024-05-11T11:39:25Z</time>
</trkpt>
<trkpt lat="49.71282958053053" lon="9.547313684597611">
<ele>152.6</ele>
<time>2024-05-11T11:39:40Z</time>
</trkpt>
<trkpt lat="49.712825724855065" lon="9.54731460660696">
<ele>152.6</ele>
<time>2024-05-11T11:39:44Z</time>
</trkpt>
<trkpt lat="49.712825724855065" lon="9.547313684597611">
<ele>152.6</ele>
<time>2024-05-11T11:39:45Z</time>
</trkpt>
<trkpt lat="49.712825724855065" lon="9.54731460660696">
<ele>152.6</ele>
<time>2024-05-11T11:39:46Z</time>
</trkpt>
<trkpt lat="49.71282958053053" lon="9.54731460660696">
<ele>152.6</ele>
<time>2024-05-11T11:39:48Z</time>
</trkpt>
<trkpt lat="49.71282958053053" lon="9.54731653444469">
<ele>152.6</ele>
<time>2024-05-11T11:39:52Z</time>
</trkpt>
<trkpt lat="49.71282958053053" lon="9.547318378463387">
<ele>152.6</ele>
<time>2024-05-11T11:39:56Z</time>
</trkpt>
<trkpt lat="49.71283335238695" lon="9.547318378463387">
<ele>152.6</ele>
<time>2024-05-11T11:40:04Z</time>
</trkpt>
<trkpt lat="49.71283335238695" lon="9.54731653444469">
<ele>152.6</ele>
<time>2024-05-11T11:40:08Z</time>
</trkpt>
<trkpt lat="49.71283720806241" lon="9.54731653444469">
<ele>152.6</ele>
<time>2024-05-11T11:40:23Z</time>
</trkpt>
<trkpt lat="49.71284097991884" lon="9.54731653444469">
<ele>152.6</ele>
<time>2024-05-11T11:40:35Z</time>
</trkpt>
<trkpt lat="49.71284097991884" lon="9.54731460660696">
<ele>152.6</ele>
<time>2024-05-11T11:40:41Z</time>
</trkpt>
<trkpt lat="49.71283720806241" lon="9.54731460660696">
<ele>152.6</ele>
<time>2024-05-11T11:40:44Z</time>
</trkpt>
<trkpt lat="49.71283720806241" lon="9.547313684597611">
<ele>152.6</ele>
<time>2024-05-11T11:40:49Z</time>
</trkpt>
<trkpt lat="49.71283720806241" lon="9.54731460660696">
<ele>152.6</ele>
<time>2024-05-11T11:40:56Z</time>
</trkpt>
<trkpt lat="49.71283720806241" lon="9.54731653444469">
<ele>152.6</ele>
<time>2024-05-11T11:41:07Z</time>
</trkpt>
<trkpt lat="49.71283335238695" lon="9.54731653444469">
<ele>152.6</ele>
<time>2024-05-11T11:41:11Z</time>
</trkpt>
<trkpt lat="49.71283335238695" lon="9.547318378463387">
<ele>152.6</ele>
<time>2024-05-11T11:41:16Z</time>
</trkpt>
<trkpt lat="49.71283335238695" lon="9.547320306301115">
<ele>152.6</ele>
<time>2024-05-11T11:41:21Z</time>
</trkpt>
<trkpt lat="49.71283335238695" lon="9.547321312129498">
<ele>152.6</ele>
<time>2024-05-11T11:41:25Z</time>
</trkpt>
<trkpt lat="49.71283335238695" lon="9.547323156148195">
<ele>152.6</ele>
<time>2024-05-11T11:41:31Z</time>
</trkpt>
<trkpt lat="49.71283335238695" lon="9.547325083985925">
<ele>152.6</ele>
<time>2024-05-11T11:41:37Z</time>
</trkpt>
<trkpt lat="49.71283335238695" lon="9.547327011823654">
<ele>152.6</ele>
<time>2024-05-11T11:41:43Z</time>
</trkpt>
<trkpt lat="49.71283720806241" lon="9.547327933833005">
<ele>152.6</ele>
<time>2024-05-11T11:41:49Z</time>
</trkpt>
<trkpt lat="49.71283720806241" lon="9.547327011823654">
<ele>152.6</ele>
<time>2024-05-11T11:42:00Z</time>
</trkpt>
<trkpt lat="49.71284097991884" lon="9.547327011823654">
<ele>152.6</ele>
<time>2024-05-11T11:42:01Z</time>
</trkpt>
<trkpt lat="49.71284097991884" lon="9.547325083985925">
<ele>152.6</ele>
<time>2024-05-11T11:42:07Z</time>
</trkpt>
<trkpt lat="49.71284097991884" lon="9.547323156148195">
<ele>152.6</ele>
<time>2024-05-11T11:42:12Z</time>
</trkpt>
<trkpt lat="49.71284097991884" lon="9.547321312129498">
<ele>152.6</ele>
<time>2024-05-11T11:42:15Z</time>
</trkpt>
<trkpt lat="49.71283720806241" lon="9.547321312129498">
<ele>152.6</ele>
<time>2024-05-11T11:42:19Z</time>
</trkpt>
<trkpt lat="49.71283720806241" lon="9.547323156148195">
<ele>152.6</ele>
<time>2024-05-11T11:42:30Z</time>
</trkpt>
<trkpt lat="49.71283720806241" lon="9.547325083985925">
<ele>152.6</ele>
<time>2024-05-11T11:42:35Z</time>
</trkpt>
<trkpt lat="49.71283720806241" lon="9.547327011823654">
<ele>152.6</ele>
<time>2024-05-11T11:42:41Z</time>
</trkpt>
<trkpt lat="49.71283720806241" lon="9.547327933833005">
<ele>152.6</ele>
<time>2024-05-11T11:42:45Z</time>
</trkpt>
<trkpt lat="49.71283720806241" lon="9.547329861670732">
<ele>152.6</ele>
<time>2024-05-11T11:42:48Z</time>
</trkpt>
<trkpt lat="49.71283720806241" lon="9.547331789508462">
<ele>152.6</ele>
<time>2024-05-11T11:42:51Z</time>
</trkpt>
<trkpt lat="49.71283720806241" lon="9.547333717346191">
<ele>152.6</ele>
<time>2024-05-11T11:42:55Z</time>
</trkpt>
<trkpt lat="49.71283720806241" lon="9.54733463935554">
<ele>152.6</ele>
<time>2024-05-11T11:42:57Z</time>
</trkpt>
<trkpt lat="49.71283720806241" lon="9.54733656719327">
<ele>152.6</ele>
<time>2024-05-11T11:43:00Z</time>
</trkpt>
<trkpt lat="49.71283720806241" lon="9.547338411211967">
<ele>152.6</ele>
<time>2024-05-11T11:43:03Z</time>
</trkpt>
<trkpt lat="49.71283335238695" lon="9.547338411211967">
<ele>152.6</ele>
<time>2024-05-11T11:43:04Z</time>
</trkpt>
<trkpt lat="49.71283335238695" lon="9.547340339049695">
<ele>152.6</ele>
<time>2024-05-11T11:43:07Z</time>
</trkpt>
<trkpt lat="49.71283335238695" lon="9.547341344878078">
<ele>152.6</ele>
<time>2024-05-11T11:43:13Z</time>
</trkpt>
<trkpt lat="49.71283335238695" lon="9.547343188896775">
<ele>152.6</ele>
<time>2024-05-11T11:43:30Z</time>
</trkpt>
<trkpt lat="49.71283720806241" lon="9.547343188896775">
<ele>152.6</ele>
<time>2024-05-11T11:43:31Z</time>
</trkpt>
<trkpt lat="49.71283720806241" lon="9.547345116734505">
<ele>152.6</ele>
<time>2024-05-11T11:43:36Z</time>
</trkpt>
<trkpt lat="49.71283720806241" lon="9.547347044572234">
<ele>152.6</ele>
<time>2024-05-11T11:43:42Z</time>
</trkpt>
<trkpt lat="49.71284097991884" lon="9.547347044572234">
<ele>152.6</ele>
<time>2024-05-11T11:43:44Z</time>
</trkpt>
<trkpt lat="49.71284097991884" lon="9.547347966581585">
<ele>152.6</ele>
<time>2024-05-11T11:43:48Z</time>
</trkpt>
<trkpt lat="49.71284097991884" lon="9.547349894419312">
<ele>152.6</ele>
<time>2024-05-11T11:43:53Z</time>
</trkpt>
<trkpt lat="49.71284097991884" lon="9.547351822257042">
<ele>152.6</ele>
<time>2024-05-11T11:43:56Z</time>
</trkpt>
<trkpt lat="49.71284097991884" lon="9.54735366627574">
<ele>152.6</ele>
<time>2024-05-11T11:43:59Z</time>
</trkpt>
<trkpt lat="49.71284097991884" lon="9.54735467210412">
<ele>152.6</ele>
<time>2024-05-11T11:44:05Z</time>
</trkpt>
<trkpt lat="49.71284097991884" lon="9.54735366627574">
<ele>152.6</ele>
<time>2024-05-11T11:44:16Z</time>
</trkpt>
<trkpt lat="49.71284097991884" lon="9.547351822257042">
<ele>152.6</ele>
<time>2024-05-11T11:44:21Z</time>
</trkpt>
<trkpt lat="49.71284097991884" lon="9.547349894419312">
<ele>152.6</ele>
<time>2024-05-11T11:44:28Z</time>
</trkpt>
<trkpt lat="49.71283720806241" lon="9.547349894419312">
<ele>152.6</ele>
<time>2024-05-11T11:44:30Z</time>
</trkpt>
<trkpt lat="49.71283720806241" lon="9.547351822257042">
<ele>152.6</ele>
<time>2024-05-11T11:44:38Z</time>
</trkpt>
<trkpt lat="49.71283720806241" lon="9.54735366627574">
<ele>152.6</ele>
<time>2024-05-11T11:44:41Z</time>
</trkpt>
<trkpt lat="49.71283720806241" lon="9.54735659994185">
<ele>152.6</ele>
<time>2024-05-11T11:44:42Z</time>
</trkpt>
<trkpt lat="49.71283720806241" lon="9.547358443960547">
<ele>152.6</ele>
<time>2024-05-11T11:44:43Z</time>
</trkpt>
<trkpt lat="49.71283720806241" lon="9.547363221645355">
<ele>152.6</ele>
<time>2024-05-11T11:44:44Z</time>
</trkpt>
<trkpt lat="49.71283720806241" lon="9.547361293807626">
<ele>152.6</ele>
<time>2024-05-11T11:44:45Z</time>
</trkpt>
<trkpt lat="49.71283720806241" lon="9.547360371798275">
<ele>152.6</ele>
<time>2024-05-11T11:44:47Z</time>
</trkpt>
<trkpt lat="49.71283720806241" lon="9.547361293807626">
<ele>152.6</ele>
<time>2024-05-11T11:44:48Z</time>
</trkpt>
<trkpt lat="49.71283720806241" lon="9.547367999330165">
<ele>152.6</ele>
<time>2024-05-11T11:44:51Z</time>
</trkpt>
<trkpt lat="49.71283335238695" lon="9.5473747048527">
<ele>152.6</ele>
<time>2024-05-11T11:44:52Z</time>
</trkpt>
<trkpt lat="49.71283335238695" lon="9.547381326556206">
<ele>152.6</ele>
<time>2024-05-11T11:44:53Z</time>
</trkpt>
<trkpt lat="49.71283335238695" lon="9.547386104241014">
<ele>152.6</ele>
<time>2024-05-11T11:44:54Z</time>
</trkpt>
<trkpt lat="49.71283335238695" lon="9.547391887754202">
<ele>152.6</ele>
<time>2024-05-11T11:44:55Z</time>
</trkpt>
<trkpt lat="49.71282958053053" lon="9.547396581619978">
<ele>152.6</ele>
<time>2024-05-11T11:44:56Z</time>
</trkpt>
<trkpt lat="49.71282958053053" lon="9.547399515286088">
<ele>152.6</ele>
<time>2024-05-11T11:44:57Z</time>
</trkpt>
<trkpt lat="49.712825724855065" lon="9.547401359304786">
<ele>152.6</ele>
<time>2024-05-11T11:44:58Z</time>
</trkpt>
<trkpt lat="49.712825724855065" lon="9.547405214980245">
<ele>152.6</ele>
<time>2024-05-11T11:44:59Z</time>
</trkpt>
<trkpt lat="49.71282195299864" lon="9.547408064827325">
<ele>152.6</ele>
<time>2024-05-11T11:45:00Z</time>
</trkpt>
<trkpt lat="49.71282195299864" lon="9.54741284251213">
<ele>152.6</ele>
<time>2024-05-11T11:45:01Z</time>
</trkpt>
<trkpt lat="49.71281809732318" lon="9.547420470044017">
<ele>152.6</ele>
<time>2024-05-11T11:45:02Z</time>
</trkpt>
<trkpt lat="49.71281432546675" lon="9.547426169738172">
<ele>152.6</ele>
<time>2024-05-11T11:45:03Z</time>
</trkpt>
<trkpt lat="49.71281046979129" lon="9.547430025413632">
<ele>152.6</ele>
<time>2024-05-11T11:45:04Z</time>
</trkpt>
<trkpt lat="49.71280284225941" lon="9.54743186943233">
<ele>152.6</ele>
<time>2024-05-11T11:45:05Z</time>
</trkpt>
<trkpt lat="49.71279907040298" lon="9.54743287526071">
<ele>152.6</ele>
<time>2024-05-11T11:45:06Z</time>
</trkpt>
<trkpt lat="49.712791442871094" lon="9.54743287526071">
<ele>152.6</ele>
<time>2024-05-11T11:45:07Z</time>
</trkpt>
<trkpt lat="49.712787587195635" lon="9.54743480309844">
<ele>152.6</ele>
<time>2024-05-11T11:45:08Z</time>
</trkpt>
<trkpt lat="49.712791442871094" lon="9.547438574954867">
<ele>152.6</ele>
<time>2024-05-11T11:45:09Z</time>
</trkpt>
<trkpt lat="49.712791442871094" lon="9.547436647117138">
<ele>152.6</ele>
<time>2024-05-11T11:45:10Z</time>
</trkpt>
<trkpt lat="49.712791442871094" lon="9.547438574954867">
<ele>152.6</ele>
<time>2024-05-11T11:45:12Z</time>
</trkpt>
<trkpt lat="49.71279521472752" lon="9.547441424801946">
<ele>152.6</ele>
<time>2024-05-11T11:45:13Z</time>
</trkpt>
<trkpt lat="49.71279521472752" lon="9.547443352639675">
<ele>152.6</ele>
<time>2024-05-11T11:45:14Z</time>
</trkpt>
<trkpt lat="49.71279521472752" lon="9.547445280477405">
<ele>152.6</ele>
<time>2024-05-11T11:45:15Z</time>
</trkpt>
<trkpt lat="49.71279521472752" lon="9.547446202486752">
<ele>152.6</ele>
<time>2024-05-11T11:45:16Z</time>
</trkpt>
<trkpt lat="49.71279521472752" lon="9.547445280477405">
<ele>152.6</ele>
<time>2024-05-11T11:45:20Z</time>
</trkpt>
<trkpt lat="49.712791442871094" lon="9.547445280477405">
<ele>152.6</ele>
<time>2024-05-11T11:45:28Z</time>
</trkpt>
<trkpt lat="49.712791442871094" lon="9.547443352639675">
<ele>152.6</ele>
<time>2024-05-11T11:45:29Z</time>
</trkpt>
<trkpt lat="49.712791442871094" lon="9.547445280477405">
<ele>152.6</ele>
<time>2024-05-11T11:45:36Z</time>
</trkpt>
<trkpt lat="49.712791442871094" lon="9.547443352639675">
<ele>152.6</ele>
<time>2024-05-11T11:45:43Z</time>
</trkpt>
<trkpt lat="49.71279521472752" lon="9.547443352639675">
<ele>152.6</ele>
<time>2024-05-11T11:45:47Z</time>
</trkpt>
<trkpt lat="49.71279521472752" lon="9.547446202486752">
<ele>152.6</ele>
<time>2024-05-11T11:45:48Z</time>
</trkpt>
<trkpt lat="49.71279521472752" lon="9.547450058162212">
<ele>152.6</ele>
<time>2024-05-11T11:45:49Z</time>
</trkpt>
<trkpt lat="49.71279521472752" lon="9.54745190218091">
<ele>152.6</ele>
<time>2024-05-11T11:45:50Z</time>
</trkpt>
<trkpt lat="49.71279521472752" lon="9.54743480309844">
<ele>152.6</ele>
<time>2024-05-11T11:45:51Z</time>
</trkpt>
<trkpt lat="49.71279907040298" lon="9.54741183668375">
<ele>152.6</ele>
<time>2024-05-11T11:45:52Z</time>
</trkpt>
<trkpt lat="49.71280284225941" lon="9.547388032078745">
<ele>152.6</ele>
<time>2024-05-11T11:45:53Z</time>
</trkpt>
<trkpt lat="49.712806697934866" lon="9.547361293807626">
<ele>152.6</ele>
<time>2024-05-11T11:45:54Z</time>
</trkpt>
<trkpt lat="49.71281432546675" lon="9.547333717346191">
<ele>152.6</ele>
<time>2024-05-11T11:45:55Z</time>
</trkpt>
<trkpt lat="49.71282195299864" lon="9.547309828922153">
<ele>152.6</ele>
<time>2024-05-11T11:45:56Z</time>
</trkpt>
<trkpt lat="49.71283335238695" lon="9.547286946326494">
<ele>152.6</ele>
<time>2024-05-11T11:45:57Z</time>
</trkpt>
<trkpt lat="49.7128448355943" lon="9.547264985740185">
<ele>152.6</ele>
<time>2024-05-11T11:45:58Z</time>
</trkpt>
<trkpt lat="49.71285246312618" lon="9.547244952991605">
<ele>152.6</ele>
<time>2024-05-11T11:45:59Z</time>
</trkpt>
<trkpt lat="49.71286009065807" lon="9.547223076224329">
<ele>152.6</ele>
<time>2024-05-11T11:46:00Z</time>
</trkpt>
<trkpt lat="49.712867718189955" lon="9.547202037647368">
<ele>152.6</ele>
<time>2024-05-11T11:46:01Z</time>
</trkpt>
<trkpt lat="49.71287911757827" lon="9.547182004898788">
<ele>152.6</ele>
<time>2024-05-11T11:46:02Z</time>
</trkpt>
<trkpt lat="49.712886745110154" lon="9.547162055969238">
<ele>152.6</ele>
<time>2024-05-11T11:46:03Z</time>
</trkpt>
<trkpt lat="49.71289437264204" lon="9.54713531769812">
<ele>152.6</ele>
<time>2024-05-11T11:46:04Z</time>
</trkpt>
<trkpt lat="49.712902000173926" lon="9.547104807570577">
<ele>152.6</ele>
<time>2024-05-11T11:46:05Z</time>
</trkpt>
<trkpt lat="49.71291348338127" lon="9.54707521945238">
<ele>152.6</ele>
<time>2024-05-11T11:46:06Z</time>
</trkpt>
<trkpt lat="49.71292873844504" lon="9.547042781487107">
<ele>152.6</ele>
<time>2024-05-11T11:46:07Z</time>
</trkpt>
<trkpt lat="49.71294013783336" lon="9.547021826729178">
<ele>152.6</ele>
<time>2024-05-11T11:46:08Z</time>
</trkpt>
<trkpt lat="49.71295539289713" lon="9.547006571665406">
<ele>152.6</ele>
<time>2024-05-11T11:46:09Z</time>
</trkpt>
<trkpt lat="49.71297073177993" lon="9.54699701629579">
<ele>152.6</ele>
<time>2024-05-11T11:46:10Z</time>
</trkpt>
<trkpt lat="49.712985986843705" lon="9.546988466754556">
<ele>152.6</ele>
<time>2024-05-11T11:46:11Z</time>
</trkpt>
<trkpt lat="49.71300124190748" lon="9.54697698354721">
<ele>152.6</ele>
<time>2024-05-11T11:46:12Z</time>
</trkpt>
<trkpt lat="49.71301264129579" lon="9.546961728483438">
<ele>152.6</ele>
<time>2024-05-11T11:46:13Z</time>
</trkpt>
<trkpt lat="49.713024124503136" lon="9.546944545581937">
<ele>152.6</ele>
<time>2024-05-11T11:46:14Z</time>
</trkpt>
<trkpt lat="49.71303175203502" lon="9.54691981896758">
<ele>152.6</ele>
<time>2024-05-11T11:46:15Z</time>
</trkpt>
<trkpt lat="49.71303937956691" lon="9.546892158687116">
<ele>152.6</ele>
<time>2024-05-11T11:46:16Z</time>
</trkpt>
<trkpt lat="49.713043151423335" lon="9.54685972072184">
<ele>152.6</ele>
<time>2024-05-11T11:46:17Z</time>
</trkpt>
<trkpt lat="49.71305463463068" lon="9.546830132603644">
<ele>152.6</ele>
<time>2024-05-11T11:46:18Z</time>
</trkpt>
<trkpt lat="49.71306988969445" lon="9.546796772629024">
<ele>152.6</ele>
<time>2024-05-11T11:46:19Z</time>
</trkpt>
<trkpt lat="49.71308891661465" lon="9.546770034357904">
<ele>152.6</ele>
<time>2024-05-11T11:46:20Z</time>
</trkpt>
<trkpt lat="49.71310802735388" lon="9.546750001609324">
<ele>152.6</ele>
<time>2024-05-11T11:46:21Z</time>
</trkpt>
<trkpt lat="49.71313090994954" lon="9.546729968860744">
<ele>152.6</ele>
<time>2024-05-11T11:46:22Z</time>
</trkpt>
<trkpt lat="49.71315002068877" lon="9.546714713796971">
<ele>152.6</ele>
<time>2024-05-11T11:46:23Z</time>
</trkpt>
<trkpt lat="49.71318053081632" lon="9.546707086265087">
<ele>152.6</ele>
<time>2024-05-11T11:46:24Z</time>
</trkpt>
<trkpt lat="49.71321104094386" lon="9.546696608886124">
<ele>152.6</ele>
<time>2024-05-11T11:46:25Z</time>
</trkpt>
<trkpt lat="49.713241551071405" lon="9.546688059344888">
<ele>152.6</ele>
<time>2024-05-11T11:46:26Z</time>
</trkpt>
<trkpt lat="49.71327968873083" lon="9.546680431813002">
<ele>152.6</ele>
<time>2024-05-11T11:46:27Z</time>
</trkpt>
<trkpt lat="49.71331019885838" lon="9.5466632489115">
<ele>152.6</ele>
<time>2024-05-11T11:46:28Z</time>
</trkpt>
<trkpt lat="49.71334833651781" lon="9.546649921685455">
<ele>152.6</ele>
<time>2024-05-11T11:46:29Z</time>
</trkpt>
<trkpt lat="49.713382702320814" lon="9.546634666621683">
<ele>152.6</ele>
<time>2024-05-11T11:46:30Z</time>
</trkpt>
<trkpt lat="49.71341321244836" lon="9.546618405729532">
<ele>152.6</ele>
<time>2024-05-11T11:46:31Z</time>
</trkpt>
<trkpt lat="49.713458977639675" lon="9.546600300818682">
<ele>152.6</ele>
<time>2024-05-11T11:46:32Z</time>
</trkpt>
<trkpt lat="49.71349334344268" lon="9.546580268070102">
<ele>152.6</ele>
<time>2024-05-11T11:46:33Z</time>
</trkpt>
<trkpt lat="49.71352762542665" lon="9.5465630851686">
<ele>152.6</ele>
<time>2024-05-11T11:46:34Z</time>
</trkpt>
<trkpt lat="49.713558135554194" lon="9.54654498025775">
<ele>152.6</ele>
<time>2024-05-11T11:46:36Z</time>
</trkpt>
<trkpt lat="49.71362301148474" lon="9.546489659696816">
<ele>152.6</ele>
<time>2024-05-11T11:46:37Z</time>
</trkpt>
<trkpt lat="49.713638266548514" lon="9.546449594199656">
<ele>152.6</ele>
<time>2024-05-11T11:46:38Z</time>
</trkpt>
<trkpt lat="49.71365352161229" lon="9.546400057151914">
<ele>152.6</ele>
<time>2024-05-11T11:46:39Z</time>
</trkpt>
<trkpt lat="49.71366114914417" lon="9.546342808753252">
<ele>152.6</ele>
<time>2024-05-11T11:46:40Z</time>
</trkpt>
<trkpt lat="49.71366500481963" lon="9.546284638345242">
<ele>152.6</ele>
<time>2024-05-11T11:46:41Z</time>
</trkpt>
<trkpt lat="49.71366877667606" lon="9.546216912567616">
<ele>152.6</ele>
<time>2024-05-11T11:46:42Z</time>
</trkpt>
<trkpt lat="49.71366500481963" lon="9.54614826478064">
<ele>152.6</ele>
<time>2024-05-11T11:46:43Z</time>
</trkpt>
<trkpt lat="49.71366500481963" lon="9.546074839308858">
<ele>152.6</ele>
<time>2024-05-11T11:46:44Z</time>
</trkpt>
<trkpt lat="49.71366114914417" lon="9.546005185693502">
<ele>152.6</ele>
<time>2024-05-11T11:46:45Z</time>
</trkpt>
<trkpt lat="49.713657377287745" lon="9.54593368805945">
<ele>152.6</ele>
<time>2024-05-11T11:46:46Z</time>
</trkpt>
<trkpt lat="49.71365352161229" lon="9.545861184597015">
<ele>152.6</ele>
<time>2024-05-11T11:46:47Z</time>
</trkpt>
<trkpt lat="49.71365352161229" lon="9.54579345881939">
<ele>152.6</ele>
<time>2024-05-11T11:46:48Z</time>
</trkpt>
<trkpt lat="49.7136458940804" lon="9.545722883194683">
<ele>152.6</ele>
<time>2024-05-11T11:46:49Z</time>
</trkpt>
<trkpt lat="49.71364203840494" lon="9.545651385560632">
<ele>152.4</ele>
<time>2024-05-11T11:46:50Z</time>
</trkpt>
<trkpt lat="49.713638266548514" lon="9.54557988792658">
<ele>152.4</ele>
<time>2024-05-11T11:46:51Z</time>
</trkpt>
<trkpt lat="49.713634410873055" lon="9.545508306473494">
<ele>152.2</ele>
<time>2024-05-11T11:46:52Z</time>
</trkpt>
<trkpt lat="49.71362678334117" lon="9.54543965868652">
<ele>152.2</ele>
<time>2024-05-11T11:46:53Z</time>
</trkpt>
<trkpt lat="49.71362301148474" lon="9.545372938737271">
<ele>152.2</ele>
<time>2024-05-11T11:46:54Z</time>
</trkpt>
<trkpt lat="49.713615383952856" lon="9.545305212959647">
<ele>152.2</ele>
<time>2024-05-11T11:46:55Z</time>
</trkpt>
<trkpt lat="49.7136115282774" lon="9.545233715325594">
<ele>152</ele>
<time>2024-05-11T11:46:56Z</time>
</trkpt>
<trkpt lat="49.71360775642097" lon="9.545164983719587">
<ele>152.2</ele>
<time>2024-05-11T11:46:57Z</time>
</trkpt>
<trkpt lat="49.71360012888909" lon="9.545098263770342">
<ele>152.2</ele>
<time>2024-05-11T11:46:58Z</time>
</trkpt>
<trkpt lat="49.71360012888909" lon="9.545035315677524">
<ele>152.2</ele>
<time>2024-05-11T11:46:59Z</time>
</trkpt>
<trkpt lat="49.7135925013572" lon="9.544969517737629">
<ele>152.2</ele>
<time>2024-05-11T11:47:00Z</time>
</trkpt>
<trkpt lat="49.71358864568174" lon="9.544910425320268">
<ele>152.2</ele>
<time>2024-05-11T11:47:01Z</time>
</trkpt>
<trkpt lat="49.71358487382531" lon="9.544851249083877">
<ele>152.2</ele>
<time>2024-05-11T11:47:02Z</time>
</trkpt>
<trkpt lat="49.71358487382531" lon="9.544795006513596">
<ele>152.2</ele>
<time>2024-05-11T11:47:03Z</time>
</trkpt>
<trkpt lat="49.713577246293426" lon="9.544738763943316">
<ele>152.2</ele>
<time>2024-05-11T11:47:04Z</time>
</trkpt>
<trkpt lat="49.71356961876154" lon="9.544681515544651">
<ele>152</ele>
<time>2024-05-11T11:47:05Z</time>
</trkpt>
<trkpt lat="49.71356576308608" lon="9.544625272974372">
<ele>152</ele>
<time>2024-05-11T11:47:06Z</time>
</trkpt>
<trkpt lat="49.713558135554194" lon="9.544565174728632">
<ele>152</ele>
<time>2024-05-11T11:47:07Z</time>
</trkpt>
<trkpt lat="49.713558135554194" lon="9.54450700432062">
<ele>152.2</ele>
<time>2024-05-11T11:47:08Z</time>
</trkpt>
<trkpt lat="49.71355436369777" lon="9.54445168375969">
<ele>152.2</ele>
<time>2024-05-11T11:47:09Z</time>
</trkpt>
<trkpt lat="49.71354673616588" lon="9.54439158551395">
<ele>152.2</ele>
<time>2024-05-11T11:47:10Z</time>
</trkpt>
<trkpt lat="49.71354673616588" lon="9.544336264953015">
<ele>152.2</ele>
<time>2024-05-11T11:47:11Z</time>
</trkpt>
<trkpt lat="49.71354288049042" lon="9.544280022382736">
<ele>152.2</ele>
<time>2024-05-11T11:47:12Z</time>
</trkpt>
<trkpt lat="49.71354288049042" lon="9.544224701821804">
<ele>152.4</ele>
<time>2024-05-11T11:47:13Z</time>
</trkpt>
<trkpt lat="49.71354673616588" lon="9.54417323693633">
<ele>152.4</ele>
<time>2024-05-11T11:47:14Z</time>
</trkpt>
<trkpt lat="49.713558135554194" lon="9.544126465916634">
<ele>152.4</ele>
<time>2024-05-11T11:47:15Z</time>
</trkpt>
<trkpt lat="49.713577246293426" lon="9.544086400419474">
<ele>152.4</ele>
<time>2024-05-11T11:47:16Z</time>
</trkpt>
<trkpt lat="49.71360012888909" lon="9.544065445661545">
<ele>152.4</ele>
<time>2024-05-11T11:47:17Z</time>
</trkpt>
<trkpt lat="49.71362678334117" lon="9.544046334922314">
<ele>152.4</ele>
<time>2024-05-11T11:47:18Z</time>
</trkpt>
<trkpt lat="49.713657377287745" lon="9.544034935534">
<ele>152.4</ele>
<time>2024-05-11T11:47:19Z</time>
</trkpt>
<trkpt lat="49.71368403173983" lon="9.544026302173734">
<ele>152.6</ele>
<time>2024-05-11T11:47:20Z</time>
</trkpt>
<trkpt lat="49.713718397542834" lon="9.544019680470228">
<ele>152.6</ele>
<time>2024-05-11T11:47:21Z</time>
</trkpt>
<trkpt lat="49.71374890767038" lon="9.54401490278542">
<ele>152.6</ele>
<time>2024-05-11T11:47:22Z</time>
</trkpt>
<trkpt lat="49.71378318965435" lon="9.544006269425154">
<ele>152.8</ele>
<time>2024-05-11T11:47:23Z</time>
</trkpt>
<trkpt lat="49.71380992792547" lon="9.543999647721648">
<ele>152.8</ele>
<time>2024-05-11T11:47:24Z</time>
</trkpt>
<trkpt lat="49.71384429372847" lon="9.543990092352033">
<ele>152.8</ele>
<time>2024-05-11T11:47:25Z</time>
</trkpt>
<trkpt lat="49.713874803856015" lon="9.54397483728826">
<ele>153</ele>
<time>2024-05-11T11:47:26Z</time>
</trkpt>
<trkpt lat="49.7139014583081" lon="9.54395866021514">
<ele>153</ele>
<time>2024-05-11T11:47:27Z</time>
</trkpt>
<trkpt lat="49.713931968435645" lon="9.543929994106293">
<ele>153</ele>
<time>2024-05-11T11:47:28Z</time>
</trkpt>
<trkpt lat="49.71395870670676" lon="9.543905183672903">
<ele>153</ele>
<time>2024-05-11T11:47:29Z</time>
</trkpt>
<trkpt lat="49.71398158930242" lon="9.543881379067898">
<ele>153</ele>
<time>2024-05-11T11:47:30Z</time>
</trkpt>
<trkpt lat="49.71400447189808" lon="9.54385849647224">
<ele>153.2</ele>
<time>2024-05-11T11:47:31Z</time>
</trkpt>
<trkpt lat="49.71401972696185" lon="9.54383653588593">
<ele>153.2</ele>
<time>2024-05-11T11:47:32Z</time>
</trkpt>
<trkpt lat="49.71404260955751" lon="9.54381843097508">
<ele>153.2</ele>
<time>2024-05-11T11:47:33Z</time>
</trkpt>
<trkpt lat="49.71406172029674" lon="9.5437983982265">
<ele>153.2</ele>
<time>2024-05-11T11:47:34Z</time>
</trkpt>
<trkpt lat="49.7140846028924" lon="9.543783143162727">
<ele>153.2</ele>
<time>2024-05-11T11:47:35Z</time>
</trkpt>
<trkpt lat="49.7141036298126" lon="9.543765038251877">
<ele>153.2</ele>
<time>2024-05-11T11:47:36Z</time>
</trkpt>
<trkpt lat="49.71412651240826" lon="9.543747855350375">
<ele>153.2</ele>
<time>2024-05-11T11:47:37Z</time>
</trkpt>
<trkpt lat="49.714153250679374" lon="9.543731678277254">
<ele>153.4</ele>
<time>2024-05-11T11:47:38Z</time>
</trkpt>
<trkpt lat="49.714172361418605" lon="9.54371826723218">
<ele>153.6</ele>
<time>2024-05-11T11:47:39Z</time>
</trkpt>
<trkpt lat="49.71418761648238" lon="9.54370016232133">
<ele>153.8</ele>
<time>2024-05-11T11:47:40Z</time>
</trkpt>
<trkpt lat="49.71419901587069" lon="9.54368205741048">
<ele>154</ele>
<time>2024-05-11T11:47:41Z</time>
</trkpt>
<trkpt lat="49.714206643402576" lon="9.543673507869244">
<ele>154.2</ele>
<time>2024-05-11T11:47:42Z</time>
</trkpt>
<trkpt lat="49.714210499078035" lon="9.543671580031514">
<ele>154.6</ele>
<time>2024-05-11T11:47:43Z</time>
</trkpt>
<trkpt lat="49.71421812660992" lon="9.543662946671247">
<ele>154.8</ele>
<time>2024-05-11T11:47:44Z</time>
</trkpt>
<trkpt lat="49.714233381673694" lon="9.543649619445205">
<ele>155</ele>
<time>2024-05-11T11:47:45Z</time>
</trkpt>
<trkpt lat="49.71424478106201" lon="9.543631514534354">
<ele>155.2</ele>
<time>2024-05-11T11:47:46Z</time>
</trkpt>
<trkpt lat="49.714267663657665" lon="9.543611481785774">
<ele>155.4</ele>
<time>2024-05-11T11:47:47Z</time>
</trkpt>
<trkpt lat="49.714286774396896" lon="9.543595304712651">
<ele>155.6</ele>
<time>2024-05-11T11:47:48Z</time>
</trkpt>
<trkpt lat="49.714305801317096" lon="9.543576193973422">
<ele>156</ele>
<time>2024-05-11T11:47:49Z</time>
</trkpt>
<trkpt lat="49.71432491205633" lon="9.54356286674738">
<ele>156.2</ele>
<time>2024-05-11T11:47:50Z</time>
</trkpt>
<trkpt lat="49.714347794651985" lon="9.543551383540034">
<ele>156.6</ele>
<time>2024-05-11T11:47:51Z</time>
</trkpt>
<trkpt lat="49.714366905391216" lon="9.54353998415172">
<ele>157</ele>
<time>2024-05-11T11:47:52Z</time>
</trkpt>
<trkpt lat="49.714389787986875" lon="9.543518023565412">
<ele>157.2</ele>
<time>2024-05-11T11:47:53Z</time>
</trkpt>
<trkpt lat="49.71441644243896" lon="9.543497990816832">
<ele>157.6</ele>
<time>2024-05-11T11:47:54Z</time>
</trkpt>
<trkpt lat="49.71443932503462" lon="9.543483657762408">
<ele>157.8</ele>
<time>2024-05-11T11:47:55Z</time>
</trkpt>
<trkpt lat="49.71446220763028" lon="9.5434598531574">
<ele>158.2</ele>
<time>2024-05-11T11:47:56Z</time>
</trkpt>
<trkpt lat="49.71448131836951" lon="9.543444598093629">
<ele>158.4</ele>
<time>2024-05-11T11:47:57Z</time>
</trkpt>
<trkpt lat="49.71450034528971" lon="9.54342171549797">
<ele>158.8</ele>
<time>2024-05-11T11:47:58Z</time>
</trkpt>
<trkpt lat="49.71451945602894" lon="9.54340168274939">
<ele>159</ele>
<time>2024-05-11T11:47:59Z</time>
</trkpt>
<trkpt lat="49.71453856676817" lon="9.54338165000081">
<ele>159.4</ele>
<time>2024-05-11T11:48:00Z</time>
</trkpt>
<trkpt lat="49.71455759368837" lon="9.543357845395803">
<ele>159.8</ele>
<time>2024-05-11T11:48:01Z</time>
</trkpt>
<trkpt lat="49.71457284875214" lon="9.54333965666592">
<ele>160.2</ele>
<time>2024-05-11T11:48:02Z</time>
</trkpt>
<trkpt lat="49.714584331959486" lon="9.543318701907992">
<ele>160.6</ele>
<time>2024-05-11T11:48:03Z</time>
</trkpt>
<trkpt lat="49.714603358879685" lon="9.543294897302983">
<ele>160.8</ele>
<time>2024-05-11T11:48:04Z</time>
</trkpt>
<trkpt lat="49.71461861394346" lon="9.543272936716676">
<ele>161.2</ele>
<time>2024-05-11T11:48:05Z</time>
</trkpt>
<trkpt lat="49.71463386900723" lon="9.543252903968096">
<ele>161.6</ele>
<time>2024-05-11T11:48:06Z</time>
</trkpt>
<trkpt lat="49.714649124071" lon="9.543236726894976">
<ele>162</ele>
<time>2024-05-11T11:48:07Z</time>
</trkpt>
<trkpt lat="49.71466823481023" lon="9.543218538165092">
<ele>162.4</ele>
<time>2024-05-11T11:48:08Z</time>
</trkpt>
<trkpt lat="49.714683489874005" lon="9.543198505416512">
<ele>162.8</ele>
<time>2024-05-11T11:48:09Z</time>
</trkpt>
<trkpt lat="49.71469874493778" lon="9.543176628649237">
<ele>163</ele>
<time>2024-05-11T11:48:10Z</time>
</trkpt>
<trkpt lat="49.71471785567701" lon="9.543151818215849">
<ele>163.4</ele>
<time>2024-05-11T11:48:11Z</time>
</trkpt>
<trkpt lat="49.71473311074078" lon="9.543134635314344">
<ele>163.8</ele>
<time>2024-05-11T11:48:12Z</time>
</trkpt>
<trkpt lat="49.714744510129094" lon="9.543113680556417">
<ele>164</ele>
<time>2024-05-11T11:48:13Z</time>
</trkpt>
<trkpt lat="49.714759765192866" lon="9.543089792132378">
<ele>164.2</ele>
<time>2024-05-11T11:48:14Z</time>
</trkpt>
<trkpt lat="49.71477124840021" lon="9.5430679153651">
<ele>164.4</ele>
<time>2024-05-11T11:48:15Z</time>
</trkpt>
<trkpt lat="49.71478650346398" lon="9.54304687678814">
<ele>164.8</ele>
<time>2024-05-11T11:48:16Z</time>
</trkpt>
<trkpt lat="49.71480175852776" lon="9.543022150173783">
<ele>165</ele>
<time>2024-05-11T11:48:17Z</time>
</trkpt>
<trkpt lat="49.71481701359153" lon="9.542991556227207">
<ele>165.2</ele>
<time>2024-05-11T11:48:18Z</time>
</trkpt>
<trkpt lat="49.7148322686553" lon="9.542966829612851">
<ele>165.6</ele>
<time>2024-05-11T11:48:19Z</time>
</trkpt>
<trkpt lat="49.71484752371907" lon="9.542942019179463">
<ele>165.8</ele>
<time>2024-05-11T11:48:20Z</time>
</trkpt>
<trkpt lat="49.7148666344583" lon="9.542918130755424">
<ele>166</ele>
<time>2024-05-11T11:48:21Z</time>
</trkpt>
<trkpt lat="49.71488188952208" lon="9.542898098006845">
<ele>166.4</ele>
<time>2024-05-11T11:48:22Z</time>
</trkpt>
<trkpt lat="49.71489328891039" lon="9.542873371392488">
<ele>166.6</ele>
<time>2024-05-11T11:48:23Z</time>
</trkpt>
<trkpt lat="49.71490854397416" lon="9.5428485609591">
<ele>167</ele>
<time>2024-05-11T11:48:24Z</time>
</trkpt>
<trkpt lat="49.71492379903793" lon="9.542823750525711">
<ele>167.2</ele>
<time>2024-05-11T11:48:25Z</time>
</trkpt>
<trkpt lat="49.714939054101706" lon="9.542795168235898">
<ele>167.4</ele>
<time>2024-05-11T11:48:26Z</time>
</trkpt>
<trkpt lat="49.71495816484094" lon="9.54277035780251">
<ele>167.8</ele>
<time>2024-05-11T11:48:27Z</time>
</trkpt>
<trkpt lat="49.714977191761136" lon="9.542744625359774">
<ele>168</ele>
<time>2024-05-11T11:48:28Z</time>
</trkpt>
<trkpt lat="49.71499630250037" lon="9.542726436629891">
<ele>168.2</ele>
<time>2024-05-11T11:48:29Z</time>
</trkpt>
<trkpt lat="49.71501155756414" lon="9.542697854340076">
<ele>168.6</ele>
<time>2024-05-11T11:48:30Z</time>
</trkpt>
<trkpt lat="49.71502681262791" lon="9.542673043906689">
<ele>168.8</ele>
<time>2024-05-11T11:48:31Z</time>
</trkpt>
<trkpt lat="49.71504206769168" lon="9.542646389454603">
<ele>169</ele>
<time>2024-05-11T11:48:32Z</time>
</trkpt>
<trkpt lat="49.71505355089903" lon="9.542616801336408">
<ele>169.4</ele>
<time>2024-05-11T11:48:33Z</time>
</trkpt>
<trkpt lat="49.71506495028734" lon="9.542585369199514">
<ele>169.6</ele>
<time>2024-05-11T11:48:34Z</time>
</trkpt>
<trkpt lat="49.71508406102657" lon="9.54255293123424">
<ele>169.8</ele>
<time>2024-05-11T11:48:35Z</time>
</trkpt>
<trkpt lat="49.71510308794677" lon="9.542521415278316">
<ele>170</ele>
<time>2024-05-11T11:48:36Z</time>
</trkpt>
<trkpt lat="49.715118343010545" lon="9.542491910979152">
<ele>170.2</ele>
<time>2024-05-11T11:48:37Z</time>
</trkpt>
<trkpt lat="49.715137453749776" lon="9.542460395023229">
<ele>170.2</ele>
<time>2024-05-11T11:48:38Z</time>
</trkpt>
<trkpt lat="49.715156480669975" lon="9.542427035048604">
<ele>170.4</ele>
<time>2024-05-11T11:48:39Z</time>
</trkpt>
<trkpt lat="49.715175591409206" lon="9.54239367507398">
<ele>170.6</ele>
<time>2024-05-11T11:48:40Z</time>
</trkpt>
<trkpt lat="49.71519084647298" lon="9.542361237108707">
<ele>170.8</ele>
<time>2024-05-11T11:48:41Z</time>
</trkpt>
<trkpt lat="49.71520995721221" lon="9.54233357682824">
<ele>170.8</ele>
<time>2024-05-11T11:48:42Z</time>
</trkpt>
<trkpt lat="49.71522898413241" lon="9.54230021685362">
<ele>171</ele>
<time>2024-05-11T11:48:43Z</time>
</trkpt>
<trkpt lat="49.71524809487164" lon="9.542264929041266">
<ele>171.2</ele>
<time>2024-05-11T11:48:44Z</time>
</trkpt>
<trkpt lat="49.71526712179184" lon="9.54223341308534">
<ele>171.2</ele>
<time>2024-05-11T11:48:45Z</time>
</trkpt>
<trkpt lat="49.7152900043875" lon="9.542201980948448">
<ele>171.4</ele>
<time>2024-05-11T11:48:46Z</time>
</trkpt>
<trkpt lat="49.71530911512673" lon="9.542173314839602">
<ele>171.6</ele>
<time>2024-05-11T11:48:47Z</time>
</trkpt>
<trkpt lat="49.71532814204693" lon="9.542148588225244">
<ele>171.8</ele>
<time>2024-05-11T11:48:48Z</time>
</trkpt>
<trkpt lat="49.71533962525427" lon="9.54211799427867">
<ele>172</ele>
<time>2024-05-11T11:48:49Z</time>
</trkpt>
<trkpt lat="49.71535102464259" lon="9.542088489979506">
<ele>172.2</ele>
<time>2024-05-11T11:48:50Z</time>
</trkpt>
<trkpt lat="49.71536250784993" lon="9.54205697402358">
<ele>172.4</ele>
<time>2024-05-11T11:48:51Z</time>
</trkpt>
<trkpt lat="49.71537013538182" lon="9.542026463896036">
<ele>172.4</ele>
<time>2024-05-11T11:48:52Z</time>
</trkpt>
<trkpt lat="49.71538161858916" lon="9.54199788160622">
<ele>172.6</ele>
<time>2024-05-11T11:48:53Z</time>
</trkpt>
<trkpt lat="49.71539301797747" lon="9.541974999010565">
<ele>172.8</ele>
<time>2024-05-11T11:48:54Z</time>
</trkpt>
<trkpt lat="49.71540827304125" lon="9.541953038424252">
<ele>172.8</ele>
<time>2024-05-11T11:48:55Z</time>
</trkpt>
<trkpt lat="49.71542352810502" lon="9.541930155828595">
<ele>173</ele>
<time>2024-05-11T11:48:56Z</time>
</trkpt>
<trkpt lat="49.715435011312366" lon="9.541908195242286">
<ele>173</ele>
<time>2024-05-11T11:48:57Z</time>
</trkpt>
<trkpt lat="49.71544263884425" lon="9.54188346862793">
<ele>173.2</ele>
<time>2024-05-11T11:48:58Z</time>
</trkpt>
<trkpt lat="49.715454038232565" lon="9.541856730356812">
<ele>173.2</ele>
<time>2024-05-11T11:48:59Z</time>
</trkpt>
<trkpt lat="49.71546166576445" lon="9.541829992085695">
<ele>173.2</ele>
<time>2024-05-11T11:49:00Z</time>
</trkpt>
<trkpt lat="49.71547692082822" lon="9.54180333763361">
<ele>173.2</ele>
<time>2024-05-11T11:49:01Z</time>
</trkpt>
<trkpt lat="49.715492175891995" lon="9.541771821677685">
<ele>173.4</ele>
<time>2024-05-11T11:49:02Z</time>
</trkpt>
<trkpt lat="49.71550743095577" lon="9.541736533865333">
<ele>173.4</ele>
<time>2024-05-11T11:49:03Z</time>
</trkpt>
<trkpt lat="49.71552268601954" lon="9.54170124605298">
<ele>173.6</ele>
<time>2024-05-11T11:49:04Z</time>
</trkpt>
<trkpt lat="49.715534169226885" lon="9.541666964069009">
<ele>173.8</ele>
<time>2024-05-11T11:49:05Z</time>
</trkpt>
<trkpt lat="49.71554179675877" lon="9.541629748418927">
<ele>173.8</ele>
<time>2024-05-11T11:49:06Z</time>
</trkpt>
<trkpt lat="49.71554942429066" lon="9.541596388444304">
<ele>174</ele>
<time>2024-05-11T11:49:07Z</time>
</trkpt>
<trkpt lat="49.71554942429066" lon="9.541560094803572">
<ele>174</ele>
<time>2024-05-11T11:49:08Z</time>
</trkpt>
<trkpt lat="49.71554565243423" lon="9.541518185287714">
<ele>174.2</ele>
<time>2024-05-11T11:49:09Z</time>
</trkpt>
<trkpt lat="49.71555327996611" lon="9.541480047628284">
<ele>174.4</ele>
<time>2024-05-11T11:49:10Z</time>
</trkpt>
<trkpt lat="49.71555327996611" lon="9.541441909968851">
<ele>174.6</ele>
<time>2024-05-11T11:49:11Z</time>
</trkpt>
<trkpt lat="49.71554565243423" lon="9.5414084661752">
<ele>174.8</ele>
<time>2024-05-11T11:49:12Z</time>
</trkpt>
<trkpt lat="49.71554179675877" lon="9.541373178362846">
<ele>175</ele>
<time>2024-05-11T11:49:13Z</time>
</trkpt>
<trkpt lat="49.71554179675877" lon="9.541341746225951">
<ele>175.2</ele>
<time>2024-05-11T11:49:14Z</time>
</trkpt>
<trkpt lat="49.71554942429066" lon="9.541304530575871">
<ele>175.4</ele>
<time>2024-05-11T11:49:15Z</time>
</trkpt>
<trkpt lat="49.71555327996611" lon="9.54126832075417">
<ele>175.6</ele>
<time>2024-05-11T11:49:16Z</time>
</trkpt>
<trkpt lat="49.71555705182254" lon="9.54123018309474">
<ele>175.6</ele>
<time>2024-05-11T11:49:17Z</time>
</trkpt>
<trkpt lat="49.71555705182254" lon="9.54119011759758">
<ele>175.8</ele>
<time>2024-05-11T11:49:18Z</time>
</trkpt>
<trkpt lat="49.715560907498" lon="9.54115197993815">
<ele>175.8</ele>
<time>2024-05-11T11:49:19Z</time>
</trkpt>
<trkpt lat="49.71555705182254" lon="9.54110998660326">
<ele>176</ele>
<time>2024-05-11T11:49:20Z</time>
</trkpt>
<trkpt lat="49.71555327996611" lon="9.541067071259022">
<ele>176</ele>
<time>2024-05-11T11:49:21Z</time>
</trkpt>
<trkpt lat="49.71554942429066" lon="9.541020384058356">
<ele>176.2</ele>
<time>2024-05-11T11:49:22Z</time>
</trkpt>
<trkpt lat="49.71554565243423" lon="9.540974535048008">
<ele>176.4</ele>
<time>2024-05-11T11:49:23Z</time>
</trkpt>
<trkpt lat="49.71554179675877" lon="9.540929775685072">
<ele>176.6</ele>
<time>2024-05-11T11:49:24Z</time>
</trkpt>
<trkpt lat="49.71554179675877" lon="9.540884932503104">
<ele>176.8</ele>
<time>2024-05-11T11:49:25Z</time>
</trkpt>
<trkpt lat="49.71554179675877" lon="9.54083631746471">
<ele>177</ele>
<time>2024-05-11T11:49:26Z</time>
</trkpt>
<trkpt lat="49.71554179675877" lon="9.540786696597934">
<ele>177.2</ele>
<time>2024-05-11T11:49:27Z</time>
</trkpt>
<trkpt lat="49.715538024902344" lon="9.540740009397268">
<ele>177.4</ele>
<time>2024-05-11T11:49:28Z</time>
</trkpt>
<trkpt lat="49.715538024902344" lon="9.540684688836336">
<ele>177.6</ele>
<time>2024-05-11T11:49:29Z</time>
</trkpt>
<trkpt lat="49.715538024902344" lon="9.540628362447023">
<ele>177.8</ele>
<time>2024-05-11T11:49:30Z</time>
</trkpt>
<trkpt lat="49.71554179675877" lon="9.540566420182586">
<ele>178</ele>
<time>2024-05-11T11:49:31Z</time>
</trkpt>
<trkpt lat="49.71554179675877" lon="9.540503472089767">
<ele>178.2</ele>
<time>2024-05-11T11:49:32Z</time>
</trkpt>
<trkpt lat="49.71554179675877" lon="9.540441446006298">
<ele>178.4</ele>
<time>2024-05-11T11:49:33Z</time>
</trkpt>
<trkpt lat="49.715538024902344" lon="9.540388053283095">
<ele>178.6</ele>
<time>2024-05-11T11:49:34Z</time>
</trkpt>
<trkpt lat="49.715534169226885" lon="9.540329882875085">
<ele>178.8</ele>
<time>2024-05-11T11:49:35Z</time>
</trkpt>
<trkpt lat="49.715530313551426" lon="9.540269784629343">
<ele>178.8</ele>
<time>2024-05-11T11:49:36Z</time>
</trkpt>
<trkpt lat="49.715534169226885" lon="9.5402030646801">
<ele>179</ele>
<time>2024-05-11T11:49:37Z</time>
</trkpt>
<trkpt lat="49.715538024902344" lon="9.540133411064744">
<ele>179.2</ele>
<time>2024-05-11T11:49:38Z</time>
</trkpt>
<trkpt lat="49.715538024902344" lon="9.54006283544004">
<ele>179.4</ele>
<time>2024-05-11T11:49:39Z</time>
</trkpt>
<trkpt lat="49.71554179675877" lon="9.539995193481444">
<ele>179.6</ele>
<time>2024-05-11T11:49:40Z</time>
</trkpt>
<trkpt lat="49.71554942429066" lon="9.53992646187544">
<ele>179.8</ele>
<time>2024-05-11T11:49:41Z</time>
</trkpt>
<trkpt lat="49.71555327996611" lon="9.539856892079117">
<ele>180</ele>
<time>2024-05-11T11:49:42Z</time>
</trkpt>
<trkpt lat="49.71555705182254" lon="9.53978631645441">
<ele>180.2</ele>
<time>2024-05-11T11:49:43Z</time>
</trkpt>
<trkpt lat="49.71556853502989" lon="9.539716662839057">
<ele>180.4</ele>
<time>2024-05-11T11:49:44Z</time>
</trkpt>
<trkpt lat="49.715576162561774" lon="9.53964801505208">
<ele>180.6</ele>
<time>2024-05-11T11:49:45Z</time>
</trkpt>
<trkpt lat="49.71558756195009" lon="9.539574589580296">
<ele>180.6</ele>
<time>2024-05-11T11:49:46Z</time>
</trkpt>
<trkpt lat="49.71560667268932" lon="9.539493536576629">
<ele>180.8</ele>
<time>2024-05-11T11:49:47Z</time>
</trkpt>
<trkpt lat="49.71562955528498" lon="9.539416255429389">
<ele>180.8</ele>
<time>2024-05-11T11:49:48Z</time>
</trkpt>
<trkpt lat="49.715652437880635" lon="9.539331430569291">
<ele>180.8</ele>
<time>2024-05-11T11:49:49Z</time>
</trkpt>
<trkpt lat="49.71567909233272" lon="9.539255071431398">
<ele>180.8</ele>
<time>2024-05-11T11:49:50Z</time>
</trkpt>
<trkpt lat="49.71570197492838" lon="9.539184495806694">
<ele>180.6</ele>
<time>2024-05-11T11:49:51Z</time>
</trkpt>
<trkpt lat="49.71572494134307" lon="9.539101598784328">
<ele>180.4</ele>
<time>2024-05-11T11:49:52Z</time>
</trkpt>
<trkpt lat="49.71574396826327" lon="9.5390166901052">
<ele>180.2</ele>
<time>2024-05-11T11:49:53Z</time>
</trkpt>
<trkpt lat="49.71577447839081" lon="9.53891845420003">
<ele>180.2</ele>
<time>2024-05-11T11:49:54Z</time>
</trkpt>
<trkpt lat="49.71580498851836" lon="9.538813512772322">
<ele>180</ele>
<time>2024-05-11T11:49:55Z</time>
</trkpt>
<trkpt lat="49.715827871114016" lon="9.538711505010724">
<ele>179.6</ele>
<time>2024-05-11T11:49:56Z</time>
</trkpt>
<trkpt lat="49.715866008773446" lon="9.538610419258475">
<ele>179.4</ele>
<time>2024-05-11T11:49:57Z</time>
</trkpt>
<trkpt lat="49.71590037457645" lon="9.538508411496878">
<ele>179.2</ele>
<time>2024-05-11T11:49:58Z</time>
</trkpt>
<trkpt lat="49.71593851223588" lon="9.538406319916248">
<ele>178.8</ele>
<time>2024-05-11T11:49:59Z</time>
</trkpt>
<trkpt lat="49.71597287803888" lon="9.538301462307572">
<ele>178.4</ele>
<time>2024-05-11T11:50:00Z</time>
</trkpt>
<trkpt lat="49.716007160022855" lon="9.538194593042135">
<ele>178</ele>
<time>2024-05-11T11:50:01Z</time>
</trkpt>
<trkpt lat="49.71603389829397" lon="9.538082107901571">
<ele>177.6</ele>
<time>2024-05-11T11:50:02Z</time>
</trkpt>
<trkpt lat="49.716068264096975" lon="9.537959983572364">
<ele>177</ele>
<time>2024-05-11T11:50:03Z</time>
</trkpt>
<trkpt lat="49.71609491854906" lon="9.537844648584723">
<ele>176.6</ele>
<time>2024-05-11T11:50:04Z</time>
</trkpt>
<trkpt lat="49.71611780114472" lon="9.537725374102592">
<ele>176.2</ele>
<time>2024-05-11T11:50:05Z</time>
</trkpt>
<trkpt lat="49.71613305620849" lon="9.537605261430144">
<ele>175.6</ele>
<time>2024-05-11T11:50:06Z</time>
</trkpt>
<trkpt lat="49.71615593880415" lon="9.537491770461202">
<ele>175.2</ele>
<time>2024-05-11T11:50:07Z</time>
</trkpt>
<trkpt lat="49.71617882139981" lon="9.537369646131992">
<ele>174.6</ele>
<time>2024-05-11T11:50:08Z</time>
</trkpt>
<trkpt lat="49.71618267707527" lon="9.537251461297274">
<ele>174.2</ele>
<time>2024-05-11T11:50:09Z</time>
</trkpt>
<trkpt lat="49.716186448931694" lon="9.537139814347029">
<ele>173.6</ele>
<time>2024-05-11T11:50:10Z</time>
</trkpt>
<trkpt lat="49.71619793213904" lon="9.537006374448538">
<ele>173.2</ele>
<time>2024-05-11T11:50:11Z</time>
</trkpt>
<trkpt lat="49.71621318720281" lon="9.536872850731015">
<ele>172.6</ele>
<time>2024-05-11T11:50:12Z</time>
</trkpt>
<trkpt lat="49.71622467041016" lon="9.53674024902284">
<ele>172.2</ele>
<time>2024-05-11T11:50:13Z</time>
</trkpt>
<trkpt lat="49.71623606979847" lon="9.536609575152395">
<ele>171.6</ele>
<time>2024-05-11T11:50:14Z</time>
</trkpt>
<trkpt lat="49.71623229794204" lon="9.536453168839216">
<ele>171</ele>
<time>2024-05-11T11:50:15Z</time>
</trkpt>
<trkpt lat="49.71624369733035" lon="9.536352083086967">
<ele>170.6</ele>
<time>2024-05-11T11:50:16Z</time>
</trkpt>
<trkpt lat="49.71623992547393" lon="9.536252925172448">
<ele>170</ele>
<time>2024-05-11T11:50:17Z</time>
</trkpt>
<trkpt lat="49.71622844226658" lon="9.536133734509349">
<ele>169.6</ele>
<time>2024-05-11T11:50:18Z</time>
</trkpt>
<trkpt lat="49.71621318720281" lon="9.53600876033306">
<ele>169</ele>
<time>2024-05-11T11:50:19Z</time>
</trkpt>
<trkpt lat="49.716201703995466" lon="9.535861909389496">
<ele>168.4</ele>
<time>2024-05-11T11:50:20Z</time>
</trkpt>
<trkpt lat="49.716201703995466" lon="9.5357131306082">
<ele>168</ele>
<time>2024-05-11T11:50:21Z</time>
</trkpt>
<trkpt lat="49.71619793213904" lon="9.535571979358792">
<ele>167.4</ele>
<time>2024-05-11T11:50:22Z</time>
</trkpt>
<trkpt lat="49.716186448931694" lon="9.535431833937764">
<ele>167</ele>
<time>2024-05-11T11:50:23Z</time>
</trkpt>
<trkpt lat="49.71618267707527" lon="9.535295460373163">
<ele>166.4</ele>
<time>2024-05-11T11:50:24Z</time>
</trkpt>
<trkpt lat="49.71617119386792" lon="9.535158080980182">
<ele>165.8</ele>
<time>2024-05-11T11:50:25Z</time>
</trkpt>
<trkpt lat="49.71615979447961" lon="9.535019863396885">
<ele>165.2</ele>
<time>2024-05-11T11:50:26Z</time>
</trkpt>
<trkpt lat="49.71614831127226" lon="9.53488533385098">
<ele>164.6</ele>
<time>2024-05-11T11:50:27Z</time>
</trkpt>
<trkpt lat="49.71613691188395" lon="9.534751810133455">
<ele>164</ele>
<time>2024-05-11T11:50:28Z</time>
</trkpt>
<trkpt lat="49.716129284352064" lon="9.534614514559507">
<ele>163.4</ele>
<time>2024-05-11T11:50:29Z</time>
</trkpt>
<trkpt lat="49.71612165682018" lon="9.5344733633101">
<ele>162.8</ele>
<time>2024-05-11T11:50:30Z</time>
</trkpt>
<trkpt lat="49.716106401756406" lon="9.534328440204265">
<ele>162.2</ele>
<time>2024-05-11T11:50:31Z</time>
</trkpt>
<trkpt lat="49.71609877422452" lon="9.534179661422968">
<ele>161.6</ele>
<time>2024-05-11T11:50:32Z</time>
</trkpt>
<trkpt lat="49.716091146692634" lon="9.534031804651022">
<ele>160.8</ele>
<time>2024-05-11T11:50:33Z</time>
</trkpt>
<trkpt lat="49.71608351916075" lon="9.533882103860378">
<ele>160.2</ele>
<time>2024-05-11T11:50:34Z</time>
</trkpt>
<trkpt lat="49.71608351916075" lon="9.533733325079083">
<ele>159.4</ele>
<time>2024-05-11T11:50:35Z</time>
</trkpt>
<trkpt lat="49.7160720359534" lon="9.533590245991943">
<ele>158.8</ele>
<time>2024-05-11T11:50:36Z</time>
</trkpt>
<trkpt lat="49.716068264096975" lon="9.53344339504838">
<ele>158.2</ele>
<time>2024-05-11T11:50:37Z</time>
</trkpt>
<trkpt lat="49.71606063656509" lon="9.533296544104816">
<ele>157.4</ele>
<time>2024-05-11T11:50:38Z</time>
</trkpt>
<trkpt lat="49.716049153357744" lon="9.533148687332869">
<ele>156.8</ele>
<time>2024-05-11T11:50:39Z</time>
</trkpt>
<trkpt lat="49.716026270762086" lon="9.532997058704495">
<ele>156</ele>
<time>2024-05-11T11:50:40Z</time>
</trkpt>
<trkpt lat="49.71600338816643" lon="9.532836880534887">
<ele>155.2</ele>
<time>2024-05-11T11:50:41Z</time>
</trkpt>
<trkpt lat="49.71598050557077" lon="9.5326928794384">
<ele>154.6</ele>
<time>2024-05-11T11:50:42Z</time>
</trkpt>
<trkpt lat="49.71595376729965" lon="9.53255365602672">
<ele>153.8</ele>
<time>2024-05-11T11:50:43Z</time>
</trkpt>
<trkpt lat="49.71592711284757" lon="9.532420132309198">
<ele>153</ele>
<time>2024-05-11T11:50:44Z</time>
</trkpt>
<trkpt lat="49.71589274704456" lon="9.532264648005366">
<ele>152.4</ele>
<time>2024-05-11T11:50:45Z</time>
</trkpt>
<trkpt lat="49.71587749198079" lon="9.53211972489953">
<ele>151.8</ele>
<time>2024-05-11T11:50:46Z</time>
</trkpt>
<trkpt lat="49.71585460938513" lon="9.531972873955963">
<ele>151.4</ele>
<time>2024-05-11T11:50:47Z</time>
</trkpt>
<trkpt lat="49.71583935432136" lon="9.531820239499211">
<ele>150.8</ele>
<time>2024-05-11T11:50:48Z</time>
</trkpt>
<trkpt lat="49.71582409925759" lon="9.531706748530269">
<ele>150.4</ele>
<time>2024-05-11T11:50:49Z</time>
</trkpt>
<trkpt lat="49.7158164717257" lon="9.531601890921593">
<ele>150.2</ele>
<time>2024-05-11T11:50:50Z</time>
</trkpt>
<trkpt lat="49.71581261605024" lon="9.5315065048635">
<ele>150</ele>
<time>2024-05-11T11:50:51Z</time>
</trkpt>
<trkpt lat="49.71580498851836" lon="9.53140826895833">
<ele>150</ele>
<time>2024-05-11T11:50:52Z</time>
</trkpt>
<trkpt lat="49.71579358913005" lon="9.53131003305316">
<ele>150</ele>
<time>2024-05-11T11:50:53Z</time>
</trkpt>
<trkpt lat="49.7157821059227" lon="9.53121372498572">
<ele>150.2</ele>
<time>2024-05-11T11:50:54Z</time>
</trkpt>
<trkpt lat="49.71577833406627" lon="9.531120266765356">
<ele>150.2</ele>
<time>2024-05-11T11:50:55Z</time>
</trkpt>
<trkpt lat="49.715770706534386" lon="9.531024880707264">
<ele>150.2</ele>
<time>2024-05-11T11:50:56Z</time>
</trkpt>
<trkpt lat="49.71576685085893" lon="9.530926644802094">
<ele>150.2</ele>
<time>2024-05-11T11:50:57Z</time>
</trkpt>
<trkpt lat="49.71575922332704" lon="9.530826564878224">
<ele>150.4</ele>
<time>2024-05-11T11:50:58Z</time>
</trkpt>
<trkpt lat="49.71575545147061" lon="9.530725479125977">
<ele>150.4</ele>
<time>2024-05-11T11:50:59Z</time>
</trkpt>
<trkpt lat="49.71575922332704" lon="9.530623387545347">
<ele>150.4</ele>
<time>2024-05-11T11:51:00Z</time>
</trkpt>
<trkpt lat="49.71575922332704" lon="9.53052137978375">
<ele>150.4</ele>
<time>2024-05-11T11:51:01Z</time>
</trkpt>
<trkpt lat="49.71575922332704" lon="9.53042121604085">
<ele>150.2</ele>
<time>2024-05-11T11:51:02Z</time>
</trkpt>
<trkpt lat="49.7157630790025" lon="9.53032298013568">
<ele>150.2</ele>
<time>2024-05-11T11:51:03Z</time>
</trkpt>
<trkpt lat="49.7157630790025" lon="9.530228599905968">
<ele>150.2</ele>
<time>2024-05-11T11:51:04Z</time>
</trkpt>
<trkpt lat="49.71576685085893" lon="9.530135141685603">
<ele>150</ele>
<time>2024-05-11T11:51:05Z</time>
</trkpt>
<trkpt lat="49.71576685085893" lon="9.53004453331232">
<ele>149.8</ele>
<time>2024-05-11T11:51:06Z</time>
</trkpt>
<trkpt lat="49.715770706534386" lon="9.529953002929688">
<ele>149.8</ele>
<time>2024-05-11T11:51:07Z</time>
</trkpt>
<trkpt lat="49.71577833406627" lon="9.529863316565752">
<ele>149.6</ele>
<time>2024-05-11T11:51:08Z</time>
</trkpt>
<trkpt lat="49.71578596159816" lon="9.52977178618312">
<ele>149.6</ele>
<time>2024-05-11T11:51:09Z</time>
</trkpt>
<trkpt lat="49.715789733454585" lon="9.529678327962756">
<ele>149.6</ele>
<time>2024-05-11T11:51:10Z</time>
</trkpt>
<trkpt lat="49.71580498851836" lon="9.529586713761091">
<ele>149.6</ele>
<time>2024-05-11T11:51:11Z</time>
</trkpt>
<trkpt lat="49.71582024358213" lon="9.529495183378458">
<ele>149.4</ele>
<time>2024-05-11T11:51:12Z</time>
</trkpt>
<trkpt lat="49.715831726789474" lon="9.529406502842903">
<ele>149.4</ele>
<time>2024-05-11T11:51:13Z</time>
</trkpt>
<trkpt lat="49.7158354986459" lon="9.52931304462254">
<ele>149.4</ele>
<time>2024-05-11T11:51:14Z</time>
</trkpt>
<trkpt lat="49.715850753709674" lon="9.529221514239907">
<ele>149.4</ele>
<time>2024-05-11T11:51:15Z</time>
</trkpt>
<trkpt lat="49.71585838124156" lon="9.529127050191164">
<ele>149.4</ele>
<time>2024-05-11T11:51:16Z</time>
</trkpt>
<trkpt lat="49.71587363630533" lon="9.529026970267296">
<ele>149.4</ele>
<time>2024-05-11T11:51:17Z</time>
</trkpt>
<trkpt lat="49.715888975188136" lon="9.528931584209204">
<ele>149.4</ele>
<time>2024-05-11T11:51:18Z</time>
</trkpt>
<trkpt lat="49.71590037457645" lon="9.528828570619226">
<ele>149.4</ele>
<time>2024-05-11T11:51:19Z</time>
</trkpt>
<trkpt lat="49.71591948531568" lon="9.528724635019898">
<ele>149.4</ele>
<time>2024-05-11T11:51:20Z</time>
</trkpt>
<trkpt lat="49.71593474037945" lon="9.528617849573491">
<ele>149.4</ele>
<time>2024-05-11T11:51:21Z</time>
</trkpt>
<trkpt lat="49.71595376729965" lon="9.528512908145784">
<ele>149.6</ele>
<time>2024-05-11T11:51:22Z</time>
</trkpt>
<trkpt lat="49.71597287803888" lon="9.528411822393537">
<ele>149.6</ele>
<time>2024-05-11T11:51:23Z</time>
</trkpt>
<trkpt lat="49.71599576063454" lon="9.528314508497717">
<ele>149.8</ele>
<time>2024-05-11T11:51:24Z</time>
</trkpt>
<trkpt lat="49.71601478755474" lon="9.528220128268003">
<ele>149.8</ele>
<time>2024-05-11T11:51:25Z</time>
</trkpt>
<trkpt lat="49.7160376701504" lon="9.528122898191214">
<ele>150</ele>
<time>2024-05-11T11:51:26Z</time>
</trkpt>
<trkpt lat="49.71606440842152" lon="9.528033211827278">
<ele>150</ele>
<time>2024-05-11T11:51:27Z</time>
</trkpt>
<trkpt lat="49.71609491854906" lon="9.52794830314815">
<ele>150.2</ele>
<time>2024-05-11T11:51:28Z</time>
</trkpt>
<trkpt lat="49.71612165682018" lon="9.527858700603248">
<ele>150.2</ele>
<time>2024-05-11T11:51:29Z</time>
</trkpt>
<trkpt lat="49.71614831127226" lon="9.527770020067692">
<ele>150.4</ele>
<time>2024-05-11T11:51:30Z</time>
</trkpt>
<trkpt lat="49.71617504954338" lon="9.527680333703756">
<ele>150.4</ele>
<time>2024-05-11T11:51:31Z</time>
</trkpt>
<trkpt lat="49.716201703995466" lon="9.527586875483394">
<ele>150.4</ele>
<time>2024-05-11T11:51:32Z</time>
</trkpt>
<trkpt lat="49.71622844226658" lon="9.527489645406604">
<ele>150.4</ele>
<time>2024-05-11T11:51:33Z</time>
</trkpt>
<trkpt lat="49.71625895239413" lon="9.52739518135786">
<ele>150.4</ele>
<time>2024-05-11T11:51:34Z</time>
</trkpt>
<trkpt lat="49.71629331819713" lon="9.5272998791188">
<ele>150.2</ele>
<time>2024-05-11T11:51:35Z</time>
</trkpt>
<trkpt lat="49.71633145585656" lon="9.527204493060708">
<ele>150</ele>
<time>2024-05-11T11:51:36Z</time>
</trkpt>
<trkpt lat="49.71635811030865" lon="9.527105251327155">
<ele>149.8</ele>
<time>2024-05-11T11:51:37Z</time>
</trkpt>
<trkpt lat="49.716380992904305" lon="9.526991844177246">
<ele>149.6</ele>
<time>2024-05-11T11:51:38Z</time>
</trkpt>
<trkpt lat="49.71637722104788" lon="9.526873575523496">
<ele>149.4</ele>
<time>2024-05-11T11:51:39Z</time>
</trkpt>
<trkpt lat="49.71637336537242" lon="9.526758156716824">
<ele>149</ele>
<time>2024-05-11T11:51:40Z</time>
</trkpt>
<trkpt lat="49.716380992904305" lon="9.526637038215997">
<ele>148.6</ele>
<time>2024-05-11T11:51:41Z</time>
</trkpt>
<trkpt lat="49.71637722104788" lon="9.526521619409325">
<ele>148.2</ele>
<time>2024-05-11T11:51:42Z</time>
</trkpt>
<trkpt lat="49.71637336537242" lon="9.526399578899143">
<ele>147.8</ele>
<time>2024-05-11T11:51:43Z</time>
</trkpt>
<trkpt lat="49.71637336537242" lon="9.526285165920854">
<ele>147.6</ele>
<time>2024-05-11T11:51:44Z</time>
</trkpt>
<trkpt lat="49.71637722104788" lon="9.526186930015683">
<ele>147.2</ele>
<time>2024-05-11T11:51:45Z</time>
</trkpt>
<trkpt lat="49.71637722104788" lon="9.526084838435054">
<ele>147</ele>
<time>2024-05-11T11:51:46Z</time>
</trkpt>
<trkpt lat="49.71638484857976" lon="9.525998085737228">
<ele>146.8</ele>
<time>2024-05-11T11:51:47Z</time>
</trkpt>
<trkpt lat="49.71640010364354" lon="9.525921810418367">
<ele>146.6</ele>
<time>2024-05-11T11:51:48Z</time>
</trkpt>
<trkpt lat="49.71641921438277" lon="9.525850228965282">
<ele>146.4</ele>
<time>2024-05-11T11:51:49Z</time>
</trkpt>
<trkpt lat="49.71643824130297" lon="9.525779653340578">
<ele>146.2</ele>
<time>2024-05-11T11:51:50Z</time>
</trkpt>
<trkpt lat="49.7164573520422" lon="9.52571963891387">
<ele>146.2</ele>
<time>2024-05-11T11:51:51Z</time>
</trkpt>
<trkpt lat="49.7164763789624" lon="9.525666162371635">
<ele>146</ele>
<time>2024-05-11T11:51:52Z</time>
</trkpt>
<trkpt lat="49.71650688908994" lon="9.525614697486162">
<ele>145.8</ele>
<time>2024-05-11T11:51:53Z</time>
</trkpt>
<trkpt lat="49.7165297716856" lon="9.525574631989002">
<ele>145.8</ele>
<time>2024-05-11T11:51:54Z</time>
</trkpt>
<trkpt lat="49.71654502674937" lon="9.52554035000503">
<ele>145.8</ele>
<time>2024-05-11T11:51:55Z</time>
</trkpt>
<trkpt lat="49.716560281813145" lon="9.525506906211376">
<ele>145.6</ele>
<time>2024-05-11T11:51:56Z</time>
</trkpt>
<trkpt lat="49.71657176502049" lon="9.525476396083832">
<ele>145.6</ele>
<time>2024-05-11T11:51:57Z</time>
</trkpt>
<trkpt lat="49.71658702008426" lon="9.525449741631746">
<ele>145.4</ele>
<time>2024-05-11T11:51:58Z</time>
</trkpt>
<trkpt lat="49.71659850329161" lon="9.525428703054786">
<ele>145.4</ele>
<time>2024-05-11T11:51:59Z</time>
</trkpt>
<trkpt lat="49.716621385887265" lon="9.525408670306206">
<ele>145.4</ele>
<time>2024-05-11T11:52:00Z</time>
</trkpt>
<trkpt lat="49.71664804033935" lon="9.52540012076497">
<ele>145.2</ele>
<time>2024-05-11T11:52:01Z</time>
</trkpt>
<trkpt lat="49.716678550466895" lon="9.525408670306206">
<ele>145.2</ele>
<time>2024-05-11T11:52:02Z</time>
</trkpt>
<trkpt lat="49.71670143306255" lon="9.525431552901864">
<ele>145.2</ele>
<time>2024-05-11T11:52:03Z</time>
</trkpt>
<trkpt lat="49.716739654541016" lon="9.525463068857787">
<ele>145.2</ele>
<time>2024-05-11T11:52:04Z</time>
</trkpt>
<trkpt lat="49.71677393652499" lon="9.525516461580992">
<ele>145.2</ele>
<time>2024-05-11T11:52:05Z</time>
</trkpt>
<trkpt lat="49.716800674796104" lon="9.525585109367968">
<ele>145.2</ele>
<time>2024-05-11T11:52:06Z</time>
</trkpt>
<trkpt lat="49.71681592985988" lon="9.525666162371635">
<ele>145.2</ele>
<time>2024-05-11T11:52:07Z</time>
</trkpt>
<trkpt lat="49.71683495678008" lon="9.525751993060112">
<ele>145.2</ele>
<time>2024-05-11T11:52:08Z</time>
</trkpt>
<trkpt lat="49.71686169505119" lon="9.525831202045085">
<ele>145.2</ele>
<time>2024-05-11T11:52:09Z</time>
</trkpt>
<trkpt lat="49.71688834950328" lon="9.525897921994328">
<ele>145</ele>
<time>2024-05-11T11:52:10Z</time>
</trkpt>
<trkpt lat="49.716918943449855" lon="9.525964725762606">
<ele>144.8</ele>
<time>2024-05-11T11:52:11Z</time>
</trkpt>
<trkpt lat="49.7169684804976" lon="9.526000013574958">
<ele>144.8</ele>
<time>2024-05-11T11:52:12Z</time>
</trkpt>
<trkpt lat="49.7170218732208" lon="9.52603622339666">
<ele>144.6</ele>
<time>2024-05-11T11:52:13Z</time>
</trkpt>
<trkpt lat="49.71707149408758" lon="9.526051478460433">
<ele>144.6</ele>
<time>2024-05-11T11:52:14Z</time>
</trkpt>
<trkpt lat="49.71712488681078" lon="9.526051478460433">
<ele>144.4</ele>
<time>2024-05-11T11:52:15Z</time>
</trkpt>
<trkpt lat="49.71718213520944" lon="9.526022896170616">
<ele>144.2</ele>
<time>2024-05-11T11:52:16Z</time>
</trkpt>
<trkpt lat="49.717231672257185" lon="9.52597327530384">
<ele>144.2</ele>
<time>2024-05-11T11:52:17Z</time>
</trkpt>
<trkpt lat="49.71726989373565" lon="9.525910327211022">
<ele>144</ele>
<time>2024-05-11T11:52:18Z</time>
</trkpt>
<trkpt lat="49.71730417571962" lon="9.525841679424047">
<ele>143.8</ele>
<time>2024-05-11T11:52:19Z</time>
</trkpt>
<trkpt lat="49.71734231337905" lon="9.525770181789994">
<ele>143.6</ele>
<time>2024-05-11T11:52:20Z</time>
</trkpt>
<trkpt lat="49.71738045103848" lon="9.52569667249918">
<ele>143.6</ele>
<time>2024-05-11T11:52:21Z</time>
</trkpt>
<trkpt lat="49.71741858869791" lon="9.525632802397013">
<ele>143.4</ele>
<time>2024-05-11T11:52:22Z</time>
</trkpt>
<trkpt lat="49.71745681017637" lon="9.525573709979652">
<ele>143.4</ele>
<time>2024-05-11T11:52:23Z</time>
</trkpt>
<trkpt lat="49.71749871969223" lon="9.5255212392658">
<ele>143.4</ele>
<time>2024-05-11T11:52:24Z</time>
</trkpt>
<trkpt lat="49.71754448488355" lon="9.525474468246102">
<ele>143.2</ele>
<time>2024-05-11T11:52:25Z</time>
</trkpt>
<trkpt lat="49.71759025007486" lon="9.525431552901864">
<ele>143</ele>
<time>2024-05-11T11:52:26Z</time>
</trkpt>
<trkpt lat="49.71763609908521" lon="9.525386793538928">
<ele>142.8</ele>
<time>2024-05-11T11:52:27Z</time>
</trkpt>
<trkpt lat="49.71768186427653" lon="9.52534287236631">
<ele>142.8</ele>
<time>2024-05-11T11:52:28Z</time>
</trkpt>
<trkpt lat="49.717723773792386" lon="9.525298113003371">
<ele>142.6</ele>
<time>2024-05-11T11:52:29Z</time>
</trkpt>
<trkpt lat="49.71777339465916" lon="9.525255197659137">
<ele>142.4</ele>
<time>2024-05-11T11:52:30Z</time>
</trkpt>
<trkpt lat="49.71781915985048" lon="9.525213204324244">
<ele>142.4</ele>
<time>2024-05-11T11:52:31Z</time>
</trkpt>
<trkpt lat="49.717868780717254" lon="9.525170288980007">
<ele>142.2</ele>
<time>2024-05-11T11:52:32Z</time>
</trkpt>
<trkpt lat="49.71791069023311" lon="9.525131145492196">
<ele>142.2</ele>
<time>2024-05-11T11:52:33Z</time>
</trkpt>
<trkpt lat="49.717952683568" lon="9.525093007832766">
<ele>142.2</ele>
<time>2024-05-11T11:52:34Z</time>
</trkpt>
<trkpt lat="49.71799467690289" lon="9.525052942335606">
<ele>142.2</ele>
<time>2024-05-11T11:52:35Z</time>
</trkpt>
<trkpt lat="49.71804044209421" lon="9.525018660351634">
<ele>142</ele>
<time>2024-05-11T11:52:36Z</time>
</trkpt>
<trkpt lat="49.71808620728552" lon="9.524985300377011">
<ele>142</ele>
<time>2024-05-11T11:52:37Z</time>
</trkpt>
<trkpt lat="49.71813197247684" lon="9.524954790249469">
<ele>141.8</ele>
<time>2024-05-11T11:52:38Z</time>
</trkpt>
<trkpt lat="49.71817773766816" lon="9.524925202131271">
<ele>141.8</ele>
<time>2024-05-11T11:52:39Z</time>
</trkpt>
<trkpt lat="49.71822350285947" lon="9.524898463860154">
<ele>141.8</ele>
<time>2024-05-11T11:52:40Z</time>
</trkpt>
<trkpt lat="49.71826549619436" lon="9.52486795373261">
<ele>141.8</ele>
<time>2024-05-11T11:52:41Z</time>
</trkpt>
<trkpt lat="49.71831511706114" lon="9.524843143299222">
<ele>141.6</ele>
<time>2024-05-11T11:52:42Z</time>
</trkpt>
<trkpt lat="49.718360882252455" lon="9.524820260703564">
<ele>141.6</ele>
<time>2024-05-11T11:52:43Z</time>
</trkpt>
<trkpt lat="49.71840279176831" lon="9.524801233783364">
<ele>141.6</ele>
<time>2024-05-11T11:52:44Z</time>
</trkpt>
<trkpt lat="49.71844855695963" lon="9.52478782273829">
<ele>141.6</ele>
<time>2024-05-11T11:52:45Z</time>
</trkpt>
<trkpt lat="49.71849440596998" lon="9.524773573502898">
<ele>141.4</ele>
<time>2024-05-11T11:52:46Z</time>
</trkpt>
<trkpt lat="49.718540171161294" lon="9.524758318439126">
<ele>141.4</ele>
<time>2024-05-11T11:52:47Z</time>
</trkpt>
<trkpt lat="49.71858208067715" lon="9.524738285690546">
<ele>141.4</ele>
<time>2024-05-11T11:52:48Z</time>
</trkpt>
<trkpt lat="49.71863170154393" lon="9.524720180779696">
<ele>141.4</ele>
<time>2024-05-11T11:52:49Z</time>
</trkpt>
<trkpt lat="49.7186813224107" lon="9.52470869757235">
<ele>141.4</ele>
<time>2024-05-11T11:52:50Z</time>
</trkpt>
<trkpt lat="49.71873085945845" lon="9.524693442508578">
<ele>141.4</ele>
<time>2024-05-11T11:52:51Z</time>
</trkpt>
<trkpt lat="49.71877662464976" lon="9.524675337597728">
<ele>141.2</ele>
<time>2024-05-11T11:52:52Z</time>
</trkpt>
<trkpt lat="49.718830101192" lon="9.524658154696226">
<ele>141.2</ele>
<time>2024-05-11T11:52:53Z</time>
</trkpt>
<trkpt lat="49.718875866383314" lon="9.524642899632454">
<ele>141</ele>
<time>2024-05-11T11:52:54Z</time>
</trkpt>
<trkpt lat="49.71891777589917" lon="9.52463150024414">
<ele>140.8</ele>
<time>2024-05-11T11:52:55Z</time>
</trkpt>
<trkpt lat="49.71895976923406" lon="9.524618089199066">
<ele>140.8</ele>
<time>2024-05-11T11:52:56Z</time>
</trkpt>
<trkpt lat="49.719013161957264" lon="9.524601912125943">
<ele>140.6</ele>
<time>2024-05-11T11:52:57Z</time>
</trkpt>
<trkpt lat="49.71906278282404" lon="9.524584729224443">
<ele>140.6</ele>
<time>2024-05-11T11:52:58Z</time>
</trkpt>
<trkpt lat="49.71911617554724" lon="9.524583807215096">
<ele>140.4</ele>
<time>2024-05-11T11:52:59Z</time>
</trkpt>
<trkpt lat="49.719169568270445" lon="9.524581879377363">
<ele>140.4</ele>
<time>2024-05-11T11:53:00Z</time>
</trkpt>
<trkpt lat="49.71921533346176" lon="9.524578023701906">
<ele>140.4</ele>
<time>2024-05-11T11:53:01Z</time>
</trkpt>
<trkpt lat="49.71926495432854" lon="9.524568552151322">
<ele>140.2</ele>
<time>2024-05-11T11:53:02Z</time>
</trkpt>
<trkpt lat="49.71931457519531" lon="9.524557068943976">
<ele>140.2</ele>
<time>2024-05-11T11:53:03Z</time>
</trkpt>
<trkpt lat="49.719364112243056" lon="9.524548519402742">
<ele>140.2</ele>
<time>2024-05-11T11:53:04Z</time>
</trkpt>
<trkpt lat="49.71940987743437" lon="9.524541813880203">
<ele>140.2</ele>
<time>2024-05-11T11:53:05Z</time>
</trkpt>
<trkpt lat="49.71945949830115" lon="9.524528486654162">
<ele>140.2</ele>
<time>2024-05-11T11:53:06Z</time>
</trkpt>
<trkpt lat="49.71950911916792" lon="9.524515075609088">
<ele>140</ele>
<time>2024-05-11T11:53:07Z</time>
</trkpt>
<trkpt lat="49.71955865621567" lon="9.524504598230124">
<ele>140</ele>
<time>2024-05-11T11:53:08Z</time>
</trkpt>
<trkpt lat="49.71960827708244" lon="9.524495042860508">
<ele>139.8</ele>
<time>2024-05-11T11:53:09Z</time>
</trkpt>
<trkpt lat="49.71965789794922" lon="9.524484565481544">
<ele>139.6</ele>
<time>2024-05-11T11:53:10Z</time>
</trkpt>
<trkpt lat="49.719703663140535" lon="9.524477943778038">
<ele>139.6</ele>
<time>2024-05-11T11:53:11Z</time>
</trkpt>
<trkpt lat="49.71975320018828" lon="9.5244712382555">
<ele>139.4</ele>
<time>2024-05-11T11:53:12Z</time>
</trkpt>
<trkpt lat="49.719802821055055" lon="9.524464532732964">
<ele>139.4</ele>
<time>2024-05-11T11:53:13Z</time>
</trkpt>
<trkpt lat="49.71985244192183" lon="9.52445506118238">
<ele>139.4</ele>
<time>2024-05-11T11:53:14Z</time>
</trkpt>
<trkpt lat="49.719901978969574" lon="9.524444499984384">
<ele>139.2</ele>
<time>2024-05-11T11:53:15Z</time>
</trkpt>
<trkpt lat="49.71995159983635" lon="9.5244350284338">
<ele>139</ele>
<time>2024-05-11T11:53:16Z</time>
</trkpt>
<trkpt lat="49.720001220703125" lon="9.524426395073531">
<ele>139</ele>
<time>2024-05-11T11:53:17Z</time>
</trkpt>
<trkpt lat="49.72005075775087" lon="9.524423545226457">
<ele>138.8</ele>
<time>2024-05-11T11:53:18Z</time>
</trkpt>
<trkpt lat="49.720096522942185" lon="9.524419773370028">
<ele>138.6</ele>
<time>2024-05-11T11:53:19Z</time>
</trkpt>
<trkpt lat="49.72014614380896" lon="9.52441692352295">
<ele>138.6</ele>
<time>2024-05-11T11:53:20Z</time>
</trkpt>
<trkpt lat="49.72019190900028" lon="9.52441214583814">
<ele>138.4</ele>
<time>2024-05-11T11:53:21Z</time>
</trkpt>
<trkpt lat="49.72024152986705" lon="9.524410218000412">
<ele>138.4</ele>
<time>2024-05-11T11:53:22Z</time>
</trkpt>
<trkpt lat="49.72028729505837" lon="9.524410218000412">
<ele>138.2</ele>
<time>2024-05-11T11:53:23Z</time>
</trkpt>
<trkpt lat="49.72033683210611" lon="9.52441306784749">
<ele>138.2</ele>
<time>2024-05-11T11:53:24Z</time>
</trkpt>
<trkpt lat="49.72038645297289" lon="9.52441692352295">
<ele>138.2</ele>
<time>2024-05-11T11:53:25Z</time>
</trkpt>
<trkpt lat="49.72042844630778" lon="9.524419773370028">
<ele>138.2</ele>
<time>2024-05-11T11:53:26Z</time>
</trkpt>
<trkpt lat="49.72047035582363" lon="9.524423545226457">
<ele>138</ele>
<time>2024-05-11T11:53:27Z</time>
</trkpt>
<trkpt lat="49.720512349158525" lon="9.524426395073531">
<ele>138</ele>
<time>2024-05-11T11:53:28Z</time>
</trkpt>
<trkpt lat="49.720554342493415" lon="9.524428322911264">
<ele>138</ele>
<time>2024-05-11T11:53:29Z</time>
</trkpt>
<trkpt lat="49.72059625200927" lon="9.524430250748992">
<ele>138</ele>
<time>2024-05-11T11:53:30Z</time>
</trkpt>
<trkpt lat="49.72063824534416" lon="9.524436872452496">
<ele>138</ele>
<time>2024-05-11T11:53:31Z</time>
</trkpt>
<trkpt lat="49.72068786621094" lon="9.524448355659842">
<ele>138</ele>
<time>2024-05-11T11:53:32Z</time>
</trkpt>
<trkpt lat="49.72073740325868" lon="9.524459838867188">
<ele>138</ele>
<time>2024-05-11T11:53:33Z</time>
</trkpt>
<trkpt lat="49.72078316845" lon="9.524470316246152">
<ele>138.2</ele>
<time>2024-05-11T11:53:34Z</time>
</trkpt>
<trkpt lat="49.72082516178489" lon="9.524483643472196">
<ele>138.2</ele>
<time>2024-05-11T11:53:35Z</time>
</trkpt>
<trkpt lat="49.72087092697621" lon="9.524496970698236">
<ele>138.2</ele>
<time>2024-05-11T11:53:36Z</time>
</trkpt>
<trkpt lat="49.720909064635634" lon="9.52451323159039">
<ele>138.2</ele>
<time>2024-05-11T11:53:37Z</time>
</trkpt>
<trkpt lat="49.72095105797053" lon="9.524518009275198">
<ele>138.2</ele>
<time>2024-05-11T11:53:38Z</time>
</trkpt>
<trkpt lat="49.720989195629954" lon="9.524528486654162">
<ele>138.2</ele>
<time>2024-05-11T11:53:39Z</time>
</trkpt>
<trkpt lat="49.72103118896485" lon="9.524539886042476">
<ele>138</ele>
<time>2024-05-11T11:53:40Z</time>
</trkpt>
<trkpt lat="49.7210730984807" lon="9.52455036342144">
<ele>138</ele>
<time>2024-05-11T11:53:41Z</time>
</trkpt>
<trkpt lat="49.72111509181559" lon="9.524566624313591">
<ele>138</ele>
<time>2024-05-11T11:53:42Z</time>
</trkpt>
<trkpt lat="49.72115322947502" lon="9.524583807215096">
<ele>137.8</ele>
<time>2024-05-11T11:53:43Z</time>
</trkpt>
<trkpt lat="49.72119513899088" lon="9.524601912125943">
<ele>137.8</ele>
<time>2024-05-11T11:53:44Z</time>
</trkpt>
<trkpt lat="49.72123713232577" lon="9.524626722559333">
<ele>137.8</ele>
<time>2024-05-11T11:53:45Z</time>
</trkpt>
<trkpt lat="49.72127912566066" lon="9.524653377011418">
<ele>138</ele>
<time>2024-05-11T11:53:46Z</time>
</trkpt>
<trkpt lat="49.72132103517651" lon="9.524680115282536">
<ele>138</ele>
<time>2024-05-11T11:53:47Z</time>
</trkpt>
<trkpt lat="49.721363028511405" lon="9.524704925715923">
<ele>138</ele>
<time>2024-05-11T11:53:48Z</time>
</trkpt>
<trkpt lat="49.721405021846294" lon="9.524733508005738">
<ele>138.2</ele>
<time>2024-05-11T11:53:49Z</time>
</trkpt>
<trkpt lat="49.721443159505725" lon="9.524761168286204">
<ele>138.2</ele>
<time>2024-05-11T11:53:50Z</time>
</trkpt>
<trkpt lat="49.72148506902158" lon="9.524794528260829">
<ele>138.2</ele>
<time>2024-05-11T11:53:51Z</time>
</trkpt>
<trkpt lat="49.72152706235647" lon="9.524825038388371">
<ele>138.4</ele>
<time>2024-05-11T11:53:52Z</time>
</trkpt>
<trkpt lat="49.72156905569136" lon="9.524853704497218">
<ele>138.4</ele>
<time>2024-05-11T11:53:53Z</time>
</trkpt>
<trkpt lat="49.72160719335079" lon="9.524881280958652">
<ele>138.4</ele>
<time>2024-05-11T11:53:54Z</time>
</trkpt>
<trkpt lat="49.72164533101022" lon="9.524911874905229">
<ele>138.6</ele>
<time>2024-05-11T11:53:55Z</time>
</trkpt>
<trkpt lat="49.72169109620154" lon="9.524943307042122">
<ele>138.6</ele>
<time>2024-05-11T11:53:56Z</time>
</trkpt>
<trkpt lat="49.72173308953643" lon="9.524983372539282">
<ele>138.6</ele>
<time>2024-05-11T11:53:57Z</time>
</trkpt>
<trkpt lat="49.721774999052286" lon="9.52502628788352">
<ele>138.6</ele>
<time>2024-05-11T11:53:58Z</time>
</trkpt>
<trkpt lat="49.7218207642436" lon="9.525063503533602">
<ele>138.6</ele>
<time>2024-05-11T11:53:59Z</time>
</trkpt>
<trkpt lat="49.72185890190303" lon="9.525101641193032">
<ele>138.6</ele>
<time>2024-05-11T11:54:00Z</time>
</trkpt>
<trkpt lat="49.72190475091338" lon="9.525136929005384">
<ele>138.6</ele>
<time>2024-05-11T11:54:01Z</time>
</trkpt>
<trkpt lat="49.7219505161047" lon="9.525175066664817">
<ele>138.6</ele>
<time>2024-05-11T11:54:02Z</time>
</trkpt>
<trkpt lat="49.72200005315244" lon="9.525217982009051">
<ele>138.6</ele>
<time>2024-05-11T11:54:03Z</time>
</trkpt>
<trkpt lat="49.72204967401922" lon="9.525266597047448">
<ele>138.6</ele>
<time>2024-05-11T11:54:04Z</time>
</trkpt>
<trkpt lat="49.722095439210534" lon="9.525313368067144">
<ele>138.6</ele>
<time>2024-05-11T11:54:05Z</time>
</trkpt>
<trkpt lat="49.72214120440185" lon="9.525351505726576">
<ele>138.6</ele>
<time>2024-05-11T11:54:06Z</time>
</trkpt>
<trkpt lat="49.722190825268626" lon="9.52538008801639">
<ele>138.6</ele>
<time>2024-05-11T11:54:07Z</time>
</trkpt>
<trkpt lat="49.72223659045994" lon="9.52541822567582">
<ele>138.6</ele>
<time>2024-05-11T11:54:08Z</time>
</trkpt>
<trkpt lat="49.72228235565126" lon="9.525447813794017">
<ele>138.6</ele>
<time>2024-05-11T11:54:09Z</time>
</trkpt>
<trkpt lat="49.722331976518035" lon="9.525471618399024">
<ele>138.6</ele>
<time>2024-05-11T11:54:10Z</time>
</trkpt>
<trkpt lat="49.72237388603389" lon="9.525496428832412">
<ele>138.6</ele>
<time>2024-05-11T11:54:11Z</time>
</trkpt>
<trkpt lat="49.72241973504424" lon="9.525525011122228">
<ele>138.6</ele>
<time>2024-05-11T11:54:12Z</time>
</trkpt>
<trkpt lat="49.72246550023556" lon="9.525565076619388">
<ele>138.6</ele>
<time>2024-05-11T11:54:13Z</time>
</trkpt>
<trkpt lat="49.722507409751415" lon="9.525609919801354">
<ele>138.6</ele>
<time>2024-05-11T11:54:14Z</time>
</trkpt>
<trkpt lat="49.722549403086305" lon="9.525646129623055">
<ele>138.6</ele>
<time>2024-05-11T11:54:15Z</time>
</trkpt>
<trkpt lat="49.722591396421194" lon="9.525685273110868">
<ele>138.6</ele>
<time>2024-05-11T11:54:16Z</time>
</trkpt>
<trkpt lat="49.722625678405166" lon="9.525721482932568">
<ele>138.6</ele>
<time>2024-05-11T11:54:17Z</time>
</trkpt>
<trkpt lat="49.72266004420817" lon="9.525765404105186">
<ele>138.8</ele>
<time>2024-05-11T11:54:18Z</time>
</trkpt>
<trkpt lat="49.72269432619214" lon="9.525806391611695">
<ele>138.8</ele>
<time>2024-05-11T11:54:19Z</time>
</trkpt>
<trkpt lat="49.722728691995144" lon="9.525848384946585">
<ele>138.8</ele>
<time>2024-05-11T11:54:20Z</time>
</trkpt>
<trkpt lat="49.72276305779815" lon="9.525890294462442">
<ele>138.8</ele>
<time>2024-05-11T11:54:21Z</time>
</trkpt>
<trkpt lat="49.72280119545758" lon="9.525931281968951">
<ele>138.8</ele>
<time>2024-05-11T11:54:22Z</time>
</trkpt>
<trkpt lat="49.72283933311701" lon="9.525979980826378">
<ele>139</ele>
<time>2024-05-11T11:54:23Z</time>
</trkpt>
<trkpt lat="49.72287747077644" lon="9.526031445711851">
<ele>139</ele>
<time>2024-05-11T11:54:24Z</time>
</trkpt>
<trkpt lat="49.722923235967755" lon="9.526086766272783">
<ele>139.2</ele>
<time>2024-05-11T11:54:25Z</time>
</trkpt>
<trkpt lat="49.72297285683453" lon="9.526138231158257">
<ele>139.2</ele>
<time>2024-05-11T11:54:26Z</time>
</trkpt>
<trkpt lat="49.72302624955773" lon="9.52619455754757">
<ele>139.2</ele>
<time>2024-05-11T11:54:27Z</time>
</trkpt>
<trkpt lat="49.72308341413736" lon="9.526256499812009">
<ele>139.2</ele>
<time>2024-05-11T11:54:28Z</time>
</trkpt>
<trkpt lat="49.723140662536025" lon="9.526325147598982">
<ele>139</ele>
<time>2024-05-11T11:54:29Z</time>
</trkpt>
<trkpt lat="49.72319791093469" lon="9.526394801214336">
<ele>139</ele>
<time>2024-05-11T11:54:30Z</time>
</trkpt>
<trkpt lat="49.72325130365789" lon="9.526454899460076">
<ele>139</ele>
<time>2024-05-11T11:54:31Z</time>
</trkpt>
<trkpt lat="49.72330855205655" lon="9.526514997705815">
<ele>139</ele>
<time>2024-05-11T11:54:32Z</time>
</trkpt>
<trkpt lat="49.723361944779754" lon="9.526579789817331">
<ele>139.2</ele>
<time>2024-05-11T11:54:33Z</time>
</trkpt>
<trkpt lat="49.72341533750296" lon="9.526643743738532">
<ele>139.2</ele>
<time>2024-05-11T11:54:34Z</time>
</trkpt>
<trkpt lat="49.72347258590162" lon="9.526701914146544">
<ele>139.2</ele>
<time>2024-05-11T11:54:35Z</time>
</trkpt>
<trkpt lat="49.72352597862482" lon="9.526755306869743">
<ele>139.2</ele>
<time>2024-05-11T11:54:36Z</time>
</trkpt>
<trkpt lat="49.723575515672565" lon="9.526804843917487">
<ele>139.4</ele>
<time>2024-05-11T11:54:37Z</time>
</trkpt>
<trkpt lat="49.72362136468291" lon="9.526853542774916">
<ele>139.4</ele>
<time>2024-05-11T11:54:38Z</time>
</trkpt>
<trkpt lat="49.72366327419877" lon="9.526898302137852">
<ele>139.4</ele>
<time>2024-05-11T11:54:39Z</time>
</trkpt>
<trkpt lat="49.72370526753366" lon="9.52694029547274">
<ele>139.4</ele>
<time>2024-05-11T11:54:40Z</time>
</trkpt>
<trkpt lat="49.72374717704952" lon="9.52698321081698">
<ele>139.6</ele>
<time>2024-05-11T11:54:41Z</time>
</trkpt>
<trkpt lat="49.72378539852798" lon="9.527027048170568">
<ele>139.6</ele>
<time>2024-05-11T11:54:42Z</time>
</trkpt>
<trkpt lat="49.72382730804384" lon="9.527068119496109">
<ele>139.8</ele>
<time>2024-05-11T11:54:43Z</time>
</trkpt>
<trkpt lat="49.72386544570327" lon="9.527111956849694">
<ele>140</ele>
<time>2024-05-11T11:54:44Z</time>
</trkpt>
<trkpt lat="49.7239035833627" lon="9.527156800031662">
<ele>140</ele>
<time>2024-05-11T11:54:45Z</time>
</trkpt>
<trkpt lat="49.72394172102213" lon="9.5271997153759">
<ele>140.2</ele>
<time>2024-05-11T11:54:46Z</time>
</trkpt>
<trkpt lat="49.72397608682513" lon="9.527236931025982">
<ele>140.2</ele>
<time>2024-05-11T11:54:47Z</time>
</trkpt>
<trkpt lat="49.724010452628136" lon="9.527273140847685">
<ele>140.2</ele>
<time>2024-05-11T11:54:48Z</time>
</trkpt>
<trkpt lat="49.72404473461211" lon="9.527313206344845">
<ele>140</ele>
<time>2024-05-11T11:54:49Z</time>
</trkpt>
<trkpt lat="49.72408287227154" lon="9.527351344004272">
<ele>140</ele>
<time>2024-05-11T11:54:50Z</time>
</trkpt>
<trkpt lat="49.72411338239908" lon="9.527389481663704">
<ele>140</ele>
<time>2024-05-11T11:54:51Z</time>
</trkpt>
<trkpt lat="49.724151603877544" lon="9.527429547160864">
<ele>139.8</ele>
<time>2024-05-11T11:54:52Z</time>
</trkpt>
<trkpt lat="49.72418211400509" lon="9.527469612658024">
<ele>139.8</ele>
<time>2024-05-11T11:54:53Z</time>
</trkpt>
<trkpt lat="49.72422025166452" lon="9.527509678155184">
<ele>139.6</ele>
<time>2024-05-11T11:54:54Z</time>
</trkpt>
<trkpt lat="49.72425838932395" lon="9.52755158767104">
<ele>139.6</ele>
<time>2024-05-11T11:54:55Z</time>
</trkpt>
<trkpt lat="49.72430038265884" lon="9.527593581005933">
<ele>139.6</ele>
<time>2024-05-11T11:54:56Z</time>
</trkpt>
<trkpt lat="49.72433852031827" lon="9.52763649635017">
<ele>139.6</ele>
<time>2024-05-11T11:54:57Z</time>
</trkpt>
<trkpt lat="49.7243766579777" lon="9.52767656184733">
<ele>139.4</ele>
<time>2024-05-11T11:54:58Z</time>
</trkpt>
<trkpt lat="49.72442242316902" lon="9.527716627344487">
<ele>139.4</ele>
<time>2024-05-11T11:54:59Z</time>
</trkpt>
<trkpt lat="49.72446056082845" lon="9.527758536860349">
<ele>139.4</ele>
<time>2024-05-11T11:55:00Z</time>
</trkpt>
<trkpt lat="49.72449869848788" lon="9.527799524366856">
<ele>139.2</ele>
<time>2024-05-11T11:55:01Z</time>
</trkpt>
<trkpt lat="49.72453306429088" lon="9.527836740016935">
<ele>139</ele>
<time>2024-05-11T11:55:02Z</time>
</trkpt>
<trkpt lat="49.72457120195031" lon="9.527874877676368">
<ele>138.8</ele>
<time>2024-05-11T11:55:03Z</time>
</trkpt>
<trkpt lat="49.72460548393428" lon="9.527916871011255">
<ele>138.6</ele>
<time>2024-05-11T11:55:04Z</time>
</trkpt>
<trkpt lat="49.724643705412745" lon="9.52795023098588">
<ele>138.4</ele>
<time>2024-05-11T11:55:05Z</time>
</trkpt>
<trkpt lat="49.72467798739672" lon="9.527984596788883">
<ele>138.4</ele>
<time>2024-05-11T11:55:06Z</time>
</trkpt>
<trkpt lat="49.72470849752426" lon="9.528021812438965">
<ele>138.2</ele>
<time>2024-05-11T11:55:07Z</time>
</trkpt>
<trkpt lat="49.724739007651806" lon="9.528055172413588">
<ele>138.2</ele>
<time>2024-05-11T11:55:08Z</time>
</trkpt>
<trkpt lat="49.72477337345481" lon="9.528084676712751">
<ele>138.2</ele>
<time>2024-05-11T11:55:09Z</time>
</trkpt>
<trkpt lat="49.72480773925781" lon="9.528113342821598">
<ele>138.2</ele>
<time>2024-05-11T11:55:10Z</time>
</trkpt>
<trkpt lat="49.724842021241784" lon="9.528141925111411">
<ele>138.2</ele>
<time>2024-05-11T11:55:11Z</time>
</trkpt>
<trkpt lat="49.72487638704479" lon="9.5281667355448">
<ele>138.2</ele>
<time>2024-05-11T11:55:12Z</time>
</trkpt>
<trkpt lat="49.72490689717233" lon="9.528202023357151">
<ele>138</ele>
<time>2024-05-11T11:55:13Z</time>
</trkpt>
<trkpt lat="49.72493355162442" lon="9.528235383331776">
<ele>138</ele>
<time>2024-05-11T11:55:14Z</time>
</trkpt>
<trkpt lat="49.72496791742742" lon="9.528261115774512">
<ele>138</ele>
<time>2024-05-11T11:55:15Z</time>
</trkpt>
<trkpt lat="49.725002283230424" lon="9.528294559568169">
<ele>138</ele>
<time>2024-05-11T11:55:16Z</time>
</trkpt>
<trkpt lat="49.7250365652144" lon="9.528326913714409">
<ele>138</ele>
<time>2024-05-11T11:55:17Z</time>
</trkpt>
<trkpt lat="49.725074702873826" lon="9.528360357508063">
<ele>138</ele>
<time>2024-05-11T11:55:18Z</time>
</trkpt>
<trkpt lat="49.72511284053326" lon="9.528396567329764">
<ele>138</ele>
<time>2024-05-11T11:55:19Z</time>
</trkpt>
<trkpt lat="49.72515106201172" lon="9.528429927304389">
<ele>138.2</ele>
<time>2024-05-11T11:55:20Z</time>
</trkpt>
<trkpt lat="49.72518534399569" lon="9.528459515422584">
<ele>138.2</ele>
<time>2024-05-11T11:55:21Z</time>
</trkpt>
<trkpt lat="49.72522733733058" lon="9.528492875397204">
<ele>138.2</ele>
<time>2024-05-11T11:55:22Z</time>
</trkpt>
<trkpt lat="49.72526547499001" lon="9.52852338552475">
<ele>138.4</ele>
<time>2024-05-11T11:55:23Z</time>
</trkpt>
<trkpt lat="49.72530361264944" lon="9.528552973642944">
<ele>138.4</ele>
<time>2024-05-11T11:55:24Z</time>
</trkpt>
<trkpt lat="49.72534175030887" lon="9.528588261455296">
<ele>138.4</ele>
<time>2024-05-11T11:55:25Z</time>
</trkpt>
<trkpt lat="49.7253798879683" lon="9.528617849573491">
<ele>138.4</ele>
<time>2024-05-11T11:55:26Z</time>
</trkpt>
<trkpt lat="49.72542565315962" lon="9.528633104637263">
<ele>138.6</ele>
<time>2024-05-11T11:55:27Z</time>
</trkpt>
<trkpt lat="49.72546379081905" lon="9.528651209548116">
<ele>138.6</ele>
<time>2024-05-11T11:55:28Z</time>
</trkpt>
<trkpt lat="49.72550201229751" lon="9.528675014153125">
<ele>138.6</ele>
<time>2024-05-11T11:55:29Z</time>
</trkpt>
<trkpt lat="49.72554014995694" lon="9.52870175242424">
<ele>138.4</ele>
<time>2024-05-11T11:55:30Z</time>
</trkpt>
<trkpt lat="49.725570660084486" lon="9.528730334714057">
<ele>138.4</ele>
<time>2024-05-11T11:55:31Z</time>
</trkpt>
<trkpt lat="49.72560494206846" lon="9.528755145147445">
<ele>138.4</ele>
<time>2024-05-11T11:55:32Z</time>
</trkpt>
<trkpt lat="49.72563930787146" lon="9.5287780277431">
<ele>138.4</ele>
<time>2024-05-11T11:55:33Z</time>
</trkpt>
<trkpt lat="49.725673673674464" lon="9.52879806049168">
<ele>138.4</ele>
<time>2024-05-11T11:55:34Z</time>
</trkpt>
<trkpt lat="49.725711811333895" lon="9.528815243393185">
<ele>138.4</ele>
<time>2024-05-11T11:55:35Z</time>
</trkpt>
<trkpt lat="49.725746093317866" lon="9.528831420466304">
<ele>138.4</ele>
<time>2024-05-11T11:55:36Z</time>
</trkpt>
<trkpt lat="49.72578045912087" lon="9.528856230899692">
<ele>138.2</ele>
<time>2024-05-11T11:55:37Z</time>
</trkpt>
<trkpt lat="49.72581474110484" lon="9.52888011932373">
<ele>138.2</ele>
<time>2024-05-11T11:55:38Z</time>
</trkpt>
<trkpt lat="49.72584533505142" lon="9.528908701613544">
<ele>138.2</ele>
<time>2024-05-11T11:55:39Z</time>
</trkpt>
<trkpt lat="49.72587961703539" lon="9.528931584209204">
<ele>138.2</ele>
<time>2024-05-11T11:55:40Z</time>
</trkpt>
<trkpt lat="49.72591398283839" lon="9.528955388814213">
<ele>138.2</ele>
<time>2024-05-11T11:55:41Z</time>
</trkpt>
<trkpt lat="49.72594826482237" lon="9.528982127085328">
<ele>138.2</ele>
<time>2024-05-11T11:55:42Z</time>
</trkpt>
<trkpt lat="49.72599025815725" lon="9.529007859528065">
<ele>138.2</ele>
<time>2024-05-11T11:55:43Z</time>
</trkpt>
<trkpt lat="49.72603225149214" lon="9.529041219502687">
<ele>138.2</ele>
<time>2024-05-11T11:55:44Z</time>
</trkpt>
<trkpt lat="49.726066533476114" lon="9.529067957773805">
<ele>138</ele>
<time>2024-05-11T11:55:45Z</time>
</trkpt>
<trkpt lat="49.726104671135545" lon="9.52909369021654">
<ele>138</ele>
<time>2024-05-11T11:55:46Z</time>
</trkpt>
<trkpt lat="49.726142808794975" lon="9.529123278334737">
<ele>138</ele>
<time>2024-05-11T11:55:47Z</time>
</trkpt>
<trkpt lat="49.726184802129865" lon="9.52915378846228">
<ele>138</ele>
<time>2024-05-11T11:55:49Z</time>
</trkpt>
<trkpt lat="49.72627256065607" lon="9.52919670380652">
<ele>137.8</ele>
<time>2024-05-11T11:55:50Z</time>
</trkpt>
<trkpt lat="49.72631832584739" lon="9.529226291924717">
<ele>137.6</ele>
<time>2024-05-11T11:55:51Z</time>
</trkpt>
<trkpt lat="49.72635646350682" lon="9.529245318844914">
<ele>137.4</ele>
<time>2024-05-11T11:55:52Z</time>
</trkpt>
<trkpt lat="49.72639082930982" lon="9.529270129278302">
<ele>137.2</ele>
<time>2024-05-11T11:55:53Z</time>
</trkpt>
<trkpt lat="49.72643273882568" lon="9.52929686754942">
<ele>137.2</ele>
<time>2024-05-11T11:55:54Z</time>
</trkpt>
<trkpt lat="49.72646710462868" lon="9.529331149533393">
<ele>137.2</ele>
<time>2024-05-11T11:55:55Z</time>
</trkpt>
<trkpt lat="49.726501386612654" lon="9.529376914724708">
<ele>137.2</ele>
<time>2024-05-11T11:55:56Z</time>
</trkpt>
<trkpt lat="49.72653960809112" lon="9.529415052384138">
<ele>137.2</ele>
<time>2024-05-11T11:55:57Z</time>
</trkpt>
<trkpt lat="49.72657011821866" lon="9.529455117881298">
<ele>137.4</ele>
<time>2024-05-11T11:55:58Z</time>
</trkpt>
<trkpt lat="49.72660440020263" lon="9.529501888900995">
<ele>137.4</ele>
<time>2024-05-11T11:55:59Z</time>
</trkpt>
<trkpt lat="49.726634910330176" lon="9.529546732082965">
<ele>137.6</ele>
<time>2024-05-11T11:56:00Z</time>
</trkpt>
<trkpt lat="49.72666542045772" lon="9.529584869742392">
<ele>137.6</ele>
<time>2024-05-11T11:56:01Z</time>
</trkpt>
<trkpt lat="49.72670364193618" lon="9.529620157554746">
<ele>137.8</ele>
<time>2024-05-11T11:56:02Z</time>
</trkpt>
<trkpt lat="49.72674177959561" lon="9.529653517529368">
<ele>137.8</ele>
<time>2024-05-11T11:56:03Z</time>
</trkpt>
<trkpt lat="49.726776061579585" lon="9.529686877503991">
<ele>138</ele>
<time>2024-05-11T11:56:04Z</time>
</trkpt>
<trkpt lat="49.726814199239016" lon="9.529726943001153">
<ele>138</ele>
<time>2024-05-11T11:56:05Z</time>
</trkpt>
<trkpt lat="49.726856192573905" lon="9.529753681272268">
<ele>138</ele>
<time>2024-05-11T11:56:06Z</time>
</trkpt>
<trkpt lat="49.72689055837691" lon="9.529776563867928">
<ele>138.2</ele>
<time>2024-05-11T11:56:07Z</time>
</trkpt>
<trkpt lat="49.72692869603634" lon="9.529796596616508">
<ele>138.2</ele>
<time>2024-05-11T11:56:08Z</time>
</trkpt>
<trkpt lat="49.72696297802031" lon="9.529814701527355">
<ele>138.2</ele>
<time>2024-05-11T11:56:09Z</time>
</trkpt>
<trkpt lat="49.726993488147855" lon="9.529832806438208">
<ele>138.2</ele>
<time>2024-05-11T11:56:10Z</time>
</trkpt>
<trkpt lat="49.7270239982754" lon="9.529854767024515">
<ele>138.2</ele>
<time>2024-05-11T11:56:11Z</time>
</trkpt>
<trkpt lat="49.727054592221975" lon="9.529871866106989">
<ele>138.4</ele>
<time>2024-05-11T11:56:12Z</time>
</trkpt>
<trkpt lat="49.72708887420595" lon="9.52988619916141">
<ele>138.4</ele>
<time>2024-05-11T11:56:13Z</time>
</trkpt>
<trkpt lat="49.72712324000895" lon="9.529903382062912">
<ele>138.4</ele>
<time>2024-05-11T11:56:14Z</time>
</trkpt>
<trkpt lat="49.72714989446104" lon="9.529923414811492">
<ele>138.4</ele>
<time>2024-05-11T11:56:15Z</time>
</trkpt>
<trkpt lat="49.72717663273215" lon="9.529953002929688">
<ele>138.4</ele>
<time>2024-05-11T11:56:16Z</time>
</trkpt>
<trkpt lat="49.72719951532781" lon="9.529978735372424">
<ele>138.4</ele>
<time>2024-05-11T11:56:17Z</time>
</trkpt>
<trkpt lat="49.72721862606704" lon="9.530003545805812">
<ele>138.4</ele>
<time>2024-05-11T11:56:18Z</time>
</trkpt>
<trkpt lat="49.72723002545536" lon="9.53002642840147">
<ele>138.4</ele>
<time>2024-05-11T11:56:19Z</time>
</trkpt>
<trkpt lat="49.727233881130815" lon="9.530048305168748">
<ele>138.4</ele>
<time>2024-05-11T11:56:20Z</time>
</trkpt>
<trkpt lat="49.72724913619459" lon="9.530076971277596">
<ele>138.4</ele>
<time>2024-05-11T11:56:21Z</time>
</trkpt>
<trkpt lat="49.7272605355829" lon="9.530115108937023">
<ele>138.4</ele>
<time>2024-05-11T11:56:22Z</time>
</trkpt>
<trkpt lat="49.727272018790245" lon="9.530157018452885">
<ele>138.4</ele>
<time>2024-05-11T11:56:23Z</time>
</trkpt>
<trkpt lat="49.727291045710444" lon="9.530193312093616">
<ele>138.2</ele>
<time>2024-05-11T11:56:24Z</time>
</trkpt>
<trkpt lat="49.72731015644968" lon="9.5302199665457">
<ele>138.2</ele>
<time>2024-05-11T11:56:25Z</time>
</trkpt>
<trkpt lat="49.72733681090176" lon="9.530236227437854">
<ele>138</ele>
<time>2024-05-11T11:56:26Z</time>
</trkpt>
<trkpt lat="49.72736354917288" lon="9.53024192713201">
<ele>138</ele>
<time>2024-05-11T11:56:27Z</time>
</trkpt>
<trkpt lat="49.72739405930042" lon="9.530231449753046">
<ele>138</ele>
<time>2024-05-11T11:56:28Z</time>
</trkpt>
<trkpt lat="49.72742456942797" lon="9.530204711481929">
<ele>137.8</ele>
<time>2024-05-11T11:56:29Z</time>
</trkpt>
<trkpt lat="49.72745130769909" lon="9.530171351507306">
<ele>137.8</ele>
<time>2024-05-11T11:56:30Z</time>
</trkpt>
<trkpt lat="49.72747796215117" lon="9.530135141685603">
<ele>137.8</ele>
<time>2024-05-11T11:56:31Z</time>
</trkpt>
<trkpt lat="49.727508472278714" lon="9.530097926035523">
<ele>137.6</ele>
<time>2024-05-11T11:56:32Z</time>
</trkpt>
<trkpt lat="49.72753898240626" lon="9.530061716213822">
<ele>137.6</ele>
<time>2024-05-11T11:56:33Z</time>
</trkpt>
<trkpt lat="49.727569576352835" lon="9.53002542257309">
<ele>137.6</ele>
<time>2024-05-11T11:56:34Z</time>
</trkpt>
<trkpt lat="49.72760008648038" lon="9.52998535707593">
<ele>137.6</ele>
<time>2024-05-11T11:56:35Z</time>
</trkpt>
<trkpt lat="49.727626740932465" lon="9.529941519722342">
<ele>137.6</ele>
<time>2024-05-11T11:56:36Z</time>
</trkpt>
<trkpt lat="49.72765347920358" lon="9.529898604378104">
<ele>137.6</ele>
<time>2024-05-11T11:56:37Z</time>
</trkpt>
<trkpt lat="49.72768013365567" lon="9.529853761196136">
<ele>137.8</ele>
<time>2024-05-11T11:56:38Z</time>
</trkpt>
<trkpt lat="49.727706871926785" lon="9.529807073995473">
<ele>137.8</ele>
<time>2024-05-11T11:56:39Z</time>
</trkpt>
<trkpt lat="49.72773738205433" lon="9.529760302975774">
<ele>138</ele>
<time>2024-05-11T11:56:40Z</time>
</trkpt>
<trkpt lat="49.72776789218187" lon="9.529713615775108">
<ele>138.2</ele>
<time>2024-05-11T11:56:41Z</time>
</trkpt>
<trkpt lat="49.72779463045299" lon="9.529666844755411">
<ele>138.2</ele>
<time>2024-05-11T11:56:42Z</time>
</trkpt>
<trkpt lat="49.72782128490507" lon="9.529622001573443">
<ele>138.4</ele>
<time>2024-05-11T11:56:43Z</time>
</trkpt>
<trkpt lat="49.72785179503262" lon="9.529575314372778">
<ele>138.8</ele>
<time>2024-05-11T11:56:44Z</time>
</trkpt>
<trkpt lat="49.72787853330374" lon="9.52952954918146">
<ele>139</ele>
<time>2024-05-11T11:56:45Z</time>
</trkpt>
<trkpt lat="49.72790904343128" lon="9.529484705999494">
<ele>139.2</ele>
<time>2024-05-11T11:56:46Z</time>
</trkpt>
<trkpt lat="49.727939553558826" lon="9.529439862817526">
<ele>139.6</ele>
<time>2024-05-11T11:56:47Z</time>
</trkpt>
<trkpt lat="49.727966291829944" lon="9.529396947473288">
<ele>139.8</ele>
<time>2024-05-11T11:56:48Z</time>
</trkpt>
<trkpt lat="49.72799680195749" lon="9.529351182281973">
<ele>140</ele>
<time>2024-05-11T11:56:49Z</time>
</trkpt>
<trkpt lat="49.728023456409574" lon="9.529306339100003">
<ele>140.2</ele>
<time>2024-05-11T11:56:50Z</time>
</trkpt>
<trkpt lat="49.72804633900523" lon="9.529265351593494">
<ele>140.6</ele>
<time>2024-05-11T11:56:51Z</time>
</trkpt>
<trkpt lat="49.72806930541992" lon="9.529221514239907">
<ele>140.8</ele>
<time>2024-05-11T11:56:52Z</time>
</trkpt>
<trkpt lat="49.72808833234012" lon="9.529179520905018">
<ele>141</ele>
<time>2024-05-11T11:56:53Z</time>
</trkpt>
<trkpt lat="49.72811121493578" lon="9.529138533398507">
<ele>141.2</ele>
<time>2024-05-11T11:56:54Z</time>
</trkpt>
<trkpt lat="49.72812646999955" lon="9.529098467901347">
<ele>141.6</ele>
<time>2024-05-11T11:56:55Z</time>
</trkpt>
<trkpt lat="49.72814558073878" lon="9.52906033024192">
<ele>141.8</ele>
<time>2024-05-11T11:56:56Z</time>
</trkpt>
<trkpt lat="49.728160835802555" lon="9.529021186754107">
<ele>141.8</ele>
<time>2024-05-11T11:56:57Z</time>
</trkpt>
<trkpt lat="49.72817609086633" lon="9.528984976932406">
<ele>142</ele>
<time>2024-05-11T11:56:58Z</time>
</trkpt>
<trkpt lat="49.72819511778653" lon="9.528951616957784">
<ele>142.2</ele>
<time>2024-05-11T11:56:59Z</time>
</trkpt>
<trkpt lat="49.72821422852576" lon="9.528924878686666">
<ele>142.4</ele>
<time>2024-05-11T11:57:00Z</time>
</trkpt>
<trkpt lat="49.72823325544596" lon="9.528895374387504">
<ele>142.6</ele>
<time>2024-05-11T11:57:01Z</time>
</trkpt>
<trkpt lat="49.72825622186065" lon="9.528864780440928">
<ele>142.6</ele>
<time>2024-05-11T11:57:02Z</time>
</trkpt>
<trkpt lat="49.728279104456306" lon="9.528831420466304">
<ele>142.8</ele>
<time>2024-05-11T11:57:03Z</time>
</trkpt>
<trkpt lat="49.72830575890839" lon="9.528791354969144">
<ele>143</ele>
<time>2024-05-11T11:57:04Z</time>
</trkpt>
<trkpt lat="49.728336269035935" lon="9.528743661940098">
<ele>143</ele>
<time>2024-05-11T11:57:05Z</time>
</trkpt>
<trkpt lat="49.728359151631594" lon="9.528695046901705">
<ele>143.2</ele>
<time>2024-05-11T11:57:06Z</time>
</trkpt>
<trkpt lat="49.7283935174346" lon="9.528650203719735">
<ele>143.2</ele>
<time>2024-05-11T11:57:07Z</time>
</trkpt>
<trkpt lat="49.728420255705714" lon="9.52860351651907">
<ele>143.2</ele>
<time>2024-05-11T11:57:08Z</time>
</trkpt>
<trkpt lat="49.728458393365145" lon="9.528556745499372">
<ele>143.2</ele>
<time>2024-05-11T11:57:09Z</time>
</trkpt>
<trkpt lat="49.72848890349269" lon="9.528506202623248">
<ele>143.4</ele>
<time>2024-05-11T11:57:10Z</time>
</trkpt>
<trkpt lat="49.72852318547666" lon="9.528454737737777">
<ele>143.4</ele>
<time>2024-05-11T11:57:11Z</time>
</trkpt>
<trkpt lat="49.728557551279664" lon="9.528407044708729">
<ele>143.4</ele>
<time>2024-05-11T11:57:12Z</time>
</trkpt>
<trkpt lat="49.72859191708267" lon="9.528353651985526">
<ele>143.4</ele>
<time>2024-05-11T11:57:13Z</time>
</trkpt>
<trkpt lat="49.72861857153475" lon="9.528296403586864">
<ele>143.4</ele>
<time>2024-05-11T11:57:14Z</time>
</trkpt>
<trkpt lat="49.72864530980587" lon="9.528242088854311">
<ele>143.4</ele>
<time>2024-05-11T11:57:15Z</time>
</trkpt>
<trkpt lat="49.728671964257956" lon="9.528181990608571">
<ele>143.4</ele>
<time>2024-05-11T11:57:16Z</time>
</trkpt>
<trkpt lat="49.7287024743855" lon="9.52812951989472">
<ele>143.4</ele>
<time>2024-05-11T11:57:17Z</time>
</trkpt>
<trkpt lat="49.72872921265662" lon="9.528076127171516">
<ele>143.4</ele>
<time>2024-05-11T11:57:18Z</time>
</trkpt>
<trkpt lat="49.728755950927734" lon="9.528024662286043">
<ele>143.4</ele>
<time>2024-05-11T11:57:19Z</time>
</trkpt>
<trkpt lat="49.72877883352339" lon="9.527977891266346">
<ele>143.4</ele>
<time>2024-05-11T11:57:20Z</time>
</trkpt>
<trkpt lat="49.72880548797548" lon="9.52793120406568">
<ele>143.4</ele>
<time>2024-05-11T11:57:21Z</time>
</trkpt>
<trkpt lat="49.728832226246595" lon="9.527885355055332">
<ele>143.4</ele>
<time>2024-05-11T11:57:22Z</time>
</trkpt>
<trkpt lat="49.72886273637414" lon="9.527839589864016">
<ele>143.4</ele>
<time>2024-05-11T11:57:23Z</time>
</trkpt>
<trkpt lat="49.7288856189698" lon="9.527798602357509">
<ele>143.4</ele>
<time>2024-05-11T11:57:24Z</time>
</trkpt>
<trkpt lat="49.72891227342189" lon="9.527758536860349">
<ele>143.4</ele>
<time>2024-05-11T11:57:25Z</time>
</trkpt>
<trkpt lat="49.728935239836574" lon="9.527721405029297">
<ele>143.4</ele>
<time>2024-05-11T11:57:26Z</time>
</trkpt>
<trkpt lat="49.72895812243223" lon="9.527685111388564">
<ele>143.2</ele>
<time>2024-05-11T11:57:27Z</time>
</trkpt>
<trkpt lat="49.72898477688432" lon="9.527645045891404">
<ele>143.2</ele>
<time>2024-05-11T11:57:28Z</time>
</trkpt>
<trkpt lat="49.729011515155435" lon="9.52759643085301">
<ele>143.2</ele>
<time>2024-05-11T11:57:29Z</time>
</trkpt>
<trkpt lat="49.72904202528298" lon="9.527549743652344">
<ele>143</ele>
<time>2024-05-11T11:57:30Z</time>
</trkpt>
<trkpt lat="49.729068679735065" lon="9.527502050623298">
<ele>143</ele>
<time>2024-05-11T11:57:31Z</time>
</trkpt>
<trkpt lat="49.72909541800618" lon="9.527453351765873">
<ele>142.8</ele>
<time>2024-05-11T11:57:32Z</time>
</trkpt>
<trkpt lat="49.7291221562773" lon="9.52739803120494">
<ele>142.8</ele>
<time>2024-05-11T11:57:33Z</time>
</trkpt>
<trkpt lat="49.729148810729384" lon="9.527343716472387">
<ele>142.8</ele>
<time>2024-05-11T11:57:34Z</time>
</trkpt>
<trkpt lat="49.72917169332504" lon="9.527288395911455">
<ele>142.6</ele>
<time>2024-05-11T11:57:35Z</time>
</trkpt>
<trkpt lat="49.7291945759207" lon="9.527236931025982">
<ele>142.6</ele>
<time>2024-05-11T11:57:36Z</time>
</trkpt>
<trkpt lat="49.72921745851636" lon="9.527190160006285">
<ele>142.6</ele>
<time>2024-05-11T11:57:37Z</time>
</trkpt>
<trkpt lat="49.72924034111202" lon="9.52713961713016">
<ele>142.6</ele>
<time>2024-05-11T11:57:38Z</time>
</trkpt>
<trkpt lat="49.72925945185125" lon="9.527088152244689">
<ele>142.4</ele>
<time>2024-05-11T11:57:39Z</time>
</trkpt>
<trkpt lat="49.72927856259048" lon="9.527036603540182">
<ele>142.2</ele>
<time>2024-05-11T11:57:40Z</time>
</trkpt>
<trkpt lat="49.72930144518614" lon="9.52698128297925">
<ele>142.2</ele>
<time>2024-05-11T11:57:41Z</time>
</trkpt>
<trkpt lat="49.729328099638224" lon="9.526929818093777">
<ele>142</ele>
<time>2024-05-11T11:57:42Z</time>
</trkpt>
<trkpt lat="49.72935098223388" lon="9.526876425370574">
<ele>141.8</ele>
<time>2024-05-11T11:57:43Z</time>
</trkpt>
<trkpt lat="49.72937386482954" lon="9.52682202681899">
<ele>141.6</ele>
<time>2024-05-11T11:57:44Z</time>
</trkpt>
<trkpt lat="49.7293967474252" lon="9.526768634095788">
<ele>141.6</ele>
<time>2024-05-11T11:57:45Z</time>
</trkpt>
<trkpt lat="49.72942348569632" lon="9.526715241372584">
<ele>141.4</ele>
<time>2024-05-11T11:57:46Z</time>
</trkpt>
<trkpt lat="49.72945022396743" lon="9.526657070964577">
<ele>141.4</ele>
<time>2024-05-11T11:57:47Z</time>
</trkpt>
<trkpt lat="49.72947687841952" lon="9.526595044881104">
<ele>141.2</ele>
<time>2024-05-11T11:57:48Z</time>
</trkpt>
<trkpt lat="49.72950361669064" lon="9.526531174778938">
<ele>141</ele>
<time>2024-05-11T11:57:49Z</time>
</trkpt>
<trkpt lat="49.72953027114272" lon="9.52646629884839">
<ele>140.8</ele>
<time>2024-05-11T11:57:50Z</time>
</trkpt>
<trkpt lat="49.72955315373838" lon="9.526399578899143">
<ele>140.8</ele>
<time>2024-05-11T11:57:51Z</time>
</trkpt>
<trkpt lat="49.72956840880215" lon="9.526338558644056">
<ele>140.6</ele>
<time>2024-05-11T11:57:52Z</time>
</trkpt>
<trkpt lat="49.72958751954138" lon="9.526276532560589">
<ele>140.4</ele>
<time>2024-05-11T11:57:53Z</time>
</trkpt>
<trkpt lat="49.729602774605155" lon="9.526216434314849">
<ele>140.2</ele>
<time>2024-05-11T11:57:54Z</time>
</trkpt>
<trkpt lat="49.72961802966893" lon="9.52615641988814">
<ele>140</ele>
<time>2024-05-11T11:57:55Z</time>
</trkpt>
<trkpt lat="49.7296332847327" lon="9.52609347179532">
<ele>140</ele>
<time>2024-05-11T11:57:56Z</time>
</trkpt>
<trkpt lat="49.72964853979647" lon="9.526028595864773">
<ele>139.8</ele>
<time>2024-05-11T11:57:57Z</time>
</trkpt>
<trkpt lat="49.72966379486024" lon="9.525961875915527">
<ele>139.8</ele>
<time>2024-05-11T11:57:58Z</time>
</trkpt>
<trkpt lat="49.729679049924016" lon="9.52589314430952">
<ele>139.6</ele>
<time>2024-05-11T11:57:59Z</time>
</trkpt>
<trkpt lat="49.72969816066325" lon="9.525826424360275">
<ele>139.6</ele>
<time>2024-05-11T11:58:00Z</time>
</trkpt>
<trkpt lat="49.72971341572702" lon="9.525761548429728">
<ele>139.6</ele>
<time>2024-05-11T11:58:01Z</time>
</trkpt>
<trkpt lat="49.72973244264722" lon="9.525694828480482">
<ele>139.4</ele>
<time>2024-05-11T11:58:02Z</time>
</trkpt>
<trkpt lat="49.72975155338645" lon="9.525628024712203">
<ele>139.4</ele>
<time>2024-05-11T11:58:03Z</time>
</trkpt>
<trkpt lat="49.72977058030665" lon="9.52556130476296">
<ele>139.2</ele>
<time>2024-05-11T11:58:04Z</time>
</trkpt>
<trkpt lat="49.72978591918945" lon="9.525494500994682">
<ele>139.2</ele>
<time>2024-05-11T11:58:05Z</time>
</trkpt>
<trkpt lat="49.72980494610965" lon="9.52542493119836">
<ele>139.2</ele>
<time>2024-05-11T11:58:06Z</time>
</trkpt>
<trkpt lat="49.729820201173425" lon="9.525346728041768">
<ele>139</ele>
<time>2024-05-11T11:58:07Z</time>
</trkpt>
<trkpt lat="49.729839311912656" lon="9.525273302569984">
<ele>138.8</ele>
<time>2024-05-11T11:58:08Z</time>
</trkpt>
<trkpt lat="49.729858338832855" lon="9.52520364895463">
<ele>138.6</ele>
<time>2024-05-11T11:58:09Z</time>
</trkpt>
<trkpt lat="49.729877449572086" lon="9.525133073329926">
<ele>138.4</ele>
<time>2024-05-11T11:58:10Z</time>
</trkpt>
<trkpt lat="49.7298888489604" lon="9.52506828121841">
<ele>138.2</ele>
<time>2024-05-11T11:58:11Z</time>
</trkpt>
<trkpt lat="49.72990410402417" lon="9.525001477450132">
<ele>138.2</ele>
<time>2024-05-11T11:58:12Z</time>
</trkpt>
<trkpt lat="49.729919359087944" lon="9.524938529357314">
<ele>138.2</ele>
<time>2024-05-11T11:58:13Z</time>
</trkpt>
<trkpt lat="49.729938469827175" lon="9.524874659255149">
<ele>138.2</ele>
<time>2024-05-11T11:58:14Z</time>
</trkpt>
<trkpt lat="49.72996135242283" lon="9.5248097833246">
<ele>138</ele>
<time>2024-05-11T11:58:15Z</time>
</trkpt>
<trkpt lat="49.729976607486606" lon="9.524740213528275">
<ele>137.8</ele>
<time>2024-05-11T11:58:16Z</time>
</trkpt>
<trkpt lat="49.72999571822584" lon="9.524669637903571">
<ele>137.6</ele>
<time>2024-05-11T11:58:17Z</time>
</trkpt>
<trkpt lat="49.73001474514603" lon="9.524599984288216">
<ele>137.4</ele>
<time>2024-05-11T11:58:18Z</time>
</trkpt>
<trkpt lat="49.730037627741694" lon="9.52453133650124">
<ele>137</ele>
<time>2024-05-11T11:58:19Z</time>
</trkpt>
<trkpt lat="49.730056738480926" lon="9.524464532732964">
<ele>136.6</ele>
<time>2024-05-11T11:58:20Z</time>
</trkpt>
<trkpt lat="49.730075765401125" lon="9.52439689077437">
<ele>136.2</ele>
<time>2024-05-11T11:58:21Z</time>
</trkpt>
<trkpt lat="49.73009487614035" lon="9.524326315149665">
<ele>136</ele>
<time>2024-05-11T11:58:22Z</time>
</trkpt>
<trkpt lat="49.730117758736014" lon="9.524251883849502">
<ele>135.8</ele>
<time>2024-05-11T11:58:23Z</time>
</trkpt>
<trkpt lat="49.730136869475245" lon="9.52417845837772">
<ele>135.8</ele>
<time>2024-05-11T11:58:24Z</time>
</trkpt>
<trkpt lat="49.73016352392733" lon="9.524105032905936">
<ele>135.8</ele>
<time>2024-05-11T11:58:25Z</time>
</trkpt>
<trkpt lat="49.73018263466656" lon="9.524029679596424">
<ele>136</ele>
<time>2024-05-11T11:58:26Z</time>
</trkpt>
<trkpt lat="49.73020551726222" lon="9.523955332115293">
<ele>135.8</ele>
<time>2024-05-11T11:58:27Z</time>
</trkpt>
<trkpt lat="49.73022839985788" lon="9.523876123130322">
<ele>135.8</ele>
<time>2024-05-11T11:58:28Z</time>
</trkpt>
<trkpt lat="49.73024742677808" lon="9.52380177564919">
<ele>135.8</ele>
<time>2024-05-11T11:58:29Z</time>
</trkpt>
<trkpt lat="49.730270309373736" lon="9.523724494501948">
<ele>135.8</ele>
<time>2024-05-11T11:58:30Z</time>
</trkpt>
<trkpt lat="49.730293191969395" lon="9.523652996867895">
<ele>135.8</ele>
<time>2024-05-11T11:58:31Z</time>
</trkpt>
<trkpt lat="49.730316158384085" lon="9.523578565567732">
<ele>135.8</ele>
<time>2024-05-11T11:58:32Z</time>
</trkpt>
<trkpt lat="49.73033904097974" lon="9.52350514009595">
<ele>135.8</ele>
<time>2024-05-11T11:58:33Z</time>
</trkpt>
<trkpt lat="49.73035806789994" lon="9.523431714624166">
<ele>136</ele>
<time>2024-05-11T11:58:34Z</time>
</trkpt>
<trkpt lat="49.730373322963715" lon="9.523360216990111">
<ele>136.2</ele>
<time>2024-05-11T11:58:35Z</time>
</trkpt>
<trkpt lat="49.73038857802749" lon="9.523291569203138">
<ele>136.4</ele>
<time>2024-05-11T11:58:36Z</time>
</trkpt>
<trkpt lat="49.73040006123483" lon="9.523221915587785">
<ele>136.4</ele>
<time>2024-05-11T11:58:37Z</time>
</trkpt>
<trkpt lat="49.73041531629861" lon="9.523151339963078">
<ele>136.4</ele>
<time>2024-05-11T11:58:38Z</time>
</trkpt>
<trkpt lat="49.7304343432188" lon="9.523079842329023">
<ele>136.6</ele>
<time>2024-05-11T11:58:39Z</time>
</trkpt>
<trkpt lat="49.730449598282576" lon="9.523008344694972">
<ele>136.6</ele>
<time>2024-05-11T11:58:40Z</time>
</trkpt>
<trkpt lat="49.73046485334635" lon="9.52293198555708">
<ele>136.6</ele>
<time>2024-05-11T11:58:41Z</time>
</trkpt>
<trkpt lat="49.73048019222915" lon="9.522856632247567">
<ele>136.6</ele>
<time>2024-05-11T11:58:42Z</time>
</trkpt>
<trkpt lat="49.730491591617465" lon="9.522783206775784">
<ele>136.6</ele>
<time>2024-05-11T11:58:43Z</time>
</trkpt>
<trkpt lat="49.73050307482481" lon="9.522707937285304">
<ele>136.6</ele>
<time>2024-05-11T11:58:44Z</time>
</trkpt>
<trkpt lat="49.73051447421312" lon="9.52263442799449">
<ele>136.4</ele>
<time>2024-05-11T11:58:45Z</time>
</trkpt>
<trkpt lat="49.73052595742047" lon="9.522562008351088">
<ele>136.4</ele>
<time>2024-05-11T11:58:46Z</time>
</trkpt>
<trkpt lat="49.73054121248424" lon="9.522489504888654">
<ele>136.4</ele>
<time>2024-05-11T11:58:47Z</time>
</trkpt>
<trkpt lat="49.730552611872554" lon="9.522421779111028">
<ele>136.4</ele>
<time>2024-05-11T11:58:48Z</time>
</trkpt>
<trkpt lat="49.730567866936326" lon="9.522353131324053">
<ele>136.4</ele>
<time>2024-05-11T11:58:49Z</time>
</trkpt>
<trkpt lat="49.7305831220001" lon="9.522285405546429">
<ele>136.4</ele>
<time>2024-05-11T11:58:50Z</time>
</trkpt>
<trkpt lat="49.73059837706387" lon="9.52221960760653">
<ele>136.4</ele>
<time>2024-05-11T11:58:51Z</time>
</trkpt>
<trkpt lat="49.73061363212764" lon="9.522154731675982">
<ele>136.2</ele>
<time>2024-05-11T11:58:52Z</time>
</trkpt>
<trkpt lat="49.730628887191415" lon="9.522091783583164">
<ele>136.2</ele>
<time>2024-05-11T11:58:53Z</time>
</trkpt>
<trkpt lat="49.730647997930646" lon="9.522026991471648">
<ele>136.2</ele>
<time>2024-05-11T11:58:54Z</time>
</trkpt>
<trkpt lat="49.73066325299442" lon="9.52196303755045">
<ele>136.2</ele>
<time>2024-05-11T11:58:55Z</time>
</trkpt>
<trkpt lat="49.73067850805819" lon="9.521900173276665">
<ele>136.2</ele>
<time>2024-05-11T11:58:56Z</time>
</trkpt>
<trkpt lat="49.73069761879742" lon="9.521836219355464">
<ele>136.2</ele>
<time>2024-05-11T11:58:57Z</time>
</trkpt>
<trkpt lat="49.73071664571762" lon="9.521773271262646">
<ele>136</ele>
<time>2024-05-11T11:58:58Z</time>
</trkpt>
<trkpt lat="49.73073190078139" lon="9.521711328998208">
<ele>136</ele>
<time>2024-05-11T11:58:59Z</time>
</trkpt>
<trkpt lat="49.730747155845165" lon="9.52164838090539">
<ele>136</ele>
<time>2024-05-11T11:59:00Z</time>
</trkpt>
<trkpt lat="49.7307662665844" lon="9.52158635482192">
<ele>135.8</ele>
<time>2024-05-11T11:59:01Z</time>
</trkpt>
<trkpt lat="49.73078152164817" lon="9.52153011225164">
<ele>135.8</ele>
<time>2024-05-11T11:59:02Z</time>
</trkpt>
<trkpt lat="49.73079677671194" lon="9.521478647366166">
<ele>135.8</ele>
<time>2024-05-11T11:59:03Z</time>
</trkpt>
<trkpt lat="49.73081203177571" lon="9.52142994850874">
<ele>135.8</ele>
<time>2024-05-11T11:59:04Z</time>
</trkpt>
<trkpt lat="49.730827286839485" lon="9.521380411460996">
<ele>135.8</ele>
<time>2024-05-11T11:59:05Z</time>
</trkpt>
<trkpt lat="49.73084639757872" lon="9.521327018737791">
<ele>135.8</ele>
<time>2024-05-11T11:59:06Z</time>
</trkpt>
<trkpt lat="49.73086542449891" lon="9.52127354219556">
<ele>135.8</ele>
<time>2024-05-11T11:59:07Z</time>
</trkpt>
<trkpt lat="49.73088453523815" lon="9.521218221634626">
<ele>135.8</ele>
<time>2024-05-11T11:59:08Z</time>
</trkpt>
<trkpt lat="49.730907417833805" lon="9.521162984892726">
<ele>135.8</ele>
<time>2024-05-11T11:59:09Z</time>
</trkpt>
<trkpt lat="49.730926444754" lon="9.521104730665684">
<ele>135.8</ele>
<time>2024-05-11T11:59:10Z</time>
</trkpt>
<trkpt lat="49.73094555549323" lon="9.521046560257671">
<ele>135.8</ele>
<time>2024-05-11T11:59:11Z</time>
</trkpt>
<trkpt lat="49.730968438088894" lon="9.520984617993236">
<ele>135.6</ele>
<time>2024-05-11T11:59:12Z</time>
</trkpt>
<trkpt lat="49.73099132068455" lon="9.520924519747496">
<ele>135.6</ele>
<time>2024-05-11T11:59:13Z</time>
</trkpt>
<trkpt lat="49.73101043142378" lon="9.520863499492409">
<ele>135.6</ele>
<time>2024-05-11T11:59:14Z</time>
</trkpt>
<trkpt lat="49.73103331401944" lon="9.520803401246669">
<ele>135.4</ele>
<time>2024-05-11T11:59:15Z</time>
</trkpt>
<trkpt lat="49.7310561966151" lon="9.52074145898223">
<ele>135.4</ele>
<time>2024-05-11T11:59:16Z</time>
</trkpt>
<trkpt lat="49.7310752235353" lon="9.52068328857422">
<ele>135.4</ele>
<time>2024-05-11T11:59:17Z</time>
</trkpt>
<trkpt lat="49.73109810613096" lon="9.520625034347177">
<ele>135.4</ele>
<time>2024-05-11T11:59:18Z</time>
</trkpt>
<trkpt lat="49.73111336119473" lon="9.520569797605276">
<ele>135.4</ele>
<time>2024-05-11T11:59:19Z</time>
</trkpt>
<trkpt lat="49.73113624379039" lon="9.520511627197266">
<ele>135.4</ele>
<time>2024-05-11T11:59:20Z</time>
</trkpt>
<trkpt lat="49.73115149885416" lon="9.520453372970223">
<ele>135.2</ele>
<time>2024-05-11T11:59:21Z</time>
</trkpt>
<trkpt lat="49.73117060959339" lon="9.520389502868056">
<ele>135.2</ele>
<time>2024-05-11T11:59:22Z</time>
</trkpt>
<trkpt lat="49.73118972033262" lon="9.520324626937509">
<ele>135.2</ele>
<time>2024-05-11T11:59:23Z</time>
</trkpt>
<trkpt lat="49.731204975396395" lon="9.520256984978914">
<ele>135.2</ele>
<time>2024-05-11T11:59:24Z</time>
</trkpt>
<trkpt lat="49.73122023046017" lon="9.520188253372908">
<ele>135.2</ele>
<time>2024-05-11T11:59:25Z</time>
</trkpt>
<trkpt lat="49.73123548552394" lon="9.520121533423662">
<ele>135.2</ele>
<time>2024-05-11T11:59:26Z</time>
</trkpt>
<trkpt lat="49.73125074058771" lon="9.520051879808308">
<ele>135.2</ele>
<time>2024-05-11T11:59:27Z</time>
</trkpt>
<trkpt lat="49.73126599565148" lon="9.519983232021332">
<ele>135.2</ele>
<time>2024-05-11T11:59:28Z</time>
</trkpt>
<trkpt lat="49.73128502257168" lon="9.51991173438728">
<ele>135.4</ele>
<time>2024-05-11T11:59:29Z</time>
</trkpt>
<trkpt lat="49.73129650577903" lon="9.519840236753224">
<ele>135.4</ele>
<time>2024-05-11T11:59:30Z</time>
</trkpt>
<trkpt lat="49.7313117608428" lon="9.51976865530014">
<ele>135.6</ele>
<time>2024-05-11T11:59:31Z</time>
</trkpt>
<trkpt lat="49.73132316023111" lon="9.519701935350897">
<ele>135.8</ele>
<time>2024-05-11T11:59:32Z</time>
</trkpt>
<trkpt lat="49.73133849911392" lon="9.519635131582618">
<ele>135.8</ele>
<time>2024-05-11T11:59:33Z</time>
</trkpt>
<trkpt lat="49.73135375417769" lon="9.519568411633372">
<ele>135.8</ele>
<time>2024-05-11T11:59:34Z</time>
</trkpt>
<trkpt lat="49.73137278109789" lon="9.519499763846396">
<ele>135.8</ele>
<time>2024-05-11T11:59:35Z</time>
</trkpt>
<trkpt lat="49.731384264305234" lon="9.519432038068771">
<ele>135.8</ele>
<time>2024-05-11T11:59:36Z</time>
</trkpt>
<trkpt lat="49.731399519369006" lon="9.519363390281796">
<ele>135.8</ele>
<time>2024-05-11T11:59:37Z</time>
</trkpt>
<trkpt lat="49.73141091875732" lon="9.519292814657092">
<ele>135.8</ele>
<time>2024-05-11T11:59:38Z</time>
</trkpt>
<trkpt lat="49.73142617382109" lon="9.519225088879466">
<ele>135.8</ele>
<time>2024-05-11T11:59:39Z</time>
</trkpt>
<trkpt lat="49.731441428884864" lon="9.519158285111187">
<ele>135.8</ele>
<time>2024-05-11T11:59:40Z</time>
</trkpt>
<trkpt lat="49.73145291209221" lon="9.519089637324214">
<ele>136</ele>
<time>2024-05-11T11:59:41Z</time>
</trkpt>
<trkpt lat="49.73145668394864" lon="9.519022917374969">
<ele>136</ele>
<time>2024-05-11T11:59:42Z</time>
</trkpt>
<trkpt lat="49.73146431148052" lon="9.51895804144442">
<ele>136</ele>
<time>2024-05-11T11:59:43Z</time>
</trkpt>
<trkpt lat="49.73146816715598" lon="9.518897021189332">
<ele>136</ele>
<time>2024-05-11T11:59:44Z</time>
</trkpt>
<trkpt lat="49.73147193901241" lon="9.518826445564628">
<ele>136</ele>
<time>2024-05-11T11:59:45Z</time>
</trkpt>
<trkpt lat="49.73147579468787" lon="9.518759725615382">
<ele>136</ele>
<time>2024-05-11T11:59:46Z</time>
</trkpt>
<trkpt lat="49.73148342221975" lon="9.518690072000028">
<ele>136</ele>
<time>2024-05-11T11:59:47Z</time>
</trkpt>
<trkpt lat="49.73149104975164" lon="9.51862335205078">
<ele>136</ele>
<time>2024-05-11T11:59:48Z</time>
</trkpt>
<trkpt lat="49.73149482160807" lon="9.518558476120234">
<ele>136</ele>
<time>2024-05-11T11:59:49Z</time>
</trkpt>
<trkpt lat="49.731502532958984" lon="9.518498377874494">
<ele>136</ele>
<time>2024-05-11T11:59:50Z</time>
</trkpt>
<trkpt lat="49.7315139323473" lon="9.518444985151293">
<ele>135.8</ele>
<time>2024-05-11T11:59:51Z</time>
</trkpt>
<trkpt lat="49.731521559879184" lon="9.518391592428088">
<ele>135.8</ele>
<time>2024-05-11T11:59:52Z</time>
</trkpt>
<trkpt lat="49.73153304308653" lon="9.518341971561313">
<ele>135.8</ele>
<time>2024-05-11T11:59:53Z</time>
</trkpt>
<trkpt lat="49.73153681494296" lon="9.518296206369996">
<ele>135.8</ele>
<time>2024-05-11T11:59:54Z</time>
</trkpt>
<trkpt lat="49.7315482981503" lon="9.51824658550322">
<ele>136</ele>
<time>2024-05-11T11:59:55Z</time>
</trkpt>
<trkpt lat="49.73157118074596" lon="9.518199898302557">
<ele>136.2</ele>
<time>2024-05-11T11:59:56Z</time>
</trkpt>
<trkpt lat="49.731597835198045" lon="9.518155055120587">
<ele>136.4</ele>
<time>2024-05-11T11:59:57Z</time>
</trkpt>
<trkpt lat="49.73162457346916" lon="9.518099734559655">
<ele>136.4</ele>
<time>2024-05-11T11:59:58Z</time>
</trkpt>
<trkpt lat="49.731655083596706" lon="9.51805011369288">
<ele>136.6</ele>
<time>2024-05-11T11:59:59Z</time>
</trkpt>
<trkpt lat="49.73168559372425" lon="9.518003426492214">
<ele>136.6</ele>
<time>2024-05-11T12:00:00Z</time>
</trkpt>
<trkpt lat="49.731716103851795" lon="9.51795481145382">
<ele>136.8</ele>
<time>2024-05-11T12:00:01Z</time>
</trkpt>
<trkpt lat="49.73174661397934" lon="9.517908040434122">
<ele>136.8</ele>
<time>2024-05-11T12:00:02Z</time>
</trkpt>
<trkpt lat="49.73177335225046" lon="9.517860347405076">
<ele>137</ele>
<time>2024-05-11T12:00:03Z</time>
</trkpt>
<trkpt lat="49.73181148990989" lon="9.51781458221376">
<ele>137.2</ele>
<time>2024-05-11T12:00:04Z</time>
</trkpt>
<trkpt lat="49.73184585571289" lon="9.517776444554327">
<ele>137.4</ele>
<time>2024-05-11T12:00:05Z</time>
</trkpt>
<trkpt lat="49.73188013769686" lon="9.517736379057167">
<ele>137.4</ele>
<time>2024-05-11T12:00:06Z</time>
</trkpt>
<trkpt lat="49.73191064782441" lon="9.517698241397738">
<ele>137.6</ele>
<time>2024-05-11T12:00:07Z</time>
</trkpt>
<trkpt lat="49.73194501362741" lon="9.517656248062847">
<ele>137.8</ele>
<time>2024-05-11T12:00:08Z</time>
</trkpt>
<trkpt lat="49.731975523754954" lon="9.51761333271861">
<ele>138</ele>
<time>2024-05-11T12:00:09Z</time>
</trkpt>
<trkpt lat="49.732009805738926" lon="9.51757519505918">
<ele>138</ele>
<time>2024-05-11T12:00:10Z</time>
</trkpt>
<trkpt lat="49.73204802721739" lon="9.51753806322813">
<ele>138</ele>
<time>2024-05-11T12:00:11Z</time>
</trkpt>
<trkpt lat="49.73207853734493" lon="9.517503697425129">
<ele>138.2</ele>
<time>2024-05-11T12:00:12Z</time>
</trkpt>
<trkpt lat="49.73210904747248" lon="9.517466481775044">
<ele>138.2</ele>
<time>2024-05-11T12:00:13Z</time>
</trkpt>
<trkpt lat="49.73213570192456" lon="9.517428344115617">
<ele>138.4</ele>
<time>2024-05-11T12:00:14Z</time>
</trkpt>
<trkpt lat="49.73215858452022" lon="9.517386434599755">
<ele>138.4</ele>
<time>2024-05-11T12:00:15Z</time>
</trkpt>
<trkpt lat="49.73218146711588" lon="9.517346369102595">
<ele>138.6</ele>
<time>2024-05-11T12:00:16Z</time>
</trkpt>
<trkpt lat="49.73220443353057" lon="9.517308231443169">
<ele>138.8</ele>
<time>2024-05-11T12:00:17Z</time>
</trkpt>
<trkpt lat="49.732231087982655" lon="9.517276715487242">
<ele>138.8</ele>
<time>2024-05-11T12:00:18Z</time>
</trkpt>
<trkpt lat="49.73226545378566" lon="9.517254754900932">
<ele>138.8</ele>
<time>2024-05-11T12:00:19Z</time>
</trkpt>
<trkpt lat="49.73229973576963" lon="9.517230028286576">
<ele>138.8</ele>
<time>2024-05-11T12:00:20Z</time>
</trkpt>
<trkpt lat="49.73233410157263" lon="9.51720044016838">
<ele>138.8</ele>
<time>2024-05-11T12:00:21Z</time>
</trkpt>
<trkpt lat="49.73237223923206" lon="9.517168002203109">
<ele>138.8</ele>
<time>2024-05-11T12:00:22Z</time>
</trkpt>
<trkpt lat="49.73240660503507" lon="9.517133636400104">
<ele>138.8</ele>
<time>2024-05-11T12:00:23Z</time>
</trkpt>
<trkpt lat="49.73243711516261" lon="9.51710027642548">
<ele>138.8</ele>
<time>2024-05-11T12:00:24Z</time>
</trkpt>
<trkpt lat="49.732467625290155" lon="9.51706021092832">
<ele>139</ele>
<time>2024-05-11T12:00:25Z</time>
</trkpt>
<trkpt lat="49.7324981354177" lon="9.517024923115969">
<ele>139</ele>
<time>2024-05-11T12:00:26Z</time>
</trkpt>
<trkpt lat="49.73253627307713" lon="9.516993490979075">
<ele>139.2</ele>
<time>2024-05-11T12:00:27Z</time>
</trkpt>
<trkpt lat="49.732570638880134" lon="9.516960131004453">
<ele>139.4</ele>
<time>2024-05-11T12:00:28Z</time>
</trkpt>
<trkpt lat="49.732604920864105" lon="9.516931464895606">
<ele>139.4</ele>
<time>2024-05-11T12:00:29Z</time>
</trkpt>
<trkpt lat="49.73263928666711" lon="9.516900032758713">
<ele>139.6</ele>
<time>2024-05-11T12:00:30Z</time>
</trkpt>
<trkpt lat="49.73266979679465" lon="9.51686667278409">
<ele>139.8</ele>
<time>2024-05-11T12:00:31Z</time>
</trkpt>
<trkpt lat="49.7327003069222" lon="9.516835156828163">
<ele>140</ele>
<time>2024-05-11T12:00:32Z</time>
</trkpt>
<trkpt lat="49.73273844458163" lon="9.516799869015813">
<ele>140</ele>
<time>2024-05-11T12:00:33Z</time>
</trkpt>
<trkpt lat="49.73277281038463" lon="9.516770280897616">
<ele>140.2</ele>
<time>2024-05-11T12:00:34Z</time>
</trkpt>
<trkpt lat="49.73281094804406" lon="9.516741698607802">
<ele>140.2</ele>
<time>2024-05-11T12:00:35Z</time>
</trkpt>
<trkpt lat="49.73284908570349" lon="9.516721665859222">
<ele>140.4</ele>
<time>2024-05-11T12:00:36Z</time>
</trkpt>
<trkpt lat="49.732883451506495" lon="9.516698783263564">
<ele>140.4</ele>
<time>2024-05-11T12:00:37Z</time>
</trkpt>
<trkpt lat="49.732921589165926" lon="9.516677828505635">
<ele>140.6</ele>
<time>2024-05-11T12:00:38Z</time>
</trkpt>
<trkpt lat="49.732963498681784" lon="9.516661567613482">
<ele>140.6</ele>
<time>2024-05-11T12:00:39Z</time>
</trkpt>
<trkpt lat="49.733001636341214" lon="9.51664539054036">
<ele>140.8</ele>
<time>2024-05-11T12:00:40Z</time>
</trkpt>
<trkpt lat="49.73304748535156" lon="9.51662820763886">
<ele>141</ele>
<time>2024-05-11T12:00:41Z</time>
</trkpt>
<trkpt lat="49.73309325054288" lon="9.516616808250546">
<ele>141.2</ele>
<time>2024-05-11T12:00:42Z</time>
</trkpt>
<trkpt lat="49.73313516005874" lon="9.516603397205472">
<ele>141.4</ele>
<time>2024-05-11T12:00:43Z</time>
</trkpt>
<trkpt lat="49.73318092525005" lon="9.516594847664235">
<ele>141.6</ele>
<time>2024-05-11T12:00:44Z</time>
</trkpt>
<trkpt lat="49.73322291858494" lon="9.5165881421417">
<ele>141.8</ele>
<time>2024-05-11T12:00:45Z</time>
</trkpt>
<trkpt lat="49.73326491191983" lon="9.516579592600465">
<ele>142</ele>
<time>2024-05-11T12:00:46Z</time>
</trkpt>
<trkpt lat="49.73330304957926" lon="9.51657003723085">
<ele>142</ele>
<time>2024-05-11T12:00:47Z</time>
</trkpt>
<trkpt lat="49.73334118723869" lon="9.516559559851885">
<ele>142.4</ele>
<time>2024-05-11T12:00:48Z</time>
</trkpt>
<trkpt lat="49.73337932489813" lon="9.516554782167075">
<ele>142.6</ele>
<time>2024-05-11T12:00:49Z</time>
</trkpt>
<trkpt lat="49.73341369070113" lon="9.51655193232">
<ele>142.8</ele>
<time>2024-05-11T12:00:50Z</time>
</trkpt>
<trkpt lat="49.733455600216985" lon="9.516546232625842">
<ele>143</ele>
<time>2024-05-11T12:00:51Z</time>
</trkpt>
<trkpt lat="49.733497593551874" lon="9.516538605093956">
<ele>143.2</ele>
<time>2024-05-11T12:00:52Z</time>
</trkpt>
<trkpt lat="49.73353950306773" lon="9.516534749418495">
<ele>143.2</ele>
<time>2024-05-11T12:00:53Z</time>
</trkpt>
<trkpt lat="49.73358149640262" lon="9.516526199877262">
<ele>143.4</ele>
<time>2024-05-11T12:00:54Z</time>
</trkpt>
<trkpt lat="49.7336311172694" lon="9.516519494354725">
<ele>143.4</ele>
<time>2024-05-11T12:00:55Z</time>
</trkpt>
<trkpt lat="49.73367688246071" lon="9.516516644507648">
<ele>143.4</ele>
<time>2024-05-11T12:00:56Z</time>
</trkpt>
<trkpt lat="49.73372641950846" lon="9.516514716669915">
<ele>143.6</ele>
<time>2024-05-11T12:00:57Z</time>
</trkpt>
<trkpt lat="49.733772268518806" lon="9.516513794660568">
<ele>143.6</ele>
<time>2024-05-11T12:00:58Z</time>
</trkpt>
<trkpt lat="49.73382180556655" lon="9.516508094966412">
<ele>143.6</ele>
<time>2024-05-11T12:00:59Z</time>
</trkpt>
<trkpt lat="49.733871426433325" lon="9.516506167128682">
<ele>143.6</ele>
<time>2024-05-11T12:01:00Z</time>
</trkpt>
<trkpt lat="49.73391719162464" lon="9.516508094966412">
<ele>143.6</ele>
<time>2024-05-11T12:01:01Z</time>
</trkpt>
<trkpt lat="49.73396681249142" lon="9.516508094966412">
<ele>143.4</ele>
<time>2024-05-11T12:01:02Z</time>
</trkpt>
<trkpt lat="49.734008722007275" lon="9.51651186682284">
<ele>143.4</ele>
<time>2024-05-11T12:01:03Z</time>
</trkpt>
<trkpt lat="49.73405448719859" lon="9.516518572345376">
<ele>143.4</ele>
<time>2024-05-11T12:01:04Z</time>
</trkpt>
<trkpt lat="49.73409648053348" lon="9.516526199877262">
<ele>143.2</ele>
<time>2024-05-11T12:01:05Z</time>
</trkpt>
<trkpt lat="49.73413847386837" lon="9.516534749418495">
<ele>143.2</ele>
<time>2024-05-11T12:01:06Z</time>
</trkpt>
<trkpt lat="49.73418423905969" lon="9.516543382778764">
<ele>143.2</ele>
<time>2024-05-11T12:01:07Z</time>
</trkpt>
<trkpt lat="49.734226148575544" lon="9.51655000448227">
<ele>143.2</ele>
<time>2024-05-11T12:01:08Z</time>
</trkpt>
<trkpt lat="49.73426437005401" lon="9.516558637842536">
<ele>143.2</ele>
<time>2024-05-11T12:01:09Z</time>
</trkpt>
<trkpt lat="49.734306279569864" lon="9.516561487689614">
<ele>143.2</ele>
<time>2024-05-11T12:01:10Z</time>
</trkpt>
<trkpt lat="49.734348272904754" lon="9.516566265374422">
<ele>143.2</ele>
<time>2024-05-11T12:01:11Z</time>
</trkpt>
<trkpt lat="49.734386410564184" lon="9.51657003723085">
<ele>143.2</ele>
<time>2024-05-11T12:01:12Z</time>
</trkpt>
<trkpt lat="49.734428403899074" lon="9.516574814915655">
<ele>143.2</ele>
<time>2024-05-11T12:01:13Z</time>
</trkpt>
<trkpt lat="49.73447416909039" lon="9.51658529229462">
<ele>143.2</ele>
<time>2024-05-11T12:01:14Z</time>
</trkpt>
<trkpt lat="49.73451230674982" lon="9.51659006997943">
<ele>143.2</ele>
<time>2024-05-11T12:01:15Z</time>
</trkpt>
<trkpt lat="49.73455044440925" lon="9.516596775501966">
<ele>143.2</ele>
<time>2024-05-11T12:01:16Z</time>
</trkpt>
<trkpt lat="49.73458858206868" lon="9.516606330871582">
<ele>143.2</ele>
<time>2024-05-11T12:01:17Z</time>
</trkpt>
<trkpt lat="49.73462671972811" lon="9.516618652269244">
<ele>143.2</ele>
<time>2024-05-11T12:01:18Z</time>
</trkpt>
<trkpt lat="49.73466485738754" lon="9.516632985323668">
<ele>143.2</ele>
<time>2024-05-11T12:01:19Z</time>
</trkpt>
<trkpt lat="49.73470299504697" lon="9.51664539054036">
<ele>143</ele>
<time>2024-05-11T12:01:20Z</time>
</trkpt>
<trkpt lat="49.7347411327064" lon="9.516659723594785">
<ele>143</ele>
<time>2024-05-11T12:01:21Z</time>
</trkpt>
<trkpt lat="49.73477549850941" lon="9.516683528199792">
<ele>142.8</ele>
<time>2024-05-11T12:01:22Z</time>
</trkpt>
<trkpt lat="49.73481363616884" lon="9.51670448295772">
<ele>142.8</ele>
<time>2024-05-11T12:01:23Z</time>
</trkpt>
<trkpt lat="49.73484800197184" lon="9.5167245157063">
<ele>142.6</ele>
<time>2024-05-11T12:01:24Z</time>
</trkpt>
<trkpt lat="49.73488613963127" lon="9.516743626445532">
<ele>142.6</ele>
<time>2024-05-11T12:01:25Z</time>
</trkpt>
<trkpt lat="49.73492804914713" lon="9.51676458120346">
<ele>142.6</ele>
<time>2024-05-11T12:01:26Z</time>
</trkpt>
<trkpt lat="49.73497004248202" lon="9.516781764104962">
<ele>142.6</ele>
<time>2024-05-11T12:01:27Z</time>
</trkpt>
<trkpt lat="49.73500818014145" lon="9.516797019168736">
<ele>142.8</ele>
<time>2024-05-11T12:01:28Z</time>
</trkpt>
<trkpt lat="49.73504631780088" lon="9.516817973926663">
<ele>142.8</ele>
<time>2024-05-11T12:01:29Z</time>
</trkpt>
<trkpt lat="49.73509208299219" lon="9.51684471219778">
<ele>142.8</ele>
<time>2024-05-11T12:01:30Z</time>
</trkpt>
<trkpt lat="49.735134076327085" lon="9.516870444640515">
<ele>142.8</ele>
<time>2024-05-11T12:01:31Z</time>
</trkpt>
<trkpt lat="49.735176069661975" lon="9.516901960596442">
<ele>142.8</ele>
<time>2024-05-11T12:01:32Z</time>
</trkpt>
<trkpt lat="49.735214207321405" lon="9.516929620876908">
<ele>142.8</ele>
<time>2024-05-11T12:01:33Z</time>
</trkpt>
<trkpt lat="49.73525611683726" lon="9.516966752707958">
<ele>142.6</ele>
<time>2024-05-11T12:01:34Z</time>
</trkpt>
<trkpt lat="49.73529811017215" lon="9.517004890367389">
<ele>142.6</ele>
<time>2024-05-11T12:01:35Z</time>
</trkpt>
<trkpt lat="49.73534010350704" lon="9.517043111845853">
<ele>142.6</ele>
<time>2024-05-11T12:01:36Z</time>
</trkpt>
<trkpt lat="49.73538586869836" lon="9.5170802436769">
<ele>142.8</ele>
<time>2024-05-11T12:01:37Z</time>
</trkpt>
<trkpt lat="49.735427778214216" lon="9.517111759632826">
<ele>142.6</ele>
<time>2024-05-11T12:01:38Z</time>
</trkpt>
<trkpt lat="49.73546599969268" lon="9.517145119607449">
<ele>142.6</ele>
<time>2024-05-11T12:01:39Z</time>
</trkpt>
<trkpt lat="49.73550413735211" lon="9.517174707725644">
<ele>142.4</ele>
<time>2024-05-11T12:01:40Z</time>
</trkpt>
<trkpt lat="49.73554227501154" lon="9.51720329001546">
<ele>142.2</ele>
<time>2024-05-11T12:01:41Z</time>
</trkpt>
<trkpt lat="49.73557655699551" lon="9.517232878133656">
<ele>142.2</ele>
<time>2024-05-11T12:01:42Z</time>
</trkpt>
<trkpt lat="49.73561469465494" lon="9.517265316098928">
<ele>142</ele>
<time>2024-05-11T12:01:43Z</time>
</trkpt>
<trkpt lat="49.735649060457945" lon="9.517294820398092">
<ele>141.8</ele>
<time>2024-05-11T12:01:44Z</time>
</trkpt>
<trkpt lat="49.73568342626095" lon="9.517325330525637">
<ele>141.8</ele>
<time>2024-05-11T12:01:45Z</time>
</trkpt>
<trkpt lat="49.73572156392038" lon="9.517358774319291">
<ele>141.8</ele>
<time>2024-05-11T12:01:46Z</time>
</trkpt>
<trkpt lat="49.73576347343624" lon="9.517391128465531">
<ele>141.6</ele>
<time>2024-05-11T12:01:47Z</time>
</trkpt>
<trkpt lat="49.7358016949147" lon="9.517428344115617">
<ele>141.6</ele>
<time>2024-05-11T12:01:48Z</time>
</trkpt>
<trkpt lat="49.73583983257413" lon="9.517463631927969">
<ele>141.6</ele>
<time>2024-05-11T12:01:49Z</time>
</trkpt>
<trkpt lat="49.7358741145581" lon="9.517499841749668">
<ele>141.6</ele>
<time>2024-05-11T12:01:50Z</time>
</trkpt>
<trkpt lat="49.73591225221753" lon="9.51753512956202">
<ele>141.6</ele>
<time>2024-05-11T12:01:51Z</time>
</trkpt>
<trkpt lat="49.73595424555242" lon="9.517568573355677">
<ele>141.4</ele>
<time>2024-05-11T12:01:52Z</time>
</trkpt>
<trkpt lat="49.73599238321185" lon="9.517602855339646">
<ele>141.4</ele>
<time>2024-05-11T12:01:53Z</time>
</trkpt>
<trkpt lat="49.73603052087128" lon="9.517638143152">
<ele>141.4</ele>
<time>2024-05-11T12:01:54Z</time>
</trkpt>
<trkpt lat="49.73607251420617" lon="9.51767535880208">
<ele>141.4</ele>
<time>2024-05-11T12:01:55Z</time>
</trkpt>
<trkpt lat="49.73611442372203" lon="9.517709724605083">
<ele>141.4</ele>
<time>2024-05-11T12:01:56Z</time>
</trkpt>
<trkpt lat="49.73615641705692" lon="9.517747862264514">
<ele>141.2</ele>
<time>2024-05-11T12:01:57Z</time>
</trkpt>
<trkpt lat="49.73619455471635" lon="9.517786921933292">
<ele>141.2</ele>
<time>2024-05-11T12:01:58Z</time>
</trkpt>
<trkpt lat="49.73622892051935" lon="9.517826987430452">
<ele>141</ele>
<time>2024-05-11T12:01:59Z</time>
</trkpt>
<trkpt lat="49.73625557497144" lon="9.51787375845015">
<ele>141</ele>
<time>2024-05-11T12:02:00Z</time>
</trkpt>
<trkpt lat="49.736278457567096" lon="9.517928073182702">
<ele>140.8</ele>
<time>2024-05-11T12:02:01Z</time>
</trkpt>
<trkpt lat="49.736301340162754" lon="9.51799194328487">
<ele>140.6</ele>
<time>2024-05-11T12:02:02Z</time>
</trkpt>
<trkpt lat="49.73631667904556" lon="9.518058747053146">
<ele>140.4</ele>
<time>2024-05-11T12:02:03Z</time>
</trkpt>
<trkpt lat="49.73633193410933" lon="9.51812831684947">
<ele>140.2</ele>
<time>2024-05-11T12:02:04Z</time>
</trkpt>
<trkpt lat="49.736362444236875" lon="9.518195120617747">
<ele>140</ele>
<time>2024-05-11T12:02:05Z</time>
</trkpt>
<trkpt lat="49.736396726220846" lon="9.518253291025758">
<ele>140</ele>
<time>2024-05-11T12:02:06Z</time>
</trkpt>
<trkpt lat="49.73643486388028" lon="9.518302911892532">
<ele>139.8</ele>
<time>2024-05-11T12:02:07Z</time>
</trkpt>
<trkpt lat="49.73647300153971" lon="9.5183495990932">
<ele>139.4</ele>
<time>2024-05-11T12:02:08Z</time>
</trkpt>
<trkpt lat="49.7365149948746" lon="9.518396370112896">
<ele>139.2</ele>
<time>2024-05-11T12:02:09Z</time>
</trkpt>
<trkpt lat="49.73655313253403" lon="9.518444985151293">
<ele>139</ele>
<time>2024-05-11T12:02:10Z</time>
</trkpt>
<trkpt lat="49.736598897725344" lon="9.518493600189686">
<ele>138.8</ele>
<time>2024-05-11T12:02:11Z</time>
</trkpt>
<trkpt lat="49.73664466291666" lon="9.518538443371654">
<ele>138.6</ele>
<time>2024-05-11T12:02:12Z</time>
</trkpt>
<trkpt lat="49.73669051192701" lon="9.518580436706545">
<ele>138.6</ele>
<time>2024-05-11T12:02:13Z</time>
</trkpt>
<trkpt lat="49.736736277118325" lon="9.51862519606948">
<ele>138.6</ele>
<time>2024-05-11T12:02:14Z</time>
</trkpt>
<trkpt lat="49.73678204230964" lon="9.518671967089176">
<ele>138.4</ele>
<time>2024-05-11T12:02:15Z</time>
</trkpt>
<trkpt lat="49.73682780750096" lon="9.518716810271144">
<ele>138.4</ele>
<time>2024-05-11T12:02:16Z</time>
</trkpt>
<trkpt lat="49.736873572692275" lon="9.51876156963408">
<ele>138.2</ele>
<time>2024-05-11T12:02:17Z</time>
</trkpt>
<trkpt lat="49.73692319355905" lon="9.518808340653775">
<ele>138.2</ele>
<time>2024-05-11T12:02:18Z</time>
</trkpt>
<trkpt lat="49.73696895875037" lon="9.518856955692172">
<ele>138</ele>
<time>2024-05-11T12:02:19Z</time>
</trkpt>
<trkpt lat="49.73701472394168" lon="9.518904648721218">
<ele>138</ele>
<time>2024-05-11T12:02:20Z</time>
</trkpt>
<trkpt lat="49.73706434480846" lon="9.518953263759611">
<ele>138</ele>
<time>2024-05-11T12:02:21Z</time>
</trkpt>
<trkpt lat="49.737110109999776" lon="9.51900003477931">
<ele>138</ele>
<time>2024-05-11T12:02:22Z</time>
</trkpt>
<trkpt lat="49.737152019515634" lon="9.519053427502511">
<ele>138.2</ele>
<time>2024-05-11T12:02:23Z</time>
</trkpt>
<trkpt lat="49.73719401285052" lon="9.519113525748253">
<ele>138.2</ele>
<time>2024-05-11T12:02:24Z</time>
</trkpt>
<trkpt lat="49.73723600618541" lon="9.519176473841071">
<ele>138.2</ele>
<time>2024-05-11T12:02:25Z</time>
</trkpt>
<trkpt lat="49.73727791570127" lon="9.519247049465775">
<ele>138.2</ele>
<time>2024-05-11T12:02:26Z</time>
</trkpt>
<trkpt lat="49.7373160533607" lon="9.519321396946909">
<ele>138</ele>
<time>2024-05-11T12:02:27Z</time>
</trkpt>
<trkpt lat="49.73735804669559" lon="9.51939482241869">
<ele>138</ele>
<time>2024-05-11T12:02:28Z</time>
</trkpt>
<trkpt lat="49.73740004003048" lon="9.519470175728202">
<ele>138</ele>
<time>2024-05-11T12:02:29Z</time>
</trkpt>
<trkpt lat="49.73744194954634" lon="9.519546451047065">
<ele>138.2</ele>
<time>2024-05-11T12:02:30Z</time>
</trkpt>
<trkpt lat="49.73748394288123" lon="9.519623732194304">
<ele>138.2</ele>
<time>2024-05-11T12:02:31Z</time>
</trkpt>
<trkpt lat="49.73752593621611" lon="9.519700007513164">
<ele>138</ele>
<time>2024-05-11T12:02:32Z</time>
</trkpt>
<trkpt lat="49.737567845731974" lon="9.519778210669756">
<ele>138</ele>
<time>2024-05-11T12:02:33Z</time>
</trkpt>
<trkpt lat="49.73761361092329" lon="9.519856413826346">
<ele>138</ele>
<time>2024-05-11T12:02:34Z</time>
</trkpt>
<trkpt lat="49.73765937611461" lon="9.519933694973588">
<ele>137.8</ele>
<time>2024-05-11T12:02:35Z</time>
</trkpt>
<trkpt lat="49.737701369449496" lon="9.520009970292447">
<ele>137.8</ele>
<time>2024-05-11T12:02:36Z</time>
</trkpt>
<trkpt lat="49.737743362784386" lon="9.52008532360196">
<ele>137.8</ele>
<time>2024-05-11T12:02:37Z</time>
</trkpt>
<trkpt lat="49.737781500443816" lon="9.520158749073744">
<ele>137.8</ele>
<time>2024-05-11T12:02:38Z</time>
</trkpt>
<trkpt lat="49.737823409959674" lon="9.520231168717146">
<ele>137.6</ele>
<time>2024-05-11T12:02:39Z</time>
</trkpt>
<trkpt lat="49.73786540329456" lon="9.520297972485425">
<ele>137.6</ele>
<time>2024-05-11T12:02:40Z</time>
</trkpt>
<trkpt lat="49.73790739662945" lon="9.520366620272398">
<ele>137.4</ele>
<time>2024-05-11T12:02:41Z</time>
</trkpt>
<trkpt lat="49.73795316182077" lon="9.520431496202946">
<ele>137.4</ele>
<time>2024-05-11T12:02:42Z</time>
</trkpt>
<trkpt lat="49.73799507133663" lon="9.520491594448686">
<ele>137.2</ele>
<time>2024-05-11T12:02:43Z</time>
</trkpt>
<trkpt lat="49.73803329281509" lon="9.520567869767548">
<ele>137.2</ele>
<time>2024-05-11T12:02:44Z</time>
</trkpt>
<trkpt lat="49.73807143047452" lon="9.52064037322998">
<ele>137</ele>
<time>2024-05-11T12:02:45Z</time>
</trkpt>
<trkpt lat="49.73810956813395" lon="9.520709943026304">
<ele>137</ele>
<time>2024-05-11T12:02:46Z</time>
</trkpt>
<trkpt lat="49.73814770579338" lon="9.52077959664166">
<ele>136.8</ele>
<time>2024-05-11T12:02:47Z</time>
</trkpt>
<trkpt lat="49.73818584345281" lon="9.520850172266364">
<ele>136.8</ele>
<time>2024-05-11T12:02:48Z</time>
</trkpt>
<trkpt lat="49.73822398111224" lon="9.520919742062688">
<ele>136.8</ele>
<time>2024-05-11T12:02:49Z</time>
</trkpt>
<trkpt lat="49.73826211877167" lon="9.520990317687392">
<ele>136.8</ele>
<time>2024-05-11T12:02:50Z</time>
</trkpt>
<trkpt lat="49.73829648457467" lon="9.52105712145567">
<ele>136.8</ele>
<time>2024-05-11T12:02:51Z</time>
</trkpt>
<trkpt lat="49.738334622234106" lon="9.521124763414264">
<ele>136.6</ele>
<time>2024-05-11T12:02:52Z</time>
</trkpt>
<trkpt lat="49.73836513236165" lon="9.52119349502027">
<ele>136.6</ele>
<time>2024-05-11T12:02:53Z</time>
</trkpt>
<trkpt lat="49.738399498164654" lon="9.521258287131786">
<ele>136.6</ele>
<time>2024-05-11T12:02:54Z</time>
</trkpt>
<trkpt lat="49.738433780148625" lon="9.521325090900064">
<ele>136.6</ele>
<time>2024-05-11T12:02:55Z</time>
</trkpt>
<trkpt lat="49.73846814595163" lon="9.521391810849307">
<ele>136.6</ele>
<time>2024-05-11T12:02:56Z</time>
</trkpt>
<trkpt lat="49.738494800403714" lon="9.521459536626937">
<ele>136.6</ele>
<time>2024-05-11T12:02:57Z</time>
</trkpt>
<trkpt lat="49.73852531053126" lon="9.52152818441391">
<ele>136.6</ele>
<time>2024-05-11T12:02:58Z</time>
</trkpt>
<trkpt lat="49.738555904477835" lon="9.521593060344458">
<ele>136.6</ele>
<time>2024-05-11T12:02:59Z</time>
</trkpt>
<trkpt lat="49.73858255892992" lon="9.521653158590198">
<ele>136.6</ele>
<time>2024-05-11T12:03:00Z</time>
</trkpt>
<trkpt lat="49.73860544152558" lon="9.521713256835938">
<ele>136.6</ele>
<time>2024-05-11T12:03:01Z</time>
</trkpt>
<trkpt lat="49.738632179796696" lon="9.521771427243948">
<ele>136.4</ele>
<time>2024-05-11T12:03:02Z</time>
</trkpt>
<trkpt lat="49.73865883424878" lon="9.521831441670656">
<ele>136.4</ele>
<time>2024-05-11T12:03:03Z</time>
</trkpt>
<trkpt lat="49.73868171684444" lon="9.521889612078668">
<ele>136.4</ele>
<time>2024-05-11T12:03:04Z</time>
</trkpt>
<trkpt lat="49.7387045994401" lon="9.521946860477328">
<ele>136.4</ele>
<time>2024-05-11T12:03:05Z</time>
</trkpt>
<trkpt lat="49.73872756585479" lon="9.522000253200533">
<ele>136.4</ele>
<time>2024-05-11T12:03:06Z</time>
</trkpt>
<trkpt lat="49.73874659277499" lon="9.522054651752114">
<ele>136.2</ele>
<time>2024-05-11T12:03:07Z</time>
</trkpt>
<trkpt lat="49.738773331046104" lon="9.522108044475315">
<ele>136.2</ele>
<time>2024-05-11T12:03:08Z</time>
</trkpt>
<trkpt lat="49.73879621364176" lon="9.52216529287398">
<ele>136.2</ele>
<time>2024-05-11T12:03:09Z</time>
</trkpt>
<trkpt lat="49.73881909623742" lon="9.52221960760653">
<ele>136</ele>
<time>2024-05-11T12:03:10Z</time>
</trkpt>
<trkpt lat="49.73884197883308" lon="9.522276856005192">
<ele>136</ele>
<time>2024-05-11T12:03:11Z</time>
</trkpt>
<trkpt lat="49.738868633285165" lon="9.522336954250932">
<ele>136</ele>
<time>2024-05-11T12:03:12Z</time>
</trkpt>
<trkpt lat="49.73889922723174" lon="9.52239696867764">
<ele>135.8</ele>
<time>2024-05-11T12:03:13Z</time>
</trkpt>
<trkpt lat="49.738925881683826" lon="9.52245807275176">
<ele>135.8</ele>
<time>2024-05-11T12:03:14Z</time>
</trkpt>
<trkpt lat="49.73895639181137" lon="9.522521942853928">
<ele>135.6</ele>
<time>2024-05-11T12:03:15Z</time>
</trkpt>
<trkpt lat="49.73898313008249" lon="9.522582963109016">
<ele>135.4</ele>
<time>2024-05-11T12:03:16Z</time>
</trkpt>
<trkpt lat="49.73901364021003" lon="9.522646833211184">
<ele>135.4</ele>
<time>2024-05-11T12:03:17Z</time>
</trkpt>
<trkpt lat="49.73904415033758" lon="9.522711709141731">
<ele>135.2</ele>
<time>2024-05-11T12:03:18Z</time>
</trkpt>
<trkpt lat="49.739070888608694" lon="9.522780356928706">
<ele>135.2</ele>
<time>2024-05-11T12:03:19Z</time>
</trkpt>
<trkpt lat="49.73909754306078" lon="9.522845232859254">
<ele>135</ele>
<time>2024-05-11T12:03:20Z</time>
</trkpt>
<trkpt lat="49.7391242813319" lon="9.522910108789802">
<ele>135</ele>
<time>2024-05-11T12:03:21Z</time>
</trkpt>
<trkpt lat="49.73915093578398" lon="9.52297305688262">
<ele>135</ele>
<time>2024-05-11T12:03:22Z</time>
</trkpt>
<trkpt lat="49.7391776740551" lon="9.523036926984789">
<ele>135</ele>
<time>2024-05-11T12:03:23Z</time>
</trkpt>
<trkpt lat="49.73920055665076" lon="9.523103646934032">
<ele>134.8</ele>
<time>2024-05-11T12:03:24Z</time>
</trkpt>
<trkpt lat="49.739227294921875" lon="9.523171372711658">
<ele>134.8</ele>
<time>2024-05-11T12:03:25Z</time>
</trkpt>
<trkpt lat="49.73925780504942" lon="9.523238176479936">
<ele>134.8</ele>
<time>2024-05-11T12:03:26Z</time>
</trkpt>
<trkpt lat="49.73928831517696" lon="9.52330875210464">
<ele>134.8</ele>
<time>2024-05-11T12:03:27Z</time>
</trkpt>
<trkpt lat="49.739322597160935" lon="9.523369772359729">
<ele>134.8</ele>
<time>2024-05-11T12:03:28Z</time>
</trkpt>
<trkpt lat="49.739364590495825" lon="9.523429870605469">
<ele>134.6</ele>
<time>2024-05-11T12:03:29Z</time>
</trkpt>
<trkpt lat="49.739402728155255" lon="9.52348804101348">
<ele>134.6</ele>
<time>2024-05-11T12:03:30Z</time>
</trkpt>
<trkpt lat="49.739444721490145" lon="9.52354327775538">
<ele>134.6</ele>
<time>2024-05-11T12:03:31Z</time>
</trkpt>
<trkpt lat="49.73947900347411" lon="9.523592898622155">
<ele>134.4</ele>
<time>2024-05-11T12:03:32Z</time>
</trkpt>
<trkpt lat="49.73951336927712" lon="9.52364344149828">
<ele>134.4</ele>
<time>2024-05-11T12:03:33Z</time>
</trkpt>
<trkpt lat="49.73955150693655" lon="9.523693062365057">
<ele>134.4</ele>
<time>2024-05-11T12:03:34Z</time>
</trkpt>
<trkpt lat="49.73958587273955" lon="9.52374167740345">
<ele>134.4</ele>
<time>2024-05-11T12:03:35Z</time>
</trkpt>
<trkpt lat="49.739620154723525" lon="9.523791298270226">
<ele>134.4</ele>
<time>2024-05-11T12:03:36Z</time>
</trkpt>
<trkpt lat="49.73965452052653" lon="9.52383991330862">
<ele>134.4</ele>
<time>2024-05-11T12:03:37Z</time>
</trkpt>
<trkpt lat="49.73969265818596" lon="9.523886600509286">
<ele>134.4</ele>
<time>2024-05-11T12:03:38Z</time>
</trkpt>
<trkpt lat="49.73973079584539" lon="9.523926666006446">
<ele>134.4</ele>
<time>2024-05-11T12:03:39Z</time>
</trkpt>
<trkpt lat="49.73976893350482" lon="9.523961953818798">
<ele>134.4</ele>
<time>2024-05-11T12:03:40Z</time>
</trkpt>
<trkpt lat="49.73980329930782" lon="9.52399824745953">
<ele>134.2</ele>
<time>2024-05-11T12:03:41Z</time>
</trkpt>
<trkpt lat="49.739837581291795" lon="9.524034457281232">
<ele>134.2</ele>
<time>2024-05-11T12:03:42Z</time>
</trkpt>
<trkpt lat="49.7398719470948" lon="9.524071672931314">
<ele>134</ele>
<time>2024-05-11T12:03:43Z</time>
</trkpt>
<trkpt lat="49.73991008475423" lon="9.524103105068209">
<ele>134</ele>
<time>2024-05-11T12:03:44Z</time>
</trkpt>
<trkpt lat="49.73994822241366" lon="9.524133615195751">
<ele>133.8</ele>
<time>2024-05-11T12:03:45Z</time>
</trkpt>
<trkpt lat="49.73998258821666" lon="9.524160353466868">
<ele>133.8</ele>
<time>2024-05-11T12:03:46Z</time>
</trkpt>
<trkpt lat="49.740016870200634" lon="9.524188013747334">
<ele>133.8</ele>
<time>2024-05-11T12:03:47Z</time>
</trkpt>
<trkpt lat="49.740055007860065" lon="9.52421466819942">
<ele>134</ele>
<time>2024-05-11T12:03:48Z</time>
</trkpt>
<trkpt lat="49.74009322933853" lon="9.52423855662346">
<ele>134</ele>
<time>2024-05-11T12:03:49Z</time>
</trkpt>
<trkpt lat="49.74013136699796" lon="9.524263367056848">
<ele>134</ele>
<time>2024-05-11T12:03:50Z</time>
</trkpt>
<trkpt lat="49.74016950465739" lon="9.524288177490234">
<ele>134.2</ele>
<time>2024-05-11T12:03:51Z</time>
</trkpt>
<trkpt lat="49.74020764231682" lon="9.52431868761778">
<ele>134.2</ele>
<time>2024-05-11T12:03:52Z</time>
</trkpt>
<trkpt lat="49.74024577997625" lon="9.524345342069864">
<ele>134.2</ele>
<time>2024-05-11T12:03:53Z</time>
</trkpt>
<trkpt lat="49.74028777331114" lon="9.52437300235033">
<ele>134.4</ele>
<time>2024-05-11T12:03:54Z</time>
</trkpt>
<trkpt lat="49.74032968282699" lon="9.524403512477877">
<ele>134.4</ele>
<time>2024-05-11T12:03:55Z</time>
</trkpt>
<trkpt lat="49.74037544801831" lon="9.52443310059607">
<ele>134.4</ele>
<time>2024-05-11T12:03:56Z</time>
</trkpt>
<trkpt lat="49.7404174413532" lon="9.524463610723616">
<ele>134.4</ele>
<time>2024-05-11T12:03:57Z</time>
</trkpt>
<trkpt lat="49.74046320654452" lon="9.52449319884181">
<ele>134.6</ele>
<time>2024-05-11T12:03:58Z</time>
</trkpt>
<trkpt lat="49.74050519987941" lon="9.524521781131623">
<ele>134.6</ele>
<time>2024-05-11T12:03:59Z</time>
</trkpt>
<trkpt lat="49.740547109395266" lon="9.52455036342144">
<ele>134.6</ele>
<time>2024-05-11T12:04:00Z</time>
</trkpt>
<trkpt lat="49.740589102730155" lon="9.524578023701906">
<ele>134.6</ele>
<time>2024-05-11T12:04:01Z</time>
</trkpt>
<trkpt lat="49.740627240389585" lon="9.524602834135294">
<ele>134.6</ele>
<time>2024-05-11T12:04:02Z</time>
</trkpt>
<trkpt lat="49.74066160619259" lon="9.524626722559333">
<ele>134.6</ele>
<time>2024-05-11T12:04:03Z</time>
</trkpt>
<trkpt lat="49.74069974385202" lon="9.524649605154991">
<ele>134.8</ele>
<time>2024-05-11T12:04:04Z</time>
</trkpt>
<trkpt lat="49.74073402583599" lon="9.524676259607077">
<ele>134.8</ele>
<time>2024-05-11T12:04:05Z</time>
</trkpt>
<trkpt lat="49.740768391638994" lon="9.524704925715923">
<ele>135</ele>
<time>2024-05-11T12:04:06Z</time>
</trkpt>
<trkpt lat="49.740806529298425" lon="9.524731580168009">
<ele>135</ele>
<time>2024-05-11T12:04:07Z</time>
</trkpt>
<trkpt lat="49.74083703942597" lon="9.524758318439126">
<ele>135</ele>
<time>2024-05-11T12:04:08Z</time>
</trkpt>
<trkpt lat="49.74087140522897" lon="9.524780195206404">
<ele>135</ele>
<time>2024-05-11T12:04:09Z</time>
</trkpt>
<trkpt lat="49.74090191535652" lon="9.524798383936286">
<ele>135</ele>
<time>2024-05-11T12:04:10Z</time>
</trkpt>
<trkpt lat="49.74093619734049" lon="9.524816488847136">
<ele>134.8</ele>
<time>2024-05-11T12:04:11Z</time>
</trkpt>
<trkpt lat="49.740966791287065" lon="9.524834593757989">
<ele>134.8</ele>
<time>2024-05-11T12:04:12Z</time>
</trkpt>
<trkpt lat="49.74099730141461" lon="9.52484984882176">
<ele>134.8</ele>
<time>2024-05-11T12:04:13Z</time>
</trkpt>
<trkpt lat="49.74102781154215" lon="9.52486703172326">
<ele>134.8</ele>
<time>2024-05-11T12:04:14Z</time>
</trkpt>
<trkpt lat="49.74105446599424" lon="9.524881280958652">
<ele>134.8</ele>
<time>2024-05-11T12:04:15Z</time>
</trkpt>
<trkpt lat="49.74108120426536" lon="9.524896619841456">
<ele>134.8</ele>
<time>2024-05-11T12:04:16Z</time>
</trkpt>
<trkpt lat="49.741104086861014" lon="9.524911874905229">
<ele>134.8</ele>
<time>2024-05-11T12:04:17Z</time>
</trkpt>
<trkpt lat="49.74112696945667" lon="9.524925202131271">
<ele>135</ele>
<time>2024-05-11T12:04:18Z</time>
</trkpt>
<trkpt lat="49.74114985205233" lon="9.524940457195044">
<ele>135</ele>
<time>2024-05-11T12:04:19Z</time>
</trkpt>
<trkpt lat="49.74117659032345" lon="9.524956634268165">
<ele>135</ele>
<time>2024-05-11T12:04:20Z</time>
</trkpt>
<trkpt lat="49.741203244775534" lon="9.52497004531324">
<ele>135.2</ele>
<time>2024-05-11T12:04:21Z</time>
</trkpt>
<trkpt lat="49.74122998304665" lon="9.524981444701552">
<ele>135.2</ele>
<time>2024-05-11T12:04:22Z</time>
</trkpt>
<trkpt lat="49.741256637498736" lon="9.524994771927595">
<ele>135.2</ele>
<time>2024-05-11T12:04:23Z</time>
</trkpt>
<trkpt lat="49.741283375769854" lon="9.525011954829097">
<ele>135.2</ele>
<time>2024-05-11T12:04:24Z</time>
</trkpt>
<trkpt lat="49.74131011404097" lon="9.52502628788352">
<ele>135.2</ele>
<time>2024-05-11T12:04:25Z</time>
</trkpt>
<trkpt lat="49.741336768493056" lon="9.525039615109565">
<ele>135.2</ele>
<time>2024-05-11T12:04:26Z</time>
</trkpt>
<trkpt lat="49.74136350676417" lon="9.525056798011065">
<ele>135.4</ele>
<time>2024-05-11T12:04:27Z</time>
</trkpt>
<trkpt lat="49.74139016121626" lon="9.525072053074837">
<ele>135.4</ele>
<time>2024-05-11T12:04:28Z</time>
</trkpt>
<trkpt lat="49.741416899487376" lon="9.52508538030088">
<ele>135.4</ele>
<time>2024-05-11T12:04:29Z</time>
</trkpt>
<trkpt lat="49.74144355393946" lon="9.525093007832766">
<ele>135.4</ele>
<time>2024-05-11T12:04:30Z</time>
</trkpt>
<trkpt lat="49.74146652035415" lon="9.525101641193032">
<ele>135.4</ele>
<time>2024-05-11T12:04:31Z</time>
</trkpt>
<trkpt lat="49.74149317480624" lon="9.525113040581346">
<ele>135.4</ele>
<time>2024-05-11T12:04:32Z</time>
</trkpt>
<trkpt lat="49.741519913077354" lon="9.52512544579804">
<ele>135.4</ele>
<time>2024-05-11T12:04:33Z</time>
</trkpt>
<trkpt lat="49.7415504232049" lon="9.525137851014732">
<ele>135.4</ele>
<time>2024-05-11T12:04:34Z</time>
</trkpt>
<trkpt lat="49.741577077656984" lon="9.525148328393698">
<ele>135.2</ele>
<time>2024-05-11T12:04:35Z</time>
</trkpt>
<trkpt lat="49.74160758778453" lon="9.525156961753964">
<ele>135.2</ele>
<time>2024-05-11T12:04:36Z</time>
</trkpt>
<trkpt lat="49.741634326055646" lon="9.52516458928585">
<ele>135.2</ele>
<time>2024-05-11T12:04:37Z</time>
</trkpt>
<trkpt lat="49.74166483618319" lon="9.525175066664817">
<ele>135</ele>
<time>2024-05-11T12:04:38Z</time>
</trkpt>
<trkpt lat="49.74169157445431" lon="9.52518361620605">
<ele>135</ele>
<time>2024-05-11T12:04:39Z</time>
</trkpt>
<trkpt lat="49.74172208458185" lon="9.525188393890858">
<ele>135</ele>
<time>2024-05-11T12:04:40Z</time>
</trkpt>
<trkpt lat="49.74175259470939" lon="9.525193171575664">
<ele>134.8</ele>
<time>2024-05-11T12:04:41Z</time>
</trkpt>
<trkpt lat="49.74177924916148" lon="9.5252017211169">
<ele>134.8</ele>
<time>2024-05-11T12:04:42Z</time>
</trkpt>
<trkpt lat="49.7418059874326" lon="9.525211276486516">
<ele>134.8</ele>
<time>2024-05-11T12:04:43Z</time>
</trkpt>
<trkpt lat="49.74182887002826" lon="9.525217982009051">
<ele>134.8</ele>
<time>2024-05-11T12:04:44Z</time>
</trkpt>
<trkpt lat="49.741855608299375" lon="9.52522460371256">
<ele>134.8</ele>
<time>2024-05-11T12:04:45Z</time>
</trkpt>
<trkpt lat="49.74188226275146" lon="9.525230387225749">
<ele>134.8</ele>
<time>2024-05-11T12:04:46Z</time>
</trkpt>
<trkpt lat="49.741912772879004" lon="9.525231309235096">
<ele>134.8</ele>
<time>2024-05-11T12:04:47Z</time>
</trkpt>
<trkpt lat="49.74194328300655" lon="9.525237008929253">
<ele>134.6</ele>
<time>2024-05-11T12:04:48Z</time>
</trkpt>
<trkpt lat="49.741970021277666" lon="9.52524371445179">
<ele>134.6</ele>
<time>2024-05-11T12:04:49Z</time>
</trkpt>
<trkpt lat="49.74199675954878" lon="9.525257041677833">
<ele>134.6</ele>
<time>2024-05-11T12:04:50Z</time>
</trkpt>
<trkpt lat="49.74202726967633" lon="9.525266597047448">
<ele>134.6</ele>
<time>2024-05-11T12:04:51Z</time>
</trkpt>
<trkpt lat="49.74205777980387" lon="9.525271374732256">
<ele>134.6</ele>
<time>2024-05-11T12:04:52Z</time>
</trkpt>
<trkpt lat="49.74208828993142" lon="9.525273302569984">
<ele>134.6</ele>
<time>2024-05-11T12:04:53Z</time>
</trkpt>
<trkpt lat="49.7421149443835" lon="9.525275230407717">
<ele>134.6</ele>
<time>2024-05-11T12:04:54Z</time>
</trkpt>
<trkpt lat="49.74214553833008" lon="9.525276152417064">
<ele>134.6</ele>
<time>2024-05-11T12:04:55Z</time>
</trkpt>
<trkpt lat="49.74217219278216" lon="9.525279924273493">
<ele>134.6</ele>
<time>2024-05-11T12:04:56Z</time>
</trkpt>
<trkpt lat="49.74220270290971" lon="9.52528185211122">
<ele>134.6</ele>
<time>2024-05-11T12:04:57Z</time>
</trkpt>
<trkpt lat="49.742229441180825" lon="9.52528185211122">
<ele>134.6</ele>
<time>2024-05-11T12:04:58Z</time>
</trkpt>
<trkpt lat="49.74225995130837" lon="9.525279924273493">
<ele>134.6</ele>
<time>2024-05-11T12:04:59Z</time>
</trkpt>
<trkpt lat="49.742290461435914" lon="9.525278080254791">
<ele>134.6</ele>
<time>2024-05-11T12:05:00Z</time>
</trkpt>
<trkpt lat="49.74232097156346" lon="9.525276152417064">
<ele>134.6</ele>
<time>2024-05-11T12:05:01Z</time>
</trkpt>
<trkpt lat="49.742347709834576" lon="9.525275230407717">
<ele>134.6</ele>
<time>2024-05-11T12:05:02Z</time>
</trkpt>
<trkpt lat="49.742370592430234" lon="9.525275230407717">
<ele>134.6</ele>
<time>2024-05-11T12:05:03Z</time>
</trkpt>
<trkpt lat="49.74239724688232" lon="9.525270452722909">
<ele>134.6</ele>
<time>2024-05-11T12:05:04Z</time>
</trkpt>
<trkpt lat="49.74242398515344" lon="9.525270452722909">
<ele>134.6</ele>
<time>2024-05-11T12:05:05Z</time>
</trkpt>
<trkpt lat="49.74244301207363" lon="9.525268524885178">
<ele>134.6</ele>
<time>2024-05-11T12:05:06Z</time>
</trkpt>
<trkpt lat="49.742465894669294" lon="9.525268524885178">
<ele>134.6</ele>
<time>2024-05-11T12:05:07Z</time>
</trkpt>
<trkpt lat="49.742488861083984" lon="9.525266597047448">
<ele>134.8</ele>
<time>2024-05-11T12:05:08Z</time>
</trkpt>
<trkpt lat="49.74251174367964" lon="9.52526466920972">
<ele>134.8</ele>
<time>2024-05-11T12:05:09Z</time>
</trkpt>
<trkpt lat="49.7425346262753" lon="9.525259891524913">
<ele>134.8</ele>
<time>2024-05-11T12:05:10Z</time>
</trkpt>
<trkpt lat="49.74256128072739" lon="9.525253269821404">
<ele>135</ele>
<time>2024-05-11T12:05:11Z</time>
</trkpt>
<trkpt lat="49.742584163323045" lon="9.525251341983676">
<ele>135</ele>
<time>2024-05-11T12:05:12Z</time>
</trkpt>
<trkpt lat="49.74260327406227" lon="9.525251341983676">
<ele>135.2</ele>
<time>2024-05-11T12:05:13Z</time>
</trkpt>
<trkpt lat="49.742626156657934" lon="9.525250419974329">
<ele>135.2</ele>
<time>2024-05-11T12:05:14Z</time>
</trkpt>
<trkpt lat="49.74264903925359" lon="9.525246564298868">
<ele>135.4</ele>
<time>2024-05-11T12:05:15Z</time>
</trkpt>
<trkpt lat="49.74267954938114" lon="9.525246564298868">
<ele>135.4</ele>
<time>2024-05-11T12:05:16Z</time>
</trkpt>
<trkpt lat="49.742702431976795" lon="9.52524463646114">
<ele>135.4</ele>
<time>2024-05-11T12:05:17Z</time>
</trkpt>
<trkpt lat="49.74272531457245" lon="9.52524178661406">
<ele>135.4</ele>
<time>2024-05-11T12:05:18Z</time>
</trkpt>
<trkpt lat="49.74274819716811" lon="9.525238014757631">
<ele>135.6</ele>
<time>2024-05-11T12:05:19Z</time>
</trkpt>
<trkpt lat="49.74276730790734" lon="9.525237008929253">
<ele>135.6</ele>
<time>2024-05-11T12:05:20Z</time>
</trkpt>
<trkpt lat="49.742790190503" lon="9.525230387225749">
<ele>135.8</ele>
<time>2024-05-11T12:05:21Z</time>
</trkpt>
<trkpt lat="49.74280544556677" lon="9.52522460371256">
<ele>136</ele>
<time>2024-05-11T12:05:22Z</time>
</trkpt>
<trkpt lat="49.74282447248697" lon="9.52522460371256">
<ele>136</ele>
<time>2024-05-11T12:05:23Z</time>
</trkpt>
<trkpt lat="49.74283981136978" lon="9.52522175386548">
<ele>136.2</ele>
<time>2024-05-11T12:05:24Z</time>
</trkpt>
<trkpt lat="49.74285506643355" lon="9.525217982009051">
<ele>136.4</ele>
<time>2024-05-11T12:05:25Z</time>
</trkpt>
<trkpt lat="49.74287032149732" lon="9.525217982009051">
<ele>136.4</ele>
<time>2024-05-11T12:05:26Z</time>
</trkpt>
<trkpt lat="49.742881720885634" lon="9.525216976180673">
<ele>136.6</ele>
<time>2024-05-11T12:05:27Z</time>
</trkpt>
<trkpt lat="49.74289320409298" lon="9.525215132161977">
<ele>136.8</ele>
<time>2024-05-11T12:05:28Z</time>
</trkpt>
<trkpt lat="49.74291608668864" lon="9.525208426639438">
<ele>137</ele>
<time>2024-05-11T12:05:29Z</time>
</trkpt>
<trkpt lat="49.74293134175241" lon="9.52520465478301">
<ele>137.2</ele>
<time>2024-05-11T12:05:30Z</time>
</trkpt>
<trkpt lat="49.74294274114072" lon="9.525199877098204">
<ele>137.4</ele>
<time>2024-05-11T12:05:31Z</time>
</trkpt>
<trkpt lat="49.742957996204495" lon="9.525197027251124">
<ele>137.8</ele>
<time>2024-05-11T12:05:32Z</time>
</trkpt>
<trkpt lat="49.74297325126827" lon="9.525190321728587">
<ele>138</ele>
<time>2024-05-11T12:05:33Z</time>
</trkpt>
<trkpt lat="49.74298850633204" lon="9.52518361620605">
<ele>138.4</ele>
<time>2024-05-11T12:05:34Z</time>
</trkpt>
<trkpt lat="49.74300384521485" lon="9.525179844349625">
<ele>138.8</ele>
<time>2024-05-11T12:05:35Z</time>
</trkpt>
<trkpt lat="49.74301147274673" lon="9.525177916511891">
<ele>139</ele>
<time>2024-05-11T12:05:36Z</time>
</trkpt>
<trkpt lat="49.74302287213504" lon="9.525175066664817">
<ele>139.2</ele>
<time>2024-05-11T12:05:37Z</time>
</trkpt>
<trkpt lat="49.74303435534239" lon="9.525166433304548">
<ele>139.6</ele>
<time>2024-05-11T12:05:38Z</time>
</trkpt>
<trkpt lat="49.74304961040616" lon="9.525156961753964">
<ele>139.8</ele>
<time>2024-05-11T12:05:39Z</time>
</trkpt>
<trkpt lat="49.74306863732636" lon="9.525156961753964">
<ele>140.2</ele>
<time>2024-05-11T12:05:40Z</time>
</trkpt>
<trkpt lat="49.743080120533705" lon="9.525146484375">
<ele>140.4</ele>
<time>2024-05-11T12:05:41Z</time>
</trkpt>
<trkpt lat="49.74310300312936" lon="9.525139778852465">
<ele>140.8</ele>
<time>2024-05-11T12:05:42Z</time>
</trkpt>
<trkpt lat="49.74312588572502" lon="9.525131145492196">
<ele>141</ele>
<time>2024-05-11T12:05:43Z</time>
</trkpt>
<trkpt lat="49.743156395852566" lon="9.525119746103885">
<ele>141.4</ele>
<time>2024-05-11T12:05:44Z</time>
</trkpt>
<trkpt lat="49.74318690598011" lon="9.525108262896538">
<ele>141.6</ele>
<time>2024-05-11T12:05:45Z</time>
</trkpt>
<trkpt lat="49.743217416107655" lon="9.525093007832766">
<ele>142</ele>
<time>2024-05-11T12:05:46Z</time>
</trkpt>
<trkpt lat="49.74325178191066" lon="9.525070125237107">
<ele>142.2</ele>
<time>2024-05-11T12:05:47Z</time>
</trkpt>
<trkpt lat="49.74328606389463" lon="9.525039615109565">
<ele>142.6</ele>
<time>2024-05-11T12:05:48Z</time>
</trkpt>
<trkpt lat="49.74332042969763" lon="9.52500818297267">
<ele>142.8</ele>
<time>2024-05-11T12:05:49Z</time>
</trkpt>
<trkpt lat="49.74335856735706" lon="9.524972895160316">
<ele>143.2</ele>
<time>2024-05-11T12:05:50Z</time>
</trkpt>
<trkpt lat="49.743396705016494" lon="9.524943307042122">
<ele>143.4</ele>
<time>2024-05-11T12:05:51Z</time>
</trkpt>
<trkpt lat="49.74342344328761" lon="9.524913718923926">
<ele>143.8</ele>
<time>2024-05-11T12:05:52Z</time>
</trkpt>
<trkpt lat="49.74345772527158" lon="9.524873653426766">
<ele>144.2</ele>
<time>2024-05-11T12:05:53Z</time>
</trkpt>
<trkpt lat="49.74348823539913" lon="9.52482981607318">
<ele>144.6</ele>
<time>2024-05-11T12:05:54Z</time>
</trkpt>
<trkpt lat="49.74351497367024" lon="9.524783128872514">
<ele>145</ele>
<time>2024-05-11T12:05:55Z</time>
</trkpt>
<trkpt lat="49.74354548379779" lon="9.524733508005738">
<ele>145.4</ele>
<time>2024-05-11T12:05:56Z</time>
</trkpt>
<trkpt lat="49.74357599392533" lon="9.52468673698604">
<ele>145.8</ele>
<time>2024-05-11T12:05:57Z</time>
</trkpt>
<trkpt lat="49.74360650405288" lon="9.524638121947646">
<ele>146</ele>
<time>2024-05-11T12:05:58Z</time>
</trkpt>
<trkpt lat="49.74363701418042" lon="9.524588584899902">
<ele>146.4</ele>
<time>2024-05-11T12:05:59Z</time>
</trkpt>
<trkpt lat="49.743667524307966" lon="9.524539886042476">
<ele>146.6</ele>
<time>2024-05-11T12:06:00Z</time>
</trkpt>
<trkpt lat="49.74369426257908" lon="9.524484565481544">
<ele>147</ele>
<time>2024-05-11T12:06:01Z</time>
</trkpt>
<trkpt lat="49.743713373318315" lon="9.524426395073531">
<ele>147.2</ele>
<time>2024-05-11T12:06:02Z</time>
</trkpt>
<trkpt lat="49.74372862838209" lon="9.524365374818444">
<ele>147.4</ele>
<time>2024-05-11T12:06:03Z</time>
</trkpt>
<trkpt lat="49.74374388344586" lon="9.5242986548692">
<ele>147.8</ele>
<time>2024-05-11T12:06:04Z</time>
</trkpt>
<trkpt lat="49.74375528283417" lon="9.524228079244494">
<ele>148</ele>
<time>2024-05-11T12:06:05Z</time>
</trkpt>
<trkpt lat="49.74376676604152" lon="9.52415842562914">
<ele>148.2</ele>
<time>2024-05-11T12:06:06Z</time>
</trkpt>
<trkpt lat="49.74378202110529" lon="9.524087850004436">
<ele>148.2</ele>
<time>2024-05-11T12:06:07Z</time>
</trkpt>
<trkpt lat="49.7437934204936" lon="9.524020124226809">
<ele>148.2</ele>
<time>2024-05-11T12:06:08Z</time>
</trkpt>
<trkpt lat="49.743808675557375" lon="9.52394007705152">
<ele>148.2</ele>
<time>2024-05-11T12:06:09Z</time>
</trkpt>
<trkpt lat="49.74382393062115" lon="9.523858018219473">
<ele>148.2</ele>
<time>2024-05-11T12:06:10Z</time>
</trkpt>
<trkpt lat="49.74383918568492" lon="9.523786520585418">
<ele>148.2</ele>
<time>2024-05-11T12:06:11Z</time>
</trkpt>
<trkpt lat="49.743850668892264" lon="9.523712089285254">
<ele>148</ele>
<time>2024-05-11T12:06:12Z</time>
</trkpt>
<trkpt lat="49.74386592395604" lon="9.523638663813472">
<ele>147.6</ele>
<time>2024-05-11T12:06:13Z</time>
</trkpt>
<trkpt lat="49.74387355148792" lon="9.52356624417007">
<ele>147.4</ele>
<time>2024-05-11T12:06:14Z</time>
</trkpt>
<trkpt lat="49.74388503469527" lon="9.523496590554714">
<ele>147.2</ele>
<time>2024-05-11T12:06:15Z</time>
</trkpt>
<trkpt lat="49.74389643408358" lon="9.52342693693936">
<ele>147</ele>
<time>2024-05-11T12:06:16Z</time>
</trkpt>
<trkpt lat="49.743907917290926" lon="9.523363066837192">
<ele>146.8</ele>
<time>2024-05-11T12:06:17Z</time>
</trkpt>
<trkpt lat="49.7439231723547" lon="9.523302046582105">
<ele>146.6</ele>
<time>2024-05-11T12:06:18Z</time>
</trkpt>
<trkpt lat="49.74393457174301" lon="9.523241948336365">
<ele>146.6</ele>
<time>2024-05-11T12:06:19Z</time>
</trkpt>
<trkpt lat="49.74394605495036" lon="9.523176150396466">
<ele>146.2</ele>
<time>2024-05-11T12:06:20Z</time>
</trkpt>
<trkpt lat="49.74395745433867" lon="9.523119907826183">
<ele>145.8</ele>
<time>2024-05-11T12:06:21Z</time>
</trkpt>
<trkpt lat="49.7439765650779" lon="9.523064587265251">
<ele>145.6</ele>
<time>2024-05-11T12:06:22Z</time>
</trkpt>
<trkpt lat="49.74399182014167" lon="9.523006416857244">
<ele>145.2</ele>
<time>2024-05-11T12:06:23Z</time>
</trkpt>
<trkpt lat="49.744003219529986" lon="9.52295302413404">
<ele>145</ele>
<time>2024-05-11T12:06:24Z</time>
</trkpt>
<trkpt lat="49.74401470273733" lon="9.522899547591804">
<ele>144.8</ele>
<time>2024-05-11T12:06:25Z</time>
</trkpt>
<trkpt lat="49.74401847459376" lon="9.52283668331802">
<ele>144.6</ele>
<time>2024-05-11T12:06:26Z</time>
</trkpt>
<trkpt lat="49.744007075205445" lon="9.522769879549742">
<ele>144.6</ele>
<time>2024-05-11T12:06:27Z</time>
</trkpt>
<trkpt lat="49.7439955919981" lon="9.522703159600496">
<ele>144.6</ele>
<time>2024-05-11T12:06:28Z</time>
</trkpt>
<trkpt lat="49.74398033693433" lon="9.522640211507678">
<ele>144.4</ele>
<time>2024-05-11T12:06:29Z</time>
</trkpt>
<trkpt lat="49.74396508187056" lon="9.522582041099668">
<ele>144.4</ele>
<time>2024-05-11T12:06:30Z</time>
</trkpt>
<trkpt lat="49.743949826806784" lon="9.522522864863276">
<ele>144.4</ele>
<time>2024-05-11T12:06:31Z</time>
</trkpt>
<trkpt lat="49.74393842741847" lon="9.522468550130723">
<ele>144.2</ele>
<time>2024-05-11T12:06:32Z</time>
</trkpt>
<trkpt lat="49.743926944211125" lon="9.522415157407522">
<ele>144.2</ele>
<time>2024-05-11T12:06:33Z</time>
</trkpt>
<trkpt lat="49.74391554482281" lon="9.522364614531398">
<ele>144</ele>
<time>2024-05-11T12:06:34Z</time>
</trkpt>
<trkpt lat="49.74390406161547" lon="9.522316921502352">
<ele>144</ele>
<time>2024-05-11T12:06:35Z</time>
</trkpt>
<trkpt lat="49.743892662227154" lon="9.522263444960116">
<ele>144</ele>
<time>2024-05-11T12:06:36Z</time>
</trkpt>
<trkpt lat="49.74388503469527" lon="9.522216757759452">
<ele>143.8</ele>
<time>2024-05-11T12:06:37Z</time>
</trkpt>
<trkpt lat="49.74387740716338" lon="9.522168142721055">
<ele>143.6</ele>
<time>2024-05-11T12:06:38Z</time>
</trkpt>
<trkpt lat="49.743869779631495" lon="9.52212137170136">
<ele>143.4</ele>
<time>2024-05-11T12:06:39Z</time>
</trkpt>
<trkpt lat="49.74385829642415" lon="9.522074684500694">
<ele>143.2</ele>
<time>2024-05-11T12:06:40Z</time>
</trkpt>
<trkpt lat="49.74385444074869" lon="9.522027913480995">
<ele>143</ele>
<time>2024-05-11T12:06:41Z</time>
</trkpt>
<trkpt lat="49.74385444074869" lon="9.521976448595524">
<ele>142.8</ele>
<time>2024-05-11T12:06:42Z</time>
</trkpt>
<trkpt lat="49.74385829642415" lon="9.52192489989102">
<ele>142.6</ele>
<time>2024-05-11T12:06:43Z</time>
</trkpt>
<trkpt lat="49.74386215209961" lon="9.521871507167816">
<ele>142.6</ele>
<time>2024-05-11T12:06:44Z</time>
</trkpt>
<trkpt lat="49.74387355148792" lon="9.521815264597535">
<ele>142.4</ele>
<time>2024-05-11T12:06:45Z</time>
</trkpt>
<trkpt lat="49.743888806551695" lon="9.521753238514066">
<ele>142.2</ele>
<time>2024-05-11T12:06:46Z</time>
</trkpt>
<trkpt lat="49.74391168914735" lon="9.52168651856482">
<ele>142</ele>
<time>2024-05-11T12:06:47Z</time>
</trkpt>
<trkpt lat="49.74393457174301" lon="9.521619714796543">
<ele>141.8</ele>
<time>2024-05-11T12:06:48Z</time>
</trkpt>
<trkpt lat="49.74396131001413" lon="9.52154628932476">
<ele>141.6</ele>
<time>2024-05-11T12:06:49Z</time>
</trkpt>
<trkpt lat="49.74399182014167" lon="9.521472863852978">
<ele>141.4</ele>
<time>2024-05-11T12:06:50Z</time>
</trkpt>
<trkpt lat="49.744029957801104" lon="9.521398516371846">
<ele>141.4</ele>
<time>2024-05-11T12:06:51Z</time>
</trkpt>
<trkpt lat="49.74407957866788" lon="9.521327018737791">
<ele>141.2</ele>
<time>2024-05-11T12:06:52Z</time>
</trkpt>
<trkpt lat="49.74413674324751" lon="9.52125350944698">
<ele>141</ele>
<time>2024-05-11T12:06:53Z</time>
</trkpt>
<trkpt lat="49.74419399164617" lon="9.521176312118769">
<ele>140.8</ele>
<time>2024-05-11T12:06:54Z</time>
</trkpt>
<trkpt lat="49.74425501190126" lon="9.5210952591151">
<ele>140.6</ele>
<time>2024-05-11T12:06:55Z</time>
</trkpt>
<trkpt lat="49.74431603215635" lon="9.521006578579543">
<ele>140.2</ele>
<time>2024-05-11T12:06:56Z</time>
</trkpt>
<trkpt lat="49.74436942487955" lon="9.520904486998916">
<ele>140</ele>
<time>2024-05-11T12:06:57Z</time>
</trkpt>
<trkpt lat="49.74441141821444" lon="9.520785296335816">
<ele>139.6</ele>
<time>2024-05-11T12:06:58Z</time>
</trkpt>
<trkpt lat="49.74444578401744" lon="9.520667027682066">
<ele>139.4</ele>
<time>2024-05-11T12:06:59Z</time>
</trkpt>
<trkpt lat="49.74445718340576" lon="9.520491594448686">
<ele>139</ele>
<time>2024-05-11T12:07:00Z</time>
</trkpt>
<trkpt lat="49.74446481093764" lon="9.5203838031739">
<ele>138.8</ele>
<time>2024-05-11T12:07:01Z</time>
</trkpt>
<trkpt lat="49.744461039081216" lon="9.52026360668242">
<ele>138.4</ele>
<time>2024-05-11T12:07:02Z</time>
</trkpt>
<trkpt lat="49.74444955587387" lon="9.520152043551208">
<ele>138</ele>
<time>2024-05-11T12:07:03Z</time>
</trkpt>
<trkpt lat="49.744422901421785" lon="9.520031847059728">
<ele>137.6</ele>
<time>2024-05-11T12:07:04Z</time>
</trkpt>
<trkpt lat="49.744384763762355" lon="9.519929839298127">
<ele>137.4</ele>
<time>2024-05-11T12:07:05Z</time>
</trkpt>
<trkpt lat="49.74433514289558" lon="9.51982967555523">
<ele>137</ele>
<time>2024-05-11T12:07:06Z</time>
</trkpt>
<trkpt lat="49.7442855220288" lon="9.519742000848057">
<ele>136.6</ele>
<time>2024-05-11T12:07:07Z</time>
</trkpt>
<trkpt lat="49.74423598498106" lon="9.51964946463704">
<ele>136.4</ele>
<time>2024-05-11T12:07:08Z</time>
</trkpt>
<trkpt lat="49.74417488090694" lon="9.519564555957912">
<ele>136.2</ele>
<time>2024-05-11T12:07:09Z</time>
</trkpt>
<trkpt lat="49.74411386065185" lon="9.519481658935549">
<ele>135.8</ele>
<time>2024-05-11T12:07:10Z</time>
</trkpt>
<trkpt lat="49.74405284039676" lon="9.51939675025642">
<ele>135.6</ele>
<time>2024-05-11T12:07:11Z</time>
</trkpt>
<trkpt lat="49.743987964466214" lon="9.51931469142437">
<ele>135.4</ele>
<time>2024-05-11T12:07:12Z</time>
</trkpt>
<trkpt lat="49.74391931667924" lon="9.5192336384207">
<ele>135</ele>
<time>2024-05-11T12:07:13Z</time>
</trkpt>
<trkpt lat="49.74385444074869" lon="9.519149735569954">
<ele>134.8</ele>
<time>2024-05-11T12:07:14Z</time>
</trkpt>
<trkpt lat="49.74379727616906" lon="9.519062982872128">
<ele>134.6</ele>
<time>2024-05-11T12:07:15Z</time>
</trkpt>
<trkpt lat="49.7437400277704" lon="9.518976146355271">
<ele>134.4</ele>
<time>2024-05-11T12:07:16Z</time>
</trkpt>
<trkpt lat="49.74368277937174" lon="9.518890315666797">
<ele>134.2</ele>
<time>2024-05-11T12:07:17Z</time>
</trkpt>
<trkpt lat="49.743629386648536" lon="9.51880356296897">
<ele>134.2</ele>
<time>2024-05-11T12:07:18Z</time>
</trkpt>
<trkpt lat="49.743572222068906" lon="9.518716810271144">
<ele>133.8</ele>
<time>2024-05-11T12:07:19Z</time>
</trkpt>
<trkpt lat="49.7435188293457" lon="9.518629973754289">
<ele>133.6</ele>
<time>2024-05-11T12:07:20Z</time>
</trkpt>
<trkpt lat="49.743472980335355" lon="9.51854514889419">
<ele>133.4</ele>
<time>2024-05-11T12:07:21Z</time>
</trkpt>
<trkpt lat="49.74342721514404" lon="9.51846786774695">
<ele>133.2</ele>
<time>2024-05-11T12:07:22Z</time>
</trkpt>
<trkpt lat="49.74338530562818" lon="9.518393436446786">
<ele>133.2</ele>
<time>2024-05-11T12:07:23Z</time>
</trkpt>
<trkpt lat="49.74334331229329" lon="9.518318166956306">
<ele>133.2</ele>
<time>2024-05-11T12:07:24Z</time>
</trkpt>
<trkpt lat="49.74330517463386" lon="9.51824851334095">
<ele>133.2</ele>
<time>2024-05-11T12:07:25Z</time>
</trkpt>
<trkpt lat="49.74326703697443" lon="9.518177937716246">
<ele>133.2</ele>
<time>2024-05-11T12:07:26Z</time>
</trkpt>
<trkpt lat="49.743228899315" lon="9.51811021193862">
<ele>133.2</ele>
<time>2024-05-11T12:07:27Z</time>
</trkpt>
<trkpt lat="49.74319076165557" lon="9.518046341836452">
<ele>133.2</ele>
<time>2024-05-11T12:07:28Z</time>
</trkpt>
<trkpt lat="49.74315254017711" lon="9.517981465905905">
<ele>133.2</ele>
<time>2024-05-11T12:07:29Z</time>
</trkpt>
<trkpt lat="49.743118258193135" lon="9.517918517813088">
<ele>133.2</ele>
<time>2024-05-11T12:07:30Z</time>
</trkpt>
<trkpt lat="49.743080120533705" lon="9.517856575548649">
<ele>133.2</ele>
<time>2024-05-11T12:07:31Z</time>
</trkpt>
<trkpt lat="49.7430457547307" lon="9.517798405140638">
<ele>133</ele>
<time>2024-05-11T12:07:32Z</time>
</trkpt>
<trkpt lat="49.74301147274673" lon="9.517745012417436">
<ele>132.8</ele>
<time>2024-05-11T12:07:33Z</time>
</trkpt>
<trkpt lat="49.742980878800154" lon="9.51769539155066">
<ele>132.6</ele>
<time>2024-05-11T12:07:34Z</time>
</trkpt>
<trkpt lat="49.74294659681618" lon="9.517640070989728">
<ele>132.6</ele>
<time>2024-05-11T12:07:35Z</time>
</trkpt>
<trkpt lat="49.742919858545065" lon="9.517588606104256">
<ele>132.4</ele>
<time>2024-05-11T12:07:36Z</time>
</trkpt>
<trkpt lat="49.74289320409298" lon="9.51753806322813">
<ele>132.4</ele>
<time>2024-05-11T12:07:37Z</time>
</trkpt>
<trkpt lat="49.74286646582186" lon="9.517490370199084">
<ele>132.2</ele>
<time>2024-05-11T12:07:38Z</time>
</trkpt>
<trkpt lat="49.74284358322621" lon="9.517441671341658">
<ele>132.4</ele>
<time>2024-05-11T12:07:39Z</time>
</trkpt>
<trkpt lat="49.742820700630546" lon="9.517394984140992">
<ele>132.6</ele>
<time>2024-05-11T12:07:40Z</time>
</trkpt>
<trkpt lat="49.742801589891315" lon="9.517348213121297">
<ele>132.8</ele>
<time>2024-05-11T12:07:41Z</time>
</trkpt>
<trkpt lat="49.742778707295656" lon="9.51730345375836">
<ele>133</ele>
<time>2024-05-11T12:07:42Z</time>
</trkpt>
<trkpt lat="49.74275968037546" lon="9.517258610576391">
<ele>133.2</ele>
<time>2024-05-11T12:07:43Z</time>
</trkpt>
<trkpt lat="49.7427367977798" lon="9.517216617241502">
<ele>133.4</ele>
<time>2024-05-11T12:07:44Z</time>
</trkpt>
<trkpt lat="49.742721542716026" lon="9.517174707725644">
<ele>133.6</ele>
<time>2024-05-11T12:07:45Z</time>
</trkpt>
<trkpt lat="49.742706287652254" lon="9.517131792381406">
<ele>133.8</ele>
<time>2024-05-11T12:07:46Z</time>
</trkpt>
<trkpt lat="49.74269103258848" lon="9.517086949199438">
<ele>134</ele>
<time>2024-05-11T12:07:47Z</time>
</trkpt>
<trkpt lat="49.74267577752471" lon="9.51704017817974">
<ele>134.2</ele>
<time>2024-05-11T12:07:48Z</time>
</trkpt>
<trkpt lat="49.74265666678548" lon="9.516991563141346">
<ele>134.6</ele>
<time>2024-05-11T12:07:49Z</time>
</trkpt>
<trkpt lat="49.742641411721706" lon="9.516946719959378">
<ele>134.8</ele>
<time>2024-05-11T12:07:50Z</time>
</trkpt>
<trkpt lat="49.74261852912605" lon="9.516902882605793">
<ele>135.2</ele>
<time>2024-05-11T12:07:51Z</time>
</trkpt>
<trkpt lat="49.74260327406227" lon="9.516857117414474">
<ele>135.4</ele>
<time>2024-05-11T12:07:52Z</time>
</trkpt>
<trkpt lat="49.742588018998504" lon="9.516811352223158">
<ele>135.8</ele>
<time>2024-05-11T12:07:53Z</time>
</trkpt>
<trkpt lat="49.74257276393473" lon="9.51676843687892">
<ele>136</ele>
<time>2024-05-11T12:07:54Z</time>
</trkpt>
<trkpt lat="49.7425536531955" lon="9.5167245157063">
<ele>136.4</ele>
<time>2024-05-11T12:07:55Z</time>
</trkpt>
<trkpt lat="49.74254225380719" lon="9.516677828505635">
<ele>136.8</ele>
<time>2024-05-11T12:07:56Z</time>
</trkpt>
<trkpt lat="49.742526998743415" lon="9.51663013547659">
<ele>137</ele>
<time>2024-05-11T12:07:57Z</time>
</trkpt>
<trkpt lat="49.74251174367964" lon="9.516586298123002">
<ele>137.4</ele>
<time>2024-05-11T12:07:58Z</time>
</trkpt>
<trkpt lat="49.74249648861587" lon="9.516543382778764">
<ele>137.8</ele>
<time>2024-05-11T12:07:59Z</time>
</trkpt>
<trkpt lat="49.742485005408525" lon="9.516496611759068">
<ele>138.2</ele>
<time>2024-05-11T12:08:00Z</time>
</trkpt>
<trkpt lat="49.74247352220118" lon="9.516447996720672">
<ele>138.8</ele>
<time>2024-05-11T12:08:01Z</time>
</trkpt>
<trkpt lat="49.74246212281287" lon="9.516400303691626">
<ele>139.2</ele>
<time>2024-05-11T12:08:02Z</time>
</trkpt>
<trkpt lat="49.742446867749095" lon="9.5163497608155">
<ele>139.6</ele>
<time>2024-05-11T12:08:03Z</time>
</trkpt>
<trkpt lat="49.74243924021721" lon="9.516295362263918">
<ele>140</ele>
<time>2024-05-11T12:08:04Z</time>
</trkpt>
<trkpt lat="49.74242398515344" lon="9.516244819387794">
<ele>140.6</ele>
<time>2024-05-11T12:08:05Z</time>
</trkpt>
<trkpt lat="49.742408730089664" lon="9.51619335450232">
<ele>141</ele>
<time>2024-05-11T12:08:06Z</time>
</trkpt>
<trkpt lat="49.74239347502589" lon="9.516149517148731">
<ele>141.4</ele>
<time>2024-05-11T12:08:07Z</time>
</trkpt>
<trkpt lat="49.74238199181855" lon="9.516111295670273">
<ele>141.8</ele>
<time>2024-05-11T12:08:08Z</time>
</trkpt>
<trkpt lat="49.742370592430234" lon="9.516066536307337">
<ele>142.2</ele>
<time>2024-05-11T12:08:09Z</time>
</trkpt>
<trkpt lat="49.74236296489835" lon="9.516019765287638">
<ele>142.6</ele>
<time>2024-05-11T12:08:10Z</time>
</trkpt>
<trkpt lat="49.742351481691" lon="9.51597785577178">
<ele>143</ele>
<time>2024-05-11T12:08:11Z</time>
</trkpt>
<trkpt lat="49.74234008230269" lon="9.515926307067277">
<ele>143.4</ele>
<time>2024-05-11T12:08:12Z</time>
</trkpt>
<trkpt lat="49.7423324547708" lon="9.515881463885307">
<ele>143.8</ele>
<time>2024-05-11T12:08:13Z</time>
</trkpt>
<trkpt lat="49.74232097156346" lon="9.515829998999834">
<ele>144</ele>
<time>2024-05-11T12:08:14Z</time>
</trkpt>
<trkpt lat="49.7422980889678" lon="9.515783227980137">
<ele>144.4</ele>
<time>2024-05-11T12:08:15Z</time>
</trkpt>
<trkpt lat="49.74227520637214" lon="9.5157384686172">
<ele>144.6</ele>
<time>2024-05-11T12:08:16Z</time>
</trkpt>
<trkpt lat="49.74225609563291" lon="9.51570033095777">
<ele>145</ele>
<time>2024-05-11T12:08:17Z</time>
</trkpt>
<trkpt lat="49.74223321303725" lon="9.515671664848924">
<ele>145.2</ele>
<time>2024-05-11T12:08:18Z</time>
</trkpt>
<trkpt lat="49.742210330441594" lon="9.515647860243917">
<ele>145.6</ele>
<time>2024-05-11T12:08:19Z</time>
</trkpt>
<trkpt lat="49.742187447845936" lon="9.515631599351764">
<ele>145.8</ele>
<time>2024-05-11T12:08:20Z</time>
</trkpt>
<trkpt lat="49.74216456525028" lon="9.51561827212572">
<ele>146.2</ele>
<time>2024-05-11T12:08:21Z</time>
</trkpt>
<trkpt lat="49.74214168265462" lon="9.515611566603184">
<ele>146.4</ele>
<time>2024-05-11T12:08:22Z</time>
</trkpt>
<trkpt lat="49.7421149443835" lon="9.515596311539412">
<ele>146.6</ele>
<time>2024-05-11T12:08:23Z</time>
</trkpt>
<trkpt lat="49.74208828993142" lon="9.515576362609863">
<ele>147</ele>
<time>2024-05-11T12:08:24Z</time>
</trkpt>
<trkpt lat="49.7420615516603" lon="9.51555817387998">
<ele>147.2</ele>
<time>2024-05-11T12:08:25Z</time>
</trkpt>
<trkpt lat="49.74203866906464" lon="9.515536297112703">
<ele>147.6</ele>
<time>2024-05-11T12:08:26Z</time>
</trkpt>
<trkpt lat="49.74202341400087" lon="9.515515258535745">
<ele>147.8</ele>
<time>2024-05-11T12:08:27Z</time>
</trkpt>
<trkpt lat="49.7420081589371" lon="9.5155019313097">
<ele>148</ele>
<time>2024-05-11T12:08:28Z</time>
</trkpt>
<trkpt lat="49.74199290387333" lon="9.515491453930736">
<ele>148.4</ele>
<time>2024-05-11T12:08:29Z</time>
</trkpt>
<trkpt lat="49.741973876953125" lon="9.51547997072339">
<ele>148.6</ele>
<time>2024-05-11T12:08:30Z</time>
</trkpt>
<trkpt lat="49.741954766213894" lon="9.51546186581254">
<ele>148.8</ele>
<time>2024-05-11T12:08:31Z</time>
</trkpt>
<trkpt lat="49.74193188361824" lon="9.515446610748768">
<ele>149</ele>
<time>2024-05-11T12:08:32Z</time>
</trkpt>
<trkpt lat="49.741912772879004" lon="9.515426578000188">
<ele>149.2</ele>
<time>2024-05-11T12:08:33Z</time>
</trkpt>
<trkpt lat="49.741889890283346" lon="9.515411322936416">
<ele>149.6</ele>
<time>2024-05-11T12:08:34Z</time>
</trkpt>
<trkpt lat="49.74186700768769" lon="9.51538466848433">
<ele>149.8</ele>
<time>2024-05-11T12:08:35Z</time>
</trkpt>
<trkpt lat="49.74184798076749" lon="9.515350302681329">
<ele>150</ele>
<time>2024-05-11T12:08:36Z</time>
</trkpt>
<trkpt lat="49.74182509817183" lon="9.515315014868976">
<ele>150.2</ele>
<time>2024-05-11T12:08:37Z</time>
</trkpt>
<trkpt lat="49.741813614964485" lon="9.515273021534083">
<ele>150.4</ele>
<time>2024-05-11T12:08:38Z</time>
</trkpt>
<trkpt lat="49.7418059874326" lon="9.51522826217115">
<ele>150.8</ele>
<time>2024-05-11T12:08:39Z</time>
</trkpt>
<trkpt lat="49.74179835990071" lon="9.515183418989182">
<ele>151</ele>
<time>2024-05-11T12:08:40Z</time>
</trkpt>
<trkpt lat="49.74179835990071" lon="9.515138575807214">
<ele>151.2</ele>
<time>2024-05-11T12:08:41Z</time>
</trkpt>
<trkpt lat="49.7418059874326" lon="9.515098510310054">
<ele>151.6</ele>
<time>2024-05-11T12:08:42Z</time>
</trkpt>
<trkpt lat="49.74182509817183" lon="9.515058444812894">
<ele>151.8</ele>
<time>2024-05-11T12:08:43Z</time>
</trkpt>
<trkpt lat="49.74184412509203" lon="9.515021312981844">
<ele>152</ele>
<time>2024-05-11T12:08:44Z</time>
</trkpt>
<trkpt lat="49.74186700768769" lon="9.514985019341111">
<ele>152.2</ele>
<time>2024-05-11T12:08:45Z</time>
</trkpt>
<trkpt lat="49.741893745958805" lon="9.51494688168168">
<ele>152.4</ele>
<time>2024-05-11T12:08:46Z</time>
</trkpt>
<trkpt lat="49.74191662855446" lon="9.514913521707058">
<ele>152.6</ele>
<time>2024-05-11T12:08:47Z</time>
</trkpt>
<trkpt lat="49.74193565547466" lon="9.514878233894706">
<ele>153</ele>
<time>2024-05-11T12:08:48Z</time>
</trkpt>
<trkpt lat="49.741954766213894" lon="9.514836240559816">
<ele>153</ele>
<time>2024-05-11T12:08:49Z</time>
</trkpt>
<trkpt lat="49.74197764880955" lon="9.514795253053308">
<ele>153.2</ele>
<time>2024-05-11T12:08:50Z</time>
</trkpt>
<trkpt lat="49.74200053140521" lon="9.514753259718418">
<ele>153.4</ele>
<time>2024-05-11T12:08:51Z</time>
</trkpt>
<trkpt lat="49.74202341400087" lon="9.514717049896715">
<ele>153.4</ele>
<time>2024-05-11T12:08:52Z</time>
</trkpt>
<trkpt lat="49.74203866906464" lon="9.514676984399555">
<ele>153.6</ele>
<time>2024-05-11T12:08:53Z</time>
</trkpt>
<trkpt lat="49.742050152271986" lon="9.514630297198892">
<ele>153.6</ele>
<time>2024-05-11T12:08:54Z</time>
</trkpt>
<trkpt lat="49.74205777980387" lon="9.514583526179194">
<ele>153.6</ele>
<time>2024-05-11T12:08:55Z</time>
</trkpt>
<trkpt lat="49.742069179192185" lon="9.514538682997228">
<ele>153.6</ele>
<time>2024-05-11T12:08:56Z</time>
</trkpt>
<trkpt lat="49.74208828993142" lon="9.514490067958832">
<ele>153.8</ele>
<time>2024-05-11T12:08:57Z</time>
</trkpt>
<trkpt lat="49.74210354499519" lon="9.514441452920437">
<ele>153.8</ele>
<time>2024-05-11T12:08:58Z</time>
</trkpt>
<trkpt lat="49.742111172527075" lon="9.514388060197234">
<ele>153.8</ele>
<time>2024-05-11T12:08:59Z</time>
</trkpt>
<trkpt lat="49.74212642759085" lon="9.514325112104416">
<ele>153.8</ele>
<time>2024-05-11T12:09:00Z</time>
</trkpt>
<trkpt lat="49.742130199447274" lon="9.514251686632631">
<ele>153.8</ele>
<time>2024-05-11T12:09:01Z</time>
</trkpt>
<trkpt lat="49.74214168265462" lon="9.514184882864356">
<ele>153.8</ele>
<time>2024-05-11T12:09:02Z</time>
</trkpt>
<trkpt lat="49.74215316586197" lon="9.514126712456346">
<ele>153.8</ele>
<time>2024-05-11T12:09:03Z</time>
</trkpt>
<trkpt lat="49.742168420925736" lon="9.514068542048337">
<ele>153.8</ele>
<time>2024-05-11T12:09:04Z</time>
</trkpt>
<trkpt lat="49.74218367598951" lon="9.514011377468703">
<ele>153.6</ele>
<time>2024-05-11T12:09:05Z</time>
</trkpt>
<trkpt lat="49.74219893105328" lon="9.513950273394585">
<ele>153.6</ele>
<time>2024-05-11T12:09:06Z</time>
</trkpt>
<trkpt lat="49.74222181364894" lon="9.513891180977224">
<ele>153.4</ele>
<time>2024-05-11T12:09:07Z</time>
</trkpt>
<trkpt lat="49.74223321303725" lon="9.513825383037329">
<ele>153.2</ele>
<time>2024-05-11T12:09:08Z</time>
</trkpt>
<trkpt lat="49.74225609563291" lon="9.513754807412624">
<ele>153</ele>
<time>2024-05-11T12:09:09Z</time>
</trkpt>
<trkpt lat="49.74228283390403" lon="9.513691859319806">
<ele>152.8</ele>
<time>2024-05-11T12:09:10Z</time>
</trkpt>
<trkpt lat="49.742305716499686" lon="9.513629833236337">
<ele>152.4</ele>
<time>2024-05-11T12:09:11Z</time>
</trkpt>
<trkpt lat="49.7423324547708" lon="9.51356696896255">
<ele>152.2</ele>
<time>2024-05-11T12:09:12Z</time>
</trkpt>
<trkpt lat="49.74236296489835" lon="9.513502093032002">
<ele>152</ele>
<time>2024-05-11T12:09:13Z</time>
</trkpt>
<trkpt lat="49.74238961935043" lon="9.513435289263724">
<ele>151.8</ele>
<time>2024-05-11T12:09:14Z</time>
</trkpt>
<trkpt lat="49.74242012947798" lon="9.513371419161558">
<ele>151.6</ele>
<time>2024-05-11T12:09:15Z</time>
</trkpt>
<trkpt lat="49.74244301207363" lon="9.513299921527503">
<ele>151.4</ele>
<time>2024-05-11T12:09:16Z</time>
</trkpt>
<trkpt lat="49.74246975034475" lon="9.513224568217993">
<ele>151.2</ele>
<time>2024-05-11T12:09:17Z</time>
</trkpt>
<trkpt lat="49.74250411614776" lon="9.513146365061402">
<ele>151</ele>
<time>2024-05-11T12:09:18Z</time>
</trkpt>
<trkpt lat="49.74253839813173" lon="9.513066234067082">
<ele>150.6</ele>
<time>2024-05-11T12:09:19Z</time>
</trkpt>
<trkpt lat="49.74257276393473" lon="9.51298995874822">
<ele>150.4</ele>
<time>2024-05-11T12:09:20Z</time>
</trkpt>
<trkpt lat="49.74261852912605" lon="9.512907899916172">
<ele>150</ele>
<time>2024-05-11T12:09:21Z</time>
</trkpt>
<trkpt lat="49.742668149992824" lon="9.512818297371268">
<ele>149.8</ele>
<time>2024-05-11T12:09:22Z</time>
</trkpt>
<trkpt lat="49.74271005950868" lon="9.512731544673445">
<ele>149.4</ele>
<time>2024-05-11T12:09:23Z</time>
</trkpt>
<trkpt lat="49.74275968037546" lon="9.51263808645308">
<ele>149</ele>
<time>2024-05-11T12:09:24Z</time>
</trkpt>
<trkpt lat="49.74281684495509" lon="9.512546472251415">
<ele>148.6</ele>
<time>2024-05-11T12:09:25Z</time>
</trkpt>
<trkpt lat="49.74287794902921" lon="9.512451170012357">
<ele>148.2</ele>
<time>2024-05-11T12:09:26Z</time>
</trkpt>
<trkpt lat="49.742938969284296" lon="9.512363411486149">
<ele>147.8</ele>
<time>2024-05-11T12:09:27Z</time>
</trkpt>
<trkpt lat="49.742996133863926" lon="9.5122813526541">
<ele>147.4</ele>
<time>2024-05-11T12:09:28Z</time>
</trkpt>
<trkpt lat="49.743061009794474" lon="9.5121983718127">
<ele>146.8</ele>
<time>2024-05-11T12:09:29Z</time>
</trkpt>
<trkpt lat="49.74312588572502" lon="9.512111619114876">
<ele>146.2</ele>
<time>2024-05-11T12:09:30Z</time>
</trkpt>
<trkpt lat="49.74318313412368" lon="9.512028638273478">
<ele>145.6</ele>
<time>2024-05-11T12:09:31Z</time>
</trkpt>
<trkpt lat="49.743255553767085" lon="9.511948507279158">
<ele>145</ele>
<time>2024-05-11T12:09:32Z</time>
</trkpt>
<trkpt lat="49.743335684761405" lon="9.511819761246445">
<ele>144.4</ele>
<time>2024-05-11T12:09:33Z</time>
</trkpt>
<trkpt lat="49.7434310708195" lon="9.511741558089852">
<ele>144</ele>
<time>2024-05-11T12:09:34Z</time>
</trkpt>
<trkpt lat="49.743511117994785" lon="9.511634772643449">
<ele>143.6</ele>
<time>2024-05-11T12:09:35Z</time>
</trkpt>
<trkpt lat="49.74358362145722" lon="9.511533686891198">
<ele>143.2</ele>
<time>2024-05-11T12:09:36Z</time>
</trkpt>
<trkpt lat="49.74365612491965" lon="9.511443078517914">
<ele>142.8</ele>
<time>2024-05-11T12:09:37Z</time>
</trkpt>
<trkpt lat="49.74372862838209" lon="9.511356325820088">
<ele>142.4</ele>
<time>2024-05-11T12:09:38Z</time>
</trkpt>
<trkpt lat="49.74380104802549" lon="9.51127141714096">
<ele>142</ele>
<time>2024-05-11T12:09:39Z</time>
</trkpt>
<trkpt lat="49.74386592395604" lon="9.5111951418221">
<ele>141.8</ele>
<time>2024-05-11T12:09:40Z</time>
</trkpt>
<trkpt lat="49.743930799886584" lon="9.511121716350315">
<ele>141.4</ele>
<time>2024-05-11T12:09:41Z</time>
</trkpt>
<trkpt lat="49.743987964466214" lon="9.51105491258204">
<ele>141.2</ele>
<time>2024-05-11T12:09:42Z</time>
</trkpt>
<trkpt lat="49.74404144100845" lon="9.510994898155332">
<ele>141</ele>
<time>2024-05-11T12:09:43Z</time>
</trkpt>
<trkpt lat="49.74409483373165" lon="9.510926166549323">
<ele>140.8</ele>
<time>2024-05-11T12:09:44Z</time>
</trkpt>
<trkpt lat="49.744148226454854" lon="9.510861374437807">
<ele>140.6</ele>
<time>2024-05-11T12:09:45Z</time>
</trkpt>
<trkpt lat="49.74420547485352" lon="9.510801276192067">
<ele>140.4</ele>
<time>2024-05-11T12:09:46Z</time>
</trkpt>
<trkpt lat="49.744262639433146" lon="9.510745033621788">
<ele>140.4</ele>
<time>2024-05-11T12:09:47Z</time>
</trkpt>
<trkpt lat="49.74431603215635" lon="9.510686863213778">
<ele>140.2</ele>
<time>2024-05-11T12:09:48Z</time>
</trkpt>
<trkpt lat="49.744380908086896" lon="9.51062198728323">
<ele>140.2</ele>
<time>2024-05-11T12:09:49Z</time>
</trkpt>
<trkpt lat="49.74443815648556" lon="9.510564738884568">
<ele>140.2</ele>
<time>2024-05-11T12:09:50Z</time>
</trkpt>
<trkpt lat="49.74449154920876" lon="9.510517045855522">
<ele>140.2</ele>
<time>2024-05-11T12:09:51Z</time>
</trkpt>
<trkpt lat="49.74454879760742" lon="9.510466502979398">
<ele>140.2</ele>
<time>2024-05-11T12:09:52Z</time>
</trkpt>
<trkpt lat="49.74460981786251" lon="9.510417887941005">
<ele>140.2</ele>
<time>2024-05-11T12:09:53Z</time>
</trkpt>
<trkpt lat="49.74467460997403" lon="9.510373044759037">
<ele>140.2</ele>
<time>2024-05-11T12:09:54Z</time>
</trkpt>
<trkpt lat="49.744739485904574" lon="9.510330129414797">
<ele>140.2</ele>
<time>2024-05-11T12:09:55Z</time>
</trkpt>
<trkpt lat="49.74480050615966" lon="9.510290063917637">
<ele>140.2</ele>
<time>2024-05-11T12:09:56Z</time>
</trkpt>
<trkpt lat="49.74486152641475" lon="9.51024622656405">
<ele>140.2</ele>
<time>2024-05-11T12:09:57Z</time>
</trkpt>
<trkpt lat="49.744915002956986" lon="9.51020808890462">
<ele>140.2</ele>
<time>2024-05-11T12:09:58Z</time>
</trkpt>
<trkpt lat="49.744972167536616" lon="9.51016517356038">
<ele>140.2</ele>
<time>2024-05-11T12:09:59Z</time>
</trkpt>
<trkpt lat="49.74502556025982" lon="9.510118402540684">
<ele>140.2</ele>
<time>2024-05-11T12:10:00Z</time>
</trkpt>
<trkpt lat="49.745075181126595" lon="9.510071715340018">
<ele>140.4</ele>
<time>2024-05-11T12:10:01Z</time>
</trkpt>
<trkpt lat="49.74512094631791" lon="9.51002879999578">
<ele>140.4</ele>
<time>2024-05-11T12:10:02Z</time>
</trkpt>
<trkpt lat="49.7451629396528" lon="9.509978257119656">
<ele>140.4</ele>
<time>2024-05-11T12:10:03Z</time>
</trkpt>
<trkpt lat="49.745212476700544" lon="9.50992863625288">
<ele>140.4</ele>
<time>2024-05-11T12:10:04Z</time>
</trkpt>
<trkpt lat="49.74526209756732" lon="9.50986954383552">
<ele>140.4</ele>
<time>2024-05-11T12:10:05Z</time>
</trkpt>
<trkpt lat="49.74530023522675" lon="9.509822772815824">
<ele>140.4</ele>
<time>2024-05-11T12:10:06Z</time>
</trkpt>
<trkpt lat="49.74533837288618" lon="9.509779857471583">
<ele>140.6</ele>
<time>2024-05-11T12:10:07Z</time>
</trkpt>
<trkpt lat="49.745372738689184" lon="9.50973124243319">
<ele>140.6</ele>
<time>2024-05-11T12:10:08Z</time>
</trkpt>
<trkpt lat="49.74540324881673" lon="9.509681621566417">
<ele>140.6</ele>
<time>2024-05-11T12:10:09Z</time>
</trkpt>
<trkpt lat="49.745429987087846" lon="9.509641639888288">
<ele>140.6</ele>
<time>2024-05-11T12:10:10Z</time>
</trkpt>
<trkpt lat="49.745452869683504" lon="9.509605346247554">
<ele>140.6</ele>
<time>2024-05-11T12:10:11Z</time>
</trkpt>
<trkpt lat="49.7454718966037" lon="9.509568214416504">
<ele>140.6</ele>
<time>2024-05-11T12:10:12Z</time>
</trkpt>
<trkpt lat="49.74549477919936" lon="9.50953477062285">
<ele>140.6</ele>
<time>2024-05-11T12:10:13Z</time>
</trkpt>
<trkpt lat="49.74551766179502" lon="9.509501410648229">
<ele>140.6</ele>
<time>2024-05-11T12:10:14Z</time>
</trkpt>
<trkpt lat="49.74553677253425" lon="9.50947467237711">
<ele>140.6</ele>
<time>2024-05-11T12:10:15Z</time>
</trkpt>
<trkpt lat="49.74555579945445" lon="9.509451789781451">
<ele>140.4</ele>
<time>2024-05-11T12:10:16Z</time>
</trkpt>
<trkpt lat="49.74557491019368" lon="9.509429913014174">
<ele>140.4</ele>
<time>2024-05-11T12:10:17Z</time>
</trkpt>
<trkpt lat="49.74559779278934" lon="9.509400324895978">
<ele>140.4</ele>
<time>2024-05-11T12:10:18Z</time>
</trkpt>
<trkpt lat="49.745620675385" lon="9.50937358662486">
<ele>140.2</ele>
<time>2024-05-11T12:10:19Z</time>
</trkpt>
<trkpt lat="49.74563978612423" lon="9.509343076497316">
<ele>140.2</ele>
<time>2024-05-11T12:10:20Z</time>
</trkpt>
<trkpt lat="49.74565881304443" lon="9.50931541621685">
<ele>140.2</ele>
<time>2024-05-11T12:10:21Z</time>
</trkpt>
<trkpt lat="49.745685551315546" lon="9.50929446145892">
<ele>140.2</ele>
<time>2024-05-11T12:10:22Z</time>
</trkpt>
<trkpt lat="49.74571983329952" lon="9.509273506700993">
<ele>140.2</ele>
<time>2024-05-11T12:10:23Z</time>
</trkpt>
<trkpt lat="49.74576182663441" lon="9.509251546114683">
<ele>140.2</ele>
<time>2024-05-11T12:10:24Z</time>
</trkpt>
<trkpt lat="49.74579996429384" lon="9.509226735681295">
<ele>140.2</ele>
<time>2024-05-11T12:10:25Z</time>
</trkpt>
<trkpt lat="49.74583810195327" lon="9.509206702932715">
<ele>140.2</ele>
<time>2024-05-11T12:10:26Z</time>
</trkpt>
<trkpt lat="49.7458762396127" lon="9.509186670184135">
<ele>140</ele>
<time>2024-05-11T12:10:27Z</time>
</trkpt>
<trkpt lat="49.74590674974024" lon="9.509168565273283">
<ele>140</ele>
<time>2024-05-11T12:10:28Z</time>
</trkpt>
<trkpt lat="49.74592971615493" lon="9.509155238047242">
<ele>140</ele>
<time>2024-05-11T12:10:29Z</time>
</trkpt>
<trkpt lat="49.74595259875059" lon="9.5091419108212">
<ele>139.8</ele>
<time>2024-05-11T12:10:30Z</time>
</trkpt>
<trkpt lat="49.74597162567079" lon="9.509130427613854">
<ele>139.8</ele>
<time>2024-05-11T12:10:31Z</time>
</trkpt>
<trkpt lat="49.74599450826645" lon="9.509117100387812">
<ele>139.8</ele>
<time>2024-05-11T12:10:32Z</time>
</trkpt>
<trkpt lat="49.74601739086211" lon="9.50909991748631">
<ele>139.8</ele>
<time>2024-05-11T12:10:33Z</time>
</trkpt>
<trkpt lat="49.746040273457766" lon="9.509083740413187">
<ele>139.6</ele>
<time>2024-05-11T12:10:34Z</time>
</trkpt>
<trkpt lat="49.74606701172888" lon="9.50906177982688">
<ele>139.6</ele>
<time>2024-05-11T12:10:35Z</time>
</trkpt>
<trkpt lat="49.746101377531886" lon="9.509044596925378">
<ele>139.8</ele>
<time>2024-05-11T12:10:36Z</time>
</trkpt>
<trkpt lat="49.74613188765943" lon="9.509036969393492">
<ele>139.8</ele>
<time>2024-05-11T12:10:37Z</time>
</trkpt>
<trkpt lat="49.7461661696434" lon="9.509026492014527">
<ele>139.8</ele>
<time>2024-05-11T12:10:38Z</time>
</trkpt>
<trkpt lat="49.74619667977095" lon="9.509024564176798">
<ele>140</ele>
<time>2024-05-11T12:10:39Z</time>
</trkpt>
<trkpt lat="49.74622718989849" lon="9.509013164788485">
<ele>140</ele>
<time>2024-05-11T12:10:40Z</time>
</trkpt>
<trkpt lat="49.746261555701494" lon="9.508996903896332">
<ele>140.2</ele>
<time>2024-05-11T12:10:41Z</time>
</trkpt>
<trkpt lat="49.74628829397261" lon="9.508986426517367">
<ele>140.2</ele>
<time>2024-05-11T12:10:42Z</time>
</trkpt>
<trkpt lat="49.74631117656827" lon="9.508968321606517">
<ele>140.2</ele>
<time>2024-05-11T12:10:43Z</time>
</trkpt>
<trkpt lat="49.746337831020355" lon="9.508953066542745">
<ele>140.4</ele>
<time>2024-05-11T12:10:44Z</time>
</trkpt>
<trkpt lat="49.74636071361601" lon="9.508943511173127">
<ele>140.4</ele>
<time>2024-05-11T12:10:45Z</time>
</trkpt>
<trkpt lat="49.746375968679786" lon="9.508934961631894">
<ele>140.4</ele>
<time>2024-05-11T12:10:46Z</time>
</trkpt>
<trkpt lat="49.74639122374356" lon="9.50891870073974">
<ele>140.4</ele>
<time>2024-05-11T12:10:47Z</time>
</trkpt>
<trkpt lat="49.74641033448279" lon="9.508913001045585">
<ele>140.4</ele>
<time>2024-05-11T12:10:48Z</time>
</trkpt>
<trkpt lat="49.74643321707845" lon="9.508913001045585">
<ele>140.4</ele>
<time>2024-05-11T12:10:49Z</time>
</trkpt>
<trkpt lat="49.74644847214222" lon="9.508916772902012">
<ele>140.4</ele>
<time>2024-05-11T12:10:50Z</time>
</trkpt>
<trkpt lat="49.746456099674106" lon="9.508910151198506">
<ele>140.6</ele>
<time>2024-05-11T12:10:51Z</time>
</trkpt>
<trkpt lat="49.74647521041334" lon="9.508910151198506">
<ele>140.6</ele>
<time>2024-05-11T12:10:52Z</time>
</trkpt>
<trkpt lat="49.74647898226976" lon="9.508910151198506">
<ele>140.8</ele>
<time>2024-05-11T12:10:54Z</time>
</trkpt>
<trkpt lat="49.74647898226976" lon="9.508912079036236">
<ele>140.8</ele>
<time>2024-05-11T12:10:55Z</time>
</trkpt>
<trkpt lat="49.74648660980165" lon="9.508912079036236">
<ele>140.8</ele>
<time>2024-05-11T12:10:56Z</time>
</trkpt>
<trkpt lat="49.74649046547711" lon="9.508910151198506">
<ele>140.8</ele>
<time>2024-05-11T12:10:57Z</time>
</trkpt>
<trkpt lat="49.74650186486542" lon="9.508913001045585">
<ele>140.8</ele>
<time>2024-05-11T12:10:58Z</time>
</trkpt>
<trkpt lat="49.74650186486542" lon="9.508914928883314">
<ele>140.8</ele>
<time>2024-05-11T12:10:59Z</time>
</trkpt>
<trkpt lat="49.74650572054088" lon="9.508916772902012">
<ele>140.6</ele>
<time>2024-05-11T12:11:00Z</time>
</trkpt>
<trkpt lat="49.74650949239731" lon="9.508914928883314">
<ele>140.6</ele>
<time>2024-05-11T12:11:03Z</time>
</trkpt>
<trkpt lat="49.74651334807277" lon="9.508916772902012">
<ele>140.6</ele>
<time>2024-05-11T12:11:05Z</time>
</trkpt>
<trkpt lat="49.746517119929194" lon="9.508914928883314">
<ele>140.6</ele>
<time>2024-05-11T12:11:06Z</time>
</trkpt>
<trkpt lat="49.74652474746108" lon="9.508912079036236">
<ele>140.6</ele>
<time>2024-05-11T12:11:07Z</time>
</trkpt>
<trkpt lat="49.74652860313654" lon="9.508910151198506">
<ele>140.6</ele>
<time>2024-05-11T12:11:08Z</time>
</trkpt>
<trkpt lat="49.74653237499297" lon="9.508908223360775">
<ele>140.6</ele>
<time>2024-05-11T12:11:09Z</time>
</trkpt>
<trkpt lat="49.746536230668426" lon="9.5089053735137">
<ele>140.6</ele>
<time>2024-05-11T12:11:10Z</time>
</trkpt>
<trkpt lat="49.74654000252485" lon="9.5089053735137">
<ele>140.6</ele>
<time>2024-05-11T12:11:11Z</time>
</trkpt>
<trkpt lat="49.746555257588625" lon="9.50889866799116">
<ele>140.6</ele>
<time>2024-05-11T12:11:12Z</time>
</trkpt>
<trkpt lat="49.7465705126524" lon="9.508894896134734">
<ele>140.6</ele>
<time>2024-05-11T12:11:13Z</time>
</trkpt>
<trkpt lat="49.74658199585974" lon="9.50888341292739">
<ele>140.6</ele>
<time>2024-05-11T12:11:14Z</time>
</trkpt>
<trkpt lat="49.74658962339163" lon="9.508879641070962">
<ele>140.6</ele>
<time>2024-05-11T12:11:15Z</time>
</trkpt>
<trkpt lat="49.746593395248055" lon="9.508874863386154">
<ele>140.4</ele>
<time>2024-05-11T12:11:16Z</time>
</trkpt>
<trkpt lat="49.74660102277994" lon="9.508872013539076">
<ele>140.4</ele>
<time>2024-05-11T12:11:17Z</time>
</trkpt>
<trkpt lat="49.74660873413086" lon="9.508868157863615">
<ele>140.4</ele>
<time>2024-05-11T12:11:18Z</time>
</trkpt>
<trkpt lat="49.74662013351917" lon="9.50886530801654">
<ele>140.2</ele>
<time>2024-05-11T12:11:19Z</time>
</trkpt>
<trkpt lat="49.74662776105106" lon="9.50886530801654">
<ele>140.2</ele>
<time>2024-05-11T12:11:20Z</time>
</trkpt>
<trkpt lat="49.7466392442584" lon="9.50886338017881">
<ele>140.2</ele>
<time>2024-05-11T12:11:21Z</time>
</trkpt>
<trkpt lat="49.74664301611483" lon="9.508856758475304">
<ele>140.2</ele>
<time>2024-05-11T12:11:22Z</time>
</trkpt>
<trkpt lat="49.74665064364672" lon="9.508851980790496">
<ele>140.2</ele>
<time>2024-05-11T12:11:23Z</time>
</trkpt>
<trkpt lat="49.7466582711786" lon="9.50884628109634">
<ele>140.2</ele>
<time>2024-05-11T12:11:24Z</time>
</trkpt>
<trkpt lat="49.746654499322176" lon="9.50884334743023">
<ele>140</ele>
<time>2024-05-11T12:11:25Z</time>
</trkpt>
<trkpt lat="49.746654499322176" lon="9.508841503411531">
<ele>139.8</ele>
<time>2024-05-11T12:11:26Z</time>
</trkpt>
<trkpt lat="49.7466582711786" lon="9.508838653564451">
<ele>139.8</ele>
<time>2024-05-11T12:11:27Z</time>
</trkpt>
<trkpt lat="49.7466582711786" lon="9.508831948041916">
<ele>139.8</ele>
<time>2024-05-11T12:11:28Z</time>
</trkpt>
<trkpt lat="49.74666212685406" lon="9.50882624834776">
<ele>140</ele>
<time>2024-05-11T12:11:29Z</time>
</trkpt>
<trkpt lat="49.74666589871049" lon="9.50882331468165">
<ele>140</ele>
<time>2024-05-11T12:11:30Z</time>
</trkpt>
<trkpt lat="49.74666975438595" lon="9.508819542825222">
<ele>140.2</ele>
<time>2024-05-11T12:11:31Z</time>
</trkpt>
<trkpt lat="49.74666975438595" lon="9.508821470662951">
<ele>140.4</ele>
<time>2024-05-11T12:11:32Z</time>
</trkpt>
<trkpt lat="49.74666589871049" lon="9.508821470662951">
<ele>140.4</ele>
<time>2024-05-11T12:11:33Z</time>
</trkpt>
<trkpt lat="49.74666589871049" lon="9.508816692978144">
<ele>140.6</ele>
<time>2024-05-11T12:11:37Z</time>
</trkpt>
<trkpt lat="49.74666589871049" lon="9.508814765140414">
<ele>140.8</ele>
<time>2024-05-11T12:11:38Z</time>
</trkpt>
<trkpt lat="49.74666975438595" lon="9.508814765140414">
<ele>140.8</ele>
<time>2024-05-11T12:11:42Z</time>
</trkpt>
<trkpt lat="49.74666975438595" lon="9.508812837302685">
<ele>141</ele>
<time>2024-05-11T12:11:43Z</time>
</trkpt>
<trkpt lat="49.74666975438595" lon="9.508811915293336">
<ele>141</ele>
<time>2024-05-11T12:11:47Z</time>
</trkpt>
<trkpt lat="49.74666975438595" lon="9.508809987455606">
<ele>141</ele>
<time>2024-05-11T12:11:49Z</time>
</trkpt>
<trkpt lat="49.74666589871049" lon="9.508809987455606">
<ele>141.2</ele>
<time>2024-05-11T12:11:52Z</time>
</trkpt>
<trkpt lat="49.74666589871049" lon="9.508808059617875">
<ele>141.2</ele>
<time>2024-05-11T12:11:53Z</time>
</trkpt>
<trkpt lat="49.74666589871049" lon="9.50880621559918">
<ele>141.4</ele>
<time>2024-05-11T12:11:56Z</time>
</trkpt>
<trkpt lat="49.74666589871049" lon="9.5088052097708">
<ele>141.4</ele>
<time>2024-05-11T12:11:59Z</time>
</trkpt>
<trkpt lat="49.74666589871049" lon="9.5088033657521">
<ele>141.4</ele>
<time>2024-05-11T12:12:03Z</time>
</trkpt>
<trkpt lat="49.74666212685406" lon="9.5088033657521">
<ele>141.4</ele>
<time>2024-05-11T12:12:06Z</time>
</trkpt>
<trkpt lat="49.74666212685406" lon="9.508801437914371">
<ele>141.4</ele>
<time>2024-05-11T12:12:08Z</time>
</trkpt>
<trkpt lat="49.74666212685406" lon="9.5088033657521">
<ele>141.4</ele>
<time>2024-05-11T12:12:13Z</time>
</trkpt>
<trkpt lat="49.7466582711786" lon="9.5088033657521">
<ele>141.4</ele>
<time>2024-05-11T12:12:14Z</time>
</trkpt>
<trkpt lat="49.7466582711786" lon="9.508801437914371">
<ele>141.4</ele>
<time>2024-05-11T12:12:16Z</time>
</trkpt>
<trkpt lat="49.7466582711786" lon="9.5088033657521">
<ele>141.4</ele>
<time>2024-05-11T12:12:21Z</time>
</trkpt>
<trkpt lat="49.7466582711786" lon="9.508801437914371">
<ele>141.4</ele>
<time>2024-05-11T12:12:22Z</time>
</trkpt>
<trkpt lat="49.7466582711786" lon="9.5088033657521">
<ele>141.4</ele>
<time>2024-05-11T12:12:28Z</time>
</trkpt>
<trkpt lat="49.746654499322176" lon="9.5088033657521">
<ele>141.4</ele>
<time>2024-05-11T12:12:29Z</time>
</trkpt>
<trkpt lat="49.746654499322176" lon="9.5088052097708">
<ele>141.4</ele>
<time>2024-05-11T12:12:36Z</time>
</trkpt>
<trkpt lat="49.74665064364672" lon="9.50880621559918">
<ele>141.2</ele>
<time>2024-05-11T12:12:38Z</time>
</trkpt>
<trkpt lat="49.74665064364672" lon="9.508808059617875">
<ele>141.2</ele>
<time>2024-05-11T12:12:40Z</time>
</trkpt>
<trkpt lat="49.74664687179029" lon="9.508809987455606">
<ele>141.2</ele>
<time>2024-05-11T12:12:41Z</time>
</trkpt>
<trkpt lat="49.74664687179029" lon="9.508811915293336">
<ele>141</ele>
<time>2024-05-11T12:12:42Z</time>
</trkpt>
<trkpt lat="49.74664687179029" lon="9.508812837302685">
<ele>141</ele>
<time>2024-05-11T12:12:44Z</time>
</trkpt>
<trkpt lat="49.74664301611483" lon="9.508812837302685">
<ele>141</ele>
<time>2024-05-11T12:12:45Z</time>
</trkpt>
<trkpt lat="49.74664301611483" lon="9.508814765140414">
<ele>141</ele>
<time>2024-05-11T12:12:46Z</time>
</trkpt>
<trkpt lat="49.74664301611483" lon="9.508816692978144">
<ele>141</ele>
<time>2024-05-11T12:12:48Z</time>
</trkpt>
<trkpt lat="49.74664301611483" lon="9.508818620815871">
<ele>141</ele>
<time>2024-05-11T12:12:49Z</time>
</trkpt>
<trkpt lat="49.74664301611483" lon="9.508819542825222">
<ele>140.8</ele>
<time>2024-05-11T12:12:50Z</time>
</trkpt>
<trkpt lat="49.74664301611483" lon="9.508821470662951">
<ele>140.8</ele>
<time>2024-05-11T12:12:51Z</time>
</trkpt>
<trkpt lat="49.74664301611483" lon="9.50882331468165">
<ele>140.8</ele>
<time>2024-05-11T12:12:52Z</time>
</trkpt>
<trkpt lat="49.74664301611483" lon="9.50882524251938">
<ele>140.8</ele>
<time>2024-05-11T12:12:54Z</time>
</trkpt>
<trkpt lat="49.7466392442584" lon="9.50882524251938">
<ele>140.8</ele>
<time>2024-05-11T12:12:55Z</time>
</trkpt>
<trkpt lat="49.7466392442584" lon="9.50882331468165">
<ele>140.8</ele>
<time>2024-05-11T12:12:56Z</time>
</trkpt>
<trkpt lat="49.7466392442584" lon="9.50882524251938">
<ele>140.8</ele>
<time>2024-05-11T12:12:58Z</time>
</trkpt>
<trkpt lat="49.7466392442584" lon="9.50882624834776">
<ele>140.8</ele>
<time>2024-05-11T12:13:01Z</time>
</trkpt>
<trkpt lat="49.746635388582945" lon="9.508828092366455">
<ele>140.8</ele>
<time>2024-05-11T12:13:02Z</time>
</trkpt>
<trkpt lat="49.7466392442584" lon="9.50882624834776">
<ele>140.8</ele>
<time>2024-05-11T12:13:03Z</time>
</trkpt>
<trkpt lat="49.74664301611483" lon="9.50882331468165">
<ele>140.8</ele>
<time>2024-05-11T12:13:04Z</time>
</trkpt>
<trkpt lat="49.74664301611483" lon="9.508821470662951">
<ele>140.8</ele>
<time>2024-05-11T12:13:05Z</time>
</trkpt>
<trkpt lat="49.74664301611483" lon="9.508818620815871">
<ele>141</ele>
<time>2024-05-11T12:13:06Z</time>
</trkpt>
<trkpt lat="49.74664301611483" lon="9.508814765140414">
<ele>141</ele>
<time>2024-05-11T12:13:08Z</time>
</trkpt>
<trkpt lat="49.74664301611483" lon="9.508812837302685">
<ele>141</ele>
<time>2024-05-11T12:13:10Z</time>
</trkpt>
<trkpt lat="49.74664301611483" lon="9.508811915293336">
<ele>141</ele>
<time>2024-05-11T12:13:11Z</time>
</trkpt>
<trkpt lat="49.74664301611483" lon="9.508809987455606">
<ele>141</ele>
<time>2024-05-11T12:13:13Z</time>
</trkpt>
<trkpt lat="49.74664301611483" lon="9.508808059617875">
<ele>141</ele>
<time>2024-05-11T12:13:16Z</time>
</trkpt>
<trkpt lat="49.74664301611483" lon="9.50880621559918">
<ele>141</ele>
<time>2024-05-11T12:13:20Z</time>
</trkpt>
<trkpt lat="49.74664301611483" lon="9.5088052097708">
<ele>141.2</ele>
<time>2024-05-11T12:13:23Z</time>
</trkpt>
<trkpt lat="49.74664301611483" lon="9.5088033657521">
<ele>141.2</ele>
<time>2024-05-11T12:13:26Z</time>
</trkpt>
<trkpt lat="49.74664301611483" lon="9.508801437914371">
<ele>141.2</ele>
<time>2024-05-11T12:13:28Z</time>
</trkpt>
<trkpt lat="49.74664301611483" lon="9.508800432085993">
<ele>141.2</ele>
<time>2024-05-11T12:13:29Z</time>
</trkpt>
<trkpt lat="49.74664301611483" lon="9.508798588067291">
<ele>141.2</ele>
<time>2024-05-11T12:13:33Z</time>
</trkpt>
<trkpt lat="49.74664301611483" lon="9.508796660229564">
<ele>141.2</ele>
<time>2024-05-11T12:13:34Z</time>
</trkpt>
<trkpt lat="49.74664301611483" lon="9.508794732391834">
<ele>141.2</ele>
<time>2024-05-11T12:13:35Z</time>
</trkpt>
<trkpt lat="49.74664301611483" lon="9.508792804554105">
<ele>141.2</ele>
<time>2024-05-11T12:13:36Z</time>
</trkpt>
<trkpt lat="49.74664687179029" lon="9.508791882544756">
<ele>141.2</ele>
<time>2024-05-11T12:13:37Z</time>
</trkpt>
<trkpt lat="49.74664687179029" lon="9.508787104859948">
<ele>141.2</ele>
<time>2024-05-11T12:13:38Z</time>
</trkpt>
<trkpt lat="49.74664687179029" lon="9.50878517702222">
<ele>141.2</ele>
<time>2024-05-11T12:13:40Z</time>
</trkpt>
<trkpt lat="49.74664687179029" lon="9.50878333300352">
<ele>141.2</ele>
<time>2024-05-11T12:13:41Z</time>
</trkpt>
<trkpt lat="49.74665064364672" lon="9.508781405165792">
<ele>141.2</ele>
<time>2024-05-11T12:13:42Z</time>
</trkpt>
<trkpt lat="49.74665064364672" lon="9.508779477328062">
<ele>141.2</ele>
<time>2024-05-11T12:13:43Z</time>
</trkpt>
<trkpt lat="49.74665064364672" lon="9.508778555318711">
<ele>141.2</ele>
<time>2024-05-11T12:13:44Z</time>
</trkpt>
<trkpt lat="49.74665064364672" lon="9.508776627480984">
<ele>141.2</ele>
<time>2024-05-11T12:13:45Z</time>
</trkpt>
<trkpt lat="49.74665064364672" lon="9.508774699643254">
<ele>141.2</ele>
<time>2024-05-11T12:13:49Z</time>
</trkpt>
<trkpt lat="49.74665064364672" lon="9.508773777633904">
<ele>141.2</ele>
<time>2024-05-11T12:13:52Z</time>
</trkpt>
<trkpt lat="49.74665064364672" lon="9.508771849796176">
<ele>141.2</ele>
<time>2024-05-11T12:13:56Z</time>
</trkpt>
<trkpt lat="49.74665064364672" lon="9.508769921958448">
<ele>141.2</ele>
<time>2024-05-11T12:14:06Z</time>
</trkpt>
<trkpt lat="49.74665064364672" lon="9.508768077939749">
<ele>141</ele>
<time>2024-05-11T12:14:14Z</time>
</trkpt>
<trkpt lat="49.74665064364672" lon="9.50876514427364">
<ele>141</ele>
<time>2024-05-11T12:14:16Z</time>
</trkpt>
<trkpt lat="49.74665064364672" lon="9.50876330025494">
<ele>140.8</ele>
<time>2024-05-11T12:14:19Z</time>
</trkpt>
<trkpt lat="49.74664687179029" lon="9.50876330025494">
<ele>140.8</ele>
<time>2024-05-11T12:14:20Z</time>
</trkpt>
<trkpt lat="49.74664687179029" lon="9.508761372417212">
<ele>140.8</ele>
<time>2024-05-11T12:14:24Z</time>
</trkpt>
<trkpt lat="49.74664301611483" lon="9.508761372417212">
<ele>140.8</ele>
<time>2024-05-11T12:14:25Z</time>
</trkpt>
<trkpt lat="49.74664301611483" lon="9.508760450407864">
<ele>140.8</ele>
<time>2024-05-11T12:14:29Z</time>
</trkpt>
<trkpt lat="49.7466392442584" lon="9.508760450407864">
<ele>140.8</ele>
<time>2024-05-11T12:14:35Z</time>
</trkpt>
<trkpt lat="49.7466392442584" lon="9.508758522570131">
<ele>140.8</ele>
<time>2024-05-11T12:14:36Z</time>
</trkpt>
<trkpt lat="49.7466392442584" lon="9.508760450407864">
<ele>141</ele>
<time>2024-05-11T12:14:39Z</time>
</trkpt>
<trkpt lat="49.746635388582945" lon="9.508761372417212">
<ele>141</ele>
<time>2024-05-11T12:14:59Z</time>
</trkpt>
<trkpt lat="49.746635388582945" lon="9.50876330025494">
<ele>141</ele>
<time>2024-05-11T12:15:04Z</time>
</trkpt>
<trkpt lat="49.746635388582945" lon="9.50876514427364">
<ele>141</ele>
<time>2024-05-11T12:15:07Z</time>
</trkpt>
<trkpt lat="49.7466392442584" lon="9.50876514427364">
<ele>141</ele>
<time>2024-05-11T12:15:08Z</time>
</trkpt>
<trkpt lat="49.7466392442584" lon="9.50876330025494">
<ele>141</ele>
<time>2024-05-11T12:15:09Z</time>
</trkpt>
<trkpt lat="49.7466392442584" lon="9.508761372417212">
<ele>141</ele>
<time>2024-05-11T12:15:11Z</time>
</trkpt>
<trkpt lat="49.74664301611483" lon="9.508761372417212">
<ele>141.2</ele>
<time>2024-05-11T12:15:13Z</time>
</trkpt>
<trkpt lat="49.7466392442584" lon="9.50876330025494">
<ele>141.2</ele>
<time>2024-05-11T12:15:20Z</time>
</trkpt>
<trkpt lat="49.74664301611483" lon="9.50876330025494">
<ele>141.2</ele>
<time>2024-05-11T12:15:22Z</time>
</trkpt>
<trkpt lat="49.7466392442584" lon="9.50876330025494">
<ele>141.2</ele>
<time>2024-05-11T12:15:23Z</time>
</trkpt>
<trkpt lat="49.74664301611483" lon="9.508761372417212">
<ele>141.2</ele>
<time>2024-05-11T12:15:25Z</time>
</trkpt>
<trkpt lat="49.7466392442584" lon="9.508761372417212">
<ele>141.2</ele>
<time>2024-05-11T12:15:30Z</time>
</trkpt>
<trkpt lat="49.74664301611483" lon="9.508761372417212">
<ele>141.2</ele>
<time>2024-05-11T12:15:31Z</time>
</trkpt>
<trkpt lat="49.74664301611483" lon="9.508760450407864">
<ele>141.2</ele>
<time>2024-05-11T12:15:36Z</time>
</trkpt>
<trkpt lat="49.74664301611483" lon="9.508761372417212">
<ele>141.2</ele>
<time>2024-05-11T12:15:42Z</time>
</trkpt>
<trkpt lat="49.74664301611483" lon="9.50876330025494">
<ele>141</ele>
<time>2024-05-11T12:15:43Z</time>
</trkpt>
<trkpt lat="49.74664301611483" lon="9.508761372417212">
<ele>141</ele>
<time>2024-05-11T12:15:44Z</time>
</trkpt>
<trkpt lat="49.74664301611483" lon="9.508760450407864">
<ele>141</ele>
<time>2024-05-11T12:15:47Z</time>
</trkpt>
<trkpt lat="49.74664687179029" lon="9.508760450407864">
<ele>141</ele>
<time>2024-05-11T12:15:48Z</time>
</trkpt>
<trkpt lat="49.74664301611483" lon="9.508761372417212">
<ele>140.8</ele>
<time>2024-05-11T12:15:49Z</time>
</trkpt>
<trkpt lat="49.74664687179029" lon="9.50876330025494">
<ele>140.8</ele>
<time>2024-05-11T12:15:53Z</time>
</trkpt>
<trkpt lat="49.74664687179029" lon="9.508761372417212">
<ele>140.8</ele>
<time>2024-05-11T12:15:54Z</time>
</trkpt>
<trkpt lat="49.74664687179029" lon="9.50876514427364">
<ele>140.8</ele>
<time>2024-05-11T12:15:55Z</time>
</trkpt>
<trkpt lat="49.74664687179029" lon="9.508768077939749">
<ele>140.8</ele>
<time>2024-05-11T12:15:57Z</time>
</trkpt>
<trkpt lat="49.74664687179029" lon="9.508771849796176">
<ele>140.8</ele>
<time>2024-05-11T12:15:58Z</time>
</trkpt>
<trkpt lat="49.74664687179029" lon="9.508774699643254">
<ele>140.8</ele>
<time>2024-05-11T12:15:59Z</time>
</trkpt>
<trkpt lat="49.74664687179029" lon="9.508776627480984">
<ele>140.8</ele>
<time>2024-05-11T12:16:00Z</time>
</trkpt>
<trkpt lat="49.74664687179029" lon="9.508779477328062">
<ele>140.8</ele>
<time>2024-05-11T12:16:01Z</time>
</trkpt>
<trkpt lat="49.74664687179029" lon="9.508781405165792">
<ele>140.8</ele>
<time>2024-05-11T12:16:02Z</time>
</trkpt>
<trkpt lat="49.74664301611483" lon="9.50878333300352">
<ele>140.8</ele>
<time>2024-05-11T12:16:03Z</time>
</trkpt>
<trkpt lat="49.74664301611483" lon="9.50878517702222">
<ele>140.8</ele>
<time>2024-05-11T12:16:04Z</time>
</trkpt>
<trkpt lat="49.74664301611483" lon="9.508787104859948">
<ele>140.6</ele>
<time>2024-05-11T12:16:05Z</time>
</trkpt>
<trkpt lat="49.74664301611483" lon="9.508788026869295">
<ele>140.6</ele>
<time>2024-05-11T12:16:06Z</time>
</trkpt>
<trkpt lat="49.74664301611483" lon="9.50878517702222">
<ele>140.6</ele>
<time>2024-05-11T12:16:07Z</time>
</trkpt>
<trkpt lat="49.74664301611483" lon="9.50878333300352">
<ele>140.8</ele>
<time>2024-05-11T12:16:08Z</time>
</trkpt>
<trkpt lat="49.74664687179029" lon="9.508788026869295">
<ele>140.8</ele>
<time>2024-05-11T12:16:11Z</time>
</trkpt>
<trkpt lat="49.74664687179029" lon="9.508789954707026">
<ele>140.8</ele>
<time>2024-05-11T12:16:12Z</time>
</trkpt>
<trkpt lat="49.74664687179029" lon="9.508788026869295">
<ele>140.8</ele>
<time>2024-05-11T12:16:13Z</time>
</trkpt>
<trkpt lat="49.74664687179029" lon="9.508787104859948">
<ele>140.8</ele>
<time>2024-05-11T12:16:14Z</time>
</trkpt>
<trkpt lat="49.74664687179029" lon="9.50878517702222">
<ele>140.8</ele>
<time>2024-05-11T12:16:15Z</time>
</trkpt>
<trkpt lat="49.746654499322176" lon="9.50878517702222">
<ele>140.8</ele>
<time>2024-05-11T12:16:16Z</time>
</trkpt>
<trkpt lat="49.74666212685406" lon="9.50878517702222">
<ele>140.8</ele>
<time>2024-05-11T12:16:17Z</time>
</trkpt>
<trkpt lat="49.746677381917834" lon="9.50878517702222">
<ele>140.8</ele>
<time>2024-05-11T12:16:18Z</time>
</trkpt>
<trkpt lat="49.746696408838034" lon="9.508776627480984">
<ele>140.8</ele>
<time>2024-05-11T12:16:19Z</time>
</trkpt>
<trkpt lat="49.74672691896558" lon="9.508753744885324">
<ele>140.8</ele>
<time>2024-05-11T12:16:20Z</time>
</trkpt>
<trkpt lat="49.74676128476858" lon="9.508727006614208">
<ele>140.8</ele>
<time>2024-05-11T12:16:21Z</time>
</trkpt>
<trkpt lat="49.746795650571585" lon="9.508694568648934">
<ele>140.8</ele>
<time>2024-05-11T12:16:22Z</time>
</trkpt>
<trkpt lat="49.74682993255555" lon="9.508667914196849">
<ele>140.8</ele>
<time>2024-05-11T12:16:23Z</time>
</trkpt>
<trkpt lat="49.74686807021499" lon="9.508633548393846">
<ele>140.8</ele>
<time>2024-05-11T12:16:24Z</time>
</trkpt>
<trkpt lat="49.74692146293819" lon="9.50860689394176">
<ele>140.8</ele>
<time>2024-05-11T12:16:25Z</time>
</trkpt>
<trkpt lat="49.74696731194854" lon="9.508576383814216">
<ele>140.8</ele>
<time>2024-05-11T12:16:26Z</time>
</trkpt>
<trkpt lat="49.74702070467174" lon="9.508556351065636">
<ele>140.8</ele>
<time>2024-05-11T12:16:27Z</time>
</trkpt>
<trkpt lat="49.74707409739494" lon="9.508560122922065">
<ele>140.8</ele>
<time>2024-05-11T12:16:28Z</time>
</trkpt>
<trkpt lat="49.74712371826172" lon="9.50858878903091">
<ele>140.8</ele>
<time>2024-05-11T12:16:29Z</time>
</trkpt>
<trkpt lat="49.747169483453035" lon="9.508634554222226">
<ele>140.8</ele>
<time>2024-05-11T12:16:30Z</time>
</trkpt>
<trkpt lat="49.747207621112466" lon="9.508698424324391">
<ele>140.8</ele>
<time>2024-05-11T12:16:31Z</time>
</trkpt>
<trkpt lat="49.747245758771896" lon="9.508769921958448">
<ele>140.8</ele>
<time>2024-05-11T12:16:32Z</time>
</trkpt>
<trkpt lat="49.74728389643133" lon="9.508841503411531">
<ele>140.8</ele>
<time>2024-05-11T12:16:33Z</time>
</trkpt>
<trkpt lat="49.74731826223433" lon="9.508914928883314">
<ele>140.8</ele>
<time>2024-05-11T12:16:34Z</time>
</trkpt>
<trkpt lat="49.74735639989376" lon="9.508993132039905">
<ele>140.8</ele>
<time>2024-05-11T12:16:35Z</time>
</trkpt>
<trkpt lat="49.74739453755319" lon="9.509064629673958">
<ele>140.8</ele>
<time>2024-05-11T12:16:36Z</time>
</trkpt>
<trkpt lat="49.74743644706905" lon="9.509128499776123">
<ele>140.8</ele>
<time>2024-05-11T12:16:37Z</time>
</trkpt>
<trkpt lat="49.74748992361128" lon="9.509182898327708">
<ele>140.8</ele>
<time>2024-05-11T12:16:38Z</time>
</trkpt>
<trkpt lat="49.74755094386637" lon="9.509229585528374">
<ele>140.6</ele>
<time>2024-05-11T12:16:39Z</time>
</trkpt>
<trkpt lat="49.747608108446" lon="9.509275434538722">
<ele>140.4</ele>
<time>2024-05-11T12:16:40Z</time>
</trkpt>
<trkpt lat="49.74766158498824" lon="9.509329749271274">
<ele>140.2</ele>
<time>2024-05-11T12:16:41Z</time>
</trkpt>
<trkpt lat="49.747722605243325" lon="9.509389847517014">
<ele>139.8</ele>
<time>2024-05-11T12:16:42Z</time>
</trkpt>
<trkpt lat="49.7477912530303" lon="9.509441312402489">
<ele>139.6</ele>
<time>2024-05-11T12:16:43Z</time>
</trkpt>
<trkpt lat="49.747859900817275" lon="9.50949470512569">
<ele>139.2</ele>
<time>2024-05-11T12:16:44Z</time>
</trkpt>
<trkpt lat="49.74792477674782" lon="9.509546253830194">
<ele>138.8</ele>
<time>2024-05-11T12:16:45Z</time>
</trkpt>
<trkpt lat="49.7479934245348" lon="9.509599646553395">
<ele>138.6</ele>
<time>2024-05-11T12:16:46Z</time>
</trkpt>
<trkpt lat="49.748058300465345" lon="9.509658738970757">
<ele>138.2</ele>
<time>2024-05-11T12:16:47Z</time>
</trkpt>
<trkpt lat="49.748119320720434" lon="9.509719843044875">
<ele>138</ele>
<time>2024-05-11T12:16:48Z</time>
</trkpt>
<trkpt lat="49.74818034097552" lon="9.509779857471583">
<ele>137.6</ele>
<time>2024-05-11T12:16:49Z</time>
</trkpt>
<trkpt lat="49.74824136123061" lon="9.509843811392784">
<ele>137.4</ele>
<time>2024-05-11T12:16:50Z</time>
</trkpt>
<trkpt lat="49.7483023814857" lon="9.509902903810143">
<ele>137</ele>
<time>2024-05-11T12:16:51Z</time>
</trkpt>
<trkpt lat="49.74836348555982" lon="9.509962080046536">
<ele>136.8</ele>
<time>2024-05-11T12:16:52Z</time>
</trkpt>
<trkpt lat="49.74842450581491" lon="9.510016394779086">
<ele>136.4</ele>
<time>2024-05-11T12:16:53Z</time>
</trkpt>
<trkpt lat="49.74848552607" lon="9.510069787502289">
<ele>136.2</ele>
<time>2024-05-11T12:16:54Z</time>
</trkpt>
<trkpt lat="49.74854654632509" lon="9.510121336206794">
<ele>135.8</ele>
<time>2024-05-11T12:16:55Z</time>
</trkpt>
<trkpt lat="49.748607566580176" lon="9.51016802340746">
<ele>135.8</ele>
<time>2024-05-11T12:16:56Z</time>
</trkpt>
<trkpt lat="49.74866481497884" lon="9.51020616106689">
<ele>135.6</ele>
<time>2024-05-11T12:16:57Z</time>
</trkpt>
<trkpt lat="49.7487220633775" lon="9.510250082239509">
<ele>135.6</ele>
<time>2024-05-11T12:16:58Z</time>
</trkpt>
<trkpt lat="49.74877160042524" lon="9.510296769440174">
<ele>135.6</ele>
<time>2024-05-11T12:16:59Z</time>
</trkpt>
<trkpt lat="49.748824993148446" lon="9.510343540459871">
<ele>135.4</ele>
<time>2024-05-11T12:17:00Z</time>
</trkpt>
<trkpt lat="49.74887461401522" lon="9.510390227660537">
<ele>135.4</ele>
<time>2024-05-11T12:17:01Z</time>
</trkpt>
<trkpt lat="49.74892037920654" lon="9.510433143004777">
<ele>135.4</ele>
<time>2024-05-11T12:17:02Z</time>
</trkpt>
<trkpt lat="49.748970000073314" lon="9.510473208501937">
<ele>135.6</ele>
<time>2024-05-11T12:17:03Z</time>
</trkpt>
<trkpt lat="49.7490119934082" lon="9.510513273999097">
<ele>135.6</ele>
<time>2024-05-11T12:17:04Z</time>
</trkpt>
<trkpt lat="49.74905775859952" lon="9.510548561811447">
<ele>135.6</ele>
<time>2024-05-11T12:17:05Z</time>
</trkpt>
<trkpt lat="49.74909966811538" lon="9.510588627308609">
<ele>135.6</ele>
<time>2024-05-11T12:17:06Z</time>
</trkpt>
<trkpt lat="49.74913403391838" lon="9.510628692805769">
<ele>135.6</ele>
<time>2024-05-11T12:17:07Z</time>
</trkpt>
<trkpt lat="49.74916831590235" lon="9.510666830465198">
<ele>135.6</ele>
<time>2024-05-11T12:17:08Z</time>
</trkpt>
<trkpt lat="49.749206537380815" lon="9.51070019043982">
<ele>135.6</ele>
<time>2024-05-11T12:17:09Z</time>
</trkpt>
<trkpt lat="49.749240819364786" lon="9.51073640026152">
<ele>135.8</ele>
<time>2024-05-11T12:17:10Z</time>
</trkpt>
<trkpt lat="49.74927895702422" lon="9.51077839359641">
<ele>135.8</ele>
<time>2024-05-11T12:17:11Z</time>
</trkpt>
<trkpt lat="49.74931709468365" lon="9.5108203869313">
<ele>136</ele>
<time>2024-05-11T12:17:12Z</time>
</trkpt>
<trkpt lat="49.749362943693995" lon="9.510860368609428">
<ele>136</ele>
<time>2024-05-11T12:17:13Z</time>
</trkpt>
<trkpt lat="49.74940870888531" lon="9.510901439934967">
<ele>136.2</ele>
<time>2024-05-11T12:17:14Z</time>
</trkpt>
<trkpt lat="49.749458245933056" lon="9.510951982811092">
<ele>136.2</ele>
<time>2024-05-11T12:17:15Z</time>
</trkpt>
<trkpt lat="49.74950401112437" lon="9.51099867001176">
<ele>136.4</ele>
<time>2024-05-11T12:17:16Z</time>
</trkpt>
<trkpt lat="49.74954986013472" lon="9.511045441031456">
<ele>136.4</ele>
<time>2024-05-11T12:17:17Z</time>
</trkpt>
<trkpt lat="49.74959562532604" lon="9.511106461286545">
<ele>136.4</ele>
<time>2024-05-11T12:17:18Z</time>
</trkpt>
<trkpt lat="49.749641390517354" lon="9.511159854009748">
<ele>136.4</ele>
<time>2024-05-11T12:17:19Z</time>
</trkpt>
<trkpt lat="49.74968715570867" lon="9.51121324673295">
<ele>136.6</ele>
<time>2024-05-11T12:17:20Z</time>
</trkpt>
<trkpt lat="49.74973292089999" lon="9.511264795437455">
<ele>136.6</ele>
<time>2024-05-11T12:17:21Z</time>
</trkpt>
<trkpt lat="49.74977491423488" lon="9.51131341047585">
<ele>136.6</ele>
<time>2024-05-11T12:17:22Z</time>
</trkpt>
<trkpt lat="49.749816823750734" lon="9.511364875361323">
<ele>136.6</ele>
<time>2024-05-11T12:17:23Z</time>
</trkpt>
<trkpt lat="49.749854961410165" lon="9.511420195922256">
<ele>136.6</ele>
<time>2024-05-11T12:17:24Z</time>
</trkpt>
<trkpt lat="49.749896954745054" lon="9.511485071852803">
<ele>136.6</ele>
<time>2024-05-11T12:17:25Z</time>
</trkpt>
<trkpt lat="49.749935092404485" lon="9.511551791802049">
<ele>136.6</ele>
<time>2024-05-11T12:17:26Z</time>
</trkpt>
<trkpt lat="49.749973230063915" lon="9.51160996221006">
<ele>136.4</ele>
<time>2024-05-11T12:17:27Z</time>
</trkpt>
<trkpt lat="49.750015223398805" lon="9.511672910302876">
<ele>136.4</ele>
<time>2024-05-11T12:17:28Z</time>
</trkpt>
<trkpt lat="49.750057216733694" lon="9.511741558089852">
<ele>136.2</ele>
<time>2024-05-11T12:17:29Z</time>
</trkpt>
<trkpt lat="49.750095354393125" lon="9.51180450618267">
<ele>136.2</ele>
<time>2024-05-11T12:17:30Z</time>
</trkpt>
<trkpt lat="49.75013726390898" lon="9.51186846010387">
<ele>136.2</ele>
<time>2024-05-11T12:17:31Z</time>
</trkpt>
<trkpt lat="49.75017925724387" lon="9.511930402368307">
<ele>136</ele>
<time>2024-05-11T12:17:32Z</time>
</trkpt>
<trkpt lat="49.75022125057876" lon="9.511993350461124">
<ele>136</ele>
<time>2024-05-11T12:17:33Z</time>
</trkpt>
<trkpt lat="49.75026316009462" lon="9.512053448706864">
<ele>136</ele>
<time>2024-05-11T12:17:34Z</time>
</trkpt>
<trkpt lat="49.750308925285935" lon="9.512113546952603">
<ele>136</ele>
<time>2024-05-11T12:17:35Z</time>
</trkpt>
<trkpt lat="49.75035469047725" lon="9.512173645198343">
<ele>136</ele>
<time>2024-05-11T12:17:36Z</time>
</trkpt>
<trkpt lat="49.75039668381214" lon="9.512231815606356">
<ele>135.8</ele>
<time>2024-05-11T12:17:37Z</time>
</trkpt>
<trkpt lat="49.75044244900346" lon="9.512292835861444">
<ele>136</ele>
<time>2024-05-11T12:17:38Z</time>
</trkpt>
<trkpt lat="49.750488214194775" lon="9.512363411486149">
<ele>136</ele>
<time>2024-05-11T12:17:39Z</time>
</trkpt>
<trkpt lat="49.750526351854205" lon="9.512432981282473">
<ele>136.2</ele>
<time>2024-05-11T12:17:40Z</time>
</trkpt>
<trkpt lat="49.75057220086455" lon="9.512496935203671">
<ele>136.2</ele>
<time>2024-05-11T12:17:41Z</time>
</trkpt>
<trkpt lat="49.75061796605587" lon="9.51255795545876">
<ele>136.4</ele>
<time>2024-05-11T12:17:42Z</time>
</trkpt>
<trkpt lat="49.75066373124719" lon="9.512624675408006">
<ele>136.4</ele>
<time>2024-05-11T12:17:43Z</time>
</trkpt>
<trkpt lat="49.75070564076304" lon="9.512686701491477">
<ele>136.6</ele>
<time>2024-05-11T12:17:44Z</time>
</trkpt>
<trkpt lat="49.750747634097934" lon="9.512744871899486">
<ele>136.6</ele>
<time>2024-05-11T12:17:45Z</time>
</trkpt>
<trkpt lat="49.75078962743282" lon="9.512806814163923">
<ele>136.6</ele>
<time>2024-05-11T12:17:46Z</time>
</trkpt>
<trkpt lat="49.75083539262414" lon="9.512864984571934">
<ele>136.8</ele>
<time>2024-05-11T12:17:47Z</time>
</trkpt>
<trkpt lat="49.75087730214" lon="9.512927932664752">
<ele>137</ele>
<time>2024-05-11T12:17:48Z</time>
</trkpt>
<trkpt lat="49.75091929547489" lon="9.512987108901145">
<ele>137</ele>
<time>2024-05-11T12:17:49Z</time>
</trkpt>
<trkpt lat="49.7509650606662" lon="9.513046201318502">
<ele>137</ele>
<time>2024-05-11T12:17:50Z</time>
</trkpt>
<trkpt lat="49.75100705400109" lon="9.513106299564242">
<ele>137</ele>
<time>2024-05-11T12:17:51Z</time>
</trkpt>
<trkpt lat="49.75104896351695" lon="9.513163547962904">
<ele>137</ele>
<time>2024-05-11T12:17:52Z</time>
</trkpt>
<trkpt lat="49.75109095685184" lon="9.513219790533183">
<ele>137</ele>
<time>2024-05-11T12:17:53Z</time>
</trkpt>
<trkpt lat="49.75113295018673" lon="9.51327033340931">
<ele>137</ele>
<time>2024-05-11T12:17:54Z</time>
</trkpt>
<trkpt lat="49.75117108784616" lon="9.513319954276083">
<ele>137</ele>
<time>2024-05-11T12:17:55Z</time>
</trkpt>
<trkpt lat="49.75120922550559" lon="9.513369491323829">
<ele>137</ele>
<time>2024-05-11T12:17:56Z</time>
</trkpt>
<trkpt lat="49.751243591308594" lon="9.513409556820989">
<ele>137</ele>
<time>2024-05-11T12:17:57Z</time>
</trkpt>
<trkpt lat="49.751281728968024" lon="9.513455322012303">
<ele>137.2</ele>
<time>2024-05-11T12:17:58Z</time>
</trkpt>
<trkpt lat="49.751319866627455" lon="9.513502093032002">
<ele>137.2</ele>
<time>2024-05-11T12:17:59Z</time>
</trkpt>
<trkpt lat="49.75136177614331" lon="9.513554563745856">
<ele>137.4</ele>
<time>2024-05-11T12:18:00Z</time>
</trkpt>
<trkpt lat="49.75139991380274" lon="9.513609884306788">
<ele>137.6</ele>
<time>2024-05-11T12:18:01Z</time>
</trkpt>
<trkpt lat="49.751434279605746" lon="9.513660427182913">
<ele>137.8</ele>
<time>2024-05-11T12:18:02Z</time>
</trkpt>
<trkpt lat="49.75147241726518" lon="9.513714741915464">
<ele>138</ele>
<time>2024-05-11T12:18:03Z</time>
</trkpt>
<trkpt lat="49.751514410600066" lon="9.513770062476397">
<ele>138.2</ele>
<time>2024-05-11T12:18:04Z</time>
</trkpt>
<trkpt lat="49.75154869258404" lon="9.5138234551996">
<ele>138.4</ele>
<time>2024-05-11T12:18:05Z</time>
</trkpt>
<trkpt lat="49.7515869140625" lon="9.513872070237994">
<ele>138.6</ele>
<time>2024-05-11T12:18:06Z</time>
</trkpt>
<trkpt lat="49.751613568514585" lon="9.51392169110477">
<ele>138.6</ele>
<time>2024-05-11T12:18:07Z</time>
</trkpt>
<trkpt lat="49.75164793431759" lon="9.513973155990245">
<ele>138.8</ele>
<time>2024-05-11T12:18:08Z</time>
</trkpt>
<trkpt lat="49.75167844444513" lon="9.514022776857018">
<ele>139</ele>
<time>2024-05-11T12:18:09Z</time>
</trkpt>
<trkpt lat="49.751712726429105" lon="9.514071391895412">
<ele>139</ele>
<time>2024-05-11T12:18:10Z</time>
</trkpt>
<trkpt lat="49.75174709223211" lon="9.51412009075284">
<ele>139.2</ele>
<time>2024-05-11T12:18:11Z</time>
</trkpt>
<trkpt lat="49.751773830503225" lon="9.514166777953506">
<ele>139.2</ele>
<time>2024-05-11T12:18:12Z</time>
</trkpt>
<trkpt lat="49.75180434063077" lon="9.51421639882028">
<ele>139.4</ele>
<time>2024-05-11T12:18:13Z</time>
</trkpt>
<trkpt lat="49.751834850758314" lon="9.514266941696404">
<ele>139.4</ele>
<time>2024-05-11T12:18:14Z</time>
</trkpt>
<trkpt lat="49.75186536088586" lon="9.514325112104416">
<ele>139.6</ele>
<time>2024-05-11T12:18:15Z</time>
</trkpt>
<trkpt lat="49.7518958710134" lon="9.514379426836967">
<ele>139.6</ele>
<time>2024-05-11T12:18:16Z</time>
</trkpt>
<trkpt lat="49.75192638114095" lon="9.514429969713092">
<ele>139.6</ele>
<time>2024-05-11T12:18:17Z</time>
</trkpt>
<trkpt lat="49.75196074694395" lon="9.514486296102405">
<ele>139.4</ele>
<time>2024-05-11T12:18:18Z</time>
</trkpt>
<trkpt lat="49.75199502892792" lon="9.514545388519764">
<ele>139.2</ele>
<time>2024-05-11T12:18:19Z</time>
</trkpt>
<trkpt lat="49.75202553905547" lon="9.514608336612582">
<ele>139</ele>
<time>2024-05-11T12:18:20Z</time>
</trkpt>
<trkpt lat="49.7520636767149" lon="9.514661729335783">
<ele>138.8</ele>
<time>2024-05-11T12:18:21Z</time>
</trkpt>
<trkpt lat="49.75210567004979" lon="9.514723755419254">
<ele>138.6</ele>
<time>2024-05-11T12:18:22Z</time>
</trkpt>
<trkpt lat="49.75214380770922" lon="9.514784775674345">
<ele>138.4</ele>
<time>2024-05-11T12:18:23Z</time>
</trkpt>
<trkpt lat="49.75218194536865" lon="9.514844873920085">
<ele>138.4</ele>
<time>2024-05-11T12:18:24Z</time>
</trkpt>
<trkpt lat="49.75222393870354" lon="9.514915449544787">
<ele>138.2</ele>
<time>2024-05-11T12:18:25Z</time>
</trkpt>
<trkpt lat="49.752265848219395" lon="9.514980241656303">
<ele>138</ele>
<time>2024-05-11T12:18:26Z</time>
</trkpt>
<trkpt lat="49.75230784155429" lon="9.51504796743393">
<ele>138</ele>
<time>2024-05-11T12:18:27Z</time>
</trkpt>
<trkpt lat="49.752345979213715" lon="9.5151099935174">
<ele>137.8</ele>
<time>2024-05-11T12:18:28Z</time>
</trkpt>
<trkpt lat="49.75238797254861" lon="9.51517009176314">
<ele>137.8</ele>
<time>2024-05-11T12:18:29Z</time>
</trkpt>
<trkpt lat="49.752426110208035" lon="9.515232034027576">
<ele>137.6</ele>
<time>2024-05-11T12:18:30Z</time>
</trkpt>
<trkpt lat="49.75246810354293" lon="9.51528643257916">
<ele>137.4</ele>
<time>2024-05-11T12:18:31Z</time>
</trkpt>
<trkpt lat="49.752506241202354" lon="9.515339825302362">
<ele>137.4</ele>
<time>2024-05-11T12:18:32Z</time>
</trkpt>
<trkpt lat="49.75254815071821" lon="9.515393218025563">
<ele>137.2</ele>
<time>2024-05-11T12:18:33Z</time>
</trkpt>
<trkpt lat="49.75258628837764" lon="9.515448538586496">
<ele>137</ele>
<time>2024-05-11T12:18:34Z</time>
</trkpt>
<trkpt lat="49.752620654180646" lon="9.515502853319049">
<ele>136.8</ele>
<time>2024-05-11T12:18:35Z</time>
</trkpt>
<trkpt lat="49.75265501998365" lon="9.51555817387998">
<ele>136.4</ele>
<time>2024-05-11T12:18:36Z</time>
</trkpt>
<trkpt lat="49.75268930196762" lon="9.515613494440911">
<ele>136</ele>
<time>2024-05-11T12:18:37Z</time>
</trkpt>
<trkpt lat="49.75272743962705" lon="9.51566118746996">
<ele>135.8</ele>
<time>2024-05-11T12:18:38Z</time>
</trkpt>
<trkpt lat="49.752761805430055" lon="9.515709802508354">
<ele>135.6</ele>
<time>2024-05-11T12:18:39Z</time>
</trkpt>
<trkpt lat="49.75279617123306" lon="9.515751795843244">
<ele>135.6</ele>
<time>2024-05-11T12:18:40Z</time>
</trkpt>
<trkpt lat="49.75283430889249" lon="9.515792783349752">
<ele>135.4</ele>
<time>2024-05-11T12:18:41Z</time>
</trkpt>
<trkpt lat="49.75287244655192" lon="9.515826143324375">
<ele>135.4</ele>
<time>2024-05-11T12:18:42Z</time>
</trkpt>
<trkpt lat="49.75291058421135" lon="9.515868136659265">
<ele>135.2</ele>
<time>2024-05-11T12:18:43Z</time>
</trkpt>
<trkpt lat="49.75295249372721" lon="9.515912979841232">
<ele>135.2</ele>
<time>2024-05-11T12:18:44Z</time>
</trkpt>
<trkpt lat="49.7529944870621" lon="9.515959667041898">
<ele>135.2</ele>
<time>2024-05-11T12:18:45Z</time>
</trkpt>
<trkpt lat="49.75304025225341" lon="9.516010209918022">
<ele>135.4</ele>
<time>2024-05-11T12:18:46Z</time>
</trkpt>
<trkpt lat="49.75308601744473" lon="9.516063686460257">
<ele>135.6</ele>
<time>2024-05-11T12:18:47Z</time>
</trkpt>
<trkpt lat="49.753135638311505" lon="9.516113223508">
<ele>135.6</ele>
<time>2024-05-11T12:18:48Z</time>
</trkpt>
<trkpt lat="49.75318525917828" lon="9.51615714468062">
<ele>135.6</ele>
<time>2024-05-11T12:18:49Z</time>
</trkpt>
<trkpt lat="49.753234796226025" lon="9.516201904043555">
<ele>135.4</ele>
<time>2024-05-11T12:18:50Z</time>
</trkpt>
<trkpt lat="49.75328056141734" lon="9.516244819387794">
<ele>135.2</ele>
<time>2024-05-11T12:18:51Z</time>
</trkpt>
<trkpt lat="49.75333018228412" lon="9.51628966256976">
<ele>135</ele>
<time>2024-05-11T12:18:52Z</time>
</trkpt>
<trkpt lat="49.75337980315089" lon="9.516326878219845">
<ele>134.8</ele>
<time>2024-05-11T12:18:53Z</time>
</trkpt>
<trkpt lat="49.75342556834221" lon="9.516361160203816">
<ele>134.6</ele>
<time>2024-05-11T12:18:54Z</time>
</trkpt>
<trkpt lat="49.753471333533525" lon="9.516398375853896">
<ele>134.4</ele>
<time>2024-05-11T12:18:55Z</time>
</trkpt>
<trkpt lat="49.753513326868415" lon="9.516433663666248">
<ele>134.2</ele>
<time>2024-05-11T12:18:56Z</time>
</trkpt>
<trkpt lat="49.753551464527845" lon="9.516468029469252">
<ele>134.2</ele>
<time>2024-05-11T12:18:57Z</time>
</trkpt>
<trkpt lat="49.7535933740437" lon="9.516503317281604">
<ele>134</ele>
<time>2024-05-11T12:18:58Z</time>
</trkpt>
<trkpt lat="49.753631511703134" lon="9.516534749418495">
<ele>133.8</ele>
<time>2024-05-11T12:18:59Z</time>
</trkpt>
<trkpt lat="49.7536697331816" lon="9.516566265374422">
<ele>133.8</ele>
<time>2024-05-11T12:19:00Z</time>
</trkpt>
<trkpt lat="49.75370401516557" lon="9.516601553186774">
<ele>133.8</ele>
<time>2024-05-11T12:19:01Z</time>
</trkpt>
<trkpt lat="49.75373838096857" lon="9.516632985323668">
<ele>133.6</ele>
<time>2024-05-11T12:19:02Z</time>
</trkpt>
<trkpt lat="49.75377266295254" lon="9.516658717766404">
<ele>133.6</ele>
<time>2024-05-11T12:19:03Z</time>
</trkpt>
<trkpt lat="49.75380317308009" lon="9.516683528199792">
<ele>133.4</ele>
<time>2024-05-11T12:19:04Z</time>
</trkpt>
<trkpt lat="49.75384139455855" lon="9.51670833863318">
<ele>133.4</ele>
<time>2024-05-11T12:19:05Z</time>
</trkpt>
<trkpt lat="49.75387567654252" lon="9.516731221228838">
<ele>133.4</ele>
<time>2024-05-11T12:19:06Z</time>
</trkpt>
<trkpt lat="49.75391381420195" lon="9.516751253977418">
<ele>133.4</ele>
<time>2024-05-11T12:19:07Z</time>
</trkpt>
<trkpt lat="49.753948180004954" lon="9.516776986420156">
<ele>133.4</ele>
<time>2024-05-11T12:19:08Z</time>
</trkpt>
<trkpt lat="49.753986317664385" lon="9.516797019168736">
<ele>133.4</ele>
<time>2024-05-11T12:19:09Z</time>
</trkpt>
<trkpt lat="49.754028310999274" lon="9.516813196241856">
<ele>133.4</ele>
<time>2024-05-11T12:19:10Z</time>
</trkpt>
<trkpt lat="49.75407407619059" lon="9.516830379143356">
<ele>133.4</ele>
<time>2024-05-11T12:19:11Z</time>
</trkpt>
<trkpt lat="49.754127468913794" lon="9.51684471219778">
<ele>133.6</ele>
<time>2024-05-11T12:19:12Z</time>
</trkpt>
<trkpt lat="49.75418086163699" lon="9.51686667278409">
<ele>133.6</ele>
<time>2024-05-11T12:19:13Z</time>
</trkpt>
<trkpt lat="49.75423811003566" lon="9.516893327236176">
<ele>133.6</ele>
<time>2024-05-11T12:19:14Z</time>
</trkpt>
<trkpt lat="49.75429150275886" lon="9.516916209831834">
<ele>133.6</ele>
<time>2024-05-11T12:19:15Z</time>
</trkpt>
<trkpt lat="49.75434875115752" lon="9.51694194227457">
<ele>133.6</ele>
<time>2024-05-11T12:19:16Z</time>
</trkpt>
<trkpt lat="49.754402143880725" lon="9.516966752707958">
<ele>133.6</ele>
<time>2024-05-11T12:19:17Z</time>
</trkpt>
<trkpt lat="49.75445553660393" lon="9.516984857618809">
<ele>133.6</ele>
<time>2024-05-11T12:19:18Z</time>
</trkpt>
<trkpt lat="49.7545051574707" lon="9.517000196501613">
<ele>133.6</ele>
<time>2024-05-11T12:19:19Z</time>
</trkpt>
<trkpt lat="49.75455469451845" lon="9.517013523727655">
<ele>133.6</ele>
<time>2024-05-11T12:19:20Z</time>
</trkpt>
<trkpt lat="49.75460045970976" lon="9.517033556476235">
<ele>133.6</ele>
<time>2024-05-11T12:19:21Z</time>
</trkpt>
<trkpt lat="49.754638597369194" lon="9.517046883702278">
<ele>133.6</ele>
<time>2024-05-11T12:19:22Z</time>
</trkpt>
<trkpt lat="49.754676818847656" lon="9.517054511234164">
<ele>133.8</ele>
<time>2024-05-11T12:19:23Z</time>
</trkpt>
<trkpt lat="49.75471110083163" lon="9.5170630607754">
<ele>133.8</ele>
<time>2024-05-11T12:19:24Z</time>
</trkpt>
<trkpt lat="49.75474923849106" lon="9.517069766297936">
<ele>134</ele>
<time>2024-05-11T12:19:25Z</time>
</trkpt>
<trkpt lat="49.75478360429406" lon="9.517073621973395">
<ele>134</ele>
<time>2024-05-11T12:19:26Z</time>
</trkpt>
<trkpt lat="49.75482174195349" lon="9.517078399658203">
<ele>134.2</ele>
<time>2024-05-11T12:19:27Z</time>
</trkpt>
<trkpt lat="49.75485987961292" lon="9.517078399658203">
<ele>134.4</ele>
<time>2024-05-11T12:19:28Z</time>
</trkpt>
<trkpt lat="49.75489801727235" lon="9.5170802436769">
<ele>134.4</ele>
<time>2024-05-11T12:19:29Z</time>
</trkpt>
<trkpt lat="49.75494001060724" lon="9.51708124950528">
<ele>134.4</ele>
<time>2024-05-11T12:19:30Z</time>
</trkpt>
<trkpt lat="49.75497814826667" lon="9.517087871208789">
<ele>134.4</ele>
<time>2024-05-11T12:19:31Z</time>
</trkpt>
<trkpt lat="49.755016285926104" lon="9.517093654721975">
<ele>134.4</ele>
<time>2024-05-11T12:19:32Z</time>
</trkpt>
<trkpt lat="49.75505827926099" lon="9.517096504569054">
<ele>134.4</ele>
<time>2024-05-11T12:19:33Z</time>
</trkpt>
<trkpt lat="49.75509641692042" lon="9.517096504569054">
<ele>134.2</ele>
<time>2024-05-11T12:19:34Z</time>
</trkpt>
<trkpt lat="49.75513832643628" lon="9.517098348587751">
<ele>134.2</ele>
<time>2024-05-11T12:19:35Z</time>
</trkpt>
<trkpt lat="49.75518031977117" lon="9.51710027642548">
<ele>134.2</ele>
<time>2024-05-11T12:19:36Z</time>
</trkpt>
<trkpt lat="49.75522231310606" lon="9.517098348587751">
<ele>134.2</ele>
<time>2024-05-11T12:19:37Z</time>
</trkpt>
<trkpt lat="49.75526422262192" lon="9.517096504569054">
<ele>134</ele>
<time>2024-05-11T12:19:38Z</time>
</trkpt>
<trkpt lat="49.75530621595681" lon="9.517096504569054">
<ele>134</ele>
<time>2024-05-11T12:19:39Z</time>
</trkpt>
<trkpt lat="49.755348125472665" lon="9.517096504569054">
<ele>134</ele>
<time>2024-05-11T12:19:40Z</time>
</trkpt>
<trkpt lat="49.755390118807554" lon="9.517096504569054">
<ele>134</ele>
<time>2024-05-11T12:19:41Z</time>
</trkpt>
<trkpt lat="49.755428256466985" lon="9.517093654721975">
<ele>134</ele>
<time>2024-05-11T12:19:42Z</time>
</trkpt>
<trkpt lat="49.755470249801874" lon="9.517091726884246">
<ele>134</ele>
<time>2024-05-11T12:19:43Z</time>
</trkpt>
<trkpt lat="49.75551601499319" lon="9.517089799046516">
<ele>133.8</ele>
<time>2024-05-11T12:19:44Z</time>
</trkpt>
<trkpt lat="49.75556178018451" lon="9.51708309352398">
<ele>133.8</ele>
<time>2024-05-11T12:19:45Z</time>
</trkpt>
<trkpt lat="49.755607545375824" lon="9.517073621973395">
<ele>133.8</ele>
<time>2024-05-11T12:19:46Z</time>
</trkpt>
<trkpt lat="49.75565331056714" lon="9.517067838460209">
<ele>133.8</ele>
<time>2024-05-11T12:19:47Z</time>
</trkpt>
<trkpt lat="49.75569530390203" lon="9.5170612167567">
<ele>133.8</ele>
<time>2024-05-11T12:19:48Z</time>
</trkpt>
<trkpt lat="49.75574106909335" lon="9.517053589224815">
<ele>133.8</ele>
<time>2024-05-11T12:19:49Z</time>
</trkpt>
<trkpt lat="49.75578683428466" lon="9.51704210601747">
<ele>133.8</ele>
<time>2024-05-11T12:19:50Z</time>
</trkpt>
<trkpt lat="49.75583259947598" lon="9.517024923115969">
<ele>133.8</ele>
<time>2024-05-11T12:19:51Z</time>
</trkpt>
<trkpt lat="49.75587844848633" lon="9.517011595889926">
<ele>134</ele>
<time>2024-05-11T12:19:52Z</time>
</trkpt>
<trkpt lat="49.755920358002186" lon="9.517000196501613">
<ele>134</ele>
<time>2024-05-11T12:19:53Z</time>
</trkpt>
<trkpt lat="49.75596997886896" lon="9.516989635303617">
<ele>134</ele>
<time>2024-05-11T12:19:54Z</time>
</trkpt>
<trkpt lat="49.75601188838482" lon="9.51698200777173">
<ele>134</ele>
<time>2024-05-11T12:19:55Z</time>
</trkpt>
<trkpt lat="49.75605773739517" lon="9.516962980851533">
<ele>134</ele>
<time>2024-05-11T12:19:56Z</time>
</trkpt>
<trkpt lat="49.75610350258648" lon="9.51694487594068">
<ele>134</ele>
<time>2024-05-11T12:19:57Z</time>
</trkpt>
<trkpt lat="49.7561492677778" lon="9.516929620876908">
<ele>134</ele>
<time>2024-05-11T12:19:58Z</time>
</trkpt>
<trkpt lat="49.75619503296912" lon="9.516915287822483">
<ele>134</ele>
<time>2024-05-11T12:19:59Z</time>
</trkpt>
<trkpt lat="49.75623317062855" lon="9.516893327236176">
<ele>134</ele>
<time>2024-05-11T12:20:00Z</time>
</trkpt>
<trkpt lat="49.75627516396344" lon="9.516876144334674">
<ele>134</ele>
<time>2024-05-11T12:20:01Z</time>
</trkpt>
<trkpt lat="49.756320929154754" lon="9.516857117414474">
<ele>134</ele>
<time>2024-05-11T12:20:02Z</time>
</trkpt>
<trkpt lat="49.756359066814184" lon="9.516836162656546">
<ele>133.8</ele>
<time>2024-05-11T12:20:03Z</time>
</trkpt>
<trkpt lat="49.756401060149074" lon="9.516813196241856">
<ele>133.8</ele>
<time>2024-05-11T12:20:04Z</time>
</trkpt>
<trkpt lat="49.756439197808504" lon="9.5167884696275">
<ele>134</ele>
<time>2024-05-11T12:20:05Z</time>
</trkpt>
<trkpt lat="49.75648496299982" lon="9.51676843687892">
<ele>134</ele>
<time>2024-05-11T12:20:06Z</time>
</trkpt>
<trkpt lat="49.75652687251568" lon="9.516751253977418">
<ele>134</ele>
<time>2024-05-11T12:20:07Z</time>
</trkpt>
<trkpt lat="49.75656886585057" lon="9.516733149066567">
<ele>134.2</ele>
<time>2024-05-11T12:20:08Z</time>
</trkpt>
<trkpt lat="49.75661085918546" lon="9.516716888174416">
<ele>134.2</ele>
<time>2024-05-11T12:20:09Z</time>
</trkpt>
<trkpt lat="49.75664514116943" lon="9.516699789091945">
<ele>134.4</ele>
<time>2024-05-11T12:20:10Z</time>
</trkpt>
<trkpt lat="49.75668327882886" lon="9.516683528199792">
<ele>134.4</ele>
<time>2024-05-11T12:20:11Z</time>
</trkpt>
<trkpt lat="49.75672141648829" lon="9.516661567613482">
<ele>134.4</ele>
<time>2024-05-11T12:20:12Z</time>
</trkpt>
<trkpt lat="49.75676340982318" lon="9.516638685017824">
<ele>134.6</ele>
<time>2024-05-11T12:20:13Z</time>
</trkpt>
<trkpt lat="49.75680154748261" lon="9.516616808250546">
<ele>134.6</ele>
<time>2024-05-11T12:20:14Z</time>
</trkpt>
<trkpt lat="49.7568435408175" lon="9.51659006997943">
<ele>134.8</ele>
<time>2024-05-11T12:20:15Z</time>
</trkpt>
<trkpt lat="49.75688167847693" lon="9.51656810939312">
<ele>134.8</ele>
<time>2024-05-11T12:20:16Z</time>
</trkpt>
<trkpt lat="49.75690841674805" lon="9.516546232625842">
<ele>135</ele>
<time>2024-05-11T12:20:17Z</time>
</trkpt>
<trkpt lat="49.75693892687559" lon="9.516523350030184">
<ele>135.2</ele>
<time>2024-05-11T12:20:18Z</time>
</trkpt>
<trkpt lat="49.756969437003136" lon="9.516505161300302">
<ele>135.2</ele>
<time>2024-05-11T12:20:19Z</time>
</trkpt>
<trkpt lat="49.75699994713068" lon="9.516488062217832">
<ele>135.2</ele>
<time>2024-05-11T12:20:20Z</time>
</trkpt>
<trkpt lat="49.75703422911465" lon="9.51647180132568">
<ele>135.4</ele>
<time>2024-05-11T12:20:21Z</time>
</trkpt>
<trkpt lat="49.75706096738577" lon="9.516454618424175">
<ele>135.4</ele>
<time>2024-05-11T12:20:22Z</time>
</trkpt>
<trkpt lat="49.75708384998143" lon="9.516438441351056">
<ele>135.4</ele>
<time>2024-05-11T12:20:23Z</time>
</trkpt>
<trkpt lat="49.757106732577085" lon="9.516418408602476">
<ele>135.4</ele>
<time>2024-05-11T12:20:24Z</time>
</trkpt>
<trkpt lat="49.75712584331632" lon="9.516398375853896">
<ele>135.6</ele>
<time>2024-05-11T12:20:25Z</time>
</trkpt>
<trkpt lat="49.757148725911975" lon="9.516381192952394">
<ele>135.6</ele>
<time>2024-05-11T12:20:26Z</time>
</trkpt>
<trkpt lat="49.75717160850763" lon="9.516365015879272">
<ele>135.6</ele>
<time>2024-05-11T12:20:27Z</time>
</trkpt>
<trkpt lat="49.75719063542783" lon="9.516353532671928">
<ele>135.6</ele>
<time>2024-05-11T12:20:28Z</time>
</trkpt>
<trkpt lat="49.757209746167064" lon="9.516336433589458">
<ele>135.6</ele>
<time>2024-05-11T12:20:29Z</time>
</trkpt>
<trkpt lat="49.75723262876272" lon="9.516323022544384">
<ele>135.6</ele>
<time>2024-05-11T12:20:30Z</time>
</trkpt>
<trkpt lat="49.75725173950195" lon="9.51631162315607">
<ele>135.6</ele>
<time>2024-05-11T12:20:31Z</time>
</trkpt>
<trkpt lat="49.75727462209761" lon="9.516300139948726">
<ele>135.6</ele>
<time>2024-05-11T12:20:32Z</time>
</trkpt>
<trkpt lat="49.75729364901781" lon="9.516284884884952">
<ele>135.6</ele>
<time>2024-05-11T12:20:33Z</time>
</trkpt>
<trkpt lat="49.75731653161347" lon="9.516268707811832">
<ele>135.6</ele>
<time>2024-05-11T12:20:34Z</time>
</trkpt>
<trkpt lat="49.757343269884586" lon="9.5162495970726">
<ele>135.6</ele>
<time>2024-05-11T12:20:35Z</time>
</trkpt>
<trkpt lat="49.75736992433667" lon="9.516226714476945">
<ele>135.4</ele>
<time>2024-05-11T12:20:36Z</time>
</trkpt>
<trkpt lat="49.757400434464216" lon="9.516200060024858">
<ele>135.2</ele>
<time>2024-05-11T12:20:37Z</time>
</trkpt>
<trkpt lat="49.75743480026722" lon="9.51617139391601">
<ele>135.2</ele>
<time>2024-05-11T12:20:38Z</time>
</trkpt>
<trkpt lat="49.75746916607022" lon="9.516146583482625">
<ele>135</ele>
<time>2024-05-11T12:20:39Z</time>
</trkpt>
<trkpt lat="49.75750730372965" lon="9.516121856868269">
<ele>135</ele>
<time>2024-05-11T12:20:40Z</time>
</trkpt>
<trkpt lat="49.75754544138909" lon="9.51609511859715">
<ele>135</ele>
<time>2024-05-11T12:20:41Z</time>
</trkpt>
<trkpt lat="49.757583579048514" lon="9.516066536307337">
<ele>135</ele>
<time>2024-05-11T12:20:42Z</time>
</trkpt>
<trkpt lat="49.75762557238341" lon="9.51603694818914">
<ele>134.8</ele>
<time>2024-05-11T12:20:43Z</time>
</trkpt>
<trkpt lat="49.757663710042834" lon="9.516006438061597">
<ele>134.8</ele>
<time>2024-05-11T12:20:44Z</time>
</trkpt>
<trkpt lat="49.757701847702265" lon="9.515972072258592">
<ele>134.6</ele>
<time>2024-05-11T12:20:45Z</time>
</trkpt>
<trkpt lat="49.75774375721812" lon="9.51593678444624">
<ele>134.6</ele>
<time>2024-05-11T12:20:46Z</time>
</trkpt>
<trkpt lat="49.75778575055301" lon="9.515903424471617">
<ele>134.4</ele>
<time>2024-05-11T12:20:47Z</time>
</trkpt>
<trkpt lat="49.75783537141979" lon="9.515865286812186">
<ele>134.4</ele>
<time>2024-05-11T12:20:48Z</time>
</trkpt>
<trkpt lat="49.75788876414299" lon="9.515826143324375">
<ele>134.4</ele>
<time>2024-05-11T12:20:49Z</time>
</trkpt>
<trkpt lat="49.75794601254165" lon="9.515789933502674">
<ele>134.2</ele>
<time>2024-05-11T12:20:50Z</time>
</trkpt>
<trkpt lat="49.75800317712128" lon="9.515753723680971">
<ele>134.2</ele>
<time>2024-05-11T12:20:51Z</time>
</trkpt>
<trkpt lat="49.75806042551994" lon="9.515711730346084">
<ele>134</ele>
<time>2024-05-11T12:20:52Z</time>
</trkpt>
<trkpt lat="49.758113818243146" lon="9.515665043145418">
<ele>133.8</ele>
<time>2024-05-11T12:20:53Z</time>
</trkpt>
<trkpt lat="49.75817106664181" lon="9.51562019996345">
<ele>133.6</ele>
<time>2024-05-11T12:20:54Z</time>
</trkpt>
<trkpt lat="49.75822445936501" lon="9.51558206230402">
<ele>133.4</ele>
<time>2024-05-11T12:20:55Z</time>
</trkpt>
<trkpt lat="49.75827785208821" lon="9.515542918816209">
<ele>133.2</ele>
<time>2024-05-11T12:20:56Z</time>
</trkpt>
<trkpt lat="49.758331244811416" lon="9.5155019313097">
<ele>133</ele>
<time>2024-05-11T12:20:57Z</time>
</trkpt>
<trkpt lat="49.75838086567819" lon="9.515455244109036">
<ele>132.8</ele>
<time>2024-05-11T12:20:58Z</time>
</trkpt>
<trkpt lat="49.758430402725935" lon="9.515408473089336">
<ele>132.6</ele>
<time>2024-05-11T12:20:59Z</time>
</trkpt>
<trkpt lat="49.75848002359271" lon="9.51536362990737">
<ele>132.4</ele>
<time>2024-05-11T12:21:00Z</time>
</trkpt>
<trkpt lat="49.75853341631591" lon="9.515319792553782">
<ele>132.2</ele>
<time>2024-05-11T12:21:02Z</time>
</trkpt>
<trkpt lat="49.75863642990589" lon="9.515234883874657">
<ele>131.8</ele>
<time>2024-05-11T12:21:04Z</time>
</trkpt>
<trkpt lat="49.75873944349587" lon="9.515152908861635">
<ele>131.6</ele>
<time>2024-05-11T12:21:05Z</time>
</trkpt>
<trkpt lat="49.758785208687186" lon="9.515111921355128">
<ele>131.6</ele>
<time>2024-05-11T12:21:06Z</time>
</trkpt>
<trkpt lat="49.75883482955396" lon="9.51506992802024">
<ele>131.6</ele>
<time>2024-05-11T12:21:07Z</time>
</trkpt>
<trkpt lat="49.75887673906982" lon="9.515033718198538">
<ele>131.6</ele>
<time>2024-05-11T12:21:08Z</time>
</trkpt>
<trkpt lat="49.758926359936595" lon="9.514998430386186">
<ele>131.8</ele>
<time>2024-05-11T12:21:09Z</time>
</trkpt>
<trkpt lat="49.75897212512791" lon="9.51496783643961">
<ele>131.8</ele>
<time>2024-05-11T12:21:10Z</time>
</trkpt>
<trkpt lat="49.75901789031923" lon="9.514938332140446">
<ele>131.8</ele>
<time>2024-05-11T12:21:11Z</time>
</trkpt>
<trkpt lat="49.759063655510545" lon="9.514904972165825">
<ele>132</ele>
<time>2024-05-11T12:21:12Z</time>
</trkpt>
<trkpt lat="49.75911327637732" lon="9.514864906668665">
<ele>132.2</ele>
<time>2024-05-11T12:21:13Z</time>
</trkpt>
<trkpt lat="49.75915904156864" lon="9.514831462875009">
<ele>132.2</ele>
<time>2024-05-11T12:21:14Z</time>
</trkpt>
<trkpt lat="49.759201034903526" lon="9.514798102900386">
<ele>132.2</ele>
<time>2024-05-11T12:21:15Z</time>
</trkpt>
<trkpt lat="49.759242944419384" lon="9.514764742925763">
<ele>132.4</ele>
<time>2024-05-11T12:21:16Z</time>
</trkpt>
<trkpt lat="49.759281082078815" lon="9.514736160635948">
<ele>132.4</ele>
<time>2024-05-11T12:21:17Z</time>
</trkpt>
<trkpt lat="49.75931167602539" lon="9.514708500355482">
<ele>132.2</ele>
<time>2024-05-11T12:21:18Z</time>
</trkpt>
<trkpt lat="49.75934595800936" lon="9.514681762084363">
<ele>132.2</ele>
<time>2024-05-11T12:21:19Z</time>
</trkpt>
<trkpt lat="49.75937646813691" lon="9.514661729335783">
<ele>132.2</ele>
<time>2024-05-11T12:21:20Z</time>
</trkpt>
<trkpt lat="49.759399350732565" lon="9.514646474272013">
<ele>132</ele>
<time>2024-05-11T12:21:21Z</time>
</trkpt>
<trkpt lat="49.75942223332822" lon="9.5146350748837">
<ele>132</ele>
<time>2024-05-11T12:21:22Z</time>
</trkpt>
<trkpt lat="49.75944511592388" lon="9.514623591676354">
<ele>132</ele>
<time>2024-05-11T12:21:23Z</time>
</trkpt>
<trkpt lat="49.75946422666311" lon="9.514608336612582">
<ele>132</ele>
<time>2024-05-11T12:21:24Z</time>
</trkpt>
<trkpt lat="49.759479481726885" lon="9.51459115371108">
<ele>132</ele>
<time>2024-05-11T12:21:25Z</time>
</trkpt>
<trkpt lat="49.75949473679066" lon="9.514576904475687">
<ele>132.2</ele>
<time>2024-05-11T12:21:26Z</time>
</trkpt>
<trkpt lat="49.75951384752989" lon="9.514561649411917">
<ele>132.2</ele>
<time>2024-05-11T12:21:27Z</time>
</trkpt>
<trkpt lat="49.75953673012555" lon="9.514541616663337">
<ele>132.2</ele>
<time>2024-05-11T12:21:28Z</time>
</trkpt>
<trkpt lat="49.759559612721205" lon="9.51451487839222">
<ele>132.2</ele>
<time>2024-05-11T12:21:29Z</time>
</trkpt>
<trkpt lat="49.75958249531686" lon="9.514490067958832">
<ele>132.4</ele>
<time>2024-05-11T12:21:30Z</time>
</trkpt>
<trkpt lat="49.75960537791252" lon="9.514468191191554">
<ele>132.4</ele>
<time>2024-05-11T12:21:31Z</time>
</trkpt>
<trkpt lat="49.75963203236461" lon="9.514450002461672">
<ele>132.4</ele>
<time>2024-05-11T12:21:32Z</time>
</trkpt>
<trkpt lat="49.75965114310384" lon="9.514432903379202">
<ele>132.4</ele>
<time>2024-05-11T12:21:33Z</time>
</trkpt>
<trkpt lat="49.75967025384307" lon="9.514416642487047">
<ele>132.6</ele>
<time>2024-05-11T12:21:34Z</time>
</trkpt>
<trkpt lat="49.75968550890684" lon="9.51441379263997">
<ele>132.8</ele>
<time>2024-05-11T12:21:35Z</time>
</trkpt>
<trkpt lat="49.75970453582704" lon="9.514419492334127">
<ele>133</ele>
<time>2024-05-11T12:21:36Z</time>
</trkpt>
<trkpt lat="49.75971979089081" lon="9.514445224776864">
<ele>133</ele>
<time>2024-05-11T12:21:37Z</time>
</trkpt>
<trkpt lat="49.75973890163005" lon="9.514476740732787">
<ele>133.2</ele>
<time>2024-05-11T12:21:38Z</time>
</trkpt>
<trkpt lat="49.75975030101836" lon="9.51451295055449">
<ele>133.4</ele>
<time>2024-05-11T12:21:39Z</time>
</trkpt>
<trkpt lat="49.7597617842257" lon="9.514559721574187">
<ele>133.4</ele>
<time>2024-05-11T12:21:40Z</time>
</trkpt>
<trkpt lat="49.75976941175759" lon="9.514601631090043">
<ele>133.6</ele>
<time>2024-05-11T12:21:41Z</time>
</trkpt>
<trkpt lat="49.759773183614016" lon="9.514641696587203">
<ele>133.6</ele>
<time>2024-05-11T12:21:42Z</time>
</trkpt>
<trkpt lat="49.7597808111459" lon="9.5146712847054">
<ele>133.8</ele>
<time>2024-05-11T12:21:43Z</time>
</trkpt>
<trkpt lat="49.75978843867779" lon="9.514701794832945">
<ele>133.8</ele>
<time>2024-05-11T12:21:44Z</time>
</trkpt>
<trkpt lat="49.75978843867779" lon="9.51473138295114">
<ele>133.6</ele>
<time>2024-05-11T12:21:45Z</time>
</trkpt>
<trkpt lat="49.75979992188513" lon="9.514759965240955">
<ele>133.6</ele>
<time>2024-05-11T12:21:46Z</time>
</trkpt>
<trkpt lat="49.75979992188513" lon="9.51478854753077">
<ele>133.6</ele>
<time>2024-05-11T12:21:47Z</time>
</trkpt>
<trkpt lat="49.75980369374156" lon="9.514815285801888">
<ele>133.4</ele>
<time>2024-05-11T12:21:48Z</time>
</trkpt>
<trkpt lat="49.75980754941702" lon="9.514842946082354">
<ele>133.4</ele>
<time>2024-05-11T12:21:49Z</time>
</trkpt>
<trkpt lat="49.759811321273446" lon="9.514873456209898">
<ele>133.2</ele>
<time>2024-05-11T12:21:50Z</time>
</trkpt>
<trkpt lat="49.759815176948905" lon="9.514898266643286">
<ele>133</ele>
<time>2024-05-11T12:21:51Z</time>
</trkpt>
<trkpt lat="49.759815176948905" lon="9.514920227229595">
<ele>133</ele>
<time>2024-05-11T12:21:52Z</time>
</trkpt>
<trkpt lat="49.75981894880533" lon="9.514933554455638">
<ele>132.8</ele>
<time>2024-05-11T12:21:53Z</time>
</trkpt>
<trkpt lat="49.759815176948905" lon="9.514933554455638">
<ele>132.6</ele>
<time>2024-05-11T12:21:57Z</time>
</trkpt>
<trkpt lat="49.759811321273446" lon="9.514933554455638">
<ele>132.4</ele>
<time>2024-05-11T12:22:01Z</time>
</trkpt>
<trkpt lat="49.759811321273446" lon="9.514931626617908">
<ele>132.2</ele>
<time>2024-05-11T12:22:05Z</time>
</trkpt>
<trkpt lat="49.759811321273446" lon="9.51492969878018">
<ele>131.8</ele>
<time>2024-05-11T12:22:08Z</time>
</trkpt>
<trkpt lat="49.75980754941702" lon="9.51492877677083">
<ele>131.6</ele>
<time>2024-05-11T12:22:11Z</time>
</trkpt>
<trkpt lat="49.75980754941702" lon="9.51492969878018">
<ele>131.4</ele>
<time>2024-05-11T12:22:16Z</time>
</trkpt>
<trkpt lat="49.75980754941702" lon="9.514931626617908">
<ele>131.2</ele>
<time>2024-05-11T12:22:18Z</time>
</trkpt>
<trkpt lat="49.75980754941702" lon="9.51492969878018">
<ele>131</ele>
<time>2024-05-11T12:22:20Z</time>
</trkpt>
<trkpt lat="49.75980754941702" lon="9.514931626617908">
<ele>130.6</ele>
<time>2024-05-11T12:22:21Z</time>
</trkpt>
<trkpt lat="49.75980754941702" lon="9.514933554455638">
<ele>130.399</ele>
<time>2024-05-11T12:22:23Z</time>
</trkpt>
<trkpt lat="49.75980754941702" lon="9.514934476464989">
<ele>130.2</ele>
<time>2024-05-11T12:22:24Z</time>
</trkpt>
<trkpt lat="49.75980754941702" lon="9.514936404302716">
<ele>130.2</ele>
<time>2024-05-11T12:22:25Z</time>
</trkpt>
<trkpt lat="49.75980754941702" lon="9.514938332140446">
<ele>130</ele>
<time>2024-05-11T12:22:26Z</time>
</trkpt>
<trkpt lat="49.75980369374156" lon="9.514940259978175">
<ele>129.8</ele>
<time>2024-05-11T12:22:29Z</time>
</trkpt>
<trkpt lat="49.75980369374156" lon="9.514942103996871">
<ele>129.8</ele>
<time>2024-05-11T12:22:30Z</time>
</trkpt>
<trkpt lat="49.75980369374156" lon="9.514943109825252">
<ele>129.8</ele>
<time>2024-05-11T12:22:33Z</time>
</trkpt>
<trkpt lat="49.75980369374156" lon="9.514942103996871">
<ele>129.8</ele>
<time>2024-05-11T12:22:37Z</time>
</trkpt>
<trkpt lat="49.75980369374156" lon="9.514940259978175">
<ele>129.8</ele>
<time>2024-05-11T12:22:39Z</time>
</trkpt>
<trkpt lat="49.75980369374156" lon="9.514938332140446">
<ele>129.8</ele>
<time>2024-05-11T12:22:40Z</time>
</trkpt>
<trkpt lat="49.75980369374156" lon="9.514936404302716">
<ele>129.8</ele>
<time>2024-05-11T12:22:41Z</time>
</trkpt>
<trkpt lat="49.75980369374156" lon="9.514934476464989">
<ele>129.8</ele>
<time>2024-05-11T12:22:43Z</time>
</trkpt>
<trkpt lat="49.75980754941702" lon="9.514934476464989">
<ele>129.8</ele>
<time>2024-05-11T12:22:44Z</time>
</trkpt>
<trkpt lat="49.75980754941702" lon="9.514933554455638">
<ele>130</ele>
<time>2024-05-11T12:22:45Z</time>
</trkpt>
<trkpt lat="49.75980754941702" lon="9.514931626617908">
<ele>130</ele>
<time>2024-05-11T12:22:47Z</time>
</trkpt>
<trkpt lat="49.75980754941702" lon="9.51492969878018">
<ele>130</ele>
<time>2024-05-11T12:22:49Z</time>
</trkpt>
<trkpt lat="49.759811321273446" lon="9.51492877677083">
<ele>130</ele>
<time>2024-05-11T12:22:51Z</time>
</trkpt>
<trkpt lat="49.759811321273446" lon="9.514933554455638">
<ele>130</ele>
<time>2024-05-11T12:22:56Z</time>
</trkpt>
<trkpt lat="49.759811321273446" lon="9.514940259978175">
<ele>130</ele>
<time>2024-05-11T12:22:57Z</time>
</trkpt>
<trkpt lat="49.759811321273446" lon="9.514944953843951">
<ele>129.8</ele>
<time>2024-05-11T12:22:58Z</time>
</trkpt>
<trkpt lat="49.759815176948905" lon="9.514951659366488">
<ele>129.8</ele>
<time>2024-05-11T12:22:59Z</time>
</trkpt>
<trkpt lat="49.759815176948905" lon="9.514954509213569">
<ele>129.8</ele>
<time>2024-05-11T12:23:00Z</time>
</trkpt>
<trkpt lat="49.759815176948905" lon="9.514956437051296">
<ele>129.8</ele>
<time>2024-05-11T12:23:01Z</time>
</trkpt>
<trkpt lat="49.759815176948905" lon="9.514958364889026">
<ele>129.8</ele>
<time>2024-05-11T12:23:05Z</time>
</trkpt>
<trkpt lat="49.759815176948905" lon="9.514960208907723">
<ele>129.8</ele>
<time>2024-05-11T12:23:06Z</time>
</trkpt>
<trkpt lat="49.759815176948905" lon="9.514961214736104">
<ele>129.8</ele>
<time>2024-05-11T12:23:11Z</time>
</trkpt>
<trkpt lat="49.75981894880533" lon="9.514961214736104">
<ele>129.8</ele>
<time>2024-05-11T12:23:12Z</time>
</trkpt>
<trkpt lat="49.75981894880533" lon="9.514963142573832">
<ele>129.6</ele>
<time>2024-05-11T12:23:13Z</time>
</trkpt>
<trkpt lat="49.75981894880533" lon="9.514964986592531">
<ele>129.6</ele>
<time>2024-05-11T12:23:14Z</time>
</trkpt>
<trkpt lat="49.75981894880533" lon="9.51496691443026">
<ele>129.6</ele>
<time>2024-05-11T12:23:17Z</time>
</trkpt>
<trkpt lat="49.75982280448079" lon="9.51496691443026">
<ele>129.6</ele>
<time>2024-05-11T12:23:19Z</time>
</trkpt>
<trkpt lat="49.75982280448079" lon="9.51496783643961">
<ele>129.6</ele>
<time>2024-05-11T12:23:20Z</time>
</trkpt>
<trkpt lat="49.75982666015625" lon="9.51496691443026">
<ele>129.8</ele>
<time>2024-05-11T12:23:21Z</time>
</trkpt>
<trkpt lat="49.75982666015625" lon="9.51496783643961">
<ele>129.8</ele>
<time>2024-05-11T12:23:22Z</time>
</trkpt>
<trkpt lat="49.75982666015625" lon="9.51496691443026">
<ele>129.8</ele>
<time>2024-05-11T12:23:25Z</time>
</trkpt>
<trkpt lat="49.75983043201268" lon="9.51496691443026">
<ele>130</ele>
<time>2024-05-11T12:23:26Z</time>
</trkpt>
<trkpt lat="49.75983043201268" lon="9.51496783643961">
<ele>130</ele>
<time>2024-05-11T12:23:27Z</time>
</trkpt>
<trkpt lat="49.75983043201268" lon="9.51496976427734">
<ele>130</ele>
<time>2024-05-11T12:23:28Z</time>
</trkpt>
<trkpt lat="49.75983043201268" lon="9.514971692115068">
<ele>130.2</ele>
<time>2024-05-11T12:23:29Z</time>
</trkpt>
<trkpt lat="49.759834287688136" lon="9.514973619952798">
<ele>130.2</ele>
<time>2024-05-11T12:23:30Z</time>
</trkpt>
<trkpt lat="49.759834287688136" lon="9.514974541962149">
<ele>130.2</ele>
<time>2024-05-11T12:23:31Z</time>
</trkpt>
<trkpt lat="49.759834287688136" lon="9.514978397637606">
<ele>130.2</ele>
<time>2024-05-11T12:23:32Z</time>
</trkpt>
<trkpt lat="49.759834287688136" lon="9.514976469799876">
<ele>130.2</ele>
<time>2024-05-11T12:23:37Z</time>
</trkpt>
<trkpt lat="49.759834287688136" lon="9.514985019341111">
<ele>130.399</ele>
<time>2024-05-11T12:23:38Z</time>
</trkpt>
<trkpt lat="49.759834287688136" lon="9.514991724863648">
<ele>130.399</ele>
<time>2024-05-11T12:23:39Z</time>
</trkpt>
<trkpt lat="49.759834287688136" lon="9.515003124251962">
<ele>130.399</ele>
<time>2024-05-11T12:23:40Z</time>
</trkpt>
<trkpt lat="49.75983805954456" lon="9.515014607459308">
<ele>130.399</ele>
<time>2024-05-11T12:23:41Z</time>
</trkpt>
<trkpt lat="49.75984191522002" lon="9.51502793468535">
<ele>130.399</ele>
<time>2024-05-11T12:23:42Z</time>
</trkpt>
<trkpt lat="49.75984568707645" lon="9.515053667128086">
<ele>130.399</ele>
<time>2024-05-11T12:23:43Z</time>
</trkpt>
<trkpt lat="49.75984568707645" lon="9.515079483389854">
<ele>130.399</ele>
<time>2024-05-11T12:23:44Z</time>
</trkpt>
<trkpt lat="49.759853314608335" lon="9.51510613784194">
<ele>130.399</ele>
<time>2024-05-11T12:23:45Z</time>
</trkpt>
<trkpt lat="49.75986094214022" lon="9.515132876113055">
<ele>130.399</ele>
<time>2024-05-11T12:23:46Z</time>
</trkpt>
<trkpt lat="49.75986479781568" lon="9.51516623608768">
<ele>130.399</ele>
<time>2024-05-11T12:23:47Z</time>
</trkpt>
<trkpt lat="49.75987242534757" lon="9.515201523900032">
<ele>130.399</ele>
<time>2024-05-11T12:23:48Z</time>
</trkpt>
<trkpt lat="49.75988005287945" lon="9.515236811712384">
<ele>130.399</ele>
<time>2024-05-11T12:23:49Z</time>
</trkpt>
<trkpt lat="49.75988768041134" lon="9.515277799218891">
<ele>130.399</ele>
<time>2024-05-11T12:23:50Z</time>
</trkpt>
<trkpt lat="49.759891452267766" lon="9.515328342095016">
<ele>130.399</ele>
<time>2024-05-11T12:23:51Z</time>
</trkpt>
<trkpt lat="49.75989907979965" lon="9.515375113114716">
<ele>130.399</ele>
<time>2024-05-11T12:23:52Z</time>
</trkpt>
<trkpt lat="49.75990670733154" lon="9.515415178611876">
<ele>130.399</ele>
<time>2024-05-11T12:23:54Z</time>
</trkpt>
<trkpt lat="49.75991819053888" lon="9.515484748408198">
<ele>130.399</ele>
<time>2024-05-11T12:23:55Z</time>
</trkpt>
<trkpt lat="49.75992196239531" lon="9.515513414517043">
<ele>130.399</ele>
<time>2024-05-11T12:23:56Z</time>
</trkpt>
<trkpt lat="49.7599295899272" lon="9.515535291284325">
<ele>130.399</ele>
<time>2024-05-11T12:23:57Z</time>
</trkpt>
<trkpt lat="49.759933445602655" lon="9.51556202955544">
<ele>130.399</ele>
<time>2024-05-11T12:23:58Z</time>
</trkpt>
<trkpt lat="49.75994107313454" lon="9.515593461692331">
<ele>130.399</ele>
<time>2024-05-11T12:23:59Z</time>
</trkpt>
<trkpt lat="49.75994484499097" lon="9.51562019996345">
<ele>130.2</ele>
<time>2024-05-11T12:24:00Z</time>
</trkpt>
<trkpt lat="49.75994870066643" lon="9.515643082559109">
<ele>130.2</ele>
<time>2024-05-11T12:24:01Z</time>
</trkpt>
<trkpt lat="49.759952472522855" lon="9.515665043145418">
<ele>130.2</ele>
<time>2024-05-11T12:24:02Z</time>
</trkpt>
<trkpt lat="49.759952472522855" lon="9.51568029820919">
<ele>130</ele>
<time>2024-05-11T12:24:03Z</time>
</trkpt>
<trkpt lat="49.75994870066643" lon="9.515686919912696">
<ele>130</ele>
<time>2024-05-11T12:24:04Z</time>
</trkpt>
<trkpt lat="49.75994870066643" lon="9.515689769759774">
<ele>130</ele>
<time>2024-05-11T12:24:05Z</time>
</trkpt>
<trkpt lat="49.75994484499097" lon="9.515687925741076">
<ele>129.8</ele>
<time>2024-05-11T12:24:06Z</time>
</trkpt>
<trkpt lat="49.75994484499097" lon="9.515689769759774">
<ele>129.8</ele>
<time>2024-05-11T12:24:07Z</time>
</trkpt>
<trkpt lat="49.75994870066643" lon="9.515693625435231">
<ele>129.8</ele>
<time>2024-05-11T12:24:08Z</time>
</trkpt>
<trkpt lat="49.75996010005474" lon="9.515711730346084">
<ele>129.8</ele>
<time>2024-05-11T12:24:10Z</time>
</trkpt>
<trkpt lat="49.75996010005474" lon="9.515723213553429">
<ele>129.8</ele>
<time>2024-05-11T12:24:11Z</time>
</trkpt>
<trkpt lat="49.75996010005474" lon="9.515736540779471">
<ele>129.8</ele>
<time>2024-05-11T12:24:12Z</time>
</trkpt>
<trkpt lat="49.75996772758663" lon="9.515749868005514">
<ele>129.8</ele>
<time>2024-05-11T12:24:13Z</time>
</trkpt>
<trkpt lat="49.75996772758663" lon="9.515765123069286">
<ele>130</ele>
<time>2024-05-11T12:24:14Z</time>
</trkpt>
<trkpt lat="49.759971583262086" lon="9.51577853411436">
<ele>130</ele>
<time>2024-05-11T12:24:15Z</time>
</trkpt>
<trkpt lat="49.759971583262086" lon="9.515788005664945">
<ele>130.2</ele>
<time>2024-05-11T12:24:16Z</time>
</trkpt>
<trkpt lat="49.75997535511851" lon="9.51580141671002">
<ele>130.2</ele>
<time>2024-05-11T12:24:17Z</time>
</trkpt>
<trkpt lat="49.759971583262086" lon="9.515818515792487">
<ele>130.399</ele>
<time>2024-05-11T12:24:18Z</time>
</trkpt>
<trkpt lat="49.7599639557302" lon="9.515846176072955">
<ele>130.399</ele>
<time>2024-05-11T12:24:19Z</time>
</trkpt>
<trkpt lat="49.7599639557302" lon="9.515865286812186">
<ele>130.399</ele>
<time>2024-05-11T12:24:21Z</time>
</trkpt>
<trkpt lat="49.75996772758663" lon="9.51589965261519">
<ele>130.399</ele>
<time>2024-05-11T12:24:22Z</time>
</trkpt>
<trkpt lat="49.75997535511851" lon="9.51591675169766">
<ele>130.399</ele>
<time>2024-05-11T12:24:23Z</time>
</trkpt>
<trkpt lat="49.75998683832586" lon="9.51593678444624">
<ele>130.399</ele>
<time>2024-05-11T12:24:24Z</time>
</trkpt>
<trkpt lat="49.759990610182285" lon="9.515953045338392">
<ele>130.399</ele>
<time>2024-05-11T12:24:25Z</time>
</trkpt>
<trkpt lat="49.759990610182285" lon="9.515970228239894">
<ele>130.399</ele>
<time>2024-05-11T12:24:26Z</time>
</trkpt>
<trkpt lat="49.759994465857744" lon="9.515983555465937">
<ele>130.399</ele>
<time>2024-05-11T12:24:27Z</time>
</trkpt>
<trkpt lat="49.759994465857744" lon="9.515997804701328">
<ele>130.399</ele>
<time>2024-05-11T12:24:28Z</time>
</trkpt>
<trkpt lat="49.76000594906509" lon="9.51601498760283">
<ele>130.399</ele>
<time>2024-05-11T12:24:29Z</time>
</trkpt>
<trkpt lat="49.76000594906509" lon="9.516031248494984">
<ele>130.399</ele>
<time>2024-05-11T12:24:30Z</time>
</trkpt>
<trkpt lat="49.76000209338963" lon="9.516048431396484">
<ele>130.399</ele>
<time>2024-05-11T12:24:31Z</time>
</trkpt>
<trkpt lat="49.76000209338963" lon="9.516063686460257">
<ele>130.399</ele>
<time>2024-05-11T12:24:32Z</time>
</trkpt>
<trkpt lat="49.76000594906509" lon="9.516077935695648">
<ele>130.6</ele>
<time>2024-05-11T12:24:33Z</time>
</trkpt>
<trkpt lat="49.7600173484534" lon="9.51609511859715">
<ele>130.6</ele>
<time>2024-05-11T12:24:34Z</time>
</trkpt>
<trkpt lat="49.76002120412886" lon="9.516111295670273">
<ele>130.8</ele>
<time>2024-05-11T12:24:35Z</time>
</trkpt>
<trkpt lat="49.76002497598529" lon="9.516128478571773">
<ele>130.8</ele>
<time>2024-05-11T12:24:36Z</time>
</trkpt>
<trkpt lat="49.760036459192634" lon="9.516143733635545">
<ele>130.8</ele>
<time>2024-05-11T12:24:37Z</time>
</trkpt>
<trkpt lat="49.76004408672452" lon="9.516158066689968">
<ele>131</ele>
<time>2024-05-11T12:24:38Z</time>
</trkpt>
<trkpt lat="49.76004785858095" lon="9.51617524959147">
<ele>131</ele>
<time>2024-05-11T12:24:39Z</time>
</trkpt>
<trkpt lat="49.760051714256406" lon="9.516188576817513">
<ele>131</ele>
<time>2024-05-11T12:24:40Z</time>
</trkpt>
<trkpt lat="49.76005934178829" lon="9.516204753890634">
<ele>131.2</ele>
<time>2024-05-11T12:24:41Z</time>
</trkpt>
<trkpt lat="49.76005934178829" lon="9.516221936792135">
<ele>131.2</ele>
<time>2024-05-11T12:24:42Z</time>
</trkpt>
<trkpt lat="49.76005548611283" lon="9.51623341999948">
<ele>131.2</ele>
<time>2024-05-11T12:24:43Z</time>
</trkpt>
<trkpt lat="49.76005934178829" lon="9.516241969540715">
<ele>131.2</ele>
<time>2024-05-11T12:24:44Z</time>
</trkpt>
<trkpt lat="49.76005548611283" lon="9.51625152491033">
<ele>131</ele>
<time>2024-05-11T12:24:45Z</time>
</trkpt>
<trkpt lat="49.760051714256406" lon="9.516260074451566">
<ele>131</ele>
<time>2024-05-11T12:24:46Z</time>
</trkpt>
<trkpt lat="49.760051714256406" lon="9.51626962982118">
<ele>131</ele>
<time>2024-05-11T12:24:47Z</time>
</trkpt>
<trkpt lat="49.760051714256406" lon="9.516280107200146">
<ele>131.2</ele>
<time>2024-05-11T12:24:48Z</time>
</trkpt>
<trkpt lat="49.76004785858095" lon="9.51629351824522">
<ele>131.2</ele>
<time>2024-05-11T12:24:49Z</time>
</trkpt>
<trkpt lat="49.76004408672452" lon="9.516306845471265">
<ele>131.4</ele>
<time>2024-05-11T12:24:50Z</time>
</trkpt>
<trkpt lat="49.76004023104906" lon="9.516321178525686">
<ele>131.4</ele>
<time>2024-05-11T12:24:51Z</time>
</trkpt>
<trkpt lat="49.76005548611283" lon="9.516343055292964">
<ele>131.4</ele>
<time>2024-05-11T12:24:52Z</time>
</trkpt>
<trkpt lat="49.760051714256406" lon="9.516358310356736">
<ele>131.4</ele>
<time>2024-05-11T12:24:53Z</time>
</trkpt>
<trkpt lat="49.760051714256406" lon="9.516374571248887">
<ele>131.4</ele>
<time>2024-05-11T12:24:54Z</time>
</trkpt>
<trkpt lat="49.760051714256406" lon="9.516400303691626">
<ele>131.2</ele>
<time>2024-05-11T12:24:55Z</time>
</trkpt>
<trkpt lat="49.76004785858095" lon="9.516414636746047">
<ele>131.4</ele>
<time>2024-05-11T12:24:56Z</time>
</trkpt>
<trkpt lat="49.760036459192634" lon="9.516438441351056">
<ele>131.4</ele>
<time>2024-05-11T12:24:57Z</time>
</trkpt>
<trkpt lat="49.760051714256406" lon="9.516453696414828">
<ele>131.4</ele>
<time>2024-05-11T12:24:58Z</time>
</trkpt>
<trkpt lat="49.760051714256406" lon="9.51646987348795">
<ele>131.2</ele>
<time>2024-05-11T12:24:59Z</time>
</trkpt>
<trkpt lat="49.76006311364472" lon="9.51648990623653">
<ele>131.2</ele>
<time>2024-05-11T12:25:00Z</time>
</trkpt>
<trkpt lat="49.76006696932018" lon="9.516506167128682">
<ele>131.2</ele>
<time>2024-05-11T12:25:01Z</time>
</trkpt>
<trkpt lat="49.76006311364472" lon="9.516523350030184">
<ele>131</ele>
<time>2024-05-11T12:25:02Z</time>
</trkpt>
<trkpt lat="49.76005934178829" lon="9.516539527103305">
<ele>131</ele>
<time>2024-05-11T12:25:03Z</time>
</trkpt>
<trkpt lat="49.76005934178829" lon="9.51654807664454">
<ele>131</ele>
<time>2024-05-11T12:25:04Z</time>
</trkpt>
<trkpt lat="49.76005934178829" lon="9.516561487689614">
<ele>131</ele>
<time>2024-05-11T12:25:05Z</time>
</trkpt>
<trkpt lat="49.76005934178829" lon="9.516578670591116">
<ele>131</ele>
<time>2024-05-11T12:25:06Z</time>
</trkpt>
<trkpt lat="49.760051714256406" lon="9.516579592600465">
<ele>131</ele>
<time>2024-05-11T12:25:07Z</time>
</trkpt>
<trkpt lat="49.760051714256406" lon="9.51659006997943">
<ele>131.2</ele>
<time>2024-05-11T12:25:08Z</time>
</trkpt>
<trkpt lat="49.76004785858095" lon="9.51660817489028">
<ele>131.2</ele>
<time>2024-05-11T12:25:09Z</time>
</trkpt>
<trkpt lat="49.760051714256406" lon="9.516621585935354">
<ele>131</ele>
<time>2024-05-11T12:25:10Z</time>
</trkpt>
<trkpt lat="49.760051714256406" lon="9.516632985323668">
<ele>131</ele>
<time>2024-05-11T12:25:11Z</time>
</trkpt>
<trkpt lat="49.760051714256406" lon="9.51664539054036">
<ele>131</ele>
<time>2024-05-11T12:25:12Z</time>
</trkpt>
<trkpt lat="49.76004785858095" lon="9.516653018072248">
<ele>130.8</ele>
<time>2024-05-11T12:25:13Z</time>
</trkpt>
<trkpt lat="49.760051714256406" lon="9.516659723594785">
<ele>130.6</ele>
<time>2024-05-11T12:25:14Z</time>
</trkpt>
<trkpt lat="49.760051714256406" lon="9.51666827313602">
<ele>130.6</ele>
<time>2024-05-11T12:25:15Z</time>
</trkpt>
<trkpt lat="49.760051714256406" lon="9.516674978658555">
<ele>130.399</ele>
<time>2024-05-11T12:25:16Z</time>
</trkpt>
<trkpt lat="49.76005548611283" lon="9.516681600362062">
<ele>130.399</ele>
<time>2024-05-11T12:25:17Z</time>
</trkpt>
<trkpt lat="49.76005548611283" lon="9.5166883058846">
<ele>130.399</ele>
<time>2024-05-11T12:25:18Z</time>
</trkpt>
<trkpt lat="49.76005934178829" lon="9.516695011407135">
<ele>130.2</ele>
<time>2024-05-11T12:25:19Z</time>
</trkpt>
<trkpt lat="49.76005934178829" lon="9.516701633110642">
<ele>130.2</ele>
<time>2024-05-11T12:25:20Z</time>
</trkpt>
<trkpt lat="49.76006311364472" lon="9.516698783263564">
<ele>130.2</ele>
<time>2024-05-11T12:25:21Z</time>
</trkpt>
<trkpt lat="49.76006696932018" lon="9.516695011407135">
<ele>130.2</ele>
<time>2024-05-11T12:25:22Z</time>
</trkpt>
<trkpt lat="49.760070741176605" lon="9.516695011407135">
<ele>130</ele>
<time>2024-05-11T12:25:23Z</time>
</trkpt>
<trkpt lat="49.76007836870849" lon="9.516691155731678">
<ele>130</ele>
<time>2024-05-11T12:25:24Z</time>
</trkpt>
<trkpt lat="49.76008222438395" lon="9.516691155731678">
<ele>130</ele>
<time>2024-05-11T12:25:25Z</time>
</trkpt>
<trkpt lat="49.76008985191584" lon="9.51669023372233">
<ele>130</ele>
<time>2024-05-11T12:25:26Z</time>
</trkpt>
<trkpt lat="49.76009362377226" lon="9.516695011407135">
<ele>130</ele>
<time>2024-05-11T12:25:27Z</time>
</trkpt>
<trkpt lat="49.76010125130415" lon="9.516699789091945">
<ele>130</ele>
<time>2024-05-11T12:25:28Z</time>
</trkpt>
<trkpt lat="49.76010510697961" lon="9.516698783263564">
<ele>130</ele>
<time>2024-05-11T12:25:29Z</time>
</trkpt>
<trkpt lat="49.760112734511495" lon="9.516701633110642">
<ele>129.8</ele>
<time>2024-05-11T12:25:30Z</time>
</trkpt>
<trkpt lat="49.76011650636792" lon="9.516701633110642">
<ele>129.6</ele>
<time>2024-05-11T12:25:31Z</time>
</trkpt>
<trkpt lat="49.76012413389981" lon="9.516698783263564">
<ele>129.399</ele>
<time>2024-05-11T12:25:32Z</time>
</trkpt>
<trkpt lat="49.760131761431694" lon="9.516701633110642">
<ele>129.399</ele>
<time>2024-05-11T12:25:33Z</time>
</trkpt>
<trkpt lat="49.76013561710715" lon="9.516701633110642">
<ele>129.399</ele>
<time>2024-05-11T12:25:34Z</time>
</trkpt>
<trkpt lat="49.76014324463904" lon="9.516701633110642">
<ele>129.2</ele>
<time>2024-05-11T12:25:35Z</time>
</trkpt>
<trkpt lat="49.760150872170925" lon="9.51670641079545">
<ele>129</ele>
<time>2024-05-11T12:25:36Z</time>
</trkpt>
<trkpt lat="49.76015464402735" lon="9.51670448295772">
<ele>129</ele>
<time>2024-05-11T12:25:37Z</time>
</trkpt>
<trkpt lat="49.76015849970281" lon="9.51670448295772">
<ele>128.8</ele>
<time>2024-05-11T12:25:38Z</time>
</trkpt>
<trkpt lat="49.76016998291016" lon="9.51670641079545">
<ele>128.6</ele>
<time>2024-05-11T12:25:39Z</time>
</trkpt>
<trkpt lat="49.76017761044204" lon="9.51670448295772">
<ele>128.6</ele>
<time>2024-05-11T12:25:40Z</time>
</trkpt>
<trkpt lat="49.76018523797393" lon="9.516699789091945">
<ele>128.6</ele>
<time>2024-05-11T12:25:41Z</time>
</trkpt>
<trkpt lat="49.760192865505815" lon="9.516699789091945">
<ele>128.6</ele>
<time>2024-05-11T12:25:42Z</time>
</trkpt>
<trkpt lat="49.76019663736224" lon="9.516699789091945">
<ele>128.6</ele>
<time>2024-05-11T12:25:43Z</time>
</trkpt>
<trkpt lat="49.76020426489413" lon="9.516693083569407">
<ele>128.6</ele>
<time>2024-05-11T12:25:44Z</time>
</trkpt>
<trkpt lat="49.76020812056959" lon="9.51668637804687">
<ele>128.6</ele>
<time>2024-05-11T12:25:45Z</time>
</trkpt>
<trkpt lat="49.760211892426014" lon="9.516679756343365">
<ele>128.399</ele>
<time>2024-05-11T12:25:46Z</time>
</trkpt>
<trkpt lat="49.760211892426014" lon="9.516677828505635">
<ele>128.399</ele>
<time>2024-05-11T12:25:47Z</time>
</trkpt>
<trkpt lat="49.76021574810147" lon="9.516674978658555">
<ele>128.399</ele>
<time>2024-05-11T12:25:48Z</time>
</trkpt>
<trkpt lat="49.76021574810147" lon="9.516673050820827">
<ele>128.399</ele>
<time>2024-05-11T12:25:50Z</time>
</trkpt>
<trkpt lat="49.7602195199579" lon="9.516673050820827">
<ele>128.399</ele>
<time>2024-05-11T12:25:52Z</time>
</trkpt>
<trkpt lat="49.76022337563336" lon="9.51667020097375">
<ele>128.399</ele>
<time>2024-05-11T12:25:53Z</time>
</trkpt>
<trkpt lat="49.760227147489786" lon="9.51667020097375">
<ele>128.399</ele>
<time>2024-05-11T12:25:54Z</time>
</trkpt>
<trkpt lat="49.76023477502167" lon="9.51666827313602">
<ele>128.399</ele>
<time>2024-05-11T12:25:55Z</time>
</trkpt>
<trkpt lat="49.76023863069713" lon="9.51666634529829">
<ele>128.399</ele>
<time>2024-05-11T12:25:56Z</time>
</trkpt>
<trkpt lat="49.76025003008544" lon="9.516664501279593">
<ele>128.399</ele>
<time>2024-05-11T12:25:57Z</time>
</trkpt>
<trkpt lat="49.76025765761733" lon="9.516663495451212">
<ele>128.399</ele>
<time>2024-05-11T12:25:58Z</time>
</trkpt>
<trkpt lat="49.76026151329279" lon="9.516664501279593">
<ele>128.399</ele>
<time>2024-05-11T12:25:59Z</time>
</trkpt>
<trkpt lat="49.76026528514922" lon="9.516664501279593">
<ele>128.399</ele>
<time>2024-05-11T12:26:00Z</time>
</trkpt>
<trkpt lat="49.7602729126811" lon="9.516664501279593">
<ele>128.399</ele>
<time>2024-05-11T12:26:01Z</time>
</trkpt>
<trkpt lat="49.76028054021299" lon="9.516658717766404">
<ele>128.399</ele>
<time>2024-05-11T12:26:02Z</time>
</trkpt>
<trkpt lat="49.760288167744875" lon="9.516654945909975">
<ele>128.399</ele>
<time>2024-05-11T12:26:03Z</time>
</trkpt>
<trkpt lat="49.76029579527676" lon="9.5166520960629">
<ele>128.399</ele>
<time>2024-05-11T12:26:04Z</time>
</trkpt>
<trkpt lat="49.76030342280865" lon="9.51664539054036">
<ele>128.399</ele>
<time>2024-05-11T12:26:05Z</time>
</trkpt>
<trkpt lat="49.760307278484106" lon="9.516643462702632">
<ele>128.399</ele>
<time>2024-05-11T12:26:06Z</time>
</trkpt>
<trkpt lat="49.76031105034053" lon="9.516636840999126">
<ele>128.2</ele>
<time>2024-05-11T12:26:07Z</time>
</trkpt>
<trkpt lat="49.76031490601599" lon="9.51663206331432">
<ele>128.2</ele>
<time>2024-05-11T12:26:08Z</time>
</trkpt>
<trkpt lat="49.76032253354788" lon="9.51662820763886">
<ele>128.2</ele>
<time>2024-05-11T12:26:09Z</time>
</trkpt>
<trkpt lat="49.760326305404305" lon="9.51662627980113">
<ele>128.2</ele>
<time>2024-05-11T12:26:10Z</time>
</trkpt>
<trkpt lat="49.76033393293619" lon="9.51662535779178">
<ele>128</ele>
<time>2024-05-11T12:26:11Z</time>
</trkpt>
<trkpt lat="49.76034164428711" lon="9.516621585935354">
<ele>128</ele>
<time>2024-05-11T12:26:12Z</time>
</trkpt>
<trkpt lat="49.760349271818995" lon="9.516614880412815">
<ele>128</ele>
<time>2024-05-11T12:26:13Z</time>
</trkpt>
<trkpt lat="49.76035304367542" lon="9.516601553186774">
<ele>128</ele>
<time>2024-05-11T12:26:14Z</time>
</trkpt>
<trkpt lat="49.76036452688277" lon="9.51659199781716">
<ele>128</ele>
<time>2024-05-11T12:26:15Z</time>
</trkpt>
<trkpt lat="49.760372154414654" lon="9.516583364456892">
<ele>128</ele>
<time>2024-05-11T12:26:16Z</time>
</trkpt>
<trkpt lat="49.76037978194654" lon="9.516576742753386">
<ele>128</ele>
<time>2024-05-11T12:26:17Z</time>
</trkpt>
<trkpt lat="49.760387409478426" lon="9.516574814915655">
<ele>128</ele>
<time>2024-05-11T12:26:18Z</time>
</trkpt>
<trkpt lat="49.76039880886674" lon="9.51656810939312">
<ele>128</ele>
<time>2024-05-11T12:26:19Z</time>
</trkpt>
<trkpt lat="49.76041029207408" lon="9.516558637842536">
<ele>128</ele>
<time>2024-05-11T12:26:20Z</time>
</trkpt>
<trkpt lat="49.7604216914624" lon="9.516556710004808">
<ele>128</ele>
<time>2024-05-11T12:26:21Z</time>
</trkpt>
<trkpt lat="49.76042554713786" lon="9.516552854329348">
<ele>128</ele>
<time>2024-05-11T12:26:22Z</time>
</trkpt>
<trkpt lat="49.76043694652617" lon="9.516558637842536">
<ele>128</ele>
<time>2024-05-11T12:26:23Z</time>
</trkpt>
<trkpt lat="49.7604560572654" lon="9.51655000448227">
<ele>128</ele>
<time>2024-05-11T12:26:24Z</time>
</trkpt>
<trkpt lat="49.76046368479729" lon="9.516541454941034">
<ele>128</ele>
<time>2024-05-11T12:26:25Z</time>
</trkpt>
<trkpt lat="49.76047131232917" lon="9.516538605093956">
<ele>128</ele>
<time>2024-05-11T12:26:26Z</time>
</trkpt>
<trkpt lat="49.76047893986106" lon="9.51653189957142">
<ele>128</ele>
<time>2024-05-11T12:26:27Z</time>
</trkpt>
<trkpt lat="49.760486567392945" lon="9.51652997173369">
<ele>127.8</ele>
<time>2024-05-11T12:26:28Z</time>
</trkpt>
<trkpt lat="49.76049419492483" lon="9.516532821580768">
<ele>127.8</ele>
<time>2024-05-11T12:26:29Z</time>
</trkpt>
<trkpt lat="49.76050182245672" lon="9.516523350030184">
<ele>127.8</ele>
<time>2024-05-11T12:26:30Z</time>
</trkpt>
<trkpt lat="49.76051707752049" lon="9.516494683921335">
<ele>128</ele>
<time>2024-05-11T12:26:31Z</time>
</trkpt>
<trkpt lat="49.760524705052376" lon="9.51648990623653">
<ele>128</ele>
<time>2024-05-11T12:26:32Z</time>
</trkpt>
<trkpt lat="49.76053996011615" lon="9.516485212370752">
<ele>128.2</ele>
<time>2024-05-11T12:26:33Z</time>
</trkpt>
<trkpt lat="49.76053996011615" lon="9.516488062217832">
<ele>128.2</ele>
<time>2024-05-11T12:26:34Z</time>
</trkpt>
<trkpt lat="49.76055907085538" lon="9.51649283990264">
<ele>128.399</ele>
<time>2024-05-11T12:26:35Z</time>
</trkpt>
<trkpt lat="49.760566698387265" lon="9.516488062217832">
<ele>128.399</ele>
<time>2024-05-11T12:26:36Z</time>
</trkpt>
<trkpt lat="49.760566698387265" lon="9.516453696414828">
<ele>128.399</ele>
<time>2024-05-11T12:26:37Z</time>
</trkpt>
<trkpt lat="49.76057047024369" lon="9.516447996720672">
<ele>128.399</ele>
<time>2024-05-11T12:26:38Z</time>
</trkpt>
<trkpt lat="49.76057809777558" lon="9.516443219035864">
<ele>128.2</ele>
<time>2024-05-11T12:26:39Z</time>
</trkpt>
<trkpt lat="49.76058195345104" lon="9.516425114125012">
<ele>128.2</ele>
<time>2024-05-11T12:26:40Z</time>
</trkpt>
<trkpt lat="49.760585725307465" lon="9.516416480764748">
<ele>128.2</ele>
<time>2024-05-11T12:26:41Z</time>
</trkpt>
<trkpt lat="49.76058958098292" lon="9.516407931223512">
<ele>128</ele>
<time>2024-05-11T12:26:42Z</time>
</trkpt>
<trkpt lat="49.76058958098292" lon="9.516405081376432">
<ele>128</ele>
<time>2024-05-11T12:26:43Z</time>
</trkpt>
<trkpt lat="49.76058958098292" lon="9.516394603997467">
<ele>128</ele>
<time>2024-05-11T12:26:44Z</time>
</trkpt>
<trkpt lat="49.76058958098292" lon="9.516374571248887">
<ele>128</ele>
<time>2024-05-11T12:26:45Z</time>
</trkpt>
<trkpt lat="49.76059335283935" lon="9.516367865726352">
<ele>128</ele>
<time>2024-05-11T12:26:46Z</time>
</trkpt>
<trkpt lat="49.76059720851481" lon="9.516344983130692">
<ele>128</ele>
<time>2024-05-11T12:26:47Z</time>
</trkpt>
<trkpt lat="49.760604836046696" lon="9.51633165590465">
<ele>128.2</ele>
<time>2024-05-11T12:26:48Z</time>
</trkpt>
<trkpt lat="49.76061246357858" lon="9.516315395012498">
<ele>128.2</ele>
<time>2024-05-11T12:26:49Z</time>
</trkpt>
<trkpt lat="49.76062009111047" lon="9.516304917633532">
<ele>128.2</ele>
<time>2024-05-11T12:26:50Z</time>
</trkpt>
<trkpt lat="49.760627718642354" lon="9.516288740560412">
<ele>128.2</ele>
<time>2024-05-11T12:26:51Z</time>
</trkpt>
<trkpt lat="49.760665856301785" lon="9.516224786639214">
<ele>128.2</ele>
<time>2024-05-11T12:26:52Z</time>
</trkpt>
<trkpt lat="49.76067348383367" lon="9.51621531508863">
<ele>128.2</ele>
<time>2024-05-11T12:26:53Z</time>
</trkpt>
<trkpt lat="49.7606772556901" lon="9.516208609566092">
<ele>128.2</ele>
<time>2024-05-11T12:26:54Z</time>
</trkpt>
<trkpt lat="49.760684967041016" lon="9.51620953157544">
<ele>128.2</ele>
<time>2024-05-11T12:26:55Z</time>
</trkpt>
<trkpt lat="49.76070022210479" lon="9.51623626984656">
<ele>128.2</ele>
<time>2024-05-11T12:26:56Z</time>
</trkpt>
<trkpt lat="49.760707849636674" lon="9.51623149216175">
<ele>128.399</ele>
<time>2024-05-11T12:26:57Z</time>
</trkpt>
<trkpt lat="49.760707849636674" lon="9.516222942620516">
<ele>128.399</ele>
<time>2024-05-11T12:26:58Z</time>
</trkpt>
<trkpt lat="49.7607116214931" lon="9.516224786639214">
<ele>128.2</ele>
<time>2024-05-11T12:26:59Z</time>
</trkpt>
<trkpt lat="49.76071924902499" lon="9.516222942620516">
<ele>128.2</ele>
<time>2024-05-11T12:27:00Z</time>
</trkpt>
<trkpt lat="49.76072687655687" lon="9.516228642314672">
<ele>128</ele>
<time>2024-05-11T12:27:01Z</time>
</trkpt>
<trkpt lat="49.760742131620646" lon="9.516222942620516">
<ele>128</ele>
<time>2024-05-11T12:27:02Z</time>
</trkpt>
<trkpt lat="49.76075361482799" lon="9.516220092773438">
<ele>128</ele>
<time>2024-05-11T12:27:03Z</time>
</trkpt>
<trkpt lat="49.760765014216304" lon="9.516222942620516">
<ele>128.2</ele>
<time>2024-05-11T12:27:04Z</time>
</trkpt>
<trkpt lat="49.76077649742365" lon="9.51623149216175">
<ele>128.2</ele>
<time>2024-05-11T12:27:05Z</time>
</trkpt>
<trkpt lat="49.76078789681196" lon="9.516221936792135">
<ele>128.2</ele>
<time>2024-05-11T12:27:06Z</time>
</trkpt>
<trkpt lat="49.76079552434385" lon="9.51620953157544">
<ele>128.2</ele>
<time>2024-05-11T12:27:07Z</time>
</trkpt>
<trkpt lat="49.760803151875734" lon="9.51621145941317">
<ele>128</ele>
<time>2024-05-11T12:27:08Z</time>
</trkpt>
<trkpt lat="49.76081463508308" lon="9.5162133872509">
<ele>128</ele>
<time>2024-05-11T12:27:09Z</time>
</trkpt>
<trkpt lat="49.760822262614965" lon="9.51621145941317">
<ele>128</ele>
<time>2024-05-11T12:27:10Z</time>
</trkpt>
<trkpt lat="49.76083751767874" lon="9.51620953157544">
<ele>128</ele>
<time>2024-05-11T12:27:11Z</time>
</trkpt>
<trkpt lat="49.760841289535165" lon="9.51621531508863">
<ele>128</ele>
<time>2024-05-11T12:27:12Z</time>
</trkpt>
<trkpt lat="49.760845145210624" lon="9.516201904043555">
<ele>128</ele>
<time>2024-05-11T12:27:13Z</time>
</trkpt>
<trkpt lat="49.76085662841797" lon="9.516202909871936">
<ele>127.8</ele>
<time>2024-05-11T12:27:14Z</time>
</trkpt>
<trkpt lat="49.760864255949855" lon="9.516201904043555">
<ele>127.8</ele>
<time>2024-05-11T12:27:15Z</time>
</trkpt>
<trkpt lat="49.76087951101363" lon="9.5161962043494">
<ele>127.8</ele>
<time>2024-05-11T12:27:16Z</time>
</trkpt>
<trkpt lat="49.76089091040194" lon="9.51618949882686">
<ele>127.6</ele>
<time>2024-05-11T12:27:17Z</time>
</trkpt>
<trkpt lat="49.7608947660774" lon="9.516170471906662">
<ele>127.6</ele>
<time>2024-05-11T12:27:18Z</time>
</trkpt>
<trkpt lat="49.760898537933826" lon="9.516168544068933">
<ele>127.6</ele>
<time>2024-05-11T12:27:19Z</time>
</trkpt>
<trkpt lat="49.76090616546571" lon="9.516162844374776">
<ele>127.6</ele>
<time>2024-05-11T12:27:20Z</time>
</trkpt>
<trkpt lat="49.76091002114117" lon="9.516166616231205">
<ele>127.6</ele>
<time>2024-05-11T12:27:21Z</time>
</trkpt>
<trkpt lat="49.7609137929976" lon="9.516164772212504">
<ele>127.6</ele>
<time>2024-05-11T12:27:22Z</time>
</trkpt>
<trkpt lat="49.76091764867306" lon="9.516168544068933">
<ele>127.6</ele>
<time>2024-05-11T12:27:23Z</time>
</trkpt>
<trkpt lat="49.760921420529485" lon="9.516166616231205">
<ele>127.6</ele>
<time>2024-05-11T12:27:24Z</time>
</trkpt>
<trkpt lat="49.76093290373683" lon="9.516159994527698">
<ele>127.6</ele>
<time>2024-05-11T12:27:25Z</time>
</trkpt>
<trkpt lat="49.76094430312514" lon="9.51615521684289">
<ele>127.8</ele>
<time>2024-05-11T12:27:26Z</time>
</trkpt>
<trkpt lat="49.76095578633249" lon="9.516138033941388">
<ele>127.8</ele>
<time>2024-05-11T12:27:27Z</time>
</trkpt>
<trkpt lat="49.760963413864374" lon="9.516128478571773">
<ele>128</ele>
<time>2024-05-11T12:27:28Z</time>
</trkpt>
<trkpt lat="49.76097481325269" lon="9.516121856868269">
<ele>128</ele>
<time>2024-05-11T12:27:29Z</time>
</trkpt>
<trkpt lat="49.76099392399192" lon="9.516111295670273">
<ele>128</ele>
<time>2024-05-11T12:27:30Z</time>
</trkpt>
<trkpt lat="49.760997695848346" lon="9.516104673966764">
<ele>128.2</ele>
<time>2024-05-11T12:27:31Z</time>
</trkpt>
<trkpt lat="49.76101295091212" lon="9.516090340912342">
<ele>128.2</ele>
<time>2024-05-11T12:27:32Z</time>
</trkpt>
<trkpt lat="49.76101680658758" lon="9.51607508584857">
<ele>128.2</ele>
<time>2024-05-11T12:27:33Z</time>
</trkpt>
<trkpt lat="49.76102828979492" lon="9.516057902947068">
<ele>128.2</ele>
<time>2024-05-11T12:27:34Z</time>
</trkpt>
<trkpt lat="49.76103591732681" lon="9.516050275415182">
<ele>128.2</ele>
<time>2024-05-11T12:27:35Z</time>
</trkpt>
<trkpt lat="49.76104731671512" lon="9.516017837449908">
<ele>128.2</ele>
<time>2024-05-11T12:27:36Z</time>
</trkpt>
<trkpt lat="49.761039689183235" lon="9.516030242666602">
<ele>128.399</ele>
<time>2024-05-11T12:27:37Z</time>
</trkpt>
<trkpt lat="49.76104731671512" lon="9.516026470810177">
<ele>128.399</ele>
<time>2024-05-11T12:27:38Z</time>
</trkpt>
<trkpt lat="49.76104731671512" lon="9.51603309251368">
<ele>128.399</ele>
<time>2024-05-11T12:27:39Z</time>
</trkpt>
<trkpt lat="49.76105117239058" lon="9.516024542972444">
<ele>128.399</ele>
<time>2024-05-11T12:27:40Z</time>
</trkpt>
<trkpt lat="49.761039689183235" lon="9.516011215746405">
<ele>128.399</ele>
<time>2024-05-11T12:27:41Z</time>
</trkpt>
<trkpt lat="49.76102828979492" lon="9.515999732539058">
<ele>128.399</ele>
<time>2024-05-11T12:27:42Z</time>
</trkpt>
<trkpt lat="49.76102443411946" lon="9.51599688269198">
<ele>128.399</ele>
<time>2024-05-11T12:27:43Z</time>
</trkpt>
<trkpt lat="49.76102443411946" lon="9.515990177169442">
<ele>128.2</ele>
<time>2024-05-11T12:27:44Z</time>
</trkpt>
<trkpt lat="49.761020578444" lon="9.515979699790478">
<ele>128.2</ele>
<time>2024-05-11T12:27:45Z</time>
</trkpt>
<trkpt lat="49.76101295091212" lon="9.515964444726706">
<ele>128</ele>
<time>2024-05-11T12:27:46Z</time>
</trkpt>
<trkpt lat="49.761001551523805" lon="9.515933012589812">
<ele>128</ele>
<time>2024-05-11T12:27:47Z</time>
</trkpt>
<trkpt lat="49.761001551523805" lon="9.515911974012852">
<ele>128</ele>
<time>2024-05-11T12:27:48Z</time>
</trkpt>
<trkpt lat="49.761001551523805" lon="9.515914907678962">
<ele>127.8</ele>
<time>2024-05-11T12:27:49Z</time>
</trkpt>
<trkpt lat="49.76099392399192" lon="9.515918679535387">
<ele>127.8</ele>
<time>2024-05-11T12:27:50Z</time>
</trkpt>
<trkpt lat="49.76099006831646" lon="9.515926307067277">
<ele>127.8</ele>
<time>2024-05-11T12:27:51Z</time>
</trkpt>
<trkpt lat="49.76099392399192" lon="9.515932006761432">
<ele>127.8</ele>
<time>2024-05-11T12:27:52Z</time>
</trkpt>
<trkpt lat="49.761001551523805" lon="9.515943489968777">
<ele>127.8</ele>
<time>2024-05-11T12:27:53Z</time>
</trkpt>
<trkpt lat="49.76100532338023" lon="9.515950195491314">
<ele>128</ele>
<time>2024-05-11T12:27:54Z</time>
</trkpt>
<trkpt lat="49.76101680658758" lon="9.515953045338392">
<ele>128.2</ele>
<time>2024-05-11T12:27:55Z</time>
</trkpt>
<trkpt lat="49.76106257177889" lon="9.515946339815857">
<ele>128.399</ele>
<time>2024-05-11T12:27:56Z</time>
</trkpt>
<trkpt lat="49.76107405498624" lon="9.515946339815857">
<ele>128.6</ele>
<time>2024-05-11T12:27:57Z</time>
</trkpt>
<trkpt lat="49.761081682518125" lon="9.515950195491314">
<ele>129</ele>
<time>2024-05-11T12:27:58Z</time>
</trkpt>
<trkpt lat="49.76109308190644" lon="9.515950195491314">
<ele>129.2</ele>
<time>2024-05-11T12:27:59Z</time>
</trkpt>
<trkpt lat="49.76110456511378" lon="9.515948267653584">
<ele>129.399</ele>
<time>2024-05-11T12:28:00Z</time>
</trkpt>
<trkpt lat="49.761115964502096" lon="9.515948267653584">
<ele>129.6</ele>
<time>2024-05-11T12:28:01Z</time>
</trkpt>
<trkpt lat="49.76112744770944" lon="9.515932006761432">
<ele>129.8</ele>
<time>2024-05-11T12:28:02Z</time>
</trkpt>
<trkpt lat="49.76114270277321" lon="9.515921529382467">
<ele>129.8</ele>
<time>2024-05-11T12:28:03Z</time>
</trkpt>
<trkpt lat="49.7611693572253" lon="9.515911974012852">
<ele>130</ele>
<time>2024-05-11T12:28:04Z</time>
</trkpt>
<trkpt lat="49.76118084043264" lon="9.515903424471617">
<ele>130.2</ele>
<time>2024-05-11T12:28:05Z</time>
</trkpt>
<trkpt lat="49.76118846796453" lon="9.515885319560766">
<ele>130.2</ele>
<time>2024-05-11T12:28:06Z</time>
</trkpt>
<trkpt lat="49.761199951171875" lon="9.51587961986661">
<ele>130.2</ele>
<time>2024-05-11T12:28:07Z</time>
</trkpt>
<trkpt lat="49.76120757870376" lon="9.515863358974457">
<ele>130.2</ele>
<time>2024-05-11T12:28:08Z</time>
</trkpt>
<trkpt lat="49.76121135056019" lon="9.515861431136727">
<ele>130.2</ele>
<time>2024-05-11T12:28:09Z</time>
</trkpt>
<trkpt lat="49.76121135056019" lon="9.515854809433222">
<ele>130.2</ele>
<time>2024-05-11T12:28:10Z</time>
</trkpt>
<trkpt lat="49.76121520623565" lon="9.515846176072955">
<ele>130.2</ele>
<time>2024-05-11T12:28:11Z</time>
</trkpt>
<trkpt lat="49.76121520623565" lon="9.515836704522371">
<ele>130</ele>
<time>2024-05-11T12:28:12Z</time>
</trkpt>
<trkpt lat="49.761218978092074" lon="9.515826143324375">
<ele>130</ele>
<time>2024-05-11T12:28:13Z</time>
</trkpt>
<trkpt lat="49.76122283376753" lon="9.515816671773791">
<ele>129.8</ele>
<time>2024-05-11T12:28:14Z</time>
</trkpt>
<trkpt lat="49.76122283376753" lon="9.515805188566446">
<ele>129.8</ele>
<time>2024-05-11T12:28:15Z</time>
</trkpt>
<trkpt lat="49.76122660562396" lon="9.515792783349752">
<ele>129.8</ele>
<time>2024-05-11T12:28:16Z</time>
</trkpt>
<trkpt lat="49.76122660562396" lon="9.51577853411436">
<ele>129.6</ele>
<time>2024-05-11T12:28:17Z</time>
</trkpt>
<trkpt lat="49.76124186068773" lon="9.51576135121286">
<ele>129.6</ele>
<time>2024-05-11T12:28:18Z</time>
</trkpt>
<trkpt lat="49.76125334389508" lon="9.515745090320706">
<ele>129.8</ele>
<time>2024-05-11T12:28:19Z</time>
</trkpt>
<trkpt lat="49.76126474328339" lon="9.515736540779471">
<ele>129.8</ele>
<time>2024-05-11T12:28:20Z</time>
</trkpt>
<trkpt lat="49.76126474328339" lon="9.515726985409856">
<ele>130</ele>
<time>2024-05-11T12:28:21Z</time>
</trkpt>
<trkpt lat="49.76126474328339" lon="9.515713658183811">
<ele>130</ele>
<time>2024-05-11T12:28:22Z</time>
</trkpt>
<trkpt lat="49.76126474328339" lon="9.51570125296712">
<ele>130</ele>
<time>2024-05-11T12:28:23Z</time>
</trkpt>
<trkpt lat="49.76126859895885" lon="9.515696475282311">
<ele>130</ele>
<time>2024-05-11T12:28:24Z</time>
</trkpt>
<trkpt lat="49.76127237081528" lon="9.515689769759774">
<ele>130</ele>
<time>2024-05-11T12:28:25Z</time>
</trkpt>
<trkpt lat="49.76127999834716" lon="9.515686919912696">
<ele>130</ele>
<time>2024-05-11T12:28:26Z</time>
</trkpt>
<trkpt lat="49.76127999834716" lon="9.515683148056269">
<ele>129.8</ele>
<time>2024-05-11T12:28:27Z</time>
</trkpt>
<trkpt lat="49.76128385402262" lon="9.51568122021854">
<ele>129.8</ele>
<time>2024-05-11T12:28:28Z</time>
</trkpt>
<trkpt lat="49.76128385402262" lon="9.51568029820919">
<ele>129.8</ele>
<time>2024-05-11T12:28:29Z</time>
</trkpt>
<trkpt lat="49.76128385402262" lon="9.51568122021854">
<ele>129.6</ele>
<time>2024-05-11T12:28:35Z</time>
</trkpt>
<trkpt lat="49.76128385402262" lon="9.51568029820919">
<ele>129.6</ele>
<time>2024-05-11T12:28:38Z</time>
</trkpt>
<trkpt lat="49.76127999834716" lon="9.51568029820919">
<ele>129.6</ele>
<time>2024-05-11T12:28:39Z</time>
</trkpt>
<trkpt lat="49.76128385402262" lon="9.51568029820919">
<ele>129.6</ele>
<time>2024-05-11T12:28:42Z</time>
</trkpt>
<trkpt lat="49.76127999834716" lon="9.51568029820919">
<ele>129.6</ele>
<time>2024-05-11T12:28:43Z</time>
</trkpt>
<trkpt lat="49.76127999834716" lon="9.51567837037146">
<ele>129.399</ele>
<time>2024-05-11T12:28:44Z</time>
</trkpt>
<trkpt lat="49.76127999834716" lon="9.51568029820919">
<ele>129.399</ele>
<time>2024-05-11T12:28:45Z</time>
</trkpt>
<trkpt lat="49.76128385402262" lon="9.51568029820919">
<ele>129.399</ele>
<time>2024-05-11T12:28:46Z</time>
</trkpt>
<trkpt lat="49.76127999834716" lon="9.51568029820919">
<ele>129.399</ele>
<time>2024-05-11T12:28:47Z</time>
</trkpt>
<trkpt lat="49.76129148155451" lon="9.515683148056269">
<ele>129.399</ele>
<time>2024-05-11T12:28:49Z</time>
</trkpt>
<trkpt lat="49.76130673661828" lon="9.515689769759774">
<ele>129.399</ele>
<time>2024-05-11T12:28:50Z</time>
</trkpt>
<trkpt lat="49.761318136006594" lon="9.515694547444582">
<ele>129.399</ele>
<time>2024-05-11T12:28:51Z</time>
</trkpt>
<trkpt lat="49.761333391070366" lon="9.515696475282311">
<ele>129.399</ele>
<time>2024-05-11T12:28:52Z</time>
</trkpt>
<trkpt lat="49.76134487427771" lon="9.51569840312004">
<ele>129.399</ele>
<time>2024-05-11T12:28:53Z</time>
</trkpt>
<trkpt lat="49.76136012934148" lon="9.515703180804849">
<ele>129.399</ele>
<time>2024-05-11T12:28:54Z</time>
</trkpt>
<trkpt lat="49.761375384405255" lon="9.51570033095777">
<ele>129.399</ele>
<time>2024-05-11T12:28:55Z</time>
</trkpt>
<trkpt lat="49.761398267000914" lon="9.51569840312004">
<ele>129.399</ele>
<time>2024-05-11T12:28:56Z</time>
</trkpt>
<trkpt lat="49.76142500527203" lon="9.515693625435231">
<ele>129.399</ele>
<time>2024-05-11T12:28:57Z</time>
</trkpt>
<trkpt lat="49.76144403219223" lon="9.51568122021854">
<ele>129.6</ele>
<time>2024-05-11T12:28:58Z</time>
</trkpt>
<trkpt lat="49.76146691478789" lon="9.515669820830226">
<ele>129.8</ele>
<time>2024-05-11T12:28:59Z</time>
</trkpt>
<trkpt lat="49.76148979738355" lon="9.515663115307689">
<ele>129.8</ele>
<time>2024-05-11T12:29:00Z</time>
</trkpt>
<trkpt lat="49.761512679979205" lon="9.515656409785151">
<ele>130</ele>
<time>2024-05-11T12:29:01Z</time>
</trkpt>
<trkpt lat="49.76153179071843" lon="9.515649788081646">
<ele>130.2</ele>
<time>2024-05-11T12:29:02Z</time>
</trkpt>
<trkpt lat="49.76154327392578" lon="9.515629755333066">
<ele>130.399</ele>
<time>2024-05-11T12:29:03Z</time>
</trkpt>
<trkpt lat="49.76155852898955" lon="9.515611566603184">
<ele>130.6</ele>
<time>2024-05-11T12:29:04Z</time>
</trkpt>
<trkpt lat="49.76156992837787" lon="9.515586839988828">
<ele>130.8</ele>
<time>2024-05-11T12:29:05Z</time>
</trkpt>
<trkpt lat="49.76158141158521" lon="9.515556329861283">
<ele>130.8</ele>
<time>2024-05-11T12:29:06Z</time>
</trkpt>
<trkpt lat="49.7615890391171" lon="9.515524813905358">
<ele>131</ele>
<time>2024-05-11T12:29:07Z</time>
</trkpt>
<trkpt lat="49.76160043850541" lon="9.515495225787165">
<ele>131</ele>
<time>2024-05-11T12:29:08Z</time>
</trkpt>
<trkpt lat="49.7616080660373" lon="9.51546287164092">
<ele>131.2</ele>
<time>2024-05-11T12:29:09Z</time>
</trkpt>
<trkpt lat="49.76161954924464" lon="9.515426578000188">
<ele>131.2</ele>
<time>2024-05-11T12:29:10Z</time>
</trkpt>
<trkpt lat="49.76162717677653" lon="9.515393218025563">
<ele>131.2</ele>
<time>2024-05-11T12:29:11Z</time>
</trkpt>
<trkpt lat="49.761634804308414" lon="9.51536463573575">
<ele>131.2</ele>
<time>2024-05-11T12:29:12Z</time>
</trkpt>
<trkpt lat="49.76165005937219" lon="9.515331191942096">
<ele>131.2</ele>
<time>2024-05-11T12:29:13Z</time>
</trkpt>
<trkpt lat="49.7616614587605" lon="9.515296909958124">
<ele>131.2</ele>
<time>2024-05-11T12:29:14Z</time>
</trkpt>
<trkpt lat="49.76167671382427" lon="9.515256844460964">
<ele>131</ele>
<time>2024-05-11T12:29:15Z</time>
</trkpt>
<trkpt lat="49.7616958245635" lon="9.515213007107375">
<ele>130.6</ele>
<time>2024-05-11T12:29:16Z</time>
</trkpt>
<trkpt lat="49.76171870715916" lon="9.515183418989182">
<ele>130.399</ele>
<time>2024-05-11T12:29:17Z</time>
</trkpt>
<trkpt lat="49.76174544543028" lon="9.515159530565144">
<ele>130.399</ele>
<time>2024-05-11T12:29:18Z</time>
</trkpt>
<trkpt lat="49.76177595555782" lon="9.51514813117683">
<ele>130.2</ele>
<time>2024-05-11T12:29:19Z</time>
</trkpt>
<trkpt lat="49.76180261000991" lon="9.515151903033257">
<ele>130.2</ele>
<time>2024-05-11T12:29:20Z</time>
</trkpt>
<trkpt lat="49.761829348281026" lon="9.515161458402872">
<ele>130.2</ele>
<time>2024-05-11T12:29:21Z</time>
</trkpt>
<trkpt lat="49.76185600273311" lon="9.515183418989182">
<ele>130.2</ele>
<time>2024-05-11T12:29:22Z</time>
</trkpt>
<trkpt lat="49.76188274100423" lon="9.515213007107375">
<ele>130</ele>
<time>2024-05-11T12:29:23Z</time>
</trkpt>
<trkpt lat="49.76190562359989" lon="9.515259694308044">
<ele>130</ele>
<time>2024-05-11T12:29:24Z</time>
</trkpt>
<trkpt lat="49.76193613372743" lon="9.51530453749001">
<ele>130</ele>
<time>2024-05-11T12:29:25Z</time>
</trkpt>
<trkpt lat="49.761966643854976" lon="9.515328342095016">
<ele>130.2</ele>
<time>2024-05-11T12:29:26Z</time>
</trkpt>
<trkpt lat="49.762004781514406" lon="9.515351224690676">
<ele>130.2</ele>
<time>2024-05-11T12:29:27Z</time>
</trkpt>
<trkpt lat="49.762046774849296" lon="9.515375113114716">
<ele>130.2</ele>
<time>2024-05-11T12:29:28Z</time>
</trkpt>
<trkpt lat="49.762088768184185" lon="9.51540369540453">
<ele>130.399</ele>
<time>2024-05-11T12:29:29Z</time>
</trkpt>
<trkpt lat="49.76213067770004" lon="9.515411322936416">
<ele>130.399</ele>
<time>2024-05-11T12:29:30Z</time>
</trkpt>
<trkpt lat="49.762165043503046" lon="9.515413250774143">
<ele>130.399</ele>
<time>2024-05-11T12:29:31Z</time>
</trkpt>
<trkpt lat="49.76219555363059" lon="9.515391290187836">
<ele>130.6</ele>
<time>2024-05-11T12:29:32Z</time>
</trkpt>
<trkpt lat="49.76221843622625" lon="9.515357930213211">
<ele>130.6</ele>
<time>2024-05-11T12:29:33Z</time>
</trkpt>
<trkpt lat="49.762245174497366" lon="9.515317864716051">
<ele>130.8</ele>
<time>2024-05-11T12:29:34Z</time>
</trkpt>
<trkpt lat="49.76227182894945" lon="9.515273021534083">
<ele>130.8</ele>
<time>2024-05-11T12:29:35Z</time>
</trkpt>
<trkpt lat="49.76230233907699" lon="9.51522826217115">
<ele>131</ele>
<time>2024-05-11T12:29:36Z</time>
</trkpt>
<trkpt lat="49.76233284920454" lon="9.515178641304374">
<ele>131</ele>
<time>2024-05-11T12:29:37Z</time>
</trkpt>
<trkpt lat="49.762363359332085" lon="9.51513002626598">
<ele>131</ele>
<time>2024-05-11T12:29:38Z</time>
</trkpt>
<trkpt lat="49.7623900976032" lon="9.515083255246282">
<ele>131.2</ele>
<time>2024-05-11T12:29:39Z</time>
</trkpt>
<trkpt lat="49.762420607730746" lon="9.515040339902043">
<ele>131.2</ele>
<time>2024-05-11T12:29:40Z</time>
</trkpt>
<trkpt lat="49.762443490326405" lon="9.514996502548456">
<ele>131.2</ele>
<time>2024-05-11T12:29:41Z</time>
</trkpt>
<trkpt lat="49.76247022859752" lon="9.514954509213569">
<ele>131.2</ele>
<time>2024-05-11T12:29:42Z</time>
</trkpt>
<trkpt lat="49.76249688304961" lon="9.5149096660316">
<ele>131.2</ele>
<time>2024-05-11T12:29:43Z</time>
</trkpt>
<trkpt lat="49.76252362132072" lon="9.51486867852509">
<ele>131.4</ele>
<time>2024-05-11T12:29:44Z</time>
</trkpt>
<trkpt lat="49.76255413144827" lon="9.514833390712738">
<ele>131.4</ele>
<time>2024-05-11T12:29:45Z</time>
</trkpt>
<trkpt lat="49.762580869719386" lon="9.514806736260653">
<ele>131.4</ele>
<time>2024-05-11T12:29:46Z</time>
</trkpt>
<trkpt lat="49.762599896639585" lon="9.514779997989535">
<ele>131.2</ele>
<time>2024-05-11T12:29:47Z</time>
</trkpt>
<trkpt lat="49.76261515170336" lon="9.514757115393875">
<ele>131.2</ele>
<time>2024-05-11T12:29:48Z</time>
</trkpt>
<trkpt lat="49.76263426244259" lon="9.514744710177183">
<ele>131</ele>
<time>2024-05-11T12:29:49Z</time>
</trkpt>
<trkpt lat="49.7626456618309" lon="9.514741860330105">
<ele>131</ele>
<time>2024-05-11T12:29:50Z</time>
</trkpt>
<trkpt lat="49.76265714503825" lon="9.51473138295114">
<ele>130.8</ele>
<time>2024-05-11T12:29:51Z</time>
</trkpt>
<trkpt lat="49.76266477257013" lon="9.514721827581525">
<ele>130.8</ele>
<time>2024-05-11T12:29:52Z</time>
</trkpt>
<trkpt lat="49.76266854442656" lon="9.51471327804029">
<ele>130.6</ele>
<time>2024-05-11T12:29:53Z</time>
</trkpt>
<trkpt lat="49.76267240010202" lon="9.51471034437418">
<ele>130.6</ele>
<time>2024-05-11T12:29:54Z</time>
</trkpt>
<trkpt lat="49.76267617195845" lon="9.514708500355482">
<ele>130.6</ele>
<time>2024-05-11T12:29:55Z</time>
</trkpt>
<trkpt lat="49.762680027633905" lon="9.514706572517753">
<ele>130.6</ele>
<time>2024-05-11T12:29:56Z</time>
</trkpt>
<trkpt lat="49.762680027633905" lon="9.514703722670674">
<ele>130.6</ele>
<time>2024-05-11T12:29:57Z</time>
</trkpt>
<trkpt lat="49.76268379949033" lon="9.514706572517753">
<ele>130.6</ele>
<time>2024-05-11T12:29:58Z</time>
</trkpt>
<trkpt lat="49.76268379949033" lon="9.514708500355482">
<ele>130.8</ele>
<time>2024-05-11T12:30:00Z</time>
</trkpt>
<trkpt lat="49.76268379949033" lon="9.514706572517753">
<ele>130.8</ele>
<time>2024-05-11T12:30:01Z</time>
</trkpt>
<trkpt lat="49.76268765516579" lon="9.514704644680023">
<ele>130.8</ele>
<time>2024-05-11T12:30:02Z</time>
</trkpt>
<trkpt lat="49.76268765516579" lon="9.514706572517753">
<ele>130.8</ele>
<time>2024-05-11T12:30:05Z</time>
</trkpt>
<trkpt lat="49.76269142702222" lon="9.514708500355482">
<ele>130.8</ele>
<time>2024-05-11T12:30:09Z</time>
</trkpt>
<trkpt lat="49.76269142702222" lon="9.514706572517753">
<ele>130.8</ele>
<time>2024-05-11T12:30:11Z</time>
</trkpt>
<trkpt lat="49.76269142702222" lon="9.514704644680023">
<ele>130.8</ele>
<time>2024-05-11T12:30:13Z</time>
</trkpt>
<trkpt lat="49.76269142702222" lon="9.514703722670674">
<ele>130.6</ele>
<time>2024-05-11T12:30:15Z</time>
</trkpt>
<trkpt lat="49.76269528269768" lon="9.514701794832945">
<ele>130.6</ele>
<time>2024-05-11T12:30:16Z</time>
</trkpt>
<trkpt lat="49.76269142702222" lon="9.514699866995215">
<ele>130.6</ele>
<time>2024-05-11T12:30:17Z</time>
</trkpt>
<trkpt lat="49.76269528269768" lon="9.514699866995215">
<ele>130.6</ele>
<time>2024-05-11T12:30:18Z</time>
</trkpt>
<trkpt lat="49.76269142702222" lon="9.514699866995215">
<ele>130.399</ele>
<time>2024-05-11T12:30:23Z</time>
</trkpt>
<trkpt lat="49.76269142702222" lon="9.514698022976518">
<ele>130.399</ele>
<time>2024-05-11T12:30:24Z</time>
</trkpt>
<trkpt lat="49.76269142702222" lon="9.514699866995215">
<ele>130.399</ele>
<time>2024-05-11T12:30:30Z</time>
</trkpt>
<trkpt lat="49.76269142702222" lon="9.514698022976518">
<ele>130.399</ele>
<time>2024-05-11T12:30:31Z</time>
</trkpt>
<trkpt lat="49.76269142702222" lon="9.514697017148135">
<ele>130.399</ele>
<time>2024-05-11T12:30:32Z</time>
</trkpt>
<trkpt lat="49.76269528269768" lon="9.514697017148135">
<ele>130.399</ele>
<time>2024-05-11T12:30:35Z</time>
</trkpt>
<trkpt lat="49.762699054554105" lon="9.514698022976518">
<ele>130.6</ele>
<time>2024-05-11T12:30:41Z</time>
</trkpt>
<trkpt lat="49.762699054554105" lon="9.514697017148135">
<ele>130.6</ele>
<time>2024-05-11T12:30:42Z</time>
</trkpt>
<trkpt lat="49.76269528269768" lon="9.514697017148135">
<ele>130.6</ele>
<time>2024-05-11T12:30:43Z</time>
</trkpt>
<trkpt lat="49.76269528269768" lon="9.51469131745398">
<ele>130.6</ele>
<time>2024-05-11T12:30:44Z</time>
</trkpt>
<trkpt lat="49.76269528269768" lon="9.514697017148135">
<ele>130.6</ele>
<time>2024-05-11T12:30:46Z</time>
</trkpt>
<trkpt lat="49.76269528269768" lon="9.514701794832945">
<ele>130.399</ele>
<time>2024-05-11T12:30:47Z</time>
</trkpt>
<trkpt lat="49.76269528269768" lon="9.514699866995215">
<ele>130.399</ele>
<time>2024-05-11T12:30:48Z</time>
</trkpt>
<trkpt lat="49.76269528269768" lon="9.514701794832945">
<ele>130.399</ele>
<time>2024-05-11T12:30:49Z</time>
</trkpt>
<trkpt lat="49.76269528269768" lon="9.514703722670674">
<ele>130.399</ele>
<time>2024-05-11T12:30:52Z</time>
</trkpt>
<trkpt lat="49.76269528269768" lon="9.514704644680023">
<ele>130</ele>
<time>2024-05-11T12:30:54Z</time>
</trkpt>
<trkpt lat="49.76269528269768" lon="9.514706572517753">
<ele>129.6</ele>
<time>2024-05-11T12:30:56Z</time>
</trkpt>
<trkpt lat="49.76269528269768" lon="9.514704644680023">
<ele>129.6</ele>
<time>2024-05-11T12:30:57Z</time>
</trkpt>
<trkpt lat="49.76269528269768" lon="9.514706572517753">
<ele>129.399</ele>
<time>2024-05-11T12:31:00Z</time>
</trkpt>
<trkpt lat="49.76269142702222" lon="9.514706572517753">
<ele>129.399</ele>
<time>2024-05-11T12:31:03Z</time>
</trkpt>
<trkpt lat="49.76269142702222" lon="9.514708500355482">
<ele>129.399</ele>
<time>2024-05-11T12:31:09Z</time>
</trkpt>
<trkpt lat="49.76269142702222" lon="9.514706572517753">
<ele>129.6</ele>
<time>2024-05-11T12:31:13Z</time>
</trkpt>
<trkpt lat="49.76269142702222" lon="9.514708500355482">
<ele>129.6</ele>
<time>2024-05-11T12:31:15Z</time>
</trkpt>
<trkpt lat="49.76269528269768" lon="9.514708500355482">
<ele>129.8</ele>
<time>2024-05-11T12:31:16Z</time>
</trkpt>
<trkpt lat="49.76269142702222" lon="9.514706572517753">
<ele>130</ele>
<time>2024-05-11T12:31:17Z</time>
</trkpt>
<trkpt lat="49.76269528269768" lon="9.514708500355482">
<ele>130</ele>
<time>2024-05-11T12:31:18Z</time>
</trkpt>
<trkpt lat="49.76269528269768" lon="9.514706572517753">
<ele>130</ele>
<time>2024-05-11T12:31:19Z</time>
</trkpt>
<trkpt lat="49.76269528269768" lon="9.514704644680023">
<ele>130</ele>
<time>2024-05-11T12:31:21Z</time>
</trkpt>
<trkpt lat="49.762699054554105" lon="9.514704644680023">
<ele>130</ele>
<time>2024-05-11T12:31:23Z</time>
</trkpt>
<trkpt lat="49.762699054554105" lon="9.514703722670674">
<ele>130</ele>
<time>2024-05-11T12:31:35Z</time>
</trkpt>
<trkpt lat="49.76269528269768" lon="9.514701794832945">
<ele>130</ele>
<time>2024-05-11T12:31:40Z</time>
</trkpt>
<trkpt lat="49.76269528269768" lon="9.514699866995215">
<ele>130</ele>
<time>2024-05-11T12:31:44Z</time>
</trkpt>
<trkpt lat="49.76269528269768" lon="9.514701794832945">
<ele>130</ele>
<time>2024-05-11T12:31:45Z</time>
</trkpt>
<trkpt lat="49.76269528269768" lon="9.514699866995215">
<ele>130</ele>
<time>2024-05-11T12:31:51Z</time>
</trkpt>
<trkpt lat="49.76269528269768" lon="9.514701794832945">
<ele>130</ele>
<time>2024-05-11T12:31:53Z</time>
</trkpt>
<trkpt lat="49.76269528269768" lon="9.514703722670674">
<ele>130</ele>
<time>2024-05-11T12:31:54Z</time>
</trkpt>
<trkpt lat="49.76269528269768" lon="9.514704644680023">
<ele>130</ele>
<time>2024-05-11T12:31:56Z</time>
</trkpt>
<trkpt lat="49.76269528269768" lon="9.514706572517753">
<ele>130</ele>
<time>2024-05-11T12:31:57Z</time>
</trkpt>
<trkpt lat="49.76269528269768" lon="9.514708500355482">
<ele>130</ele>
<time>2024-05-11T12:31:59Z</time>
</trkpt>
<trkpt lat="49.76269528269768" lon="9.51471034437418">
<ele>130</ele>
<time>2024-05-11T12:32:01Z</time>
</trkpt>
<trkpt lat="49.76269142702222" lon="9.51471034437418">
<ele>130</ele>
<time>2024-05-11T12:32:02Z</time>
</trkpt>
<trkpt lat="49.76269142702222" lon="9.51471135020256">
<ele>130.2</ele>
<time>2024-05-11T12:32:04Z</time>
</trkpt>
<trkpt lat="49.76269142702222" lon="9.51471327804029">
<ele>130.2</ele>
<time>2024-05-11T12:32:09Z</time>
</trkpt>
<trkpt lat="49.76269142702222" lon="9.514715122058988">
<ele>130.399</ele>
<time>2024-05-11T12:32:19Z</time>
</trkpt>
<trkpt lat="49.76269142702222" lon="9.514717049896715">
<ele>130.399</ele>
<time>2024-05-11T12:32:21Z</time>
</trkpt>
<trkpt lat="49.76269142702222" lon="9.514718055725098">
<ele>130.6</ele>
<time>2024-05-11T12:32:23Z</time>
</trkpt>
<trkpt lat="49.76268765516579" lon="9.514719899743795">
<ele>130.6</ele>
<time>2024-05-11T12:32:25Z</time>
</trkpt>
<trkpt lat="49.76269142702222" lon="9.514719899743795">
<ele>130.6</ele>
<time>2024-05-11T12:32:29Z</time>
</trkpt>
<trkpt lat="49.76269142702222" lon="9.514721827581525">
<ele>130.6</ele>
<time>2024-05-11T12:32:30Z</time>
</trkpt>
<trkpt lat="49.76268765516579" lon="9.514719899743795">
<ele>130.8</ele>
<time>2024-05-11T12:32:32Z</time>
</trkpt>
<trkpt lat="49.76268765516579" lon="9.514718055725098">
<ele>130.8</ele>
<time>2024-05-11T12:32:38Z</time>
</trkpt>
<trkpt lat="49.76268765516579" lon="9.514717049896715">
<ele>130.8</ele>
<time>2024-05-11T12:32:41Z</time>
</trkpt>
<trkpt lat="49.76268765516579" lon="9.514718055725098">
<ele>130.6</ele>
<time>2024-05-11T12:32:44Z</time>
</trkpt>
<trkpt lat="49.76268765516579" lon="9.514717049896715">
<ele>130.6</ele>
<time>2024-05-11T12:32:47Z</time>
</trkpt>
<trkpt lat="49.76268765516579" lon="9.514718055725098">
<ele>130.6</ele>
<time>2024-05-11T12:32:48Z</time>
</trkpt>
<trkpt lat="49.76268379949033" lon="9.514718055725098">
<ele>130.399</ele>
<time>2024-05-11T12:32:49Z</time>
</trkpt>
<trkpt lat="49.76268379949033" lon="9.514719899743795">
<ele>130.399</ele>
<time>2024-05-11T12:32:52Z</time>
</trkpt>
<trkpt lat="49.76268379949033" lon="9.514721827581525">
<ele>130.399</ele>
<time>2024-05-11T12:32:54Z</time>
</trkpt>
<trkpt lat="49.76268379949033" lon="9.514723755419254">
<ele>130.399</ele>
<time>2024-05-11T12:32:56Z</time>
</trkpt>
<trkpt lat="49.76268379949033" lon="9.514724677428603">
<ele>130.399</ele>
<time>2024-05-11T12:33:01Z</time>
</trkpt>
<trkpt lat="49.76268379949033" lon="9.514726605266333">
<ele>130.399</ele>
<time>2024-05-11T12:33:02Z</time>
</trkpt>
<trkpt lat="49.76268379949033" lon="9.514723755419254">
<ele>130.2</ele>
<time>2024-05-11T12:33:05Z</time>
</trkpt>
<trkpt lat="49.76268765516579" lon="9.514721827581525">
<ele>130.2</ele>
<time>2024-05-11T12:33:06Z</time>
</trkpt>
<trkpt lat="49.76268379949033" lon="9.514721827581525">
<ele>130.2</ele>
<time>2024-05-11T12:33:08Z</time>
</trkpt>
<trkpt lat="49.76268379949033" lon="9.514719899743795">
<ele>130.2</ele>
<time>2024-05-11T12:33:12Z</time>
</trkpt>
<trkpt lat="49.76268379949033" lon="9.514718055725098">
<ele>130.2</ele>
<time>2024-05-11T12:33:14Z</time>
</trkpt>
<trkpt lat="49.76268379949033" lon="9.514717049896715">
<ele>130</ele>
<time>2024-05-11T12:33:18Z</time>
</trkpt>
<trkpt lat="49.76268379949033" lon="9.514718055725098">
<ele>130.2</ele>
<time>2024-05-11T12:33:20Z</time>
</trkpt>
<trkpt lat="49.76268379949033" lon="9.51471327804029">
<ele>130.2</ele>
<time>2024-05-11T12:33:22Z</time>
</trkpt>
<trkpt lat="49.762680027633905" lon="9.51471034437418">
<ele>130.2</ele>
<time>2024-05-11T12:33:23Z</time>
</trkpt>
<trkpt lat="49.76267617195845" lon="9.514706572517753">
<ele>130.2</ele>
<time>2024-05-11T12:33:24Z</time>
</trkpt>
<trkpt lat="49.76267617195845" lon="9.514701794832945">
<ele>130.2</ele>
<time>2024-05-11T12:33:25Z</time>
</trkpt>
<trkpt lat="49.76267240010202" lon="9.514701794832945">
<ele>130.2</ele>
<time>2024-05-11T12:33:26Z</time>
</trkpt>
<trkpt lat="49.76267240010202" lon="9.514698022976518">
<ele>130.2</ele>
<time>2024-05-11T12:33:27Z</time>
</trkpt>
<trkpt lat="49.76266854442656" lon="9.514697017148135">
<ele>130.2</ele>
<time>2024-05-11T12:33:28Z</time>
</trkpt>
<trkpt lat="49.76266477257013" lon="9.514697017148135">
<ele>130</ele>
<time>2024-05-11T12:33:29Z</time>
</trkpt>
<trkpt lat="49.76266477257013" lon="9.514698022976518">
<ele>130</ele>
<time>2024-05-11T12:33:31Z</time>
</trkpt>
<trkpt lat="49.76266477257013" lon="9.514699866995215">
<ele>130</ele>
<time>2024-05-11T12:33:32Z</time>
</trkpt>
<trkpt lat="49.762660916894674" lon="9.514698022976518">
<ele>130</ele>
<time>2024-05-11T12:33:33Z</time>
</trkpt>
<trkpt lat="49.762660916894674" lon="9.514701794832945">
<ele>129.8</ele>
<time>2024-05-11T12:33:34Z</time>
</trkpt>
<trkpt lat="49.762660916894674" lon="9.514704644680023">
<ele>129.8</ele>
<time>2024-05-11T12:33:35Z</time>
</trkpt>
<trkpt lat="49.762660916894674" lon="9.51471034437418">
<ele>129.8</ele>
<time>2024-05-11T12:33:36Z</time>
</trkpt>
<trkpt lat="49.762660916894674" lon="9.514708500355482">
<ele>129.8</ele>
<time>2024-05-11T12:33:37Z</time>
</trkpt>
<trkpt lat="49.762660916894674" lon="9.51471034437418">
<ele>129.8</ele>
<time>2024-05-11T12:33:38Z</time>
</trkpt>
<trkpt lat="49.76265714503825" lon="9.51471135020256">
<ele>129.8</ele>
<time>2024-05-11T12:33:39Z</time>
</trkpt>
<trkpt lat="49.76265328936279" lon="9.514718055725098">
<ele>129.8</ele>
<time>2024-05-11T12:33:40Z</time>
</trkpt>
<trkpt lat="49.76265328936279" lon="9.514723755419254">
<ele>129.8</ele>
<time>2024-05-11T12:33:41Z</time>
</trkpt>
<trkpt lat="49.762641889974475" lon="9.51473331078887">
<ele>129.8</ele>
<time>2024-05-11T12:33:42Z</time>
</trkpt>
<trkpt lat="49.76262277923525" lon="9.514749487861993">
<ele>129.8</ele>
<time>2024-05-11T12:33:43Z</time>
</trkpt>
<trkpt lat="49.76260752417147" lon="9.514778070151806">
<ele>129.8</ele>
<time>2024-05-11T12:33:44Z</time>
</trkpt>
<trkpt lat="49.762599896639585" lon="9.51480958610773">
<ele>129.8</ele>
<time>2024-05-11T12:33:45Z</time>
</trkpt>
<trkpt lat="49.76259612478316" lon="9.51482861302793">
<ele>129.8</ele>
<time>2024-05-11T12:33:46Z</time>
</trkpt>
<trkpt lat="49.76258849725127" lon="9.514853423461318">
<ele>129.8</ele>
<time>2024-05-11T12:33:47Z</time>
</trkpt>
<trkpt lat="49.762580869719386" lon="9.51486867852509">
<ele>129.8</ele>
<time>2024-05-11T12:33:48Z</time>
</trkpt>
<trkpt lat="49.762561758980155" lon="9.514880161732435">
<ele>129.8</ele>
<time>2024-05-11T12:33:49Z</time>
</trkpt>
<trkpt lat="49.76254264824093" lon="9.51488678343594">
<ele>129.8</ele>
<time>2024-05-11T12:33:50Z</time>
</trkpt>
<trkpt lat="49.76252362132072" lon="9.514891561120749">
<ele>129.8</ele>
<time>2024-05-11T12:33:51Z</time>
</trkpt>
<trkpt lat="49.76250451058149" lon="9.514900194481015">
<ele>129.8</ele>
<time>2024-05-11T12:33:52Z</time>
</trkpt>
<trkpt lat="49.762481627985835" lon="9.514915449544787">
<ele>129.8</ele>
<time>2024-05-11T12:33:53Z</time>
</trkpt>
<trkpt lat="49.76245874539018" lon="9.514933554455638">
<ele>129.8</ele>
<time>2024-05-11T12:33:54Z</time>
</trkpt>
<trkpt lat="49.76243586279452" lon="9.51494973152876">
<ele>129.8</ele>
<time>2024-05-11T12:33:55Z</time>
</trkpt>
<trkpt lat="49.76241298019886" lon="9.514963142573832">
<ele>129.8</ele>
<time>2024-05-11T12:33:56Z</time>
</trkpt>
<trkpt lat="49.76238247007131" lon="9.514983175322412">
<ele>129.8</ele>
<time>2024-05-11T12:33:57Z</time>
</trkpt>
<trkpt lat="49.7623557318002" lon="9.5150098297745">
<ele>129.8</ele>
<time>2024-05-11T12:33:58Z</time>
</trkpt>
<trkpt lat="49.76233284920454" lon="9.515040339902043">
<ele>129.8</ele>
<time>2024-05-11T12:33:59Z</time>
</trkpt>
<trkpt lat="49.76230996660888" lon="9.51506707817316">
<ele>129.8</ele>
<time>2024-05-11T12:34:00Z</time>
</trkpt>
<trkpt lat="49.76229093968868" lon="9.51508711092174">
<ele>129.8</ele>
<time>2024-05-11T12:34:01Z</time>
</trkpt>
<trkpt lat="49.76227182894945" lon="9.515103287994862">
<ele>129.8</ele>
<time>2024-05-11T12:34:02Z</time>
</trkpt>
<trkpt lat="49.76225657388568" lon="9.515132876113055">
<ele>129.8</ele>
<time>2024-05-11T12:34:03Z</time>
</trkpt>
<trkpt lat="49.76223754696548" lon="9.515158608555794">
<ele>129.8</ele>
<time>2024-05-11T12:34:04Z</time>
</trkpt>
<trkpt lat="49.76221843622625" lon="9.515185346826913">
<ele>129.8</ele>
<time>2024-05-11T12:34:05Z</time>
</trkpt>
<trkpt lat="49.76219932548702" lon="9.515213007107375">
<ele>129.8</ele>
<time>2024-05-11T12:34:06Z</time>
</trkpt>
<trkpt lat="49.76218029856682" lon="9.515239661559464">
<ele>129.8</ele>
<time>2024-05-11T12:34:07Z</time>
</trkpt>
<trkpt lat="49.762165043503046" lon="9.515268243849276">
<ele>129.8</ele>
<time>2024-05-11T12:34:08Z</time>
</trkpt>
<trkpt lat="49.76214216090739" lon="9.515299759805202">
<ele>129.8</ele>
<time>2024-05-11T12:34:09Z</time>
</trkpt>
<trkpt lat="49.76212305016816" lon="9.51532457023859">
<ele>129.8</ele>
<time>2024-05-11T12:34:10Z</time>
</trkpt>
<trkpt lat="49.762107795104384" lon="9.515339825302362">
<ele>129.8</ele>
<time>2024-05-11T12:34:11Z</time>
</trkpt>
<trkpt lat="49.76209254004061" lon="9.515348374843596">
<ele>129.8</ele>
<time>2024-05-11T12:34:12Z</time>
</trkpt>
<trkpt lat="49.7620811406523" lon="9.51534359715879">
<ele>129.8</ele>
<time>2024-05-11T12:34:13Z</time>
</trkpt>
<trkpt lat="49.762069657444954" lon="9.515337897464631">
<ele>129.8</ele>
<time>2024-05-11T12:34:14Z</time>
</trkpt>
<trkpt lat="49.76206202991307" lon="9.515331191942096">
<ele>129.8</ele>
<time>2024-05-11T12:34:15Z</time>
</trkpt>
<trkpt lat="49.762046774849296" lon="9.515333119779823">
<ele>129.8</ele>
<time>2024-05-11T12:34:16Z</time>
</trkpt>
<trkpt lat="49.76204291917384" lon="9.51532457023859">
<ele>129.8</ele>
<time>2024-05-11T12:34:17Z</time>
</trkpt>
<trkpt lat="49.76203151978552" lon="9.515315014868976">
<ele>129.8</ele>
<time>2024-05-11T12:34:18Z</time>
</trkpt>
<trkpt lat="49.76202389225364" lon="9.515301687642932">
<ele>129.8</ele>
<time>2024-05-11T12:34:19Z</time>
</trkpt>
<trkpt lat="49.76201240904629" lon="9.51528358273208">
<ele>129.8</ele>
<time>2024-05-11T12:34:20Z</time>
</trkpt>
<trkpt lat="49.76200100965798" lon="9.515258772298694">
<ele>129.8</ele>
<time>2024-05-11T12:34:21Z</time>
</trkpt>
<trkpt lat="49.76198575459421" lon="9.51524536125362">
<ele>129.8</ele>
<time>2024-05-11T12:34:22Z</time>
</trkpt>
<trkpt lat="49.761966643854976" lon="9.515234883874657">
<ele>129.8</ele>
<time>2024-05-11T12:34:23Z</time>
</trkpt>
<trkpt lat="49.76195524446666" lon="9.51522633433342">
<ele>129.6</ele>
<time>2024-05-11T12:34:24Z</time>
</trkpt>
<trkpt lat="49.76193998940289" lon="9.51522348448634">
<ele>129.6</ele>
<time>2024-05-11T12:34:25Z</time>
</trkpt>
<trkpt lat="49.761928506195545" lon="9.51520345173776">
<ele>129.6</ele>
<time>2024-05-11T12:34:26Z</time>
</trkpt>
<trkpt lat="49.76191325113177" lon="9.5151462033391">
<ele>129.6</ele>
<time>2024-05-11T12:34:27Z</time>
</trkpt>
<trkpt lat="49.76188659667969" lon="9.51510806567967">
<ele>129.6</ele>
<time>2024-05-11T12:34:28Z</time>
</trkpt>
<trkpt lat="49.76185985840857" lon="9.515092810615895">
<ele>129.8</ele>
<time>2024-05-11T12:34:29Z</time>
</trkpt>
<trkpt lat="49.76183697581291" lon="9.515085183084013">
<ele>129.8</ele>
<time>2024-05-11T12:34:30Z</time>
</trkpt>
<trkpt lat="49.761810237541795" lon="9.515083255246282">
<ele>130</ele>
<time>2024-05-11T12:34:31Z</time>
</trkpt>
<trkpt lat="49.76177972741425" lon="9.51508711092174">
<ele>130</ele>
<time>2024-05-11T12:34:32Z</time>
</trkpt>
<trkpt lat="49.761753072962165" lon="9.515091888606548">
<ele>130.2</ele>
<time>2024-05-11T12:34:33Z</time>
</trkpt>
<trkpt lat="49.76173019036651" lon="9.515096582472324">
<ele>130.2</ele>
<time>2024-05-11T12:34:34Z</time>
</trkpt>
<trkpt lat="49.76170722395182" lon="9.515103287994862">
<ele>130.399</ele>
<time>2024-05-11T12:34:35Z</time>
</trkpt>
<trkpt lat="49.76168434135616" lon="9.515113765373826">
<ele>130.399</ele>
<time>2024-05-11T12:34:36Z</time>
</trkpt>
<trkpt lat="49.76166531443596" lon="9.51512809842825">
<ele>130.399</ele>
<time>2024-05-11T12:34:37Z</time>
</trkpt>
<trkpt lat="49.76164620369673" lon="9.515143353492022">
<ele>130.399</ele>
<time>2024-05-11T12:34:38Z</time>
</trkpt>
<trkpt lat="49.76162717677653" lon="9.515154836699368">
<ele>130.399</ele>
<time>2024-05-11T12:34:39Z</time>
</trkpt>
<trkpt lat="49.7616080660373" lon="9.51516623608768">
<ele>130.399</ele>
<time>2024-05-11T12:34:40Z</time>
</trkpt>
<trkpt lat="49.761592810973525" lon="9.515176713466644">
<ele>130.399</ele>
<time>2024-05-11T12:34:41Z</time>
</trkpt>
<trkpt lat="49.761573784053326" lon="9.515185346826913">
<ele>130.2</ele>
<time>2024-05-11T12:34:42Z</time>
</trkpt>
<trkpt lat="49.761554673314095" lon="9.51518626883626">
<ele>130.2</ele>
<time>2024-05-11T12:34:44Z</time>
</trkpt>
<trkpt lat="49.761516535654664" lon="9.515178641304374">
<ele>130</ele>
<time>2024-05-11T12:34:45Z</time>
</trkpt>
<trkpt lat="49.76149742491543" lon="9.515171935781837">
<ele>129.8</ele>
<time>2024-05-11T12:34:46Z</time>
</trkpt>
<trkpt lat="49.76147839799523" lon="9.515163386240602">
<ele>129.8</ele>
<time>2024-05-11T12:34:47Z</time>
</trkpt>
<trkpt lat="49.761455515399575" lon="9.515159530565144">
<ele>130</ele>
<time>2024-05-11T12:34:48Z</time>
</trkpt>
<trkpt lat="49.761436404660344" lon="9.515163386240602">
<ele>130</ele>
<time>2024-05-11T12:34:49Z</time>
</trkpt>
<trkpt lat="49.761417377740145" lon="9.51516816392541">
<ele>130</ele>
<time>2024-05-11T12:34:50Z</time>
</trkpt>
<trkpt lat="49.761398267000914" lon="9.515176713466644">
<ele>130</ele>
<time>2024-05-11T12:34:51Z</time>
</trkpt>
<trkpt lat="49.7613868676126" lon="9.515178641304374">
<ele>130.2</ele>
<time>2024-05-11T12:34:52Z</time>
</trkpt>
<trkpt lat="49.761375384405255" lon="9.515174785628917">
<ele>130.2</ele>
<time>2024-05-11T12:34:53Z</time>
</trkpt>
<trkpt lat="49.76136775687337" lon="9.515165314078333">
<ele>130.399</ele>
<time>2024-05-11T12:34:54Z</time>
</trkpt>
<trkpt lat="49.76136012934148" lon="9.515151903033257">
<ele>130.399</ele>
<time>2024-05-11T12:34:55Z</time>
</trkpt>
<trkpt lat="49.7613525018096" lon="9.515139497816564">
<ele>130.6</ele>
<time>2024-05-11T12:34:56Z</time>
</trkpt>
<trkpt lat="49.76134487427771" lon="9.51512617059052">
<ele>130.6</ele>
<time>2024-05-11T12:34:57Z</time>
</trkpt>
<trkpt lat="49.761337246745825" lon="9.515113765373826">
<ele>130.6</ele>
<time>2024-05-11T12:34:58Z</time>
</trkpt>
<trkpt lat="49.76132576353848" lon="9.51510613784194">
<ele>130.6</ele>
<time>2024-05-11T12:34:59Z</time>
</trkpt>
<trkpt lat="49.76130673661828" lon="9.515103287994862">
<ele>130.6</ele>
<time>2024-05-11T12:35:00Z</time>
</trkpt>
<trkpt lat="49.76128762587905" lon="9.515105215832593">
<ele>130.6</ele>
<time>2024-05-11T12:35:01Z</time>
</trkpt>
<trkpt lat="49.76127237081528" lon="9.51510613784194">
<ele>130.399</ele>
<time>2024-05-11T12:35:02Z</time>
</trkpt>
<trkpt lat="49.761257115751505" lon="9.51510806567967">
<ele>130.399</ele>
<time>2024-05-11T12:35:03Z</time>
</trkpt>
<trkpt lat="49.761238088831306" lon="9.515114771202208">
<ele>130.2</ele>
<time>2024-05-11T12:35:04Z</time>
</trkpt>
<trkpt lat="49.761218978092074" lon="9.515123320743442">
<ele>130.399</ele>
<time>2024-05-11T12:35:05Z</time>
</trkpt>
<trkpt lat="49.761196095496416" lon="9.515132876113055">
<ele>130.399</ele>
<time>2024-05-11T12:35:06Z</time>
</trkpt>
<trkpt lat="49.76118084043264" lon="9.515132876113055">
<ele>130.399</ele>
<time>2024-05-11T12:35:07Z</time>
</trkpt>
<trkpt lat="49.76116172969341" lon="9.515125248581173">
<ele>130.399</ele>
<time>2024-05-11T12:35:08Z</time>
</trkpt>
<trkpt lat="49.761138847097754" lon="9.515125248581173">
<ele>130.2</ele>
<time>2024-05-11T12:35:09Z</time>
</trkpt>
<trkpt lat="49.76111219264567" lon="9.515116615220904">
<ele>130.399</ele>
<time>2024-05-11T12:35:10Z</time>
</trkpt>
<trkpt lat="49.76108931005001" lon="9.515121392905712">
<ele>130.399</ele>
<time>2024-05-11T12:35:11Z</time>
</trkpt>
<trkpt lat="49.76106642745435" lon="9.51513002626598">
<ele>130.399</ele>
<time>2024-05-11T12:35:12Z</time>
</trkpt>
<trkpt lat="49.761039689183235" lon="9.515145281329753">
<ele>130.399</ele>
<time>2024-05-11T12:35:13Z</time>
</trkpt>
<trkpt lat="49.76101680658758" lon="9.515152908861635">
<ele>130.399</ele>
<time>2024-05-11T12:35:14Z</time>
</trkpt>
<trkpt lat="49.76099006831646" lon="9.515172941610215">
<ele>130.399</ele>
<time>2024-05-11T12:35:15Z</time>
</trkpt>
<trkpt lat="49.76097104139626" lon="9.51518819667399">
<ele>130.399</ele>
<time>2024-05-11T12:35:16Z</time>
</trkpt>
<trkpt lat="49.76095193065703" lon="9.515210073441269">
<ele>130.399</ele>
<time>2024-05-11T12:35:17Z</time>
</trkpt>
<trkpt lat="49.76093667559326" lon="9.51522633433342">
<ele>130.399</ele>
<time>2024-05-11T12:35:18Z</time>
</trkpt>
<trkpt lat="49.760921420529485" lon="9.515238739550114">
<ele>130.399</ele>
<time>2024-05-11T12:35:19Z</time>
</trkpt>
<trkpt lat="49.76091002114117" lon="9.515241589397192">
<ele>130.399</ele>
<time>2024-05-11T12:35:20Z</time>
</trkpt>
<trkpt lat="49.7608947660774" lon="9.515252066776156">
<ele>130.399</ele>
<time>2024-05-11T12:35:21Z</time>
</trkpt>
<trkpt lat="49.76087565533817" lon="9.515261622145772">
<ele>130.399</ele>
<time>2024-05-11T12:35:22Z</time>
</trkpt>
<trkpt lat="49.76085662841797" lon="9.515277799218891">
<ele>130.399</ele>
<time>2024-05-11T12:35:23Z</time>
</trkpt>
<trkpt lat="49.76082989014685" lon="9.515296909958124">
<ele>130.399</ele>
<time>2024-05-11T12:35:24Z</time>
</trkpt>
<trkpt lat="49.76080700755119" lon="9.515315014868976">
<ele>130.399</ele>
<time>2024-05-11T12:35:26Z</time>
</trkpt>
<trkpt lat="49.76077649742365" lon="9.515370335429909">
<ele>130.399</ele>
<time>2024-05-11T12:35:27Z</time>
</trkpt>
<trkpt lat="49.760765014216304" lon="9.5154017675668">
<ele>130.2</ele>
<time>2024-05-11T12:35:28Z</time>
</trkpt>
<trkpt lat="49.76075361482799" lon="9.515433283522723">
<ele>130.2</ele>
<time>2024-05-11T12:35:29Z</time>
</trkpt>
<trkpt lat="49.76073835976422" lon="9.515475193038585">
<ele>130.2</ele>
<time>2024-05-11T12:35:30Z</time>
</trkpt>
<trkpt lat="49.76073073223233" lon="9.515509558841586">
<ele>130.2</ele>
<time>2024-05-11T12:35:31Z</time>
</trkpt>
<trkpt lat="49.7607116214931" lon="9.5155381411314">
<ele>130.2</ele>
<time>2024-05-11T12:35:32Z</time>
</trkpt>
<trkpt lat="49.76069636642933" lon="9.515551552176476">
<ele>130.2</ele>
<time>2024-05-11T12:35:33Z</time>
</trkpt>
<trkpt lat="49.7606772556901" lon="9.51556010171771">
<ele>130.2</ele>
<time>2024-05-11T12:35:34Z</time>
</trkpt>
<trkpt lat="49.760662000626326" lon="9.515564879402518">
<ele>130.399</ele>
<time>2024-05-11T12:35:36Z</time>
</trkpt>
<trkpt lat="49.76063149049878" lon="9.51555817387998">
<ele>130.8</ele>
<time>2024-05-11T12:35:37Z</time>
</trkpt>
<trkpt lat="49.76061623543501" lon="9.515555324032904">
<ele>131</ele>
<time>2024-05-11T12:35:38Z</time>
</trkpt>
<trkpt lat="49.76059335283935" lon="9.515566807240248">
<ele>131</ele>
<time>2024-05-11T12:35:39Z</time>
</trkpt>
<trkpt lat="49.76057809777558" lon="9.515576362609863">
<ele>131</ele>
<time>2024-05-11T12:35:40Z</time>
</trkpt>
<trkpt lat="49.760566698387265" lon="9.51557820662856">
<ele>130.8</ele>
<time>2024-05-11T12:35:41Z</time>
</trkpt>
<trkpt lat="49.76053996011615" lon="9.51558013446629">
<ele>130.8</ele>
<time>2024-05-11T12:35:42Z</time>
</trkpt>
<trkpt lat="49.76051330566406" lon="9.515586839988828">
<ele>130.8</ele>
<time>2024-05-11T12:35:43Z</time>
</trkpt>
<trkpt lat="49.76049796678126" lon="9.515593461692331">
<ele>130.6</ele>
<time>2024-05-11T12:35:44Z</time>
</trkpt>
<trkpt lat="49.76047893986106" lon="9.51560016721487">
<ele>130.6</ele>
<time>2024-05-11T12:35:45Z</time>
</trkpt>
<trkpt lat="49.76045982912183" lon="9.515604944899678">
<ele>130.6</ele>
<time>2024-05-11T12:35:46Z</time>
</trkpt>
<trkpt lat="49.76043694652617" lon="9.515616344287992">
<ele>130.399</ele>
<time>2024-05-11T12:35:47Z</time>
</trkpt>
<trkpt lat="49.7604216914624" lon="9.51562019996345">
<ele>130.399</ele>
<time>2024-05-11T12:35:48Z</time>
</trkpt>
<trkpt lat="49.76041029207408" lon="9.515616344287992">
<ele>130.399</ele>
<time>2024-05-11T12:35:49Z</time>
</trkpt>
<trkpt lat="49.76039503701031" lon="9.51559823937714">
<ele>130.2</ele>
<time>2024-05-11T12:35:50Z</time>
</trkpt>
<trkpt lat="49.760387409478426" lon="9.51558206230402">
<ele>130.2</ele>
<time>2024-05-11T12:35:51Z</time>
</trkpt>
<trkpt lat="49.76038355380297" lon="9.515569657087326">
<ele>130</ele>
<time>2024-05-11T12:35:52Z</time>
</trkpt>
<trkpt lat="49.76037978194654" lon="9.515553396195171">
<ele>130</ele>
<time>2024-05-11T12:35:53Z</time>
</trkpt>
<trkpt lat="49.760372154414654" lon="9.51554199680686">
<ele>129.8</ele>
<time>2024-05-11T12:35:54Z</time>
</trkpt>
<trkpt lat="49.760368298739195" lon="9.515533447265623">
<ele>129.6</ele>
<time>2024-05-11T12:35:55Z</time>
</trkpt>
<trkpt lat="49.76036452688277" lon="9.515522886067629">
<ele>129.6</ele>
<time>2024-05-11T12:35:56Z</time>
</trkpt>
<trkpt lat="49.76035304367542" lon="9.515511486679316">
<ele>129.399</ele>
<time>2024-05-11T12:35:57Z</time>
</trkpt>
<trkpt lat="49.76033016107976" lon="9.51546287164092">
<ele>129.6</ele>
<time>2024-05-11T12:35:58Z</time>
</trkpt>
<trkpt lat="49.76031105034053" lon="9.515444682911038">
<ele>129.6</ele>
<time>2024-05-11T12:35:59Z</time>
</trkpt>
<trkpt lat="49.76030342280865" lon="9.515386512503028">
<ele>129.6</ele>
<time>2024-05-11T12:36:00Z</time>
</trkpt>
<trkpt lat="49.76028439588845" lon="9.515371257439256">
<ele>129.6</ele>
<time>2024-05-11T12:36:01Z</time>
</trkpt>
<trkpt lat="49.76026151329279" lon="9.515355080366136">
<ele>129.8</ele>
<time>2024-05-11T12:36:02Z</time>
</trkpt>
<trkpt lat="49.76023863069713" lon="9.515348374843596">
<ele>129.8</ele>
<time>2024-05-11T12:36:03Z</time>
</trkpt>
<trkpt lat="49.76021574810147" lon="9.515348374843596">
<ele>130</ele>
<time>2024-05-11T12:36:04Z</time>
</trkpt>
<trkpt lat="49.76018900983035" lon="9.515357008203864">
<ele>130</ele>
<time>2024-05-11T12:36:05Z</time>
</trkpt>
<trkpt lat="49.76016227155924" lon="9.51536362990737">
<ele>130.2</ele>
<time>2024-05-11T12:36:06Z</time>
</trkpt>
<trkpt lat="49.76013561710715" lon="9.515375113114716">
<ele>130.399</ele>
<time>2024-05-11T12:36:07Z</time>
</trkpt>
<trkpt lat="49.76010887883603" lon="9.515388440340756">
<ele>130.6</ele>
<time>2024-05-11T12:36:08Z</time>
</trkpt>
<trkpt lat="49.76008985191584" lon="9.515397995710371">
<ele>130.8</ele>
<time>2024-05-11T12:36:09Z</time>
</trkpt>
<trkpt lat="49.760074596852064" lon="9.515411322936416">
<ele>131</ele>
<time>2024-05-11T12:36:11Z</time>
</trkpt>
<trkpt lat="49.76004408672452" lon="9.515451388433576">
<ele>131.2</ele>
<time>2024-05-11T12:36:12Z</time>
</trkpt>
<trkpt lat="49.76002883166075" lon="9.515471421182156">
<ele>131.2</ele>
<time>2024-05-11T12:36:13Z</time>
</trkpt>
<trkpt lat="49.7600173484534" lon="9.515491453930736">
<ele>131.2</ele>
<time>2024-05-11T12:36:14Z</time>
</trkpt>
<trkpt lat="49.76000594906509" lon="9.515509558841586">
<ele>131.2</ele>
<time>2024-05-11T12:36:15Z</time>
</trkpt>
<trkpt lat="49.759994465857744" lon="9.515524813905358">
<ele>131</ele>
<time>2024-05-11T12:36:16Z</time>
</trkpt>
<trkpt lat="49.7599829826504" lon="9.515536297112703">
<ele>131</ele>
<time>2024-05-11T12:36:17Z</time>
</trkpt>
<trkpt lat="49.759971583262086" lon="9.515551552176476">
<ele>131</ele>
<time>2024-05-11T12:36:18Z</time>
</trkpt>
<trkpt lat="49.759971583262086" lon="9.51556010171771">
<ele>131</ele>
<time>2024-05-11T12:36:19Z</time>
</trkpt>
<trkpt lat="49.75996772758663" lon="9.515564879402518">
<ele>130.8</ele>
<time>2024-05-11T12:36:20Z</time>
</trkpt>
<trkpt lat="49.759971583262086" lon="9.515568651258944">
<ele>130.8</ele>
<time>2024-05-11T12:36:21Z</time>
</trkpt>
<trkpt lat="49.759971583262086" lon="9.515571584925056">
<ele>129.2</ele>
<time>2024-05-11T12:36:22Z</time>
</trkpt>
<trkpt lat="49.759971583262086" lon="9.51557820662856">
<ele>128.399</ele>
<time>2024-05-11T12:36:23Z</time>
</trkpt>
<trkpt lat="49.75996772758663" lon="9.515584912151098">
<ele>128.2</ele>
<time>2024-05-11T12:36:24Z</time>
</trkpt>
<trkpt lat="49.75996772758663" lon="9.515591617673635">
<ele>128.2</ele>
<time>2024-05-11T12:36:25Z</time>
</trkpt>
<trkpt lat="49.7599639557302" lon="9.5156020950526">
<ele>128.399</ele>
<time>2024-05-11T12:36:26Z</time>
</trkpt>
<trkpt lat="49.7599639557302" lon="9.51561827212572">
<ele>128.8</ele>
<time>2024-05-11T12:36:27Z</time>
</trkpt>
<trkpt lat="49.7599639557302" lon="9.515629755333066">
<ele>129.2</ele>
<time>2024-05-11T12:36:28Z</time>
</trkpt>
<trkpt lat="49.75996772758663" lon="9.515649788081646">
<ele>129.399</ele>
<time>2024-05-11T12:36:29Z</time>
</trkpt>
<trkpt lat="49.759971583262086" lon="9.515663115307689">
<ele>129.8</ele>
<time>2024-05-11T12:36:30Z</time>
</trkpt>
<trkpt lat="49.75997535511851" lon="9.515673592686651">
<ele>130</ele>
<time>2024-05-11T12:36:31Z</time>
</trkpt>
<trkpt lat="49.7599829826504" lon="9.515686919912696">
<ele>130.399</ele>
<time>2024-05-11T12:36:32Z</time>
</trkpt>
<trkpt lat="49.759990610182285" lon="9.515707958489656">
<ele>130.399</ele>
<time>2024-05-11T12:36:33Z</time>
</trkpt>
<trkpt lat="49.76000209338963" lon="9.515733690932391">
<ele>130.6</ele>
<time>2024-05-11T12:36:34Z</time>
</trkpt>
<trkpt lat="49.76000594906509" lon="9.51575850136578">
<ele>130.8</ele>
<time>2024-05-11T12:36:35Z</time>
</trkpt>
<trkpt lat="49.760013576596975" lon="9.51577853411436">
<ele>130.6</ele>
<time>2024-05-11T12:36:36Z</time>
</trkpt>
<trkpt lat="49.760013576596975" lon="9.51580141671002">
<ele>130.8</ele>
<time>2024-05-11T12:36:37Z</time>
</trkpt>
<trkpt lat="49.76002120412886" lon="9.5158214494586">
<ele>130.8</ele>
<time>2024-05-11T12:36:38Z</time>
</trkpt>
<trkpt lat="49.76002497598529" lon="9.51583955436945">
<ele>130.8</ele>
<time>2024-05-11T12:36:40Z</time>
</trkpt>
<trkpt lat="49.760036459192634" lon="9.515874842181802">
<ele>130.8</ele>
<time>2024-05-11T12:36:41Z</time>
</trkpt>
<trkpt lat="49.760036459192634" lon="9.515894874930382">
<ele>131</ele>
<time>2024-05-11T12:36:42Z</time>
</trkpt>
<trkpt lat="49.760036459192634" lon="9.515912979841232">
<ele>131</ele>
<time>2024-05-11T12:36:43Z</time>
</trkpt>
<trkpt lat="49.760032603517175" lon="9.515932006761432">
<ele>131.2</ele>
<time>2024-05-11T12:36:44Z</time>
</trkpt>
<trkpt lat="49.760036459192634" lon="9.515950195491314">
<ele>131.2</ele>
<time>2024-05-11T12:36:45Z</time>
</trkpt>
<trkpt lat="49.760036459192634" lon="9.515970228239894">
<ele>131.2</ele>
<time>2024-05-11T12:36:46Z</time>
</trkpt>
<trkpt lat="49.76004023104906" lon="9.515991182997825">
<ele>131.2</ele>
<time>2024-05-11T12:36:47Z</time>
</trkpt>
<trkpt lat="49.76004785858095" lon="9.516013143584132">
<ele>131.2</ele>
<time>2024-05-11T12:36:48Z</time>
</trkpt>
<trkpt lat="49.760051714256406" lon="9.51603502035141">
<ele>131.4</ele>
<time>2024-05-11T12:36:49Z</time>
</trkpt>
<trkpt lat="49.760051714256406" lon="9.51605505309999">
<ele>131.4</ele>
<time>2024-05-11T12:36:50Z</time>
</trkpt>
<trkpt lat="49.76005548611283" lon="9.516077935695648">
<ele>131.6</ele>
<time>2024-05-11T12:36:51Z</time>
</trkpt>
<trkpt lat="49.76006311364472" lon="9.51609704643488">
<ele>131.6</ele>
<time>2024-05-11T12:36:52Z</time>
</trkpt>
<trkpt lat="49.76005934178829" lon="9.51611707918346">
<ele>131.6</ele>
<time>2024-05-11T12:36:53Z</time>
</trkpt>
<trkpt lat="49.76005548611283" lon="9.51613610610366">
<ele>131.8</ele>
<time>2024-05-11T12:36:54Z</time>
</trkpt>
<trkpt lat="49.76005548611283" lon="9.51615714468062">
<ele>131.8</ele>
<time>2024-05-11T12:36:55Z</time>
</trkpt>
<trkpt lat="49.76005934178829" lon="9.51617139391601">
<ele>132</ele>
<time>2024-05-11T12:36:56Z</time>
</trkpt>
<trkpt lat="49.76006311364472" lon="9.516186648979785">
<ele>132</ele>
<time>2024-05-11T12:36:57Z</time>
</trkpt>
<trkpt lat="49.760074596852064" lon="9.516204753890634">
<ele>132.2</ele>
<time>2024-05-11T12:36:58Z</time>
</trkpt>
<trkpt lat="49.76007836870849" lon="9.516222942620516">
<ele>132.2</ele>
<time>2024-05-11T12:36:59Z</time>
</trkpt>
<trkpt lat="49.76008222438395" lon="9.516241969540715">
<ele>132.2</ele>
<time>2024-05-11T12:37:00Z</time>
</trkpt>
<trkpt lat="49.76010125130415" lon="9.51625345274806">
<ele>132</ele>
<time>2024-05-11T12:37:01Z</time>
</trkpt>
<trkpt lat="49.76010887883603" lon="9.51627155765891">
<ele>132</ele>
<time>2024-05-11T12:37:02Z</time>
</trkpt>
<trkpt lat="49.76010510697961" lon="9.516286812722685">
<ele>131.8</ele>
<time>2024-05-11T12:37:03Z</time>
</trkpt>
<trkpt lat="49.76012413389981" lon="9.516302067786455">
<ele>131.8</ele>
<time>2024-05-11T12:37:04Z</time>
</trkpt>
<trkpt lat="49.76013938896358" lon="9.516315395012498">
<ele>131.6</ele>
<time>2024-05-11T12:37:05Z</time>
</trkpt>
<trkpt lat="49.76013938896358" lon="9.516328806057572">
<ele>131.4</ele>
<time>2024-05-11T12:37:06Z</time>
</trkpt>
<trkpt lat="49.76013561710715" lon="9.516346910968425">
<ele>131.4</ele>
<time>2024-05-11T12:37:07Z</time>
</trkpt>
<trkpt lat="49.76013561710715" lon="9.516365015879272">
<ele>131.4</ele>
<time>2024-05-11T12:37:08Z</time>
</trkpt>
<trkpt lat="49.760131761431694" lon="9.516381192952394">
<ele>131.6</ele>
<time>2024-05-11T12:37:09Z</time>
</trkpt>
<trkpt lat="49.760131761431694" lon="9.516400303691626">
<ele>131.6</ele>
<time>2024-05-11T12:37:10Z</time>
</trkpt>
<trkpt lat="49.76012798957527" lon="9.516416480764748">
<ele>131.6</ele>
<time>2024-05-11T12:37:11Z</time>
</trkpt>
<trkpt lat="49.76011650636792" lon="9.516434669494627">
<ele>131.8</ele>
<time>2024-05-11T12:37:12Z</time>
</trkpt>
<trkpt lat="49.76010510697961" lon="9.516454618424175">
<ele>131.8</ele>
<time>2024-05-11T12:37:13Z</time>
</trkpt>
<trkpt lat="49.76010125130415" lon="9.51647180132568">
<ele>131.8</ele>
<time>2024-05-11T12:37:14Z</time>
</trkpt>
<trkpt lat="49.76008599624038" lon="9.516485212370752">
<ele>131.8</ele>
<time>2024-05-11T12:37:15Z</time>
</trkpt>
<trkpt lat="49.76008222438395" lon="9.516501389443874">
<ele>132</ele>
<time>2024-05-11T12:37:16Z</time>
</trkpt>
<trkpt lat="49.76007836870849" lon="9.516521422192454">
<ele>132</ele>
<time>2024-05-11T12:37:17Z</time>
</trkpt>
<trkpt lat="49.76007836870849" lon="9.516536677256228">
<ele>132</ele>
<time>2024-05-11T12:37:18Z</time>
</trkpt>
<trkpt lat="49.760070741176605" lon="9.51655193232">
<ele>132</ele>
<time>2024-05-11T12:37:19Z</time>
</trkpt>
<trkpt lat="49.76006696932018" lon="9.516566265374422">
<ele>132</ele>
<time>2024-05-11T12:37:20Z</time>
</trkpt>
<trkpt lat="49.76005548611283" lon="9.51658529229462">
<ele>132.2</ele>
<time>2024-05-11T12:37:21Z</time>
</trkpt>
<trkpt lat="49.760051714256406" lon="9.516596775501966">
<ele>132.2</ele>
<time>2024-05-11T12:37:22Z</time>
</trkpt>
<trkpt lat="49.76004408672452" lon="9.51661203056574">
<ele>132.2</ele>
<time>2024-05-11T12:37:23Z</time>
</trkpt>
<trkpt lat="49.760032603517175" lon="9.51663013547659">
<ele>132.2</ele>
<time>2024-05-11T12:37:24Z</time>
</trkpt>
<trkpt lat="49.76002883166075" lon="9.516643462702632">
<ele>132.2</ele>
<time>2024-05-11T12:37:25Z</time>
</trkpt>
<trkpt lat="49.76002497598529" lon="9.516653018072248">
<ele>132.2</ele>
<time>2024-05-11T12:37:26Z</time>
</trkpt>
<trkpt lat="49.76002497598529" lon="9.516661567613482">
<ele>132.2</ele>
<time>2024-05-11T12:37:27Z</time>
</trkpt>
<trkpt lat="49.76002497598529" lon="9.516664501279593">
<ele>132.2</ele>
<time>2024-05-11T12:37:28Z</time>
</trkpt>
<trkpt lat="49.76002120412886" lon="9.51666827313602">
<ele>132.2</ele>
<time>2024-05-11T12:37:29Z</time>
</trkpt>
<trkpt lat="49.76002120412886" lon="9.51666634529829">
<ele>132.2</ele>
<time>2024-05-11T12:37:30Z</time>
</trkpt>
<trkpt lat="49.76002120412886" lon="9.516664501279593">
<ele>132</ele>
<time>2024-05-11T12:37:31Z</time>
</trkpt>
<trkpt lat="49.76002120412886" lon="9.516663495451212">
<ele>132</ele>
<time>2024-05-11T12:37:32Z</time>
</trkpt>
<trkpt lat="49.76002497598529" lon="9.516663495451212">
<ele>131.8</ele>
<time>2024-05-11T12:37:39Z</time>
</trkpt>
<trkpt lat="49.76002883166075" lon="9.516663495451212">
<ele>131.6</ele>
<time>2024-05-11T12:37:40Z</time>
</trkpt>
<trkpt lat="49.76002883166075" lon="9.516664501279593">
<ele>131.4</ele>
<time>2024-05-11T12:37:41Z</time>
</trkpt>
<trkpt lat="49.760032603517175" lon="9.51666827313602">
<ele>131.4</ele>
<time>2024-05-11T12:37:42Z</time>
</trkpt>
<trkpt lat="49.760032603517175" lon="9.516664501279593">
<ele>131.2</ele>
<time>2024-05-11T12:37:43Z</time>
</trkpt>
<trkpt lat="49.760032603517175" lon="9.516661567613482">
<ele>131</ele>
<time>2024-05-11T12:37:44Z</time>
</trkpt>
<trkpt lat="49.760032603517175" lon="9.516658717766404">
<ele>131</ele>
<time>2024-05-11T12:37:45Z</time>
</trkpt>
<trkpt lat="49.760032603517175" lon="9.516653018072248">
<ele>130.8</ele>
<time>2024-05-11T12:37:46Z</time>
</trkpt>
<trkpt lat="49.760032603517175" lon="9.5166520960629">
<ele>130.6</ele>
<time>2024-05-11T12:37:47Z</time>
</trkpt>
<trkpt lat="49.760032603517175" lon="9.51664824038744">
<ele>130.399</ele>
<time>2024-05-11T12:37:53Z</time>
</trkpt>
<trkpt lat="49.760032603517175" lon="9.51664631254971">
<ele>130.399</ele>
<time>2024-05-11T12:37:54Z</time>
</trkpt>
<trkpt lat="49.760032603517175" lon="9.51664539054036">
<ele>130.2</ele>
<time>2024-05-11T12:37:57Z</time>
</trkpt>
<trkpt lat="49.760032603517175" lon="9.516643462702632">
<ele>130.2</ele>
<time>2024-05-11T12:38:00Z</time>
</trkpt>
<trkpt lat="49.760032603517175" lon="9.516641534864902">
<ele>130</ele>
<time>2024-05-11T12:38:03Z</time>
</trkpt>
<trkpt lat="49.76002883166075" lon="9.516641534864902">
<ele>129.8</ele>
<time>2024-05-11T12:38:05Z</time>
</trkpt>
<trkpt lat="49.76002883166075" lon="9.516639690846205">
<ele>129.8</ele>
<time>2024-05-11T12:38:07Z</time>
</trkpt>
<trkpt lat="49.76002883166075" lon="9.516638685017824">
<ele>129.6</ele>
<time>2024-05-11T12:38:10Z</time>
</trkpt>
<trkpt lat="49.76002883166075" lon="9.516636840999126">
<ele>129.399</ele>
<time>2024-05-11T12:38:13Z</time>
</trkpt>
<trkpt lat="49.76002883166075" lon="9.516634913161395">
<ele>129.2</ele>
<time>2024-05-11T12:38:14Z</time>
</trkpt>
<trkpt lat="49.76002883166075" lon="9.516632985323668">
<ele>129.2</ele>
<time>2024-05-11T12:38:16Z</time>
</trkpt>
<trkpt lat="49.76002883166075" lon="9.51663206331432">
<ele>129</ele>
<time>2024-05-11T12:38:17Z</time>
</trkpt>
<trkpt lat="49.76002883166075" lon="9.51663013547659">
<ele>129</ele>
<time>2024-05-11T12:38:19Z</time>
</trkpt>
<trkpt lat="49.76002883166075" lon="9.51662820763886">
<ele>128.8</ele>
<time>2024-05-11T12:38:21Z</time>
</trkpt>
<trkpt lat="49.76002497598529" lon="9.51662627980113">
<ele>128.8</ele>
<time>2024-05-11T12:38:22Z</time>
</trkpt>
<trkpt lat="49.76002883166075" lon="9.51662627980113">
<ele>128.8</ele>
<time>2024-05-11T12:38:23Z</time>
</trkpt>
<trkpt lat="49.76002883166075" lon="9.51662535779178">
<ele>128.6</ele>
<time>2024-05-11T12:38:24Z</time>
</trkpt>
<trkpt lat="49.76002497598529" lon="9.516623429954052">
<ele>128.6</ele>
<time>2024-05-11T12:38:26Z</time>
</trkpt>
<trkpt lat="49.76002497598529" lon="9.516621585935354">
<ele>128.6</ele>
<time>2024-05-11T12:38:27Z</time>
</trkpt>
<trkpt lat="49.76002497598529" lon="9.516619658097625">
<ele>128.6</ele>
<time>2024-05-11T12:38:29Z</time>
</trkpt>
<trkpt lat="49.76002497598529" lon="9.516618652269244">
<ele>128.399</ele>
<time>2024-05-11T12:38:32Z</time>
</trkpt>
<trkpt lat="49.76002497598529" lon="9.516616808250546">
<ele>128.399</ele>
<time>2024-05-11T12:38:35Z</time>
</trkpt>
<trkpt lat="49.76002497598529" lon="9.516614880412815">
<ele>128.399</ele>
<time>2024-05-11T12:38:38Z</time>
</trkpt>
<trkpt lat="49.76002497598529" lon="9.516612952575088">
<ele>128.399</ele>
<time>2024-05-11T12:38:41Z</time>
</trkpt>
<trkpt lat="49.76002497598529" lon="9.51661203056574">
<ele>128.399</ele>
<time>2024-05-11T12:38:46Z</time>
</trkpt>
<trkpt lat="49.76002120412886" lon="9.51661010272801">
<ele>128.399</ele>
<time>2024-05-11T12:38:48Z</time>
</trkpt>
<trkpt lat="49.76002497598529" lon="9.51661010272801">
<ele>128.399</ele>
<time>2024-05-11T12:38:50Z</time>
</trkpt>
<trkpt lat="49.76002120412886" lon="9.51660817489028">
<ele>128.399</ele>
<time>2024-05-11T12:38:51Z</time>
</trkpt>
<trkpt lat="49.76002120412886" lon="9.51661010272801">
<ele>128.399</ele>
<time>2024-05-11T12:38:52Z</time>
</trkpt>
<trkpt lat="49.76002120412886" lon="9.51661203056574">
<ele>128.6</ele>
<time>2024-05-11T12:38:55Z</time>
</trkpt>
<trkpt lat="49.76002497598529" lon="9.51661203056574">
<ele>128.6</ele>
<time>2024-05-11T12:38:57Z</time>
</trkpt>
<trkpt lat="49.76002497598529" lon="9.516612952575088">
<ele>128.8</ele>
<time>2024-05-11T12:39:02Z</time>
</trkpt>
<trkpt lat="49.76002497598529" lon="9.516614880412815">
<ele>128.8</ele>
<time>2024-05-11T12:39:03Z</time>
</trkpt>
<trkpt lat="49.76002497598529" lon="9.516616808250546">
<ele>129</ele>
<time>2024-05-11T12:39:08Z</time>
</trkpt>
<trkpt lat="49.76002497598529" lon="9.516618652269244">
<ele>129.2</ele>
<time>2024-05-11T12:39:09Z</time>
</trkpt>
<trkpt lat="49.76002497598529" lon="9.516619658097625">
<ele>129.2</ele>
<time>2024-05-11T12:39:10Z</time>
</trkpt>
<trkpt lat="49.76002497598529" lon="9.516621585935354">
<ele>129.399</ele>
<time>2024-05-11T12:39:18Z</time>
</trkpt>
<trkpt lat="49.76002497598529" lon="9.516619658097625">
<ele>129.399</ele>
<time>2024-05-11T12:39:22Z</time>
</trkpt>
<trkpt lat="49.76002497598529" lon="9.516621585935354">
<ele>129.399</ele>
<time>2024-05-11T12:39:24Z</time>
</trkpt>
<trkpt lat="49.76002883166075" lon="9.516621585935354">
<ele>129.399</ele>
<time>2024-05-11T12:39:26Z</time>
</trkpt>
<trkpt lat="49.76002883166075" lon="9.516619658097625">
<ele>129.399</ele>
<time>2024-05-11T12:39:30Z</time>
</trkpt>
<trkpt lat="49.760032603517175" lon="9.516619658097625">
<ele>129.399</ele>
<time>2024-05-11T12:39:35Z</time>
</trkpt>
<trkpt lat="49.760032603517175" lon="9.516618652269244">
<ele>129.399</ele>
<time>2024-05-11T12:39:38Z</time>
</trkpt>
<trkpt lat="49.760032603517175" lon="9.516619658097625">
<ele>129.2</ele>
<time>2024-05-11T12:39:40Z</time>
</trkpt>
<trkpt lat="49.760032603517175" lon="9.516618652269244">
<ele>129.2</ele>
<time>2024-05-11T12:39:42Z</time>
</trkpt>
<trkpt lat="49.760036459192634" lon="9.516618652269244">
<ele>129</ele>
<time>2024-05-11T12:39:45Z</time>
</trkpt>
<trkpt lat="49.760036459192634" lon="9.516619658097625">
<ele>129</ele>
<time>2024-05-11T12:39:49Z</time>
</trkpt>
<trkpt lat="49.76004023104906" lon="9.516619658097625">
<ele>128.8</ele>
<time>2024-05-11T12:39:50Z</time>
</trkpt>
<trkpt lat="49.76004023104906" lon="9.516618652269244">
<ele>128.6</ele>
<time>2024-05-11T12:39:51Z</time>
</trkpt>
<trkpt lat="49.76004408672452" lon="9.516618652269244">
<ele>128.6</ele>
<time>2024-05-11T12:39:55Z</time>
</trkpt>
<trkpt lat="49.76004785858095" lon="9.516618652269244">
<ele>128.399</ele>
<time>2024-05-11T12:39:58Z</time>
</trkpt>
<trkpt lat="49.760051714256406" lon="9.516618652269244">
<ele>128.399</ele>
<time>2024-05-11T12:40:00Z</time>
</trkpt>
<trkpt lat="49.760051714256406" lon="9.516616808250546">
<ele>128.399</ele>
<time>2024-05-11T12:40:01Z</time>
</trkpt>
<trkpt lat="49.760051714256406" lon="9.516618652269244">
<ele>128.399</ele>
<time>2024-05-11T12:40:02Z</time>
</trkpt>
<trkpt lat="49.760051714256406" lon="9.516616808250546">
<ele>128.399</ele>
<time>2024-05-11T12:40:04Z</time>
</trkpt>
<trkpt lat="49.760051714256406" lon="9.516618652269244">
<ele>128.399</ele>
<time>2024-05-11T12:40:05Z</time>
</trkpt>
<trkpt lat="49.760051714256406" lon="9.516616808250546">
<ele>128.399</ele>
<time>2024-05-11T12:40:06Z</time>
</trkpt>
<trkpt lat="49.76005548611283" lon="9.516616808250546">
<ele>128.399</ele>
<time>2024-05-11T12:40:10Z</time>
</trkpt>
<trkpt lat="49.76005548611283" lon="9.516614880412815">
<ele>128.399</ele>
<time>2024-05-11T12:40:11Z</time>
</trkpt>
<trkpt lat="49.76005548611283" lon="9.516612952575088">
<ele>128.6</ele>
<time>2024-05-11T12:40:12Z</time>
</trkpt>
<trkpt lat="49.76005548611283" lon="9.51661203056574">
<ele>128.6</ele>
<time>2024-05-11T12:40:13Z</time>
</trkpt>
<trkpt lat="49.76005548611283" lon="9.51661010272801">
<ele>128.6</ele>
<time>2024-05-11T12:40:16Z</time>
</trkpt>
<trkpt lat="49.76005548611283" lon="9.51660817489028">
<ele>128.8</ele>
<time>2024-05-11T12:40:19Z</time>
</trkpt>
<trkpt lat="49.76005934178829" lon="9.51660817489028">
<ele>128.8</ele>
<time>2024-05-11T12:40:20Z</time>
</trkpt>
<trkpt lat="49.76005934178829" lon="9.516606330871582">
<ele>128.8</ele>
<time>2024-05-11T12:40:21Z</time>
</trkpt>
<trkpt lat="49.76005934178829" lon="9.5166053250432">
<ele>128.8</ele>
<time>2024-05-11T12:40:24Z</time>
</trkpt>
<trkpt lat="49.76005934178829" lon="9.516603397205472">
<ele>128.8</ele>
<time>2024-05-11T12:40:28Z</time>
</trkpt>
<trkpt lat="49.76005934178829" lon="9.516601553186774">
<ele>129</ele>
<time>2024-05-11T12:40:31Z</time>
</trkpt>
<trkpt lat="49.76006311364472" lon="9.516599625349045">
<ele>129</ele>
<time>2024-05-11T12:40:33Z</time>
</trkpt>
<trkpt lat="49.76006311364472" lon="9.516598619520664">
<ele>129</ele>
<time>2024-05-11T12:40:34Z</time>
</trkpt>
<trkpt lat="49.76006311364472" lon="9.516596775501966">
<ele>129</ele>
<time>2024-05-11T12:40:37Z</time>
</trkpt>
<trkpt lat="49.76005934178829" lon="9.516596775501966">
<ele>129</ele>
<time>2024-05-11T12:40:41Z</time>
</trkpt>
<trkpt lat="49.76006311364472" lon="9.516596775501966">
<ele>129</ele>
<time>2024-05-11T12:40:42Z</time>
</trkpt>
<trkpt lat="49.76005934178829" lon="9.516596775501966">
<ele>129</ele>
<time>2024-05-11T12:40:46Z</time>
</trkpt>
<trkpt lat="49.76006311364472" lon="9.516596775501966">
<ele>129</ele>
<time>2024-05-11T12:40:50Z</time>
</trkpt>
<trkpt lat="49.76006311364472" lon="9.516594847664235">
<ele>129</ele>
<time>2024-05-11T12:40:53Z</time>
</trkpt>
<trkpt lat="49.76006311364472" lon="9.516596775501966">
<ele>129</ele>
<time>2024-05-11T12:40:55Z</time>
</trkpt>
<trkpt lat="49.76006311364472" lon="9.516594847664235">
<ele>129</ele>
<time>2024-05-11T12:40:56Z</time>
</trkpt>
<trkpt lat="49.76006311364472" lon="9.516596775501966">
<ele>129.2</ele>
<time>2024-05-11T12:40:59Z</time>
</trkpt>
<trkpt lat="49.76006311364472" lon="9.516594847664235">
<ele>129.2</ele>
<time>2024-05-11T12:41:00Z</time>
</trkpt>
<trkpt lat="49.76006311364472" lon="9.516596775501966">
<ele>129.399</ele>
<time>2024-05-11T12:41:03Z</time>
</trkpt>
<trkpt lat="49.76006311364472" lon="9.516594847664235">
<ele>129.399</ele>
<time>2024-05-11T12:41:04Z</time>
</trkpt>
<trkpt lat="49.76006311364472" lon="9.516596775501966">
<ele>129.399</ele>
<time>2024-05-11T12:41:05Z</time>
</trkpt>
<trkpt lat="49.76006311364472" lon="9.516594847664235">
<ele>129.399</ele>
<time>2024-05-11T12:41:08Z</time>
</trkpt>
<trkpt lat="49.76006311364472" lon="9.516596775501966">
<ele>129.399</ele>
<time>2024-05-11T12:41:09Z</time>
</trkpt>
<trkpt lat="49.76006311364472" lon="9.516594847664235">
<ele>129.399</ele>
<time>2024-05-11T12:41:14Z</time>
</trkpt>
<trkpt lat="49.76006311364472" lon="9.516592919826508">
<ele>129.399</ele>
<time>2024-05-11T12:41:19Z</time>
</trkpt>
<trkpt lat="49.76006311364472" lon="9.516594847664235">
<ele>129.2</ele>
<time>2024-05-11T12:41:21Z</time>
</trkpt>
<trkpt lat="49.76006311364472" lon="9.516592919826508">
<ele>129.2</ele>
<time>2024-05-11T12:41:22Z</time>
</trkpt>
<trkpt lat="49.76006311364472" lon="9.516594847664235">
<ele>129.2</ele>
<time>2024-05-11T12:41:23Z</time>
</trkpt>
<trkpt lat="49.76005934178829" lon="9.516594847664235">
<ele>129.2</ele>
<time>2024-05-11T12:41:31Z</time>
</trkpt>
<trkpt lat="49.76005934178829" lon="9.516592919826508">
<ele>129.2</ele>
<time>2024-05-11T12:41:32Z</time>
</trkpt>
<trkpt lat="49.76006311364472" lon="9.516592919826508">
<ele>129.2</ele>
<time>2024-05-11T12:41:35Z</time>
</trkpt>
<trkpt lat="49.76006311364472" lon="9.51659199781716">
<ele>129.2</ele>
<time>2024-05-11T12:41:40Z</time>
</trkpt>
<trkpt lat="49.76006311364472" lon="9.516592919826508">
<ele>129.2</ele>
<time>2024-05-11T12:41:43Z</time>
</trkpt>
<trkpt lat="49.76006311364472" lon="9.51659199781716">
<ele>129.2</ele>
<time>2024-05-11T12:41:44Z</time>
</trkpt>
<trkpt lat="49.76006311364472" lon="9.516592919826508">
<ele>129.2</ele>
<time>2024-05-11T12:41:45Z</time>
</trkpt>
<trkpt lat="49.76006311364472" lon="9.51659199781716">
<ele>129.2</ele>
<time>2024-05-11T12:41:46Z</time>
</trkpt>
<trkpt lat="49.76006311364472" lon="9.51659006997943">
<ele>129.2</ele>
<time>2024-05-11T12:41:47Z</time>
</trkpt>
<trkpt lat="49.76006311364472" lon="9.5165881421417">
<ele>129</ele>
<time>2024-05-11T12:41:48Z</time>
</trkpt>
<trkpt lat="49.76006311364472" lon="9.516586298123002">
<ele>129</ele>
<time>2024-05-11T12:41:49Z</time>
</trkpt>
<trkpt lat="49.76006311364472" lon="9.5165881421417">
<ele>129</ele>
<time>2024-05-11T12:41:51Z</time>
</trkpt>
<trkpt lat="49.76005934178829" lon="9.5165881421417">
<ele>129</ele>
<time>2024-05-11T12:41:52Z</time>
</trkpt>
<trkpt lat="49.76006311364472" lon="9.51659006997943">
<ele>129</ele>
<time>2024-05-11T12:41:54Z</time>
</trkpt>
<trkpt lat="49.76005934178829" lon="9.51659006997943">
<ele>129</ele>
<time>2024-05-11T12:41:55Z</time>
</trkpt>
<trkpt lat="49.76005934178829" lon="9.51659199781716">
<ele>129</ele>
<time>2024-05-11T12:41:56Z</time>
</trkpt>
<trkpt lat="49.76005934178829" lon="9.516592919826508">
<ele>129</ele>
<time>2024-05-11T12:41:57Z</time>
</trkpt>
<trkpt lat="49.76005934178829" lon="9.51659199781716">
<ele>129</ele>
<time>2024-05-11T12:41:58Z</time>
</trkpt>
<trkpt lat="49.76005934178829" lon="9.516592919826508">
<ele>129</ele>
<time>2024-05-11T12:42:01Z</time>
</trkpt>
<trkpt lat="49.76005934178829" lon="9.516594847664235">
<ele>129</ele>
<time>2024-05-11T12:42:02Z</time>
</trkpt>
<trkpt lat="49.76005934178829" lon="9.516596775501966">
<ele>129</ele>
<time>2024-05-11T12:42:05Z</time>
</trkpt>
<trkpt lat="49.76005548611283" lon="9.516596775501966">
<ele>129</ele>
<time>2024-05-11T12:42:13Z</time>
</trkpt>
<trkpt lat="49.76005934178829" lon="9.516596775501966">
<ele>129</ele>
<time>2024-05-11T12:42:15Z</time>
</trkpt>
<trkpt lat="49.76005548611283" lon="9.516596775501966">
<ele>129</ele>
<time>2024-05-11T12:42:16Z</time>
</trkpt>
<trkpt lat="49.76005934178829" lon="9.516598619520664">
<ele>129</ele>
<time>2024-05-11T12:42:18Z</time>
</trkpt>
<trkpt lat="49.76005548611283" lon="9.516596775501966">
<ele>129</ele>
<time>2024-05-11T12:42:19Z</time>
</trkpt>
<trkpt lat="49.76005548611283" lon="9.516594847664235">
<ele>129</ele>
<time>2024-05-11T12:42:21Z</time>
</trkpt>
<trkpt lat="49.76005548611283" lon="9.516592919826508">
<ele>129</ele>
<time>2024-05-11T12:42:26Z</time>
</trkpt>
<trkpt lat="49.76005934178829" lon="9.51659199781716">
<ele>129</ele>
<time>2024-05-11T12:42:29Z</time>
</trkpt>
<trkpt lat="49.76005934178829" lon="9.51659006997943">
<ele>129</ele>
<time>2024-05-11T12:42:31Z</time>
</trkpt>
<trkpt lat="49.76005934178829" lon="9.5165881421417">
<ele>129</ele>
<time>2024-05-11T12:42:33Z</time>
</trkpt>
<trkpt lat="49.76005934178829" lon="9.516586298123002">
<ele>129</ele>
<time>2024-05-11T12:42:35Z</time>
</trkpt>
<trkpt lat="49.76005934178829" lon="9.51658529229462">
<ele>129</ele>
<time>2024-05-11T12:42:37Z</time>
</trkpt>
<trkpt lat="49.76006311364472" lon="9.51658529229462">
<ele>129</ele>
<time>2024-05-11T12:42:38Z</time>
</trkpt>
<trkpt lat="49.76006311364472" lon="9.516583364456892">
<ele>129</ele>
<time>2024-05-11T12:42:39Z</time>
</trkpt>
<trkpt lat="49.76006311364472" lon="9.51658529229462">
<ele>129</ele>
<time>2024-05-11T12:42:41Z</time>
</trkpt>
<trkpt lat="49.76006311364472" lon="9.516583364456892">
<ele>129</ele>
<time>2024-05-11T12:42:43Z</time>
</trkpt>
<trkpt lat="49.76006311364472" lon="9.516581520438194">
<ele>129</ele>
<time>2024-05-11T12:42:51Z</time>
</trkpt>
<trkpt lat="49.76006311364472" lon="9.516583364456892">
<ele>129</ele>
<time>2024-05-11T12:42:54Z</time>
</trkpt>
<trkpt lat="49.76006311364472" lon="9.51658529229462">
<ele>129</ele>
<time>2024-05-11T12:42:56Z</time>
</trkpt>
<trkpt lat="49.76006311364472" lon="9.516583364456892">
<ele>129</ele>
<time>2024-05-11T12:43:01Z</time>
</trkpt>
<trkpt lat="49.76006311364472" lon="9.516581520438194">
<ele>129</ele>
<time>2024-05-11T12:43:03Z</time>
</trkpt>
<trkpt lat="49.76006311364472" lon="9.516583364456892">
<ele>129</ele>
<time>2024-05-11T12:43:04Z</time>
</trkpt>
<trkpt lat="49.76005934178829" lon="9.516581520438194">
<ele>129</ele>
<time>2024-05-11T12:43:08Z</time>
</trkpt>
<trkpt lat="49.76005934178829" lon="9.516583364456892">
<ele>129</ele>
<time>2024-05-11T12:43:11Z</time>
</trkpt>
<trkpt lat="49.76005934178829" lon="9.51658529229462">
<ele>129</ele>
<time>2024-05-11T12:43:13Z</time>
</trkpt>
<trkpt lat="49.76005934178829" lon="9.516586298123002">
<ele>129</ele>
<time>2024-05-11T12:43:16Z</time>
</trkpt>
<trkpt lat="49.76006311364472" lon="9.5165881421417">
<ele>129</ele>
<time>2024-05-11T12:43:17Z</time>
</trkpt>
<trkpt lat="49.76005934178829" lon="9.5165881421417">
<ele>129</ele>
<time>2024-05-11T12:43:20Z</time>
</trkpt>
<trkpt lat="49.76006311364472" lon="9.5165881421417">
<ele>129</ele>
<time>2024-05-11T12:43:21Z</time>
</trkpt>
<trkpt lat="49.76006311364472" lon="9.51659006997943">
<ele>129</ele>
<time>2024-05-11T12:43:22Z</time>
</trkpt>
<trkpt lat="49.76006311364472" lon="9.51659199781716">
<ele>129</ele>
<time>2024-05-11T12:43:24Z</time>
</trkpt>
<trkpt lat="49.76006311364472" lon="9.516594847664235">
<ele>129</ele>
<time>2024-05-11T12:43:26Z</time>
</trkpt>
<trkpt lat="49.76006311364472" lon="9.516596775501966">
<ele>129</ele>
<time>2024-05-11T12:43:27Z</time>
</trkpt>
<trkpt lat="49.76006696932018" lon="9.516596775501966">
<ele>129</ele>
<time>2024-05-11T12:43:28Z</time>
</trkpt>
<trkpt lat="49.76006696932018" lon="9.516598619520664">
<ele>129</ele>
<time>2024-05-11T12:43:29Z</time>
</trkpt>
<trkpt lat="49.76006696932018" lon="9.516596775501966">
<ele>129</ele>
<time>2024-05-11T12:43:30Z</time>
</trkpt>
<trkpt lat="49.76006696932018" lon="9.516598619520664">
<ele>129</ele>
<time>2024-05-11T12:43:31Z</time>
</trkpt>
<trkpt lat="49.76006696932018" lon="9.516599625349045">
<ele>129</ele>
<time>2024-05-11T12:43:36Z</time>
</trkpt>
<trkpt lat="49.76006696932018" lon="9.516601553186774">
<ele>129</ele>
<time>2024-05-11T12:43:39Z</time>
</trkpt>
<trkpt lat="49.76006311364472" lon="9.516601553186774">
<ele>129</ele>
<time>2024-05-11T12:43:40Z</time>
</trkpt>
<trkpt lat="49.76006696932018" lon="9.516603397205472">
<ele>129</ele>
<time>2024-05-11T12:43:41Z</time>
</trkpt>
<trkpt lat="49.76006696932018" lon="9.5166053250432">
<ele>129</ele>
<time>2024-05-11T12:43:44Z</time>
</trkpt>
<trkpt lat="49.76006696932018" lon="9.51660817489028">
<ele>129</ele>
<time>2024-05-11T12:43:45Z</time>
</trkpt>
<trkpt lat="49.76006696932018" lon="9.516606330871582">
<ele>129</ele>
<time>2024-05-11T12:43:46Z</time>
</trkpt>
<trkpt lat="49.76006696932018" lon="9.51660817489028">
<ele>129</ele>
<time>2024-05-11T12:43:47Z</time>
</trkpt>
<trkpt lat="49.76006696932018" lon="9.51661010272801">
<ele>129</ele>
<time>2024-05-11T12:43:48Z</time>
</trkpt>
<trkpt lat="49.76006311364472" lon="9.51661010272801">
<ele>129</ele>
<time>2024-05-11T12:43:52Z</time>
</trkpt>
<trkpt lat="49.76006311364472" lon="9.51661203056574">
<ele>129</ele>
<time>2024-05-11T12:43:53Z</time>
</trkpt>
<trkpt lat="49.76006696932018" lon="9.51661203056574">
<ele>129</ele>
<time>2024-05-11T12:43:54Z</time>
</trkpt>
<trkpt lat="49.76006696932018" lon="9.51660817489028">
<ele>129</ele>
<time>2024-05-11T12:43:57Z</time>
</trkpt>
<trkpt lat="49.76006696932018" lon="9.5166053250432">
<ele>129</ele>
<time>2024-05-11T12:44:00Z</time>
</trkpt>
<trkpt lat="49.76006696932018" lon="9.516603397205472">
<ele>129</ele>
<time>2024-05-11T12:44:03Z</time>
</trkpt>
<trkpt lat="49.76006696932018" lon="9.516601553186774">
<ele>129</ele>
<time>2024-05-11T12:44:06Z</time>
</trkpt>
<trkpt lat="49.76006311364472" lon="9.516601553186774">
<ele>129</ele>
<time>2024-05-11T12:44:07Z</time>
</trkpt>
<trkpt lat="49.76006311364472" lon="9.516599625349045">
<ele>129</ele>
<time>2024-05-11T12:44:08Z</time>
</trkpt>
<trkpt lat="49.76006311364472" lon="9.516601553186774">
<ele>129</ele>
<time>2024-05-11T12:44:09Z</time>
</trkpt>
<trkpt lat="49.76006311364472" lon="9.516603397205472">
<ele>129</ele>
<time>2024-05-11T12:44:11Z</time>
</trkpt>
<trkpt lat="49.76006311364472" lon="9.5166053250432">
<ele>129</ele>
<time>2024-05-11T12:44:12Z</time>
</trkpt>
<trkpt lat="49.76006311364472" lon="9.516603397205472">
<ele>129</ele>
<time>2024-05-11T12:44:13Z</time>
</trkpt>
<trkpt lat="49.76006311364472" lon="9.516601553186774">
<ele>129</ele>
<time>2024-05-11T12:44:16Z</time>
</trkpt>
<trkpt lat="49.76006311364472" lon="9.516603397205472">
<ele>129</ele>
<time>2024-05-11T12:44:26Z</time>
</trkpt>
<trkpt lat="49.76006311364472" lon="9.516598619520664">
<ele>129</ele>
<time>2024-05-11T12:44:29Z</time>
</trkpt>
<trkpt lat="49.76006311364472" lon="9.516596775501966">
<ele>129</ele>
<time>2024-05-11T12:44:33Z</time>
</trkpt>
<trkpt lat="49.76006311364472" lon="9.516598619520664">
<ele>129</ele>
<time>2024-05-11T12:44:34Z</time>
</trkpt>
<trkpt lat="49.76006311364472" lon="9.516596775501966">
<ele>129</ele>
<time>2024-05-11T12:44:35Z</time>
</trkpt>
<trkpt lat="49.76006311364472" lon="9.516594847664235">
<ele>129</ele>
<time>2024-05-11T12:44:39Z</time>
</trkpt>
<trkpt lat="49.76006311364472" lon="9.516596775501966">
<ele>129</ele>
<time>2024-05-11T12:44:43Z</time>
</trkpt>
<trkpt lat="49.76005934178829" lon="9.516596775501966">
<ele>129</ele>
<time>2024-05-11T12:44:53Z</time>
</trkpt>
<trkpt lat="49.76005934178829" lon="9.516594847664235">
<ele>129</ele>
<time>2024-05-11T12:45:01Z</time>
</trkpt>
<trkpt lat="49.76005548611283" lon="9.516594847664235">
<ele>129</ele>
<time>2024-05-11T12:45:04Z</time>
</trkpt>
<trkpt lat="49.76005548611283" lon="9.516592919826508">
<ele>129</ele>
<time>2024-05-11T12:45:08Z</time>
</trkpt>
<trkpt lat="49.76005548611283" lon="9.51659199781716">
<ele>129</ele>
<time>2024-05-11T12:45:12Z</time>
</trkpt>
<trkpt lat="49.76005548611283" lon="9.51659006997943">
<ele>129</ele>
<time>2024-05-11T12:45:15Z</time>
</trkpt>
<trkpt lat="49.76005548611283" lon="9.51659199781716">
<ele>129</ele>
<time>2024-05-11T12:45:18Z</time>
</trkpt>
<trkpt lat="49.76005548611283" lon="9.51659006997943">
<ele>129</ele>
<time>2024-05-11T12:45:19Z</time>
</trkpt>
<trkpt lat="49.76005934178829" lon="9.51659006997943">
<ele>129</ele>
<time>2024-05-11T12:45:22Z</time>
</trkpt>
<trkpt lat="49.76005934178829" lon="9.5165881421417">
<ele>129</ele>
<time>2024-05-11T12:45:24Z</time>
</trkpt>
<trkpt lat="49.76005934178829" lon="9.51659006997943">
<ele>129</ele>
<time>2024-05-11T12:45:26Z</time>
</trkpt>
<trkpt lat="49.76005934178829" lon="9.51659199781716">
<ele>129</ele>
<time>2024-05-11T12:45:28Z</time>
</trkpt>
<trkpt lat="49.76005934178829" lon="9.516592919826508">
<ele>129</ele>
<time>2024-05-11T12:45:34Z</time>
</trkpt>
<trkpt lat="49.76005934178829" lon="9.516594847664235">
<ele>129</ele>
<time>2024-05-11T12:45:38Z</time>
</trkpt>
<trkpt lat="49.76005934178829" lon="9.516596775501966">
<ele>129</ele>
<time>2024-05-11T12:45:39Z</time>
</trkpt>
<trkpt lat="49.76005934178829" lon="9.516598619520664">
<ele>129</ele>
<time>2024-05-11T12:45:40Z</time>
</trkpt>
<trkpt lat="49.76005548611283" lon="9.516598619520664">
<ele>129</ele>
<time>2024-05-11T12:45:42Z</time>
</trkpt>
<trkpt lat="49.76005548611283" lon="9.516599625349045">
<ele>129</ele>
<time>2024-05-11T12:45:44Z</time>
</trkpt>
<trkpt lat="49.76005548611283" lon="9.516601553186774">
<ele>129</ele>
<time>2024-05-11T12:45:47Z</time>
</trkpt>
<trkpt lat="49.76005548611283" lon="9.516603397205472">
<ele>129</ele>
<time>2024-05-11T12:45:52Z</time>
</trkpt>
<trkpt lat="49.76005548611283" lon="9.5166053250432">
<ele>129</ele>
<time>2024-05-11T12:45:55Z</time>
</trkpt>
<trkpt lat="49.760051714256406" lon="9.516606330871582">
<ele>129</ele>
<time>2024-05-11T12:45:56Z</time>
</trkpt>
<trkpt lat="49.760051714256406" lon="9.51660817489028">
<ele>129</ele>
<time>2024-05-11T12:45:58Z</time>
</trkpt>
<trkpt lat="49.760051714256406" lon="9.51661010272801">
<ele>129</ele>
<time>2024-05-11T12:45:59Z</time>
</trkpt>
<trkpt lat="49.760051714256406" lon="9.51661203056574">
<ele>129</ele>
<time>2024-05-11T12:46:01Z</time>
</trkpt>
<trkpt lat="49.760051714256406" lon="9.516612952575088">
<ele>129</ele>
<time>2024-05-11T12:46:03Z</time>
</trkpt>
<trkpt lat="49.760051714256406" lon="9.516614880412815">
<ele>129</ele>
<time>2024-05-11T12:46:05Z</time>
</trkpt>
<trkpt lat="49.760051714256406" lon="9.516616808250546">
<ele>129</ele>
<time>2024-05-11T12:46:08Z</time>
</trkpt>
<trkpt lat="49.76004785858095" lon="9.516616808250546">
<ele>129</ele>
<time>2024-05-11T12:46:09Z</time>
</trkpt>
<trkpt lat="49.76004785858095" lon="9.516618652269244">
<ele>129</ele>
<time>2024-05-11T12:46:10Z</time>
</trkpt>
<trkpt lat="49.76004785858095" lon="9.516619658097625">
<ele>129</ele>
<time>2024-05-11T12:46:12Z</time>
</trkpt>
<trkpt lat="49.76004785858095" lon="9.516621585935354">
<ele>129</ele>
<time>2024-05-11T12:46:14Z</time>
</trkpt>
<trkpt lat="49.76004785858095" lon="9.516623429954052">
<ele>129</ele>
<time>2024-05-11T12:46:15Z</time>
</trkpt>
<trkpt lat="49.76004785858095" lon="9.51662535779178">
<ele>129</ele>
<time>2024-05-11T12:46:18Z</time>
</trkpt>
<trkpt lat="49.76004785858095" lon="9.516623429954052">
<ele>129</ele>
<time>2024-05-11T12:46:20Z</time>
</trkpt>
<trkpt lat="49.76004785858095" lon="9.516621585935354">
<ele>129</ele>
<time>2024-05-11T12:46:21Z</time>
</trkpt>
<trkpt lat="49.76004785858095" lon="9.516619658097625">
<ele>129</ele>
<time>2024-05-11T12:46:23Z</time>
</trkpt>
<trkpt lat="49.76004785858095" lon="9.516616808250546">
<ele>129</ele>
<time>2024-05-11T12:46:25Z</time>
</trkpt>
<trkpt lat="49.76004785858095" lon="9.516614880412815">
<ele>129</ele>
<time>2024-05-11T12:46:26Z</time>
</trkpt>
<trkpt lat="49.760051714256406" lon="9.516614880412815">
<ele>129</ele>
<time>2024-05-11T12:46:27Z</time>
</trkpt>
<trkpt lat="49.760051714256406" lon="9.516612952575088">
<ele>129</ele>
<time>2024-05-11T12:46:28Z</time>
</trkpt>
<trkpt lat="49.760051714256406" lon="9.51661203056574">
<ele>129</ele>
<time>2024-05-11T12:46:29Z</time>
</trkpt>
<trkpt lat="49.760051714256406" lon="9.51661010272801">
<ele>129</ele>
<time>2024-05-11T12:46:31Z</time>
</trkpt>
<trkpt lat="49.760051714256406" lon="9.51660817489028">
<ele>129</ele>
<time>2024-05-11T12:46:37Z</time>
</trkpt>
<trkpt lat="49.76005548611283" lon="9.516612952575088">
<ele>129</ele>
<time>2024-05-11T12:46:38Z</time>
</trkpt>
<trkpt lat="49.76005548611283" lon="9.516618652269244">
<ele>129</ele>
<time>2024-05-11T12:46:39Z</time>
</trkpt>
<trkpt lat="49.76005934178829" lon="9.516619658097625">
<ele>129</ele>
<time>2024-05-11T12:46:40Z</time>
</trkpt>
<trkpt lat="49.76005934178829" lon="9.516623429954052">
<ele>129</ele>
<time>2024-05-11T12:46:41Z</time>
</trkpt>
<trkpt lat="49.76005934178829" lon="9.51662627980113">
<ele>129</ele>
<time>2024-05-11T12:46:42Z</time>
</trkpt>
<trkpt lat="49.76005934178829" lon="9.516632985323668">
<ele>129</ele>
<time>2024-05-11T12:46:45Z</time>
</trkpt>
<trkpt lat="49.76005934178829" lon="9.516639690846205">
<ele>129</ele>
<time>2024-05-11T12:46:46Z</time>
</trkpt>
<trkpt lat="49.76006311364472" lon="9.51664539054036">
<ele>129</ele>
<time>2024-05-11T12:46:47Z</time>
</trkpt>
<trkpt lat="49.76006311364472" lon="9.5166520960629">
<ele>129</ele>
<time>2024-05-11T12:46:48Z</time>
</trkpt>
<trkpt lat="49.76006311364472" lon="9.516658717766404">
<ele>129</ele>
<time>2024-05-11T12:46:49Z</time>
</trkpt>
<trkpt lat="49.76005934178829" lon="9.51666634529829">
<ele>129</ele>
<time>2024-05-11T12:46:50Z</time>
</trkpt>
<trkpt lat="49.76005548611283" lon="9.516673050820827">
<ele>129</ele>
<time>2024-05-11T12:46:51Z</time>
</trkpt>
<trkpt lat="49.76005548611283" lon="9.516679756343365">
<ele>129</ele>
<time>2024-05-11T12:46:52Z</time>
</trkpt>
<trkpt lat="49.76005548611283" lon="9.516683528199792">
<ele>129</ele>
<time>2024-05-11T12:46:53Z</time>
</trkpt>
<trkpt lat="49.76005548611283" lon="9.51668545603752">
<ele>129</ele>
<time>2024-05-11T12:46:55Z</time>
</trkpt>
<trkpt lat="49.760051714256406" lon="9.51668637804687">
<ele>129</ele>
<time>2024-05-11T12:46:56Z</time>
</trkpt>
<trkpt lat="49.760051714256406" lon="9.51669023372233">
<ele>129</ele>
<time>2024-05-11T12:46:57Z</time>
</trkpt>
<trkpt lat="49.760051714256406" lon="9.516693083569407">
<ele>129</ele>
<time>2024-05-11T12:46:58Z</time>
</trkpt>
<trkpt lat="49.760051714256406" lon="9.516695011407135">
<ele>129</ele>
<time>2024-05-11T12:46:59Z</time>
</trkpt>
<trkpt lat="49.76004785858095" lon="9.516696855425836">
<ele>129</ele>
<time>2024-05-11T12:47:00Z</time>
</trkpt>
<trkpt lat="49.76004785858095" lon="9.516698783263564">
<ele>129</ele>
<time>2024-05-11T12:47:01Z</time>
</trkpt>
<trkpt lat="49.76004785858095" lon="9.516699789091945">
<ele>129</ele>
<time>2024-05-11T12:47:02Z</time>
</trkpt>
<trkpt lat="49.76004785858095" lon="9.516701633110642">
<ele>129</ele>
<time>2024-05-11T12:47:03Z</time>
</trkpt>
<trkpt lat="49.76004408672452" lon="9.516701633110642">
<ele>129</ele>
<time>2024-05-11T12:47:04Z</time>
</trkpt>
<trkpt lat="49.76004408672452" lon="9.51670448295772">
<ele>129</ele>
<time>2024-05-11T12:47:06Z</time>
</trkpt>
<trkpt lat="49.76004023104906" lon="9.51670448295772">
<ele>129</ele>
<time>2024-05-11T12:47:07Z</time>
</trkpt>
<trkpt lat="49.76004408672452" lon="9.516703560948372">
<ele>129</ele>
<time>2024-05-11T12:47:08Z</time>
</trkpt>
<trkpt lat="49.76004408672452" lon="9.51670641079545">
<ele>129</ele>
<time>2024-05-11T12:47:09Z</time>
</trkpt>
<trkpt lat="49.76004408672452" lon="9.516713116317987">
<ele>129</ele>
<time>2024-05-11T12:47:10Z</time>
</trkpt>
<trkpt lat="49.76004023104906" lon="9.51672837138176">
<ele>129</ele>
<time>2024-05-11T12:47:11Z</time>
</trkpt>
<trkpt lat="49.76004023104906" lon="9.516737926751375">
<ele>129</ele>
<time>2024-05-11T12:47:12Z</time>
</trkpt>
<trkpt lat="49.76004408672452" lon="9.51674647629261">
<ele>129</ele>
<time>2024-05-11T12:47:13Z</time>
</trkpt>
<trkpt lat="49.76004408672452" lon="9.516757959499955">
<ele>129</ele>
<time>2024-05-11T12:47:14Z</time>
</trkpt>
<trkpt lat="49.76004408672452" lon="9.51676650904119">
<ele>129</ele>
<time>2024-05-11T12:47:15Z</time>
</trkpt>
<trkpt lat="49.76004785858095" lon="9.516775058582423">
<ele>129</ele>
<time>2024-05-11T12:47:16Z</time>
</trkpt>
<trkpt lat="49.76004408672452" lon="9.51678461395204">
<ele>129</ele>
<time>2024-05-11T12:47:17Z</time>
</trkpt>
<trkpt lat="49.76004408672452" lon="9.516791319474578">
<ele>129</ele>
<time>2024-05-11T12:47:18Z</time>
</trkpt>
<trkpt lat="49.76004023104906" lon="9.516797941178083">
<ele>129</ele>
<time>2024-05-11T12:47:19Z</time>
</trkpt>
<trkpt lat="49.760036459192634" lon="9.51680464670062">
<ele>129</ele>
<time>2024-05-11T12:47:20Z</time>
</trkpt>
<trkpt lat="49.760032603517175" lon="9.516810346394776">
<ele>129</ele>
<time>2024-05-11T12:47:21Z</time>
</trkpt>
<trkpt lat="49.76002883166075" lon="9.516815124079583">
<ele>129</ele>
<time>2024-05-11T12:47:22Z</time>
</trkpt>
<trkpt lat="49.76002883166075" lon="9.516813196241856">
<ele>129</ele>
<time>2024-05-11T12:47:23Z</time>
</trkpt>
<trkpt lat="49.76002883166075" lon="9.516815124079583">
<ele>129</ele>
<time>2024-05-11T12:47:24Z</time>
</trkpt>
<trkpt lat="49.76002497598529" lon="9.516815124079583">
<ele>129</ele>
<time>2024-05-11T12:47:25Z</time>
</trkpt>
<trkpt lat="49.76002497598529" lon="9.516817051917316">
<ele>129</ele>
<time>2024-05-11T12:47:26Z</time>
</trkpt>
<trkpt lat="49.76002497598529" lon="9.516815124079583">
<ele>129</ele>
<time>2024-05-11T12:47:27Z</time>
</trkpt>
<trkpt lat="49.76002497598529" lon="9.516813196241856">
<ele>129</ele>
<time>2024-05-11T12:47:28Z</time>
</trkpt>
<trkpt lat="49.76002497598529" lon="9.516810346394776">
<ele>129</ele>
<time>2024-05-11T12:47:29Z</time>
</trkpt>
<trkpt lat="49.76002497598529" lon="9.516811352223158">
<ele>129</ele>
<time>2024-05-11T12:47:30Z</time>
</trkpt>
<trkpt lat="49.76002120412886" lon="9.516813196241856">
<ele>129</ele>
<time>2024-05-11T12:47:31Z</time>
</trkpt>
<trkpt lat="49.76002120412886" lon="9.516811352223158">
<ele>129</ele>
<time>2024-05-11T12:47:32Z</time>
</trkpt>
<trkpt lat="49.76002120412886" lon="9.51680850237608">
<ele>129</ele>
<time>2024-05-11T12:47:33Z</time>
</trkpt>
<trkpt lat="49.76002120412886" lon="9.51680464670062">
<ele>129</ele>
<time>2024-05-11T12:47:34Z</time>
</trkpt>
<trkpt lat="49.7600173484534" lon="9.516803724691272">
<ele>129</ele>
<time>2024-05-11T12:47:35Z</time>
</trkpt>
<trkpt lat="49.7600173484534" lon="9.516801796853542">
<ele>129</ele>
<time>2024-05-11T12:47:36Z</time>
</trkpt>
<trkpt lat="49.7600173484534" lon="9.516799869015813">
<ele>129</ele>
<time>2024-05-11T12:47:37Z</time>
</trkpt>
<trkpt lat="49.760013576596975" lon="9.516797941178083">
<ele>129</ele>
<time>2024-05-11T12:47:38Z</time>
</trkpt>
<trkpt lat="49.76000972092152" lon="9.516797019168736">
<ele>129</ele>
<time>2024-05-11T12:47:40Z</time>
</trkpt>
<trkpt lat="49.76000972092152" lon="9.516793247312307">
<ele>129</ele>
<time>2024-05-11T12:47:43Z</time>
</trkpt>
<trkpt lat="49.759971583262086" lon="9.516756953671576">
<ele>129</ele>
<time>2024-05-11T12:47:43Z</time>
</trkpt>
<trkpt lat="49.759971583262086" lon="9.516759803518651">
<ele>129</ele>
<time>2024-05-11T12:47:45Z</time>
</trkpt>
<trkpt lat="49.759971583262086" lon="9.516755025833843">
<ele>129</ele>
<time>2024-05-11T12:47:46Z</time>
</trkpt>
<trkpt lat="49.759971583262086" lon="9.51674454845488">
<ele>129</ele>
<time>2024-05-11T12:47:47Z</time>
</trkpt>
<trkpt lat="49.75996772758663" lon="9.516743626445532">
<ele>129</ele>
<time>2024-05-11T12:47:49Z</time>
</trkpt>
<trkpt lat="49.759971583262086" lon="9.516750331968067">
<ele>129</ele>
<time>2024-05-11T12:47:50Z</time>
</trkpt>
<trkpt lat="49.759971583262086" lon="9.516755025833843">
<ele>129</ele>
<time>2024-05-11T12:47:51Z</time>
</trkpt>
<trkpt lat="49.75997535511851" lon="9.516757959499955">
<ele>129</ele>
<time>2024-05-11T12:47:52Z</time>
</trkpt>
<trkpt lat="49.75997921079397" lon="9.516753181815147">
<ele>129</ele>
<time>2024-05-11T12:47:53Z</time>
</trkpt>
<trkpt lat="49.75997921079397" lon="9.516750331968067">
<ele>129</ele>
<time>2024-05-11T12:47:54Z</time>
</trkpt>
<trkpt lat="49.7599829826504" lon="9.516750331968067">
<ele>129</ele>
<time>2024-05-11T12:47:55Z</time>
</trkpt>
<trkpt lat="49.7599829826504" lon="9.516756953671576">
<ele>129</ele>
<time>2024-05-11T12:47:56Z</time>
</trkpt>
<trkpt lat="49.7599829826504" lon="9.51676650904119">
<ele>129</ele>
<time>2024-05-11T12:47:57Z</time>
</trkpt>
<trkpt lat="49.7599829826504" lon="9.516779836267231">
<ele>129</ele>
<time>2024-05-11T12:47:58Z</time>
</trkpt>
<trkpt lat="49.7599829826504" lon="9.516791319474578">
<ele>129</ele>
<time>2024-05-11T12:47:59Z</time>
</trkpt>
<trkpt lat="49.7599829826504" lon="9.516811352223158">
<ele>129</ele>
<time>2024-05-11T12:48:00Z</time>
</trkpt>
<trkpt lat="49.75997921079397" lon="9.5168246794492">
<ele>129</ele>
<time>2024-05-11T12:48:01Z</time>
</trkpt>
<trkpt lat="49.75997921079397" lon="9.516836162656546">
<ele>129</ele>
<time>2024-05-11T12:48:02Z</time>
</trkpt>
<trkpt lat="49.75997921079397" lon="9.516849489882588">
<ele>129</ele>
<time>2024-05-11T12:48:03Z</time>
</trkpt>
<trkpt lat="49.7599829826504" lon="9.516855189576743">
<ele>129</ele>
<time>2024-05-11T12:48:04Z</time>
</trkpt>
<trkpt lat="49.759990610182285" lon="9.516859967261553">
<ele>129</ele>
<time>2024-05-11T12:48:05Z</time>
</trkpt>
<trkpt lat="49.759990610182285" lon="9.516873294487596">
<ele>129</ele>
<time>2024-05-11T12:48:06Z</time>
</trkpt>
<trkpt lat="49.759990610182285" lon="9.516870444640515">
<ele>129</ele>
<time>2024-05-11T12:48:07Z</time>
</trkpt>
<trkpt lat="49.759994465857744" lon="9.516870444640515">
<ele>129</ele>
<time>2024-05-11T12:48:08Z</time>
</trkpt>
<trkpt lat="49.759990610182285" lon="9.516855189576743">
<ele>129</ele>
<time>2024-05-11T12:48:09Z</time>
</trkpt>
<trkpt lat="49.75998683832586" lon="9.51684664003551">
<ele>129</ele>
<time>2024-05-11T12:48:10Z</time>
</trkpt>
<trkpt lat="49.75997921079397" lon="9.516817973926663">
<ele>129</ele>
<time>2024-05-11T12:48:11Z</time>
</trkpt>
<trkpt lat="49.759994465857744" lon="9.516811352223158">
<ele>129</ele>
<time>2024-05-11T12:48:12Z</time>
</trkpt>
<trkpt lat="49.75998683832586" lon="9.516791319474578">
<ele>129</ele>
<time>2024-05-11T12:48:13Z</time>
</trkpt>
<trkpt lat="49.759990610182285" lon="9.51680464670062">
<ele>129</ele>
<time>2024-05-11T12:48:14Z</time>
</trkpt>
<trkpt lat="49.759990610182285" lon="9.516803724691272">
<ele>129</ele>
<time>2024-05-11T12:48:15Z</time>
</trkpt>
<trkpt lat="49.7599983215332" lon="9.51680657453835">
<ele>129</ele>
<time>2024-05-11T12:48:16Z</time>
</trkpt>
<trkpt lat="49.76000209338963" lon="9.516813196241856">
<ele>129</ele>
<time>2024-05-11T12:48:17Z</time>
</trkpt>
<trkpt lat="49.76000594906509" lon="9.516819901764393">
<ele>129</ele>
<time>2024-05-11T12:48:18Z</time>
</trkpt>
<trkpt lat="49.76002120412886" lon="9.51682853512466">
<ele>129</ele>
<time>2024-05-11T12:48:19Z</time>
</trkpt>
<trkpt lat="49.76002497598529" lon="9.516817051917316">
<ele>129</ele>
<time>2024-05-11T12:48:20Z</time>
</trkpt>
<trkpt lat="49.76002883166075" lon="9.516811352223158">
<ele>129</ele>
<time>2024-05-11T12:48:23Z</time>
</trkpt>
<trkpt lat="49.76002497598529" lon="9.516790313646196">
<ele>129</ele>
<time>2024-05-11T12:48:24Z</time>
</trkpt>
<trkpt lat="49.76002497598529" lon="9.516779836267231">
<ele>129</ele>
<time>2024-05-11T12:48:25Z</time>
</trkpt>
<trkpt lat="49.76002497598529" lon="9.516781764104962">
<ele>129</ele>
<time>2024-05-11T12:48:26Z</time>
</trkpt>
<trkpt lat="49.76002497598529" lon="9.516790313646196">
<ele>129</ele>
<time>2024-05-11T12:48:27Z</time>
</trkpt>
<trkpt lat="49.76002497598529" lon="9.516791319474578">
<ele>129</ele>
<time>2024-05-11T12:48:28Z</time>
</trkpt>
<trkpt lat="49.76002497598529" lon="9.516776986420156">
<ele>129</ele>
<time>2024-05-11T12:48:29Z</time>
</trkpt>
<trkpt lat="49.7600173484534" lon="9.516775058582423">
<ele>129</ele>
<time>2024-05-11T12:48:30Z</time>
</trkpt>
<trkpt lat="49.76002120412886" lon="9.516781764104962">
<ele>129</ele>
<time>2024-05-11T12:48:31Z</time>
</trkpt>
<trkpt lat="49.76000594906509" lon="9.516771286725998">
<ele>129</ele>
<time>2024-05-11T12:48:32Z</time>
</trkpt>
<trkpt lat="49.76000209338963" lon="9.51676650904119">
<ele>129</ele>
<time>2024-05-11T12:48:33Z</time>
</trkpt>
<trkpt lat="49.760013576596975" lon="9.51682853512466">
<ele>129</ele>
<time>2024-05-11T12:48:34Z</time>
</trkpt>
<trkpt lat="49.76000972092152" lon="9.516833228990436">
<ele>129</ele>
<time>2024-05-11T12:48:35Z</time>
</trkpt>
<trkpt lat="49.7600173484534" lon="9.516891399398446">
<ele>129</ele>
<time>2024-05-11T12:48:36Z</time>
</trkpt>
<trkpt lat="49.76000209338963" lon="9.516876144334674">
<ele>129</ele>
<time>2024-05-11T12:48:37Z</time>
</trkpt>
<trkpt lat="49.759994465857744" lon="9.516859967261553">
<ele>129</ele>
<time>2024-05-11T12:48:38Z</time>
</trkpt>
<trkpt lat="49.7599639557302" lon="9.516841862350702">
<ele>129</ele>
<time>2024-05-11T12:48:39Z</time>
</trkpt>
<trkpt lat="49.759956328198314" lon="9.516817973926663">
<ele>129</ele>
<time>2024-05-11T12:48:40Z</time>
</trkpt>
<trkpt lat="49.75994870066643" lon="9.516791319474578">
<ele>129</ele>
<time>2024-05-11T12:48:41Z</time>
</trkpt>
<trkpt lat="49.759956328198314" lon="9.516779836267231">
<ele>129</ele>
<time>2024-05-11T12:48:42Z</time>
</trkpt>
<trkpt lat="49.75994484499097" lon="9.51674454845488">
<ele>129</ele>
<time>2024-05-11T12:48:43Z</time>
</trkpt>
<trkpt lat="49.75994484499097" lon="9.516756953671576">
<ele>129</ele>
<time>2024-05-11T12:48:44Z</time>
</trkpt>
<trkpt lat="49.75993721745908" lon="9.51672837138176">
<ele>129</ele>
<time>2024-05-11T12:48:45Z</time>
</trkpt>
<trkpt lat="49.75994484499097" lon="9.516731221228838">
<ele>129</ele>
<time>2024-05-11T12:48:46Z</time>
</trkpt>
<trkpt lat="49.75994870066643" lon="9.51674454845488">
<ele>129</ele>
<time>2024-05-11T12:48:47Z</time>
</trkpt>
<trkpt lat="49.75994870066643" lon="9.516750331968067">
<ele>129</ele>
<time>2024-05-11T12:48:48Z</time>
</trkpt>
<trkpt lat="49.75994870066643" lon="9.516753181815147">
<ele>129</ele>
<time>2024-05-11T12:48:49Z</time>
</trkpt>
<trkpt lat="49.75994484499097" lon="9.51674840413034">
<ele>129</ele>
<time>2024-05-11T12:48:50Z</time>
</trkpt>
<trkpt lat="49.75996010005474" lon="9.51678654178977">
<ele>129</ele>
<time>2024-05-11T12:48:51Z</time>
</trkpt>
<trkpt lat="49.7599829826504" lon="9.516831384971738">
<ele>129</ele>
<time>2024-05-11T12:48:52Z</time>
</trkpt>
<trkpt lat="49.75998683832586" lon="9.51682660728693">
<ele>129</ele>
<time>2024-05-11T12:48:53Z</time>
</trkpt>
<trkpt lat="49.7599983215332" lon="9.516882849857211">
<ele>129</ele>
<time>2024-05-11T12:48:54Z</time>
</trkpt>
<trkpt lat="49.759994465857744" lon="9.516880000010133">
<ele>129</ele>
<time>2024-05-11T12:48:55Z</time>
</trkpt>
<trkpt lat="49.75998683832586" lon="9.516876144334674">
<ele>129</ele>
<time>2024-05-11T12:48:56Z</time>
</trkpt>
<trkpt lat="49.759994465857744" lon="9.516873294487596">
<ele>129</ele>
<time>2024-05-11T12:48:57Z</time>
</trkpt>
<trkpt lat="49.75998683832586" lon="9.516868516802788">
<ele>129</ele>
<time>2024-05-11T12:48:58Z</time>
</trkpt>
<trkpt lat="49.75998683832586" lon="9.516871450468898">
<ele>129</ele>
<time>2024-05-11T12:48:59Z</time>
</trkpt>
<trkpt lat="49.759990610182285" lon="9.51686667278409">
<ele>129</ele>
<time>2024-05-11T12:49:00Z</time>
</trkpt>
<trkpt lat="49.75997535511851" lon="9.516833228990436">
<ele>129</ele>
<time>2024-05-11T12:49:01Z</time>
</trkpt>
<trkpt lat="49.7599639557302" lon="9.516817973926663">
<ele>129</ele>
<time>2024-05-11T12:49:02Z</time>
</trkpt>
<trkpt lat="49.75996010005474" lon="9.516817051917316">
<ele>129</ele>
<time>2024-05-11T12:49:03Z</time>
</trkpt>
<trkpt lat="49.759956328198314" lon="9.516811352223158">
<ele>129</ele>
<time>2024-05-11T12:49:04Z</time>
</trkpt>
<trkpt lat="49.75994484499097" lon="9.516799869015813">
<ele>129</ele>
<time>2024-05-11T12:49:05Z</time>
</trkpt>
<trkpt lat="49.75993721745908" lon="9.516823757439852">
<ele>129</ele>
<time>2024-05-11T12:49:06Z</time>
</trkpt>
<trkpt lat="49.75994107313454" lon="9.51686667278409">
<ele>129</ele>
<time>2024-05-11T12:49:07Z</time>
</trkpt>
<trkpt lat="49.75994107313454" lon="9.516882849857211">
<ele>129</ele>
<time>2024-05-11T12:49:08Z</time>
</trkpt>
<trkpt lat="49.75993721745908" lon="9.516911432147026">
<ele>129</ele>
<time>2024-05-11T12:49:09Z</time>
</trkpt>
<trkpt lat="49.759933445602655" lon="9.516946719959378">
<ele>129</ele>
<time>2024-05-11T12:49:10Z</time>
</trkpt>
<trkpt lat="49.75991819053888" lon="9.516953425481915">
<ele>129</ele>
<time>2024-05-11T12:49:11Z</time>
</trkpt>
<trkpt lat="49.7599295899272" lon="9.517026850953698">
<ele>129</ele>
<time>2024-05-11T12:49:12Z</time>
</trkpt>
<trkpt lat="49.75992581807077" lon="9.517029700800776">
<ele>129</ele>
<time>2024-05-11T12:49:13Z</time>
</trkpt>
<trkpt lat="49.75992196239531" lon="9.517033556476235">
<ele>129</ele>
<time>2024-05-11T12:49:14Z</time>
</trkpt>
<trkpt lat="49.75992196239531" lon="9.517028778791428">
<ele>129</ele>
<time>2024-05-11T12:49:15Z</time>
</trkpt>
<trkpt lat="49.75992196239531" lon="9.51702014543116">
<ele>129</ele>
<time>2024-05-11T12:49:16Z</time>
</trkpt>
<trkpt lat="49.75992196239531" lon="9.517023079097273">
<ele>129</ele>
<time>2024-05-11T12:49:17Z</time>
</trkpt>
<trkpt lat="49.75992196239531" lon="9.517029700800776">
<ele>129</ele>
<time>2024-05-11T12:49:18Z</time>
</trkpt>
<trkpt lat="49.75991819053888" lon="9.517004890367389">
<ele>129</ele>
<time>2024-05-11T12:49:19Z</time>
</trkpt>
<trkpt lat="49.759910563007" lon="9.516978235915303">
<ele>129</ele>
<time>2024-05-11T12:49:20Z</time>
</trkpt>
<trkpt lat="49.759910563007" lon="9.516968680545688">
<ele>129</ele>
<time>2024-05-11T12:49:21Z</time>
</trkpt>
<trkpt lat="49.75991819053888" lon="9.516993490979075">
<ele>129</ele>
<time>2024-05-11T12:49:22Z</time>
</trkpt>
<trkpt lat="49.759933445602655" lon="9.516983013600113">
<ele>129</ele>
<time>2024-05-11T12:49:23Z</time>
</trkpt>
<trkpt lat="49.759933445602655" lon="9.517113603651524">
<ele>129</ele>
<time>2024-05-11T12:49:24Z</time>
</trkpt>
<trkpt lat="49.75994484499097" lon="9.517109831795096">
<ele>129</ele>
<time>2024-05-11T12:49:25Z</time>
</trkpt>
<trkpt lat="49.75994870066643" lon="9.5170802436769">
<ele>129</ele>
<time>2024-05-11T12:49:26Z</time>
</trkpt>
<trkpt lat="49.75994870066643" lon="9.517071694135666">
<ele>129</ele>
<time>2024-05-11T12:49:27Z</time>
</trkpt>
<trkpt lat="49.75994870066643" lon="9.517058366909623">
<ele>129</ele>
<time>2024-05-11T12:49:28Z</time>
</trkpt>
<trkpt lat="49.759956328198314" lon="9.5170630607754">
<ele>129</ele>
<time>2024-05-11T12:49:29Z</time>
</trkpt>
<trkpt lat="49.759956328198314" lon="9.51706021092832">
<ele>129</ele>
<time>2024-05-11T12:49:30Z</time>
</trkpt>
<trkpt lat="49.75996010005474" lon="9.51706021092832">
<ele>129</ele>
<time>2024-05-11T12:49:31Z</time>
</trkpt>
<trkpt lat="49.75996010005474" lon="9.517046883702278">
<ele>129</ele>
<time>2024-05-11T12:49:32Z</time>
</trkpt>
<trkpt lat="49.759971583262086" lon="9.516931464895606">
<ele>129</ele>
<time>2024-05-11T12:49:33Z</time>
</trkpt>
<trkpt lat="49.759971583262086" lon="9.516908582299948">
<ele>129</ele>
<time>2024-05-11T12:49:34Z</time>
</trkpt>
<trkpt lat="49.759956328198314" lon="9.516896177083254">
<ele>129</ele>
<time>2024-05-11T12:49:35Z</time>
</trkpt>
<trkpt lat="49.759952472522855" lon="9.516895255073903">
<ele>129</ele>
<time>2024-05-11T12:49:37Z</time>
</trkpt>
<trkpt lat="49.759952472522855" lon="9.516896177083254">
<ele>129</ele>
<time>2024-05-11T12:49:38Z</time>
</trkpt>
<trkpt lat="49.75994870066643" lon="9.516900032758713">
<ele>129</ele>
<time>2024-05-11T12:49:39Z</time>
</trkpt>
<trkpt lat="49.759952472522855" lon="9.516902882605793">
<ele>129</ele>
<time>2024-05-11T12:49:40Z</time>
</trkpt>
<trkpt lat="49.759952472522855" lon="9.516909588128328">
<ele>129</ele>
<time>2024-05-11T12:49:41Z</time>
</trkpt>
<trkpt lat="49.759952472522855" lon="9.516902882605793">
<ele>129</ele>
<time>2024-05-11T12:49:42Z</time>
</trkpt>
<trkpt lat="49.75996010005474" lon="9.516931464895606">
<ele>129</ele>
<time>2024-05-11T12:49:43Z</time>
</trkpt>
<trkpt lat="49.759994465857744" lon="9.517013523727655">
<ele>129</ele>
<time>2024-05-11T12:49:44Z</time>
</trkpt>
<trkpt lat="49.76000972092152" lon="9.5170630607754">
<ele>129</ele>
<time>2024-05-11T12:49:45Z</time>
</trkpt>
<trkpt lat="49.7600173484534" lon="9.517074543982744">
<ele>129</ele>
<time>2024-05-11T12:49:46Z</time>
</trkpt>
<trkpt lat="49.76002120412886" lon="9.517074543982744">
<ele>129</ele>
<time>2024-05-11T12:49:47Z</time>
</trkpt>
<trkpt lat="49.760036459192634" lon="9.51708124950528">
<ele>129</ele>
<time>2024-05-11T12:49:48Z</time>
</trkpt>
<trkpt lat="49.76004408672452" lon="9.51708124950528">
<ele>129</ele>
<time>2024-05-11T12:49:49Z</time>
</trkpt>
<trkpt lat="49.76005548611283" lon="9.517093654721975">
<ele>129</ele>
<time>2024-05-11T12:49:50Z</time>
</trkpt>
<trkpt lat="49.76006311364472" lon="9.51708124950528">
<ele>129</ele>
<time>2024-05-11T12:49:51Z</time>
</trkpt>
<trkpt lat="49.760070741176605" lon="9.517074543982744">
<ele>129</ele>
<time>2024-05-11T12:49:52Z</time>
</trkpt>
<trkpt lat="49.76008599624038" lon="9.51708124950528">
<ele>129</ele>
<time>2024-05-11T12:49:53Z</time>
</trkpt>
<trkpt lat="49.76009747944772" lon="9.517078399658203">
<ele>129</ele>
<time>2024-05-11T12:49:54Z</time>
</trkpt>
<trkpt lat="49.76010510697961" lon="9.51708309352398">
<ele>129</ele>
<time>2024-05-11T12:49:55Z</time>
</trkpt>
<trkpt lat="49.76009747944772" lon="9.517074543982744">
<ele>129</ele>
<time>2024-05-11T12:49:56Z</time>
</trkpt>
<trkpt lat="49.76010125130415" lon="9.5170802436769">
<ele>129</ele>
<time>2024-05-11T12:49:57Z</time>
</trkpt>
<trkpt lat="49.76013561710715" lon="9.517107903957369">
<ele>129</ele>
<time>2024-05-11T12:49:58Z</time>
</trkpt>
<trkpt lat="49.76016998291016" lon="9.51712131500244">
<ele>129</ele>
<time>2024-05-11T12:49:59Z</time>
</trkpt>
<trkpt lat="49.7601661272347" lon="9.51712131500244">
<ele>129</ele>
<time>2024-05-11T12:50:00Z</time>
</trkpt>
<trkpt lat="49.7601661272347" lon="9.51712315902114">
<ele>129</ele>
<time>2024-05-11T12:50:01Z</time>
</trkpt>
<trkpt lat="49.7601661272347" lon="9.517125086858869">
<ele>129</ele>
<time>2024-05-11T12:50:02Z</time>
</trkpt>
<trkpt lat="49.76015849970281" lon="9.517134642228484">
<ele>129</ele>
<time>2024-05-11T12:50:04Z</time>
</trkpt>
<trkpt lat="49.760150872170925" lon="9.517133636400104">
<ele>129</ele>
<time>2024-05-11T12:50:05Z</time>
</trkpt>
<trkpt lat="49.76014324463904" lon="9.517154674977064">
<ele>129</ele>
<time>2024-05-11T12:50:06Z</time>
</trkpt>
<trkpt lat="49.760131761431694" lon="9.51714319176972">
<ele>129</ele>
<time>2024-05-11T12:50:07Z</time>
</trkpt>
<trkpt lat="49.760131761431694" lon="9.517138414084911">
<ele>129</ele>
<time>2024-05-11T12:50:08Z</time>
</trkpt>
<trkpt lat="49.76012413389981" lon="9.517129864543676">
<ele>129</ele>
<time>2024-05-11T12:50:09Z</time>
</trkpt>
<trkpt lat="49.760112734511495" lon="9.517125086858869">
<ele>129</ele>
<time>2024-05-11T12:50:10Z</time>
</trkpt>
<trkpt lat="49.76010887883603" lon="9.517125086858869">
<ele>129</ele>
<time>2024-05-11T12:50:11Z</time>
</trkpt>
<trkpt lat="49.760112734511495" lon="9.517127014696598">
<ele>129</ele>
<time>2024-05-11T12:50:12Z</time>
</trkpt>
<trkpt lat="49.76010125130415" lon="9.517116537317634">
<ele>129</ele>
<time>2024-05-11T12:50:13Z</time>
</trkpt>
<trkpt lat="49.76009362377226" lon="9.517114609479904">
<ele>129</ele>
<time>2024-05-11T12:50:14Z</time>
</trkpt>
<trkpt lat="49.76009362377226" lon="9.517106981948018">
<ele>129</ele>
<time>2024-05-11T12:50:15Z</time>
</trkpt>
<trkpt lat="49.76006311364472" lon="9.51706021092832">
<ele>129</ele>
<time>2024-05-11T12:50:16Z</time>
</trkpt>
<trkpt lat="49.760036459192634" lon="9.517031628638506">
<ele>129</ele>
<time>2024-05-11T12:50:17Z</time>
</trkpt>
<trkpt lat="49.760032603517175" lon="9.517018301412463">
<ele>129</ele>
<time>2024-05-11T12:50:18Z</time>
</trkpt>
<trkpt lat="49.76002883166075" lon="9.517011595889926">
<ele>129</ele>
<time>2024-05-11T12:50:19Z</time>
</trkpt>
<trkpt lat="49.76000972092152" lon="9.516976308077574">
<ele>129</ele>
<time>2024-05-11T12:50:20Z</time>
</trkpt>
<trkpt lat="49.7599983215332" lon="9.516949653625488">
<ele>129</ele>
<time>2024-05-11T12:50:21Z</time>
</trkpt>
<trkpt lat="49.7599829826504" lon="9.516920065507293">
<ele>129</ele>
<time>2024-05-11T12:50:22Z</time>
</trkpt>
<trkpt lat="49.75997535511851" lon="9.516901960596442">
<ele>129</ele>
<time>2024-05-11T12:50:23Z</time>
</trkpt>
<trkpt lat="49.75997535511851" lon="9.516882849857211">
<ele>129</ele>
<time>2024-05-11T12:50:24Z</time>
</trkpt>
<trkpt lat="49.759971583262086" lon="9.516878072172403">
<ele>129</ele>
<time>2024-05-11T12:50:25Z</time>
</trkpt>
<trkpt lat="49.759971583262086" lon="9.516870444640515">
<ele>129</ele>
<time>2024-05-11T12:50:26Z</time>
</trkpt>
<trkpt lat="49.75998683832586" lon="9.516871450468898">
<ele>129</ele>
<time>2024-05-11T12:50:27Z</time>
</trkpt>
<trkpt lat="49.759990610182285" lon="9.51686474494636">
<ele>129</ele>
<time>2024-05-11T12:50:28Z</time>
</trkpt>
<trkpt lat="49.75997535511851" lon="9.516857117414474">
<ele>129</ele>
<time>2024-05-11T12:50:29Z</time>
</trkpt>
<trkpt lat="49.759971583262086" lon="9.516859967261553">
<ele>129</ele>
<time>2024-05-11T12:50:30Z</time>
</trkpt>
<trkpt lat="49.7599639557302" lon="9.516858039423823">
<ele>129</ele>
<time>2024-05-11T12:50:31Z</time>
</trkpt>
<trkpt lat="49.759971583262086" lon="9.516871450468898">
<ele>129</ele>
<time>2024-05-11T12:50:32Z</time>
</trkpt>
<trkpt lat="49.75996772758663" lon="9.516868516802788">
<ele>129</ele>
<time>2024-05-11T12:50:33Z</time>
</trkpt>
<trkpt lat="49.7599639557302" lon="9.516873294487596">
<ele>129</ele>
<time>2024-05-11T12:50:34Z</time>
</trkpt>
<trkpt lat="49.75996010005474" lon="9.51688477769494">
<ele>129</ele>
<time>2024-05-11T12:50:35Z</time>
</trkpt>
<trkpt lat="49.759952472522855" lon="9.516902882605793">
<ele>129</ele>
<time>2024-05-11T12:50:36Z</time>
</trkpt>
<trkpt lat="49.75994484499097" lon="9.516908582299948">
<ele>129</ele>
<time>2024-05-11T12:50:37Z</time>
</trkpt>
<trkpt lat="49.75994870066643" lon="9.516908582299948">
<ele>129</ele>
<time>2024-05-11T12:50:38Z</time>
</trkpt>
<trkpt lat="49.75993721745908" lon="9.51690673828125">
<ele>129</ele>
<time>2024-05-11T12:50:39Z</time>
</trkpt>
<trkpt lat="49.759933445602655" lon="9.516908582299948">
<ele>129</ele>
<time>2024-05-11T12:50:40Z</time>
</trkpt>
<trkpt lat="49.75993721745908" lon="9.51690481044352">
<ele>129</ele>
<time>2024-05-11T12:50:41Z</time>
</trkpt>
<trkpt lat="49.75993721745908" lon="9.516908582299948">
<ele>129</ele>
<time>2024-05-11T12:50:42Z</time>
</trkpt>
<trkpt lat="49.75994484499097" lon="9.516898104920983">
<ele>129</ele>
<time>2024-05-11T12:50:43Z</time>
</trkpt>
<trkpt lat="49.75994107313454" lon="9.516896177083254">
<ele>129</ele>
<time>2024-05-11T12:50:44Z</time>
</trkpt>
<trkpt lat="49.759933445602655" lon="9.516901960596442">
<ele>129</ele>
<time>2024-05-11T12:50:45Z</time>
</trkpt>
<trkpt lat="49.759933445602655" lon="9.516896177083254">
<ele>129</ele>
<time>2024-05-11T12:50:46Z</time>
</trkpt>
<trkpt lat="49.75994107313454" lon="9.516901960596442">
<ele>129</ele>
<time>2024-05-11T12:50:47Z</time>
</trkpt>
<trkpt lat="49.759933445602655" lon="9.516896177083254">
<ele>129</ele>
<time>2024-05-11T12:50:48Z</time>
</trkpt>
<trkpt lat="49.7599295899272" lon="9.516901960596442">
<ele>129</ele>
<time>2024-05-11T12:50:49Z</time>
</trkpt>
<trkpt lat="49.759933445602655" lon="9.51690481044352">
<ele>129</ele>
<time>2024-05-11T12:50:50Z</time>
</trkpt>
<trkpt lat="49.759933445602655" lon="9.516900032758713">
<ele>129</ele>
<time>2024-05-11T12:50:52Z</time>
</trkpt>
<trkpt lat="49.75994870066643" lon="9.516895255073903">
<ele>129</ele>
<time>2024-05-11T12:50:53Z</time>
</trkpt>
<trkpt lat="49.75994870066643" lon="9.516896177083254">
<ele>129</ele>
<time>2024-05-11T12:50:54Z</time>
</trkpt>
<trkpt lat="49.759956328198314" lon="9.516911432147026">
<ele>129</ele>
<time>2024-05-11T12:50:55Z</time>
</trkpt>
<trkpt lat="49.759952472522855" lon="9.516909588128328">
<ele>129</ele>
<time>2024-05-11T12:50:56Z</time>
</trkpt>
<trkpt lat="49.75994870066643" lon="9.516908582299948">
<ele>129</ele>
<time>2024-05-11T12:50:57Z</time>
</trkpt>
<trkpt lat="49.759952472522855" lon="9.516915287822483">
<ele>129</ele>
<time>2024-05-11T12:50:58Z</time>
</trkpt>
<trkpt lat="49.759956328198314" lon="9.516916209831834">
<ele>129</ele>
<time>2024-05-11T12:50:59Z</time>
</trkpt>
<trkpt lat="49.759956328198314" lon="9.516921993345022">
<ele>129</ele>
<time>2024-05-11T12:51:00Z</time>
</trkpt>
<trkpt lat="49.759952472522855" lon="9.5169248431921">
<ele>129</ele>
<time>2024-05-11T12:51:01Z</time>
</trkpt>
<trkpt lat="49.759952472522855" lon="9.516922915354373">
<ele>129</ele>
<time>2024-05-11T12:51:02Z</time>
</trkpt>
<trkpt lat="49.75994870066643" lon="9.516926687210798">
<ele>129</ele>
<time>2024-05-11T12:51:03Z</time>
</trkpt>
<trkpt lat="49.759952472522855" lon="9.516933392733335">
<ele>129</ele>
<time>2024-05-11T12:51:04Z</time>
</trkpt>
<trkpt lat="49.759952472522855" lon="9.516931464895606">
<ele>129</ele>
<time>2024-05-11T12:51:05Z</time>
</trkpt>
<trkpt lat="49.75996010005474" lon="9.516936242580414">
<ele>129</ele>
<time>2024-05-11T12:51:06Z</time>
</trkpt>
<trkpt lat="49.7599639557302" lon="9.516940098255873">
<ele>129</ele>
<time>2024-05-11T12:51:07Z</time>
</trkpt>
<trkpt lat="49.7599639557302" lon="9.51694487594068">
<ele>129</ele>
<time>2024-05-11T12:51:08Z</time>
</trkpt>
<trkpt lat="49.75996010005474" lon="9.516949653625488">
<ele>129</ele>
<time>2024-05-11T12:51:09Z</time>
</trkpt>
<trkpt lat="49.75996010005474" lon="9.516942948102953">
<ele>129</ele>
<time>2024-05-11T12:51:10Z</time>
</trkpt>
<trkpt lat="49.75996010005474" lon="9.516936242580414">
<ele>129</ele>
<time>2024-05-11T12:51:11Z</time>
</trkpt>
<trkpt lat="49.75996010005474" lon="9.51694194227457">
<ele>129</ele>
<time>2024-05-11T12:51:12Z</time>
</trkpt>
<trkpt lat="49.759956328198314" lon="9.516960131004453">
<ele>129</ele>
<time>2024-05-11T12:51:13Z</time>
</trkpt>
<trkpt lat="49.759952472522855" lon="9.51696197502315">
<ele>129</ele>
<time>2024-05-11T12:51:14Z</time>
</trkpt>
<trkpt lat="49.759956328198314" lon="9.516976308077574">
<ele>129</ele>
<time>2024-05-11T12:51:15Z</time>
</trkpt>
<trkpt lat="49.759952472522855" lon="9.516984857618809">
<ele>129</ele>
<time>2024-05-11T12:51:16Z</time>
</trkpt>
<trkpt lat="49.75996010005474" lon="9.516983013600113">
<ele>129</ele>
<time>2024-05-11T12:51:17Z</time>
</trkpt>
<trkpt lat="49.7599639557302" lon="9.516989635303617">
<ele>129</ele>
<time>2024-05-11T12:51:18Z</time>
</trkpt>
<trkpt lat="49.7599639557302" lon="9.516983013600113">
<ele>129</ele>
<time>2024-05-11T12:51:19Z</time>
</trkpt>
<trkpt lat="49.75996010005474" lon="9.516983013600113">
<ele>129</ele>
<time>2024-05-11T12:51:20Z</time>
</trkpt>
<trkpt lat="49.75996010005474" lon="9.516980163753033">
<ele>129</ele>
<time>2024-05-11T12:51:21Z</time>
</trkpt>
<trkpt lat="49.759971583262086" lon="9.51700204052031">
<ele>129</ele>
<time>2024-05-11T12:51:22Z</time>
</trkpt>
<trkpt lat="49.7599829826504" lon="9.517028778791428">
<ele>129</ele>
<time>2024-05-11T12:51:23Z</time>
</trkpt>
<trkpt lat="49.7599983215332" lon="9.517049733549356">
<ele>129</ele>
<time>2024-05-11T12:51:24Z</time>
</trkpt>
<trkpt lat="49.76000594906509" lon="9.517078399658203">
<ele>129</ele>
<time>2024-05-11T12:51:25Z</time>
</trkpt>
<trkpt lat="49.76002120412886" lon="9.517107903957369">
<ele>129</ele>
<time>2024-05-11T12:51:26Z</time>
</trkpt>
<trkpt lat="49.7600173484534" lon="9.517085021361709">
<ele>129</ele>
<time>2024-05-11T12:51:27Z</time>
</trkpt>
<trkpt lat="49.76000972092152" lon="9.517066916450858">
<ele>129</ele>
<time>2024-05-11T12:51:28Z</time>
</trkpt>
<trkpt lat="49.76000209338963" lon="9.517047805711629">
<ele>129</ele>
<time>2024-05-11T12:51:29Z</time>
</trkpt>
<trkpt lat="49.759994465857744" lon="9.517031628638506">
<ele>129</ele>
<time>2024-05-11T12:51:30Z</time>
</trkpt>
<trkpt lat="49.75998683832586" lon="9.51702014543116">
<ele>129</ele>
<time>2024-05-11T12:51:31Z</time>
</trkpt>
<trkpt lat="49.7599829826504" lon="9.5170078240335">
<ele>129</ele>
<time>2024-05-11T12:51:32Z</time>
</trkpt>
<trkpt lat="49.75997921079397" lon="9.517003046348693">
<ele>129</ele>
<time>2024-05-11T12:51:33Z</time>
</trkpt>
<trkpt lat="49.75997535511851" lon="9.517003046348693">
<ele>129</ele>
<time>2024-05-11T12:51:34Z</time>
</trkpt>
<trkpt lat="49.75997921079397" lon="9.517013523727655">
<ele>129</ele>
<time>2024-05-11T12:51:35Z</time>
</trkpt>
<trkpt lat="49.75997921079397" lon="9.517024923115969">
<ele>129</ele>
<time>2024-05-11T12:51:36Z</time>
</trkpt>
<trkpt lat="49.75997921079397" lon="9.517033556476235">
<ele>129</ele>
<time>2024-05-11T12:51:37Z</time>
</trkpt>
<trkpt lat="49.75994484499097" lon="9.516973458230495">
<ele>129</ele>
<time>2024-05-11T12:51:38Z</time>
</trkpt>
<trkpt lat="49.7599295899272" lon="9.51694487594068">
<ele>129</ele>
<time>2024-05-11T12:51:39Z</time>
</trkpt>
<trkpt lat="49.759933445602655" lon="9.51694487594068">
<ele>129</ele>
<time>2024-05-11T12:51:40Z</time>
</trkpt>
<trkpt lat="49.759933445602655" lon="9.516951497644186">
<ele>129</ele>
<time>2024-05-11T12:51:41Z</time>
</trkpt>
<trkpt lat="49.759933445602655" lon="9.516955353319643">
<ele>129</ele>
<time>2024-05-11T12:51:42Z</time>
</trkpt>
<trkpt lat="49.75992581807077" lon="9.516946719959378">
<ele>129</ele>
<time>2024-05-11T12:51:43Z</time>
</trkpt>
<trkpt lat="49.75991819053888" lon="9.516922915354373">
<ele>129</ele>
<time>2024-05-11T12:51:44Z</time>
</trkpt>
<trkpt lat="49.75991819053888" lon="9.516916209831834">
<ele>129</ele>
<time>2024-05-11T12:51:45Z</time>
</trkpt>
<trkpt lat="49.759914334863424" lon="9.516920065507293">
<ele>129</ele>
<time>2024-05-11T12:51:46Z</time>
</trkpt>
<trkpt lat="49.75990670733154" lon="9.516978235915303">
<ele>129</ele>
<time>2024-05-11T12:51:48Z</time>
</trkpt>
<trkpt lat="49.75990670733154" lon="9.516984857618809">
<ele>129</ele>
<time>2024-05-11T12:51:49Z</time>
</trkpt>
<trkpt lat="49.75991819053888" lon="9.517004890367389">
<ele>129</ele>
<time>2024-05-11T12:51:50Z</time>
</trkpt>
<trkpt lat="49.75992196239531" lon="9.517013523727655">
<ele>129</ele>
<time>2024-05-11T12:51:51Z</time>
</trkpt>
<trkpt lat="49.75991819053888" lon="9.517016373574734">
<ele>129</ele>
<time>2024-05-11T12:51:52Z</time>
</trkpt>
<trkpt lat="49.75992581807077" lon="9.517024923115969">
<ele>129</ele>
<time>2024-05-11T12:51:53Z</time>
</trkpt>
<trkpt lat="49.75992196239531" lon="9.517029700800776">
<ele>129</ele>
<time>2024-05-11T12:51:54Z</time>
</trkpt>
<trkpt lat="49.75991819053888" lon="9.517031628638506">
<ele>129</ele>
<time>2024-05-11T12:51:55Z</time>
</trkpt>
<trkpt lat="49.75992581807077" lon="9.517046883702278">
<ele>129</ele>
<time>2024-05-11T12:51:56Z</time>
</trkpt>
<trkpt lat="49.75991819053888" lon="9.51704210601747">
<ele>129</ele>
<time>2024-05-11T12:51:57Z</time>
</trkpt>
<trkpt lat="49.75991819053888" lon="9.517046883702278">
<ele>129</ele>
<time>2024-05-11T12:51:58Z</time>
</trkpt>
<trkpt lat="49.75991819053888" lon="9.517054511234164">
<ele>129</ele>
<time>2024-05-11T12:51:59Z</time>
</trkpt>
<trkpt lat="49.75992196239531" lon="9.517067838460209">
<ele>129</ele>
<time>2024-05-11T12:52:00Z</time>
</trkpt>
<trkpt lat="49.75992581807077" lon="9.517071694135666">
<ele>129</ele>
<time>2024-05-11T12:52:01Z</time>
</trkpt>
<trkpt lat="49.75992196239531" lon="9.517067838460209">
<ele>129</ele>
<time>2024-05-11T12:52:02Z</time>
</trkpt>
<trkpt lat="49.75991819053888" lon="9.517069766297936">
<ele>129</ele>
<time>2024-05-11T12:52:03Z</time>
</trkpt>
<trkpt lat="49.75991819053888" lon="9.517071694135666">
<ele>129</ele>
<time>2024-05-11T12:52:04Z</time>
</trkpt>
<trkpt lat="49.759990610182285" lon="9.517176551744342">
<ele>129</ele>
<time>2024-05-11T12:52:05Z</time>
</trkpt>
<trkpt lat="49.759994465857744" lon="9.517189962789416">
<ele>129</ele>
<time>2024-05-11T12:52:06Z</time>
</trkpt>
<trkpt lat="49.7599983215332" lon="9.517198512330651">
<ele>129</ele>
<time>2024-05-11T12:52:07Z</time>
</trkpt>
<trkpt lat="49.76000209338963" lon="9.517196584492922">
<ele>129</ele>
<time>2024-05-11T12:52:08Z</time>
</trkpt>
<trkpt lat="49.76000209338963" lon="9.517198512330651">
<ele>129</ele>
<time>2024-05-11T12:52:09Z</time>
</trkpt>
<trkpt lat="49.76000209338963" lon="9.517187112942338">
<ele>129</ele>
<time>2024-05-11T12:52:10Z</time>
</trkpt>
<trkpt lat="49.76000594906509" lon="9.517185185104609">
<ele>129</ele>
<time>2024-05-11T12:52:11Z</time>
</trkpt>
<trkpt lat="49.76000972092152" lon="9.517174707725644">
<ele>129</ele>
<time>2024-05-11T12:52:12Z</time>
</trkpt>
<trkpt lat="49.76000209338963" lon="9.517158446833491">
<ele>129</ele>
<time>2024-05-11T12:52:13Z</time>
</trkpt>
<trkpt lat="49.76000209338963" lon="9.51716037467122">
<ele>129</ele>
<time>2024-05-11T12:52:14Z</time>
</trkpt>
<trkpt lat="49.76000972092152" lon="9.517176551744342">
<ele>129</ele>
<time>2024-05-11T12:52:15Z</time>
</trkpt>
<trkpt lat="49.76000594906509" lon="9.517165152356029">
<ele>129</ele>
<time>2024-05-11T12:52:16Z</time>
</trkpt>
<trkpt lat="49.76000209338963" lon="9.517151825129986">
<ele>129</ele>
<time>2024-05-11T12:52:17Z</time>
</trkpt>
<trkpt lat="49.7599983215332" lon="9.51714034192264">
<ele>129</ele>
<time>2024-05-11T12:52:18Z</time>
</trkpt>
<trkpt lat="49.76000209338963" lon="9.51714034192264">
<ele>129</ele>
<time>2024-05-11T12:52:19Z</time>
</trkpt>
<trkpt lat="49.7599983215332" lon="9.517131792381406">
<ele>129</ele>
<time>2024-05-11T12:52:20Z</time>
</trkpt>
<trkpt lat="49.759994465857744" lon="9.517116537317634">
<ele>129</ele>
<time>2024-05-11T12:52:21Z</time>
</trkpt>
<trkpt lat="49.759994465857744" lon="9.51710312627256">
<ele>129</ele>
<time>2024-05-11T12:52:22Z</time>
</trkpt>
<trkpt lat="49.759994465857744" lon="9.517096504569054">
<ele>129</ele>
<time>2024-05-11T12:52:23Z</time>
</trkpt>
<trkpt lat="49.7599983215332" lon="9.517085021361709">
<ele>129</ele>
<time>2024-05-11T12:52:24Z</time>
</trkpt>
<trkpt lat="49.76000209338963" lon="9.517076471820474">
<ele>129</ele>
<time>2024-05-11T12:52:25Z</time>
</trkpt>
<trkpt lat="49.7599983215332" lon="9.51706021092832">
<ele>129</ele>
<time>2024-05-11T12:52:26Z</time>
</trkpt>
<trkpt lat="49.7599983215332" lon="9.517053589224815">
<ele>129</ele>
<time>2024-05-11T12:52:27Z</time>
</trkpt>
<trkpt lat="49.759994465857744" lon="9.51704017817974">
<ele>129</ele>
<time>2024-05-11T12:52:29Z</time>
</trkpt>
<trkpt lat="49.7599983215332" lon="9.51704210601747">
<ele>129</ele>
<time>2024-05-11T12:52:30Z</time>
</trkpt>
<trkpt lat="49.759994465857744" lon="9.517046883702278">
<ele>129</ele>
<time>2024-05-11T12:52:31Z</time>
</trkpt>
<trkpt lat="49.75998683832586" lon="9.517036406323314">
<ele>129</ele>
<time>2024-05-11T12:52:32Z</time>
</trkpt>
<trkpt lat="49.7599829826504" lon="9.517028778791428">
<ele>129</ele>
<time>2024-05-11T12:52:33Z</time>
</trkpt>
<trkpt lat="49.75997921079397" lon="9.517024923115969">
<ele>129</ele>
<time>2024-05-11T12:52:34Z</time>
</trkpt>
<trkpt lat="49.759971583262086" lon="9.517015451565385">
<ele>129</ele>
<time>2024-05-11T12:52:35Z</time>
</trkpt>
<trkpt lat="49.75997535511851" lon="9.517023079097273">
<ele>129</ele>
<time>2024-05-11T12:52:36Z</time>
</trkpt>
<trkpt lat="49.759971583262086" lon="9.517009668052197">
<ele>129</ele>
<time>2024-05-11T12:52:37Z</time>
</trkpt>
<trkpt lat="49.7599829826504" lon="9.517034478485584">
<ele>129</ele>
<time>2024-05-11T12:52:38Z</time>
</trkpt>
<trkpt lat="49.75998683832586" lon="9.517036406323314">
<ele>129</ele>
<time>2024-05-11T12:52:39Z</time>
</trkpt>
<trkpt lat="49.75998683832586" lon="9.517033556476235">
<ele>129</ele>
<time>2024-05-11T12:52:40Z</time>
</trkpt>
<trkpt lat="49.7599829826504" lon="9.517043111845853">
<ele>129</ele>
<time>2024-05-11T12:52:41Z</time>
</trkpt>
<trkpt lat="49.7599829826504" lon="9.51704210601747">
<ele>129</ele>
<time>2024-05-11T12:52:42Z</time>
</trkpt>
<trkpt lat="49.7599829826504" lon="9.51704017817974">
<ele>129</ele>
<time>2024-05-11T12:52:43Z</time>
</trkpt>
<trkpt lat="49.75998683832586" lon="9.51704210601747">
<ele>129</ele>
<time>2024-05-11T12:52:44Z</time>
</trkpt>
<trkpt lat="49.75998683832586" lon="9.517043111845853">
<ele>129</ele>
<time>2024-05-11T12:52:45Z</time>
</trkpt>
<trkpt lat="49.759990610182285" lon="9.517049733549356">
<ele>129</ele>
<time>2024-05-11T12:52:46Z</time>
</trkpt>
<trkpt lat="49.759990610182285" lon="9.517046883702278">
<ele>129</ele>
<time>2024-05-11T12:52:47Z</time>
</trkpt>
<trkpt lat="49.759994465857744" lon="9.517053589224815">
<ele>129</ele>
<time>2024-05-11T12:52:48Z</time>
</trkpt>
<trkpt lat="49.759994465857744" lon="9.517056439071894">
<ele>129</ele>
<time>2024-05-11T12:52:49Z</time>
</trkpt>
<trkpt lat="49.75998683832586" lon="9.517049733549356">
<ele>129</ele>
<time>2024-05-11T12:52:50Z</time>
</trkpt>
<trkpt lat="49.75997921079397" lon="9.51704210601747">
<ele>129</ele>
<time>2024-05-11T12:52:51Z</time>
</trkpt>
<trkpt lat="49.759933445602655" lon="9.516980163753033">
<ele>129</ele>
<time>2024-05-11T12:52:52Z</time>
</trkpt>
<trkpt lat="49.75992581807077" lon="9.51696197502315">
<ele>129</ele>
<time>2024-05-11T12:52:53Z</time>
</trkpt>
<trkpt lat="49.759891452267766" lon="9.516896177083254">
<ele>129</ele>
<time>2024-05-11T12:52:54Z</time>
</trkpt>
<trkpt lat="49.759895307943225" lon="9.516893327236176">
<ele>129</ele>
<time>2024-05-11T12:52:55Z</time>
</trkpt>
<trkpt lat="49.759910563007" lon="9.516888549551368">
<ele>129</ele>
<time>2024-05-11T12:52:56Z</time>
</trkpt>
<trkpt lat="49.75992196239531" lon="9.516882849857211">
<ele>129</ele>
<time>2024-05-11T12:52:57Z</time>
</trkpt>
<trkpt lat="49.75992196239531" lon="9.516868516802788">
<ele>129</ele>
<time>2024-05-11T12:52:58Z</time>
</trkpt>
<trkpt lat="49.7599295899272" lon="9.516871450468898">
<ele>129</ele>
<time>2024-05-11T12:52:59Z</time>
</trkpt>
<trkpt lat="49.759933445602655" lon="9.516870444640515">
<ele>129</ele>
<time>2024-05-11T12:53:00Z</time>
</trkpt>
<trkpt lat="49.75993721745908" lon="9.516868516802788">
<ele>129</ele>
<time>2024-05-11T12:53:01Z</time>
</trkpt>
<trkpt lat="49.75994107313454" lon="9.516875222325323">
<ele>129</ele>
<time>2024-05-11T12:53:02Z</time>
</trkpt>
<trkpt lat="49.75994870066643" lon="9.51688477769494">
<ele>129</ele>
<time>2024-05-11T12:53:03Z</time>
</trkpt>
<trkpt lat="49.759956328198314" lon="9.516889555379748">
<ele>129</ele>
<time>2024-05-11T12:53:04Z</time>
</trkpt>
<trkpt lat="49.75994484499097" lon="9.516855189576743">
<ele>129</ele>
<time>2024-05-11T12:53:05Z</time>
</trkpt>
<trkpt lat="49.75996010005474" lon="9.516862817108631">
<ele>129</ele>
<time>2024-05-11T12:53:06Z</time>
</trkpt>
<trkpt lat="49.75996772758663" lon="9.516857117414474">
<ele>129</ele>
<time>2024-05-11T12:53:07Z</time>
</trkpt>
<trkpt lat="49.75997535511851" lon="9.516868516802788">
<ele>129</ele>
<time>2024-05-11T12:53:08Z</time>
</trkpt>
<trkpt lat="49.75997535511851" lon="9.516848484054208">
<ele>129</ele>
<time>2024-05-11T12:53:09Z</time>
</trkpt>
<trkpt lat="49.7599829826504" lon="9.516870444640515">
<ele>129</ele>
<time>2024-05-11T12:53:10Z</time>
</trkpt>
<trkpt lat="49.75998683832586" lon="9.516880000010133">
<ele>129</ele>
<time>2024-05-11T12:53:11Z</time>
</trkpt>
<trkpt lat="49.759990610182285" lon="9.516893327236176">
<ele>129</ele>
<time>2024-05-11T12:53:12Z</time>
</trkpt>
<trkpt lat="49.759990610182285" lon="9.516895255073903">
<ele>129</ele>
<time>2024-05-11T12:53:13Z</time>
</trkpt>
<trkpt lat="49.7599983215332" lon="9.516901960596442">
<ele>129</ele>
<time>2024-05-11T12:53:14Z</time>
</trkpt>
<trkpt lat="49.76000209338963" lon="9.51690673828125">
<ele>129</ele>
<time>2024-05-11T12:53:15Z</time>
</trkpt>
<trkpt lat="49.76000594906509" lon="9.516913359984756">
<ele>129</ele>
<time>2024-05-11T12:53:16Z</time>
</trkpt>
<trkpt lat="49.760013576596975" lon="9.516929620876908">
<ele>129</ele>
<time>2024-05-11T12:53:17Z</time>
</trkpt>
<trkpt lat="49.7600173484534" lon="9.516938170418143">
<ele>129</ele>
<time>2024-05-11T12:53:18Z</time>
</trkpt>
<trkpt lat="49.760013576596975" lon="9.516931464895606">
<ele>129</ele>
<time>2024-05-11T12:53:19Z</time>
</trkpt>
<trkpt lat="49.7600173484534" lon="9.516940098255873">
<ele>129</ele>
<time>2024-05-11T12:53:20Z</time>
</trkpt>
<trkpt lat="49.7600173484534" lon="9.51694487594068">
<ele>129</ele>
<time>2024-05-11T12:53:21Z</time>
</trkpt>
<trkpt lat="49.76002120412886" lon="9.516940098255873">
<ele>129</ele>
<time>2024-05-11T12:53:22Z</time>
</trkpt>
<trkpt lat="49.76002120412886" lon="9.51694194227457">
<ele>129</ele>
<time>2024-05-11T12:53:23Z</time>
</trkpt>
<trkpt lat="49.76000972092152" lon="9.516926687210798">
<ele>129</ele>
<time>2024-05-11T12:53:24Z</time>
</trkpt>
<trkpt lat="49.760013576596975" lon="9.516915287822483">
<ele>129</ele>
<time>2024-05-11T12:53:25Z</time>
</trkpt>
<trkpt lat="49.76000972092152" lon="9.516902882605793">
<ele>129</ele>
<time>2024-05-11T12:53:26Z</time>
</trkpt>
<trkpt lat="49.76000972092152" lon="9.516895255073903">
<ele>129</ele>
<time>2024-05-11T12:53:27Z</time>
</trkpt>
<trkpt lat="49.76000972092152" lon="9.516893327236176">
<ele>129</ele>
<time>2024-05-11T12:53:28Z</time>
</trkpt>
<trkpt lat="49.76000972092152" lon="9.516895255073903">
<ele>129</ele>
<time>2024-05-11T12:53:29Z</time>
</trkpt>
<trkpt lat="49.760013576596975" lon="9.516895255073903">
<ele>129</ele>
<time>2024-05-11T12:53:31Z</time>
</trkpt>
<trkpt lat="49.76000972092152" lon="9.516896177083254">
<ele>129</ele>
<time>2024-05-11T12:53:32Z</time>
</trkpt>
<trkpt lat="49.76000972092152" lon="9.516893327236176">
<ele>129</ele>
<time>2024-05-11T12:53:33Z</time>
</trkpt>
<trkpt lat="49.7600173484534" lon="9.516898104920983">
<ele>129</ele>
<time>2024-05-11T12:53:34Z</time>
</trkpt>
<trkpt lat="49.7600173484534" lon="9.516895255073903">
<ele>129</ele>
<time>2024-05-11T12:53:36Z</time>
</trkpt>
<trkpt lat="49.76002120412886" lon="9.51688477769494">
<ele>129</ele>
<time>2024-05-11T12:53:38Z</time>
</trkpt>
<trkpt lat="49.7600173484534" lon="9.516871450468898">
<ele>129</ele>
<time>2024-05-11T12:53:39Z</time>
</trkpt>
<trkpt lat="49.76002497598529" lon="9.516871450468898">
<ele>129</ele>
<time>2024-05-11T12:53:40Z</time>
</trkpt>
<trkpt lat="49.76002883166075" lon="9.516880000010133">
<ele>129</ele>
<time>2024-05-11T12:53:41Z</time>
</trkpt>
<trkpt lat="49.76002497598529" lon="9.516881927847862">
<ele>129</ele>
<time>2024-05-11T12:53:42Z</time>
</trkpt>
<trkpt lat="49.76002497598529" lon="9.516876144334674">
<ele>129</ele>
<time>2024-05-11T12:53:43Z</time>
</trkpt>
<trkpt lat="49.76002497598529" lon="9.516881927847862">
<ele>129</ele>
<time>2024-05-11T12:53:44Z</time>
</trkpt>
<trkpt lat="49.76002497598529" lon="9.516895255073903">
<ele>129</ele>
<time>2024-05-11T12:53:45Z</time>
</trkpt>
<trkpt lat="49.76002120412886" lon="9.516900032758713">
<ele>129</ele>
<time>2024-05-11T12:53:46Z</time>
</trkpt>
<trkpt lat="49.76002120412886" lon="9.516922915354373">
<ele>129</ele>
<time>2024-05-11T12:53:47Z</time>
</trkpt>
<trkpt lat="49.76002120412886" lon="9.516936242580414">
<ele>129</ele>
<time>2024-05-11T12:53:48Z</time>
</trkpt>
<trkpt lat="49.76000209338963" lon="9.516931464895606">
<ele>129</ele>
<time>2024-05-11T12:53:49Z</time>
</trkpt>
<trkpt lat="49.76000594906509" lon="9.516936242580414">
<ele>129</ele>
<time>2024-05-11T12:53:50Z</time>
</trkpt>
<trkpt lat="49.759994465857744" lon="9.516916209831834">
<ele>129</ele>
<time>2024-05-11T12:53:51Z</time>
</trkpt>
<trkpt lat="49.759990610182285" lon="9.516908582299948">
<ele>129</ele>
<time>2024-05-11T12:53:52Z</time>
</trkpt>
<trkpt lat="49.759990610182285" lon="9.516901960596442">
<ele>129</ele>
<time>2024-05-11T12:53:53Z</time>
</trkpt>
<trkpt lat="49.75998683832586" lon="9.516896177083254">
<ele>129</ele>
<time>2024-05-11T12:53:54Z</time>
</trkpt>
<trkpt lat="49.7599829826504" lon="9.516901960596442">
<ele>129</ele>
<time>2024-05-11T12:53:55Z</time>
</trkpt>
<trkpt lat="49.75997921079397" lon="9.516902882605793">
<ele>129</ele>
<time>2024-05-11T12:53:56Z</time>
</trkpt>
<trkpt lat="49.7599829826504" lon="9.5169248431921">
<ele>129</ele>
<time>2024-05-11T12:53:57Z</time>
</trkpt>
<trkpt lat="49.75998683832586" lon="9.51694194227457">
<ele>129</ele>
<time>2024-05-11T12:53:58Z</time>
</trkpt>
<trkpt lat="49.7599829826504" lon="9.516953425481915">
<ele>129</ele>
<time>2024-05-11T12:53:59Z</time>
</trkpt>
<trkpt lat="49.759990610182285" lon="9.516986785456538">
<ele>129</ele>
<time>2024-05-11T12:54:00Z</time>
</trkpt>
<trkpt lat="49.759994465857744" lon="9.516991563141346">
<ele>129</ele>
<time>2024-05-11T12:54:01Z</time>
</trkpt>
<trkpt lat="49.7599983215332" lon="9.516991563141346">
<ele>129</ele>
<time>2024-05-11T12:54:02Z</time>
</trkpt>
<trkpt lat="49.759994465857744" lon="9.516989635303617">
<ele>129</ele>
<time>2024-05-11T12:54:03Z</time>
</trkpt>
<trkpt lat="49.759990610182285" lon="9.516996340826154">
<ele>129</ele>
<time>2024-05-11T12:54:04Z</time>
</trkpt>
<trkpt lat="49.76000594906509" lon="9.517028778791428">
<ele>129</ele>
<time>2024-05-11T12:54:06Z</time>
</trkpt>
<trkpt lat="49.76000209338963" lon="9.517058366909623">
<ele>129</ele>
<time>2024-05-11T12:54:07Z</time>
</trkpt>
<trkpt lat="49.75996010005474" lon="9.516988713294268">
<ele>129</ele>
<time>2024-05-11T12:54:08Z</time>
</trkpt>
<trkpt lat="49.7599639557302" lon="9.516993490979075">
<ele>129</ele>
<time>2024-05-11T12:54:09Z</time>
</trkpt>
<trkpt lat="49.7599639557302" lon="9.516989635303617">
<ele>129</ele>
<time>2024-05-11T12:54:10Z</time>
</trkpt>
<trkpt lat="49.759933445602655" lon="9.516938170418143">
<ele>129</ele>
<time>2024-05-11T12:54:11Z</time>
</trkpt>
<trkpt lat="49.759933445602655" lon="9.516942948102953">
<ele>129</ele>
<time>2024-05-11T12:54:12Z</time>
</trkpt>
<trkpt lat="49.75994870066643" lon="9.516969602555037">
<ele>129</ele>
<time>2024-05-11T12:54:13Z</time>
</trkpt>
<trkpt lat="49.7599295899272" lon="9.516935320571063">
<ele>129</ele>
<time>2024-05-11T12:54:14Z</time>
</trkpt>
<trkpt lat="49.75990670733154" lon="9.516895255073903">
<ele>129</ele>
<time>2024-05-11T12:54:15Z</time>
</trkpt>
<trkpt lat="49.759895307943225" lon="9.516873294487596">
<ele>129</ele>
<time>2024-05-11T12:54:16Z</time>
</trkpt>
<trkpt lat="49.75988768041134" lon="9.516862817108631">
<ele>129</ele>
<time>2024-05-11T12:54:17Z</time>
</trkpt>
<trkpt lat="49.759891452267766" lon="9.516862817108631">
<ele>129</ele>
<time>2024-05-11T12:54:18Z</time>
</trkpt>
<trkpt lat="49.759895307943225" lon="9.516880000010133">
<ele>129</ele>
<time>2024-05-11T12:54:19Z</time>
</trkpt>
<trkpt lat="49.75989907979965" lon="9.516881927847862">
<ele>129</ele>
<time>2024-05-11T12:54:20Z</time>
</trkpt>
<trkpt lat="49.75990293547511" lon="9.516901960596442">
<ele>129</ele>
<time>2024-05-11T12:54:21Z</time>
</trkpt>
<trkpt lat="49.75990293547511" lon="9.516895255073903">
<ele>129</ele>
<time>2024-05-11T12:54:22Z</time>
</trkpt>
<trkpt lat="49.759895307943225" lon="9.51688670553267">
<ele>129</ele>
<time>2024-05-11T12:54:23Z</time>
</trkpt>
<trkpt lat="49.759895307943225" lon="9.516881927847862">
<ele>129</ele>
<time>2024-05-11T12:54:24Z</time>
</trkpt>
<trkpt lat="49.759895307943225" lon="9.516888549551368">
<ele>129</ele>
<time>2024-05-11T12:54:25Z</time>
</trkpt>
<trkpt lat="49.75989907979965" lon="9.516896177083254">
<ele>129</ele>
<time>2024-05-11T12:54:26Z</time>
</trkpt>
<trkpt lat="49.75992196239531" lon="9.516933392733335">
<ele>129</ele>
<time>2024-05-11T12:54:27Z</time>
</trkpt>
<trkpt lat="49.759933445602655" lon="9.516956275328994">
<ele>129</ele>
<time>2024-05-11T12:54:28Z</time>
</trkpt>
<trkpt lat="49.75997921079397" lon="9.517029700800776">
<ele>129</ele>
<time>2024-05-11T12:54:29Z</time>
</trkpt>
<trkpt lat="49.759990610182285" lon="9.5170630607754">
<ele>129</ele>
<time>2024-05-11T12:54:30Z</time>
</trkpt>
<trkpt lat="49.760013576596975" lon="9.517116537317634">
<ele>129</ele>
<time>2024-05-11T12:54:31Z</time>
</trkpt>
<trkpt lat="49.76002120412886" lon="9.517147047445178">
<ele>129</ele>
<time>2024-05-11T12:54:32Z</time>
</trkpt>
<trkpt lat="49.76000972092152" lon="9.517107903957369">
<ele>129</ele>
<time>2024-05-11T12:54:33Z</time>
</trkpt>
<trkpt lat="49.76000972092152" lon="9.517106981948018">
<ele>129</ele>
<time>2024-05-11T12:54:34Z</time>
</trkpt>
<trkpt lat="49.76000209338963" lon="9.51710128225386">
<ele>129</ele>
<time>2024-05-11T12:54:35Z</time>
</trkpt>
<trkpt lat="49.7599983215332" lon="9.517106981948018">
<ele>129</ele>
<time>2024-05-11T12:54:36Z</time>
</trkpt>
<trkpt lat="49.759990610182285" lon="9.517078399658203">
<ele>129</ele>
<time>2024-05-11T12:54:37Z</time>
</trkpt>
<trkpt lat="49.759990610182285" lon="9.517074543982744">
<ele>129</ele>
<time>2024-05-11T12:54:38Z</time>
</trkpt>
<trkpt lat="49.75998683832586" lon="9.517004890367389">
<ele>129</ele>
<time>2024-05-11T12:54:39Z</time>
</trkpt>
<trkpt lat="49.75998683832586" lon="9.516998268663883">
<ele>129</ele>
<time>2024-05-11T12:54:40Z</time>
</trkpt>
<trkpt lat="49.7599829826504" lon="9.516988713294268">
<ele>129</ele>
<time>2024-05-11T12:54:41Z</time>
</trkpt>
<trkpt lat="49.75998683832586" lon="9.516986785456538">
<ele>129</ele>
<time>2024-05-11T12:54:42Z</time>
</trkpt>
<trkpt lat="49.7599983215332" lon="9.51702014543116">
<ele>129</ele>
<time>2024-05-11T12:54:43Z</time>
</trkpt>
<trkpt lat="49.76000209338963" lon="9.51704017817974">
<ele>129</ele>
<time>2024-05-11T12:54:44Z</time>
</trkpt>
<trkpt lat="49.760013576596975" lon="9.5170612167567">
<ele>129</ele>
<time>2024-05-11T12:54:45Z</time>
</trkpt>
<trkpt lat="49.76000972092152" lon="9.51706021092832">
<ele>129</ele>
<time>2024-05-11T12:54:46Z</time>
</trkpt>
<trkpt lat="49.76000972092152" lon="9.5170630607754">
<ele>129</ele>
<time>2024-05-11T12:54:47Z</time>
</trkpt>
<trkpt lat="49.76000972092152" lon="9.517064988613129">
<ele>129</ele>
<time>2024-05-11T12:54:48Z</time>
</trkpt>
<trkpt lat="49.76000972092152" lon="9.517066916450858">
<ele>129</ele>
<time>2024-05-11T12:54:49Z</time>
</trkpt>
<trkpt lat="49.75993721745908" lon="9.51694487594068">
<ele>129</ele>
<time>2024-05-11T12:54:51Z</time>
</trkpt>
<trkpt lat="49.759933445602655" lon="9.516960131004453">
<ele>129</ele>
<time>2024-05-11T12:54:52Z</time>
</trkpt>
<trkpt lat="49.759933445602655" lon="9.516962980851533">
<ele>129</ele>
<time>2024-05-11T12:54:53Z</time>
</trkpt>
<trkpt lat="49.75991819053888" lon="9.51696197502315">
<ele>129</ele>
<time>2024-05-11T12:54:54Z</time>
</trkpt>
<trkpt lat="49.75990670733154" lon="9.516956275328994">
<ele>129</ele>
<time>2024-05-11T12:54:55Z</time>
</trkpt>
<trkpt lat="49.75989907979965" lon="9.516951497644186">
<ele>129</ele>
<time>2024-05-11T12:54:56Z</time>
</trkpt>
<trkpt lat="49.75987242534757" lon="9.516882849857211">
<ele>129</ele>
<time>2024-05-11T12:54:57Z</time>
</trkpt>
<trkpt lat="49.75986856967211" lon="9.516878072172403">
<ele>129</ele>
<time>2024-05-11T12:54:58Z</time>
</trkpt>
<trkpt lat="49.75988382473588" lon="9.516898104920983">
<ele>129</ele>
<time>2024-05-11T12:54:59Z</time>
</trkpt>
<trkpt lat="49.75988005287945" lon="9.516891399398446">
<ele>129</ele>
<time>2024-05-11T12:55:00Z</time>
</trkpt>
<trkpt lat="49.75986856967211" lon="9.516855189576743">
<ele>129</ele>
<time>2024-05-11T12:55:01Z</time>
</trkpt>
<trkpt lat="49.75986479781568" lon="9.51682660728693">
<ele>129</ele>
<time>2024-05-11T12:55:02Z</time>
</trkpt>
<trkpt lat="49.759857170283794" lon="9.51680850237608">
<ele>129</ele>
<time>2024-05-11T12:55:03Z</time>
</trkpt>
<trkpt lat="49.75984191522002" lon="9.516751253977418">
<ele>129</ele>
<time>2024-05-11T12:55:04Z</time>
</trkpt>
<trkpt lat="49.75983043201268" lon="9.516721665859222">
<ele>129</ele>
<time>2024-05-11T12:55:05Z</time>
</trkpt>
<trkpt lat="49.75982280448079" lon="9.516693083569407">
<ele>129</ele>
<time>2024-05-11T12:55:06Z</time>
</trkpt>
<trkpt lat="49.75982666015625" lon="9.516695011407135">
<ele>129</ele>
<time>2024-05-11T12:55:08Z</time>
</trkpt>
<trkpt lat="49.75982666015625" lon="9.516693083569407">
<ele>129</ele>
<time>2024-05-11T12:55:09Z</time>
</trkpt>
<trkpt lat="49.75982666015625" lon="9.51668637804687">
<ele>129</ele>
<time>2024-05-11T12:55:10Z</time>
</trkpt>
<trkpt lat="49.75982666015625" lon="9.516696855425836">
<ele>129</ele>
<time>2024-05-11T12:55:11Z</time>
</trkpt>
<trkpt lat="49.75983043201268" lon="9.516698783263564">
<ele>129</ele>
<time>2024-05-11T12:55:12Z</time>
</trkpt>
<trkpt lat="49.759834287688136" lon="9.516695011407135">
<ele>129</ele>
<time>2024-05-11T12:55:13Z</time>
</trkpt>
<trkpt lat="49.75984191522002" lon="9.516699789091945">
<ele>129</ele>
<time>2024-05-11T12:55:14Z</time>
</trkpt>
<trkpt lat="49.75984191522002" lon="9.516703560948372">
<ele>129</ele>
<time>2024-05-11T12:55:15Z</time>
</trkpt>
<trkpt lat="49.75983805954456" lon="9.516695011407135">
<ele>129</ele>
<time>2024-05-11T12:55:16Z</time>
</trkpt>
<trkpt lat="49.75984191522002" lon="9.516699789091945">
<ele>129</ele>
<time>2024-05-11T12:55:17Z</time>
</trkpt>
<trkpt lat="49.75984191522002" lon="9.51670641079545">
<ele>129</ele>
<time>2024-05-11T12:55:18Z</time>
</trkpt>
<trkpt lat="49.75983805954456" lon="9.51670641079545">
<ele>129</ele>
<time>2024-05-11T12:55:19Z</time>
</trkpt>
<trkpt lat="49.75983805954456" lon="9.516716888174416">
<ele>129</ele>
<time>2024-05-11T12:55:20Z</time>
</trkpt>
<trkpt lat="49.759834287688136" lon="9.51672644354403">
<ele>129</ele>
<time>2024-05-11T12:55:21Z</time>
</trkpt>
<trkpt lat="49.75983043201268" lon="9.516730299219487">
<ele>129</ele>
<time>2024-05-11T12:55:22Z</time>
</trkpt>
<trkpt lat="49.75983043201268" lon="9.516741698607802">
<ele>129</ele>
<time>2024-05-11T12:55:23Z</time>
</trkpt>
<trkpt lat="49.75983805954456" lon="9.516755025833843">
<ele>129</ele>
<time>2024-05-11T12:55:24Z</time>
</trkpt>
<trkpt lat="49.75984191522002" lon="9.516761731356382">
<ele>129</ele>
<time>2024-05-11T12:55:25Z</time>
</trkpt>
<trkpt lat="49.75986094214022" lon="9.516797941178083">
<ele>129</ele>
<time>2024-05-11T12:55:26Z</time>
</trkpt>
<trkpt lat="49.75986479781568" lon="9.516801796853542">
<ele>129</ele>
<time>2024-05-11T12:55:27Z</time>
</trkpt>
<trkpt lat="49.75986479781568" lon="9.516803724691272">
<ele>129</ele>
<time>2024-05-11T12:55:28Z</time>
</trkpt>
<trkpt lat="49.75986856967211" lon="9.51680657453835">
<ele>129</ele>
<time>2024-05-11T12:55:29Z</time>
</trkpt>
<trkpt lat="49.75986856967211" lon="9.516813196241856">
<ele>129</ele>
<time>2024-05-11T12:55:30Z</time>
</trkpt>
<trkpt lat="49.75986479781568" lon="9.51680850237608">
<ele>129</ele>
<time>2024-05-11T12:55:31Z</time>
</trkpt>
<trkpt lat="49.75986856967211" lon="9.516801796853542">
<ele>129</ele>
<time>2024-05-11T12:55:32Z</time>
</trkpt>
<trkpt lat="49.75986094214022" lon="9.516815124079583">
<ele>129</ele>
<time>2024-05-11T12:55:33Z</time>
</trkpt>
<trkpt lat="49.75986479781568" lon="9.516813196241856">
<ele>129</ele>
<time>2024-05-11T12:55:34Z</time>
</trkpt>
<trkpt lat="49.75986856967211" lon="9.516811352223158">
<ele>129</ele>
<time>2024-05-11T12:55:35Z</time>
</trkpt>
<trkpt lat="49.75986856967211" lon="9.51680850237608">
<ele>129</ele>
<time>2024-05-11T12:55:36Z</time>
</trkpt>
<trkpt lat="49.75987242534757" lon="9.516817051917316">
<ele>129</ele>
<time>2024-05-11T12:55:37Z</time>
</trkpt>
<trkpt lat="49.75986856967211" lon="9.516811352223158">
<ele>129</ele>
<time>2024-05-11T12:55:38Z</time>
</trkpt>
<trkpt lat="49.75986094214022" lon="9.516795091331003">
<ele>129</ele>
<time>2024-05-11T12:55:39Z</time>
</trkpt>
<trkpt lat="49.75986094214022" lon="9.516783691942692">
<ele>129</ele>
<time>2024-05-11T12:55:40Z</time>
</trkpt>
<trkpt lat="49.75986094214022" lon="9.516773214563727">
<ele>129</ele>
<time>2024-05-11T12:55:41Z</time>
</trkpt>
<trkpt lat="49.75986479781568" lon="9.51676458120346">
<ele>129</ele>
<time>2024-05-11T12:55:42Z</time>
</trkpt>
<trkpt lat="49.75986856967211" lon="9.516770280897616">
<ele>129</ele>
<time>2024-05-11T12:55:43Z</time>
</trkpt>
<trkpt lat="49.75987242534757" lon="9.516773214563727">
<ele>129</ele>
<time>2024-05-11T12:55:44Z</time>
</trkpt>
<trkpt lat="49.759876197203994" lon="9.516779836267231">
<ele>129</ele>
<time>2024-05-11T12:55:45Z</time>
</trkpt>
<trkpt lat="49.75988005287945" lon="9.516790313646196">
<ele>129</ele>
<time>2024-05-11T12:55:46Z</time>
</trkpt>
<trkpt lat="49.75988382473588" lon="9.516793247312307">
<ele>129</ele>
<time>2024-05-11T12:55:47Z</time>
</trkpt>
<trkpt lat="49.759876197203994" lon="9.516779836267231">
<ele>129</ele>
<time>2024-05-11T12:55:48Z</time>
</trkpt>
<trkpt lat="49.75988382473588" lon="9.516797019168736">
<ele>129</ele>
<time>2024-05-11T12:55:49Z</time>
</trkpt>
<trkpt lat="49.75988382473588" lon="9.516797941178083">
<ele>129</ele>
<time>2024-05-11T12:55:50Z</time>
</trkpt>
<trkpt lat="49.75988382473588" lon="9.516797019168736">
<ele>129</ele>
<time>2024-05-11T12:55:51Z</time>
</trkpt>
<trkpt lat="49.75988768041134" lon="9.51680464670062">
<ele>129</ele>
<time>2024-05-11T12:55:52Z</time>
</trkpt>
<trkpt lat="49.75988382473588" lon="9.516797019168736">
<ele>129</ele>
<time>2024-05-11T12:55:53Z</time>
</trkpt>
<trkpt lat="49.75988382473588" lon="9.51680464670062">
<ele>129</ele>
<time>2024-05-11T12:55:54Z</time>
</trkpt>
<trkpt lat="49.75988768041134" lon="9.51680657453835">
<ele>129</ele>
<time>2024-05-11T12:55:55Z</time>
</trkpt>
<trkpt lat="49.75988768041134" lon="9.516793247312307">
<ele>129</ele>
<time>2024-05-11T12:55:56Z</time>
</trkpt>
<trkpt lat="49.75988382473588" lon="9.516777992248535">
<ele>129</ele>
<time>2024-05-11T12:55:57Z</time>
</trkpt>
<trkpt lat="49.75988382473588" lon="9.51676650904119">
<ele>129</ele>
<time>2024-05-11T12:55:58Z</time>
</trkpt>
<trkpt lat="49.759876197203994" lon="9.516737926751375">
<ele>129</ele>
<time>2024-05-11T12:55:59Z</time>
</trkpt>
<trkpt lat="49.75986856967211" lon="9.516721665859222">
<ele>129</ele>
<time>2024-05-11T12:56:00Z</time>
</trkpt>
<trkpt lat="49.75986479781568" lon="9.516713116317987">
<ele>129</ele>
<time>2024-05-11T12:56:01Z</time>
</trkpt>
<trkpt lat="49.75986856967211" lon="9.516698783263564">
<ele>129</ele>
<time>2024-05-11T12:56:02Z</time>
</trkpt>
<trkpt lat="49.75986479781568" lon="9.51669023372233">
<ele>129</ele>
<time>2024-05-11T12:56:03Z</time>
</trkpt>
<trkpt lat="49.759853314608335" lon="9.516677828505635">
<ele>129</ele>
<time>2024-05-11T12:56:04Z</time>
</trkpt>
<trkpt lat="49.759853314608335" lon="9.51668545603752">
<ele>129</ele>
<time>2024-05-11T12:56:05Z</time>
</trkpt>
<trkpt lat="49.759853314608335" lon="9.51668637804687">
<ele>129</ele>
<time>2024-05-11T12:56:06Z</time>
</trkpt>
<trkpt lat="49.75984191522002" lon="9.516663495451212">
<ele>129</ele>
<time>2024-05-11T12:56:07Z</time>
</trkpt>
<trkpt lat="49.759834287688136" lon="9.51665016822517">
<ele>129</ele>
<time>2024-05-11T12:56:08Z</time>
</trkpt>
<trkpt lat="49.75984191522002" lon="9.5166520960629">
<ele>129</ele>
<time>2024-05-11T12:56:09Z</time>
</trkpt>
<trkpt lat="49.759857170283794" lon="9.51665016822517">
<ele>129</ele>
<time>2024-05-11T12:56:10Z</time>
</trkpt>
<trkpt lat="49.75986856967211" lon="9.516632985323668">
<ele>129</ele>
<time>2024-05-11T12:56:11Z</time>
</trkpt>
<trkpt lat="49.75988005287945" lon="9.516621585935354">
<ele>129</ele>
<time>2024-05-11T12:56:12Z</time>
</trkpt>
<trkpt lat="49.759891452267766" lon="9.516612952575088">
<ele>129</ele>
<time>2024-05-11T12:56:13Z</time>
</trkpt>
<trkpt lat="49.759914334863424" lon="9.516606330871582">
<ele>129</ele>
<time>2024-05-11T12:56:14Z</time>
</trkpt>
<trkpt lat="49.7599295899272" lon="9.516598619520664">
<ele>129</ele>
<time>2024-05-11T12:56:15Z</time>
</trkpt>
<trkpt lat="49.75991819053888" lon="9.51658529229462">
<ele>129</ele>
<time>2024-05-11T12:56:16Z</time>
</trkpt>
<trkpt lat="49.759914334863424" lon="9.516578670591116">
<ele>129</ele>
<time>2024-05-11T12:56:17Z</time>
</trkpt>
<trkpt lat="49.75990670733154" lon="9.516563415527344">
<ele>129</ele>
<time>2024-05-11T12:56:18Z</time>
</trkpt>
<trkpt lat="49.75990670733154" lon="9.516576742753386">
<ele>129</ele>
<time>2024-05-11T12:56:19Z</time>
</trkpt>
<trkpt lat="49.75990293547511" lon="9.51658529229462">
<ele>129</ele>
<time>2024-05-11T12:56:20Z</time>
</trkpt>
<trkpt lat="49.75990670733154" lon="9.516596775501966">
<ele>129</ele>
<time>2024-05-11T12:56:21Z</time>
</trkpt>
<trkpt lat="49.759910563007" lon="9.516606330871582">
<ele>129</ele>
<time>2024-05-11T12:56:22Z</time>
</trkpt>
<trkpt lat="49.75990670733154" lon="9.51660817489028">
<ele>129</ele>
<time>2024-05-11T12:56:23Z</time>
</trkpt>
<trkpt lat="49.75990293547511" lon="9.516599625349045">
<ele>129</ele>
<time>2024-05-11T12:56:24Z</time>
</trkpt>
<trkpt lat="49.75990293547511" lon="9.51661203056574">
<ele>129</ele>
<time>2024-05-11T12:56:25Z</time>
</trkpt>
<trkpt lat="49.75990293547511" lon="9.516632985323668">
<ele>129</ele>
<time>2024-05-11T12:56:26Z</time>
</trkpt>
<trkpt lat="49.75989907979965" lon="9.516658717766404">
<ele>129</ele>
<time>2024-05-11T12:56:27Z</time>
</trkpt>
<trkpt lat="49.75990293547511" lon="9.516677828505635">
<ele>129</ele>
<time>2024-05-11T12:56:28Z</time>
</trkpt>
<trkpt lat="49.75989907979965" lon="9.516673050820827">
<ele>129</ele>
<time>2024-05-11T12:56:29Z</time>
</trkpt>
<trkpt lat="49.759895307943225" lon="9.516658717766404">
<ele>129</ele>
<time>2024-05-11T12:56:30Z</time>
</trkpt>
<trkpt lat="49.759891452267766" lon="9.51664631254971">
<ele>129</ele>
<time>2024-05-11T12:56:31Z</time>
</trkpt>
<trkpt lat="49.75988382473588" lon="9.51663206331432">
<ele>129</ele>
<time>2024-05-11T12:56:32Z</time>
</trkpt>
<trkpt lat="49.75988005287945" lon="9.516623429954052">
<ele>129</ele>
<time>2024-05-11T12:56:33Z</time>
</trkpt>
<trkpt lat="49.75988005287945" lon="9.51662535779178">
<ele>129</ele>
<time>2024-05-11T12:56:35Z</time>
</trkpt>
<trkpt lat="49.75988005287945" lon="9.516638685017824">
<ele>129</ele>
<time>2024-05-11T12:56:36Z</time>
</trkpt>
<trkpt lat="49.75988005287945" lon="9.5166520960629">
<ele>129</ele>
<time>2024-05-11T12:56:37Z</time>
</trkpt>
<trkpt lat="49.75988005287945" lon="9.51664539054036">
<ele>129</ele>
<time>2024-05-11T12:56:38Z</time>
</trkpt>
<trkpt lat="49.75988005287945" lon="9.51664824038744">
<ele>129</ele>
<time>2024-05-11T12:56:39Z</time>
</trkpt>
<trkpt lat="49.75988005287945" lon="9.51664631254971">
<ele>129</ele>
<time>2024-05-11T12:56:40Z</time>
</trkpt>
<trkpt lat="49.75988005287945" lon="9.51664824038744">
<ele>129</ele>
<time>2024-05-11T12:56:41Z</time>
</trkpt>
<trkpt lat="49.75988005287945" lon="9.51664631254971">
<ele>129</ele>
<time>2024-05-11T12:56:42Z</time>
</trkpt>
<trkpt lat="49.75988005287945" lon="9.51664824038744">
<ele>129</ele>
<time>2024-05-11T12:56:43Z</time>
</trkpt>
<trkpt lat="49.75988005287945" lon="9.51665016822517">
<ele>129</ele>
<time>2024-05-11T12:56:44Z</time>
</trkpt>
<trkpt lat="49.759876197203994" lon="9.5166520960629">
<ele>129</ele>
<time>2024-05-11T12:56:45Z</time>
</trkpt>
<trkpt lat="49.75987242534757" lon="9.51665016822517">
<ele>129</ele>
<time>2024-05-11T12:56:46Z</time>
</trkpt>
<trkpt lat="49.75986856967211" lon="9.51665016822517">
<ele>129</ele>
<time>2024-05-11T12:56:47Z</time>
</trkpt>
<trkpt lat="49.75986479781568" lon="9.51665016822517">
<ele>129</ele>
<time>2024-05-11T12:56:49Z</time>
</trkpt>
<trkpt lat="49.75986479781568" lon="9.51664824038744">
<ele>129</ele>
<time>2024-05-11T12:56:50Z</time>
</trkpt>
<trkpt lat="49.75986094214022" lon="9.51664824038744">
<ele>129</ele>
<time>2024-05-11T12:56:51Z</time>
</trkpt>
<trkpt lat="49.759857170283794" lon="9.516643462702632">
<ele>129</ele>
<time>2024-05-11T12:56:52Z</time>
</trkpt>
<trkpt lat="49.759857170283794" lon="9.516639690846205">
<ele>129</ele>
<time>2024-05-11T12:56:53Z</time>
</trkpt>
<trkpt lat="49.759857170283794" lon="9.516634913161395">
<ele>129</ele>
<time>2024-05-11T12:56:54Z</time>
</trkpt>
<trkpt lat="49.75984954275191" lon="9.51663013547659">
<ele>129</ele>
<time>2024-05-11T12:56:56Z</time>
</trkpt>
<trkpt lat="49.75984568707645" lon="9.51662627980113">
<ele>129</ele>
<time>2024-05-11T12:56:57Z</time>
</trkpt>
<trkpt lat="49.75984191522002" lon="9.516623429954052">
<ele>129</ele>
<time>2024-05-11T12:56:58Z</time>
</trkpt>
<trkpt lat="49.75984191522002" lon="9.516619658097625">
<ele>129</ele>
<time>2024-05-11T12:56:59Z</time>
</trkpt>
<trkpt lat="49.75983043201268" lon="9.516612952575088">
<ele>129</ele>
<time>2024-05-11T12:57:00Z</time>
</trkpt>
<trkpt lat="49.75982666015625" lon="9.516618652269244">
<ele>129</ele>
<time>2024-05-11T12:57:01Z</time>
</trkpt>
<trkpt lat="49.75982666015625" lon="9.516616808250546">
<ele>129</ele>
<time>2024-05-11T12:57:02Z</time>
</trkpt>
<trkpt lat="49.75982280448079" lon="9.516632985323668">
<ele>129</ele>
<time>2024-05-11T12:57:03Z</time>
</trkpt>
<trkpt lat="49.75981894880533" lon="9.516636840999126">
<ele>129</ele>
<time>2024-05-11T12:57:04Z</time>
</trkpt>
<trkpt lat="49.759811321273446" lon="9.516632985323668">
<ele>129</ele>
<time>2024-05-11T12:57:05Z</time>
</trkpt>
<trkpt lat="49.759811321273446" lon="9.516634913161395">
<ele>129</ele>
<time>2024-05-11T12:57:06Z</time>
</trkpt>
<trkpt lat="49.759815176948905" lon="9.51663013547659">
<ele>129</ele>
<time>2024-05-11T12:57:07Z</time>
</trkpt>
<trkpt lat="49.759815176948905" lon="9.51663206331432">
<ele>129</ele>
<time>2024-05-11T12:57:08Z</time>
</trkpt>
<trkpt lat="49.75981894880533" lon="9.51663206331432">
<ele>129</ele>
<time>2024-05-11T12:57:09Z</time>
</trkpt>
<trkpt lat="49.75981894880533" lon="9.51662820763886">
<ele>129</ele>
<time>2024-05-11T12:57:10Z</time>
</trkpt>
<trkpt lat="49.75982280448079" lon="9.51662627980113">
<ele>129</ele>
<time>2024-05-11T12:57:11Z</time>
</trkpt>
<trkpt lat="49.75982280448079" lon="9.51663013547659">
<ele>129</ele>
<time>2024-05-11T12:57:13Z</time>
</trkpt>
<trkpt lat="49.75981894880533" lon="9.51662627980113">
<ele>129</ele>
<time>2024-05-11T12:57:14Z</time>
</trkpt>
<trkpt lat="49.75981894880533" lon="9.51662820763886">
<ele>129</ele>
<time>2024-05-11T12:57:15Z</time>
</trkpt>
<trkpt lat="49.75981894880533" lon="9.51663013547659">
<ele>129</ele>
<time>2024-05-11T12:57:16Z</time>
</trkpt>
<trkpt lat="49.75981894880533" lon="9.51663206331432">
<ele>129</ele>
<time>2024-05-11T12:57:17Z</time>
</trkpt>
<trkpt lat="49.75981894880533" lon="9.51663013547659">
<ele>129</ele>
<time>2024-05-11T12:57:18Z</time>
</trkpt>
<trkpt lat="49.759815176948905" lon="9.51662820763886">
<ele>129</ele>
<time>2024-05-11T12:57:19Z</time>
</trkpt>
<trkpt lat="49.75981894880533" lon="9.51663013547659">
<ele>129</ele>
<time>2024-05-11T12:57:20Z</time>
</trkpt>
<trkpt lat="49.759815176948905" lon="9.51662627980113">
<ele>129</ele>
<time>2024-05-11T12:57:21Z</time>
</trkpt>
<trkpt lat="49.759815176948905" lon="9.516618652269244">
<ele>129</ele>
<time>2024-05-11T12:57:22Z</time>
</trkpt>
<trkpt lat="49.759811321273446" lon="9.516612952575088">
<ele>129</ele>
<time>2024-05-11T12:57:23Z</time>
</trkpt>
<trkpt lat="49.759811321273446" lon="9.516614880412815">
<ele>129</ele>
<time>2024-05-11T12:57:25Z</time>
</trkpt>
<trkpt lat="49.75980754941702" lon="9.516616808250546">
<ele>129</ele>
<time>2024-05-11T12:57:27Z</time>
</trkpt>
<trkpt lat="49.75980754941702" lon="9.516614880412815">
<ele>129</ele>
<time>2024-05-11T12:57:28Z</time>
</trkpt>
<trkpt lat="49.75980754941702" lon="9.516616808250546">
<ele>129</ele>
<time>2024-05-11T12:57:30Z</time>
</trkpt>
<trkpt lat="49.75980369374156" lon="9.516616808250546">
<ele>129</ele>
<time>2024-05-11T12:57:32Z</time>
</trkpt>
<trkpt lat="49.75980754941702" lon="9.51662535779178">
<ele>129</ele>
<time>2024-05-11T12:57:33Z</time>
</trkpt>
<trkpt lat="49.759811321273446" lon="9.516634913161395">
<ele>129</ele>
<time>2024-05-11T12:57:34Z</time>
</trkpt>
<trkpt lat="49.759811321273446" lon="9.516636840999126">
<ele>129</ele>
<time>2024-05-11T12:57:35Z</time>
</trkpt>
<trkpt lat="49.759811321273446" lon="9.516639690846205">
<ele>129</ele>
<time>2024-05-11T12:57:36Z</time>
</trkpt>
<trkpt lat="49.759811321273446" lon="9.516641534864902">
<ele>129</ele>
<time>2024-05-11T12:57:38Z</time>
</trkpt>
<trkpt lat="49.759811321273446" lon="9.51664539054036">
<ele>129</ele>
<time>2024-05-11T12:57:39Z</time>
</trkpt>
<trkpt lat="49.75980754941702" lon="9.51664631254971">
<ele>129</ele>
<time>2024-05-11T12:57:40Z</time>
</trkpt>
<trkpt lat="49.75980369374156" lon="9.51664631254971">
<ele>129</ele>
<time>2024-05-11T12:57:41Z</time>
</trkpt>
<trkpt lat="49.75980754941702" lon="9.51664824038744">
<ele>129</ele>
<time>2024-05-11T12:57:42Z</time>
</trkpt>
<trkpt lat="49.75980369374156" lon="9.51665016822517">
<ele>129</ele>
<time>2024-05-11T12:57:43Z</time>
</trkpt>
<trkpt lat="49.75979992188513" lon="9.51665016822517">
<ele>129</ele>
<time>2024-05-11T12:57:44Z</time>
</trkpt>
<trkpt lat="49.75980369374156" lon="9.5166520960629">
<ele>129</ele>
<time>2024-05-11T12:57:45Z</time>
</trkpt>
<trkpt lat="49.75980369374156" lon="9.516653018072248">
<ele>129</ele>
<time>2024-05-11T12:57:46Z</time>
</trkpt>
<trkpt lat="49.75980369374156" lon="9.516654945909975">
<ele>129</ele>
<time>2024-05-11T12:57:47Z</time>
</trkpt>
<trkpt lat="49.75979992188513" lon="9.516654945909975">
<ele>129</ele>
<time>2024-05-11T12:57:49Z</time>
</trkpt>
<trkpt lat="49.75979992188513" lon="9.516656873747706">
<ele>129</ele>
<time>2024-05-11T12:57:50Z</time>
</trkpt>
<trkpt lat="49.75979992188513" lon="9.516658717766404">
<ele>129</ele>
<time>2024-05-11T12:57:52Z</time>
</trkpt>
<trkpt lat="49.75979992188513" lon="9.516664501279593">
<ele>129</ele>
<time>2024-05-11T12:57:53Z</time>
</trkpt>
<trkpt lat="49.75980369374156" lon="9.51667020097375">
<ele>129</ele>
<time>2024-05-11T12:57:54Z</time>
</trkpt>
<trkpt lat="49.75980369374156" lon="9.516674978658555">
<ele>129</ele>
<time>2024-05-11T12:57:55Z</time>
</trkpt>
<trkpt lat="49.75980754941702" lon="9.516681600362062">
<ele>129</ele>
<time>2024-05-11T12:57:56Z</time>
</trkpt>
<trkpt lat="49.75980754941702" lon="9.516683528199792">
<ele>129</ele>
<time>2024-05-11T12:57:58Z</time>
</trkpt>
<trkpt lat="49.75980369374156" lon="9.51668545603752">
<ele>129</ele>
<time>2024-05-11T12:57:59Z</time>
</trkpt>
<trkpt lat="49.75979992188513" lon="9.51668637804687">
<ele>129</ele>
<time>2024-05-11T12:58:01Z</time>
</trkpt>
<trkpt lat="49.75979992188513" lon="9.5166883058846">
<ele>129</ele>
<time>2024-05-11T12:58:02Z</time>
</trkpt>
<trkpt lat="49.75980369374156" lon="9.516698783263564">
<ele>129</ele>
<time>2024-05-11T12:58:03Z</time>
</trkpt>
<trkpt lat="49.75980369374156" lon="9.516699789091945">
<ele>129</ele>
<time>2024-05-11T12:58:04Z</time>
</trkpt>
<trkpt lat="49.75980754941702" lon="9.516701633110642">
<ele>129</ele>
<time>2024-05-11T12:58:05Z</time>
</trkpt>
<trkpt lat="49.75980754941702" lon="9.51670448295772">
<ele>129</ele>
<time>2024-05-11T12:58:06Z</time>
</trkpt>
<trkpt lat="49.759811321273446" lon="9.51670833863318">
<ele>129</ele>
<time>2024-05-11T12:58:07Z</time>
</trkpt>
<trkpt lat="49.759811321273446" lon="9.516713116317987">
<ele>129</ele>
<time>2024-05-11T12:58:08Z</time>
</trkpt>
<trkpt lat="49.759811321273446" lon="9.516715044155715">
<ele>129</ele>
<time>2024-05-11T12:58:09Z</time>
</trkpt>
<trkpt lat="49.759811321273446" lon="9.516716888174416">
<ele>129</ele>
<time>2024-05-11T12:58:10Z</time>
</trkpt>
<trkpt lat="49.759811321273446" lon="9.516715044155715">
<ele>129</ele>
<time>2024-05-11T12:58:11Z</time>
</trkpt>
<trkpt lat="49.759811321273446" lon="9.516719738021491">
<ele>129</ele>
<time>2024-05-11T12:58:12Z</time>
</trkpt>
<trkpt lat="49.759811321273446" lon="9.516723593696952">
<ele>129</ele>
<time>2024-05-11T12:58:13Z</time>
</trkpt>
<trkpt lat="49.759811321273446" lon="9.516721665859222">
<ele>129</ele>
<time>2024-05-11T12:58:14Z</time>
</trkpt>
<trkpt lat="49.759811321273446" lon="9.516723593696952">
<ele>129</ele>
<time>2024-05-11T12:58:15Z</time>
</trkpt>
<trkpt lat="49.759811321273446" lon="9.5167245157063">
<ele>129</ele>
<time>2024-05-11T12:58:16Z</time>
</trkpt>
<trkpt lat="49.759811321273446" lon="9.51672644354403">
<ele>129</ele>
<time>2024-05-11T12:58:18Z</time>
</trkpt>
<trkpt lat="49.759811321273446" lon="9.51672837138176">
<ele>129</ele>
<time>2024-05-11T12:58:21Z</time>
</trkpt>
<trkpt lat="49.759811321273446" lon="9.516730299219487">
<ele>129</ele>
<time>2024-05-11T12:58:22Z</time>
</trkpt>
<trkpt lat="49.759811321273446" lon="9.516723593696952">
<ele>129</ele>
<time>2024-05-11T12:58:23Z</time>
</trkpt>
<trkpt lat="49.759811321273446" lon="9.516717894002795">
<ele>129</ele>
<time>2024-05-11T12:58:24Z</time>
</trkpt>
<trkpt lat="49.759811321273446" lon="9.516716888174416">
<ele>129</ele>
<time>2024-05-11T12:58:25Z</time>
</trkpt>
<trkpt lat="49.75980754941702" lon="9.51671026647091">
<ele>129</ele>
<time>2024-05-11T12:58:26Z</time>
</trkpt>
<trkpt lat="49.75980754941702" lon="9.516703560948372">
<ele>129</ele>
<time>2024-05-11T12:58:27Z</time>
</trkpt>
<trkpt lat="49.75980754941702" lon="9.516696855425836">
<ele>129</ele>
<time>2024-05-11T12:58:28Z</time>
</trkpt>
<trkpt lat="49.75980754941702" lon="9.51669023372233">
<ele>129</ele>
<time>2024-05-11T12:58:29Z</time>
</trkpt>
<trkpt lat="49.75980369374156" lon="9.51668545603752">
<ele>129</ele>
<time>2024-05-11T12:58:30Z</time>
</trkpt>
<trkpt lat="49.75980369374156" lon="9.516679756343365">
<ele>129</ele>
<time>2024-05-11T12:58:31Z</time>
</trkpt>
<trkpt lat="49.75980754941702" lon="9.516677828505635">
<ele>129</ele>
<time>2024-05-11T12:58:32Z</time>
</trkpt>
<trkpt lat="49.75980369374156" lon="9.516659723594785">
<ele>129</ele>
<time>2024-05-11T12:58:33Z</time>
</trkpt>
<trkpt lat="49.75980369374156" lon="9.516656873747706">
<ele>129</ele>
<time>2024-05-11T12:58:34Z</time>
</trkpt>
<trkpt lat="49.75980369374156" lon="9.51662627980113">
<ele>129</ele>
<time>2024-05-11T12:58:35Z</time>
</trkpt>
<trkpt lat="49.75979992188513" lon="9.516599625349045">
<ele>129</ele>
<time>2024-05-11T12:58:36Z</time>
</trkpt>
<trkpt lat="49.75979992188513" lon="9.516596775501966">
<ele>129</ele>
<time>2024-05-11T12:58:37Z</time>
</trkpt>
<trkpt lat="49.75979992188513" lon="9.516598619520664">
<ele>129</ele>
<time>2024-05-11T12:58:38Z</time>
</trkpt>
<trkpt lat="49.75980369374156" lon="9.516603397205472">
<ele>129</ele>
<time>2024-05-11T12:58:39Z</time>
</trkpt>
<trkpt lat="49.759815176948905" lon="9.51661203056574">
<ele>129</ele>
<time>2024-05-11T12:58:40Z</time>
</trkpt>
<trkpt lat="49.759815176948905" lon="9.516619658097625">
<ele>129</ele>
<time>2024-05-11T12:58:41Z</time>
</trkpt>
<trkpt lat="49.75981894880533" lon="9.51662627980113">
<ele>129</ele>
<time>2024-05-11T12:58:42Z</time>
</trkpt>
<trkpt lat="49.75982280448079" lon="9.516632985323668">
<ele>129</ele>
<time>2024-05-11T12:58:43Z</time>
</trkpt>
<trkpt lat="49.75982666015625" lon="9.516638685017824">
<ele>129</ele>
<time>2024-05-11T12:58:44Z</time>
</trkpt>
<trkpt lat="49.75983043201268" lon="9.51664539054036">
<ele>129</ele>
<time>2024-05-11T12:58:46Z</time>
</trkpt>
<trkpt lat="49.759834287688136" lon="9.51664824038744">
<ele>129</ele>
<time>2024-05-11T12:58:47Z</time>
</trkpt>
<trkpt lat="49.75984191522002" lon="9.516659723594785">
<ele>129</ele>
<time>2024-05-11T12:58:48Z</time>
</trkpt>
<trkpt lat="49.75984954275191" lon="9.51666634529829">
<ele>129</ele>
<time>2024-05-11T12:58:49Z</time>
</trkpt>
<trkpt lat="49.759853314608335" lon="9.51667020097375">
<ele>129</ele>
<time>2024-05-11T12:58:50Z</time>
</trkpt>
<trkpt lat="49.759857170283794" lon="9.516677828505635">
<ele>129</ele>
<time>2024-05-11T12:58:51Z</time>
</trkpt>
<trkpt lat="49.759857170283794" lon="9.516679756343365">
<ele>129</ele>
<time>2024-05-11T12:58:52Z</time>
</trkpt>
<trkpt lat="49.75986094214022" lon="9.516681600362062">
<ele>129</ele>
<time>2024-05-11T12:58:53Z</time>
</trkpt>
<trkpt lat="49.75986094214022" lon="9.516676822677256">
<ele>129</ele>
<time>2024-05-11T12:58:54Z</time>
</trkpt>
<trkpt lat="49.759853314608335" lon="9.51666634529829">
<ele>129</ele>
<time>2024-05-11T12:58:55Z</time>
</trkpt>
<trkpt lat="49.75984954275191" lon="9.516658717766404">
<ele>129</ele>
<time>2024-05-11T12:58:56Z</time>
</trkpt>
<trkpt lat="49.75984954275191" lon="9.51666827313602">
<ele>129</ele>
<time>2024-05-11T12:58:57Z</time>
</trkpt>
<trkpt lat="49.759853314608335" lon="9.516677828505635">
<ele>129</ele>
<time>2024-05-11T12:58:58Z</time>
</trkpt>
<trkpt lat="49.759853314608335" lon="9.516679756343365">
<ele>129</ele>
<time>2024-05-11T12:58:59Z</time>
</trkpt>
<trkpt lat="49.759853314608335" lon="9.516677828505635">
<ele>129</ele>
<time>2024-05-11T12:59:00Z</time>
</trkpt>
<trkpt lat="49.75984954275191" lon="9.516578670591116">
<ele>129</ele>
<time>2024-05-11T12:59:01Z</time>
</trkpt>
<trkpt lat="49.75983805954456" lon="9.516518572345376">
<ele>129</ele>
<time>2024-05-11T12:59:02Z</time>
</trkpt>
<trkpt lat="49.75982280448079" lon="9.516420336440206">
<ele>129</ele>
<time>2024-05-11T12:59:03Z</time>
</trkpt>
<trkpt lat="49.759773183614016" lon="9.516316400840878">
<ele>129</ele>
<time>2024-05-11T12:59:04Z</time>
</trkpt>
<trkpt lat="49.759735045954585" lon="9.516188576817513">
<ele>129</ele>
<time>2024-05-11T12:59:05Z</time>
</trkpt>
<trkpt lat="49.75970076397061" lon="9.516088413074613">
<ele>129</ele>
<time>2024-05-11T12:59:06Z</time>
</trkpt>
<trkpt lat="49.75968165323138" lon="9.516083635389805">
<ele>129</ele>
<time>2024-05-11T12:59:07Z</time>
</trkpt>
<trkpt lat="49.75968165323138" lon="9.516097968444228">
<ele>129</ele>
<time>2024-05-11T12:59:08Z</time>
</trkpt>
<trkpt lat="49.75967025384307" lon="9.516103668138385">
<ele>129</ele>
<time>2024-05-11T12:59:09Z</time>
</trkpt>
<trkpt lat="49.75966639816761" lon="9.516111295670273">
<ele>129</ele>
<time>2024-05-11T12:59:10Z</time>
</trkpt>
<trkpt lat="49.75966262631118" lon="9.516090340912342">
<ele>129</ele>
<time>2024-05-11T12:59:11Z</time>
</trkpt>
<trkpt lat="49.75967025384307" lon="9.516111295670273">
<ele>129</ele>
<time>2024-05-11T12:59:12Z</time>
</trkpt>
<trkpt lat="49.759674025699496" lon="9.51613518409431">
<ele>129</ele>
<time>2024-05-11T12:59:13Z</time>
</trkpt>
<trkpt lat="49.759677881374955" lon="9.51613325625658">
<ele>129</ele>
<time>2024-05-11T12:59:14Z</time>
</trkpt>
<trkpt lat="49.75968165323138" lon="9.516139961779118">
<ele>129</ele>
<time>2024-05-11T12:59:15Z</time>
</trkpt>
<trkpt lat="49.75968165323138" lon="9.51613518409431">
<ele>129</ele>
<time>2024-05-11T12:59:16Z</time>
</trkpt>
<trkpt lat="49.759674025699496" lon="9.516139961779118">
<ele>129</ele>
<time>2024-05-11T12:59:17Z</time>
</trkpt>
<trkpt lat="49.759674025699496" lon="9.516143733635545">
<ele>129</ele>
<time>2024-05-11T12:59:18Z</time>
</trkpt>
<trkpt lat="49.759677881374955" lon="9.516149517148731">
<ele>129</ele>
<time>2024-05-11T12:59:19Z</time>
</trkpt>
<trkpt lat="49.75968165323138" lon="9.51615521684289">
<ele>129</ele>
<time>2024-05-11T12:59:20Z</time>
</trkpt>
<trkpt lat="49.75969313643873" lon="9.516161838546395">
<ele>129</ele>
<time>2024-05-11T12:59:21Z</time>
</trkpt>
<trkpt lat="49.75970453582704" lon="9.516161838546395">
<ele>129</ele>
<time>2024-05-11T12:59:22Z</time>
</trkpt>
<trkpt lat="49.75970453582704" lon="9.516164772212504">
<ele>129</ele>
<time>2024-05-11T12:59:23Z</time>
</trkpt>
<trkpt lat="49.7597083915025" lon="9.516170471906662">
<ele>129</ele>
<time>2024-05-11T12:59:24Z</time>
</trkpt>
<trkpt lat="49.759716019034386" lon="9.51617617160082">
<ele>129</ele>
<time>2024-05-11T12:59:25Z</time>
</trkpt>
<trkpt lat="49.75972364656627" lon="9.516188576817513">
<ele>129</ele>
<time>2024-05-11T12:59:26Z</time>
</trkpt>
<trkpt lat="49.7597274184227" lon="9.516200060024858">
<ele>129</ele>
<time>2024-05-11T12:59:27Z</time>
</trkpt>
<trkpt lat="49.759735045954585" lon="9.51620953157544">
<ele>129</ele>
<time>2024-05-11T12:59:28Z</time>
</trkpt>
<trkpt lat="49.75974267348647" lon="9.516218164935708">
<ele>129</ele>
<time>2024-05-11T12:59:29Z</time>
</trkpt>
<trkpt lat="49.759815176948905" lon="9.516318244859576">
<ele>129</ele>
<time>2024-05-11T12:59:30Z</time>
</trkpt>
<trkpt lat="49.759853314608335" lon="9.516385048627852">
<ele>129</ele>
<time>2024-05-11T12:59:31Z</time>
</trkpt>
<trkpt lat="49.75987242534757" lon="9.51638982631266">
<ele>129</ele>
<time>2024-05-11T12:59:32Z</time>
</trkpt>
<trkpt lat="49.75988382473588" lon="9.516418408602476">
<ele>129</ele>
<time>2024-05-11T12:59:33Z</time>
</trkpt>
<trkpt lat="49.759876197203994" lon="9.51649183407426">
<ele>129</ele>
<time>2024-05-11T12:59:34Z</time>
</trkpt>
<trkpt lat="49.75988005287945" lon="9.51651186682284">
<ele>129</ele>
<time>2024-05-11T12:59:35Z</time>
</trkpt>
<trkpt lat="49.75988005287945" lon="9.516516644507648">
<ele>129</ele>
<time>2024-05-11T12:59:36Z</time>
</trkpt>
<trkpt lat="49.75988382473588" lon="9.516519494354725">
<ele>129</ele>
<time>2024-05-11T12:59:37Z</time>
</trkpt>
<trkpt lat="49.75990293547511" lon="9.51653189957142">
<ele>129</ele>
<time>2024-05-11T12:59:38Z</time>
</trkpt>
<trkpt lat="49.759914334863424" lon="9.516532821580768">
<ele>129</ele>
<time>2024-05-11T12:59:39Z</time>
</trkpt>
<trkpt lat="49.7599295899272" lon="9.51655193232">
<ele>129</ele>
<time>2024-05-11T12:59:40Z</time>
</trkpt>
<trkpt lat="49.75992581807077" lon="9.516561487689614">
<ele>129</ele>
<time>2024-05-11T12:59:41Z</time>
</trkpt>
<trkpt lat="49.75992581807077" lon="9.51656810939312">
<ele>129</ele>
<time>2024-05-11T12:59:42Z</time>
</trkpt>
<trkpt lat="49.75992581807077" lon="9.516574814915655">
<ele>129</ele>
<time>2024-05-11T12:59:43Z</time>
</trkpt>
<trkpt lat="49.7599295899272" lon="9.516578670591116">
<ele>129</ele>
<time>2024-05-11T12:59:44Z</time>
</trkpt>
<trkpt lat="49.75992581807077" lon="9.51659199781716">
<ele>129</ele>
<time>2024-05-11T12:59:45Z</time>
</trkpt>
<trkpt lat="49.75991819053888" lon="9.516601553186774">
<ele>129</ele>
<time>2024-05-11T12:59:46Z</time>
</trkpt>
<trkpt lat="49.75991819053888" lon="9.51660817489028">
<ele>129</ele>
<time>2024-05-11T12:59:47Z</time>
</trkpt>
<trkpt lat="49.75991819053888" lon="9.516612952575088">
<ele>129</ele>
<time>2024-05-11T12:59:49Z</time>
</trkpt>
<trkpt lat="49.75990670733154" lon="9.516603397205472">
<ele>129</ele>
<time>2024-05-11T12:59:50Z</time>
</trkpt>
<trkpt lat="49.75989907979965" lon="9.516603397205472">
<ele>129</ele>
<time>2024-05-11T12:59:51Z</time>
</trkpt>
<trkpt lat="49.759891452267766" lon="9.51661010272801">
<ele>129</ele>
<time>2024-05-11T12:59:52Z</time>
</trkpt>
<trkpt lat="49.75988382473588" lon="9.516616808250546">
<ele>129</ele>
<time>2024-05-11T12:59:53Z</time>
</trkpt>
<trkpt lat="49.759876197203994" lon="9.516616808250546">
<ele>129</ele>
<time>2024-05-11T12:59:54Z</time>
</trkpt>
<trkpt lat="49.75986856967211" lon="9.516616808250546">
<ele>129</ele>
<time>2024-05-11T12:59:55Z</time>
</trkpt>
<trkpt lat="49.75987242534757" lon="9.51663013547659">
<ele>129</ele>
<time>2024-05-11T12:59:56Z</time>
</trkpt>
<trkpt lat="49.759876197203994" lon="9.516632985323668">
<ele>129</ele>
<time>2024-05-11T12:59:57Z</time>
</trkpt>
<trkpt lat="49.75986856967211" lon="9.51663013547659">
<ele>129</ele>
<time>2024-05-11T12:59:58Z</time>
</trkpt>
<trkpt lat="49.75987242534757" lon="9.51663013547659">
<ele>129</ele>
<time>2024-05-11T12:59:59Z</time>
</trkpt>
<trkpt lat="49.75986479781568" lon="9.516623429954052">
<ele>129</ele>
<time>2024-05-11T13:00:00Z</time>
</trkpt>
<trkpt lat="49.75986479781568" lon="9.51662627980113">
<ele>129</ele>
<time>2024-05-11T13:00:01Z</time>
</trkpt>
<trkpt lat="49.75988382473588" lon="9.516636840999126">
<ele>129</ele>
<time>2024-05-11T13:00:02Z</time>
</trkpt>
<trkpt lat="49.75990293547511" lon="9.51665016822517">
<ele>129</ele>
<time>2024-05-11T13:00:03Z</time>
</trkpt>
<trkpt lat="49.75990293547511" lon="9.516653018072248">
<ele>129</ele>
<time>2024-05-11T13:00:04Z</time>
</trkpt>
<trkpt lat="49.759895307943225" lon="9.51664631254971">
<ele>129</ele>
<time>2024-05-11T13:00:05Z</time>
</trkpt>
<trkpt lat="49.759891452267766" lon="9.516643462702632">
<ele>129</ele>
<time>2024-05-11T13:00:06Z</time>
</trkpt>
<trkpt lat="49.759891452267766" lon="9.516638685017824">
<ele>129</ele>
<time>2024-05-11T13:00:07Z</time>
</trkpt>
<trkpt lat="49.759891452267766" lon="9.516639690846205">
<ele>129</ele>
<time>2024-05-11T13:00:09Z</time>
</trkpt>
<trkpt lat="49.75991819053888" lon="9.516659723594785">
<ele>129</ele>
<time>2024-05-11T13:00:10Z</time>
</trkpt>
<trkpt lat="49.759914334863424" lon="9.516663495451212">
<ele>129</ele>
<time>2024-05-11T13:00:11Z</time>
</trkpt>
<trkpt lat="49.75990293547511" lon="9.516656873747706">
<ele>129</ele>
<time>2024-05-11T13:00:12Z</time>
</trkpt>
<trkpt lat="49.759891452267766" lon="9.51665016822517">
<ele>129</ele>
<time>2024-05-11T13:00:13Z</time>
</trkpt>
<trkpt lat="49.75988768041134" lon="9.516673050820827">
<ele>129</ele>
<time>2024-05-11T13:00:14Z</time>
</trkpt>
<trkpt lat="49.75988005287945" lon="9.516691155731678">
<ele>129</ele>
<time>2024-05-11T13:00:15Z</time>
</trkpt>
<trkpt lat="49.75988005287945" lon="9.516716888174416">
<ele>129</ele>
<time>2024-05-11T13:00:16Z</time>
</trkpt>
<trkpt lat="49.75988768041134" lon="9.516737926751375">
<ele>129</ele>
<time>2024-05-11T13:00:17Z</time>
</trkpt>
<trkpt lat="49.75988768041134" lon="9.516751253977418">
<ele>129</ele>
<time>2024-05-11T13:00:18Z</time>
</trkpt>
<trkpt lat="49.759895307943225" lon="9.516773214563727">
<ele>129</ele>
<time>2024-05-11T13:00:19Z</time>
</trkpt>
<trkpt lat="49.759891452267766" lon="9.516779836267231">
<ele>129</ele>
<time>2024-05-11T13:00:20Z</time>
</trkpt>
<trkpt lat="49.75988382473588" lon="9.516771286725998">
<ele>129</ele>
<time>2024-05-11T13:00:21Z</time>
</trkpt>
<trkpt lat="49.75988005287945" lon="9.51676843687892">
<ele>129</ele>
<time>2024-05-11T13:00:22Z</time>
</trkpt>
<trkpt lat="49.75988005287945" lon="9.516775058582423">
<ele>129</ele>
<time>2024-05-11T13:00:23Z</time>
</trkpt>
<trkpt lat="49.75986856967211" lon="9.516755025833843">
<ele>129</ele>
<time>2024-05-11T13:00:24Z</time>
</trkpt>
<trkpt lat="49.75984954275191" lon="9.516711188480258">
<ele>129</ele>
<time>2024-05-11T13:00:25Z</time>
</trkpt>
<trkpt lat="49.75984954275191" lon="9.51670833863318">
<ele>129</ele>
<time>2024-05-11T13:00:26Z</time>
</trkpt>
<trkpt lat="49.75982666015625" lon="9.51664824038744">
<ele>129</ele>
<time>2024-05-11T13:00:27Z</time>
</trkpt>
<trkpt lat="49.75982666015625" lon="9.51664539054036">
<ele>129</ele>
<time>2024-05-11T13:00:28Z</time>
</trkpt>
<trkpt lat="49.75983043201268" lon="9.51667212881148">
<ele>129</ele>
<time>2024-05-11T13:00:30Z</time>
</trkpt>
<trkpt lat="49.75982666015625" lon="9.516659723594785">
<ele>129</ele>
<time>2024-05-11T13:00:31Z</time>
</trkpt>
<trkpt lat="49.75983043201268" lon="9.516653018072248">
<ele>129</ele>
<time>2024-05-11T13:00:32Z</time>
</trkpt>
<trkpt lat="49.75983043201268" lon="9.516643462702632">
<ele>129</ele>
<time>2024-05-11T13:00:33Z</time>
</trkpt>
<trkpt lat="49.75982666015625" lon="9.51662535779178">
<ele>129</ele>
<time>2024-05-11T13:00:34Z</time>
</trkpt>
<trkpt lat="49.75983805954456" lon="9.516636840999126">
<ele>129</ele>
<time>2024-05-11T13:00:35Z</time>
</trkpt>
<trkpt lat="49.75984191522002" lon="9.51664631254971">
<ele>129</ele>
<time>2024-05-11T13:00:36Z</time>
</trkpt>
<trkpt lat="49.75984191522002" lon="9.516643462702632">
<ele>129</ele>
<time>2024-05-11T13:00:37Z</time>
</trkpt>
<trkpt lat="49.75984191522002" lon="9.516639690846205">
<ele>129</ele>
<time>2024-05-11T13:00:38Z</time>
</trkpt>
<trkpt lat="49.75984191522002" lon="9.516641534864902">
<ele>129</ele>
<time>2024-05-11T13:00:39Z</time>
</trkpt>
<trkpt lat="49.75984191522002" lon="9.51664824038744">
<ele>129</ele>
<time>2024-05-11T13:00:40Z</time>
</trkpt>
<trkpt lat="49.75984191522002" lon="9.516654945909975">
<ele>129</ele>
<time>2024-05-11T13:00:41Z</time>
</trkpt>
<trkpt lat="49.75984568707645" lon="9.516659723594785">
<ele>129</ele>
<time>2024-05-11T13:00:42Z</time>
</trkpt>
<trkpt lat="49.759857170283794" lon="9.516683528199792">
<ele>129</ele>
<time>2024-05-11T13:00:43Z</time>
</trkpt>
<trkpt lat="49.75986094214022" lon="9.51669023372233">
<ele>129</ele>
<time>2024-05-11T13:00:44Z</time>
</trkpt>
<trkpt lat="49.75986479781568" lon="9.51668545603752">
<ele>129</ele>
<time>2024-05-11T13:00:45Z</time>
</trkpt>
<trkpt lat="49.75986856967211" lon="9.51668545603752">
<ele>129</ele>
<time>2024-05-11T13:00:46Z</time>
</trkpt>
<trkpt lat="49.75987242534757" lon="9.516674978658555">
<ele>129</ele>
<time>2024-05-11T13:00:47Z</time>
</trkpt>
<trkpt lat="49.759876197203994" lon="9.51666634529829">
<ele>129</ele>
<time>2024-05-11T13:00:48Z</time>
</trkpt>
<trkpt lat="49.75988005287945" lon="9.51667020097375">
<ele>129</ele>
<time>2024-05-11T13:00:49Z</time>
</trkpt>
<trkpt lat="49.75988382473588" lon="9.516673050820827">
<ele>129</ele>
<time>2024-05-11T13:00:50Z</time>
</trkpt>
<trkpt lat="49.75988768041134" lon="9.516663495451212">
<ele>129</ele>
<time>2024-05-11T13:00:51Z</time>
</trkpt>
<trkpt lat="49.759891452267766" lon="9.516673050820827">
<ele>129</ele>
<time>2024-05-11T13:00:52Z</time>
</trkpt>
<trkpt lat="49.759891452267766" lon="9.516683528199792">
<ele>129</ele>
<time>2024-05-11T13:00:53Z</time>
</trkpt>
<trkpt lat="49.759891452267766" lon="9.51668545603752">
<ele>129</ele>
<time>2024-05-11T13:00:54Z</time>
</trkpt>
<trkpt lat="49.759891452267766" lon="9.51669023372233">
<ele>129</ele>
<time>2024-05-11T13:00:56Z</time>
</trkpt>
<trkpt lat="49.759895307943225" lon="9.516693083569407">
<ele>129</ele>
<time>2024-05-11T13:00:57Z</time>
</trkpt>
<trkpt lat="49.759895307943225" lon="9.516699789091945">
<ele>129</ele>
<time>2024-05-11T13:00:58Z</time>
</trkpt>
<trkpt lat="49.759895307943225" lon="9.51670448295772">
<ele>129</ele>
<time>2024-05-11T13:00:59Z</time>
</trkpt>
<trkpt lat="49.759895307943225" lon="9.51670833863318">
<ele>129</ele>
<time>2024-05-11T13:01:00Z</time>
</trkpt>
<trkpt lat="49.75988768041134" lon="9.51670448295772">
<ele>129</ele>
<time>2024-05-11T13:01:01Z</time>
</trkpt>
<trkpt lat="49.75988382473588" lon="9.516699789091945">
<ele>129</ele>
<time>2024-05-11T13:01:02Z</time>
</trkpt>
<trkpt lat="49.75988382473588" lon="9.516701633110642">
<ele>129</ele>
<time>2024-05-11T13:01:03Z</time>
</trkpt>
<trkpt lat="49.75988382473588" lon="9.51670833863318">
<ele>129</ele>
<time>2024-05-11T13:01:04Z</time>
</trkpt>
<trkpt lat="49.75988005287945" lon="9.51670641079545">
<ele>129</ele>
<time>2024-05-11T13:01:05Z</time>
</trkpt>
<trkpt lat="49.759876197203994" lon="9.516695011407135">
<ele>129</ele>
<time>2024-05-11T13:01:06Z</time>
</trkpt>
<trkpt lat="49.75987242534757" lon="9.516696855425836">
<ele>129</ele>
<time>2024-05-11T13:01:07Z</time>
</trkpt>
<trkpt lat="49.75986856967211" lon="9.516696855425836">
<ele>129</ele>
<time>2024-05-11T13:01:08Z</time>
</trkpt>
<trkpt lat="49.75986856967211" lon="9.51670448295772">
<ele>129</ele>
<time>2024-05-11T13:01:09Z</time>
</trkpt>
<trkpt lat="49.75986856967211" lon="9.51671026647091">
<ele>129</ele>
<time>2024-05-11T13:01:10Z</time>
</trkpt>
<trkpt lat="49.75987242534757" lon="9.516721665859222">
<ele>129</ele>
<time>2024-05-11T13:01:11Z</time>
</trkpt>
<trkpt lat="49.759876197203994" lon="9.516731221228838">
<ele>129</ele>
<time>2024-05-11T13:01:12Z</time>
</trkpt>
<trkpt lat="49.759876197203994" lon="9.516735076904297">
<ele>129</ele>
<time>2024-05-11T13:01:13Z</time>
</trkpt>
<trkpt lat="49.75986856967211" lon="9.5166883058846">
<ele>129</ele>
<time>2024-05-11T13:01:14Z</time>
</trkpt>
<trkpt lat="49.75986479781568" lon="9.51668637804687">
<ele>129</ele>
<time>2024-05-11T13:01:15Z</time>
</trkpt>
<trkpt lat="49.75987242534757" lon="9.516695011407135">
<ele>129</ele>
<time>2024-05-11T13:01:17Z</time>
</trkpt>
<trkpt lat="49.75987242534757" lon="9.516693083569407">
<ele>129</ele>
<time>2024-05-11T13:01:18Z</time>
</trkpt>
<trkpt lat="49.759876197203994" lon="9.51669023372233">
<ele>129</ele>
<time>2024-05-11T13:01:19Z</time>
</trkpt>
<trkpt lat="49.75986479781568" lon="9.51667020097375">
<ele>129</ele>
<time>2024-05-11T13:01:20Z</time>
</trkpt>
<trkpt lat="49.75986094214022" lon="9.516664501279593">
<ele>129</ele>
<time>2024-05-11T13:01:21Z</time>
</trkpt>
<trkpt lat="49.759853314608335" lon="9.516658717766404">
<ele>129</ele>
<time>2024-05-11T13:01:22Z</time>
</trkpt>
<trkpt lat="49.759853314608335" lon="9.516654945909975">
<ele>129</ele>
<time>2024-05-11T13:01:24Z</time>
</trkpt>
<trkpt lat="49.759853314608335" lon="9.516653018072248">
<ele>129</ele>
<time>2024-05-11T13:01:25Z</time>
</trkpt>
<trkpt lat="49.759853314608335" lon="9.516656873747706">
<ele>129</ele>
<time>2024-05-11T13:01:26Z</time>
</trkpt>
<trkpt lat="49.75984191522002" lon="9.516619658097625">
<ele>129</ele>
<time>2024-05-11T13:01:27Z</time>
</trkpt>
<trkpt lat="49.759834287688136" lon="9.516596775501966">
<ele>129</ele>
<time>2024-05-11T13:01:28Z</time>
</trkpt>
<trkpt lat="49.75983043201268" lon="9.516581520438194">
<ele>129</ele>
<time>2024-05-11T13:01:29Z</time>
</trkpt>
<trkpt lat="49.75982666015625" lon="9.51658529229462">
<ele>129</ele>
<time>2024-05-11T13:01:30Z</time>
</trkpt>
<trkpt lat="49.75982666015625" lon="9.516572887077928">
<ele>129</ele>
<time>2024-05-11T13:01:31Z</time>
</trkpt>
<trkpt lat="49.75981894880533" lon="9.51655000448227">
<ele>129</ele>
<time>2024-05-11T13:01:32Z</time>
</trkpt>
<trkpt lat="49.759815176948905" lon="9.516521422192454">
<ele>129</ele>
<time>2024-05-11T13:01:33Z</time>
</trkpt>
<trkpt lat="49.75980754941702" lon="9.51651186682284">
<ele>129</ele>
<time>2024-05-11T13:01:34Z</time>
</trkpt>
<trkpt lat="49.75979992188513" lon="9.51648990623653">
<ele>129</ele>
<time>2024-05-11T13:01:35Z</time>
</trkpt>
<trkpt lat="49.75978843867779" lon="9.516476579010488">
<ele>129</ele>
<time>2024-05-11T13:01:36Z</time>
</trkpt>
<trkpt lat="49.759773183614016" lon="9.5164517685771">
<ele>129</ele>
<time>2024-05-11T13:01:37Z</time>
</trkpt>
<trkpt lat="49.75976555608213" lon="9.516434669494627">
<ele>129</ele>
<time>2024-05-11T13:01:38Z</time>
</trkpt>
<trkpt lat="49.7597617842257" lon="9.516418408602476">
<ele>129</ele>
<time>2024-05-11T13:01:39Z</time>
</trkpt>
<trkpt lat="49.75975792855024" lon="9.516400303691626">
<ele>129</ele>
<time>2024-05-11T13:01:40Z</time>
</trkpt>
<trkpt lat="49.75975792855024" lon="9.516393598169088">
<ele>129</ele>
<time>2024-05-11T13:01:41Z</time>
</trkpt>
<trkpt lat="49.75976555608213" lon="9.516381192952394">
<ele>129</ele>
<time>2024-05-11T13:01:42Z</time>
</trkpt>
<trkpt lat="49.759773183614016" lon="9.516396448016168">
<ele>129</ele>
<time>2024-05-11T13:01:43Z</time>
</trkpt>
<trkpt lat="49.75978466682136" lon="9.516407009214165">
<ele>129</ele>
<time>2024-05-11T13:01:44Z</time>
</trkpt>
<trkpt lat="49.75978843867779" lon="9.51640985906124">
<ele>129</ele>
<time>2024-05-11T13:01:45Z</time>
</trkpt>
<trkpt lat="49.75978843867779" lon="9.516416480764748">
<ele>129</ele>
<time>2024-05-11T13:01:46Z</time>
</trkpt>
<trkpt lat="49.75979229435325" lon="9.516421258449554">
<ele>129</ele>
<time>2024-05-11T13:01:47Z</time>
</trkpt>
<trkpt lat="49.75980369374156" lon="9.516463251784444">
<ele>129</ele>
<time>2024-05-11T13:01:48Z</time>
</trkpt>
<trkpt lat="49.75980754941702" lon="9.516467023640873">
<ele>129</ele>
<time>2024-05-11T13:01:49Z</time>
</trkpt>
<trkpt lat="49.75980754941702" lon="9.51647180132568">
<ele>129</ele>
<time>2024-05-11T13:01:50Z</time>
</trkpt>
<trkpt lat="49.75982280448079" lon="9.51651186682284">
<ele>129</ele>
<time>2024-05-11T13:01:51Z</time>
</trkpt>
<trkpt lat="49.75982666015625" lon="9.516534749418495">
<ele>129</ele>
<time>2024-05-11T13:01:52Z</time>
</trkpt>
<trkpt lat="49.75984568707645" lon="9.516576742753386">
<ele>129</ele>
<time>2024-05-11T13:01:53Z</time>
</trkpt>
<trkpt lat="49.75983805954456" lon="9.516559559851885">
<ele>129</ele>
<time>2024-05-11T13:01:54Z</time>
</trkpt>
<trkpt lat="49.75984191522002" lon="9.516561487689614">
<ele>129</ele>
<time>2024-05-11T13:01:55Z</time>
</trkpt>
<trkpt lat="49.75984954275191" lon="9.51657196506858">
<ele>129</ele>
<time>2024-05-11T13:01:56Z</time>
</trkpt>
<trkpt lat="49.759853314608335" lon="9.516583364456892">
<ele>129</ele>
<time>2024-05-11T13:01:57Z</time>
</trkpt>
<trkpt lat="49.759857170283794" lon="9.516592919826508">
<ele>129</ele>
<time>2024-05-11T13:01:58Z</time>
</trkpt>
<trkpt lat="49.75986094214022" lon="9.516598619520664">
<ele>129</ele>
<time>2024-05-11T13:01:59Z</time>
</trkpt>
<trkpt lat="49.75986479781568" lon="9.51661010272801">
<ele>129</ele>
<time>2024-05-11T13:02:00Z</time>
</trkpt>
<trkpt lat="49.75986856967211" lon="9.516623429954052">
<ele>129</ele>
<time>2024-05-11T13:02:01Z</time>
</trkpt>
<trkpt lat="49.759876197203994" lon="9.516632985323668">
<ele>129</ele>
<time>2024-05-11T13:02:02Z</time>
</trkpt>
<trkpt lat="49.75988005287945" lon="9.51664539054036">
<ele>129</ele>
<time>2024-05-11T13:02:04Z</time>
</trkpt>
<trkpt lat="49.75988382473588" lon="9.51664631254971">
<ele>129</ele>
<time>2024-05-11T13:02:05Z</time>
</trkpt>
<trkpt lat="49.75988005287945" lon="9.5166520960629">
<ele>129</ele>
<time>2024-05-11T13:02:06Z</time>
</trkpt>
<trkpt lat="49.759876197203994" lon="9.51664824038744">
<ele>129</ele>
<time>2024-05-11T13:02:07Z</time>
</trkpt>
<trkpt lat="49.759876197203994" lon="9.5166520960629">
<ele>129</ele>
<time>2024-05-11T13:02:08Z</time>
</trkpt>
<trkpt lat="49.75988005287945" lon="9.516654945909975">
<ele>129</ele>
<time>2024-05-11T13:02:09Z</time>
</trkpt>
<trkpt lat="49.75988005287945" lon="9.5166520960629">
<ele>129</ele>
<time>2024-05-11T13:02:11Z</time>
</trkpt>
<trkpt lat="49.75988005287945" lon="9.51665016822517">
<ele>129</ele>
<time>2024-05-11T13:02:12Z</time>
</trkpt>
<trkpt lat="49.759876197203994" lon="9.51664824038744">
<ele>129</ele>
<time>2024-05-11T13:02:13Z</time>
</trkpt>
<trkpt lat="49.759876197203994" lon="9.5166520960629">
<ele>129</ele>
<time>2024-05-11T13:02:14Z</time>
</trkpt>
<trkpt lat="49.759876197203994" lon="9.516639690846205">
<ele>129</ele>
<time>2024-05-11T13:02:15Z</time>
</trkpt>
<trkpt lat="49.75988005287945" lon="9.51663013547659">
<ele>129</ele>
<time>2024-05-11T13:02:16Z</time>
</trkpt>
<trkpt lat="49.75988005287945" lon="9.516621585935354">
<ele>129</ele>
<time>2024-05-11T13:02:17Z</time>
</trkpt>
<trkpt lat="49.759876197203994" lon="9.516621585935354">
<ele>129</ele>
<time>2024-05-11T13:02:18Z</time>
</trkpt>
<trkpt lat="49.75987242534757" lon="9.516621585935354">
<ele>129</ele>
<time>2024-05-11T13:02:19Z</time>
</trkpt>
<trkpt lat="49.75986856967211" lon="9.516619658097625">
<ele>129</ele>
<time>2024-05-11T13:02:20Z</time>
</trkpt>
<trkpt lat="49.75986479781568" lon="9.516614880412815">
<ele>129</ele>
<time>2024-05-11T13:02:21Z</time>
</trkpt>
<trkpt lat="49.759876197203994" lon="9.516603397205472">
<ele>129</ele>
<time>2024-05-11T13:02:22Z</time>
</trkpt>
<trkpt lat="49.75988005287945" lon="9.516598619520664">
<ele>129</ele>
<time>2024-05-11T13:02:23Z</time>
</trkpt>
<trkpt lat="49.759876197203994" lon="9.516594847664235">
<ele>129</ele>
<time>2024-05-11T13:02:24Z</time>
</trkpt>
<trkpt lat="49.759876197203994" lon="9.516596775501966">
<ele>129</ele>
<time>2024-05-11T13:02:25Z</time>
</trkpt>
<trkpt lat="49.759876197203994" lon="9.516594847664235">
<ele>129</ele>
<time>2024-05-11T13:02:27Z</time>
</trkpt>
<trkpt lat="49.75987242534757" lon="9.516592919826508">
<ele>129</ele>
<time>2024-05-11T13:02:28Z</time>
</trkpt>
<trkpt lat="49.75987242534757" lon="9.516594847664235">
<ele>129</ele>
<time>2024-05-11T13:02:29Z</time>
</trkpt>
<trkpt lat="49.75986856967211" lon="9.51659199781716">
<ele>129</ele>
<time>2024-05-11T13:02:30Z</time>
</trkpt>
<trkpt lat="49.75987242534757" lon="9.51659199781716">
<ele>129</ele>
<time>2024-05-11T13:02:31Z</time>
</trkpt>
<trkpt lat="49.75986856967211" lon="9.5165881421417">
<ele>129</ele>
<time>2024-05-11T13:02:32Z</time>
</trkpt>
<trkpt lat="49.75986479781568" lon="9.51659199781716">
<ele>129</ele>
<time>2024-05-11T13:02:34Z</time>
</trkpt>
<trkpt lat="49.75986479781568" lon="9.516594847664235">
<ele>129</ele>
<time>2024-05-11T13:02:37Z</time>
</trkpt>
<trkpt lat="49.75986479781568" lon="9.516596775501966">
<ele>129</ele>
<time>2024-05-11T13:02:38Z</time>
</trkpt>
<trkpt lat="49.75986479781568" lon="9.516598619520664">
<ele>129</ele>
<time>2024-05-11T13:02:39Z</time>
</trkpt>
<trkpt lat="49.75986479781568" lon="9.516596775501966">
<ele>129</ele>
<time>2024-05-11T13:02:40Z</time>
</trkpt>
<trkpt lat="49.75986479781568" lon="9.5166053250432">
<ele>129</ele>
<time>2024-05-11T13:02:42Z</time>
</trkpt>
<trkpt lat="49.75986479781568" lon="9.516603397205472">
<ele>129</ele>
<time>2024-05-11T13:02:43Z</time>
</trkpt>
<trkpt lat="49.75986856967211" lon="9.51660817489028">
<ele>129</ele>
<time>2024-05-11T13:02:44Z</time>
</trkpt>
<trkpt lat="49.75986856967211" lon="9.51661010272801">
<ele>129</ele>
<time>2024-05-11T13:02:45Z</time>
</trkpt>
<trkpt lat="49.75986856967211" lon="9.516612952575088">
<ele>129</ele>
<time>2024-05-11T13:02:46Z</time>
</trkpt>
<trkpt lat="49.75986856967211" lon="9.516614880412815">
<ele>129</ele>
<time>2024-05-11T13:02:47Z</time>
</trkpt>
<trkpt lat="49.75986856967211" lon="9.516618652269244">
<ele>129</ele>
<time>2024-05-11T13:02:48Z</time>
</trkpt>
<trkpt lat="49.75986856967211" lon="9.516621585935354">
<ele>129</ele>
<time>2024-05-11T13:02:49Z</time>
</trkpt>
<trkpt lat="49.75987242534757" lon="9.51662535779178">
<ele>129</ele>
<time>2024-05-11T13:02:50Z</time>
</trkpt>
<trkpt lat="49.75987242534757" lon="9.51662820763886">
<ele>129</ele>
<time>2024-05-11T13:02:51Z</time>
</trkpt>
<trkpt lat="49.75987242534757" lon="9.51663206331432">
<ele>129</ele>
<time>2024-05-11T13:02:53Z</time>
</trkpt>
<trkpt lat="49.759876197203994" lon="9.516632985323668">
<ele>129</ele>
<time>2024-05-11T13:02:54Z</time>
</trkpt>
<trkpt lat="49.75987242534757" lon="9.516632985323668">
<ele>129</ele>
<time>2024-05-11T13:02:55Z</time>
</trkpt>
<trkpt lat="49.75987242534757" lon="9.516634913161395">
<ele>129</ele>
<time>2024-05-11T13:02:56Z</time>
</trkpt>
<trkpt lat="49.75987242534757" lon="9.516636840999126">
<ele>129</ele>
<time>2024-05-11T13:02:57Z</time>
</trkpt>
<trkpt lat="49.75987242534757" lon="9.516634913161395">
<ele>129</ele>
<time>2024-05-11T13:02:58Z</time>
</trkpt>
<trkpt lat="49.75987242534757" lon="9.516636840999126">
<ele>129</ele>
<time>2024-05-11T13:02:59Z</time>
</trkpt>
<trkpt lat="49.75987242534757" lon="9.516638685017824">
<ele>129</ele>
<time>2024-05-11T13:03:00Z</time>
</trkpt>
<trkpt lat="49.759876197203994" lon="9.516641534864902">
<ele>129</ele>
<time>2024-05-11T13:03:01Z</time>
</trkpt>
<trkpt lat="49.75987242534757" lon="9.516639690846205">
<ele>129</ele>
<time>2024-05-11T13:03:02Z</time>
</trkpt>
<trkpt lat="49.75987242534757" lon="9.516641534864902">
<ele>129</ele>
<time>2024-05-11T13:03:04Z</time>
</trkpt>
<trkpt lat="49.759876197203994" lon="9.516641534864902">
<ele>129</ele>
<time>2024-05-11T13:03:05Z</time>
</trkpt>
<trkpt lat="49.75987242534757" lon="9.516643462702632">
<ele>129</ele>
<time>2024-05-11T13:03:06Z</time>
</trkpt>
<trkpt lat="49.759876197203994" lon="9.51664824038744">
<ele>129</ele>
<time>2024-05-11T13:03:07Z</time>
</trkpt>
<trkpt lat="49.759876197203994" lon="9.51664631254971">
<ele>129</ele>
<time>2024-05-11T13:03:08Z</time>
</trkpt>
<trkpt lat="49.759876197203994" lon="9.51665016822517">
<ele>129</ele>
<time>2024-05-11T13:03:10Z</time>
</trkpt>
<trkpt lat="49.759876197203994" lon="9.516653018072248">
<ele>129</ele>
<time>2024-05-11T13:03:11Z</time>
</trkpt>
<trkpt lat="49.759876197203994" lon="9.516656873747706">
<ele>129</ele>
<time>2024-05-11T13:03:13Z</time>
</trkpt>
<trkpt lat="49.759876197203994" lon="9.516658717766404">
<ele>129</ele>
<time>2024-05-11T13:03:14Z</time>
</trkpt>
<trkpt lat="49.759876197203994" lon="9.516654945909975">
<ele>129</ele>
<time>2024-05-11T13:03:15Z</time>
</trkpt>
<trkpt lat="49.75987242534757" lon="9.516654945909975">
<ele>129</ele>
<time>2024-05-11T13:03:16Z</time>
</trkpt>
<trkpt lat="49.759876197203994" lon="9.516656873747706">
<ele>129</ele>
<time>2024-05-11T13:03:17Z</time>
</trkpt>
<trkpt lat="49.75987242534757" lon="9.516654945909975">
<ele>129</ele>
<time>2024-05-11T13:03:18Z</time>
</trkpt>
<trkpt lat="49.75987242534757" lon="9.51665016822517">
<ele>129</ele>
<time>2024-05-11T13:03:19Z</time>
</trkpt>
<trkpt lat="49.75986856967211" lon="9.51664631254971">
<ele>129</ele>
<time>2024-05-11T13:03:20Z</time>
</trkpt>
<trkpt lat="49.75986479781568" lon="9.516643462702632">
<ele>129</ele>
<time>2024-05-11T13:03:21Z</time>
</trkpt>
<trkpt lat="49.75986094214022" lon="9.516639690846205">
<ele>129</ele>
<time>2024-05-11T13:03:24Z</time>
</trkpt>
<trkpt lat="49.75986094214022" lon="9.516641534864902">
<ele>129</ele>
<time>2024-05-11T13:03:25Z</time>
</trkpt>
<trkpt lat="49.75986479781568" lon="9.51664539054036">
<ele>129</ele>
<time>2024-05-11T13:03:26Z</time>
</trkpt>
<trkpt lat="49.75986094214022" lon="9.51664539054036">
<ele>129</ele>
<time>2024-05-11T13:03:27Z</time>
</trkpt>
<trkpt lat="49.75986094214022" lon="9.51664631254971">
<ele>129</ele>
<time>2024-05-11T13:03:28Z</time>
</trkpt>
<trkpt lat="49.75986094214022" lon="9.51664824038744">
<ele>129</ele>
<time>2024-05-11T13:03:29Z</time>
</trkpt>
<trkpt lat="49.75986479781568" lon="9.51665016822517">
<ele>129</ele>
<time>2024-05-11T13:03:30Z</time>
</trkpt>
<trkpt lat="49.75986479781568" lon="9.5166520960629">
<ele>129</ele>
<time>2024-05-11T13:03:31Z</time>
</trkpt>
<trkpt lat="49.75986856967211" lon="9.516653018072248">
<ele>129</ele>
<time>2024-05-11T13:03:33Z</time>
</trkpt>
<trkpt lat="49.75986856967211" lon="9.516654945909975">
<ele>129</ele>
<time>2024-05-11T13:03:34Z</time>
</trkpt>
<trkpt lat="49.75986856967211" lon="9.516656873747706">
<ele>129</ele>
<time>2024-05-11T13:03:35Z</time>
</trkpt>
<trkpt lat="49.75986856967211" lon="9.516654945909975">
<ele>129</ele>
<time>2024-05-11T13:03:36Z</time>
</trkpt>
<trkpt lat="49.75987242534757" lon="9.516658717766404">
<ele>129</ele>
<time>2024-05-11T13:03:37Z</time>
</trkpt>
<trkpt lat="49.75987242534757" lon="9.516659723594785">
<ele>129</ele>
<time>2024-05-11T13:03:38Z</time>
</trkpt>
<trkpt lat="49.75986856967211" lon="9.516661567613482">
<ele>129</ele>
<time>2024-05-11T13:03:39Z</time>
</trkpt>
<trkpt lat="49.75986856967211" lon="9.516663495451212">
<ele>129</ele>
<time>2024-05-11T13:03:41Z</time>
</trkpt>
<trkpt lat="49.759876197203994" lon="9.51667020097375">
<ele>129</ele>
<time>2024-05-11T13:03:42Z</time>
</trkpt>
<trkpt lat="49.759876197203994" lon="9.516664501279593">
<ele>129</ele>
<time>2024-05-11T13:03:43Z</time>
</trkpt>
<trkpt lat="49.759876197203994" lon="9.516663495451212">
<ele>129</ele>
<time>2024-05-11T13:03:44Z</time>
</trkpt>
<trkpt lat="49.759876197203994" lon="9.516658717766404">
<ele>129</ele>
<time>2024-05-11T13:03:45Z</time>
</trkpt>
<trkpt lat="49.759876197203994" lon="9.5166520960629">
<ele>129</ele>
<time>2024-05-11T13:03:46Z</time>
</trkpt>
<trkpt lat="49.759876197203994" lon="9.51664539054036">
<ele>129</ele>
<time>2024-05-11T13:03:47Z</time>
</trkpt>
<trkpt lat="49.75987242534757" lon="9.516638685017824">
<ele>129</ele>
<time>2024-05-11T13:03:48Z</time>
</trkpt>
<trkpt lat="49.75987242534757" lon="9.516634913161395">
<ele>129</ele>
<time>2024-05-11T13:03:50Z</time>
</trkpt>
<trkpt lat="49.75987242534757" lon="9.516632985323668">
<ele>129</ele>
<time>2024-05-11T13:03:53Z</time>
</trkpt>
<trkpt lat="49.75986856967211" lon="9.51663206331432">
<ele>129</ele>
<time>2024-05-11T13:03:54Z</time>
</trkpt>
<trkpt lat="49.75986856967211" lon="9.516632985323668">
<ele>129</ele>
<time>2024-05-11T13:03:55Z</time>
</trkpt>
<trkpt lat="49.75987242534757" lon="9.51663206331432">
<ele>129</ele>
<time>2024-05-11T13:03:56Z</time>
</trkpt>
<trkpt lat="49.759876197203994" lon="9.516638685017824">
<ele>129</ele>
<time>2024-05-11T13:03:57Z</time>
</trkpt>
<trkpt lat="49.75987242534757" lon="9.516636840999126">
<ele>129</ele>
<time>2024-05-11T13:03:59Z</time>
</trkpt>
<trkpt lat="49.759876197203994" lon="9.516639690846205">
<ele>129</ele>
<time>2024-05-11T13:04:00Z</time>
</trkpt>
<trkpt lat="49.759876197203994" lon="9.516641534864902">
<ele>129</ele>
<time>2024-05-11T13:04:01Z</time>
</trkpt>
<trkpt lat="49.75988005287945" lon="9.51664539054036">
<ele>129</ele>
<time>2024-05-11T13:04:03Z</time>
</trkpt>
<trkpt lat="49.75988768041134" lon="9.51665016822517">
<ele>129</ele>
<time>2024-05-11T13:04:04Z</time>
</trkpt>
<trkpt lat="49.75988768041134" lon="9.51664824038744">
<ele>129</ele>
<time>2024-05-11T13:04:05Z</time>
</trkpt>
<trkpt lat="49.75988768041134" lon="9.51664631254971">
<ele>129</ele>
<time>2024-05-11T13:04:06Z</time>
</trkpt>
<trkpt lat="49.75988768041134" lon="9.51665016822517">
<ele>129</ele>
<time>2024-05-11T13:04:07Z</time>
</trkpt>
<trkpt lat="49.75988768041134" lon="9.51664824038744">
<ele>129</ele>
<time>2024-05-11T13:04:08Z</time>
</trkpt>
<trkpt lat="49.75988768041134" lon="9.51664631254971">
<ele>129</ele>
<time>2024-05-11T13:04:09Z</time>
</trkpt>
<trkpt lat="49.75988382473588" lon="9.51664539054036">
<ele>129</ele>
<time>2024-05-11T13:04:10Z</time>
</trkpt>
<trkpt lat="49.75988382473588" lon="9.51664631254971">
<ele>129</ele>
<time>2024-05-11T13:04:18Z</time>
</trkpt>
<trkpt lat="49.75988382473588" lon="9.51664539054036">
<ele>129</ele>
<time>2024-05-11T13:04:19Z</time>
</trkpt>
<trkpt lat="49.75988768041134" lon="9.51664631254971">
<ele>129</ele>
<time>2024-05-11T13:04:20Z</time>
</trkpt>
<trkpt lat="49.75988382473588" lon="9.51664631254971">
<ele>129</ele>
<time>2024-05-11T13:04:21Z</time>
</trkpt>
<trkpt lat="49.75988382473588" lon="9.51664824038744">
<ele>129</ele>
<time>2024-05-11T13:04:22Z</time>
</trkpt>
<trkpt lat="49.75988382473588" lon="9.51664631254971">
<ele>129</ele>
<time>2024-05-11T13:04:23Z</time>
</trkpt>
<trkpt lat="49.75988005287945" lon="9.51664539054036">
<ele>129</ele>
<time>2024-05-11T13:04:24Z</time>
</trkpt>
<trkpt lat="49.75988005287945" lon="9.51664824038744">
<ele>129</ele>
<time>2024-05-11T13:04:25Z</time>
</trkpt>
<trkpt lat="49.75988005287945" lon="9.51665016822517">
<ele>129</ele>
<time>2024-05-11T13:04:27Z</time>
</trkpt>
<trkpt lat="49.75988005287945" lon="9.5166520960629">
<ele>129</ele>
<time>2024-05-11T13:04:28Z</time>
</trkpt>
<trkpt lat="49.75988005287945" lon="9.51665016822517">
<ele>129</ele>
<time>2024-05-11T13:04:30Z</time>
</trkpt>
<trkpt lat="49.75988005287945" lon="9.5166520960629">
<ele>129</ele>
<time>2024-05-11T13:04:31Z</time>
</trkpt>
<trkpt lat="49.75988005287945" lon="9.51665016822517">
<ele>129</ele>
<time>2024-05-11T13:04:32Z</time>
</trkpt>
<trkpt lat="49.75988005287945" lon="9.51664631254971">
<ele>129</ele>
<time>2024-05-11T13:04:33Z</time>
</trkpt>
<trkpt lat="49.759876197203994" lon="9.516643462702632">
<ele>129</ele>
<time>2024-05-11T13:04:34Z</time>
</trkpt>
<trkpt lat="49.75988005287945" lon="9.516643462702632">
<ele>129</ele>
<time>2024-05-11T13:04:37Z</time>
</trkpt>
<trkpt lat="49.75988005287945" lon="9.51664539054036">
<ele>129</ele>
<time>2024-05-11T13:04:38Z</time>
</trkpt>
<trkpt lat="49.75988005287945" lon="9.51664631254971">
<ele>129</ele>
<time>2024-05-11T13:04:40Z</time>
</trkpt>
<trkpt lat="49.75988005287945" lon="9.51664824038744">
<ele>129</ele>
<time>2024-05-11T13:04:41Z</time>
</trkpt>
<trkpt lat="49.75988005287945" lon="9.51665016822517">
<ele>129</ele>
<time>2024-05-11T13:04:44Z</time>
</trkpt>
<trkpt lat="49.75988005287945" lon="9.51664824038744">
<ele>129</ele>
<time>2024-05-11T13:04:45Z</time>
</trkpt>
<trkpt lat="49.759876197203994" lon="9.51664631254971">
<ele>129</ele>
<time>2024-05-11T13:04:47Z</time>
</trkpt>
<trkpt lat="49.759876197203994" lon="9.51664824038744">
<ele>129</ele>
<time>2024-05-11T13:04:48Z</time>
</trkpt>
<trkpt lat="49.75988005287945" lon="9.51665016822517">
<ele>129</ele>
<time>2024-05-11T13:04:50Z</time>
</trkpt>
<trkpt lat="49.75988005287945" lon="9.5166520960629">
<ele>129</ele>
<time>2024-05-11T13:04:51Z</time>
</trkpt>
<trkpt lat="49.75988005287945" lon="9.516654945909975">
<ele>129</ele>
<time>2024-05-11T13:04:52Z</time>
</trkpt>
<trkpt lat="49.75988005287945" lon="9.516656873747706">
<ele>129</ele>
<time>2024-05-11T13:04:53Z</time>
</trkpt>
<trkpt lat="49.75988005287945" lon="9.516658717766404">
<ele>129</ele>
<time>2024-05-11T13:04:55Z</time>
</trkpt>
<trkpt lat="49.75988005287945" lon="9.516659723594785">
<ele>129</ele>
<time>2024-05-11T13:04:56Z</time>
</trkpt>
<trkpt lat="49.75988005287945" lon="9.516658717766404">
<ele>129</ele>
<time>2024-05-11T13:04:57Z</time>
</trkpt>
<trkpt lat="49.75988005287945" lon="9.516661567613482">
<ele>129</ele>
<time>2024-05-11T13:04:58Z</time>
</trkpt>
<trkpt lat="49.75988005287945" lon="9.516663495451212">
<ele>129</ele>
<time>2024-05-11T13:05:00Z</time>
</trkpt>
<trkpt lat="49.75988005287945" lon="9.516664501279593">
<ele>129</ele>
<time>2024-05-11T13:05:01Z</time>
</trkpt>
<trkpt lat="49.75988005287945" lon="9.51666634529829">
<ele>129</ele>
<time>2024-05-11T13:05:03Z</time>
</trkpt>
<trkpt lat="49.75988005287945" lon="9.51666827313602">
<ele>129</ele>
<time>2024-05-11T13:05:06Z</time>
</trkpt>
<trkpt lat="49.75988005287945" lon="9.51667020097375">
<ele>129</ele>
<time>2024-05-11T13:05:07Z</time>
</trkpt>
<trkpt lat="49.75988005287945" lon="9.51666827313602">
<ele>129</ele>
<time>2024-05-11T13:05:08Z</time>
</trkpt>
<trkpt lat="49.75988005287945" lon="9.51667020097375">
<ele>129</ele>
<time>2024-05-11T13:05:12Z</time>
</trkpt>
<trkpt lat="49.75988382473588" lon="9.51667020097375">
<ele>129</ele>
<time>2024-05-11T13:05:14Z</time>
</trkpt>
<trkpt lat="49.75988382473588" lon="9.516673050820827">
<ele>129</ele>
<time>2024-05-11T13:05:15Z</time>
</trkpt>
<trkpt lat="49.75988382473588" lon="9.516674978658555">
<ele>129</ele>
<time>2024-05-11T13:05:16Z</time>
</trkpt>
<trkpt lat="49.75988005287945" lon="9.516673050820827">
<ele>129</ele>
<time>2024-05-11T13:05:19Z</time>
</trkpt>
<trkpt lat="49.75988005287945" lon="9.51667212881148">
<ele>129</ele>
<time>2024-05-11T13:05:24Z</time>
</trkpt>
<trkpt lat="49.75988005287945" lon="9.516673050820827">
<ele>129</ele>
<time>2024-05-11T13:05:25Z</time>
</trkpt>
<trkpt lat="49.75988005287945" lon="9.51667212881148">
<ele>129</ele>
<time>2024-05-11T13:05:26Z</time>
</trkpt>
<trkpt lat="49.75988005287945" lon="9.516673050820827">
<ele>129</ele>
<time>2024-05-11T13:05:27Z</time>
</trkpt>
<trkpt lat="49.75988382473588" lon="9.516674978658555">
<ele>129</ele>
<time>2024-05-11T13:05:28Z</time>
</trkpt>
<trkpt lat="49.75988005287945" lon="9.516676822677256">
<ele>129</ele>
<time>2024-05-11T13:05:29Z</time>
</trkpt>
<trkpt lat="49.75988382473588" lon="9.516677828505635">
<ele>129</ele>
<time>2024-05-11T13:05:30Z</time>
</trkpt>
<trkpt lat="49.75988382473588" lon="9.516681600362062">
<ele>129</ele>
<time>2024-05-11T13:05:31Z</time>
</trkpt>
<trkpt lat="49.75988382473588" lon="9.516683528199792">
<ele>129</ele>
<time>2024-05-11T13:05:32Z</time>
</trkpt>
<trkpt lat="49.75988382473588" lon="9.516681600362062">
<ele>129</ele>
<time>2024-05-11T13:05:34Z</time>
</trkpt>
<trkpt lat="49.75988382473588" lon="9.51668545603752">
<ele>129</ele>
<time>2024-05-11T13:05:36Z</time>
</trkpt>
<trkpt lat="49.75988382473588" lon="9.5166883058846">
<ele>129</ele>
<time>2024-05-11T13:05:37Z</time>
</trkpt>
<trkpt lat="49.75988382473588" lon="9.516691155731678">
<ele>129</ele>
<time>2024-05-11T13:05:39Z</time>
</trkpt>
<trkpt lat="49.75988382473588" lon="9.516693083569407">
<ele>129</ele>
<time>2024-05-11T13:05:41Z</time>
</trkpt>
<trkpt lat="49.75988382473588" lon="9.516695011407135">
<ele>129</ele>
<time>2024-05-11T13:05:42Z</time>
</trkpt>
<trkpt lat="49.75988382473588" lon="9.516693083569407">
<ele>129</ele>
<time>2024-05-11T13:05:43Z</time>
</trkpt>
<trkpt lat="49.75988005287945" lon="9.516693083569407">
<ele>129</ele>
<time>2024-05-11T13:05:45Z</time>
</trkpt>
<trkpt lat="49.75988005287945" lon="9.51669023372233">
<ele>129</ele>
<time>2024-05-11T13:05:46Z</time>
</trkpt>
<trkpt lat="49.75988005287945" lon="9.51668637804687">
<ele>129</ele>
<time>2024-05-11T13:05:47Z</time>
</trkpt>
<trkpt lat="49.75988005287945" lon="9.51668545603752">
<ele>129</ele>
<time>2024-05-11T13:05:48Z</time>
</trkpt>
<trkpt lat="49.75988005287945" lon="9.516681600362062">
<ele>129</ele>
<time>2024-05-11T13:05:49Z</time>
</trkpt>
<trkpt lat="49.75988005287945" lon="9.516683528199792">
<ele>129</ele>
<time>2024-05-11T13:05:50Z</time>
</trkpt>
<trkpt lat="49.75988382473588" lon="9.51668545603752">
<ele>129</ele>
<time>2024-05-11T13:05:51Z</time>
</trkpt>
<trkpt lat="49.75988768041134" lon="9.51669023372233">
<ele>129</ele>
<time>2024-05-11T13:05:52Z</time>
</trkpt>
<trkpt lat="49.75988768041134" lon="9.516691155731678">
<ele>129</ele>
<time>2024-05-11T13:05:53Z</time>
</trkpt>
<trkpt lat="49.75988768041134" lon="9.5166883058846">
<ele>129</ele>
<time>2024-05-11T13:05:54Z</time>
</trkpt>
<trkpt lat="49.75988768041134" lon="9.51668545603752">
<ele>129</ele>
<time>2024-05-11T13:05:55Z</time>
</trkpt>
<trkpt lat="49.75988768041134" lon="9.51668637804687">
<ele>129</ele>
<time>2024-05-11T13:05:56Z</time>
</trkpt>
<trkpt lat="49.75988768041134" lon="9.5166883058846">
<ele>129</ele>
<time>2024-05-11T13:05:57Z</time>
</trkpt>
<trkpt lat="49.759891452267766" lon="9.516695011407135">
<ele>129</ele>
<time>2024-05-11T13:05:59Z</time>
</trkpt>
<trkpt lat="49.75988768041134" lon="9.516693083569407">
<ele>129</ele>
<time>2024-05-11T13:06:00Z</time>
</trkpt>
<trkpt lat="49.75988382473588" lon="9.516693083569407">
<ele>129</ele>
<time>2024-05-11T13:06:01Z</time>
</trkpt>
<trkpt lat="49.75988382473588" lon="9.516691155731678">
<ele>129</ele>
<time>2024-05-11T13:06:02Z</time>
</trkpt>
<trkpt lat="49.75988382473588" lon="9.516693083569407">
<ele>129</ele>
<time>2024-05-11T13:06:03Z</time>
</trkpt>
<trkpt lat="49.75988005287945" lon="9.516691155731678">
<ele>129</ele>
<time>2024-05-11T13:06:04Z</time>
</trkpt>
<trkpt lat="49.75988005287945" lon="9.51669023372233">
<ele>129</ele>
<time>2024-05-11T13:06:06Z</time>
</trkpt>
<trkpt lat="49.75988005287945" lon="9.51668637804687">
<ele>129</ele>
<time>2024-05-11T13:06:07Z</time>
</trkpt>
<trkpt lat="49.759876197203994" lon="9.51668637804687">
<ele>129</ele>
<time>2024-05-11T13:06:08Z</time>
</trkpt>
<trkpt lat="49.759876197203994" lon="9.51668545603752">
<ele>129</ele>
<time>2024-05-11T13:06:09Z</time>
</trkpt>
<trkpt lat="49.75987242534757" lon="9.516683528199792">
<ele>129</ele>
<time>2024-05-11T13:06:10Z</time>
</trkpt>
<trkpt lat="49.75987242534757" lon="9.516679756343365">
<ele>129</ele>
<time>2024-05-11T13:06:11Z</time>
</trkpt>
<trkpt lat="49.75986856967211" lon="9.516676822677256">
<ele>129</ele>
<time>2024-05-11T13:06:12Z</time>
</trkpt>
<trkpt lat="49.75986479781568" lon="9.516676822677256">
<ele>129</ele>
<time>2024-05-11T13:06:13Z</time>
</trkpt>
<trkpt lat="49.75986479781568" lon="9.516683528199792">
<ele>129</ele>
<time>2024-05-11T13:06:14Z</time>
</trkpt>
<trkpt lat="49.75986479781568" lon="9.5166883058846">
<ele>129</ele>
<time>2024-05-11T13:06:15Z</time>
</trkpt>
<trkpt lat="49.75986856967211" lon="9.516681600362062">
<ele>129</ele>
<time>2024-05-11T13:06:16Z</time>
</trkpt>
<trkpt lat="49.75986479781568" lon="9.516677828505635">
<ele>129</ele>
<time>2024-05-11T13:06:17Z</time>
</trkpt>
<trkpt lat="49.75986479781568" lon="9.516679756343365">
<ele>129</ele>
<time>2024-05-11T13:06:18Z</time>
</trkpt>
<trkpt lat="49.75986856967211" lon="9.516679756343365">
<ele>129</ele>
<time>2024-05-11T13:06:20Z</time>
</trkpt>
<trkpt lat="49.75986856967211" lon="9.516681600362062">
<ele>129</ele>
<time>2024-05-11T13:06:21Z</time>
</trkpt>
<trkpt lat="49.75986856967211" lon="9.516679756343365">
<ele>129</ele>
<time>2024-05-11T13:06:22Z</time>
</trkpt>
<trkpt lat="49.75987242534757" lon="9.516679756343365">
<ele>129</ele>
<time>2024-05-11T13:06:23Z</time>
</trkpt>
<trkpt lat="49.75986856967211" lon="9.516676822677256">
<ele>129</ele>
<time>2024-05-11T13:06:24Z</time>
</trkpt>
<trkpt lat="49.75986479781568" lon="9.516677828505635">
<ele>129</ele>
<time>2024-05-11T13:06:26Z</time>
</trkpt>
<trkpt lat="49.75986479781568" lon="9.51668545603752">
<ele>129</ele>
<time>2024-05-11T13:06:27Z</time>
</trkpt>
<trkpt lat="49.75986479781568" lon="9.516677828505635">
<ele>129</ele>
<time>2024-05-11T13:06:28Z</time>
</trkpt>
<trkpt lat="49.75986094214022" lon="9.516676822677256">
<ele>129</ele>
<time>2024-05-11T13:06:29Z</time>
</trkpt>
<trkpt lat="49.75986094214022" lon="9.516674978658555">
<ele>129</ele>
<time>2024-05-11T13:06:32Z</time>
</trkpt>
<trkpt lat="49.75986094214022" lon="9.516676822677256">
<ele>129</ele>
<time>2024-05-11T13:06:35Z</time>
</trkpt>
<trkpt lat="49.75986094214022" lon="9.516677828505635">
<ele>129</ele>
<time>2024-05-11T13:06:36Z</time>
</trkpt>
<trkpt lat="49.75986094214022" lon="9.516676822677256">
<ele>129</ele>
<time>2024-05-11T13:06:38Z</time>
</trkpt>
<trkpt lat="49.75986094214022" lon="9.516674978658555">
<ele>129</ele>
<time>2024-05-11T13:06:40Z</time>
</trkpt>
<trkpt lat="49.75986479781568" lon="9.51667212881148">
<ele>129</ele>
<time>2024-05-11T13:06:41Z</time>
</trkpt>
<trkpt lat="49.75986094214022" lon="9.516664501279593">
<ele>129</ele>
<time>2024-05-11T13:06:42Z</time>
</trkpt>
<trkpt lat="49.75986479781568" lon="9.51666827313602">
<ele>129</ele>
<time>2024-05-11T13:06:43Z</time>
</trkpt>
<trkpt lat="49.75986094214022" lon="9.516677828505635">
<ele>129</ele>
<time>2024-05-11T13:06:44Z</time>
</trkpt>
<trkpt lat="49.75986479781568" lon="9.516683528199792">
<ele>129</ele>
<time>2024-05-11T13:06:45Z</time>
</trkpt>
<trkpt lat="49.75986094214022" lon="9.516677828505635">
<ele>129</ele>
<time>2024-05-11T13:06:47Z</time>
</trkpt>
<trkpt lat="49.75986479781568" lon="9.516677828505635">
<ele>129</ele>
<time>2024-05-11T13:06:48Z</time>
</trkpt>
<trkpt lat="49.75986479781568" lon="9.516674978658555">
<ele>129</ele>
<time>2024-05-11T13:06:49Z</time>
</trkpt>
<trkpt lat="49.75986479781568" lon="9.516676822677256">
<ele>129</ele>
<time>2024-05-11T13:06:50Z</time>
</trkpt>
<trkpt lat="49.75986479781568" lon="9.516674978658555">
<ele>129</ele>
<time>2024-05-11T13:06:52Z</time>
</trkpt>
<trkpt lat="49.75986479781568" lon="9.516673050820827">
<ele>129</ele>
<time>2024-05-11T13:06:53Z</time>
</trkpt>
<trkpt lat="49.75986094214022" lon="9.51667020097375">
<ele>129</ele>
<time>2024-05-11T13:06:54Z</time>
</trkpt>
<trkpt lat="49.75986094214022" lon="9.51666827313602">
<ele>129</ele>
<time>2024-05-11T13:06:56Z</time>
</trkpt>
<trkpt lat="49.75986094214022" lon="9.51667020097375">
<ele>129</ele>
<time>2024-05-11T13:07:01Z</time>
</trkpt>
<trkpt lat="49.75986094214022" lon="9.51666827313602">
<ele>129</ele>
<time>2024-05-11T13:07:02Z</time>
</trkpt>
<trkpt lat="49.75986094214022" lon="9.51666634529829">
<ele>129</ele>
<time>2024-05-11T13:07:03Z</time>
</trkpt>
<trkpt lat="49.75986094214022" lon="9.516664501279593">
<ele>129</ele>
<time>2024-05-11T13:07:06Z</time>
</trkpt>
<trkpt lat="49.75986094214022" lon="9.51666634529829">
<ele>129</ele>
<time>2024-05-11T13:07:08Z</time>
</trkpt>
<trkpt lat="49.75986094214022" lon="9.51666827313602">
<ele>129</ele>
<time>2024-05-11T13:07:09Z</time>
</trkpt>
<trkpt lat="49.75986094214022" lon="9.51666634529829">
<ele>129</ele>
<time>2024-05-11T13:07:11Z</time>
</trkpt>
<trkpt lat="49.759857170283794" lon="9.516664501279593">
<ele>129</ele>
<time>2024-05-11T13:07:13Z</time>
</trkpt>
<trkpt lat="49.75986094214022" lon="9.516663495451212">
<ele>129</ele>
<time>2024-05-11T13:07:15Z</time>
</trkpt>
<trkpt lat="49.75986094214022" lon="9.516661567613482">
<ele>129</ele>
<time>2024-05-11T13:07:16Z</time>
</trkpt>
<trkpt lat="49.75986094214022" lon="9.516663495451212">
<ele>129</ele>
<time>2024-05-11T13:07:19Z</time>
</trkpt>
<trkpt lat="49.75986479781568" lon="9.51666634529829">
<ele>129</ele>
<time>2024-05-11T13:07:20Z</time>
</trkpt>
<trkpt lat="49.75986479781568" lon="9.51667020097375">
<ele>129</ele>
<time>2024-05-11T13:07:21Z</time>
</trkpt>
<trkpt lat="49.75986479781568" lon="9.516673050820827">
<ele>129</ele>
<time>2024-05-11T13:07:22Z</time>
</trkpt>
<trkpt lat="49.75986856967211" lon="9.516676822677256">
<ele>129</ele>
<time>2024-05-11T13:07:23Z</time>
</trkpt>
<trkpt lat="49.75987242534757" lon="9.516676822677256">
<ele>129</ele>
<time>2024-05-11T13:07:24Z</time>
</trkpt>
<trkpt lat="49.75987242534757" lon="9.516677828505635">
<ele>129</ele>
<time>2024-05-11T13:07:25Z</time>
</trkpt>
<trkpt lat="49.75987242534757" lon="9.516679756343365">
<ele>129</ele>
<time>2024-05-11T13:07:32Z</time>
</trkpt>
<trkpt lat="49.759876197203994" lon="9.516679756343365">
<ele>129</ele>
<time>2024-05-11T13:07:33Z</time>
</trkpt>
<trkpt lat="49.759876197203994" lon="9.516676822677256">
<ele>129</ele>
<time>2024-05-11T13:07:36Z</time>
</trkpt>
<trkpt lat="49.75987242534757" lon="9.516674978658555">
<ele>129</ele>
<time>2024-05-11T13:07:38Z</time>
</trkpt>
<trkpt lat="49.75987242534757" lon="9.516673050820827">
<ele>129</ele>
<time>2024-05-11T13:07:39Z</time>
</trkpt>
<trkpt lat="49.75987242534757" lon="9.51667212881148">
<ele>129</ele>
<time>2024-05-11T13:07:42Z</time>
</trkpt>
<trkpt lat="49.75987242534757" lon="9.516673050820827">
<ele>129</ele>
<time>2024-05-11T13:07:46Z</time>
</trkpt>
<trkpt lat="49.75987242534757" lon="9.51667020097375">
<ele>129</ele>
<time>2024-05-11T13:07:47Z</time>
</trkpt>
<trkpt lat="49.75987242534757" lon="9.51667212881148">
<ele>129</ele>
<time>2024-05-11T13:07:48Z</time>
</trkpt>
<trkpt lat="49.75987242534757" lon="9.516673050820827">
<ele>129</ele>
<time>2024-05-11T13:07:49Z</time>
</trkpt>
<trkpt lat="49.75987242534757" lon="9.516677828505635">
<ele>129</ele>
<time>2024-05-11T13:07:50Z</time>
</trkpt>
<trkpt lat="49.759876197203994" lon="9.516683528199792">
<ele>129</ele>
<time>2024-05-11T13:07:51Z</time>
</trkpt>
<trkpt lat="49.759876197203994" lon="9.51668545603752">
<ele>129</ele>
<time>2024-05-11T13:07:52Z</time>
</trkpt>
<trkpt lat="49.759876197203994" lon="9.51668637804687">
<ele>129</ele>
<time>2024-05-11T13:07:53Z</time>
</trkpt>
<trkpt lat="49.759876197203994" lon="9.5166883058846">
<ele>129</ele>
<time>2024-05-11T13:07:54Z</time>
</trkpt>
<trkpt lat="49.75988005287945" lon="9.5166883058846">
<ele>129</ele>
<time>2024-05-11T13:07:55Z</time>
</trkpt>
<trkpt lat="49.75988005287945" lon="9.51668637804687">
<ele>129</ele>
<time>2024-05-11T13:07:56Z</time>
</trkpt>
<trkpt lat="49.75988005287945" lon="9.5166883058846">
<ele>129</ele>
<time>2024-05-11T13:07:57Z</time>
</trkpt>
<trkpt lat="49.75988005287945" lon="9.51668637804687">
<ele>129</ele>
<time>2024-05-11T13:07:59Z</time>
</trkpt>
<trkpt lat="49.75988382473588" lon="9.5166883058846">
<ele>129</ele>
<time>2024-05-11T13:08:02Z</time>
</trkpt>
<trkpt lat="49.75988382473588" lon="9.51668545603752">
<ele>129</ele>
<time>2024-05-11T13:08:04Z</time>
</trkpt>
<trkpt lat="49.75988382473588" lon="9.516683528199792">
<ele>129</ele>
<time>2024-05-11T13:08:07Z</time>
</trkpt>
<trkpt lat="49.75988382473588" lon="9.51668545603752">
<ele>129</ele>
<time>2024-05-11T13:08:08Z</time>
</trkpt>
<trkpt lat="49.75988382473588" lon="9.516683528199792">
<ele>129</ele>
<time>2024-05-11T13:08:09Z</time>
</trkpt>
<trkpt lat="49.75988382473588" lon="9.51668545603752">
<ele>129</ele>
<time>2024-05-11T13:08:10Z</time>
</trkpt>
<trkpt lat="49.75988768041134" lon="9.51668545603752">
<ele>129</ele>
<time>2024-05-11T13:08:11Z</time>
</trkpt>
<trkpt lat="49.75988768041134" lon="9.5166883058846">
<ele>129</ele>
<time>2024-05-11T13:08:13Z</time>
</trkpt>
<trkpt lat="49.759891452267766" lon="9.516691155731678">
<ele>129</ele>
<time>2024-05-11T13:08:15Z</time>
</trkpt>
<trkpt lat="49.759891452267766" lon="9.51669023372233">
<ele>129</ele>
<time>2024-05-11T13:08:17Z</time>
</trkpt>
<trkpt lat="49.759891452267766" lon="9.516691155731678">
<ele>129</ele>
<time>2024-05-11T13:08:18Z</time>
</trkpt>
<trkpt lat="49.759891452267766" lon="9.51669023372233">
<ele>129</ele>
<time>2024-05-11T13:08:19Z</time>
</trkpt>
<trkpt lat="49.759891452267766" lon="9.516691155731678">
<ele>129</ele>
<time>2024-05-11T13:08:21Z</time>
</trkpt>
<trkpt lat="49.759891452267766" lon="9.51669023372233">
<ele>129</ele>
<time>2024-05-11T13:08:22Z</time>
</trkpt>
<trkpt lat="49.759891452267766" lon="9.5166883058846">
<ele>129</ele>
<time>2024-05-11T13:08:23Z</time>
</trkpt>
<trkpt lat="49.759891452267766" lon="9.51669023372233">
<ele>129</ele>
<time>2024-05-11T13:08:24Z</time>
</trkpt>
<trkpt lat="49.759891452267766" lon="9.5166883058846">
<ele>129</ele>
<time>2024-05-11T13:08:28Z</time>
</trkpt>
<trkpt lat="49.759891452267766" lon="9.51669023372233">
<ele>129</ele>
<time>2024-05-11T13:08:29Z</time>
</trkpt>
<trkpt lat="49.759891452267766" lon="9.516695011407135">
<ele>129</ele>
<time>2024-05-11T13:08:30Z</time>
</trkpt>
<trkpt lat="49.759895307943225" lon="9.516699789091945">
<ele>129</ele>
<time>2024-05-11T13:08:31Z</time>
</trkpt>
<trkpt lat="49.759895307943225" lon="9.51670448295772">
<ele>129</ele>
<time>2024-05-11T13:08:32Z</time>
</trkpt>
<trkpt lat="49.759895307943225" lon="9.51671026647091">
<ele>129</ele>
<time>2024-05-11T13:08:33Z</time>
</trkpt>
<trkpt lat="49.75989907979965" lon="9.516711188480258">
<ele>129</ele>
<time>2024-05-11T13:08:34Z</time>
</trkpt>
<trkpt lat="49.75989907979965" lon="9.51671026647091">
<ele>129</ele>
<time>2024-05-11T13:08:36Z</time>
</trkpt>
<trkpt lat="49.759895307943225" lon="9.516711188480258">
<ele>129</ele>
<time>2024-05-11T13:08:37Z</time>
</trkpt>
<trkpt lat="49.759891452267766" lon="9.51671026647091">
<ele>129</ele>
<time>2024-05-11T13:08:38Z</time>
</trkpt>
<trkpt lat="49.759891452267766" lon="9.51670833863318">
<ele>129</ele>
<time>2024-05-11T13:08:39Z</time>
</trkpt>
<trkpt lat="49.759891452267766" lon="9.51670448295772">
<ele>129</ele>
<time>2024-05-11T13:08:41Z</time>
</trkpt>
<trkpt lat="49.759891452267766" lon="9.51670833863318">
<ele>129</ele>
<time>2024-05-11T13:08:42Z</time>
</trkpt>
<trkpt lat="49.759895307943225" lon="9.51670641079545">
<ele>129</ele>
<time>2024-05-11T13:08:43Z</time>
</trkpt>
<trkpt lat="49.759895307943225" lon="9.516698783263564">
<ele>129</ele>
<time>2024-05-11T13:08:44Z</time>
</trkpt>
<trkpt lat="49.759895307943225" lon="9.51669023372233">
<ele>129</ele>
<time>2024-05-11T13:08:45Z</time>
</trkpt>
<trkpt lat="49.75989907979965" lon="9.516683528199792">
<ele>129</ele>
<time>2024-05-11T13:08:46Z</time>
</trkpt>
<trkpt lat="49.75990293547511" lon="9.516679756343365">
<ele>129</ele>
<time>2024-05-11T13:08:47Z</time>
</trkpt>
<trkpt lat="49.75990293547511" lon="9.51666827313602">
<ele>129</ele>
<time>2024-05-11T13:08:48Z</time>
</trkpt>
<trkpt lat="49.75990293547511" lon="9.516664501279593">
<ele>129</ele>
<time>2024-05-11T13:08:49Z</time>
</trkpt>
<trkpt lat="49.75989907979965" lon="9.516664501279593">
<ele>129</ele>
<time>2024-05-11T13:08:51Z</time>
</trkpt>
<trkpt lat="49.75989907979965" lon="9.51666827313602">
<ele>129</ele>
<time>2024-05-11T13:08:52Z</time>
</trkpt>
<trkpt lat="49.759895307943225" lon="9.51666634529829">
<ele>129</ele>
<time>2024-05-11T13:08:53Z</time>
</trkpt>
<trkpt lat="49.759895307943225" lon="9.516663495451212">
<ele>129</ele>
<time>2024-05-11T13:08:54Z</time>
</trkpt>
<trkpt lat="49.759891452267766" lon="9.516661567613482">
<ele>129</ele>
<time>2024-05-11T13:08:55Z</time>
</trkpt>
<trkpt lat="49.759891452267766" lon="9.516653018072248">
<ele>129</ele>
<time>2024-05-11T13:08:56Z</time>
</trkpt>
<trkpt lat="49.759895307943225" lon="9.51665016822517">
<ele>129</ele>
<time>2024-05-11T13:08:57Z</time>
</trkpt>
<trkpt lat="49.759895307943225" lon="9.516641534864902">
<ele>129</ele>
<time>2024-05-11T13:08:58Z</time>
</trkpt>
<trkpt lat="49.75990293547511" lon="9.516641534864902">
<ele>129</ele>
<time>2024-05-11T13:08:59Z</time>
</trkpt>
<trkpt lat="49.75990293547511" lon="9.516639690846205">
<ele>129</ele>
<time>2024-05-11T13:09:00Z</time>
</trkpt>
<trkpt lat="49.75990670733154" lon="9.516638685017824">
<ele>129</ele>
<time>2024-05-11T13:09:01Z</time>
</trkpt>
<trkpt lat="49.759910563007" lon="9.516638685017824">
<ele>129</ele>
<time>2024-05-11T13:09:03Z</time>
</trkpt>
<trkpt lat="49.759910563007" lon="9.516634913161395">
<ele>129</ele>
<time>2024-05-11T13:09:04Z</time>
</trkpt>
<trkpt lat="49.759914334863424" lon="9.51663206331432">
<ele>129</ele>
<time>2024-05-11T13:09:05Z</time>
</trkpt>
<trkpt lat="49.75991819053888" lon="9.51663206331432">
<ele>129</ele>
<time>2024-05-11T13:09:06Z</time>
</trkpt>
<trkpt lat="49.75991819053888" lon="9.516632985323668">
<ele>129</ele>
<time>2024-05-11T13:09:07Z</time>
</trkpt>
<trkpt lat="49.75991819053888" lon="9.516634913161395">
<ele>129</ele>
<time>2024-05-11T13:09:08Z</time>
</trkpt>
<trkpt lat="49.75992196239531" lon="9.516638685017824">
<ele>129</ele>
<time>2024-05-11T13:09:09Z</time>
</trkpt>
<trkpt lat="49.75992196239531" lon="9.516639690846205">
<ele>129</ele>
<time>2024-05-11T13:09:10Z</time>
</trkpt>
<trkpt lat="49.75992581807077" lon="9.516641534864902">
<ele>129</ele>
<time>2024-05-11T13:09:12Z</time>
</trkpt>
<trkpt lat="49.7599295899272" lon="9.516641534864902">
<ele>129</ele>
<time>2024-05-11T13:09:13Z</time>
</trkpt>
<trkpt lat="49.7599295899272" lon="9.516639690846205">
<ele>129</ele>
<time>2024-05-11T13:09:15Z</time>
</trkpt>
<trkpt lat="49.759933445602655" lon="9.516641534864902">
<ele>129</ele>
<time>2024-05-11T13:09:16Z</time>
</trkpt>
<trkpt lat="49.759933445602655" lon="9.51664631254971">
<ele>129</ele>
<time>2024-05-11T13:09:17Z</time>
</trkpt>
<trkpt lat="49.75994107313454" lon="9.516641534864902">
<ele>129</ele>
<time>2024-05-11T13:09:18Z</time>
</trkpt>
<trkpt lat="49.759933445602655" lon="9.516634913161395">
<ele>129</ele>
<time>2024-05-11T13:09:19Z</time>
</trkpt>
<trkpt lat="49.759933445602655" lon="9.516632985323668">
<ele>129</ele>
<time>2024-05-11T13:09:20Z</time>
</trkpt>
<trkpt lat="49.759933445602655" lon="9.516634913161395">
<ele>129</ele>
<time>2024-05-11T13:09:21Z</time>
</trkpt>
<trkpt lat="49.75994107313454" lon="9.516634913161395">
<ele>129</ele>
<time>2024-05-11T13:09:22Z</time>
</trkpt>
<trkpt lat="49.75994107313454" lon="9.516621585935354">
<ele>129</ele>
<time>2024-05-11T13:09:23Z</time>
</trkpt>
<trkpt lat="49.75994484499097" lon="9.516618652269244">
<ele>129</ele>
<time>2024-05-11T13:09:24Z</time>
</trkpt>
<trkpt lat="49.75994107313454" lon="9.51660817489028">
<ele>129</ele>
<time>2024-05-11T13:09:25Z</time>
</trkpt>
<trkpt lat="49.75994107313454" lon="9.516603397205472">
<ele>129</ele>
<time>2024-05-11T13:09:26Z</time>
</trkpt>
<trkpt lat="49.75994107313454" lon="9.516606330871582">
<ele>129</ele>
<time>2024-05-11T13:09:27Z</time>
</trkpt>
<trkpt lat="49.75994107313454" lon="9.51661203056574">
<ele>129</ele>
<time>2024-05-11T13:09:28Z</time>
</trkpt>
<trkpt lat="49.75994107313454" lon="9.516618652269244">
<ele>129</ele>
<time>2024-05-11T13:09:29Z</time>
</trkpt>
<trkpt lat="49.75994107313454" lon="9.51662535779178">
<ele>129</ele>
<time>2024-05-11T13:09:30Z</time>
</trkpt>
<trkpt lat="49.75994107313454" lon="9.51662820763886">
<ele>129</ele>
<time>2024-05-11T13:09:31Z</time>
</trkpt>
<trkpt lat="49.75994484499097" lon="9.516636840999126">
<ele>129</ele>
<time>2024-05-11T13:09:32Z</time>
</trkpt>
<trkpt lat="49.75994484499097" lon="9.51664631254971">
<ele>129</ele>
<time>2024-05-11T13:09:33Z</time>
</trkpt>
<trkpt lat="49.75994484499097" lon="9.516654945909975">
<ele>129</ele>
<time>2024-05-11T13:09:34Z</time>
</trkpt>
<trkpt lat="49.75994107313454" lon="9.516673050820827">
<ele>129</ele>
<time>2024-05-11T13:09:35Z</time>
</trkpt>
<trkpt lat="49.75993721745908" lon="9.516674978658555">
<ele>129</ele>
<time>2024-05-11T13:09:36Z</time>
</trkpt>
<trkpt lat="49.759933445602655" lon="9.516681600362062">
<ele>129</ele>
<time>2024-05-11T13:09:37Z</time>
</trkpt>
<trkpt lat="49.7599295899272" lon="9.516683528199792">
<ele>129</ele>
<time>2024-05-11T13:09:38Z</time>
</trkpt>
<trkpt lat="49.75992581807077" lon="9.516679756343365">
<ele>129</ele>
<time>2024-05-11T13:09:39Z</time>
</trkpt>
<trkpt lat="49.75992196239531" lon="9.516676822677256">
<ele>129</ele>
<time>2024-05-11T13:09:40Z</time>
</trkpt>
<trkpt lat="49.75992196239531" lon="9.516674978658555">
<ele>129</ele>
<time>2024-05-11T13:09:41Z</time>
</trkpt>
<trkpt lat="49.75991819053888" lon="9.516673050820827">
<ele>129</ele>
<time>2024-05-11T13:09:42Z</time>
</trkpt>
<trkpt lat="49.75991819053888" lon="9.51667020097375">
<ele>129</ele>
<time>2024-05-11T13:09:43Z</time>
</trkpt>
<trkpt lat="49.75991819053888" lon="9.51666634529829">
<ele>129</ele>
<time>2024-05-11T13:09:44Z</time>
</trkpt>
<trkpt lat="49.759914334863424" lon="9.516663495451212">
<ele>129</ele>
<time>2024-05-11T13:09:45Z</time>
</trkpt>
<trkpt lat="49.759910563007" lon="9.516661567613482">
<ele>129</ele>
<time>2024-05-11T13:09:47Z</time>
</trkpt>
<trkpt lat="49.759910563007" lon="9.516658717766404">
<ele>129</ele>
<time>2024-05-11T13:09:48Z</time>
</trkpt>
<trkpt lat="49.75990670733154" lon="9.516653018072248">
<ele>129</ele>
<time>2024-05-11T13:09:49Z</time>
</trkpt>
<trkpt lat="49.75990293547511" lon="9.51665016822517">
<ele>129</ele>
<time>2024-05-11T13:09:50Z</time>
</trkpt>
<trkpt lat="49.75990293547511" lon="9.51664824038744">
<ele>129</ele>
<time>2024-05-11T13:09:51Z</time>
</trkpt>
<trkpt lat="49.75989907979965" lon="9.51664539054036">
<ele>129</ele>
<time>2024-05-11T13:09:52Z</time>
</trkpt>
<trkpt lat="49.75990293547511" lon="9.516643462702632">
<ele>129</ele>
<time>2024-05-11T13:09:53Z</time>
</trkpt>
<trkpt lat="49.75990293547511" lon="9.51664539054036">
<ele>129</ele>
<time>2024-05-11T13:09:54Z</time>
</trkpt>
<trkpt lat="49.759895307943225" lon="9.51664539054036">
<ele>129</ele>
<time>2024-05-11T13:09:55Z</time>
</trkpt>
<trkpt lat="49.759895307943225" lon="9.5166520960629">
<ele>129</ele>
<time>2024-05-11T13:09:56Z</time>
</trkpt>
<trkpt lat="49.75988768041134" lon="9.51665016822517">
<ele>129</ele>
<time>2024-05-11T13:09:58Z</time>
</trkpt>
<trkpt lat="49.75988768041134" lon="9.516653018072248">
<ele>129</ele>
<time>2024-05-11T13:09:59Z</time>
</trkpt>
<trkpt lat="49.75988382473588" lon="9.516654945909975">
<ele>129</ele>
<time>2024-05-11T13:10:00Z</time>
</trkpt>
<trkpt lat="49.75988382473588" lon="9.516656873747706">
<ele>129</ele>
<time>2024-05-11T13:10:01Z</time>
</trkpt>
<trkpt lat="49.75988768041134" lon="9.516659723594785">
<ele>129</ele>
<time>2024-05-11T13:10:02Z</time>
</trkpt>
<trkpt lat="49.75988005287945" lon="9.51667212881148">
<ele>129</ele>
<time>2024-05-11T13:10:03Z</time>
</trkpt>
<trkpt lat="49.759876197203994" lon="9.51667020097375">
<ele>129</ele>
<time>2024-05-11T13:10:04Z</time>
</trkpt>
<trkpt lat="49.759876197203994" lon="9.516677828505635">
<ele>129</ele>
<time>2024-05-11T13:10:05Z</time>
</trkpt>
<trkpt lat="49.759876197203994" lon="9.516683528199792">
<ele>129</ele>
<time>2024-05-11T13:10:06Z</time>
</trkpt>
<trkpt lat="49.75987242534757" lon="9.516683528199792">
<ele>129</ele>
<time>2024-05-11T13:10:07Z</time>
</trkpt>
<trkpt lat="49.75986856967211" lon="9.516683528199792">
<ele>129</ele>
<time>2024-05-11T13:10:08Z</time>
</trkpt>
<trkpt lat="49.75987242534757" lon="9.5166883058846">
<ele>129</ele>
<time>2024-05-11T13:10:09Z</time>
</trkpt>
<trkpt lat="49.75986856967211" lon="9.516691155731678">
<ele>129</ele>
<time>2024-05-11T13:10:10Z</time>
</trkpt>
<trkpt lat="49.75986856967211" lon="9.516696855425836">
<ele>129</ele>
<time>2024-05-11T13:10:11Z</time>
</trkpt>
<trkpt lat="49.75987242534757" lon="9.516701633110642">
<ele>129</ele>
<time>2024-05-11T13:10:12Z</time>
</trkpt>
<trkpt lat="49.759876197203994" lon="9.51670833863318">
<ele>129</ele>
<time>2024-05-11T13:10:13Z</time>
</trkpt>
<trkpt lat="49.75987242534757" lon="9.51670448295772">
<ele>129</ele>
<time>2024-05-11T13:10:14Z</time>
</trkpt>
<trkpt lat="49.759876197203994" lon="9.51670833863318">
<ele>129</ele>
<time>2024-05-11T13:10:15Z</time>
</trkpt>
<trkpt lat="49.759876197203994" lon="9.51671026647091">
<ele>129</ele>
<time>2024-05-11T13:10:17Z</time>
</trkpt>
<trkpt lat="49.75987242534757" lon="9.51671026647091">
<ele>129</ele>
<time>2024-05-11T13:10:18Z</time>
</trkpt>
<trkpt lat="49.75986856967211" lon="9.51671026647091">
<ele>129</ele>
<time>2024-05-11T13:10:19Z</time>
</trkpt>
<trkpt lat="49.75986479781568" lon="9.51671026647091">
<ele>129</ele>
<time>2024-05-11T13:10:20Z</time>
</trkpt>
<trkpt lat="49.75986479781568" lon="9.516703560948372">
<ele>129</ele>
<time>2024-05-11T13:10:21Z</time>
</trkpt>
<trkpt lat="49.75986094214022" lon="9.516696855425836">
<ele>129</ele>
<time>2024-05-11T13:10:22Z</time>
</trkpt>
<trkpt lat="49.759857170283794" lon="9.516695011407135">
<ele>129</ele>
<time>2024-05-11T13:10:23Z</time>
</trkpt>
<trkpt lat="49.759857170283794" lon="9.516693083569407">
<ele>129</ele>
<time>2024-05-11T13:10:24Z</time>
</trkpt>
<trkpt lat="49.75986094214022" lon="9.516699789091945">
<ele>129</ele>
<time>2024-05-11T13:10:25Z</time>
</trkpt>
<trkpt lat="49.75986094214022" lon="9.516703560948372">
<ele>129</ele>
<time>2024-05-11T13:10:26Z</time>
</trkpt>
<trkpt lat="49.75986094214022" lon="9.51670448295772">
<ele>129</ele>
<time>2024-05-11T13:10:27Z</time>
</trkpt>
<trkpt lat="49.75986094214022" lon="9.516701633110642">
<ele>129</ele>
<time>2024-05-11T13:10:28Z</time>
</trkpt>
<trkpt lat="49.75986094214022" lon="9.51670833863318">
<ele>129</ele>
<time>2024-05-11T13:10:29Z</time>
</trkpt>
<trkpt lat="49.75986094214022" lon="9.51671026647091">
<ele>129</ele>
<time>2024-05-11T13:10:30Z</time>
</trkpt>
<trkpt lat="49.75986094214022" lon="9.516713116317987">
<ele>129</ele>
<time>2024-05-11T13:10:32Z</time>
</trkpt>
<trkpt lat="49.75986479781568" lon="9.516719738021491">
<ele>129</ele>
<time>2024-05-11T13:10:33Z</time>
</trkpt>
<trkpt lat="49.75986479781568" lon="9.51672644354403">
<ele>129</ele>
<time>2024-05-11T13:10:34Z</time>
</trkpt>
<trkpt lat="49.75986856967211" lon="9.516736920922996">
<ele>129</ele>
<time>2024-05-11T13:10:35Z</time>
</trkpt>
<trkpt lat="49.75986856967211" lon="9.51674647629261">
<ele>129</ele>
<time>2024-05-11T13:10:36Z</time>
</trkpt>
<trkpt lat="49.75987242534757" lon="9.516757959499955">
<ele>129</ele>
<time>2024-05-11T13:10:37Z</time>
</trkpt>
<trkpt lat="49.759876197203994" lon="9.516761731356382">
<ele>129</ele>
<time>2024-05-11T13:10:38Z</time>
</trkpt>
<trkpt lat="49.75988005287945" lon="9.51676843687892">
<ele>129</ele>
<time>2024-05-11T13:10:39Z</time>
</trkpt>
<trkpt lat="49.75988005287945" lon="9.516770280897616">
<ele>129</ele>
<time>2024-05-11T13:10:40Z</time>
</trkpt>
<trkpt lat="49.75988005287945" lon="9.516776986420156">
<ele>129</ele>
<time>2024-05-11T13:10:41Z</time>
</trkpt>
<trkpt lat="49.75988382473588" lon="9.516779836267231">
<ele>129</ele>
<time>2024-05-11T13:10:42Z</time>
</trkpt>
<trkpt lat="49.75988768041134" lon="9.51678461395204">
<ele>129</ele>
<time>2024-05-11T13:10:43Z</time>
</trkpt>
<trkpt lat="49.759891452267766" lon="9.516791319474578">
<ele>129</ele>
<time>2024-05-11T13:10:44Z</time>
</trkpt>
<trkpt lat="49.759891452267766" lon="9.516797019168736">
<ele>129</ele>
<time>2024-05-11T13:10:45Z</time>
</trkpt>
<trkpt lat="49.759895307943225" lon="9.51680850237608">
<ele>129</ele>
<time>2024-05-11T13:10:46Z</time>
</trkpt>
<trkpt lat="49.75989907979965" lon="9.516813196241856">
<ele>129</ele>
<time>2024-05-11T13:10:47Z</time>
</trkpt>
<trkpt lat="49.75989907979965" lon="9.516819901764393">
<ele>129</ele>
<time>2024-05-11T13:10:48Z</time>
</trkpt>
<trkpt lat="49.75989907979965" lon="9.516817973926663">
<ele>129</ele>
<time>2024-05-11T13:10:49Z</time>
</trkpt>
<trkpt lat="49.75989907979965" lon="9.516819901764393">
<ele>129</ele>
<time>2024-05-11T13:10:50Z</time>
</trkpt>
<trkpt lat="49.75990293547511" lon="9.516819901764393">
<ele>129</ele>
<time>2024-05-11T13:10:51Z</time>
</trkpt>
<trkpt lat="49.75990293547511" lon="9.516821829602122">
<ele>129</ele>
<time>2024-05-11T13:10:52Z</time>
</trkpt>
<trkpt lat="49.75990670733154" lon="9.516830379143356">
<ele>129</ele>
<time>2024-05-11T13:10:53Z</time>
</trkpt>
<trkpt lat="49.75990670733154" lon="9.51682853512466">
<ele>129</ele>
<time>2024-05-11T13:10:54Z</time>
</trkpt>
<trkpt lat="49.75990670733154" lon="9.516833228990436">
<ele>129</ele>
<time>2024-05-11T13:10:55Z</time>
</trkpt>
<trkpt lat="49.759910563007" lon="9.516833228990436">
<ele>129</ele>
<time>2024-05-11T13:10:56Z</time>
</trkpt>
<trkpt lat="49.75990670733154" lon="9.5168246794492">
<ele>129</ele>
<time>2024-05-11T13:10:57Z</time>
</trkpt>
<trkpt lat="49.75990670733154" lon="9.51682660728693">
<ele>129</ele>
<time>2024-05-11T13:10:58Z</time>
</trkpt>
<trkpt lat="49.75990670733154" lon="9.5168246794492">
<ele>129</ele>
<time>2024-05-11T13:10:59Z</time>
</trkpt>
<trkpt lat="49.75990670733154" lon="9.51682660728693">
<ele>129</ele>
<time>2024-05-11T13:11:01Z</time>
</trkpt>
<trkpt lat="49.75990293547511" lon="9.516823757439852">
<ele>129</ele>
<time>2024-05-11T13:11:02Z</time>
</trkpt>
<trkpt lat="49.75989907979965" lon="9.516815124079583">
<ele>129</ele>
<time>2024-05-11T13:11:03Z</time>
</trkpt>
<trkpt lat="49.75989907979965" lon="9.516810346394776">
<ele>129</ele>
<time>2024-05-11T13:11:04Z</time>
</trkpt>
<trkpt lat="49.75989907979965" lon="9.51680657453835">
<ele>129</ele>
<time>2024-05-11T13:11:05Z</time>
</trkpt>
<trkpt lat="49.75990293547511" lon="9.516801796853542">
<ele>129</ele>
<time>2024-05-11T13:11:06Z</time>
</trkpt>
<trkpt lat="49.759895307943225" lon="9.516781764104962">
<ele>129</ele>
<time>2024-05-11T13:11:07Z</time>
</trkpt>
<trkpt lat="49.759891452267766" lon="9.516763659194112">
<ele>129</ele>
<time>2024-05-11T13:11:08Z</time>
</trkpt>
<trkpt lat="49.75988768041134" lon="9.516750331968067">
<ele>129</ele>
<time>2024-05-11T13:11:09Z</time>
</trkpt>
<trkpt lat="49.759891452267766" lon="9.516756953671576">
<ele>129</ele>
<time>2024-05-11T13:11:10Z</time>
</trkpt>
<trkpt lat="49.759891452267766" lon="9.516753181815147">
<ele>129</ele>
<time>2024-05-11T13:11:11Z</time>
</trkpt>
<trkpt lat="49.759891452267766" lon="9.516755025833843">
<ele>129</ele>
<time>2024-05-11T13:11:14Z</time>
</trkpt>
<trkpt lat="49.759891452267766" lon="9.516757959499955">
<ele>129</ele>
<time>2024-05-11T13:11:15Z</time>
</trkpt>
<trkpt lat="49.759895307943225" lon="9.516759803518651">
<ele>129</ele>
<time>2024-05-11T13:11:18Z</time>
</trkpt>
<trkpt lat="49.759895307943225" lon="9.516757959499955">
<ele>129</ele>
<time>2024-05-11T13:11:20Z</time>
</trkpt>
<trkpt lat="49.75989907979965" lon="9.516756953671576">
<ele>129</ele>
<time>2024-05-11T13:11:21Z</time>
</trkpt>
<trkpt lat="49.75989907979965" lon="9.516757959499955">
<ele>129</ele>
<time>2024-05-11T13:11:22Z</time>
</trkpt>
<trkpt lat="49.75990293547511" lon="9.516763659194112">
<ele>129</ele>
<time>2024-05-11T13:11:23Z</time>
</trkpt>
<trkpt lat="49.75990670733154" lon="9.516771286725998">
<ele>129</ele>
<time>2024-05-11T13:11:24Z</time>
</trkpt>
<trkpt lat="49.75990670733154" lon="9.516763659194112">
<ele>129</ele>
<time>2024-05-11T13:11:25Z</time>
</trkpt>
<trkpt lat="49.75990670733154" lon="9.516761731356382">
<ele>129</ele>
<time>2024-05-11T13:11:26Z</time>
</trkpt>
<trkpt lat="49.75990670733154" lon="9.516759803518651">
<ele>129</ele>
<time>2024-05-11T13:11:27Z</time>
</trkpt>
<trkpt lat="49.75990293547511" lon="9.516755025833843">
<ele>129</ele>
<time>2024-05-11T13:11:28Z</time>
</trkpt>
<trkpt lat="49.75989907979965" lon="9.516751253977418">
<ele>129</ele>
<time>2024-05-11T13:11:29Z</time>
</trkpt>
<trkpt lat="49.75990293547511" lon="9.516756953671576">
<ele>129</ele>
<time>2024-05-11T13:11:30Z</time>
</trkpt>
<trkpt lat="49.75989907979965" lon="9.516756953671576">
<ele>129</ele>
<time>2024-05-11T13:11:31Z</time>
</trkpt>
<trkpt lat="49.759914334863424" lon="9.516797019168736">
<ele>129</ele>
<time>2024-05-11T13:11:32Z</time>
</trkpt>
<trkpt lat="49.75993721745908" lon="9.516841862350702">
<ele>129</ele>
<time>2024-05-11T13:11:33Z</time>
</trkpt>
<trkpt lat="49.759933445602655" lon="9.51684471219778">
<ele>129</ele>
<time>2024-05-11T13:11:34Z</time>
</trkpt>
<trkpt lat="49.759933445602655" lon="9.51684664003551">
<ele>129</ele>
<time>2024-05-11T13:11:35Z</time>
</trkpt>
<trkpt lat="49.7599295899272" lon="9.516851417720318">
<ele>129</ele>
<time>2024-05-11T13:11:36Z</time>
</trkpt>
<trkpt lat="49.759933445602655" lon="9.516855189576743">
<ele>129</ele>
<time>2024-05-11T13:11:37Z</time>
</trkpt>
<trkpt lat="49.7599295899272" lon="9.516849489882588">
<ele>129</ele>
<time>2024-05-11T13:11:38Z</time>
</trkpt>
<trkpt lat="49.75992581807077" lon="9.51684664003551">
<ele>129</ele>
<time>2024-05-11T13:11:39Z</time>
</trkpt>
<trkpt lat="49.7599295899272" lon="9.51684471219778">
<ele>129</ele>
<time>2024-05-11T13:11:40Z</time>
</trkpt>
<trkpt lat="49.75993721745908" lon="9.516817973926663">
<ele>129</ele>
<time>2024-05-11T13:11:41Z</time>
</trkpt>
<trkpt lat="49.75993721745908" lon="9.516819901764393">
<ele>129</ele>
<time>2024-05-11T13:11:43Z</time>
</trkpt>
<trkpt lat="49.75993721745908" lon="9.516821829602122">
<ele>129</ele>
<time>2024-05-11T13:11:49Z</time>
</trkpt>
<trkpt lat="49.75993721745908" lon="9.51682660728693">
<ele>129</ele>
<time>2024-05-11T13:11:52Z</time>
</trkpt>
<trkpt lat="49.75994107313454" lon="9.516831384971738">
<ele>129</ele>
<time>2024-05-11T13:11:53Z</time>
</trkpt>
<trkpt lat="49.75994107313454" lon="9.516835156828163">
<ele>129</ele>
<time>2024-05-11T13:11:54Z</time>
</trkpt>
<trkpt lat="49.75994107313454" lon="9.516839934512973">
<ele>129</ele>
<time>2024-05-11T13:11:55Z</time>
</trkpt>
<trkpt lat="49.75994107313454" lon="9.516841862350702">
<ele>129</ele>
<time>2024-05-11T13:11:56Z</time>
</trkpt>
<trkpt lat="49.75994107313454" lon="9.51684471219778">
<ele>129</ele>
<time>2024-05-11T13:11:57Z</time>
</trkpt>
<trkpt lat="49.75994107313454" lon="9.516843790188432">
<ele>129</ele>
<time>2024-05-11T13:11:58Z</time>
</trkpt>
<trkpt lat="49.75993721745908" lon="9.516841862350702">
<ele>129</ele>
<time>2024-05-11T13:12:01Z</time>
</trkpt>
<trkpt lat="49.75993721745908" lon="9.516843790188432">
<ele>129</ele>
<time>2024-05-11T13:12:02Z</time>
</trkpt>
<trkpt lat="49.75993721745908" lon="9.516841862350702">
<ele>129</ele>
<time>2024-05-11T13:12:03Z</time>
</trkpt>
<trkpt lat="49.75993721745908" lon="9.516839934512973">
<ele>129</ele>
<time>2024-05-11T13:12:04Z</time>
</trkpt>
<trkpt lat="49.75993721745908" lon="9.516841862350702">
<ele>129</ele>
<time>2024-05-11T13:12:07Z</time>
</trkpt>
<trkpt lat="49.759933445602655" lon="9.516843790188432">
<ele>129</ele>
<time>2024-05-11T13:12:09Z</time>
</trkpt>
<trkpt lat="49.7599295899272" lon="9.51684471219778">
<ele>129</ele>
<time>2024-05-11T13:12:13Z</time>
</trkpt>
<trkpt lat="49.7599295899272" lon="9.516843790188432">
<ele>129</ele>
<time>2024-05-11T13:12:15Z</time>
</trkpt>
<trkpt lat="49.75992581807077" lon="9.516843790188432">
<ele>129</ele>
<time>2024-05-11T13:12:16Z</time>
</trkpt>
<trkpt lat="49.75992196239531" lon="9.51684471219778">
<ele>129</ele>
<time>2024-05-11T13:12:19Z</time>
</trkpt>
<trkpt lat="49.75992196239531" lon="9.51684664003551">
<ele>129</ele>
<time>2024-05-11T13:12:20Z</time>
</trkpt>
<trkpt lat="49.75991819053888" lon="9.51684664003551">
<ele>129</ele>
<time>2024-05-11T13:12:22Z</time>
</trkpt>
<trkpt lat="49.75991819053888" lon="9.516843790188432">
<ele>129</ele>
<time>2024-05-11T13:12:23Z</time>
</trkpt>
<trkpt lat="49.75991819053888" lon="9.516841862350702">
<ele>129</ele>
<time>2024-05-11T13:12:24Z</time>
</trkpt>
<trkpt lat="49.75991819053888" lon="9.516839934512973">
<ele>129</ele>
<time>2024-05-11T13:12:25Z</time>
</trkpt>
<trkpt lat="49.75991819053888" lon="9.516836162656546">
<ele>129</ele>
<time>2024-05-11T13:12:26Z</time>
</trkpt>
<trkpt lat="49.75991819053888" lon="9.516833228990436">
<ele>129</ele>
<time>2024-05-11T13:12:28Z</time>
</trkpt>
<trkpt lat="49.75991819053888" lon="9.516831384971738">
<ele>129</ele>
<time>2024-05-11T13:12:30Z</time>
</trkpt>
<trkpt lat="49.75991819053888" lon="9.516830379143356">
<ele>129</ele>
<time>2024-05-11T13:12:31Z</time>
</trkpt>
<trkpt lat="49.75991819053888" lon="9.51682853512466">
<ele>129</ele>
<time>2024-05-11T13:12:33Z</time>
</trkpt>
<trkpt lat="49.75991819053888" lon="9.51682660728693">
<ele>129</ele>
<time>2024-05-11T13:12:34Z</time>
</trkpt>
<trkpt lat="49.759914334863424" lon="9.516823757439852">
<ele>129</ele>
<time>2024-05-11T13:12:35Z</time>
</trkpt>
<trkpt lat="49.759914334863424" lon="9.516821829602122">
<ele>129</ele>
<time>2024-05-11T13:12:37Z</time>
</trkpt>
<trkpt lat="49.75991819053888" lon="9.516821829602122">
<ele>129</ele>
<time>2024-05-11T13:12:38Z</time>
</trkpt>
<trkpt lat="49.75991819053888" lon="9.5168246794492">
<ele>129</ele>
<time>2024-05-11T13:12:39Z</time>
</trkpt>
<trkpt lat="49.75992581807077" lon="9.516830379143356">
<ele>129</ele>
<time>2024-05-11T13:12:40Z</time>
</trkpt>
<trkpt lat="49.7599295899272" lon="9.516835156828163">
<ele>129</ele>
<time>2024-05-11T13:12:41Z</time>
</trkpt>
<trkpt lat="49.75992581807077" lon="9.51682853512466">
<ele>129</ele>
<time>2024-05-11T13:12:42Z</time>
</trkpt>
<trkpt lat="49.7599295899272" lon="9.5168246794492">
<ele>129</ele>
<time>2024-05-11T13:12:43Z</time>
</trkpt>
<trkpt lat="49.75992581807077" lon="9.516819901764393">
<ele>129</ele>
<time>2024-05-11T13:12:44Z</time>
</trkpt>
<trkpt lat="49.7599295899272" lon="9.516819901764393">
<ele>129</ele>
<time>2024-05-11T13:12:45Z</time>
</trkpt>
<trkpt lat="49.759933445602655" lon="9.516821829602122">
<ele>129</ele>
<time>2024-05-11T13:12:47Z</time>
</trkpt>
<trkpt lat="49.759933445602655" lon="9.51682660728693">
<ele>129</ele>
<time>2024-05-11T13:12:48Z</time>
</trkpt>
<trkpt lat="49.75993721745908" lon="9.51682660728693">
<ele>129</ele>
<time>2024-05-11T13:12:49Z</time>
</trkpt>
<trkpt lat="49.75993721745908" lon="9.516823757439852">
<ele>129</ele>
<time>2024-05-11T13:12:50Z</time>
</trkpt>
<trkpt lat="49.75993721745908" lon="9.5168246794492">
<ele>129</ele>
<time>2024-05-11T13:12:51Z</time>
</trkpt>
<trkpt lat="49.75993721745908" lon="9.516823757439852">
<ele>129</ele>
<time>2024-05-11T13:12:52Z</time>
</trkpt>
<trkpt lat="49.759933445602655" lon="9.516823757439852">
<ele>129</ele>
<time>2024-05-11T13:12:55Z</time>
</trkpt>
<trkpt lat="49.7599295899272" lon="9.516817051917316">
<ele>129</ele>
<time>2024-05-11T13:12:56Z</time>
</trkpt>
<trkpt lat="49.7599295899272" lon="9.516813196241856">
<ele>129</ele>
<time>2024-05-11T13:12:57Z</time>
</trkpt>
<trkpt lat="49.75992581807077" lon="9.51680850237608">
<ele>129</ele>
<time>2024-05-11T13:12:58Z</time>
</trkpt>
<trkpt lat="49.75992581807077" lon="9.516801796853542">
<ele>129</ele>
<time>2024-05-11T13:12:59Z</time>
</trkpt>
<trkpt lat="49.75992196239531" lon="9.516797941178083">
<ele>129</ele>
<time>2024-05-11T13:13:00Z</time>
</trkpt>
<trkpt lat="49.75991819053888" lon="9.5167884696275">
<ele>129</ele>
<time>2024-05-11T13:13:01Z</time>
</trkpt>
<trkpt lat="49.75991819053888" lon="9.51678461395204">
<ele>129</ele>
<time>2024-05-11T13:13:02Z</time>
</trkpt>
<trkpt lat="49.75991819053888" lon="9.516783691942692">
<ele>129</ele>
<time>2024-05-11T13:13:03Z</time>
</trkpt>
<trkpt lat="49.75991819053888" lon="9.516781764104962">
<ele>129</ele>
<time>2024-05-11T13:13:04Z</time>
</trkpt>
<trkpt lat="49.75991819053888" lon="9.516783691942692">
<ele>129</ele>
<time>2024-05-11T13:13:05Z</time>
</trkpt>
<trkpt lat="49.75991819053888" lon="9.51678461395204">
<ele>129</ele>
<time>2024-05-11T13:13:06Z</time>
</trkpt>
<trkpt lat="49.75991819053888" lon="9.516781764104962">
<ele>129</ele>
<time>2024-05-11T13:13:07Z</time>
</trkpt>
<trkpt lat="49.759914334863424" lon="9.516777992248535">
<ele>129</ele>
<time>2024-05-11T13:13:08Z</time>
</trkpt>
<trkpt lat="49.759914334863424" lon="9.516776986420156">
<ele>129</ele>
<time>2024-05-11T13:13:10Z</time>
</trkpt>
<trkpt lat="49.759914334863424" lon="9.516777992248535">
<ele>129</ele>
<time>2024-05-11T13:13:11Z</time>
</trkpt>
<trkpt lat="49.759910563007" lon="9.516776986420156">
<ele>129</ele>
<time>2024-05-11T13:13:12Z</time>
</trkpt>
<trkpt lat="49.759910563007" lon="9.516779836267231">
<ele>129</ele>
<time>2024-05-11T13:13:13Z</time>
</trkpt>
<trkpt lat="49.75990670733154" lon="9.516777992248535">
<ele>129</ele>
<time>2024-05-11T13:13:15Z</time>
</trkpt>
<trkpt lat="49.75990670733154" lon="9.516776986420156">
<ele>129</ele>
<time>2024-05-11T13:13:16Z</time>
</trkpt>
<trkpt lat="49.75990670733154" lon="9.516773214563727">
<ele>129</ele>
<time>2024-05-11T13:13:17Z</time>
</trkpt>
<trkpt lat="49.75990670733154" lon="9.516775058582423">
<ele>129</ele>
<time>2024-05-11T13:13:18Z</time>
</trkpt>
<trkpt lat="49.75990670733154" lon="9.516776986420156">
<ele>129</ele>
<time>2024-05-11T13:13:19Z</time>
</trkpt>
<trkpt lat="49.75990670733154" lon="9.516775058582423">
<ele>129</ele>
<time>2024-05-11T13:13:20Z</time>
</trkpt>
<trkpt lat="49.75990670733154" lon="9.516773214563727">
<ele>129</ele>
<time>2024-05-11T13:13:21Z</time>
</trkpt>
<trkpt lat="49.75990293547511" lon="9.516773214563727">
<ele>129</ele>
<time>2024-05-11T13:13:22Z</time>
</trkpt>
<trkpt lat="49.75990670733154" lon="9.516773214563727">
<ele>129</ele>
<time>2024-05-11T13:13:23Z</time>
</trkpt>
<trkpt lat="49.75990670733154" lon="9.516775058582423">
<ele>129</ele>
<time>2024-05-11T13:13:24Z</time>
</trkpt>
<trkpt lat="49.75990670733154" lon="9.516776986420156">
<ele>129</ele>
<time>2024-05-11T13:13:25Z</time>
</trkpt>
<trkpt lat="49.75990670733154" lon="9.516777992248535">
<ele>129</ele>
<time>2024-05-11T13:13:26Z</time>
</trkpt>
<trkpt lat="49.75990670733154" lon="9.516779836267231">
<ele>129</ele>
<time>2024-05-11T13:13:27Z</time>
</trkpt>
<trkpt lat="49.75990670733154" lon="9.516775058582423">
<ele>129</ele>
<time>2024-05-11T13:13:28Z</time>
</trkpt>
<trkpt lat="49.75990670733154" lon="9.516773214563727">
<ele>129</ele>
<time>2024-05-11T13:13:30Z</time>
</trkpt>
<trkpt lat="49.75990670733154" lon="9.516775058582423">
<ele>129</ele>
<time>2024-05-11T13:13:31Z</time>
</trkpt>
<trkpt lat="49.75990670733154" lon="9.516777992248535">
<ele>129</ele>
<time>2024-05-11T13:13:32Z</time>
</trkpt>
<trkpt lat="49.75990670733154" lon="9.516781764104962">
<ele>129</ele>
<time>2024-05-11T13:13:33Z</time>
</trkpt>
<trkpt lat="49.75990670733154" lon="9.516776986420156">
<ele>129</ele>
<time>2024-05-11T13:13:35Z</time>
</trkpt>
<trkpt lat="49.75990670733154" lon="9.516773214563727">
<ele>129</ele>
<time>2024-05-11T13:13:36Z</time>
</trkpt>
<trkpt lat="49.75990670733154" lon="9.516775058582423">
<ele>129</ele>
<time>2024-05-11T13:13:37Z</time>
</trkpt>
<trkpt lat="49.75990670733154" lon="9.516773214563727">
<ele>129</ele>
<time>2024-05-11T13:13:38Z</time>
</trkpt>
<trkpt lat="49.75990293547511" lon="9.516761731356382">
<ele>129</ele>
<time>2024-05-11T13:13:39Z</time>
</trkpt>
<trkpt lat="49.75990293547511" lon="9.516753181815147">
<ele>129</ele>
<time>2024-05-11T13:13:40Z</time>
</trkpt>
<trkpt lat="49.75990293547511" lon="9.51674647629261">
<ele>129</ele>
<time>2024-05-11T13:13:41Z</time>
</trkpt>
<trkpt lat="49.75989907979965" lon="9.516737926751375">
<ele>129</ele>
<time>2024-05-11T13:13:42Z</time>
</trkpt>
<trkpt lat="49.75989907979965" lon="9.516736920922996">
<ele>129</ele>
<time>2024-05-11T13:13:43Z</time>
</trkpt>
<trkpt lat="49.75989907979965" lon="9.516739770770071">
<ele>129</ele>
<time>2024-05-11T13:13:44Z</time>
</trkpt>
<trkpt lat="49.75990293547511" lon="9.516741698607802">
<ele>129</ele>
<time>2024-05-11T13:13:45Z</time>
</trkpt>
<trkpt lat="49.75990293547511" lon="9.51674454845488">
<ele>129</ele>
<time>2024-05-11T13:13:46Z</time>
</trkpt>
<trkpt lat="49.75990293547511" lon="9.516739770770071">
<ele>129</ele>
<time>2024-05-11T13:13:47Z</time>
</trkpt>
<trkpt lat="49.759895307943225" lon="9.516735076904297">
<ele>129</ele>
<time>2024-05-11T13:13:48Z</time>
</trkpt>
<trkpt lat="49.759895307943225" lon="9.516736920922996">
<ele>129</ele>
<time>2024-05-11T13:13:49Z</time>
</trkpt>
<trkpt lat="49.759895307943225" lon="9.516735076904297">
<ele>129</ele>
<time>2024-05-11T13:13:50Z</time>
</trkpt>
<trkpt lat="49.759891452267766" lon="9.516736920922996">
<ele>129</ele>
<time>2024-05-11T13:13:51Z</time>
</trkpt>
<trkpt lat="49.759891452267766" lon="9.516735076904297">
<ele>129</ele>
<time>2024-05-11T13:13:53Z</time>
</trkpt>
<trkpt lat="49.759891452267766" lon="9.516731221228838">
<ele>129</ele>
<time>2024-05-11T13:13:55Z</time>
</trkpt>
<trkpt lat="49.75988005287945" lon="9.51670833863318">
<ele>129</ele>
<time>2024-05-11T13:13:56Z</time>
</trkpt>
<trkpt lat="49.75988382473588" lon="9.51670448295772">
<ele>129</ele>
<time>2024-05-11T13:13:57Z</time>
</trkpt>
<trkpt lat="49.75988005287945" lon="9.516699789091945">
<ele>129</ele>
<time>2024-05-11T13:13:58Z</time>
</trkpt>
<trkpt lat="49.75988005287945" lon="9.516695011407135">
<ele>129</ele>
<time>2024-05-11T13:13:59Z</time>
</trkpt>
<trkpt lat="49.75988005287945" lon="9.516691155731678">
<ele>129</ele>
<time>2024-05-11T13:14:00Z</time>
</trkpt>
<trkpt lat="49.759876197203994" lon="9.516683528199792">
<ele>129</ele>
<time>2024-05-11T13:14:01Z</time>
</trkpt>
<trkpt lat="49.75988005287945" lon="9.51668637804687">
<ele>129</ele>
<time>2024-05-11T13:14:02Z</time>
</trkpt>
<trkpt lat="49.759876197203994" lon="9.516676822677256">
<ele>129</ele>
<time>2024-05-11T13:14:03Z</time>
</trkpt>
<trkpt lat="49.759876197203994" lon="9.516679756343365">
<ele>129</ele>
<time>2024-05-11T13:14:04Z</time>
</trkpt>
<trkpt lat="49.75987242534757" lon="9.516673050820827">
<ele>129</ele>
<time>2024-05-11T13:14:05Z</time>
</trkpt>
<trkpt lat="49.75987242534757" lon="9.516674978658555">
<ele>129</ele>
<time>2024-05-11T13:14:06Z</time>
</trkpt>
<trkpt lat="49.75987242534757" lon="9.516673050820827">
<ele>129</ele>
<time>2024-05-11T13:14:07Z</time>
</trkpt>
<trkpt lat="49.75987242534757" lon="9.51667212881148">
<ele>129</ele>
<time>2024-05-11T13:14:08Z</time>
</trkpt>
<trkpt lat="49.75987242534757" lon="9.516673050820827">
<ele>129</ele>
<time>2024-05-11T13:14:09Z</time>
</trkpt>
<trkpt lat="49.75987242534757" lon="9.51667020097375">
<ele>129</ele>
<time>2024-05-11T13:14:10Z</time>
</trkpt>
<trkpt lat="49.75987242534757" lon="9.516674978658555">
<ele>129</ele>
<time>2024-05-11T13:14:11Z</time>
</trkpt>
<trkpt lat="49.75987242534757" lon="9.516673050820827">
<ele>129</ele>
<time>2024-05-11T13:14:12Z</time>
</trkpt>
<trkpt lat="49.75987242534757" lon="9.516679756343365">
<ele>129</ele>
<time>2024-05-11T13:14:13Z</time>
</trkpt>
<trkpt lat="49.75987242534757" lon="9.516683528199792">
<ele>129</ele>
<time>2024-05-11T13:14:14Z</time>
</trkpt>
<trkpt lat="49.75986856967211" lon="9.516676822677256">
<ele>129</ele>
<time>2024-05-11T13:14:15Z</time>
</trkpt>
<trkpt lat="49.75986479781568" lon="9.51666634529829">
<ele>129</ele>
<time>2024-05-11T13:14:16Z</time>
</trkpt>
<trkpt lat="49.75986479781568" lon="9.516661567613482">
<ele>129</ele>
<time>2024-05-11T13:14:17Z</time>
</trkpt>
<trkpt lat="49.75986479781568" lon="9.516664501279593">
<ele>129</ele>
<time>2024-05-11T13:14:18Z</time>
</trkpt>
<trkpt lat="49.75986479781568" lon="9.516661567613482">
<ele>129</ele>
<time>2024-05-11T13:14:19Z</time>
</trkpt>
<trkpt lat="49.75986479781568" lon="9.516658717766404">
<ele>129</ele>
<time>2024-05-11T13:14:20Z</time>
</trkpt>
<trkpt lat="49.75986856967211" lon="9.51666634529829">
<ele>129</ele>
<time>2024-05-11T13:14:21Z</time>
</trkpt>
<trkpt lat="49.75986856967211" lon="9.516664501279593">
<ele>129</ele>
<time>2024-05-11T13:14:22Z</time>
</trkpt>
<trkpt lat="49.75987242534757" lon="9.51666634529829">
<ele>129</ele>
<time>2024-05-11T13:14:23Z</time>
</trkpt>
<trkpt lat="49.759876197203994" lon="9.516673050820827">
<ele>129</ele>
<time>2024-05-11T13:14:24Z</time>
</trkpt>
<trkpt lat="49.75988005287945" lon="9.516676822677256">
<ele>129</ele>
<time>2024-05-11T13:14:25Z</time>
</trkpt>
<trkpt lat="49.759891452267766" lon="9.516698783263564">
<ele>129</ele>
<time>2024-05-11T13:14:27Z</time>
</trkpt>
<trkpt lat="49.759891452267766" lon="9.516699789091945">
<ele>129</ele>
<time>2024-05-11T13:14:28Z</time>
</trkpt>
<trkpt lat="49.759895307943225" lon="9.516698783263564">
<ele>129</ele>
<time>2024-05-11T13:14:29Z</time>
</trkpt>
<trkpt lat="49.75989907979965" lon="9.51670448295772">
<ele>129</ele>
<time>2024-05-11T13:14:30Z</time>
</trkpt>
<trkpt lat="49.75990293547511" lon="9.516717894002795">
<ele>129</ele>
<time>2024-05-11T13:14:31Z</time>
</trkpt>
<trkpt lat="49.759910563007" lon="9.516736920922996">
<ele>129</ele>
<time>2024-05-11T13:14:32Z</time>
</trkpt>
<trkpt lat="49.759910563007" lon="9.516741698607802">
<ele>129</ele>
<time>2024-05-11T13:14:33Z</time>
</trkpt>
<trkpt lat="49.75991819053888" lon="9.516750331968067">
<ele>129</ele>
<time>2024-05-11T13:14:34Z</time>
</trkpt>
<trkpt lat="49.75991819053888" lon="9.516757959499955">
<ele>129</ele>
<time>2024-05-11T13:14:35Z</time>
</trkpt>
<trkpt lat="49.75992196239531" lon="9.516761731356382">
<ele>129</ele>
<time>2024-05-11T13:14:36Z</time>
</trkpt>
<trkpt lat="49.75992581807077" lon="9.516763659194112">
<ele>129</ele>
<time>2024-05-11T13:14:37Z</time>
</trkpt>
<trkpt lat="49.7599295899272" lon="9.516775058582423">
<ele>129</ele>
<time>2024-05-11T13:14:38Z</time>
</trkpt>
<trkpt lat="49.7599295899272" lon="9.516777992248535">
<ele>129</ele>
<time>2024-05-11T13:14:39Z</time>
</trkpt>
<trkpt lat="49.7599295899272" lon="9.51678461395204">
<ele>129</ele>
<time>2024-05-11T13:14:40Z</time>
</trkpt>
<trkpt lat="49.7599295899272" lon="9.516797019168736">
<ele>129</ele>
<time>2024-05-11T13:14:41Z</time>
</trkpt>
<trkpt lat="49.759933445602655" lon="9.51680464670062">
<ele>129</ele>
<time>2024-05-11T13:14:42Z</time>
</trkpt>
<trkpt lat="49.75992196239531" lon="9.516793247312307">
<ele>129</ele>
<time>2024-05-11T13:14:43Z</time>
</trkpt>
<trkpt lat="49.759914334863424" lon="9.5167884696275">
<ele>129</ele>
<time>2024-05-11T13:14:44Z</time>
</trkpt>
<trkpt lat="49.75990670733154" lon="9.516775058582423">
<ele>129</ele>
<time>2024-05-11T13:14:45Z</time>
</trkpt>
<trkpt lat="49.75989907979965" lon="9.51676458120346">
<ele>129</ele>
<time>2024-05-11T13:14:46Z</time>
</trkpt>
<trkpt lat="49.759891452267766" lon="9.516761731356382">
<ele>129</ele>
<time>2024-05-11T13:14:47Z</time>
</trkpt>
<trkpt lat="49.75988768041134" lon="9.51676458120346">
<ele>129</ele>
<time>2024-05-11T13:14:48Z</time>
</trkpt>
<trkpt lat="49.75988382473588" lon="9.516759803518651">
<ele>129</ele>
<time>2024-05-11T13:14:49Z</time>
</trkpt>
<trkpt lat="49.75988382473588" lon="9.516753181815147">
<ele>129</ele>
<time>2024-05-11T13:14:50Z</time>
</trkpt>
<trkpt lat="49.75988005287945" lon="9.51674840413034">
<ele>129</ele>
<time>2024-05-11T13:14:51Z</time>
</trkpt>
<trkpt lat="49.75988005287945" lon="9.516750331968067">
<ele>129</ele>
<time>2024-05-11T13:14:53Z</time>
</trkpt>
<trkpt lat="49.75988382473588" lon="9.516755025833843">
<ele>129</ele>
<time>2024-05-11T13:14:55Z</time>
</trkpt>
<trkpt lat="49.75988768041134" lon="9.516750331968067">
<ele>129</ele>
<time>2024-05-11T13:14:57Z</time>
</trkpt>
<trkpt lat="49.759891452267766" lon="9.516757959499955">
<ele>129</ele>
<time>2024-05-11T13:14:58Z</time>
</trkpt>
<trkpt lat="49.75990670733154" lon="9.51676843687892">
<ele>129</ele>
<time>2024-05-11T13:15:00Z</time>
</trkpt>
<trkpt lat="49.75991819053888" lon="9.516790313646196">
<ele>129</ele>
<time>2024-05-11T13:15:01Z</time>
</trkpt>
<trkpt lat="49.759914334863424" lon="9.5167884696275">
<ele>129</ele>
<time>2024-05-11T13:15:02Z</time>
</trkpt>
<trkpt lat="49.75989907979965" lon="9.51676650904119">
<ele>129</ele>
<time>2024-05-11T13:15:03Z</time>
</trkpt>
<trkpt lat="49.759891452267766" lon="9.516751253977418">
<ele>129</ele>
<time>2024-05-11T13:15:04Z</time>
</trkpt>
<trkpt lat="49.75988005287945" lon="9.516741698607802">
<ele>129</ele>
<time>2024-05-11T13:15:05Z</time>
</trkpt>
<trkpt lat="49.759876197203994" lon="9.516741698607802">
<ele>129</ele>
<time>2024-05-11T13:15:06Z</time>
</trkpt>
<trkpt lat="49.759876197203994" lon="9.516739770770071">
<ele>129</ele>
<time>2024-05-11T13:15:07Z</time>
</trkpt>
<trkpt lat="49.75986479781568" lon="9.5167245157063">
<ele>129</ele>
<time>2024-05-11T13:15:08Z</time>
</trkpt>
<trkpt lat="49.759853314608335" lon="9.516721665859222">
<ele>129</ele>
<time>2024-05-11T13:15:09Z</time>
</trkpt>
<trkpt lat="49.75984954275191" lon="9.516717894002795">
<ele>129</ele>
<time>2024-05-11T13:15:10Z</time>
</trkpt>
<trkpt lat="49.75984568707645" lon="9.516713116317987">
<ele>129</ele>
<time>2024-05-11T13:15:11Z</time>
</trkpt>
<trkpt lat="49.75984954275191" lon="9.5167245157063">
<ele>129</ele>
<time>2024-05-11T13:15:12Z</time>
</trkpt>
<trkpt lat="49.75984568707645" lon="9.5167245157063">
<ele>129</ele>
<time>2024-05-11T13:15:13Z</time>
</trkpt>
<trkpt lat="49.75984954275191" lon="9.51672644354403">
<ele>129</ele>
<time>2024-05-11T13:15:14Z</time>
</trkpt>
<trkpt lat="49.75984568707645" lon="9.516730299219487">
<ele>129</ele>
<time>2024-05-11T13:15:15Z</time>
</trkpt>
<trkpt lat="49.75984568707645" lon="9.51672837138176">
<ele>129</ele>
<time>2024-05-11T13:15:16Z</time>
</trkpt>
<trkpt lat="49.75984568707645" lon="9.516731221228838">
<ele>129</ele>
<time>2024-05-11T13:15:17Z</time>
</trkpt>
<trkpt lat="49.75984568707645" lon="9.516741698607802">
<ele>129</ele>
<time>2024-05-11T13:15:18Z</time>
</trkpt>
<trkpt lat="49.759815176948905" lon="9.51670833863318">
<ele>129</ele>
<time>2024-05-11T13:15:19Z</time>
</trkpt>
<trkpt lat="49.759811321273446" lon="9.516716888174416">
<ele>129</ele>
<time>2024-05-11T13:15:20Z</time>
</trkpt>
<trkpt lat="49.759811321273446" lon="9.516715044155715">
<ele>129</ele>
<time>2024-05-11T13:15:21Z</time>
</trkpt>
<trkpt lat="49.759811321273446" lon="9.516716888174416">
<ele>129</ele>
<time>2024-05-11T13:15:22Z</time>
</trkpt>
<trkpt lat="49.75982666015625" lon="9.516719738021491">
<ele>129</ele>
<time>2024-05-11T13:15:23Z</time>
</trkpt>
<trkpt lat="49.75982280448079" lon="9.516736920922996">
<ele>129</ele>
<time>2024-05-11T13:15:24Z</time>
</trkpt>
<trkpt lat="49.75983043201268" lon="9.516743626445532">
<ele>129</ele>
<time>2024-05-11T13:15:25Z</time>
</trkpt>
<trkpt lat="49.75984954275191" lon="9.51674647629261">
<ele>129</ele>
<time>2024-05-11T13:15:26Z</time>
</trkpt>
<trkpt lat="49.75982280448079" lon="9.516730299219487">
<ele>129</ele>
<time>2024-05-11T13:15:27Z</time>
</trkpt>
<trkpt lat="49.75983805954456" lon="9.516759803518651">
<ele>129</ele>
<time>2024-05-11T13:15:28Z</time>
</trkpt>
<trkpt lat="49.75983805954456" lon="9.516773214563727">
<ele>129</ele>
<time>2024-05-11T13:15:29Z</time>
</trkpt>
<trkpt lat="49.75982666015625" lon="9.516781764104962">
<ele>129</ele>
<time>2024-05-11T13:15:30Z</time>
</trkpt>
<trkpt lat="49.75983043201268" lon="9.516790313646196">
<ele>129</ele>
<time>2024-05-11T13:15:31Z</time>
</trkpt>
<trkpt lat="49.759834287688136" lon="9.516801796853542">
<ele>129</ele>
<time>2024-05-11T13:15:32Z</time>
</trkpt>
<trkpt lat="49.75984191522002" lon="9.516810346394776">
<ele>129</ele>
<time>2024-05-11T13:15:33Z</time>
</trkpt>
<trkpt lat="49.75984568707645" lon="9.516819901764393">
<ele>129</ele>
<time>2024-05-11T13:15:34Z</time>
</trkpt>
<trkpt lat="49.75984954275191" lon="9.516817051917316">
<ele>129</ele>
<time>2024-05-11T13:15:35Z</time>
</trkpt>
<trkpt lat="49.75984954275191" lon="9.516801796853542">
<ele>129</ele>
<time>2024-05-11T13:15:36Z</time>
</trkpt>
<trkpt lat="49.759853314608335" lon="9.5167884696275">
<ele>129</ele>
<time>2024-05-11T13:15:37Z</time>
</trkpt>
<trkpt lat="49.759853314608335" lon="9.516777992248535">
<ele>129</ele>
<time>2024-05-11T13:15:38Z</time>
</trkpt>
<trkpt lat="49.75984568707645" lon="9.51676650904119">
<ele>129</ele>
<time>2024-05-11T13:15:39Z</time>
</trkpt>
<trkpt lat="49.75984568707645" lon="9.51676458120346">
<ele>129</ele>
<time>2024-05-11T13:15:40Z</time>
</trkpt>
<trkpt lat="49.75984191522002" lon="9.51676843687892">
<ele>129</ele>
<time>2024-05-11T13:15:41Z</time>
</trkpt>
<trkpt lat="49.75984191522002" lon="9.516763659194112">
<ele>129</ele>
<time>2024-05-11T13:15:42Z</time>
</trkpt>
<trkpt lat="49.759834287688136" lon="9.516753181815147">
<ele>129</ele>
<time>2024-05-11T13:15:43Z</time>
</trkpt>
<trkpt lat="49.75983805954456" lon="9.516743626445532">
<ele>129</ele>
<time>2024-05-11T13:15:44Z</time>
</trkpt>
<trkpt lat="49.759834287688136" lon="9.51672837138176">
<ele>129</ele>
<time>2024-05-11T13:15:45Z</time>
</trkpt>
<trkpt lat="49.75983043201268" lon="9.516723593696952">
<ele>129</ele>
<time>2024-05-11T13:15:46Z</time>
</trkpt>
<trkpt lat="49.75982666015625" lon="9.516713116317987">
<ele>129</ele>
<time>2024-05-11T13:15:47Z</time>
</trkpt>
<trkpt lat="49.75984568707645" lon="9.516719738021491">
<ele>129</ele>
<time>2024-05-11T13:15:48Z</time>
</trkpt>
<trkpt lat="49.759857170283794" lon="9.516723593696952">
<ele>129</ele>
<time>2024-05-11T13:15:49Z</time>
</trkpt>
<trkpt lat="49.759853314608335" lon="9.516719738021491">
<ele>129</ele>
<time>2024-05-11T13:15:50Z</time>
</trkpt>
<trkpt lat="49.75984954275191" lon="9.51670448295772">
<ele>129</ele>
<time>2024-05-11T13:15:51Z</time>
</trkpt>
<trkpt lat="49.75983805954456" lon="9.516683528199792">
<ele>129</ele>
<time>2024-05-11T13:15:52Z</time>
</trkpt>
<trkpt lat="49.759834287688136" lon="9.51667020097375">
<ele>129</ele>
<time>2024-05-11T13:15:53Z</time>
</trkpt>
<trkpt lat="49.759811321273446" lon="9.516643462702632">
<ele>129</ele>
<time>2024-05-11T13:15:54Z</time>
</trkpt>
<trkpt lat="49.75979992188513" lon="9.51662535779178">
<ele>129</ele>
<time>2024-05-11T13:15:55Z</time>
</trkpt>
<trkpt lat="49.759796066209674" lon="9.51662535779178">
<ele>129</ele>
<time>2024-05-11T13:15:56Z</time>
</trkpt>
<trkpt lat="49.759796066209674" lon="9.516619658097625">
<ele>129</ele>
<time>2024-05-11T13:15:57Z</time>
</trkpt>
<trkpt lat="49.75979229435325" lon="9.5166053250432">
<ele>129</ele>
<time>2024-05-11T13:15:58Z</time>
</trkpt>
<trkpt lat="49.75979229435325" lon="9.516592919826508">
<ele>129</ele>
<time>2024-05-11T13:15:59Z</time>
</trkpt>
<trkpt lat="49.75979229435325" lon="9.5165881421417">
<ele>129</ele>
<time>2024-05-11T13:16:00Z</time>
</trkpt>
<trkpt lat="49.75978843867779" lon="9.5165881421417">
<ele>129</ele>
<time>2024-05-11T13:16:01Z</time>
</trkpt>
<trkpt lat="49.75978466682136" lon="9.516586298123002">
<ele>129</ele>
<time>2024-05-11T13:16:02Z</time>
</trkpt>
<trkpt lat="49.7597808111459" lon="9.51656810939312">
<ele>129</ele>
<time>2024-05-11T13:16:03Z</time>
</trkpt>
<trkpt lat="49.759773183614016" lon="9.516558637842536">
<ele>129</ele>
<time>2024-05-11T13:16:04Z</time>
</trkpt>
<trkpt lat="49.759773183614016" lon="9.516546232625842">
<ele>129</ele>
<time>2024-05-11T13:16:05Z</time>
</trkpt>
<trkpt lat="49.75979229435325" lon="9.516558637842536">
<ele>129</ele>
<time>2024-05-11T13:16:07Z</time>
</trkpt>
<trkpt lat="49.75979229435325" lon="9.51656525954604">
<ele>129</ele>
<time>2024-05-11T13:16:08Z</time>
</trkpt>
<trkpt lat="49.75979992188513" lon="9.51656810939312">
<ele>129</ele>
<time>2024-05-11T13:16:09Z</time>
</trkpt>
<trkpt lat="49.75980369374156" lon="9.516583364456892">
<ele>129</ele>
<time>2024-05-11T13:16:10Z</time>
</trkpt>
<trkpt lat="49.75980369374156" lon="9.51659199781716">
<ele>129</ele>
<time>2024-05-11T13:16:11Z</time>
</trkpt>
<trkpt lat="49.75980369374156" lon="9.516599625349045">
<ele>129</ele>
<time>2024-05-11T13:16:12Z</time>
</trkpt>
<trkpt lat="49.75979992188513" lon="9.51661010272801">
<ele>129</ele>
<time>2024-05-11T13:16:13Z</time>
</trkpt>
<trkpt lat="49.75980369374156" lon="9.516616808250546">
<ele>129</ele>
<time>2024-05-11T13:16:14Z</time>
</trkpt>
<trkpt lat="49.75979992188513" lon="9.516614880412815">
<ele>129</ele>
<time>2024-05-11T13:16:15Z</time>
</trkpt>
<trkpt lat="49.75979992188513" lon="9.516621585935354">
<ele>129</ele>
<time>2024-05-11T13:16:16Z</time>
</trkpt>
<trkpt lat="49.75980754941702" lon="9.516621585935354">
<ele>129</ele>
<time>2024-05-11T13:16:17Z</time>
</trkpt>
<trkpt lat="49.75980754941702" lon="9.516612952575088">
<ele>129</ele>
<time>2024-05-11T13:16:18Z</time>
</trkpt>
<trkpt lat="49.759811321273446" lon="9.516616808250546">
<ele>129</ele>
<time>2024-05-11T13:16:19Z</time>
</trkpt>
<trkpt lat="49.759815176948905" lon="9.51662627980113">
<ele>129</ele>
<time>2024-05-11T13:16:20Z</time>
</trkpt>
<trkpt lat="49.75981894880533" lon="9.516641534864902">
<ele>129</ele>
<time>2024-05-11T13:16:21Z</time>
</trkpt>
<trkpt lat="49.75981894880533" lon="9.5166520960629">
<ele>129</ele>
<time>2024-05-11T13:16:22Z</time>
</trkpt>
<trkpt lat="49.75982280448079" lon="9.516653018072248">
<ele>129</ele>
<time>2024-05-11T13:16:23Z</time>
</trkpt>
<trkpt lat="49.75982280448079" lon="9.5166520960629">
<ele>129</ele>
<time>2024-05-11T13:16:24Z</time>
</trkpt>
<trkpt lat="49.75981894880533" lon="9.51664631254971">
<ele>129</ele>
<time>2024-05-11T13:16:25Z</time>
</trkpt>
<trkpt lat="49.75983043201268" lon="9.51666827313602">
<ele>129</ele>
<time>2024-05-11T13:16:26Z</time>
</trkpt>
<trkpt lat="49.75982666015625" lon="9.51667020097375">
<ele>129</ele>
<time>2024-05-11T13:16:27Z</time>
</trkpt>
<trkpt lat="49.75983043201268" lon="9.51667212881148">
<ele>129</ele>
<time>2024-05-11T13:16:28Z</time>
</trkpt>
<trkpt lat="49.75982666015625" lon="9.51667020097375">
<ele>129</ele>
<time>2024-05-11T13:16:29Z</time>
</trkpt>
<trkpt lat="49.75982666015625" lon="9.51667212881148">
<ele>129</ele>
<time>2024-05-11T13:16:30Z</time>
</trkpt>
<trkpt lat="49.75982280448079" lon="9.51667212881148">
<ele>129</ele>
<time>2024-05-11T13:16:31Z</time>
</trkpt>
<trkpt lat="49.759815176948905" lon="9.516674978658555">
<ele>129</ele>
<time>2024-05-11T13:16:32Z</time>
</trkpt>
<trkpt lat="49.759815176948905" lon="9.5166883058846">
<ele>129</ele>
<time>2024-05-11T13:16:33Z</time>
</trkpt>
<trkpt lat="49.75980754941702" lon="9.51668637804687">
<ele>129</ele>
<time>2024-05-11T13:16:34Z</time>
</trkpt>
<trkpt lat="49.75980369374156" lon="9.516679756343365">
<ele>129</ele>
<time>2024-05-11T13:16:35Z</time>
</trkpt>
<trkpt lat="49.75980369374156" lon="9.516677828505635">
<ele>129</ele>
<time>2024-05-11T13:16:36Z</time>
</trkpt>
<trkpt lat="49.75980754941702" lon="9.516683528199792">
<ele>129</ele>
<time>2024-05-11T13:16:37Z</time>
</trkpt>
<trkpt lat="49.759811321273446" lon="9.51668545603752">
<ele>129</ele>
<time>2024-05-11T13:16:38Z</time>
</trkpt>
<trkpt lat="49.75981894880533" lon="9.516681600362062">
<ele>129</ele>
<time>2024-05-11T13:16:40Z</time>
</trkpt>
<trkpt lat="49.75983043201268" lon="9.516681600362062">
<ele>129</ele>
<time>2024-05-11T13:16:41Z</time>
</trkpt>
<trkpt lat="49.75983805954456" lon="9.516676822677256">
<ele>129</ele>
<time>2024-05-11T13:16:42Z</time>
</trkpt>
<trkpt lat="49.759834287688136" lon="9.516676822677256">
<ele>129</ele>
<time>2024-05-11T13:16:43Z</time>
</trkpt>
<trkpt lat="49.75983805954456" lon="9.516674978658555">
<ele>129</ele>
<time>2024-05-11T13:16:44Z</time>
</trkpt>
<trkpt lat="49.75984191522002" lon="9.516673050820827">
<ele>129</ele>
<time>2024-05-11T13:16:45Z</time>
</trkpt>
<trkpt lat="49.75984954275191" lon="9.516674978658555">
<ele>129</ele>
<time>2024-05-11T13:16:46Z</time>
</trkpt>
<trkpt lat="49.75986479781568" lon="9.516677828505635">
<ele>129</ele>
<time>2024-05-11T13:16:47Z</time>
</trkpt>
<trkpt lat="49.75987242534757" lon="9.51667020097375">
<ele>129</ele>
<time>2024-05-11T13:16:48Z</time>
</trkpt>
<trkpt lat="49.75987242534757" lon="9.51666634529829">
<ele>129</ele>
<time>2024-05-11T13:16:49Z</time>
</trkpt>
<trkpt lat="49.75987242534757" lon="9.51667212881148">
<ele>129</ele>
<time>2024-05-11T13:16:50Z</time>
</trkpt>
<trkpt lat="49.75988005287945" lon="9.51667212881148">
<ele>129</ele>
<time>2024-05-11T13:16:51Z</time>
</trkpt>
<trkpt lat="49.75988382473588" lon="9.516673050820827">
<ele>129</ele>
<time>2024-05-11T13:16:52Z</time>
</trkpt>
<trkpt lat="49.75988768041134" lon="9.51666634529829">
<ele>129</ele>
<time>2024-05-11T13:16:53Z</time>
</trkpt>
<trkpt lat="49.759891452267766" lon="9.516661567613482">
<ele>129</ele>
<time>2024-05-11T13:16:54Z</time>
</trkpt>
<trkpt lat="49.759891452267766" lon="9.516659723594785">
<ele>129</ele>
<time>2024-05-11T13:16:55Z</time>
</trkpt>
<trkpt lat="49.759876197203994" lon="9.516658717766404">
<ele>129</ele>
<time>2024-05-11T13:16:56Z</time>
</trkpt>
<trkpt lat="49.75987242534757" lon="9.516663495451212">
<ele>129</ele>
<time>2024-05-11T13:16:57Z</time>
</trkpt>
<trkpt lat="49.759857170283794" lon="9.5166520960629">
<ele>129</ele>
<time>2024-05-11T13:16:58Z</time>
</trkpt>
<trkpt lat="49.759853314608335" lon="9.516654945909975">
<ele>129</ele>
<time>2024-05-11T13:16:59Z</time>
</trkpt>
<trkpt lat="49.759853314608335" lon="9.516658717766404">
<ele>129</ele>
<time>2024-05-11T13:17:00Z</time>
</trkpt>
<trkpt lat="49.75984954275191" lon="9.51666634529829">
<ele>129</ele>
<time>2024-05-11T13:17:01Z</time>
</trkpt>
<trkpt lat="49.759853314608335" lon="9.51666634529829">
<ele>129</ele>
<time>2024-05-11T13:17:02Z</time>
</trkpt>
<trkpt lat="49.75984954275191" lon="9.51666634529829">
<ele>129</ele>
<time>2024-05-11T13:17:03Z</time>
</trkpt>
<trkpt lat="49.75984568707645" lon="9.516663495451212">
<ele>129</ele>
<time>2024-05-11T13:17:04Z</time>
</trkpt>
<trkpt lat="49.75984568707645" lon="9.516659723594785">
<ele>129</ele>
<time>2024-05-11T13:17:05Z</time>
</trkpt>
<trkpt lat="49.75984191522002" lon="9.516656873747706">
<ele>129</ele>
<time>2024-05-11T13:17:06Z</time>
</trkpt>
<trkpt lat="49.75984191522002" lon="9.51664824038744">
<ele>129</ele>
<time>2024-05-11T13:17:07Z</time>
</trkpt>
<trkpt lat="49.75983043201268" lon="9.516643462702632">
<ele>129</ele>
<time>2024-05-11T13:17:08Z</time>
</trkpt>
<trkpt lat="49.75982666015625" lon="9.516643462702632">
<ele>129</ele>
<time>2024-05-11T13:17:10Z</time>
</trkpt>
<trkpt lat="49.75982280448079" lon="9.516643462702632">
<ele>129</ele>
<time>2024-05-11T13:17:11Z</time>
</trkpt>
<trkpt lat="49.75981894880533" lon="9.516643462702632">
<ele>129</ele>
<time>2024-05-11T13:17:13Z</time>
</trkpt>
<trkpt lat="49.75982280448079" lon="9.51664539054036">
<ele>129</ele>
<time>2024-05-11T13:17:15Z</time>
</trkpt>
<trkpt lat="49.75982280448079" lon="9.51664824038744">
<ele>129</ele>
<time>2024-05-11T13:17:16Z</time>
</trkpt>
<trkpt lat="49.75982280448079" lon="9.51665016822517">
<ele>129</ele>
<time>2024-05-11T13:17:17Z</time>
</trkpt>
<trkpt lat="49.75982280448079" lon="9.51664824038744">
<ele>129</ele>
<time>2024-05-11T13:17:18Z</time>
</trkpt>
<trkpt lat="49.75982280448079" lon="9.51665016822517">
<ele>129</ele>
<time>2024-05-11T13:17:19Z</time>
</trkpt>
<trkpt lat="49.75982280448079" lon="9.51664824038744">
<ele>129</ele>
<time>2024-05-11T13:17:20Z</time>
</trkpt>
<trkpt lat="49.75981894880533" lon="9.51664631254971">
<ele>129</ele>
<time>2024-05-11T13:17:22Z</time>
</trkpt>
<trkpt lat="49.75981894880533" lon="9.516643462702632">
<ele>129</ele>
<time>2024-05-11T13:17:23Z</time>
</trkpt>
<trkpt lat="49.759815176948905" lon="9.51664539054036">
<ele>129</ele>
<time>2024-05-11T13:17:24Z</time>
</trkpt>
<trkpt lat="49.759815176948905" lon="9.516643462702632">
<ele>129</ele>
<time>2024-05-11T13:17:25Z</time>
</trkpt>
<trkpt lat="49.75981894880533" lon="9.51664631254971">
<ele>129</ele>
<time>2024-05-11T13:17:26Z</time>
</trkpt>
<trkpt lat="49.75981894880533" lon="9.51664539054036">
<ele>129</ele>
<time>2024-05-11T13:17:27Z</time>
</trkpt>
<trkpt lat="49.759815176948905" lon="9.51664539054036">
<ele>129</ele>
<time>2024-05-11T13:17:28Z</time>
</trkpt>
<trkpt lat="49.759815176948905" lon="9.51664631254971">
<ele>129</ele>
<time>2024-05-11T13:17:29Z</time>
</trkpt>
<trkpt lat="49.759815176948905" lon="9.51664824038744">
<ele>129</ele>
<time>2024-05-11T13:17:30Z</time>
</trkpt>
<trkpt lat="49.75981894880533" lon="9.51665016822517">
<ele>129</ele>
<time>2024-05-11T13:17:31Z</time>
</trkpt>
<trkpt lat="49.759815176948905" lon="9.51664824038744">
<ele>129</ele>
<time>2024-05-11T13:17:32Z</time>
</trkpt>
<trkpt lat="49.75981894880533" lon="9.51664824038744">
<ele>129</ele>
<time>2024-05-11T13:17:33Z</time>
</trkpt>
<trkpt lat="49.759815176948905" lon="9.51665016822517">
<ele>129</ele>
<time>2024-05-11T13:17:34Z</time>
</trkpt>
<trkpt lat="49.759815176948905" lon="9.516653018072248">
<ele>129</ele>
<time>2024-05-11T13:17:35Z</time>
</trkpt>
<trkpt lat="49.75981894880533" lon="9.516653018072248">
<ele>129</ele>
<time>2024-05-11T13:17:36Z</time>
</trkpt>
<trkpt lat="49.75981894880533" lon="9.516654945909975">
<ele>129</ele>
<time>2024-05-11T13:17:37Z</time>
</trkpt>
<trkpt lat="49.75981894880533" lon="9.516656873747706">
<ele>129</ele>
<time>2024-05-11T13:17:39Z</time>
</trkpt>
<trkpt lat="49.75982280448079" lon="9.516658717766404">
<ele>129</ele>
<time>2024-05-11T13:17:40Z</time>
</trkpt>
<trkpt lat="49.75982280448079" lon="9.516659723594785">
<ele>129</ele>
<time>2024-05-11T13:17:41Z</time>
</trkpt>
<trkpt lat="49.75982666015625" lon="9.516659723594785">
<ele>129</ele>
<time>2024-05-11T13:17:42Z</time>
</trkpt>
<trkpt lat="49.75982666015625" lon="9.516658717766404">
<ele>129</ele>
<time>2024-05-11T13:17:43Z</time>
</trkpt>
<trkpt lat="49.75982666015625" lon="9.516656873747706">
<ele>129</ele>
<time>2024-05-11T13:17:44Z</time>
</trkpt>
<trkpt lat="49.75982666015625" lon="9.516658717766404">
<ele>129</ele>
<time>2024-05-11T13:17:45Z</time>
</trkpt>
<trkpt lat="49.75982666015625" lon="9.516656873747706">
<ele>129</ele>
<time>2024-05-11T13:17:46Z</time>
</trkpt>
<trkpt lat="49.75982666015625" lon="9.516654945909975">
<ele>129</ele>
<time>2024-05-11T13:17:47Z</time>
</trkpt>
<trkpt lat="49.75982666015625" lon="9.516653018072248">
<ele>129</ele>
<time>2024-05-11T13:17:48Z</time>
</trkpt>
<trkpt lat="49.75982666015625" lon="9.5166520960629">
<ele>129</ele>
<time>2024-05-11T13:17:49Z</time>
</trkpt>
<trkpt lat="49.75982666015625" lon="9.516653018072248">
<ele>129</ele>
<time>2024-05-11T13:17:50Z</time>
</trkpt>
<trkpt lat="49.75982666015625" lon="9.51665016822517">
<ele>129</ele>
<time>2024-05-11T13:17:51Z</time>
</trkpt>
<trkpt lat="49.75982666015625" lon="9.51664824038744">
<ele>129</ele>
<time>2024-05-11T13:17:52Z</time>
</trkpt>
<trkpt lat="49.75982666015625" lon="9.51664631254971">
<ele>129</ele>
<time>2024-05-11T13:17:53Z</time>
</trkpt>
<trkpt lat="49.75982666015625" lon="9.51664824038744">
<ele>129</ele>
<time>2024-05-11T13:17:55Z</time>
</trkpt>
<trkpt lat="49.75982666015625" lon="9.51664631254971">
<ele>129</ele>
<time>2024-05-11T13:17:57Z</time>
</trkpt>
<trkpt lat="49.75983043201268" lon="9.51664539054036">
<ele>129</ele>
<time>2024-05-11T13:17:58Z</time>
</trkpt>
<trkpt lat="49.75983043201268" lon="9.51664631254971">
<ele>129</ele>
<time>2024-05-11T13:17:59Z</time>
</trkpt>
<trkpt lat="49.75983043201268" lon="9.51665016822517">
<ele>129</ele>
<time>2024-05-11T13:18:00Z</time>
</trkpt>
<trkpt lat="49.759834287688136" lon="9.516654945909975">
<ele>129</ele>
<time>2024-05-11T13:18:01Z</time>
</trkpt>
<trkpt lat="49.759834287688136" lon="9.516653018072248">
<ele>129</ele>
<time>2024-05-11T13:18:02Z</time>
</trkpt>
<trkpt lat="49.759834287688136" lon="9.516654945909975">
<ele>129</ele>
<time>2024-05-11T13:18:06Z</time>
</trkpt>
<trkpt lat="49.75983805954456" lon="9.516656873747706">
<ele>129</ele>
<time>2024-05-11T13:18:11Z</time>
</trkpt>
<trkpt lat="49.75983805954456" lon="9.516658717766404">
<ele>129</ele>
<time>2024-05-11T13:18:12Z</time>
</trkpt>
<trkpt lat="49.75983805954456" lon="9.516659723594785">
<ele>129</ele>
<time>2024-05-11T13:18:13Z</time>
</trkpt>
<trkpt lat="49.75983805954456" lon="9.516661567613482">
<ele>129</ele>
<time>2024-05-11T13:18:14Z</time>
</trkpt>
<trkpt lat="49.75983805954456" lon="9.516663495451212">
<ele>129</ele>
<time>2024-05-11T13:18:16Z</time>
</trkpt>
<trkpt lat="49.75983805954456" lon="9.516664501279593">
<ele>129</ele>
<time>2024-05-11T13:18:18Z</time>
</trkpt>
<trkpt lat="49.75983805954456" lon="9.516663495451212">
<ele>129</ele>
<time>2024-05-11T13:18:19Z</time>
</trkpt>
<trkpt lat="49.75983805954456" lon="9.51666634529829">
<ele>129</ele>
<time>2024-05-11T13:18:20Z</time>
</trkpt>
<trkpt lat="49.75983805954456" lon="9.51667020097375">
<ele>129</ele>
<time>2024-05-11T13:18:21Z</time>
</trkpt>
<trkpt lat="49.75983805954456" lon="9.51667212881148">
<ele>129</ele>
<time>2024-05-11T13:18:22Z</time>
</trkpt>
<trkpt lat="49.75983805954456" lon="9.51666827313602">
<ele>129</ele>
<time>2024-05-11T13:18:23Z</time>
</trkpt>
<trkpt lat="49.75984191522002" lon="9.51667020097375">
<ele>129</ele>
<time>2024-05-11T13:18:24Z</time>
</trkpt>
<trkpt lat="49.75984191522002" lon="9.51667212881148">
<ele>129</ele>
<time>2024-05-11T13:18:25Z</time>
</trkpt>
<trkpt lat="49.75984191522002" lon="9.516673050820827">
<ele>129</ele>
<time>2024-05-11T13:18:27Z</time>
</trkpt>
<trkpt lat="49.75984191522002" lon="9.516674978658555">
<ele>129</ele>
<time>2024-05-11T13:18:28Z</time>
</trkpt>
<trkpt lat="49.75984191522002" lon="9.516673050820827">
<ele>129</ele>
<time>2024-05-11T13:18:30Z</time>
</trkpt>
<trkpt lat="49.75984191522002" lon="9.51667212881148">
<ele>129</ele>
<time>2024-05-11T13:18:33Z</time>
</trkpt>
<trkpt lat="49.75983805954456" lon="9.51667020097375">
<ele>129</ele>
<time>2024-05-11T13:18:34Z</time>
</trkpt>
<trkpt lat="49.759834287688136" lon="9.51667212881148">
<ele>129</ele>
<time>2024-05-11T13:18:36Z</time>
</trkpt>
<trkpt lat="49.759834287688136" lon="9.516673050820827">
<ele>129</ele>
<time>2024-05-11T13:18:38Z</time>
</trkpt>
<trkpt lat="49.759834287688136" lon="9.516677828505635">
<ele>129</ele>
<time>2024-05-11T13:18:39Z</time>
</trkpt>
<trkpt lat="49.75983805954456" lon="9.51668637804687">
<ele>129</ele>
<time>2024-05-11T13:18:40Z</time>
</trkpt>
<trkpt lat="49.75983805954456" lon="9.516691155731678">
<ele>129</ele>
<time>2024-05-11T13:18:41Z</time>
</trkpt>
<trkpt lat="49.75983805954456" lon="9.516693083569407">
<ele>129</ele>
<time>2024-05-11T13:18:42Z</time>
</trkpt>
<trkpt lat="49.75983805954456" lon="9.51669023372233">
<ele>129</ele>
<time>2024-05-11T13:18:43Z</time>
</trkpt>
<trkpt lat="49.75983805954456" lon="9.5166883058846">
<ele>129</ele>
<time>2024-05-11T13:18:44Z</time>
</trkpt>
<trkpt lat="49.759834287688136" lon="9.51668637804687">
<ele>129</ele>
<time>2024-05-11T13:18:45Z</time>
</trkpt>
<trkpt lat="49.75983043201268" lon="9.516683528199792">
<ele>129</ele>
<time>2024-05-11T13:18:46Z</time>
</trkpt>
<trkpt lat="49.75983043201268" lon="9.51668545603752">
<ele>129</ele>
<time>2024-05-11T13:18:47Z</time>
</trkpt>
<trkpt lat="49.75982666015625" lon="9.516679756343365">
<ele>129</ele>
<time>2024-05-11T13:18:48Z</time>
</trkpt>
<trkpt lat="49.75983043201268" lon="9.516677828505635">
<ele>129</ele>
<time>2024-05-11T13:18:49Z</time>
</trkpt>
<trkpt lat="49.75983043201268" lon="9.516679756343365">
<ele>129</ele>
<time>2024-05-11T13:18:51Z</time>
</trkpt>
<trkpt lat="49.759834287688136" lon="9.516681600362062">
<ele>129</ele>
<time>2024-05-11T13:18:52Z</time>
</trkpt>
<trkpt lat="49.75983805954456" lon="9.51668545603752">
<ele>129</ele>
<time>2024-05-11T13:18:53Z</time>
</trkpt>
<trkpt lat="49.75984191522002" lon="9.51668637804687">
<ele>129</ele>
<time>2024-05-11T13:18:56Z</time>
</trkpt>
<trkpt lat="49.75984191522002" lon="9.51668545603752">
<ele>129</ele>
<time>2024-05-11T13:18:58Z</time>
</trkpt>
<trkpt lat="49.75984191522002" lon="9.5166883058846">
<ele>129</ele>
<time>2024-05-11T13:19:00Z</time>
</trkpt>
<trkpt lat="49.75984568707645" lon="9.51668637804687">
<ele>129</ele>
<time>2024-05-11T13:19:02Z</time>
</trkpt>
<trkpt lat="49.75984954275191" lon="9.51668637804687">
<ele>129</ele>
<time>2024-05-11T13:19:05Z</time>
</trkpt>
<trkpt lat="49.75984954275191" lon="9.516683528199792">
<ele>129</ele>
<time>2024-05-11T13:19:06Z</time>
</trkpt>
<trkpt lat="49.75984954275191" lon="9.51668637804687">
<ele>129</ele>
<time>2024-05-11T13:19:09Z</time>
</trkpt>
<trkpt lat="49.759853314608335" lon="9.51669023372233">
<ele>129</ele>
<time>2024-05-11T13:19:10Z</time>
</trkpt>
<trkpt lat="49.759853314608335" lon="9.516693083569407">
<ele>129</ele>
<time>2024-05-11T13:19:11Z</time>
</trkpt>
<trkpt lat="49.759853314608335" lon="9.516691155731678">
<ele>129</ele>
<time>2024-05-11T13:19:14Z</time>
</trkpt>
<trkpt lat="49.759853314608335" lon="9.516693083569407">
<ele>129</ele>
<time>2024-05-11T13:19:16Z</time>
</trkpt>
<trkpt lat="49.759853314608335" lon="9.51669023372233">
<ele>129</ele>
<time>2024-05-11T13:19:17Z</time>
</trkpt>
<trkpt lat="49.759853314608335" lon="9.516693083569407">
<ele>129</ele>
<time>2024-05-11T13:19:20Z</time>
</trkpt>
<trkpt lat="49.759853314608335" lon="9.516695011407135">
<ele>129</ele>
<time>2024-05-11T13:19:21Z</time>
</trkpt>
<trkpt lat="49.759853314608335" lon="9.516696855425836">
<ele>129</ele>
<time>2024-05-11T13:19:22Z</time>
</trkpt>
<trkpt lat="49.759853314608335" lon="9.516698783263564">
<ele>129</ele>
<time>2024-05-11T13:19:23Z</time>
</trkpt>
<trkpt lat="49.759853314608335" lon="9.516701633110642">
<ele>129</ele>
<time>2024-05-11T13:19:24Z</time>
</trkpt>
<trkpt lat="49.759857170283794" lon="9.516703560948372">
<ele>129</ele>
<time>2024-05-11T13:19:26Z</time>
</trkpt>
<trkpt lat="49.759857170283794" lon="9.51670641079545">
<ele>129</ele>
<time>2024-05-11T13:19:27Z</time>
</trkpt>
<trkpt lat="49.759857170283794" lon="9.51671026647091">
<ele>129</ele>
<time>2024-05-11T13:19:29Z</time>
</trkpt>
<trkpt lat="49.75986094214022" lon="9.51670833863318">
<ele>129</ele>
<time>2024-05-11T13:19:30Z</time>
</trkpt>
<trkpt lat="49.75986094214022" lon="9.51671026647091">
<ele>129</ele>
<time>2024-05-11T13:19:31Z</time>
</trkpt>
<trkpt lat="49.75986094214022" lon="9.51670833863318">
<ele>129</ele>
<time>2024-05-11T13:19:36Z</time>
</trkpt>
<trkpt lat="49.75986479781568" lon="9.51670833863318">
<ele>129</ele>
<time>2024-05-11T13:19:38Z</time>
</trkpt>
<trkpt lat="49.75986094214022" lon="9.51670641079545">
<ele>129</ele>
<time>2024-05-11T13:19:39Z</time>
</trkpt>
<trkpt lat="49.75986479781568" lon="9.51670833863318">
<ele>129</ele>
<time>2024-05-11T13:19:40Z</time>
</trkpt>
<trkpt lat="49.75986479781568" lon="9.51671026647091">
<ele>129</ele>
<time>2024-05-11T13:19:41Z</time>
</trkpt>
<trkpt lat="49.75986479781568" lon="9.516716888174416">
<ele>129</ele>
<time>2024-05-11T13:19:42Z</time>
</trkpt>
<trkpt lat="49.75986856967211" lon="9.516723593696952">
<ele>129</ele>
<time>2024-05-11T13:19:43Z</time>
</trkpt>
<trkpt lat="49.75986856967211" lon="9.5167245157063">
<ele>129</ele>
<time>2024-05-11T13:19:44Z</time>
</trkpt>
<trkpt lat="49.75986856967211" lon="9.51672644354403">
<ele>129</ele>
<time>2024-05-11T13:19:45Z</time>
</trkpt>
<trkpt lat="49.75986479781568" lon="9.51672644354403">
<ele>129</ele>
<time>2024-05-11T13:19:49Z</time>
</trkpt>
<trkpt lat="49.75986856967211" lon="9.51672644354403">
<ele>129</ele>
<time>2024-05-11T13:19:51Z</time>
</trkpt>
<trkpt lat="49.75986856967211" lon="9.5167245157063">
<ele>129</ele>
<time>2024-05-11T13:19:52Z</time>
</trkpt>
<trkpt lat="49.75986856967211" lon="9.51672644354403">
<ele>129</ele>
<time>2024-05-11T13:19:55Z</time>
</trkpt>
<trkpt lat="49.75986856967211" lon="9.51672837138176">
<ele>129</ele>
<time>2024-05-11T13:19:58Z</time>
</trkpt>
<trkpt lat="49.75986856967211" lon="9.516730299219487">
<ele>129</ele>
<time>2024-05-11T13:19:59Z</time>
</trkpt>
<trkpt lat="49.75986856967211" lon="9.516731221228838">
<ele>129</ele>
<time>2024-05-11T13:20:01Z</time>
</trkpt>
<trkpt lat="49.75986856967211" lon="9.516730299219487">
<ele>129</ele>
<time>2024-05-11T13:20:04Z</time>
</trkpt>
<trkpt lat="49.75986856967211" lon="9.51672837138176">
<ele>129</ele>
<time>2024-05-11T13:20:09Z</time>
</trkpt>
<trkpt lat="49.75986856967211" lon="9.516730299219487">
<ele>129</ele>
<time>2024-05-11T13:20:10Z</time>
</trkpt>
<trkpt lat="49.75986479781568" lon="9.516730299219487">
<ele>129</ele>
<time>2024-05-11T13:20:11Z</time>
</trkpt>
<trkpt lat="49.75986479781568" lon="9.51672644354403">
<ele>129</ele>
<time>2024-05-11T13:20:13Z</time>
</trkpt>
<trkpt lat="49.75986856967211" lon="9.51672644354403">
<ele>129</ele>
<time>2024-05-11T13:20:14Z</time>
</trkpt>
<trkpt lat="49.75987242534757" lon="9.5167245157063">
<ele>129</ele>
<time>2024-05-11T13:20:15Z</time>
</trkpt>
<trkpt lat="49.75988005287945" lon="9.516716888174416">
<ele>129</ele>
<time>2024-05-11T13:20:16Z</time>
</trkpt>
<trkpt lat="49.75988768041134" lon="9.51670448295772">
<ele>129</ele>
<time>2024-05-11T13:20:17Z</time>
</trkpt>
<trkpt lat="49.759895307943225" lon="9.516703560948372">
<ele>129</ele>
<time>2024-05-11T13:20:18Z</time>
</trkpt>
<trkpt lat="49.75990670733154" lon="9.51670641079545">
<ele>129</ele>
<time>2024-05-11T13:20:19Z</time>
</trkpt>
<trkpt lat="49.75990670733154" lon="9.516701633110642">
<ele>129</ele>
<time>2024-05-11T13:20:20Z</time>
</trkpt>
<trkpt lat="49.759914334863424" lon="9.51670641079545">
<ele>129</ele>
<time>2024-05-11T13:20:21Z</time>
</trkpt>
<trkpt lat="49.75990670733154" lon="9.51670641079545">
<ele>129</ele>
<time>2024-05-11T13:20:22Z</time>
</trkpt>
<trkpt lat="49.75990293547511" lon="9.516699789091945">
<ele>129</ele>
<time>2024-05-11T13:20:23Z</time>
</trkpt>
<trkpt lat="49.75989907979965" lon="9.51668637804687">
<ele>129</ele>
<time>2024-05-11T13:20:24Z</time>
</trkpt>
<trkpt lat="49.75989907979965" lon="9.516677828505635">
<ele>129</ele>
<time>2024-05-11T13:20:25Z</time>
</trkpt>
<trkpt lat="49.75989907979965" lon="9.51666634529829">
<ele>129</ele>
<time>2024-05-11T13:20:26Z</time>
</trkpt>
<trkpt lat="49.75990293547511" lon="9.516663495451212">
<ele>129</ele>
<time>2024-05-11T13:20:27Z</time>
</trkpt>
<trkpt lat="49.75990670733154" lon="9.516663495451212">
<ele>129</ele>
<time>2024-05-11T13:20:28Z</time>
</trkpt>
<trkpt lat="49.75991819053888" lon="9.516663495451212">
<ele>129</ele>
<time>2024-05-11T13:20:29Z</time>
</trkpt>
<trkpt lat="49.75992581807077" lon="9.51666827313602">
<ele>129</ele>
<time>2024-05-11T13:20:30Z</time>
</trkpt>
<trkpt lat="49.759933445602655" lon="9.516664501279593">
<ele>129</ele>
<time>2024-05-11T13:20:31Z</time>
</trkpt>
<trkpt lat="49.75993721745908" lon="9.516654945909975">
<ele>129</ele>
<time>2024-05-11T13:20:32Z</time>
</trkpt>
<trkpt lat="49.75994484499097" lon="9.516663495451212">
<ele>129</ele>
<time>2024-05-11T13:20:33Z</time>
</trkpt>
<trkpt lat="49.75993721745908" lon="9.516653018072248">
<ele>129</ele>
<time>2024-05-11T13:20:34Z</time>
</trkpt>
<trkpt lat="49.759933445602655" lon="9.516654945909975">
<ele>129</ele>
<time>2024-05-11T13:20:35Z</time>
</trkpt>
<trkpt lat="49.75993721745908" lon="9.516656873747706">
<ele>129</ele>
<time>2024-05-11T13:20:36Z</time>
</trkpt>
<trkpt lat="49.75993721745908" lon="9.516658717766404">
<ele>129</ele>
<time>2024-05-11T13:20:37Z</time>
</trkpt>
<trkpt lat="49.75994484499097" lon="9.51665016822517">
<ele>129</ele>
<time>2024-05-11T13:20:38Z</time>
</trkpt>
<trkpt lat="49.759952472522855" lon="9.516641534864902">
<ele>129</ele>
<time>2024-05-11T13:20:39Z</time>
</trkpt>
<trkpt lat="49.75996010005474" lon="9.516632985323668">
<ele>129</ele>
<time>2024-05-11T13:20:40Z</time>
</trkpt>
<trkpt lat="49.759971583262086" lon="9.516632985323668">
<ele>129</ele>
<time>2024-05-11T13:20:41Z</time>
</trkpt>
<trkpt lat="49.75997921079397" lon="9.516632985323668">
<ele>129</ele>
<time>2024-05-11T13:20:42Z</time>
</trkpt>
<trkpt lat="49.75997921079397" lon="9.516636840999126">
<ele>129</ele>
<time>2024-05-11T13:20:43Z</time>
</trkpt>
<trkpt lat="49.75997535511851" lon="9.51664824038744">
<ele>129</ele>
<time>2024-05-11T13:20:44Z</time>
</trkpt>
<trkpt lat="49.759990610182285" lon="9.516664501279593">
<ele>129</ele>
<time>2024-05-11T13:20:45Z</time>
</trkpt>
<trkpt lat="49.76000594906509" lon="9.516676822677256">
<ele>129</ele>
<time>2024-05-11T13:20:46Z</time>
</trkpt>
<trkpt lat="49.76002497598529" lon="9.51669023372233">
<ele>129</ele>
<time>2024-05-11T13:20:47Z</time>
</trkpt>
<trkpt lat="49.760036459192634" lon="9.516716888174416">
<ele>129</ele>
<time>2024-05-11T13:20:48Z</time>
</trkpt>
<trkpt lat="49.76005934178829" lon="9.516721665859222">
<ele>129</ele>
<time>2024-05-11T13:20:49Z</time>
</trkpt>
<trkpt lat="49.76006311364472" lon="9.51668637804687">
<ele>129</ele>
<time>2024-05-11T13:20:50Z</time>
</trkpt>
<trkpt lat="49.76006311364472" lon="9.51668545603752">
<ele>129</ele>
<time>2024-05-11T13:20:51Z</time>
</trkpt>
<trkpt lat="49.76005934178829" lon="9.516683528199792">
<ele>129</ele>
<time>2024-05-11T13:20:52Z</time>
</trkpt>
<trkpt lat="49.76005548611283" lon="9.51667212881148">
<ele>129</ele>
<time>2024-05-11T13:20:53Z</time>
</trkpt>
<trkpt lat="49.760051714256406" lon="9.516661567613482">
<ele>129</ele>
<time>2024-05-11T13:20:54Z</time>
</trkpt>
<trkpt lat="49.76004785858095" lon="9.516661567613482">
<ele>129</ele>
<time>2024-05-11T13:20:55Z</time>
</trkpt>
<trkpt lat="49.76004785858095" lon="9.516654945909975">
<ele>129</ele>
<time>2024-05-11T13:20:58Z</time>
</trkpt>
<trkpt lat="49.76004408672452" lon="9.516653018072248">
<ele>129</ele>
<time>2024-05-11T13:20:59Z</time>
</trkpt>
<trkpt lat="49.76004023104906" lon="9.5166520960629">
<ele>129</ele>
<time>2024-05-11T13:21:00Z</time>
</trkpt>
<trkpt lat="49.76004023104906" lon="9.51665016822517">
<ele>129</ele>
<time>2024-05-11T13:21:01Z</time>
</trkpt>
<trkpt lat="49.76004023104906" lon="9.5166520960629">
<ele>129</ele>
<time>2024-05-11T13:21:02Z</time>
</trkpt>
<trkpt lat="49.760036459192634" lon="9.5166520960629">
<ele>129</ele>
<time>2024-05-11T13:21:03Z</time>
</trkpt>
<trkpt lat="49.760036459192634" lon="9.516653018072248">
<ele>129</ele>
<time>2024-05-11T13:21:04Z</time>
</trkpt>
<trkpt lat="49.760032603517175" lon="9.516653018072248">
<ele>129</ele>
<time>2024-05-11T13:21:07Z</time>
</trkpt>
<trkpt lat="49.760032603517175" lon="9.516654945909975">
<ele>129</ele>
<time>2024-05-11T13:21:10Z</time>
</trkpt>
<trkpt lat="49.760032603517175" lon="9.5166520960629">
<ele>129</ele>
<time>2024-05-11T13:21:11Z</time>
</trkpt>
<trkpt lat="49.760032603517175" lon="9.51664824038744">
<ele>129</ele>
<time>2024-05-11T13:21:12Z</time>
</trkpt>
<trkpt lat="49.760036459192634" lon="9.5166520960629">
<ele>129</ele>
<time>2024-05-11T13:21:13Z</time>
</trkpt>
<trkpt lat="49.760032603517175" lon="9.516653018072248">
<ele>129</ele>
<time>2024-05-11T13:21:14Z</time>
</trkpt>
<trkpt lat="49.760032603517175" lon="9.516656873747706">
<ele>129</ele>
<time>2024-05-11T13:21:15Z</time>
</trkpt>
<trkpt lat="49.760032603517175" lon="9.516654945909975">
<ele>129</ele>
<time>2024-05-11T13:21:16Z</time>
</trkpt>
<trkpt lat="49.760032603517175" lon="9.51664824038744">
<ele>129</ele>
<time>2024-05-11T13:21:17Z</time>
</trkpt>
<trkpt lat="49.76002883166075" lon="9.51664631254971">
<ele>129</ele>
<time>2024-05-11T13:21:18Z</time>
</trkpt>
<trkpt lat="49.76002883166075" lon="9.51664824038744">
<ele>129</ele>
<time>2024-05-11T13:21:19Z</time>
</trkpt>
<trkpt lat="49.76002883166075" lon="9.51664631254971">
<ele>129</ele>
<time>2024-05-11T13:21:20Z</time>
</trkpt>
<trkpt lat="49.76002883166075" lon="9.51665016822517">
<ele>129</ele>
<time>2024-05-11T13:21:23Z</time>
</trkpt>
<trkpt lat="49.76002497598529" lon="9.51664824038744">
<ele>129</ele>
<time>2024-05-11T13:21:24Z</time>
</trkpt>
<trkpt lat="49.76002497598529" lon="9.51665016822517">
<ele>129</ele>
<time>2024-05-11T13:21:25Z</time>
</trkpt>
<trkpt lat="49.76002120412886" lon="9.51665016822517">
<ele>129</ele>
<time>2024-05-11T13:21:27Z</time>
</trkpt>
<trkpt lat="49.7600173484534" lon="9.51665016822517">
<ele>129</ele>
<time>2024-05-11T13:21:29Z</time>
</trkpt>
<trkpt lat="49.7600173484534" lon="9.5166520960629">
<ele>129</ele>
<time>2024-05-11T13:21:30Z</time>
</trkpt>
<trkpt lat="49.7600173484534" lon="9.516656873747706">
<ele>129</ele>
<time>2024-05-11T13:21:31Z</time>
</trkpt>
<trkpt lat="49.7600173484534" lon="9.516659723594785">
<ele>129</ele>
<time>2024-05-11T13:21:32Z</time>
</trkpt>
<trkpt lat="49.760013576596975" lon="9.516663495451212">
<ele>129</ele>
<time>2024-05-11T13:21:33Z</time>
</trkpt>
<trkpt lat="49.76000972092152" lon="9.51666827313602">
<ele>129</ele>
<time>2024-05-11T13:21:35Z</time>
</trkpt>
<trkpt lat="49.76000594906509" lon="9.516676822677256">
<ele>129</ele>
<time>2024-05-11T13:21:37Z</time>
</trkpt>
<trkpt lat="49.76000209338963" lon="9.51668637804687">
<ele>129</ele>
<time>2024-05-11T13:21:38Z</time>
</trkpt>
<trkpt lat="49.7599983215332" lon="9.51668545603752">
<ele>129</ele>
<time>2024-05-11T13:21:39Z</time>
</trkpt>
<trkpt lat="49.7599983215332" lon="9.516683528199792">
<ele>129</ele>
<time>2024-05-11T13:21:40Z</time>
</trkpt>
<trkpt lat="49.7599983215332" lon="9.5166883058846">
<ele>129</ele>
<time>2024-05-11T13:21:41Z</time>
</trkpt>
<trkpt lat="49.76000209338963" lon="9.516698783263564">
<ele>129</ele>
<time>2024-05-11T13:21:44Z</time>
</trkpt>
<trkpt lat="49.76000209338963" lon="9.51670641079545">
<ele>129</ele>
<time>2024-05-11T13:21:46Z</time>
</trkpt>
<trkpt lat="49.76000209338963" lon="9.516711188480258">
<ele>129</ele>
<time>2024-05-11T13:21:48Z</time>
</trkpt>
<trkpt lat="49.7599983215332" lon="9.51671026647091">
<ele>129</ele>
<time>2024-05-11T13:21:49Z</time>
</trkpt>
<trkpt lat="49.7599983215332" lon="9.51670833863318">
<ele>129</ele>
<time>2024-05-11T13:21:51Z</time>
</trkpt>
<trkpt lat="49.759994465857744" lon="9.51670448295772">
<ele>129</ele>
<time>2024-05-11T13:21:52Z</time>
</trkpt>
<trkpt lat="49.75998683832586" lon="9.51670448295772">
<ele>129</ele>
<time>2024-05-11T13:21:53Z</time>
</trkpt>
<trkpt lat="49.75998683832586" lon="9.516703560948372">
<ele>129</ele>
<time>2024-05-11T13:21:54Z</time>
</trkpt>
<trkpt lat="49.7599829826504" lon="9.51670448295772">
<ele>129</ele>
<time>2024-05-11T13:21:55Z</time>
</trkpt>
<trkpt lat="49.75997921079397" lon="9.51670833863318">
<ele>129</ele>
<time>2024-05-11T13:21:56Z</time>
</trkpt>
<trkpt lat="49.75997535511851" lon="9.51670833863318">
<ele>129</ele>
<time>2024-05-11T13:21:58Z</time>
</trkpt>
<trkpt lat="49.75997535511851" lon="9.516713116317987">
<ele>129</ele>
<time>2024-05-11T13:21:59Z</time>
</trkpt>
<trkpt lat="49.75997535511851" lon="9.516716888174416">
<ele>129</ele>
<time>2024-05-11T13:22:00Z</time>
</trkpt>
<trkpt lat="49.759971583262086" lon="9.516716888174416">
<ele>129</ele>
<time>2024-05-11T13:22:01Z</time>
</trkpt>
<trkpt lat="49.759971583262086" lon="9.516713116317987">
<ele>129</ele>
<time>2024-05-11T13:22:03Z</time>
</trkpt>
<trkpt lat="49.75996772758663" lon="9.516715044155715">
<ele>129</ele>
<time>2024-05-11T13:22:04Z</time>
</trkpt>
<trkpt lat="49.75996772758663" lon="9.516716888174416">
<ele>129</ele>
<time>2024-05-11T13:22:05Z</time>
</trkpt>
<trkpt lat="49.75996772758663" lon="9.516719738021491">
<ele>129</ele>
<time>2024-05-11T13:22:06Z</time>
</trkpt>
<trkpt lat="49.75996772758663" lon="9.516717894002795">
<ele>129</ele>
<time>2024-05-11T13:22:07Z</time>
</trkpt>
<trkpt lat="49.7599639557302" lon="9.516717894002795">
<ele>129</ele>
<time>2024-05-11T13:22:08Z</time>
</trkpt>
<trkpt lat="49.7599639557302" lon="9.516716888174416">
<ele>129</ele>
<time>2024-05-11T13:22:09Z</time>
</trkpt>
<trkpt lat="49.75996010005474" lon="9.516713116317987">
<ele>129</ele>
<time>2024-05-11T13:22:10Z</time>
</trkpt>
<trkpt lat="49.75996010005474" lon="9.516715044155715">
<ele>129</ele>
<time>2024-05-11T13:22:11Z</time>
</trkpt>
<trkpt lat="49.759956328198314" lon="9.516711188480258">
<ele>129</ele>
<time>2024-05-11T13:22:17Z</time>
</trkpt>
<trkpt lat="49.759952472522855" lon="9.51670833863318">
<ele>129</ele>
<time>2024-05-11T13:22:18Z</time>
</trkpt>
<trkpt lat="49.759952472522855" lon="9.51670641079545">
<ele>129</ele>
<time>2024-05-11T13:22:19Z</time>
</trkpt>
<trkpt lat="49.75994870066643" lon="9.51670448295772">
<ele>129</ele>
<time>2024-05-11T13:22:22Z</time>
</trkpt>
<trkpt lat="49.75994484499097" lon="9.516701633110642">
<ele>129</ele>
<time>2024-05-11T13:22:24Z</time>
</trkpt>
<trkpt lat="49.75994107313454" lon="9.516696855425836">
<ele>129</ele>
<time>2024-05-11T13:22:25Z</time>
</trkpt>
<trkpt lat="49.75994107313454" lon="9.516698783263564">
<ele>129</ele>
<time>2024-05-11T13:22:26Z</time>
</trkpt>
<trkpt lat="49.75994107313454" lon="9.516699789091945">
<ele>129</ele>
<time>2024-05-11T13:22:27Z</time>
</trkpt>
<trkpt lat="49.75994107313454" lon="9.516698783263564">
<ele>129</ele>
<time>2024-05-11T13:22:28Z</time>
</trkpt>
<trkpt lat="49.75993721745908" lon="9.516696855425836">
<ele>129</ele>
<time>2024-05-11T13:22:30Z</time>
</trkpt>
<trkpt lat="49.75993721745908" lon="9.516693083569407">
<ele>129</ele>
<time>2024-05-11T13:22:31Z</time>
</trkpt>
<trkpt lat="49.75993721745908" lon="9.516695011407135">
<ele>129</ele>
<time>2024-05-11T13:22:32Z</time>
</trkpt>
<trkpt lat="49.75993721745908" lon="9.516696855425836">
<ele>129</ele>
<time>2024-05-11T13:22:33Z</time>
</trkpt>
<trkpt lat="49.75993721745908" lon="9.516699789091945">
<ele>129</ele>
<time>2024-05-11T13:22:34Z</time>
</trkpt>
<trkpt lat="49.75993721745908" lon="9.516698783263564">
<ele>129</ele>
<time>2024-05-11T13:22:36Z</time>
</trkpt>
<trkpt lat="49.75993721745908" lon="9.516696855425836">
<ele>129</ele>
<time>2024-05-11T13:22:37Z</time>
</trkpt>
<trkpt lat="49.75993721745908" lon="9.516701633110642">
<ele>129</ele>
<time>2024-05-11T13:22:41Z</time>
</trkpt>
<trkpt lat="49.75993721745908" lon="9.516699789091945">
<ele>129</ele>
<time>2024-05-11T13:22:42Z</time>
</trkpt>
<trkpt lat="49.759933445602655" lon="9.516698783263564">
<ele>129</ele>
<time>2024-05-11T13:22:43Z</time>
</trkpt>
<trkpt lat="49.759933445602655" lon="9.516696855425836">
<ele>129</ele>
<time>2024-05-11T13:22:45Z</time>
</trkpt>
<trkpt lat="49.759933445602655" lon="9.516698783263564">
<ele>129</ele>
<time>2024-05-11T13:22:46Z</time>
</trkpt>
<trkpt lat="49.759933445602655" lon="9.516696855425836">
<ele>129</ele>
<time>2024-05-11T13:22:47Z</time>
</trkpt>
<trkpt lat="49.759933445602655" lon="9.516698783263564">
<ele>129</ele>
<time>2024-05-11T13:22:48Z</time>
</trkpt>
<trkpt lat="49.759933445602655" lon="9.516699789091945">
<ele>129</ele>
<time>2024-05-11T13:22:53Z</time>
</trkpt>
<trkpt lat="49.759933445602655" lon="9.516696855425836">
<ele>129</ele>
<time>2024-05-11T13:22:54Z</time>
</trkpt>
<trkpt lat="49.75993721745908" lon="9.516699789091945">
<ele>129</ele>
<time>2024-05-11T13:22:55Z</time>
</trkpt>
<trkpt lat="49.75993721745908" lon="9.516701633110642">
<ele>129</ele>
<time>2024-05-11T13:22:56Z</time>
</trkpt>
<trkpt lat="49.75993721745908" lon="9.516698783263564">
<ele>129</ele>
<time>2024-05-11T13:22:57Z</time>
</trkpt>
<trkpt lat="49.75994107313454" lon="9.516693083569407">
<ele>129</ele>
<time>2024-05-11T13:22:58Z</time>
</trkpt>
<trkpt lat="49.75994484499097" lon="9.516691155731678">
<ele>129</ele>
<time>2024-05-11T13:22:59Z</time>
</trkpt>
<trkpt lat="49.75994870066643" lon="9.516693083569407">
<ele>129</ele>
<time>2024-05-11T13:23:00Z</time>
</trkpt>
<trkpt lat="49.759956328198314" lon="9.516693083569407">
<ele>129</ele>
<time>2024-05-11T13:23:01Z</time>
</trkpt>
<trkpt lat="49.75996010005474" lon="9.516698783263564">
<ele>129</ele>
<time>2024-05-11T13:23:02Z</time>
</trkpt>
<trkpt lat="49.75996010005474" lon="9.516699789091945">
<ele>129</ele>
<time>2024-05-11T13:23:03Z</time>
</trkpt>
<trkpt lat="49.75996010005474" lon="9.516701633110642">
<ele>129</ele>
<time>2024-05-11T13:23:04Z</time>
</trkpt>
<trkpt lat="49.7599639557302" lon="9.516701633110642">
<ele>129</ele>
<time>2024-05-11T13:23:06Z</time>
</trkpt>
<trkpt lat="49.75996772758663" lon="9.51670641079545">
<ele>129</ele>
<time>2024-05-11T13:23:07Z</time>
</trkpt>
<trkpt lat="49.75997921079397" lon="9.51670448295772">
<ele>129</ele>
<time>2024-05-11T13:23:08Z</time>
</trkpt>
<trkpt lat="49.75998683832586" lon="9.51670641079545">
<ele>129</ele>
<time>2024-05-11T13:23:09Z</time>
</trkpt>
<trkpt lat="49.759990610182285" lon="9.51670641079545">
<ele>129</ele>
<time>2024-05-11T13:23:10Z</time>
</trkpt>
<trkpt lat="49.7599983215332" lon="9.51670448295772">
<ele>129</ele>
<time>2024-05-11T13:23:11Z</time>
</trkpt>
<trkpt lat="49.7599983215332" lon="9.51670641079545">
<ele>129</ele>
<time>2024-05-11T13:23:12Z</time>
</trkpt>
<trkpt lat="49.76000209338963" lon="9.51671026647091">
<ele>129</ele>
<time>2024-05-11T13:23:13Z</time>
</trkpt>
<trkpt lat="49.7599983215332" lon="9.516713116317987">
<ele>129</ele>
<time>2024-05-11T13:23:14Z</time>
</trkpt>
<trkpt lat="49.76000209338963" lon="9.516713116317987">
<ele>129</ele>
<time>2024-05-11T13:23:15Z</time>
</trkpt>
<trkpt lat="49.76000209338963" lon="9.516711188480258">
<ele>129</ele>
<time>2024-05-11T13:23:18Z</time>
</trkpt>
<trkpt lat="49.76000594906509" lon="9.51670833863318">
<ele>129</ele>
<time>2024-05-11T13:23:20Z</time>
</trkpt>
<trkpt lat="49.76000972092152" lon="9.516701633110642">
<ele>129</ele>
<time>2024-05-11T13:23:21Z</time>
</trkpt>
<trkpt lat="49.760013576596975" lon="9.516695011407135">
<ele>129</ele>
<time>2024-05-11T13:23:22Z</time>
</trkpt>
<trkpt lat="49.7600173484534" lon="9.51669023372233">
<ele>129</ele>
<time>2024-05-11T13:23:23Z</time>
</trkpt>
<trkpt lat="49.76002497598529" lon="9.51668545603752">
<ele>129</ele>
<time>2024-05-11T13:23:24Z</time>
</trkpt>
<trkpt lat="49.76002883166075" lon="9.516681600362062">
<ele>129</ele>
<time>2024-05-11T13:23:25Z</time>
</trkpt>
<trkpt lat="49.760032603517175" lon="9.516677828505635">
<ele>129</ele>
<time>2024-05-11T13:23:26Z</time>
</trkpt>
<trkpt lat="49.760036459192634" lon="9.516676822677256">
<ele>129</ele>
<time>2024-05-11T13:23:27Z</time>
</trkpt>
<trkpt lat="49.76004023104906" lon="9.516674978658555">
<ele>129</ele>
<time>2024-05-11T13:23:28Z</time>
</trkpt>
<trkpt lat="49.76004785858095" lon="9.51667212881148">
<ele>129</ele>
<time>2024-05-11T13:23:29Z</time>
</trkpt>
<trkpt lat="49.760051714256406" lon="9.51667020097375">
<ele>129</ele>
<time>2024-05-11T13:23:30Z</time>
</trkpt>
<trkpt lat="49.76005548611283" lon="9.51666634529829">
<ele>129</ele>
<time>2024-05-11T13:23:31Z</time>
</trkpt>
<trkpt lat="49.76005934178829" lon="9.516664501279593">
<ele>129</ele>
<time>2024-05-11T13:23:32Z</time>
</trkpt>
<trkpt lat="49.76006311364472" lon="9.516663495451212">
<ele>129</ele>
<time>2024-05-11T13:23:33Z</time>
</trkpt>
<trkpt lat="49.76006311364472" lon="9.516661567613482">
<ele>129</ele>
<time>2024-05-11T13:23:34Z</time>
</trkpt>
<trkpt lat="49.76006696932018" lon="9.516659723594785">
<ele>129</ele>
<time>2024-05-11T13:23:35Z</time>
</trkpt>
<trkpt lat="49.76006311364472" lon="9.516661567613482">
<ele>129</ele>
<time>2024-05-11T13:23:36Z</time>
</trkpt>
<trkpt lat="49.76006696932018" lon="9.516664501279593">
<ele>129</ele>
<time>2024-05-11T13:23:37Z</time>
</trkpt>
<trkpt lat="49.76006696932018" lon="9.51667020097375">
<ele>129</ele>
<time>2024-05-11T13:23:38Z</time>
</trkpt>
<trkpt lat="49.76006696932018" lon="9.516674978658555">
<ele>129</ele>
<time>2024-05-11T13:23:39Z</time>
</trkpt>
<trkpt lat="49.76006696932018" lon="9.516676822677256">
<ele>129</ele>
<time>2024-05-11T13:23:40Z</time>
</trkpt>
<trkpt lat="49.76006696932018" lon="9.516677828505635">
<ele>129</ele>
<time>2024-05-11T13:23:41Z</time>
</trkpt>
<trkpt lat="49.76006696932018" lon="9.516676822677256">
<ele>129</ele>
<time>2024-05-11T13:23:43Z</time>
</trkpt>
<trkpt lat="49.76006696932018" lon="9.516674978658555">
<ele>129</ele>
<time>2024-05-11T13:23:44Z</time>
</trkpt>
<trkpt lat="49.76006696932018" lon="9.516673050820827">
<ele>129</ele>
<time>2024-05-11T13:23:45Z</time>
</trkpt>
<trkpt lat="49.76006696932018" lon="9.516674978658555">
<ele>129</ele>
<time>2024-05-11T13:23:46Z</time>
</trkpt>
<trkpt lat="49.76006696932018" lon="9.516673050820827">
<ele>129</ele>
<time>2024-05-11T13:23:47Z</time>
</trkpt>
<trkpt lat="49.76006696932018" lon="9.51667212881148">
<ele>129</ele>
<time>2024-05-11T13:23:48Z</time>
</trkpt>
<trkpt lat="49.76006696932018" lon="9.51667020097375">
<ele>129</ele>
<time>2024-05-11T13:23:49Z</time>
</trkpt>
<trkpt lat="49.76006696932018" lon="9.51666634529829">
<ele>129</ele>
<time>2024-05-11T13:23:50Z</time>
</trkpt>
<trkpt lat="49.76006311364472" lon="9.516664501279593">
<ele>129</ele>
<time>2024-05-11T13:23:52Z</time>
</trkpt>
<trkpt lat="49.76006311364472" lon="9.516663495451212">
<ele>129</ele>
<time>2024-05-11T13:23:53Z</time>
</trkpt>
<trkpt lat="49.76006311364472" lon="9.516661567613482">
<ele>129</ele>
<time>2024-05-11T13:23:54Z</time>
</trkpt>
<trkpt lat="49.76006311364472" lon="9.516663495451212">
<ele>129</ele>
<time>2024-05-11T13:23:55Z</time>
</trkpt>
<trkpt lat="49.76006311364472" lon="9.516664501279593">
<ele>129</ele>
<time>2024-05-11T13:23:57Z</time>
</trkpt>
<trkpt lat="49.76006311364472" lon="9.516663495451212">
<ele>129</ele>
<time>2024-05-11T13:23:58Z</time>
</trkpt>
<trkpt lat="49.76006696932018" lon="9.516663495451212">
<ele>129</ele>
<time>2024-05-11T13:23:59Z</time>
</trkpt>
<trkpt lat="49.760070741176605" lon="9.51666634529829">
<ele>129</ele>
<time>2024-05-11T13:24:00Z</time>
</trkpt>
<trkpt lat="49.760074596852064" lon="9.516663495451212">
<ele>129</ele>
<time>2024-05-11T13:24:01Z</time>
</trkpt>
<trkpt lat="49.76007836870849" lon="9.516661567613482">
<ele>129</ele>
<time>2024-05-11T13:24:02Z</time>
</trkpt>
<trkpt lat="49.76008599624038" lon="9.516656873747706">
<ele>129</ele>
<time>2024-05-11T13:24:03Z</time>
</trkpt>
<trkpt lat="49.76009362377226" lon="9.516656873747706">
<ele>129</ele>
<time>2024-05-11T13:24:04Z</time>
</trkpt>
<trkpt lat="49.76010125130415" lon="9.516654945909975">
<ele>129</ele>
<time>2024-05-11T13:24:05Z</time>
</trkpt>
<trkpt lat="49.76010887883603" lon="9.516653018072248">
<ele>129</ele>
<time>2024-05-11T13:24:06Z</time>
</trkpt>
<trkpt lat="49.76011650636792" lon="9.516643462702632">
<ele>129</ele>
<time>2024-05-11T13:24:07Z</time>
</trkpt>
<trkpt lat="49.76012798957527" lon="9.516638685017824">
<ele>129</ele>
<time>2024-05-11T13:24:08Z</time>
</trkpt>
<trkpt lat="49.76013938896358" lon="9.516634913161395">
<ele>129</ele>
<time>2024-05-11T13:24:09Z</time>
</trkpt>
<trkpt lat="49.760147016495466" lon="9.516636840999126">
<ele>129</ele>
<time>2024-05-11T13:24:10Z</time>
</trkpt>
<trkpt lat="49.76015849970281" lon="9.516632985323668">
<ele>129</ele>
<time>2024-05-11T13:24:11Z</time>
</trkpt>
<trkpt lat="49.7601661272347" lon="9.51662627980113">
<ele>129</ele>
<time>2024-05-11T13:24:12Z</time>
</trkpt>
<trkpt lat="49.76018900983035" lon="9.516598619520664">
<ele>129</ele>
<time>2024-05-11T13:24:13Z</time>
</trkpt>
<trkpt lat="49.76018900983035" lon="9.516579592600465">
<ele>129</ele>
<time>2024-05-11T13:24:14Z</time>
</trkpt>
<trkpt lat="49.76019663736224" lon="9.516574814915655">
<ele>129</ele>
<time>2024-05-11T13:24:15Z</time>
</trkpt>
<trkpt lat="49.76020426489413" lon="9.516578670591116">
<ele>129</ele>
<time>2024-05-11T13:24:16Z</time>
</trkpt>
<trkpt lat="49.760211892426014" lon="9.516572887077928">
<ele>129</ele>
<time>2024-05-11T13:24:17Z</time>
</trkpt>
<trkpt lat="49.76022337563336" lon="9.51657003723085">
<ele>129</ele>
<time>2024-05-11T13:24:18Z</time>
</trkpt>
<trkpt lat="49.76023477502167" lon="9.516566265374422">
<ele>129</ele>
<time>2024-05-11T13:24:19Z</time>
</trkpt>
<trkpt lat="49.76024240255356" lon="9.516561487689614">
<ele>129</ele>
<time>2024-05-11T13:24:20Z</time>
</trkpt>
<trkpt lat="49.76025003008544" lon="9.516558637842536">
<ele>129</ele>
<time>2024-05-11T13:24:21Z</time>
</trkpt>
<trkpt lat="49.76025765761733" lon="9.51655193232">
<ele>129</ele>
<time>2024-05-11T13:24:22Z</time>
</trkpt>
<trkpt lat="49.76026914082467" lon="9.516543382778764">
<ele>129</ele>
<time>2024-05-11T13:24:23Z</time>
</trkpt>
<trkpt lat="49.76028054021299" lon="9.516541454941034">
<ele>129</ele>
<time>2024-05-11T13:24:24Z</time>
</trkpt>
<trkpt lat="49.760292023420334" lon="9.516538605093956">
<ele>129</ele>
<time>2024-05-11T13:24:25Z</time>
</trkpt>
<trkpt lat="49.76029965095222" lon="9.51653189957142">
<ele>129</ele>
<time>2024-05-11T13:24:26Z</time>
</trkpt>
<trkpt lat="49.760307278484106" lon="9.516525194048882">
<ele>129</ele>
<time>2024-05-11T13:24:27Z</time>
</trkpt>
<trkpt lat="49.76031490601599" lon="9.516514716669915">
<ele>129</ele>
<time>2024-05-11T13:24:28Z</time>
</trkpt>
<trkpt lat="49.76032253354788" lon="9.516500467434524">
<ele>129</ele>
<time>2024-05-11T13:24:29Z</time>
</trkpt>
<trkpt lat="49.76033778861165" lon="9.516500467434524">
<ele>129</ele>
<time>2024-05-11T13:24:30Z</time>
</trkpt>
<trkpt lat="49.76034164428711" lon="9.51649183407426">
<ele>129</ele>
<time>2024-05-11T13:24:31Z</time>
</trkpt>
<trkpt lat="49.76034164428711" lon="9.51647180132568">
<ele>129</ele>
<time>2024-05-11T13:24:32Z</time>
</trkpt>
<trkpt lat="49.76035304367542" lon="9.5164517685771">
<ele>129</ele>
<time>2024-05-11T13:24:33Z</time>
</trkpt>
<trkpt lat="49.76036067120731" lon="9.516447996720672">
<ele>129</ele>
<time>2024-05-11T13:24:34Z</time>
</trkpt>
<trkpt lat="49.760372154414654" lon="9.516441291198134">
<ele>129</ele>
<time>2024-05-11T13:24:35Z</time>
</trkpt>
<trkpt lat="49.76038355380297" lon="9.516440369188786">
<ele>129</ele>
<time>2024-05-11T13:24:36Z</time>
</trkpt>
<trkpt lat="49.76039118133485" lon="9.516438441351056">
<ele>129</ele>
<time>2024-05-11T13:24:37Z</time>
</trkpt>
<trkpt lat="49.76039503701031" lon="9.516434669494627">
<ele>129</ele>
<time>2024-05-11T13:24:38Z</time>
</trkpt>
<trkpt lat="49.7604026645422" lon="9.516433663666248">
<ele>129</ele>
<time>2024-05-11T13:24:39Z</time>
</trkpt>
<trkpt lat="49.76042554713786" lon="9.516425114125012">
<ele>129</ele>
<time>2024-05-11T13:24:40Z</time>
</trkpt>
<trkpt lat="49.760448429733515" lon="9.516416480764748">
<ele>129</ele>
<time>2024-05-11T13:24:41Z</time>
</trkpt>
<trkpt lat="49.760467456653714" lon="9.516405081376432">
<ele>129</ele>
<time>2024-05-11T13:24:42Z</time>
</trkpt>
<trkpt lat="49.760486567392945" lon="9.516403153538704">
<ele>129</ele>
<time>2024-05-11T13:24:43Z</time>
</trkpt>
<trkpt lat="49.76050182245672" lon="9.516403153538704">
<ele>129</ele>
<time>2024-05-11T13:24:44Z</time>
</trkpt>
<trkpt lat="49.76051707752049" lon="9.516403153538704">
<ele>129</ele>
<time>2024-05-11T13:24:45Z</time>
</trkpt>
<trkpt lat="49.76053618825972" lon="9.516401225700974">
<ele>129</ele>
<time>2024-05-11T13:24:46Z</time>
</trkpt>
<trkpt lat="49.760547587648034" lon="9.516394603997467">
<ele>129</ele>
<time>2024-05-11T13:24:47Z</time>
</trkpt>
<trkpt lat="49.76055907085538" lon="9.516385048627852">
<ele>129</ele>
<time>2024-05-11T13:24:48Z</time>
</trkpt>
<trkpt lat="49.76057047024369" lon="9.516380270943046">
<ele>129</ele>
<time>2024-05-11T13:24:49Z</time>
</trkpt>
<trkpt lat="49.760566698387265" lon="9.516334505751727">
<ele>129</ele>
<time>2024-05-11T13:24:50Z</time>
</trkpt>
<trkpt lat="49.76057809777558" lon="9.516338277608156">
<ele>129</ele>
<time>2024-05-11T13:24:51Z</time>
</trkpt>
<trkpt lat="49.760585725307465" lon="9.516338277608156">
<ele>129</ele>
<time>2024-05-11T13:24:52Z</time>
</trkpt>
<trkpt lat="49.76059720851481" lon="9.516338277608156">
<ele>129</ele>
<time>2024-05-11T13:24:53Z</time>
</trkpt>
<trkpt lat="49.76060098037124" lon="9.516333499923348">
<ele>129</ele>
<time>2024-05-11T13:24:54Z</time>
</trkpt>
<trkpt lat="49.76060860790312" lon="9.516334505751727">
<ele>129</ele>
<time>2024-05-11T13:24:55Z</time>
</trkpt>
<trkpt lat="49.76061623543501" lon="9.516321178525686">
<ele>129</ele>
<time>2024-05-11T13:24:56Z</time>
</trkpt>
<trkpt lat="49.760623862966895" lon="9.51631162315607">
<ele>129</ele>
<time>2024-05-11T13:24:57Z</time>
</trkpt>
<trkpt lat="49.76063149049878" lon="9.516298212110996">
<ele>129</ele>
<time>2024-05-11T13:24:58Z</time>
</trkpt>
<trkpt lat="49.76063534617424" lon="9.516284884884952">
<ele>129</ele>
<time>2024-05-11T13:24:59Z</time>
</trkpt>
<trkpt lat="49.76063911803067" lon="9.51627348549664">
<ele>129</ele>
<time>2024-05-11T13:25:00Z</time>
</trkpt>
<trkpt lat="49.760642973706126" lon="9.516262002289295">
<ele>129</ele>
<time>2024-05-11T13:25:01Z</time>
</trkpt>
<trkpt lat="49.76065437309444" lon="9.516258230432868">
<ele>129</ele>
<time>2024-05-11T13:25:02Z</time>
</trkpt>
<trkpt lat="49.760665856301785" lon="9.51625152491033">
<ele>129</ele>
<time>2024-05-11T13:25:03Z</time>
</trkpt>
<trkpt lat="49.760684967041016" lon="9.516246747225525">
<ele>129</ele>
<time>2024-05-11T13:25:04Z</time>
</trkpt>
<trkpt lat="49.76071547716856" lon="9.51623341999948">
<ele>129</ele>
<time>2024-05-11T13:25:05Z</time>
</trkpt>
<trkpt lat="49.760723104700446" lon="9.51622956432402">
<ele>129</ele>
<time>2024-05-11T13:25:06Z</time>
</trkpt>
<trkpt lat="49.760742131620646" lon="9.516221936792135">
<ele>129</ele>
<time>2024-05-11T13:25:07Z</time>
</trkpt>
<trkpt lat="49.76075361482799" lon="9.51621145941317">
<ele>129</ele>
<time>2024-05-11T13:25:08Z</time>
</trkpt>
<trkpt lat="49.760765014216304" lon="9.516201904043555">
<ele>129</ele>
<time>2024-05-11T13:25:09Z</time>
</trkpt>
<trkpt lat="49.76077264174819" lon="9.516188576817513">
<ele>129</ele>
<time>2024-05-11T13:25:10Z</time>
</trkpt>
<trkpt lat="49.76078026928008" lon="9.516149517148731">
<ele>129</ele>
<time>2024-05-11T13:25:11Z</time>
</trkpt>
<trkpt lat="49.76078789681196" lon="9.516128478571773">
<ele>129</ele>
<time>2024-05-11T13:25:12Z</time>
</trkpt>
<trkpt lat="49.76079552434385" lon="9.516103668138385">
<ele>129</ele>
<time>2024-05-11T13:25:13Z</time>
</trkpt>
<trkpt lat="49.76079938001931" lon="9.516088413074613">
<ele>129</ele>
<time>2024-05-11T13:25:14Z</time>
</trkpt>
<trkpt lat="49.76080700755119" lon="9.516083635389805">
<ele>129</ele>
<time>2024-05-11T13:25:15Z</time>
</trkpt>
<trkpt lat="49.76081840693951" lon="9.51607508584857">
<ele>129</ele>
<time>2024-05-11T13:25:16Z</time>
</trkpt>
<trkpt lat="49.76082989014685" lon="9.51605505309999">
<ele>129</ele>
<time>2024-05-11T13:25:17Z</time>
</trkpt>
<trkpt lat="49.76083751767874" lon="9.516046503558757">
<ele>129</ele>
<time>2024-05-11T13:25:18Z</time>
</trkpt>
<trkpt lat="49.760841289535165" lon="9.516048431396484">
<ele>129</ele>
<time>2024-05-11T13:25:19Z</time>
</trkpt>
<trkpt lat="49.760845145210624" lon="9.51605312526226">
<ele>129</ele>
<time>2024-05-11T13:25:20Z</time>
</trkpt>
<trkpt lat="49.76084891706705" lon="9.51605698093772">
<ele>129</ele>
<time>2024-05-11T13:25:21Z</time>
</trkpt>
<trkpt lat="49.76085277274251" lon="9.516064608469604">
<ele>129</ele>
<time>2024-05-11T13:25:22Z</time>
</trkpt>
<trkpt lat="49.76085662841797" lon="9.516068380326033">
<ele>129</ele>
<time>2024-05-11T13:25:23Z</time>
</trkpt>
<trkpt lat="49.7608604002744" lon="9.51607508584857">
<ele>129</ele>
<time>2024-05-11T13:25:24Z</time>
</trkpt>
<trkpt lat="49.76086802780628" lon="9.516079863533378">
<ele>129</ele>
<time>2024-05-11T13:25:25Z</time>
</trkpt>
<trkpt lat="49.76087565533817" lon="9.516086569055917">
<ele>129</ele>
<time>2024-05-11T13:25:26Z</time>
</trkpt>
<trkpt lat="49.760883282870054" lon="9.516081791371109">
<ele>129</ele>
<time>2024-05-11T13:25:27Z</time>
</trkpt>
<trkpt lat="49.76088713854551" lon="9.516083635389805">
<ele>129</ele>
<time>2024-05-11T13:25:28Z</time>
</trkpt>
<trkpt lat="49.76088713854551" lon="9.5160770136863">
<ele>129</ele>
<time>2024-05-11T13:25:29Z</time>
</trkpt>
<trkpt lat="49.76088713854551" lon="9.516070308163762">
<ele>129</ele>
<time>2024-05-11T13:25:30Z</time>
</trkpt>
<trkpt lat="49.76087951101363" lon="9.516064608469604">
<ele>129</ele>
<time>2024-05-11T13:25:31Z</time>
</trkpt>
<trkpt lat="49.76087188348174" lon="9.516061758622527">
<ele>129</ele>
<time>2024-05-11T13:25:32Z</time>
</trkpt>
<trkpt lat="49.76087188348174" lon="9.51605505309999">
<ele>129</ele>
<time>2024-05-11T13:25:33Z</time>
</trkpt>
<trkpt lat="49.76087565533817" lon="9.516043653711677">
<ele>128.8</ele>
<time>2024-05-11T13:25:34Z</time>
</trkpt>
<trkpt lat="49.76087565533817" lon="9.51603694818914">
<ele>128.8</ele>
<time>2024-05-11T13:25:35Z</time>
</trkpt>
<trkpt lat="49.760883282870054" lon="9.516024542972444">
<ele>128.8</ele>
<time>2024-05-11T13:25:36Z</time>
</trkpt>
<trkpt lat="49.760898537933826" lon="9.516006438061597">
<ele>128.6</ele>
<time>2024-05-11T13:25:37Z</time>
</trkpt>
<trkpt lat="49.760925276204944" lon="9.516001660376787">
<ele>128.8</ele>
<time>2024-05-11T13:25:38Z</time>
</trkpt>
<trkpt lat="49.76092904806137" lon="9.51599688269198">
<ele>128.8</ele>
<time>2024-05-11T13:25:39Z</time>
</trkpt>
<trkpt lat="49.760925276204944" lon="9.51599495485425">
<ele>128.6</ele>
<time>2024-05-11T13:25:40Z</time>
</trkpt>
<trkpt lat="49.760921420529485" lon="9.515988333150744">
<ele>128.8</ele>
<time>2024-05-11T13:25:41Z</time>
</trkpt>
<trkpt lat="49.760921420529485" lon="9.515986405313017">
<ele>128.6</ele>
<time>2024-05-11T13:25:42Z</time>
</trkpt>
<trkpt lat="49.760925276204944" lon="9.51597492210567">
<ele>128.6</ele>
<time>2024-05-11T13:25:43Z</time>
</trkpt>
<trkpt lat="49.76093290373683" lon="9.515973078086972">
<ele>128.399</ele>
<time>2024-05-11T13:25:44Z</time>
</trkpt>
<trkpt lat="49.76094430312514" lon="9.515972072258592">
<ele>128.2</ele>
<time>2024-05-11T13:25:45Z</time>
</trkpt>
<trkpt lat="49.76097104139626" lon="9.515986405313017">
<ele>127.8</ele>
<time>2024-05-11T13:25:46Z</time>
</trkpt>
<trkpt lat="49.761001551523805" lon="9.515973078086972">
<ele>127.4</ele>
<time>2024-05-11T13:25:47Z</time>
</trkpt>
<trkpt lat="49.76102443411946" lon="9.515972072258592">
<ele>127</ele>
<time>2024-05-11T13:25:48Z</time>
</trkpt>
<trkpt lat="49.76103591732681" lon="9.515968300402164">
<ele>127</ele>
<time>2024-05-11T13:25:49Z</time>
</trkpt>
<trkpt lat="49.76105494424701" lon="9.515968300402164">
<ele>126.8</ele>
<time>2024-05-11T13:25:50Z</time>
</trkpt>
<trkpt lat="49.76107019931078" lon="9.515970228239894">
<ele>126.8</ele>
<time>2024-05-11T13:25:51Z</time>
</trkpt>
<trkpt lat="49.76108931005001" lon="9.515968300402164">
<ele>126.8</ele>
<time>2024-05-11T13:25:52Z</time>
</trkpt>
<trkpt lat="49.76110456511378" lon="9.515970228239894">
<ele>126.8</ele>
<time>2024-05-11T13:25:53Z</time>
</trkpt>
<trkpt lat="49.76112359203398" lon="9.515973078086972">
<ele>127</ele>
<time>2024-05-11T13:25:54Z</time>
</trkpt>
<trkpt lat="49.761138847097754" lon="9.51597492210567">
<ele>127</ele>
<time>2024-05-11T13:25:55Z</time>
</trkpt>
<trkpt lat="49.761157957836986" lon="9.5159768499434">
<ele>127.2</ele>
<time>2024-05-11T13:25:56Z</time>
</trkpt>
<trkpt lat="49.7611693572253" lon="9.51597785577178">
<ele>127.4</ele>
<time>2024-05-11T13:25:57Z</time>
</trkpt>
<trkpt lat="49.76118846796453" lon="9.515981627628207">
<ele>127.4</ele>
<time>2024-05-11T13:25:58Z</time>
</trkpt>
<trkpt lat="49.761199951171875" lon="9.515985483303666">
<ele>127.6</ele>
<time>2024-05-11T13:25:59Z</time>
</trkpt>
<trkpt lat="49.76121135056019" lon="9.515985483303666">
<ele>127.8</ele>
<time>2024-05-11T13:26:00Z</time>
</trkpt>
<trkpt lat="49.76121520623565" lon="9.515983555465937">
<ele>127.8</ele>
<time>2024-05-11T13:26:01Z</time>
</trkpt>
<trkpt lat="49.761218978092074" lon="9.515981627628207">
<ele>128</ele>
<time>2024-05-11T13:26:02Z</time>
</trkpt>
<trkpt lat="49.76122283376753" lon="9.515983555465937">
<ele>128</ele>
<time>2024-05-11T13:26:03Z</time>
</trkpt>
<trkpt lat="49.76122660562396" lon="9.515983555465937">
<ele>128.2</ele>
<time>2024-05-11T13:26:04Z</time>
</trkpt>
<trkpt lat="49.76122660562396" lon="9.515986405313017">
<ele>128</ele>
<time>2024-05-11T13:26:05Z</time>
</trkpt>
<trkpt lat="49.76122660562396" lon="9.515988333150744">
<ele>128</ele>
<time>2024-05-11T13:26:06Z</time>
</trkpt>
<trkpt lat="49.76123046129942" lon="9.515988333150744">
<ele>128</ele>
<time>2024-05-11T13:26:09Z</time>
</trkpt>
<trkpt lat="49.76124571636319" lon="9.515986405313017">
<ele>127.8</ele>
<time>2024-05-11T13:26:10Z</time>
</trkpt>
<trkpt lat="49.76126474328339" lon="9.515983555465937">
<ele>127.8</ele>
<time>2024-05-11T13:26:11Z</time>
</trkpt>
<trkpt lat="49.76128762587905" lon="9.5159768499434">
<ele>127.6</ele>
<time>2024-05-11T13:26:12Z</time>
</trkpt>
<trkpt lat="49.76131050847471" lon="9.515973078086972">
<ele>127.6</ele>
<time>2024-05-11T13:26:13Z</time>
</trkpt>
<trkpt lat="49.761333391070366" lon="9.51597785577178">
<ele>127.6</ele>
<time>2024-05-11T13:26:14Z</time>
</trkpt>
<trkpt lat="49.76136390119791" lon="9.515981627628207">
<ele>127.6</ele>
<time>2024-05-11T13:26:15Z</time>
</trkpt>
<trkpt lat="49.7613868676126" lon="9.515981627628207">
<ele>127.6</ele>
<time>2024-05-11T13:26:16Z</time>
</trkpt>
<trkpt lat="49.7614058945328" lon="9.515979699790478">
<ele>127.8</ele>
<time>2024-05-11T13:26:17Z</time>
</trkpt>
<trkpt lat="49.76142114959657" lon="9.515972072258592">
<ele>128</ele>
<time>2024-05-11T13:26:18Z</time>
</trkpt>
<trkpt lat="49.76144403219223" lon="9.51591968536377">
<ele>128</ele>
<time>2024-05-11T13:26:20Z</time>
</trkpt>
<trkpt lat="49.761455515399575" lon="9.515890097245574">
<ele>128</ele>
<time>2024-05-11T13:26:21Z</time>
</trkpt>
<trkpt lat="49.76146691478789" lon="9.515850031748414">
<ele>128.2</ele>
<time>2024-05-11T13:26:22Z</time>
</trkpt>
<trkpt lat="49.76148216985166" lon="9.515809966251254">
<ele>128.2</ele>
<time>2024-05-11T13:26:23Z</time>
</trkpt>
<trkpt lat="49.76149742491543" lon="9.515773756429551">
<ele>128.399</ele>
<time>2024-05-11T13:26:24Z</time>
</trkpt>
<trkpt lat="49.76150890812278" lon="9.515731763094664">
<ele>128.6</ele>
<time>2024-05-11T13:26:25Z</time>
</trkpt>
<trkpt lat="49.76152030751109" lon="9.515685075893998">
<ele>128.6</ele>
<time>2024-05-11T13:26:26Z</time>
</trkpt>
<trkpt lat="49.76153556257486" lon="9.515651632100344">
<ele>128.8</ele>
<time>2024-05-11T13:26:27Z</time>
</trkpt>
<trkpt lat="49.76155090145767" lon="9.51561827212572">
<ele>128.8</ele>
<time>2024-05-11T13:26:28Z</time>
</trkpt>
<trkpt lat="49.76156615652144" lon="9.515586839988828">
<ele>129</ele>
<time>2024-05-11T13:26:29Z</time>
</trkpt>
<trkpt lat="49.76156992837787" lon="9.515551552176476">
<ele>129</ele>
<time>2024-05-11T13:26:30Z</time>
</trkpt>
<trkpt lat="49.761573784053326" lon="9.515513414517043">
<ele>129</ele>
<time>2024-05-11T13:26:31Z</time>
</trkpt>
<trkpt lat="49.76158141158521" lon="9.515475193038585">
<ele>129</ele>
<time>2024-05-11T13:26:32Z</time>
</trkpt>
<trkpt lat="49.761592810973525" lon="9.515438061207533">
<ele>129</ele>
<time>2024-05-11T13:26:33Z</time>
</trkpt>
<trkpt lat="49.76160043850541" lon="9.51540369540453">
<ele>129.2</ele>
<time>2024-05-11T13:26:34Z</time>
</trkpt>
<trkpt lat="49.76161192171275" lon="9.515368407592176">
<ele>129.2</ele>
<time>2024-05-11T13:26:35Z</time>
</trkpt>
<trkpt lat="49.76162717677653" lon="9.515336975455284">
<ele>129.2</ele>
<time>2024-05-11T13:26:36Z</time>
</trkpt>
<trkpt lat="49.761634804308414" lon="9.515310237184169">
<ele>129.2</ele>
<time>2024-05-11T13:26:37Z</time>
</trkpt>
<trkpt lat="49.761634804308414" lon="9.515281654894352">
<ele>129.2</ele>
<time>2024-05-11T13:26:38Z</time>
</trkpt>
<trkpt lat="49.7616424318403" lon="9.515252988785504">
<ele>129.2</ele>
<time>2024-05-11T13:26:39Z</time>
</trkpt>
<trkpt lat="49.761653831228614" lon="9.51522348448634">
<ele>129.2</ele>
<time>2024-05-11T13:26:40Z</time>
</trkpt>
<trkpt lat="49.761669086292386" lon="9.515194818377497">
<ele>129.2</ele>
<time>2024-05-11T13:26:41Z</time>
</trkpt>
<trkpt lat="49.76169196888805" lon="9.515171935781837">
<ele>129</ele>
<time>2024-05-11T13:26:42Z</time>
</trkpt>
<trkpt lat="49.761714935302734" lon="9.515152908861635">
<ele>129</ele>
<time>2024-05-11T13:26:43Z</time>
</trkpt>
<trkpt lat="49.76174544543028" lon="9.515132876113055">
<ele>128.8</ele>
<time>2024-05-11T13:26:44Z</time>
</trkpt>
<trkpt lat="49.76177595555782" lon="9.515123320743442">
<ele>128.6</ele>
<time>2024-05-11T13:26:45Z</time>
</trkpt>
<trkpt lat="49.76180646568537" lon="9.51512809842825">
<ele>128.6</ele>
<time>2024-05-11T13:26:46Z</time>
</trkpt>
<trkpt lat="49.76182549260557" lon="9.515143353492022">
<ele>128.399</ele>
<time>2024-05-11T13:26:47Z</time>
</trkpt>
<trkpt lat="49.761848375201225" lon="9.515151903033257">
<ele>128</ele>
<time>2024-05-11T13:26:48Z</time>
</trkpt>
<trkpt lat="49.76187511347234" lon="9.51517009176314">
<ele>127.8</ele>
<time>2024-05-11T13:26:49Z</time>
</trkpt>
<trkpt lat="49.76190185174346" lon="9.515194818377497">
<ele>127.4</ele>
<time>2024-05-11T13:26:50Z</time>
</trkpt>
<trkpt lat="49.76193236187101" lon="9.515214851126077">
<ele>127.2</ele>
<time>2024-05-11T13:26:51Z</time>
</trkpt>
<trkpt lat="49.761966643854976" lon="9.515254916623237">
<ele>127</ele>
<time>2024-05-11T13:26:52Z</time>
</trkpt>
<trkpt lat="49.76198575459421" lon="9.515290204435589">
<ele>127</ele>
<time>2024-05-11T13:26:53Z</time>
</trkpt>
<trkpt lat="49.762004781514406" lon="9.515313087031243">
<ele>127</ele>
<time>2024-05-11T13:26:54Z</time>
</trkpt>
<trkpt lat="49.76203529164195" lon="9.51534460298717">
<ele>127</ele>
<time>2024-05-11T13:26:55Z</time>
</trkpt>
<trkpt lat="49.76205825805664" lon="9.51536362990737">
<ele>127</ele>
<time>2024-05-11T13:26:56Z</time>
</trkpt>
<trkpt lat="49.76209254004061" lon="9.515370335429909">
<ele>127</ele>
<time>2024-05-11T13:26:57Z</time>
</trkpt>
<trkpt lat="49.76211542263627" lon="9.515357930213211">
<ele>127</ele>
<time>2024-05-11T13:26:58Z</time>
</trkpt>
<trkpt lat="49.76213830523193" lon="9.51534359715879">
<ele>127.2</ele>
<time>2024-05-11T13:26:59Z</time>
</trkpt>
<trkpt lat="49.76216118782759" lon="9.515319792553782">
<ele>127.2</ele>
<time>2024-05-11T13:27:00Z</time>
</trkpt>
<trkpt lat="49.762187926098704" lon="9.515297831967471">
<ele>127.2</ele>
<time>2024-05-11T13:27:01Z</time>
</trkpt>
<trkpt lat="49.76220318116248" lon="9.515274949371817">
<ele>127.2</ele>
<time>2024-05-11T13:27:02Z</time>
</trkpt>
<trkpt lat="49.762226063758135" lon="9.515246367082">
<ele>127.4</ele>
<time>2024-05-11T13:27:03Z</time>
</trkpt>
<trkpt lat="49.76224894635379" lon="9.515221556648612">
<ele>127.4</ele>
<time>2024-05-11T13:27:04Z</time>
</trkpt>
<trkpt lat="49.76227182894945" lon="9.515196746215224">
<ele>127.4</ele>
<time>2024-05-11T13:27:05Z</time>
</trkpt>
<trkpt lat="49.76229471154511" lon="9.515158608555794">
<ele>127.4</ele>
<time>2024-05-11T13:27:06Z</time>
</trkpt>
<trkpt lat="49.76231382228434" lon="9.515119548887014">
<ele>127.4</ele>
<time>2024-05-11T13:27:07Z</time>
</trkpt>
<trkpt lat="49.76233670488" lon="9.515085183084013">
<ele>127.4</ele>
<time>2024-05-11T13:27:10Z</time>
</trkpt>
<trkpt lat="49.76241298019886" lon="9.51498694717884">
<ele>127.4</ele>
<time>2024-05-11T13:27:11Z</time>
</trkpt>
<trkpt lat="49.76243586279452" lon="9.514960208907723">
<ele>127.2</ele>
<time>2024-05-11T13:27:12Z</time>
</trkpt>
<trkpt lat="49.76245497353375" lon="9.514951659366488">
<ele>127.2</ele>
<time>2024-05-11T13:27:13Z</time>
</trkpt>
<trkpt lat="49.76246260106563" lon="9.514951659366488">
<ele>127.2</ele>
<time>2024-05-11T13:27:14Z</time>
</trkpt>
<trkpt lat="49.76246637292206" lon="9.51494788751006">
<ele>127</ele>
<time>2024-05-11T13:27:15Z</time>
</trkpt>
<trkpt lat="49.76246637292206" lon="9.51494688168168">
<ele>127</ele>
<time>2024-05-11T13:27:17Z</time>
</trkpt>
<trkpt lat="49.76246637292206" lon="9.514944953843951">
<ele>126.8</ele>
<time>2024-05-11T13:27:18Z</time>
</trkpt>
<trkpt lat="49.76246637292206" lon="9.514943109825252">
<ele>126.8</ele>
<time>2024-05-11T13:27:19Z</time>
</trkpt>
<trkpt lat="49.76247022859752" lon="9.514940259978175">
<ele>126.6</ele>
<time>2024-05-11T13:27:20Z</time>
</trkpt>
<trkpt lat="49.76247022859752" lon="9.514942103996871">
<ele>126.6</ele>
<time>2024-05-11T13:27:21Z</time>
</trkpt>
<trkpt lat="49.76247022859752" lon="9.514943109825252">
<ele>126.6</ele>
<time>2024-05-11T13:27:23Z</time>
</trkpt>
<trkpt lat="49.76247400045395" lon="9.514944953843951">
<ele>126.4</ele>
<time>2024-05-11T13:27:24Z</time>
</trkpt>
<trkpt lat="49.76247400045395" lon="9.514942103996871">
<ele>126.4</ele>
<time>2024-05-11T13:27:27Z</time>
</trkpt>
<trkpt lat="49.76247400045395" lon="9.514943109825252">
<ele>126.4</ele>
<time>2024-05-11T13:27:28Z</time>
</trkpt>
<trkpt lat="49.76247400045395" lon="9.51494688168168">
<ele>126.4</ele>
<time>2024-05-11T13:27:29Z</time>
</trkpt>
<trkpt lat="49.76247400045395" lon="9.514944953843951">
<ele>126.4</ele>
<time>2024-05-11T13:27:30Z</time>
</trkpt>
<trkpt lat="49.76247400045395" lon="9.514943109825252">
<ele>126.4</ele>
<time>2024-05-11T13:27:31Z</time>
</trkpt>
<trkpt lat="49.76247400045395" lon="9.51494688168168">
<ele>126.4</ele>
<time>2024-05-11T13:27:32Z</time>
</trkpt>
<trkpt lat="49.76247400045395" lon="9.514944953843951">
<ele>126.4</ele>
<time>2024-05-11T13:27:34Z</time>
</trkpt>
<trkpt lat="49.76247400045395" lon="9.51494688168168">
<ele>126.4</ele>
<time>2024-05-11T13:27:35Z</time>
</trkpt>
<trkpt lat="49.76247400045395" lon="9.514942103996871">
<ele>126.2</ele>
<time>2024-05-11T13:27:36Z</time>
</trkpt>
<trkpt lat="49.76247400045395" lon="9.514944953843951">
<ele>126.2</ele>
<time>2024-05-11T13:27:37Z</time>
</trkpt>
<trkpt lat="49.76247400045395" lon="9.51494788751006">
<ele>126</ele>
<time>2024-05-11T13:27:38Z</time>
</trkpt>
<trkpt lat="49.76247400045395" lon="9.51494688168168">
<ele>126</ele>
<time>2024-05-11T13:27:41Z</time>
</trkpt>
<trkpt lat="49.76247400045395" lon="9.514944953843951">
<ele>125.8</ele>
<time>2024-05-11T13:27:42Z</time>
</trkpt>
<trkpt lat="49.76247400045395" lon="9.514943109825252">
<ele>125.8</ele>
<time>2024-05-11T13:27:44Z</time>
</trkpt>
<trkpt lat="49.76247400045395" lon="9.514942103996871">
<ele>125.8</ele>
<time>2024-05-11T13:27:46Z</time>
</trkpt>
<trkpt lat="49.76247400045395" lon="9.514940259978175">
<ele>125.6</ele>
<time>2024-05-11T13:27:48Z</time>
</trkpt>
<trkpt lat="49.76247400045395" lon="9.514938332140446">
<ele>125.6</ele>
<time>2024-05-11T13:27:52Z</time>
</trkpt>
<trkpt lat="49.76247400045395" lon="9.514940259978175">
<ele>125.4</ele>
<time>2024-05-11T13:27:56Z</time>
</trkpt>
<trkpt lat="49.76247400045395" lon="9.514942103996871">
<ele>125.2</ele>
<time>2024-05-11T13:27:58Z</time>
</trkpt>
<trkpt lat="49.76247785612941" lon="9.514942103996871">
<ele>125.2</ele>
<time>2024-05-11T13:27:59Z</time>
</trkpt>
<trkpt lat="49.76247785612941" lon="9.514943109825252">
<ele>125</ele>
<time>2024-05-11T13:28:00Z</time>
</trkpt>
<trkpt lat="49.76247785612941" lon="9.514944953843951">
<ele>124.8</ele>
<time>2024-05-11T13:28:02Z</time>
</trkpt>
<trkpt lat="49.76247785612941" lon="9.51494688168168">
<ele>124.8</ele>
<time>2024-05-11T13:28:06Z</time>
</trkpt>
<trkpt lat="49.762481627985835" lon="9.51494788751006">
<ele>124.6</ele>
<time>2024-05-11T13:28:07Z</time>
</trkpt>
<trkpt lat="49.762481627985835" lon="9.51494973152876">
<ele>124.6</ele>
<time>2024-05-11T13:28:10Z</time>
</trkpt>
<trkpt lat="49.762481627985835" lon="9.514951659366488">
<ele>124.6</ele>
<time>2024-05-11T13:28:15Z</time>
</trkpt>
<trkpt lat="49.762481627985835" lon="9.514953587204218">
<ele>124.6</ele>
<time>2024-05-11T13:28:16Z</time>
</trkpt>
<trkpt lat="49.762481627985835" lon="9.514954509213569">
<ele>124.4</ele>
<time>2024-05-11T13:28:18Z</time>
</trkpt>
<trkpt lat="49.762481627985835" lon="9.514956437051296">
<ele>124.4</ele>
<time>2024-05-11T13:28:20Z</time>
</trkpt>
<trkpt lat="49.762481627985835" lon="9.514954509213569">
<ele>124.4</ele>
<time>2024-05-11T13:28:26Z</time>
</trkpt>
<trkpt lat="49.762481627985835" lon="9.514956437051296">
<ele>124.2</ele>
<time>2024-05-11T13:28:27Z</time>
</trkpt>
<trkpt lat="49.762481627985835" lon="9.514954509213569">
<ele>124.2</ele>
<time>2024-05-11T13:28:29Z</time>
</trkpt>
<trkpt lat="49.762481627985835" lon="9.514953587204218">
<ele>124</ele>
<time>2024-05-11T13:28:36Z</time>
</trkpt>
<trkpt lat="49.762481627985835" lon="9.514951659366488">
<ele>124</ele>
<time>2024-05-11T13:28:41Z</time>
</trkpt>
<trkpt lat="49.762481627985835" lon="9.51494973152876">
<ele>124</ele>
<time>2024-05-11T13:28:49Z</time>
</trkpt>
<trkpt lat="49.762481627985835" lon="9.514951659366488">
<ele>124</ele>
<time>2024-05-11T13:28:53Z</time>
</trkpt>
<trkpt lat="49.762481627985835" lon="9.51494973152876">
<ele>124</ele>
<time>2024-05-11T13:28:59Z</time>
</trkpt>
<trkpt lat="49.762481627985835" lon="9.514951659366488">
<ele>124</ele>
<time>2024-05-11T13:29:07Z</time>
</trkpt>
<trkpt lat="49.762485483661294" lon="9.51494973152876">
<ele>124</ele>
<time>2024-05-11T13:29:10Z</time>
</trkpt>
<trkpt lat="49.762485483661294" lon="9.51494788751006">
<ele>124</ele>
<time>2024-05-11T13:29:13Z</time>
</trkpt>
<trkpt lat="49.762485483661294" lon="9.51494973152876">
<ele>124.2</ele>
<time>2024-05-11T13:29:16Z</time>
</trkpt>
<trkpt lat="49.762485483661294" lon="9.51494788751006">
<ele>124.2</ele>
<time>2024-05-11T13:29:17Z</time>
</trkpt>
<trkpt lat="49.762485483661294" lon="9.51494973152876">
<ele>124.2</ele>
<time>2024-05-11T13:29:21Z</time>
</trkpt>
<trkpt lat="49.762485483661294" lon="9.514951659366488">
<ele>124.4</ele>
<time>2024-05-11T13:29:26Z</time>
</trkpt>
<trkpt lat="49.762485483661294" lon="9.51494973152876">
<ele>124.4</ele>
<time>2024-05-11T13:29:32Z</time>
</trkpt>
<trkpt lat="49.762481627985835" lon="9.51494973152876">
<ele>124.4</ele>
<time>2024-05-11T13:29:35Z</time>
</trkpt>
<trkpt lat="49.762481627985835" lon="9.514951659366488">
<ele>124.6</ele>
<time>2024-05-11T13:29:43Z</time>
</trkpt>
<trkpt lat="49.762481627985835" lon="9.514953587204218">
<ele>124.6</ele>
<time>2024-05-11T13:29:46Z</time>
</trkpt>
<trkpt lat="49.762481627985835" lon="9.514954509213569">
<ele>124.8</ele>
<time>2024-05-11T13:29:47Z</time>
</trkpt>
<trkpt lat="49.762481627985835" lon="9.514956437051296">
<ele>124.8</ele>
<time>2024-05-11T13:29:53Z</time>
</trkpt>
<trkpt lat="49.762481627985835" lon="9.514958364889026">
<ele>125</ele>
<time>2024-05-11T13:29:57Z</time>
</trkpt>
<trkpt lat="49.762481627985835" lon="9.514960208907723">
<ele>125</ele>
<time>2024-05-11T13:29:58Z</time>
</trkpt>
<trkpt lat="49.762481627985835" lon="9.514961214736104">
<ele>125</ele>
<time>2024-05-11T13:30:05Z</time>
</trkpt>
<trkpt lat="49.762481627985835" lon="9.514963142573832">
<ele>125.2</ele>
<time>2024-05-11T13:30:07Z</time>
</trkpt>
<trkpt lat="49.762481627985835" lon="9.514964986592531">
<ele>125.2</ele>
<time>2024-05-11T13:30:10Z</time>
</trkpt>
<trkpt lat="49.762481627985835" lon="9.51496691443026">
<ele>125.2</ele>
<time>2024-05-11T13:30:15Z</time>
</trkpt>
<trkpt lat="49.762481627985835" lon="9.514964986592531">
<ele>125.2</ele>
<time>2024-05-11T13:30:23Z</time>
</trkpt>
<trkpt lat="49.762485483661294" lon="9.514964986592531">
<ele>125.2</ele>
<time>2024-05-11T13:30:27Z</time>
</trkpt>
<trkpt lat="49.762485483661294" lon="9.514963142573832">
<ele>125.2</ele>
<time>2024-05-11T13:30:29Z</time>
</trkpt>
<trkpt lat="49.762485483661294" lon="9.514961214736104">
<ele>125.2</ele>
<time>2024-05-11T13:30:33Z</time>
</trkpt>
<trkpt lat="49.762485483661294" lon="9.514963142573832">
<ele>125.4</ele>
<time>2024-05-11T13:30:41Z</time>
</trkpt>
<trkpt lat="49.76248925551772" lon="9.514963142573832">
<ele>125.4</ele>
<time>2024-05-11T13:30:42Z</time>
</trkpt>
<trkpt lat="49.76248925551772" lon="9.514961214736104">
<ele>125.6</ele>
<time>2024-05-11T13:30:53Z</time>
</trkpt>
<trkpt lat="49.76248925551772" lon="9.514960208907723">
<ele>125.8</ele>
<time>2024-05-11T13:30:56Z</time>
</trkpt>
<trkpt lat="49.76248925551772" lon="9.514958364889026">
<ele>126</ele>
<time>2024-05-11T13:30:59Z</time>
</trkpt>
<trkpt lat="49.76248925551772" lon="9.514956437051296">
<ele>126.4</ele>
<time>2024-05-11T13:31:02Z</time>
</trkpt>
<trkpt lat="49.76248925551772" lon="9.514954509213569">
<ele>126.6</ele>
<time>2024-05-11T13:31:04Z</time>
</trkpt>
<trkpt lat="49.76248925551772" lon="9.514953587204218">
<ele>127</ele>
<time>2024-05-11T13:31:07Z</time>
</trkpt>
<trkpt lat="49.76248925551772" lon="9.514951659366488">
<ele>127</ele>
<time>2024-05-11T13:31:11Z</time>
</trkpt>
<trkpt lat="49.76248925551772" lon="9.514953587204218">
<ele>127.2</ele>
<time>2024-05-11T13:31:12Z</time>
</trkpt>
<trkpt lat="49.76248925551772" lon="9.514951659366488">
<ele>127.4</ele>
<time>2024-05-11T13:31:13Z</time>
</trkpt>
<trkpt lat="49.76248925551772" lon="9.51494973152876">
<ele>127.2</ele>
<time>2024-05-11T13:31:14Z</time>
</trkpt>
<trkpt lat="49.76248925551772" lon="9.51494788751006">
<ele>127.2</ele>
<time>2024-05-11T13:31:15Z</time>
</trkpt>
<trkpt lat="49.76248925551772" lon="9.51494688168168">
<ele>127.2</ele>
<time>2024-05-11T13:31:18Z</time>
</trkpt>
<trkpt lat="49.76248925551772" lon="9.514944953843951">
<ele>127</ele>
<time>2024-05-11T13:31:21Z</time>
</trkpt>
<trkpt lat="49.76249311119318" lon="9.514944953843951">
<ele>126.8</ele>
<time>2024-05-11T13:31:25Z</time>
</trkpt>
<trkpt lat="49.76249311119318" lon="9.514943109825252">
<ele>126.8</ele>
<time>2024-05-11T13:31:29Z</time>
</trkpt>
<trkpt lat="49.76249311119318" lon="9.514942103996871">
<ele>126.8</ele>
<time>2024-05-11T13:31:32Z</time>
</trkpt>
<trkpt lat="49.76249311119318" lon="9.514940259978175">
<ele>126.8</ele>
<time>2024-05-11T13:31:36Z</time>
</trkpt>
<trkpt lat="49.76249311119318" lon="9.514942103996871">
<ele>126.8</ele>
<time>2024-05-11T13:31:37Z</time>
</trkpt>
<trkpt lat="49.76249311119318" lon="9.514940259978175">
<ele>126.8</ele>
<time>2024-05-11T13:31:38Z</time>
</trkpt>
<trkpt lat="49.76249311119318" lon="9.514938332140446">
<ele>126.8</ele>
<time>2024-05-11T13:31:42Z</time>
</trkpt>
<trkpt lat="49.76248925551772" lon="9.514938332140446">
<ele>126.8</ele>
<time>2024-05-11T13:31:44Z</time>
</trkpt>
<trkpt lat="49.76248925551772" lon="9.514936404302716">
<ele>126.8</ele>
<time>2024-05-11T13:31:49Z</time>
</trkpt>
<trkpt lat="49.762485483661294" lon="9.514936404302716">
<ele>126.8</ele>
<time>2024-05-11T13:31:52Z</time>
</trkpt>
<trkpt lat="49.762485483661294" lon="9.514938332140446">
<ele>126.8</ele>
<time>2024-05-11T13:31:56Z</time>
</trkpt>
<trkpt lat="49.762481627985835" lon="9.514938332140446">
<ele>126.8</ele>
<time>2024-05-11T13:32:00Z</time>
</trkpt>
<trkpt lat="49.762481627985835" lon="9.514940259978175">
<ele>126.8</ele>
<time>2024-05-11T13:32:01Z</time>
</trkpt>
<trkpt lat="49.762481627985835" lon="9.514938332140446">
<ele>126.8</ele>
<time>2024-05-11T13:32:09Z</time>
</trkpt>
<trkpt lat="49.76247785612941" lon="9.514938332140446">
<ele>126.8</ele>
<time>2024-05-11T13:32:11Z</time>
</trkpt>
<trkpt lat="49.76247785612941" lon="9.514936404302716">
<ele>126.8</ele>
<time>2024-05-11T13:32:13Z</time>
</trkpt>
<trkpt lat="49.76247785612941" lon="9.514938332140446">
<ele>126.8</ele>
<time>2024-05-11T13:32:14Z</time>
</trkpt>
<trkpt lat="49.76247785612941" lon="9.514936404302716">
<ele>126.8</ele>
<time>2024-05-11T13:32:18Z</time>
</trkpt>
<trkpt lat="49.76247785612941" lon="9.514938332140446">
<ele>126.8</ele>
<time>2024-05-11T13:32:20Z</time>
</trkpt>
<trkpt lat="49.76247785612941" lon="9.514936404302716">
<ele>126.8</ele>
<time>2024-05-11T13:32:22Z</time>
</trkpt>
<trkpt lat="49.76247785612941" lon="9.514938332140446">
<ele>126.8</ele>
<time>2024-05-11T13:32:27Z</time>
</trkpt>
<trkpt lat="49.76247400045395" lon="9.514938332140446">
<ele>126.8</ele>
<time>2024-05-11T13:32:29Z</time>
</trkpt>
<trkpt lat="49.76247400045395" lon="9.514940259978175">
<ele>126.8</ele>
<time>2024-05-11T13:32:30Z</time>
</trkpt>
<trkpt lat="49.76247785612941" lon="9.514938332140446">
<ele>126.8</ele>
<time>2024-05-11T13:32:31Z</time>
</trkpt>
<trkpt lat="49.76247785612941" lon="9.514936404302716">
<ele>126.8</ele>
<time>2024-05-11T13:32:33Z</time>
</trkpt>
<trkpt lat="49.76247785612941" lon="9.514934476464989">
<ele>126.8</ele>
<time>2024-05-11T13:32:37Z</time>
</trkpt>
<trkpt lat="49.76247785612941" lon="9.514936404302716">
<ele>126.8</ele>
<time>2024-05-11T13:32:38Z</time>
</trkpt>
<trkpt lat="49.76247785612941" lon="9.514934476464989">
<ele>126.8</ele>
<time>2024-05-11T13:32:39Z</time>
</trkpt>
<trkpt lat="49.76247785612941" lon="9.514933554455638">
<ele>126.8</ele>
<time>2024-05-11T13:32:44Z</time>
</trkpt>
<trkpt lat="49.76247785612941" lon="9.514931626617908">
<ele>126.8</ele>
<time>2024-05-11T13:32:46Z</time>
</trkpt>
<trkpt lat="49.76247785612941" lon="9.51492969878018">
<ele>126.8</ele>
<time>2024-05-11T13:32:49Z</time>
</trkpt>
<trkpt lat="49.76247785612941" lon="9.51492877677083">
<ele>126.8</ele>
<time>2024-05-11T13:32:51Z</time>
</trkpt>
<trkpt lat="49.76247785612941" lon="9.5149268489331">
<ele>126.8</ele>
<time>2024-05-11T13:32:53Z</time>
</trkpt>
<trkpt lat="49.76247785612941" lon="9.514924921095371">
<ele>126.8</ele>
<time>2024-05-11T13:32:55Z</time>
</trkpt>
<trkpt lat="49.76247785612941" lon="9.5149268489331">
<ele>126.8</ele>
<time>2024-05-11T13:32:56Z</time>
</trkpt>
<trkpt lat="49.76247785612941" lon="9.514924921095371">
<ele>126.8</ele>
<time>2024-05-11T13:32:57Z</time>
</trkpt>
<trkpt lat="49.76247785612941" lon="9.5149268489331">
<ele>126.8</ele>
<time>2024-05-11T13:32:58Z</time>
</trkpt>
<trkpt lat="49.76247785612941" lon="9.51492877677083">
<ele>126.8</ele>
<time>2024-05-11T13:33:00Z</time>
</trkpt>
<trkpt lat="49.76247785612941" lon="9.51492969878018">
<ele>126.8</ele>
<time>2024-05-11T13:33:02Z</time>
</trkpt>
<trkpt lat="49.762481627985835" lon="9.51492877677083">
<ele>126.8</ele>
<time>2024-05-11T13:33:03Z</time>
</trkpt>
<trkpt lat="49.76247785612941" lon="9.51492877677083">
<ele>126.8</ele>
<time>2024-05-11T13:33:07Z</time>
</trkpt>
<trkpt lat="49.762481627985835" lon="9.51492877677083">
<ele>126.8</ele>
<time>2024-05-11T13:33:08Z</time>
</trkpt>
<trkpt lat="49.76247785612941" lon="9.51492877677083">
<ele>126.8</ele>
<time>2024-05-11T13:33:09Z</time>
</trkpt>
<trkpt lat="49.76247785612941" lon="9.5149268489331">
<ele>126.8</ele>
<time>2024-05-11T13:33:11Z</time>
</trkpt>
<trkpt lat="49.76247785612941" lon="9.51492877677083">
<ele>126.8</ele>
<time>2024-05-11T13:33:13Z</time>
</trkpt>
<trkpt lat="49.76247400045395" lon="9.51492969878018">
<ele>126.8</ele>
<time>2024-05-11T13:33:20Z</time>
</trkpt>
<trkpt lat="49.76247400045395" lon="9.514931626617908">
<ele>126.8</ele>
<time>2024-05-11T13:33:23Z</time>
</trkpt>
<trkpt lat="49.76247400045395" lon="9.51492969878018">
<ele>126.8</ele>
<time>2024-05-11T13:33:42Z</time>
</trkpt>
<trkpt lat="49.76247400045395" lon="9.51492877677083">
<ele>126.8</ele>
<time>2024-05-11T13:33:48Z</time>
</trkpt>
<trkpt lat="49.76247022859752" lon="9.5149268489331">
<ele>126.8</ele>
<time>2024-05-11T13:33:52Z</time>
</trkpt>
<trkpt lat="49.76247022859752" lon="9.514924921095371">
<ele>126.8</ele>
<time>2024-05-11T13:33:55Z</time>
</trkpt>
<trkpt lat="49.76247022859752" lon="9.514923077076674">
<ele>126.8</ele>
<time>2024-05-11T13:33:58Z</time>
</trkpt>
<trkpt lat="49.76246637292206" lon="9.514921149238944">
<ele>126.8</ele>
<time>2024-05-11T13:34:00Z</time>
</trkpt>
<trkpt lat="49.76246637292206" lon="9.514920227229595">
<ele>126.8</ele>
<time>2024-05-11T13:34:02Z</time>
</trkpt>
<trkpt lat="49.76246637292206" lon="9.514918299391866">
<ele>126.8</ele>
<time>2024-05-11T13:34:05Z</time>
</trkpt>
<trkpt lat="49.76247022859752" lon="9.514918299391866">
<ele>126.8</ele>
<time>2024-05-11T13:34:19Z</time>
</trkpt>
<trkpt lat="49.76247022859752" lon="9.514920227229595">
<ele>126.8</ele>
<time>2024-05-11T13:34:34Z</time>
</trkpt>
<trkpt lat="49.76247400045395" lon="9.514920227229595">
<ele>126.8</ele>
<time>2024-05-11T13:34:36Z</time>
</trkpt>
<trkpt lat="49.76247400045395" lon="9.514918299391866">
<ele>126.8</ele>
<time>2024-05-11T13:34:39Z</time>
</trkpt>
<trkpt lat="49.76247400045395" lon="9.514920227229595">
<ele>126.8</ele>
<time>2024-05-11T13:34:41Z</time>
</trkpt>
<trkpt lat="49.76247400045395" lon="9.514921149238944">
<ele>126.8</ele>
<time>2024-05-11T13:34:46Z</time>
</trkpt>
<trkpt lat="49.76247400045395" lon="9.514923077076674">
<ele>126.8</ele>
<time>2024-05-11T13:34:49Z</time>
</trkpt>
<trkpt lat="49.76247400045395" lon="9.514924921095371">
<ele>126.8</ele>
<time>2024-05-11T13:34:52Z</time>
</trkpt>
<trkpt lat="49.76247400045395" lon="9.5149268489331">
<ele>126.8</ele>
<time>2024-05-11T13:34:56Z</time>
</trkpt>
<trkpt lat="49.76247022859752" lon="9.51492877677083">
<ele>126.8</ele>
<time>2024-05-11T13:34:59Z</time>
</trkpt>
<trkpt lat="49.76247022859752" lon="9.51492969878018">
<ele>126.8</ele>
<time>2024-05-11T13:35:02Z</time>
</trkpt>
<trkpt lat="49.76246637292206" lon="9.51492969878018">
<ele>126.8</ele>
<time>2024-05-11T13:35:07Z</time>
</trkpt>
<trkpt lat="49.76246637292206" lon="9.51492877677083">
<ele>126.8</ele>
<time>2024-05-11T13:35:21Z</time>
</trkpt>
<trkpt lat="49.76246637292206" lon="9.51492969878018">
<ele>126.8</ele>
<time>2024-05-11T13:35:22Z</time>
</trkpt>
<trkpt lat="49.76246637292206" lon="9.514931626617908">
<ele>126.8</ele>
<time>2024-05-11T13:35:31Z</time>
</trkpt>
<trkpt lat="49.76246260106563" lon="9.514931626617908">
<ele>126.8</ele>
<time>2024-05-11T13:35:34Z</time>
</trkpt>
<trkpt lat="49.76246260106563" lon="9.514933554455638">
<ele>126.8</ele>
<time>2024-05-11T13:35:36Z</time>
</trkpt>
<trkpt lat="49.76246260106563" lon="9.514931626617908">
<ele>126.8</ele>
<time>2024-05-11T13:35:47Z</time>
</trkpt>
<trkpt lat="49.76246260106563" lon="9.51492969878018">
<ele>126.8</ele>
<time>2024-05-11T13:35:55Z</time>
</trkpt>
<trkpt lat="49.76245874539018" lon="9.51492969878018">
<ele>126.8</ele>
<time>2024-05-11T13:35:56Z</time>
</trkpt>
<trkpt lat="49.76245874539018" lon="9.51492877677083">
<ele>126.8</ele>
<time>2024-05-11T13:36:00Z</time>
</trkpt>
<trkpt lat="49.76245874539018" lon="9.5149268489331">
<ele>126.8</ele>
<time>2024-05-11T13:36:03Z</time>
</trkpt>
<trkpt lat="49.76245497353375" lon="9.5149268489331">
<ele>126.8</ele>
<time>2024-05-11T13:36:06Z</time>
</trkpt>
<trkpt lat="49.76245497353375" lon="9.514924921095371">
<ele>126.8</ele>
<time>2024-05-11T13:36:08Z</time>
</trkpt>
<trkpt lat="49.76245497353375" lon="9.514923077076674">
<ele>126.8</ele>
<time>2024-05-11T13:36:16Z</time>
</trkpt>
<trkpt lat="49.76245497353375" lon="9.514921149238944">
<ele>126.8</ele>
<time>2024-05-11T13:36:26Z</time>
</trkpt>
<trkpt lat="49.76245497353375" lon="9.514920227229595">
<ele>126.8</ele>
<time>2024-05-11T13:36:30Z</time>
</trkpt>
<trkpt lat="49.76245497353375" lon="9.514918299391866">
<ele>126.8</ele>
<time>2024-05-11T13:36:34Z</time>
</trkpt>
<trkpt lat="49.76245874539018" lon="9.514918299391866">
<ele>126.8</ele>
<time>2024-05-11T13:36:35Z</time>
</trkpt>
<trkpt lat="49.76245874539018" lon="9.514916371554136">
<ele>126.8</ele>
<time>2024-05-11T13:36:37Z</time>
</trkpt>
<trkpt lat="49.76245874539018" lon="9.514915449544787">
<ele>126.8</ele>
<time>2024-05-11T13:36:42Z</time>
</trkpt>
<trkpt lat="49.76245874539018" lon="9.514913521707058">
<ele>126.8</ele>
<time>2024-05-11T13:36:45Z</time>
</trkpt>
<trkpt lat="49.76245874539018" lon="9.514915449544787">
<ele>126.8</ele>
<time>2024-05-11T13:37:02Z</time>
</trkpt>
<trkpt lat="49.76245497353375" lon="9.514915449544787">
<ele>126.8</ele>
<time>2024-05-11T13:37:06Z</time>
</trkpt>
<trkpt lat="49.76245874539018" lon="9.514916371554136">
<ele>126.8</ele>
<time>2024-05-11T13:37:09Z</time>
</trkpt>
<trkpt lat="49.76245874539018" lon="9.514920227229595">
<ele>126.8</ele>
<time>2024-05-11T13:37:10Z</time>
</trkpt>
<trkpt lat="49.76245874539018" lon="9.514921149238944">
<ele>126.8</ele>
<time>2024-05-11T13:37:11Z</time>
</trkpt>
<trkpt lat="49.76245874539018" lon="9.514923077076674">
<ele>126.8</ele>
<time>2024-05-11T13:37:13Z</time>
</trkpt>
<trkpt lat="49.76245874539018" lon="9.514924921095371">
<ele>126.8</ele>
<time>2024-05-11T13:37:17Z</time>
</trkpt>
<trkpt lat="49.76245874539018" lon="9.514923077076674">
<ele>126.8</ele>
<time>2024-05-11T13:37:18Z</time>
</trkpt>
<trkpt lat="49.76245497353375" lon="9.514923077076674">
<ele>126.8</ele>
<time>2024-05-11T13:37:20Z</time>
</trkpt>
<trkpt lat="49.76245497353375" lon="9.514921149238944">
<ele>126.8</ele>
<time>2024-05-11T13:37:22Z</time>
</trkpt>
<trkpt lat="49.76245497353375" lon="9.514920227229595">
<ele>126.8</ele>
<time>2024-05-11T13:37:25Z</time>
</trkpt>
<trkpt lat="49.76245497353375" lon="9.514921149238944">
<ele>126.8</ele>
<time>2024-05-11T13:37:28Z</time>
</trkpt>
<trkpt lat="49.76245497353375" lon="9.514923077076674">
<ele>126.8</ele>
<time>2024-05-11T13:37:29Z</time>
</trkpt>
<trkpt lat="49.76245497353375" lon="9.514924921095371">
<ele>126.8</ele>
<time>2024-05-11T13:37:32Z</time>
</trkpt>
<trkpt lat="49.76245497353375" lon="9.5149268489331">
<ele>126.8</ele>
<time>2024-05-11T13:37:35Z</time>
</trkpt>
<trkpt lat="49.76245497353375" lon="9.51492877677083">
<ele>126.8</ele>
<time>2024-05-11T13:37:43Z</time>
</trkpt>
<trkpt lat="49.76245497353375" lon="9.51492969878018">
<ele>126.8</ele>
<time>2024-05-11T13:37:51Z</time>
</trkpt>
<trkpt lat="49.76245497353375" lon="9.514931626617908">
<ele>126.8</ele>
<time>2024-05-11T13:38:02Z</time>
</trkpt>
<trkpt lat="49.76245497353375" lon="9.51492969878018">
<ele>126.8</ele>
<time>2024-05-11T13:38:10Z</time>
</trkpt>
<trkpt lat="49.76245874539018" lon="9.514931626617908">
<ele>126.8</ele>
<time>2024-05-11T13:38:12Z</time>
</trkpt>
<trkpt lat="49.76245874539018" lon="9.514933554455638">
<ele>126.8</ele>
<time>2024-05-11T13:38:15Z</time>
</trkpt>
<trkpt lat="49.76245874539018" lon="9.514934476464989">
<ele>126.8</ele>
<time>2024-05-11T13:38:23Z</time>
</trkpt>
<trkpt lat="49.76245874539018" lon="9.514936404302716">
<ele>126.8</ele>
<time>2024-05-11T13:38:27Z</time>
</trkpt>
<trkpt lat="49.76245874539018" lon="9.514938332140446">
<ele>126.8</ele>
<time>2024-05-11T13:38:29Z</time>
</trkpt>
<trkpt lat="49.76245874539018" lon="9.514940259978175">
<ele>126.8</ele>
<time>2024-05-11T13:38:32Z</time>
</trkpt>
<trkpt lat="49.76245874539018" lon="9.514942103996871">
<ele>126.8</ele>
<time>2024-05-11T13:38:36Z</time>
</trkpt>
<trkpt lat="49.76245874539018" lon="9.514940259978175">
<ele>126.8</ele>
<time>2024-05-11T13:38:41Z</time>
</trkpt>
<trkpt lat="49.76245874539018" lon="9.514938332140446">
<ele>126.8</ele>
<time>2024-05-11T13:38:42Z</time>
</trkpt>
<trkpt lat="49.76245497353375" lon="9.514938332140446">
<ele>126.8</ele>
<time>2024-05-11T13:38:47Z</time>
</trkpt>
<trkpt lat="49.76245874539018" lon="9.514938332140446">
<ele>126.8</ele>
<time>2024-05-11T13:38:50Z</time>
</trkpt>
<trkpt lat="49.76245874539018" lon="9.514936404302716">
<ele>126.8</ele>
<time>2024-05-11T13:38:52Z</time>
</trkpt>
<trkpt lat="49.76245497353375" lon="9.514931626617908">
<ele>126.8</ele>
<time>2024-05-11T13:38:53Z</time>
</trkpt>
<trkpt lat="49.76244734600186" lon="9.514924921095371">
<ele>126.8</ele>
<time>2024-05-11T13:38:54Z</time>
</trkpt>
<trkpt lat="49.76243586279452" lon="9.514918299391866">
<ele>126.8</ele>
<time>2024-05-11T13:38:55Z</time>
</trkpt>
<trkpt lat="49.762420607730746" lon="9.5149096660316">
<ele>126.8</ele>
<time>2024-05-11T13:38:56Z</time>
</trkpt>
<trkpt lat="49.76240158081055" lon="9.51490681618452">
<ele>126.8</ele>
<time>2024-05-11T13:38:57Z</time>
</trkpt>
<trkpt lat="49.76238247007131" lon="9.5149078220129">
<ele>126.8</ele>
<time>2024-05-11T13:38:58Z</time>
</trkpt>
<trkpt lat="49.762363359332085" lon="9.514911593869328">
<ele>126.8</ele>
<time>2024-05-11T13:38:59Z</time>
</trkpt>
<trkpt lat="49.762340476736426" lon="9.51492969878018">
<ele>126.8</ele>
<time>2024-05-11T13:39:01Z</time>
</trkpt>
<trkpt lat="49.76229856722057" lon="9.514978397637606">
<ele>126.8</ele>
<time>2024-05-11T13:39:02Z</time>
</trkpt>
<trkpt lat="49.7622833121568" lon="9.515005052089691">
<ele>126.8</ele>
<time>2024-05-11T13:39:03Z</time>
</trkpt>
<trkpt lat="49.762268057093024" lon="9.51502986252308">
<ele>126.8</ele>
<time>2024-05-11T13:39:04Z</time>
</trkpt>
<trkpt lat="49.76225280202925" lon="9.515053667128086">
<ele>126.8</ele>
<time>2024-05-11T13:39:05Z</time>
</trkpt>
<trkpt lat="49.76223754696548" lon="9.515076633542776">
<ele>126.8</ele>
<time>2024-05-11T13:39:06Z</time>
</trkpt>
<trkpt lat="49.76220318116248" lon="9.515132876113055">
<ele>126.8</ele>
<time>2024-05-11T13:39:09Z</time>
</trkpt>
<trkpt lat="49.76217267103493" lon="9.515185346826913">
<ele>126.8</ele>
<time>2024-05-11T13:39:10Z</time>
</trkpt>
<trkpt lat="49.7621535602957" lon="9.515212001278996">
<ele>126.8</ele>
<time>2024-05-11T13:39:11Z</time>
</trkpt>
<trkpt lat="49.76213830523193" lon="9.515238739550114">
<ele>126.8</ele>
<time>2024-05-11T13:39:12Z</time>
</trkpt>
<trkpt lat="49.76212305016816" lon="9.515261622145772">
<ele>126.8</ele>
<time>2024-05-11T13:39:13Z</time>
</trkpt>
<trkpt lat="49.762107795104384" lon="9.51528542675078">
<ele>126.8</ele>
<time>2024-05-11T13:39:14Z</time>
</trkpt>
<trkpt lat="49.762088768184185" lon="9.515310237184169">
<ele>126.8</ele>
<time>2024-05-11T13:39:15Z</time>
</trkpt>
<trkpt lat="49.76206588558853" lon="9.51532356441021">
<ele>126.8</ele>
<time>2024-05-11T13:39:16Z</time>
</trkpt>
<trkpt lat="49.762046774849296" lon="9.515328342095016">
<ele>126.8</ele>
<time>2024-05-11T13:39:17Z</time>
</trkpt>
<trkpt lat="49.762027664110065" lon="9.51532457023859">
<ele>126.8</ele>
<time>2024-05-11T13:39:18Z</time>
</trkpt>
<trkpt lat="49.76201626472175" lon="9.515313087031243">
<ele>126.8</ele>
<time>2024-05-11T13:39:19Z</time>
</trkpt>
<trkpt lat="49.762004781514406" lon="9.515296909958124">
<ele>126.8</ele>
<time>2024-05-11T13:39:20Z</time>
</trkpt>
<trkpt lat="49.76199715398252" lon="9.515277799218891">
<ele>126.8</ele>
<time>2024-05-11T13:39:21Z</time>
</trkpt>
<trkpt lat="49.76199338212609" lon="9.515258772298694">
<ele>126.8</ele>
<time>2024-05-11T13:39:22Z</time>
</trkpt>
<trkpt lat="49.76198575459421" lon="9.515241589397192">
<ele>126.8</ele>
<time>2024-05-11T13:39:23Z</time>
</trkpt>
<trkpt lat="49.761970499530435" lon="9.51522633433342">
<ele>126.8</ele>
<time>2024-05-11T13:39:24Z</time>
</trkpt>
<trkpt lat="49.76195524446666" lon="9.515205379575493">
<ele>126.8</ele>
<time>2024-05-11T13:39:25Z</time>
</trkpt>
<trkpt lat="49.76194376125932" lon="9.51518626883626">
<ele>126.8</ele>
<time>2024-05-11T13:39:26Z</time>
</trkpt>
<trkpt lat="49.76193998940289" lon="9.51517009176314">
<ele>126.8</ele>
<time>2024-05-11T13:39:27Z</time>
</trkpt>
<trkpt lat="49.761928506195545" lon="9.515151903033257">
<ele>126.8</ele>
<time>2024-05-11T13:39:28Z</time>
</trkpt>
<trkpt lat="49.761897996068" lon="9.51516623608768">
<ele>126.8</ele>
<time>2024-05-11T13:39:29Z</time>
</trkpt>
<trkpt lat="49.76187511347234" lon="9.5151462033391">
<ele>126.8</ele>
<time>2024-05-11T13:39:30Z</time>
</trkpt>
<trkpt lat="49.761848375201225" lon="9.515116615220904">
<ele>126.8</ele>
<time>2024-05-11T13:39:31Z</time>
</trkpt>
<trkpt lat="49.76182172074914" lon="9.515101360157132">
<ele>126.8</ele>
<time>2024-05-11T13:39:32Z</time>
</trkpt>
<trkpt lat="49.76179498247802" lon="9.515096582472324">
<ele>126.8</ele>
<time>2024-05-11T13:39:33Z</time>
</trkpt>
<trkpt lat="49.76176832802594" lon="9.51510613784194">
<ele>126.8</ele>
<time>2024-05-11T13:39:34Z</time>
</trkpt>
<trkpt lat="49.76174158975482" lon="9.515123320743442">
<ele>126.8</ele>
<time>2024-05-11T13:39:35Z</time>
</trkpt>
<trkpt lat="49.761714935302734" lon="9.51513002626598">
<ele>126.8</ele>
<time>2024-05-11T13:39:36Z</time>
</trkpt>
<trkpt lat="49.76168819703162" lon="9.515138575807214">
<ele>126.8</ele>
<time>2024-05-11T13:39:37Z</time>
</trkpt>
<trkpt lat="49.76165768690407" lon="9.515152908861635">
<ele>126.8</ele>
<time>2024-05-11T13:39:38Z</time>
</trkpt>
<trkpt lat="49.76162717677653" lon="9.51517009176314">
<ele>126.8</ele>
<time>2024-05-11T13:39:39Z</time>
</trkpt>
<trkpt lat="49.761596666648984" lon="9.515183418989182">
<ele>126.8</ele>
<time>2024-05-11T13:39:40Z</time>
</trkpt>
<trkpt lat="49.76156230084598" lon="9.51518819667399">
<ele>126.8</ele>
<time>2024-05-11T13:39:41Z</time>
</trkpt>
<trkpt lat="49.76153179071843" lon="9.515185346826913">
<ele>126.8</ele>
<time>2024-05-11T13:39:42Z</time>
</trkpt>
<trkpt lat="49.76149742491543" lon="9.515171935781837">
<ele>126.8</ele>
<time>2024-05-11T13:39:43Z</time>
</trkpt>
<trkpt lat="49.76146314293146" lon="9.515152908861635">
<ele>126.8</ele>
<time>2024-05-11T13:39:44Z</time>
</trkpt>
<trkpt lat="49.761436404660344" lon="9.515125248581173">
<ele>126.8</ele>
<time>2024-05-11T13:39:45Z</time>
</trkpt>
<trkpt lat="49.76140975020826" lon="9.515092810615895">
<ele>126.8</ele>
<time>2024-05-11T13:39:46Z</time>
</trkpt>
<trkpt lat="49.7613868676126" lon="9.515060372650623">
<ele>126.8</ele>
<time>2024-05-11T13:39:47Z</time>
</trkpt>
<trkpt lat="49.76136775687337" lon="9.515021312981844">
<ele>126.8</ele>
<time>2024-05-11T13:39:49Z</time>
</trkpt>
<trkpt lat="49.76134487427771" lon="9.514956437051296">
<ele>126.8</ele>
<time>2024-05-11T13:39:50Z</time>
</trkpt>
<trkpt lat="49.761337246745825" lon="9.514931626617908">
<ele>126.8</ele>
<time>2024-05-11T13:39:51Z</time>
</trkpt>
<trkpt lat="49.76132961921394" lon="9.514911593869328">
<ele>126.8</ele>
<time>2024-05-11T13:39:52Z</time>
</trkpt>
<trkpt lat="49.76132199168205" lon="9.514895416796207">
<ele>126.8</ele>
<time>2024-05-11T13:39:53Z</time>
</trkpt>
<trkpt lat="49.761318136006594" lon="9.514882005751131">
<ele>126.8</ele>
<time>2024-05-11T13:39:54Z</time>
</trkpt>
<trkpt lat="49.761318136006594" lon="9.514873456209898">
<ele>126.8</ele>
<time>2024-05-11T13:39:55Z</time>
</trkpt>
<trkpt lat="49.761318136006594" lon="9.514864906668665">
<ele>126.8</ele>
<time>2024-05-11T13:39:56Z</time>
</trkpt>
<trkpt lat="49.76131436415017" lon="9.514853423461318">
<ele>126.8</ele>
<time>2024-05-11T13:39:57Z</time>
</trkpt>
<trkpt lat="49.76130673661828" lon="9.514840096235275">
<ele>126.8</ele>
<time>2024-05-11T13:39:58Z</time>
</trkpt>
<trkpt lat="49.761299109086394" lon="9.514818135648966">
<ele>126.8</ele>
<time>2024-05-11T13:39:59Z</time>
</trkpt>
<trkpt lat="49.76128385402262" lon="9.514806736260653">
<ele>126.8</ele>
<time>2024-05-11T13:40:00Z</time>
</trkpt>
<trkpt lat="49.76126474328339" lon="9.514793325215578">
<ele>126.8</ele>
<time>2024-05-11T13:40:01Z</time>
</trkpt>
<trkpt lat="49.761238088831306" lon="9.514775220304728">
<ele>126.8</ele>
<time>2024-05-11T13:40:02Z</time>
</trkpt>
<trkpt lat="49.76121135056019" lon="9.514762815088034">
<ele>126.8</ele>
<time>2024-05-11T13:40:03Z</time>
</trkpt>
<trkpt lat="49.761176984757185" lon="9.514759965240955">
<ele>126.8</ele>
<time>2024-05-11T13:40:04Z</time>
</trkpt>
<trkpt lat="49.76114647462964" lon="9.514764742925763">
<ele>126.8</ele>
<time>2024-05-11T13:40:05Z</time>
</trkpt>
<trkpt lat="49.76111219264567" lon="9.514773292466998">
<ele>126.8</ele>
<time>2024-05-11T13:40:06Z</time>
</trkpt>
<trkpt lat="49.761077826842666" lon="9.514781925827265">
<ele>126.8</ele>
<time>2024-05-11T13:40:07Z</time>
</trkpt>
<trkpt lat="49.76103591732681" lon="9.514798102900386">
<ele>126.8</ele>
<time>2024-05-11T13:40:08Z</time>
</trkpt>
<trkpt lat="49.76099392399192" lon="9.514813357964158">
<ele>126.8</ele>
<time>2024-05-11T13:40:09Z</time>
</trkpt>
<trkpt lat="49.76095193065703" lon="9.514831462875009">
<ele>126.8</ele>
<time>2024-05-11T13:40:10Z</time>
</trkpt>
<trkpt lat="49.76091002114117" lon="9.514842946082354">
<ele>126.8</ele>
<time>2024-05-11T13:40:11Z</time>
</trkpt>
<trkpt lat="49.76086802780628" lon="9.514860128983855">
<ele>126.8</ele>
<time>2024-05-11T13:40:12Z</time>
</trkpt>
<trkpt lat="49.760822262614965" lon="9.51486968435347">
<ele>126.8</ele>
<time>2024-05-11T13:40:13Z</time>
</trkpt>
<trkpt lat="49.76078026928008" lon="9.514882005751131">
<ele>126.8</ele>
<time>2024-05-11T13:40:14Z</time>
</trkpt>
<trkpt lat="49.760742131620646" lon="9.514900194481015">
<ele>126.8</ele>
<time>2024-05-11T13:40:15Z</time>
</trkpt>
<trkpt lat="49.760703993961215" lon="9.514915449544787">
<ele>126.8</ele>
<time>2024-05-11T13:40:17Z</time>
</trkpt>
<trkpt lat="49.76063149049878" lon="9.51494973152876">
<ele>126.8</ele>
<time>2024-05-11T13:40:18Z</time>
</trkpt>
<trkpt lat="49.76059335283935" lon="9.51496691443026">
<ele>127</ele>
<time>2024-05-11T13:40:19Z</time>
</trkpt>
<trkpt lat="49.76055144332349" lon="9.514985019341111">
<ele>127</ele>
<time>2024-05-11T13:40:20Z</time>
</trkpt>
<trkpt lat="49.76051330566406" lon="9.515003124251962">
<ele>127</ele>
<time>2024-05-11T13:40:21Z</time>
</trkpt>
<trkpt lat="49.7604750841856" lon="9.515021312981844">
<ele>126.8</ele>
<time>2024-05-11T13:40:22Z</time>
</trkpt>
<trkpt lat="49.76044080220163" lon="9.515045117586851">
<ele>126.8</ele>
<time>2024-05-11T13:40:23Z</time>
</trkpt>
<trkpt lat="49.76037592627108" lon="9.51506992802024">
<ele>126.8</ele>
<time>2024-05-11T13:40:25Z</time>
</trkpt>
<trkpt lat="49.760349271818995" lon="9.515079483389854">
<ele>126.8</ele>
<time>2024-05-11T13:40:26Z</time>
</trkpt>
<trkpt lat="49.76032253354788" lon="9.515092810615895">
<ele>126.8</ele>
<time>2024-05-11T13:40:27Z</time>
</trkpt>
<trkpt lat="49.76029965095222" lon="9.515105215832593">
<ele>126.8</ele>
<time>2024-05-11T13:40:29Z</time>
</trkpt>
<trkpt lat="49.76025003008544" lon="9.51513002626598">
<ele>127</ele>
<time>2024-05-11T13:40:30Z</time>
</trkpt>
<trkpt lat="49.760231003165245" lon="9.515141425654292">
<ele>127</ele>
<time>2024-05-11T13:40:31Z</time>
</trkpt>
<trkpt lat="49.76020812056959" lon="9.515151903033257">
<ele>127</ele>
<time>2024-05-11T13:40:32Z</time>
</trkpt>
<trkpt lat="49.760192865505815" lon="9.51516623608768">
<ele>127</ele>
<time>2024-05-11T13:40:33Z</time>
</trkpt>
<trkpt lat="49.76016998291016" lon="9.515174785628917">
<ele>126.8</ele>
<time>2024-05-11T13:40:34Z</time>
</trkpt>
<trkpt lat="49.76015464402735" lon="9.515181491151452">
<ele>126.8</ele>
<time>2024-05-11T13:40:35Z</time>
</trkpt>
<trkpt lat="49.76013938896358" lon="9.515185346826913">
<ele>126.8</ele>
<time>2024-05-11T13:40:36Z</time>
</trkpt>
<trkpt lat="49.760131761431694" lon="9.515191968530416">
<ele>126.8</ele>
<time>2024-05-11T13:40:37Z</time>
</trkpt>
<trkpt lat="49.76012798957527" lon="9.51519012451172">
<ele>126.8</ele>
<time>2024-05-11T13:40:38Z</time>
</trkpt>
<trkpt lat="49.760131761431694" lon="9.51518819667399">
<ele>126.8</ele>
<time>2024-05-11T13:40:39Z</time>
</trkpt>
<trkpt lat="49.760131761431694" lon="9.51518626883626">
<ele>127</ele>
<time>2024-05-11T13:40:40Z</time>
</trkpt>
<trkpt lat="49.76013561710715" lon="9.515185346826913">
<ele>127</ele>
<time>2024-05-11T13:40:41Z</time>
</trkpt>
<trkpt lat="49.76013561710715" lon="9.51518626883626">
<ele>127</ele>
<time>2024-05-11T13:40:42Z</time>
</trkpt>
<trkpt lat="49.76013561710715" lon="9.515185346826913">
<ele>127.2</ele>
<time>2024-05-11T13:40:43Z</time>
</trkpt>
<trkpt lat="49.76013938896358" lon="9.51518626883626">
<ele>127.4</ele>
<time>2024-05-11T13:40:44Z</time>
</trkpt>
<trkpt lat="49.76013938896358" lon="9.51519012451172">
<ele>127.6</ele>
<time>2024-05-11T13:40:45Z</time>
</trkpt>
<trkpt lat="49.76013561710715" lon="9.515196746215224">
<ele>127.8</ele>
<time>2024-05-11T13:40:47Z</time>
</trkpt>
<trkpt lat="49.76013561710715" lon="9.515198674052954">
<ele>128</ele>
<time>2024-05-11T13:40:48Z</time>
</trkpt>
<trkpt lat="49.76013561710715" lon="9.515199596062304">
<ele>128.2</ele>
<time>2024-05-11T13:40:50Z</time>
</trkpt>
<trkpt lat="49.76013561710715" lon="9.51520345173776">
<ele>128.2</ele>
<time>2024-05-11T13:40:51Z</time>
</trkpt>
<trkpt lat="49.76013561710715" lon="9.51520822942257">
<ele>128.399</ele>
<time>2024-05-11T13:40:52Z</time>
</trkpt>
<trkpt lat="49.76013561710715" lon="9.515212001278996">
<ele>128.399</ele>
<time>2024-05-11T13:40:53Z</time>
</trkpt>
<trkpt lat="49.76013561710715" lon="9.515216778963804">
<ele>128.399</ele>
<time>2024-05-11T13:40:54Z</time>
</trkpt>
<trkpt lat="49.76013561710715" lon="9.515218706801534">
<ele>128.399</ele>
<time>2024-05-11T13:40:55Z</time>
</trkpt>
<trkpt lat="49.76012798957527" lon="9.515218706801534">
<ele>128.399</ele>
<time>2024-05-11T13:40:56Z</time>
</trkpt>
<trkpt lat="49.76011650636792" lon="9.51522348448634">
<ele>128.399</ele>
<time>2024-05-11T13:40:57Z</time>
</trkpt>
<trkpt lat="49.76010510697961" lon="9.515236811712384">
<ele>128.399</ele>
<time>2024-05-11T13:40:58Z</time>
</trkpt>
<trkpt lat="49.76008985191584" lon="9.515241589397192">
<ele>128.399</ele>
<time>2024-05-11T13:40:59Z</time>
</trkpt>
<trkpt lat="49.76006311364472" lon="9.515270171687009">
<ele>128.399</ele>
<time>2024-05-11T13:41:00Z</time>
</trkpt>
<trkpt lat="49.76004023104906" lon="9.51528542675078">
<ele>128.399</ele>
<time>2024-05-11T13:41:01Z</time>
</trkpt>
<trkpt lat="49.760013576596975" lon="9.51528643257916">
<ele>128.399</ele>
<time>2024-05-11T13:41:02Z</time>
</trkpt>
<trkpt lat="49.75998683832586" lon="9.515296909958124">
<ele>128.399</ele>
<time>2024-05-11T13:41:03Z</time>
</trkpt>
<trkpt lat="49.7599639557302" lon="9.515288276597856">
<ele>128.6</ele>
<time>2024-05-11T13:41:04Z</time>
</trkpt>
<trkpt lat="49.759952472522855" lon="9.515273021534083">
<ele>128.6</ele>
<time>2024-05-11T13:41:05Z</time>
</trkpt>
<trkpt lat="49.75994484499097" lon="9.515236811712384">
<ele>128.8</ele>
<time>2024-05-11T13:41:06Z</time>
</trkpt>
<trkpt lat="49.759933445602655" lon="9.515213007107375">
<ele>129</ele>
<time>2024-05-11T13:41:07Z</time>
</trkpt>
<trkpt lat="49.75991819053888" lon="9.515179563313724">
<ele>129</ele>
<time>2024-05-11T13:41:08Z</time>
</trkpt>
<trkpt lat="49.75989907979965" lon="9.515139497816564">
<ele>129.2</ele>
<time>2024-05-11T13:41:09Z</time>
</trkpt>
<trkpt lat="49.75988768041134" lon="9.515094738453628">
<ele>129.2</ele>
<time>2024-05-11T13:41:10Z</time>
</trkpt>
<trkpt lat="49.759876197203994" lon="9.515045117586851">
<ele>129.2</ele>
<time>2024-05-11T13:41:11Z</time>
</trkpt>
<trkpt lat="49.75986479781568" lon="9.514993652701378">
<ele>129.399</ele>
<time>2024-05-11T13:41:12Z</time>
</trkpt>
<trkpt lat="49.759857170283794" lon="9.514943109825252">
<ele>129.399</ele>
<time>2024-05-11T13:41:13Z</time>
</trkpt>
<trkpt lat="49.75984954275191" lon="9.514891561120749">
<ele>129.399</ele>
<time>2024-05-11T13:41:14Z</time>
</trkpt>
<trkpt lat="49.75983805954456" lon="9.514838168397546">
<ele>129.399</ele>
<time>2024-05-11T13:41:15Z</time>
</trkpt>
<trkpt lat="49.75982666015625" lon="9.514784775674345">
<ele>129.399</ele>
<time>2024-05-11T13:41:16Z</time>
</trkpt>
<trkpt lat="49.75981894880533" lon="9.514735154807568">
<ele>129.399</ele>
<time>2024-05-11T13:41:17Z</time>
</trkpt>
<trkpt lat="49.759811321273446" lon="9.514681762084363">
<ele>129.399</ele>
<time>2024-05-11T13:41:18Z</time>
</trkpt>
<trkpt lat="49.75979992188513" lon="9.514630297198892">
<ele>129.399</ele>
<time>2024-05-11T13:41:19Z</time>
</trkpt>
<trkpt lat="49.75979992188513" lon="9.514577826485038">
<ele>129.399</ele>
<time>2024-05-11T13:41:20Z</time>
</trkpt>
<trkpt lat="49.75979992188513" lon="9.514528205618262">
<ele>129.399</ele>
<time>2024-05-11T13:41:21Z</time>
</trkpt>
<trkpt lat="49.75980754941702" lon="9.514478668570518">
<ele>129.399</ele>
<time>2024-05-11T13:41:22Z</time>
</trkpt>
<trkpt lat="49.759815176948905" lon="9.514426197856665">
<ele>129.399</ele>
<time>2024-05-11T13:41:23Z</time>
</trkpt>
<trkpt lat="49.75981894880533" lon="9.51437657698989">
<ele>129.399</ele>
<time>2024-05-11T13:41:24Z</time>
</trkpt>
<trkpt lat="49.75983805954456" lon="9.514329889789224">
<ele>129.6</ele>
<time>2024-05-11T13:41:25Z</time>
</trkpt>
<trkpt lat="49.75986479781568" lon="9.5142983738333">
<ele>129.6</ele>
<time>2024-05-11T13:41:26Z</time>
</trkpt>
<trkpt lat="49.75989907979965" lon="9.514274569228292">
<ele>129.6</ele>
<time>2024-05-11T13:41:27Z</time>
</trkpt>
<trkpt lat="49.75993721745908" lon="9.514249758794904">
<ele>129.6</ele>
<time>2024-05-11T13:41:28Z</time>
</trkpt>
<trkpt lat="49.75997535511851" lon="9.514224948361516">
<ele>129.6</ele>
<time>2024-05-11T13:41:29Z</time>
</trkpt>
<trkpt lat="49.76002120412886" lon="9.51419829390943">
<ele>129.6</ele>
<time>2024-05-11T13:41:30Z</time>
</trkpt>
<trkpt lat="49.760070741176605" lon="9.514168705791237">
<ele>129.8</ele>
<time>2024-05-11T13:41:31Z</time>
</trkpt>
<trkpt lat="49.76012036204338" lon="9.51413626782596">
<ele>129.8</ele>
<time>2024-05-11T13:41:32Z</time>
</trkpt>
<trkpt lat="49.76018138229847" lon="9.51409813016653">
<ele>129.8</ele>
<time>2024-05-11T13:41:33Z</time>
</trkpt>
<trkpt lat="49.76023863069713" lon="9.51405806466937">
<ele>129.8</ele>
<time>2024-05-11T13:41:34Z</time>
</trkpt>
<trkpt lat="49.76029579527676" lon="9.514017077162862">
<ele>129.6</ele>
<time>2024-05-11T13:41:35Z</time>
</trkpt>
<trkpt lat="49.76035304367542" lon="9.513975083827972">
<ele>129.6</ele>
<time>2024-05-11T13:41:36Z</time>
</trkpt>
<trkpt lat="49.76041029207408" lon="9.513931246474383">
<ele>129.399</ele>
<time>2024-05-11T13:41:37Z</time>
</trkpt>
<trkpt lat="49.760467456653714" lon="9.513893108814957">
<ele>129</ele>
<time>2024-05-11T13:41:38Z</time>
</trkpt>
<trkpt lat="49.760524705052376" lon="9.513853043317797">
<ele>128.8</ele>
<time>2024-05-11T13:41:39Z</time>
</trkpt>
<trkpt lat="49.76057047024369" lon="9.513816833496094">
<ele>128.8</ele>
<time>2024-05-11T13:41:40Z</time>
</trkpt>
<trkpt lat="49.76061623543501" lon="9.513778612017632">
<ele>128.6</ele>
<time>2024-05-11T13:41:41Z</time>
</trkpt>
<trkpt lat="49.76065437309444" lon="9.51374332420528">
<ele>128.399</ele>
<time>2024-05-11T13:41:42Z</time>
</trkpt>
<trkpt lat="49.7606925945729" lon="9.513705186545849">
<ele>128.399</ele>
<time>2024-05-11T13:41:43Z</time>
</trkpt>
<trkpt lat="49.76071924902499" lon="9.513667048886418">
<ele>128.399</ele>
<time>2024-05-11T13:41:44Z</time>
</trkpt>
<trkpt lat="49.760742131620646" lon="9.513636538758874">
<ele>128.399</ele>
<time>2024-05-11T13:41:45Z</time>
</trkpt>
<trkpt lat="49.76076886989176" lon="9.513609884306788">
<ele>128.399</ele>
<time>2024-05-11T13:41:46Z</time>
</trkpt>
<trkpt lat="49.76079175248742" lon="9.513581218197942">
<ele>128.399</ele>
<time>2024-05-11T13:41:47Z</time>
</trkpt>
<trkpt lat="49.76081077940762" lon="9.513556407764554">
<ele>128.6</ele>
<time>2024-05-11T13:41:48Z</time>
</trkpt>
<trkpt lat="49.76082989014685" lon="9.513534530997276">
<ele>128.6</ele>
<time>2024-05-11T13:41:49Z</time>
</trkpt>
<trkpt lat="49.760841289535165" lon="9.513515420258043">
<ele>128.8</ele>
<time>2024-05-11T13:41:50Z</time>
</trkpt>
<trkpt lat="49.76085662841797" lon="9.513495387509463">
<ele>128.8</ele>
<time>2024-05-11T13:41:51Z</time>
</trkpt>
<trkpt lat="49.76087188348174" lon="9.513476360589266">
<ele>128.8</ele>
<time>2024-05-11T13:41:52Z</time>
</trkpt>
<trkpt lat="49.76088713854551" lon="9.513455322012303">
<ele>129</ele>
<time>2024-05-11T13:41:53Z</time>
</trkpt>
<trkpt lat="49.7608947660774" lon="9.51342673972249">
<ele>129</ele>
<time>2024-05-11T13:41:54Z</time>
</trkpt>
<trkpt lat="49.76091002114117" lon="9.513396229594946">
<ele>129</ele>
<time>2024-05-11T13:41:55Z</time>
</trkpt>
<trkpt lat="49.760925276204944" lon="9.513371419161558">
<ele>129.2</ele>
<time>2024-05-11T13:41:56Z</time>
</trkpt>
<trkpt lat="49.76094430312514" lon="9.513344764709473">
<ele>129.399</ele>
<time>2024-05-11T13:41:57Z</time>
</trkpt>
<trkpt lat="49.76097104139626" lon="9.513319954276083">
<ele>129.399</ele>
<time>2024-05-11T13:41:58Z</time>
</trkpt>
<trkpt lat="49.761001551523805" lon="9.513297993689775">
<ele>129.399</ele>
<time>2024-05-11T13:41:59Z</time>
</trkpt>
<trkpt lat="49.76102828979492" lon="9.513273183256388">
<ele>129.6</ele>
<time>2024-05-11T13:42:00Z</time>
</trkpt>
<trkpt lat="49.76104731671512" lon="9.51325030066073">
<ele>129.6</ele>
<time>2024-05-11T13:42:01Z</time>
</trkpt>
<trkpt lat="49.76107019931078" lon="9.51323026791215">
<ele>129.6</ele>
<time>2024-05-11T13:42:02Z</time>
</trkpt>
<trkpt lat="49.76109308190644" lon="9.51320830732584">
<ele>129.6</ele>
<time>2024-05-11T13:42:03Z</time>
</trkpt>
<trkpt lat="49.761115964502096" lon="9.513185424730182">
<ele>129.6</ele>
<time>2024-05-11T13:42:04Z</time>
</trkpt>
<trkpt lat="49.761138847097754" lon="9.513159692287443">
<ele>129.6</ele>
<time>2024-05-11T13:42:05Z</time>
</trkpt>
<trkpt lat="49.76116172969341" lon="9.513136809691789">
<ele>129.6</ele>
<time>2024-05-11T13:42:06Z</time>
</trkpt>
<trkpt lat="49.76118084043264" lon="9.513114849105476">
<ele>129.6</ele>
<time>2024-05-11T13:42:07Z</time>
</trkpt>
<trkpt lat="49.761199951171875" lon="9.5130929723382">
<ele>129.6</ele>
<time>2024-05-11T13:42:08Z</time>
</trkpt>
<trkpt lat="49.76121520623565" lon="9.51307193376124">
<ele>129.6</ele>
<time>2024-05-11T13:42:09Z</time>
</trkpt>
<trkpt lat="49.76123046129942" lon="9.513054834678767">
<ele>129.6</ele>
<time>2024-05-11T13:42:10Z</time>
</trkpt>
<trkpt lat="49.76124571636319" lon="9.513038573786616">
<ele>129.6</ele>
<time>2024-05-11T13:42:11Z</time>
</trkpt>
<trkpt lat="49.76126097142696" lon="9.513021390885116">
<ele>129.6</ele>
<time>2024-05-11T13:42:12Z</time>
</trkpt>
<trkpt lat="49.76127237081528" lon="9.513003285974264">
<ele>129.6</ele>
<time>2024-05-11T13:42:13Z</time>
</trkpt>
<trkpt lat="49.76128385402262" lon="9.512988030910492">
<ele>129.6</ele>
<time>2024-05-11T13:42:14Z</time>
</trkpt>
<trkpt lat="49.761299109086394" lon="9.5129737816751">
<ele>129.6</ele>
<time>2024-05-11T13:42:15Z</time>
</trkpt>
<trkpt lat="49.76131050847471" lon="9.512958526611328">
<ele>129.6</ele>
<time>2024-05-11T13:42:16Z</time>
</trkpt>
<trkpt lat="49.761318136006594" lon="9.512947043403983">
<ele>129.6</ele>
<time>2024-05-11T13:42:17Z</time>
</trkpt>
<trkpt lat="49.76132961921394" lon="9.512938493862748">
<ele>129.6</ele>
<time>2024-05-11T13:42:18Z</time>
</trkpt>
<trkpt lat="49.76134101860225" lon="9.512927932664752">
<ele>129.6</ele>
<time>2024-05-11T13:42:19Z</time>
</trkpt>
<trkpt lat="49.76134864613414" lon="9.512918461114168">
<ele>129.6</ele>
<time>2024-05-11T13:42:20Z</time>
</trkpt>
<trkpt lat="49.76136390119791" lon="9.512905050069094">
<ele>129.6</ele>
<time>2024-05-11T13:42:21Z</time>
</trkpt>
<trkpt lat="49.761375384405255" lon="9.51289457269013">
<ele>129.6</ele>
<time>2024-05-11T13:42:22Z</time>
</trkpt>
<trkpt lat="49.7613868676126" lon="9.512886945158243">
<ele>129.6</ele>
<time>2024-05-11T13:42:23Z</time>
</trkpt>
<trkpt lat="49.761398267000914" lon="9.512878395617008">
<ele>129.6</ele>
<time>2024-05-11T13:42:24Z</time>
</trkpt>
<trkpt lat="49.76140975020826" lon="9.5128736179322">
<ele>129.6</ele>
<time>2024-05-11T13:42:25Z</time>
</trkpt>
<trkpt lat="49.76142114959657" lon="9.512871690094473">
<ele>129.6</ele>
<time>2024-05-11T13:42:26Z</time>
</trkpt>
<trkpt lat="49.761436404660344" lon="9.512864984571934">
<ele>129.6</ele>
<time>2024-05-11T13:42:27Z</time>
</trkpt>
<trkpt lat="49.76144403219223" lon="9.512849729508162">
<ele>129.6</ele>
<time>2024-05-11T13:42:28Z</time>
</trkpt>
<trkpt lat="49.76145165972411" lon="9.512829780578612">
<ele>129.6</ele>
<time>2024-05-11T13:42:29Z</time>
</trkpt>
<trkpt lat="49.761459287256" lon="9.512807819992304">
<ele>129.6</ele>
<time>2024-05-11T13:42:30Z</time>
</trkpt>
<trkpt lat="49.76146314293146" lon="9.512786865234377">
<ele>129.6</ele>
<time>2024-05-11T13:42:31Z</time>
</trkpt>
<trkpt lat="49.761459287256" lon="9.512764904648066">
<ele>129.6</ele>
<time>2024-05-11T13:42:32Z</time>
</trkpt>
<trkpt lat="49.761455515399575" lon="9.512742944061756">
<ele>129.6</ele>
<time>2024-05-11T13:42:33Z</time>
</trkpt>
<trkpt lat="49.76145165972411" lon="9.512724839150906">
<ele>129.6</ele>
<time>2024-05-11T13:42:34Z</time>
</trkpt>
<trkpt lat="49.7614402603358" lon="9.512698100879788">
<ele>129.6</ele>
<time>2024-05-11T13:42:35Z</time>
</trkpt>
<trkpt lat="49.76142877712846" lon="9.512673374265432">
<ele>129.6</ele>
<time>2024-05-11T13:42:36Z</time>
</trkpt>
<trkpt lat="49.761417377740145" lon="9.51265518553555">
<ele>129.6</ele>
<time>2024-05-11T13:42:37Z</time>
</trkpt>
<trkpt lat="49.76140212267637" lon="9.51263808645308">
<ele>129.6</ele>
<time>2024-05-11T13:42:38Z</time>
</trkpt>
<trkpt lat="49.7613868676126" lon="9.512622831389308">
<ele>129.6</ele>
<time>2024-05-11T13:42:39Z</time>
</trkpt>
<trkpt lat="49.76137161254883" lon="9.512604642659426">
<ele>129.6</ele>
<time>2024-05-11T13:42:40Z</time>
</trkpt>
<trkpt lat="49.7613525018096" lon="9.512586537748575">
<ele>129.6</ele>
<time>2024-05-11T13:42:41Z</time>
</trkpt>
<trkpt lat="49.76134101860225" lon="9.512564577162266">
<ele>129.6</ele>
<time>2024-05-11T13:42:42Z</time>
</trkpt>
<trkpt lat="49.76132961921394" lon="9.512543622404335">
<ele>129.6</ele>
<time>2024-05-11T13:42:43Z</time>
</trkpt>
<trkpt lat="49.76132199168205" lon="9.5125178899616">
<ele>129.8</ele>
<time>2024-05-11T13:42:44Z</time>
</trkpt>
<trkpt lat="49.76130673661828" lon="9.512495007365942">
<ele>129.8</ele>
<time>2024-05-11T13:42:45Z</time>
</trkpt>
<trkpt lat="49.761295253410935" lon="9.512472124770284">
<ele>130</ele>
<time>2024-05-11T13:42:46Z</time>
</trkpt>
<trkpt lat="49.76128385402262" lon="9.512443542480469">
<ele>130</ele>
<time>2024-05-11T13:42:47Z</time>
</trkpt>
<trkpt lat="49.76126859895885" lon="9.512412026524544">
<ele>130.2</ele>
<time>2024-05-11T13:42:48Z</time>
</trkpt>
<trkpt lat="49.76125334389508" lon="9.51237958855927">
<ele>130.2</ele>
<time>2024-05-11T13:42:49Z</time>
</trkpt>
<trkpt lat="49.761238088831306" lon="9.512350000441074">
<ele>130.2</ele>
<time>2024-05-11T13:42:50Z</time>
</trkpt>
<trkpt lat="49.76122283376753" lon="9.512323345988989">
<ele>130.399</ele>
<time>2024-05-11T13:42:51Z</time>
</trkpt>
<trkpt lat="49.7612037230283" lon="9.512296607717872">
<ele>130.6</ele>
<time>2024-05-11T13:42:52Z</time>
</trkpt>
<trkpt lat="49.76118846796453" lon="9.512263247743247">
<ele>130.6</ele>
<time>2024-05-11T13:42:53Z</time>
</trkpt>
<trkpt lat="49.76117321290076" lon="9.512227037921548">
<ele>130.8</ele>
<time>2024-05-11T13:42:54Z</time>
</trkpt>
<trkpt lat="49.76115410216153" lon="9.512191750109196">
<ele>131</ele>
<time>2024-05-11T13:42:55Z</time>
</trkpt>
<trkpt lat="49.76113507524133" lon="9.512154534459114">
<ele>131</ele>
<time>2024-05-11T13:42:56Z</time>
</trkpt>
<trkpt lat="49.761119820177555" lon="9.51212494634092">
<ele>131.2</ele>
<time>2024-05-11T13:42:57Z</time>
</trkpt>
<trkpt lat="49.76110456511378" lon="9.512088736519216">
<ele>131.4</ele>
<time>2024-05-11T13:42:58Z</time>
</trkpt>
<trkpt lat="49.76108931005001" lon="9.512056298553944">
<ele>131.6</ele>
<time>2024-05-11T13:42:59Z</time>
</trkpt>
<trkpt lat="49.76107405498624" lon="9.51202293857932">
<ele>131.8</ele>
<time>2024-05-11T13:43:00Z</time>
</trkpt>
<trkpt lat="49.761058799922466" lon="9.511988572776318">
<ele>132</ele>
<time>2024-05-11T13:43:01Z</time>
</trkpt>
<trkpt lat="49.761043544858694" lon="9.511953284963964">
<ele>132.2</ele>
<time>2024-05-11T13:43:02Z</time>
</trkpt>
<trkpt lat="49.76102828979492" lon="9.511921852827072">
<ele>132.4</ele>
<time>2024-05-11T13:43:03Z</time>
</trkpt>
<trkpt lat="49.76100532338023" lon="9.511897042393684">
<ele>132.6</ele>
<time>2024-05-11T13:43:04Z</time>
</trkpt>
<trkpt lat="49.760982440784574" lon="9.511871309950948">
<ele>132.8</ele>
<time>2024-05-11T13:43:05Z</time>
</trkpt>
<trkpt lat="49.760963413864374" lon="9.51184649951756">
<ele>133</ele>
<time>2024-05-11T13:43:06Z</time>
</trkpt>
<trkpt lat="49.76094053126872" lon="9.511821689084172">
<ele>133.2</ele>
<time>2024-05-11T13:43:07Z</time>
</trkpt>
<trkpt lat="49.76091764867306" lon="9.511791178956628">
<ele>133.2</ele>
<time>2024-05-11T13:43:08Z</time>
</trkpt>
<trkpt lat="49.760898537933826" lon="9.511763518676162">
<ele>133.4</ele>
<time>2024-05-11T13:43:09Z</time>
</trkpt>
<trkpt lat="49.760883282870054" lon="9.511733008548616">
<ele>133.6</ele>
<time>2024-05-11T13:43:10Z</time>
</trkpt>
<trkpt lat="49.760864255949855" lon="9.511703420430422">
<ele>133.8</ele>
<time>2024-05-11T13:43:11Z</time>
</trkpt>
<trkpt lat="49.76084891706705" lon="9.511676765978336">
<ele>134</ele>
<time>2024-05-11T13:43:12Z</time>
</trkpt>
<trkpt lat="49.76082989014685" lon="9.511651955544949">
<ele>134.2</ele>
<time>2024-05-11T13:43:13Z</time>
</trkpt>
<trkpt lat="49.76081077940762" lon="9.511619517579676">
<ele>134.4</ele>
<time>2024-05-11T13:43:14Z</time>
</trkpt>
<trkpt lat="49.76079175248742" lon="9.51158808544278">
<ele>134.6</ele>
<time>2024-05-11T13:43:15Z</time>
</trkpt>
<trkpt lat="49.76077649742365" lon="9.511554641649129">
<ele>134.8</ele>
<time>2024-05-11T13:43:16Z</time>
</trkpt>
<trkpt lat="49.76075738668442" lon="9.511523209512234">
<ele>135</ele>
<time>2024-05-11T13:43:17Z</time>
</trkpt>
<trkpt lat="49.76073835976422" lon="9.511491693556309">
<ele>135.2</ele>
<time>2024-05-11T13:43:18Z</time>
</trkpt>
<trkpt lat="49.760723104700446" lon="9.511461183428764">
<ele>135.4</ele>
<time>2024-05-11T13:43:19Z</time>
</trkpt>
<trkpt lat="49.760703993961215" lon="9.5114316791296">
<ele>135.6</ele>
<time>2024-05-11T13:43:20Z</time>
</trkpt>
<trkpt lat="49.760684967041016" lon="9.511400163173676">
<ele>135.8</ele>
<time>2024-05-11T13:43:21Z</time>
</trkpt>
<trkpt lat="49.760665856301785" lon="9.511369653046131">
<ele>135.8</ele>
<time>2024-05-11T13:43:22Z</time>
</trkpt>
<trkpt lat="49.76064674556255" lon="9.511340064927936">
<ele>136</ele>
<time>2024-05-11T13:43:23Z</time>
</trkpt>
<trkpt lat="49.76063149049878" lon="9.511309554800391">
<ele>136.2</ele>
<time>2024-05-11T13:43:24Z</time>
</trkpt>
<trkpt lat="49.76061623543501" lon="9.511280050501227">
<ele>136.6</ele>
<time>2024-05-11T13:43:25Z</time>
</trkpt>
<trkpt lat="49.76059720851481" lon="9.51125138439238">
<ele>136.8</ele>
<time>2024-05-11T13:43:26Z</time>
</trkpt>
<trkpt lat="49.76058195345104" lon="9.511222802102566">
<ele>137</ele>
<time>2024-05-11T13:43:27Z</time>
</trkpt>
<trkpt lat="49.760566698387265" lon="9.51119321398437">
<ele>137.2</ele>
<time>2024-05-11T13:43:28Z</time>
</trkpt>
<trkpt lat="49.76055144332349" lon="9.511163709685206">
<ele>137.6</ele>
<time>2024-05-11T13:43:29Z</time>
</trkpt>
<trkpt lat="49.76053618825972" lon="9.511131271719933">
<ele>137.8</ele>
<time>2024-05-11T13:43:30Z</time>
</trkpt>
<trkpt lat="49.760524705052376" lon="9.511099755764008">
<ele>138</ele>
<time>2024-05-11T13:43:31Z</time>
</trkpt>
<trkpt lat="49.76051330566406" lon="9.511064467951655">
<ele>138.2</ele>
<time>2024-05-11T13:43:32Z</time>
</trkpt>
<trkpt lat="49.76050182245672" lon="9.511026330292225">
<ele>138.4</ele>
<time>2024-05-11T13:43:33Z</time>
</trkpt>
<trkpt lat="49.760486567392945" lon="9.510988192632794">
<ele>138.6</ele>
<time>2024-05-11T13:43:34Z</time>
</trkpt>
<trkpt lat="49.7604750841856" lon="9.510948127135634">
<ele>138.8</ele>
<time>2024-05-11T13:43:35Z</time>
</trkpt>
<trkpt lat="49.760467456653714" lon="9.510908061638474">
<ele>139</ele>
<time>2024-05-11T13:43:36Z</time>
</trkpt>
<trkpt lat="49.7604560572654" lon="9.510869923979044">
<ele>139.2</ele>
<time>2024-05-11T13:43:37Z</time>
</trkpt>
<trkpt lat="49.760448429733515" lon="9.510831786319612">
<ele>139.4</ele>
<time>2024-05-11T13:43:38Z</time>
</trkpt>
<trkpt lat="49.76043694652617" lon="9.51079649850726">
<ele>139.6</ele>
<time>2024-05-11T13:43:39Z</time>
</trkpt>
<trkpt lat="49.76042931899429" lon="9.51076028868556">
<ele>139.6</ele>
<time>2024-05-11T13:43:40Z</time>
</trkpt>
<trkpt lat="49.76041791960597" lon="9.510725000873208">
<ele>139.8</ele>
<time>2024-05-11T13:43:41Z</time>
</trkpt>
<trkpt lat="49.7604026645422" lon="9.510691640898584">
<ele>140</ele>
<time>2024-05-11T13:43:42Z</time>
</trkpt>
<trkpt lat="49.76039503701031" lon="9.51065819710493">
<ele>140</ele>
<time>2024-05-11T13:43:43Z</time>
</trkpt>
<trkpt lat="49.76038355380297" lon="9.51062198728323">
<ele>140.2</ele>
<time>2024-05-11T13:43:44Z</time>
</trkpt>
<trkpt lat="49.760372154414654" lon="9.510584771633148">
<ele>140.4</ele>
<time>2024-05-11T13:43:45Z</time>
</trkpt>
<trkpt lat="49.76036067120731" lon="9.510551411658524">
<ele>140.6</ele>
<time>2024-05-11T13:43:46Z</time>
</trkpt>
<trkpt lat="49.760349271818995" lon="9.510518051683905">
<ele>140.8</ele>
<time>2024-05-11T13:43:47Z</time>
</trkpt>
<trkpt lat="49.76033778861165" lon="9.5104836858809">
<ele>141.2</ele>
<time>2024-05-11T13:43:48Z</time>
</trkpt>
<trkpt lat="49.76032253354788" lon="9.510453175753357">
<ele>141.4</ele>
<time>2024-05-11T13:43:49Z</time>
</trkpt>
<trkpt lat="49.76030342280865" lon="9.510421743616462">
<ele>141.6</ele>
<time>2024-05-11T13:43:50Z</time>
</trkpt>
<trkpt lat="49.760288167744875" lon="9.510393077507617">
<ele>142</ele>
<time>2024-05-11T13:43:51Z</time>
</trkpt>
<trkpt lat="49.7602729126811" lon="9.5103644952178">
<ele>142.2</ele>
<time>2024-05-11T13:43:52Z</time>
</trkpt>
<trkpt lat="49.7602538857609" lon="9.510336834937334">
<ele>142.4</ele>
<time>2024-05-11T13:43:53Z</time>
</trkpt>
<trkpt lat="49.76023477502167" lon="9.510316802188754">
<ele>142.6</ele>
<time>2024-05-11T13:43:54Z</time>
</trkpt>
<trkpt lat="49.76021574810147" lon="9.510294841602445">
<ele>142.8</ele>
<time>2024-05-11T13:43:55Z</time>
</trkpt>
<trkpt lat="49.76019663736224" lon="9.510272964835169">
<ele>143</ele>
<time>2024-05-11T13:43:56Z</time>
</trkpt>
<trkpt lat="49.76017761044204" lon="9.510252932086589">
<ele>143.2</ele>
<time>2024-05-11T13:43:57Z</time>
</trkpt>
<trkpt lat="49.76015464402735" lon="9.510239521041512">
<ele>143.4</ele>
<time>2024-05-11T13:43:58Z</time>
</trkpt>
<trkpt lat="49.76013561710715" lon="9.5102281216532">
<ele>143.8</ele>
<time>2024-05-11T13:43:59Z</time>
</trkpt>
<trkpt lat="49.760112734511495" lon="9.510216638445854">
<ele>144</ele>
<time>2024-05-11T13:44:00Z</time>
</trkpt>
<trkpt lat="49.76008985191584" lon="9.51020616106689">
<ele>144.2</ele>
<time>2024-05-11T13:44:01Z</time>
</trkpt>
<trkpt lat="49.760070741176605" lon="9.510194761678576">
<ele>144.4</ele>
<time>2024-05-11T13:44:02Z</time>
</trkpt>
<trkpt lat="49.76004785858095" lon="9.510181350633502">
<ele>144.6</ele>
<time>2024-05-11T13:44:03Z</time>
</trkpt>
<trkpt lat="49.76002497598529" lon="9.51016802340746">
<ele>145</ele>
<time>2024-05-11T13:44:04Z</time>
</trkpt>
<trkpt lat="49.76000209338963" lon="9.510160395875571">
<ele>145.2</ele>
<time>2024-05-11T13:44:05Z</time>
</trkpt>
<trkpt lat="49.75997921079397" lon="9.510153690353036">
<ele>145.4</ele>
<time>2024-05-11T13:44:06Z</time>
</trkpt>
<trkpt lat="49.759956328198314" lon="9.510143212974072">
<ele>145.4</ele>
<time>2024-05-11T13:44:07Z</time>
</trkpt>
<trkpt lat="49.759933445602655" lon="9.510134663432837">
<ele>145.8</ele>
<time>2024-05-11T13:44:08Z</time>
</trkpt>
<trkpt lat="49.759910563007" lon="9.51012703590095">
<ele>146</ele>
<time>2024-05-11T13:44:09Z</time>
</trkpt>
<trkpt lat="49.75988768041134" lon="9.510118402540684">
<ele>146.2</ele>
<time>2024-05-11T13:44:10Z</time>
</trkpt>
<trkpt lat="49.75986479781568" lon="9.510113708674908">
<ele>146.4</ele>
<time>2024-05-11T13:44:11Z</time>
</trkpt>
<trkpt lat="49.75984191522002" lon="9.51010700315237">
<ele>146.6</ele>
<time>2024-05-11T13:44:12Z</time>
</trkpt>
<trkpt lat="49.75981894880533" lon="9.510096525773406">
<ele>146.8</ele>
<time>2024-05-11T13:44:13Z</time>
</trkpt>
<trkpt lat="49.759796066209674" lon="9.51008504256606">
<ele>147</ele>
<time>2024-05-11T13:44:14Z</time>
</trkpt>
<trkpt lat="49.759773183614016" lon="9.510076493024826">
<ele>147.2</ele>
<time>2024-05-11T13:44:15Z</time>
</trkpt>
<trkpt lat="49.759754156693816" lon="9.51006693765521">
<ele>147.4</ele>
<time>2024-05-11T13:44:16Z</time>
</trkpt>
<trkpt lat="49.759735045954585" lon="9.510054532438517">
<ele>147.6</ele>
<time>2024-05-11T13:44:17Z</time>
</trkpt>
<trkpt lat="49.75971216335893" lon="9.5100449770689">
<ele>147.8</ele>
<time>2024-05-11T13:44:18Z</time>
</trkpt>
<trkpt lat="49.75968928076327" lon="9.510033577680588">
<ele>148</ele>
<time>2024-05-11T13:44:19Z</time>
</trkpt>
<trkpt lat="49.75966639816761" lon="9.51002494432032">
<ele>148.2</ele>
<time>2024-05-11T13:44:20Z</time>
</trkpt>
<trkpt lat="49.75964351557195" lon="9.510015472769735">
<ele>148.4</ele>
<time>2024-05-11T13:44:21Z</time>
</trkpt>
<trkpt lat="49.75962440483272" lon="9.510007845237851">
<ele>148.6</ele>
<time>2024-05-11T13:44:22Z</time>
</trkpt>
<trkpt lat="49.75960152223706" lon="9.509996362030506">
<ele>148.8</ele>
<time>2024-05-11T13:44:23Z</time>
</trkpt>
<trkpt lat="49.75958249531686" lon="9.509980184957383">
<ele>149</ele>
<time>2024-05-11T13:44:24Z</time>
</trkpt>
<trkpt lat="49.75956338457763" lon="9.50996870175004">
<ele>149.2</ele>
<time>2024-05-11T13:44:25Z</time>
</trkpt>
<trkpt lat="49.75953673012555" lon="9.509956296533346">
<ele>149.4</ele>
<time>2024-05-11T13:44:26Z</time>
</trkpt>
<trkpt lat="49.759517619386315" lon="9.509942969307303">
<ele>149.6</ele>
<time>2024-05-11T13:44:27Z</time>
</trkpt>
<trkpt lat="49.75949859246611" lon="9.50992863625288">
<ele>149.8</ele>
<time>2024-05-11T13:44:28Z</time>
</trkpt>
<trkpt lat="49.759475626051426" lon="9.5099086035043">
<ele>150</ele>
<time>2024-05-11T13:44:29Z</time>
</trkpt>
<trkpt lat="49.75945659913123" lon="9.5098895765841">
<ele>150.2</ele>
<time>2024-05-11T13:44:30Z</time>
</trkpt>
<trkpt lat="49.75943371653557" lon="9.509875243529676">
<ele>150.4</ele>
<time>2024-05-11T13:44:31Z</time>
</trkpt>
<trkpt lat="49.75941460579634" lon="9.509858060628176">
<ele>150.4</ele>
<time>2024-05-11T13:44:32Z</time>
</trkpt>
<trkpt lat="49.75939172320068" lon="9.509841883555056">
<ele>150.6</ele>
<time>2024-05-11T13:44:33Z</time>
</trkpt>
<trkpt lat="49.75937646813691" lon="9.509822772815824">
<ele>150.8</ele>
<time>2024-05-11T13:44:34Z</time>
</trkpt>
<trkpt lat="49.75935744121671" lon="9.509803745895624">
<ele>151</ele>
<time>2024-05-11T13:44:35Z</time>
</trkpt>
<trkpt lat="49.75933833047747" lon="9.509783713147044">
<ele>151.2</ele>
<time>2024-05-11T13:44:36Z</time>
</trkpt>
<trkpt lat="49.75931930355728" lon="9.509761752560737">
<ele>151.4</ele>
<time>2024-05-11T13:44:37Z</time>
</trkpt>
<trkpt lat="49.759300192818046" lon="9.509739875793455">
<ele>151.6</ele>
<time>2024-05-11T13:44:38Z</time>
</trkpt>
<trkpt lat="49.75927731022239" lon="9.509717915207148">
<ele>151.6</ele>
<time>2024-05-11T13:44:39Z</time>
</trkpt>
<trkpt lat="49.75925819948315" lon="9.50969310477376">
<ele>151.8</ele>
<time>2024-05-11T13:44:40Z</time>
</trkpt>
<trkpt lat="49.75923917256296" lon="9.509663516655564">
<ele>152</ele>
<time>2024-05-11T13:44:41Z</time>
</trkpt>
<trkpt lat="49.759223917499185" lon="9.50963493436575">
<ele>152.2</ele>
<time>2024-05-11T13:44:42Z</time>
</trkpt>
<trkpt lat="49.75920866243541" lon="9.509605346247554">
<ele>152.4</ele>
<time>2024-05-11T13:44:43Z</time>
</trkpt>
<trkpt lat="49.75919717922807" lon="9.50957290828228">
<ele>152.6</ele>
<time>2024-05-11T13:44:44Z</time>
</trkpt>
<trkpt lat="49.759185779839754" lon="9.509539548307655">
<ele>152.8</ele>
<time>2024-05-11T13:44:45Z</time>
</trkpt>
<trkpt lat="49.75917815230787" lon="9.509506188333036">
<ele>153.2</ele>
<time>2024-05-11T13:44:46Z</time>
</trkpt>
<trkpt lat="49.75916666910052" lon="9.50947375036776">
<ele>153.4</ele>
<time>2024-05-11T13:44:47Z</time>
</trkpt>
<trkpt lat="49.759162897244096" lon="9.509440390393138">
<ele>153.6</ele>
<time>2024-05-11T13:44:48Z</time>
</trkpt>
<trkpt lat="49.75915141403675" lon="9.509407952427864">
<ele>154</ele>
<time>2024-05-11T13:44:49Z</time>
</trkpt>
<trkpt lat="49.75914764218032" lon="9.509371742606165">
<ele>154.2</ele>
<time>2024-05-11T13:44:50Z</time>
</trkpt>
<trkpt lat="49.75914001464844" lon="9.509338298812509">
<ele>154.4</ele>
<time>2024-05-11T13:44:51Z</time>
</trkpt>
<trkpt lat="49.75914001464844" lon="9.509304938837886">
<ele>154.8</ele>
<time>2024-05-11T13:44:52Z</time>
</trkpt>
<trkpt lat="49.75914001464844" lon="9.509266801178455">
<ele>155</ele>
<time>2024-05-11T13:44:53Z</time>
</trkpt>
<trkpt lat="49.75914001464844" lon="9.509231513366103">
<ele>155.2</ele>
<time>2024-05-11T13:44:54Z</time>
</trkpt>
<trkpt lat="49.759143786504865" lon="9.50919815339148">
<ele>155.6</ele>
<time>2024-05-11T13:44:55Z</time>
</trkpt>
<trkpt lat="49.759143786504865" lon="9.509171415120363">
<ele>155.8</ele>
<time>2024-05-11T13:44:56Z</time>
</trkpt>
<trkpt lat="49.75914764218032" lon="9.509143754839895">
<ele>156</ele>
<time>2024-05-11T13:44:57Z</time>
</trkpt>
<trkpt lat="49.75915141403675" lon="9.509109472855926">
<ele>156.2</ele>
<time>2024-05-11T13:44:58Z</time>
</trkpt>
<trkpt lat="49.75915526971221" lon="9.509077034890652">
<ele>156.4</ele>
<time>2024-05-11T13:44:59Z</time>
</trkpt>
<trkpt lat="49.75915904156864" lon="9.509043674916027">
<ele>156.8</ele>
<time>2024-05-11T13:45:00Z</time>
</trkpt>
<trkpt lat="49.75917052477598" lon="9.509006459265947">
<ele>157</ele>
<time>2024-05-11T13:45:01Z</time>
</trkpt>
<trkpt lat="49.75917815230787" lon="9.508972093462944">
<ele>157.4</ele>
<time>2024-05-11T13:45:02Z</time>
</trkpt>
<trkpt lat="49.75919340737164" lon="9.508937811478972">
<ele>157.6</ele>
<time>2024-05-11T13:45:03Z</time>
</trkpt>
<trkpt lat="49.7592162899673" lon="9.508872935548425">
<ele>157.8</ele>
<time>2024-05-11T13:45:05Z</time>
</trkpt>
<trkpt lat="49.75922768935561" lon="9.508839575573802">
<ele>158</ele>
<time>2024-05-11T13:45:06Z</time>
</trkpt>
<trkpt lat="49.75923917256296" lon="9.50880621559918">
<ele>158.2</ele>
<time>2024-05-11T13:45:07Z</time>
</trkpt>
<trkpt lat="49.75924680009484" lon="9.508774699643254">
<ele>158.4</ele>
<time>2024-05-11T13:45:08Z</time>
</trkpt>
<trkpt lat="49.75925819948315" lon="9.508748045191169">
<ele>158.6</ele>
<time>2024-05-11T13:45:09Z</time>
</trkpt>
<trkpt lat="49.7592696826905" lon="9.50872323475778">
<ele>158.8</ele>
<time>2024-05-11T13:45:10Z</time>
</trkpt>
<trkpt lat="49.75927731022239" lon="9.508691718801856">
<ele>159</ele>
<time>2024-05-11T13:45:11Z</time>
</trkpt>
<trkpt lat="49.75929256528616" lon="9.508661208674312">
<ele>159.2</ele>
<time>2024-05-11T13:45:12Z</time>
</trkpt>
<trkpt lat="49.75930782034993" lon="9.508629776537418">
<ele>159.4</ele>
<time>2024-05-11T13:45:13Z</time>
</trkpt>
<trkpt lat="49.75931930355728" lon="9.508602116256952">
<ele>159.6</ele>
<time>2024-05-11T13:45:14Z</time>
</trkpt>
<trkpt lat="49.75933455862105" lon="9.508571606129408">
<ele>159.8</ele>
<time>2024-05-11T13:45:15Z</time>
</trkpt>
<trkpt lat="49.75934981368482" lon="9.50854294002056">
<ele>159.8</ele>
<time>2024-05-11T13:45:16Z</time>
</trkpt>
<trkpt lat="49.75936506874859" lon="9.508518213406203">
<ele>160</ele>
<time>2024-05-11T13:45:17Z</time>
</trkpt>
<trkpt lat="49.759380323812366" lon="9.508491475135088">
<ele>160.2</ele>
<time>2024-05-11T13:45:18Z</time>
</trkpt>
<trkpt lat="49.75939557887614" lon="9.50846473686397">
<ele>160.2</ele>
<time>2024-05-11T13:45:19Z</time>
</trkpt>
<trkpt lat="49.75941083393991" lon="9.508438082411883">
<ele>160.4</ele>
<time>2024-05-11T13:45:20Z</time>
</trkpt>
<trkpt lat="49.75942608900368" lon="9.508413271978498">
<ele>160.6</ele>
<time>2024-05-11T13:45:21Z</time>
</trkpt>
<trkpt lat="49.759441344067454" lon="9.50838846154511">
<ele>160.8</ele>
<time>2024-05-11T13:45:22Z</time>
</trkpt>
<trkpt lat="49.75945659913123" lon="9.508364656940104">
<ele>160.8</ele>
<time>2024-05-11T13:45:23Z</time>
</trkpt>
<trkpt lat="49.759471854195" lon="9.508343618363142">
<ele>161</ele>
<time>2024-05-11T13:45:24Z</time>
</trkpt>
<trkpt lat="49.75948710925877" lon="9.508321741595864">
<ele>161.2</ele>
<time>2024-05-11T13:45:25Z</time>
</trkpt>
<trkpt lat="49.75950236432254" lon="9.508297853171824">
<ele>161.4</ele>
<time>2024-05-11T13:45:26Z</time>
</trkpt>
<trkpt lat="49.759517619386315" lon="9.508276898413897">
<ele>161.6</ele>
<time>2024-05-11T13:45:27Z</time>
</trkpt>
<trkpt lat="49.75953673012555" lon="9.508256865665317">
<ele>161.6</ele>
<time>2024-05-11T13:45:28Z</time>
</trkpt>
<trkpt lat="49.75955198518932" lon="9.508236832916737">
<ele>161.8</ele>
<time>2024-05-11T13:45:29Z</time>
</trkpt>
<trkpt lat="49.75957101210952" lon="9.508214872330427">
<ele>162</ele>
<time>2024-05-11T13:45:30Z</time>
</trkpt>
<trkpt lat="49.75959012284875" lon="9.50819492340088">
<ele>162.2</ele>
<time>2024-05-11T13:45:31Z</time>
</trkpt>
<trkpt lat="49.75960914976895" lon="9.5081748906523">
<ele>162.4</ele>
<time>2024-05-11T13:45:32Z</time>
</trkpt>
<trkpt lat="49.75962826050818" lon="9.508156701922417">
<ele>162.6</ele>
<time>2024-05-11T13:45:33Z</time>
</trkpt>
<trkpt lat="49.75964351557195" lon="9.508136669173837">
<ele>162.8</ele>
<time>2024-05-11T13:45:34Z</time>
</trkpt>
<trkpt lat="49.75966262631118" lon="9.508116720244288">
<ele>163</ele>
<time>2024-05-11T13:45:35Z</time>
</trkpt>
<trkpt lat="49.75968165323138" lon="9.508096687495708">
<ele>163</ele>
<time>2024-05-11T13:45:36Z</time>
</trkpt>
<trkpt lat="49.75970076397061" lon="9.5080747269094">
<ele>163.2</ele>
<time>2024-05-11T13:45:37Z</time>
</trkpt>
<trkpt lat="49.75971979089081" lon="9.50805469416082">
<ele>163.2</ele>
<time>2024-05-11T13:45:38Z</time>
</trkpt>
<trkpt lat="49.75974267348647" lon="9.508040361106396">
<ele>163.4</ele>
<time>2024-05-11T13:45:39Z</time>
</trkpt>
<trkpt lat="49.7597617842257" lon="9.508025106042624">
<ele>163.6</ele>
<time>2024-05-11T13:45:40Z</time>
</trkpt>
<trkpt lat="49.75978466682136" lon="9.50801177881658">
<ele>163.6</ele>
<time>2024-05-11T13:45:41Z</time>
</trkpt>
<trkpt lat="49.75980369374156" lon="9.507998451590538">
<ele>163.8</ele>
<time>2024-05-11T13:45:42Z</time>
</trkpt>
<trkpt lat="49.75982666015625" lon="9.507986968383191">
<ele>164</ele>
<time>2024-05-11T13:45:43Z</time>
</trkpt>
<trkpt lat="49.75984954275191" lon="9.507969785481691">
<ele>164</ele>
<time>2024-05-11T13:45:44Z</time>
</trkpt>
<trkpt lat="49.75987242534757" lon="9.507956458255649">
<ele>164.2</ele>
<time>2024-05-11T13:45:45Z</time>
</trkpt>
<trkpt lat="49.759891452267766" lon="9.507941203191876">
<ele>164.4</ele>
<time>2024-05-11T13:45:46Z</time>
</trkpt>
<trkpt lat="49.75991819053888" lon="9.50793164782226">
<ele>164.4</ele>
<time>2024-05-11T13:45:47Z</time>
</trkpt>
<trkpt lat="49.75993721745908" lon="9.507921170443296">
<ele>164.6</ele>
<time>2024-05-11T13:45:48Z</time>
</trkpt>
<trkpt lat="49.75996010005474" lon="9.50791161507368">
<ele>164.8</ele>
<time>2024-05-11T13:45:49Z</time>
</trkpt>
<trkpt lat="49.75998683832586" lon="9.507904993370175">
<ele>165</ele>
<time>2024-05-11T13:45:50Z</time>
</trkpt>
<trkpt lat="49.76000972092152" lon="9.507898287847638">
<ele>165</ele>
<time>2024-05-11T13:45:51Z</time>
</trkpt>
<trkpt lat="49.760032603517175" lon="9.507894515991213">
<ele>165.2</ele>
<time>2024-05-11T13:45:52Z</time>
</trkpt>
<trkpt lat="49.76005548611283" lon="9.507896360009909">
<ele>165.4</ele>
<time>2024-05-11T13:45:53Z</time>
</trkpt>
<trkpt lat="49.76008222438395" lon="9.507900215685368">
<ele>165.4</ele>
<time>2024-05-11T13:45:54Z</time>
</trkpt>
<trkpt lat="49.76010887883603" lon="9.507903065532446">
<ele>165.6</ele>
<time>2024-05-11T13:45:55Z</time>
</trkpt>
<trkpt lat="49.76013561710715" lon="9.507909771054983">
<ele>165.6</ele>
<time>2024-05-11T13:45:56Z</time>
</trkpt>
<trkpt lat="49.76015849970281" lon="9.507918320596218">
<ele>165.6</ele>
<time>2024-05-11T13:45:57Z</time>
</trkpt>
<trkpt lat="49.76018523797393" lon="9.507927875965834">
<ele>165.8</ele>
<time>2024-05-11T13:45:58Z</time>
</trkpt>
<trkpt lat="49.76020812056959" lon="9.507940281182528">
<ele>165.8</ele>
<time>2024-05-11T13:45:59Z</time>
</trkpt>
<trkpt lat="49.76023477502167" lon="9.50795360840857">
<ele>166</ele>
<time>2024-05-11T13:46:00Z</time>
</trkpt>
<trkpt lat="49.76026151329279" lon="9.507969785481691">
<ele>166.2</ele>
<time>2024-05-11T13:46:01Z</time>
</trkpt>
<trkpt lat="49.76028439588845" lon="9.507985040545464">
<ele>166.4</ele>
<time>2024-05-11T13:46:02Z</time>
</trkpt>
<trkpt lat="49.76031105034053" lon="9.508000295609236">
<ele>166.6</ele>
<time>2024-05-11T13:46:03Z</time>
</trkpt>
<trkpt lat="49.76033393293619" lon="9.508018484339118">
<ele>167</ele>
<time>2024-05-11T13:46:04Z</time>
</trkpt>
<trkpt lat="49.76035689935088" lon="9.508040361106396">
<ele>167.2</ele>
<time>2024-05-11T13:46:05Z</time>
</trkpt>
<trkpt lat="49.76037978194654" lon="9.508060393854976">
<ele>167.4</ele>
<time>2024-05-11T13:46:06Z</time>
</trkpt>
<trkpt lat="49.7604026645422" lon="9.508083276450634">
<ele>167.6</ele>
<time>2024-05-11T13:46:07Z</time>
</trkpt>
<trkpt lat="49.76042554713786" lon="9.508106159046292">
<ele>168</ele>
<time>2024-05-11T13:46:08Z</time>
</trkpt>
<trkpt lat="49.760444574058056" lon="9.50813197530806">
<ele>168.2</ele>
<time>2024-05-11T13:46:09Z</time>
</trkpt>
<trkpt lat="49.76046368479729" lon="9.508158629760146">
<ele>168.4</ele>
<time>2024-05-11T13:46:10Z</time>
</trkpt>
<trkpt lat="49.760482711717486" lon="9.508186290040612">
<ele>168.8</ele>
<time>2024-05-11T13:46:11Z</time>
</trkpt>
<trkpt lat="49.76050182245672" lon="9.508214872330427">
<ele>169</ele>
<time>2024-05-11T13:46:12Z</time>
</trkpt>
<trkpt lat="49.76051707752049" lon="9.508243538439274">
<ele>169.2</ele>
<time>2024-05-11T13:46:13Z</time>
</trkpt>
<trkpt lat="49.76053618825972" lon="9.508273042738438">
<ele>169.4</ele>
<time>2024-05-11T13:46:14Z</time>
</trkpt>
<trkpt lat="49.76055521517992" lon="9.508304558694364">
<ele>169.6</ele>
<time>2024-05-11T13:46:15Z</time>
</trkpt>
<trkpt lat="49.76057047024369" lon="9.508337918668984">
<ele>169.8</ele>
<time>2024-05-11T13:46:16Z</time>
</trkpt>
<trkpt lat="49.76059335283935" lon="9.50837035663426">
<ele>170</ele>
<time>2024-05-11T13:46:17Z</time>
</trkpt>
<trkpt lat="49.76061246357858" lon="9.508403716608882">
<ele>170.2</ele>
<time>2024-05-11T13:46:18Z</time>
</trkpt>
<trkpt lat="49.76063149049878" lon="9.508433304727076">
<ele>170.2</ele>
<time>2024-05-11T13:46:19Z</time>
</trkpt>
<trkpt lat="49.76064674556255" lon="9.508462892845271">
<ele>170.4</ele>
<time>2024-05-11T13:46:20Z</time>
</trkpt>
<trkpt lat="49.760665856301785" lon="9.508491475135088">
<ele>170.4</ele>
<time>2024-05-11T13:46:21Z</time>
</trkpt>
<trkpt lat="49.760684967041016" lon="9.508518213406203">
<ele>170.6</ele>
<time>2024-05-11T13:46:22Z</time>
</trkpt>
<trkpt lat="49.7607116214931" lon="9.508540090173485">
<ele>170.6</ele>
<time>2024-05-11T13:46:23Z</time>
</trkpt>
<trkpt lat="49.76073450408876" lon="9.508560122922065">
<ele>170.6</ele>
<time>2024-05-11T13:46:24Z</time>
</trkpt>
<trkpt lat="49.76076124235988" lon="9.508571606129408">
<ele>170.6</ele>
<time>2024-05-11T13:46:25Z</time>
</trkpt>
<trkpt lat="49.76078789681196" lon="9.508581161499023">
<ele>170.6</ele>
<time>2024-05-11T13:46:26Z</time>
</trkpt>
<trkpt lat="49.76081463508308" lon="9.50858300551772">
<ele>170.6</ele>
<time>2024-05-11T13:46:27Z</time>
</trkpt>
<trkpt lat="49.76083751767874" lon="9.508580155670645">
<ele>170.6</ele>
<time>2024-05-11T13:46:28Z</time>
</trkpt>
<trkpt lat="49.760864255949855" lon="9.508569678291678">
<ele>170.6</ele>
<time>2024-05-11T13:46:29Z</time>
</trkpt>
<trkpt lat="49.76088713854551" lon="9.508556351065636">
<ele>170.8</ele>
<time>2024-05-11T13:46:30Z</time>
</trkpt>
<trkpt lat="49.76091002114117" lon="9.508542018011212">
<ele>171</ele>
<time>2024-05-11T13:46:31Z</time>
</trkpt>
<trkpt lat="49.76093667559326" lon="9.50852290727198">
<ele>171</ele>
<time>2024-05-11T13:46:32Z</time>
</trkpt>
<trkpt lat="49.760959558188915" lon="9.508498180657623">
<ele>171.2</ele>
<time>2024-05-11T13:46:33Z</time>
</trkpt>
<trkpt lat="49.760978668928146" lon="9.5084666647017">
<ele>171.4</ele>
<time>2024-05-11T13:46:34Z</time>
</trkpt>
<trkpt lat="49.76099392399192" lon="9.508433304727076">
<ele>171.6</ele>
<time>2024-05-11T13:46:35Z</time>
</trkpt>
<trkpt lat="49.76100917905569" lon="9.508395167067649">
<ele>171.8</ele>
<time>2024-05-11T13:46:36Z</time>
</trkpt>
<trkpt lat="49.76101680658758" lon="9.508353173732758">
<ele>171.8</ele>
<time>2024-05-11T13:46:37Z</time>
</trkpt>
<trkpt lat="49.76102828979492" lon="9.50830833055079">
<ele>172.2</ele>
<time>2024-05-11T13:46:38Z</time>
</trkpt>
<trkpt lat="49.76102828979492" lon="9.508263571187854">
<ele>172.4</ele>
<time>2024-05-11T13:46:39Z</time>
</trkpt>
<trkpt lat="49.76102828979492" lon="9.508218728005886">
<ele>172.6</ele>
<time>2024-05-11T13:46:40Z</time>
</trkpt>
<trkpt lat="49.76102828979492" lon="9.508178662508726">
<ele>172.8</ele>
<time>2024-05-11T13:46:41Z</time>
</trkpt>
<trkpt lat="49.761020578444" lon="9.508145302534103">
<ele>173</ele>
<time>2024-05-11T13:46:42Z</time>
</trkpt>
<trkpt lat="49.76101295091212" lon="9.50811194255948">
<ele>173.2</ele>
<time>2024-05-11T13:46:43Z</time>
</trkpt>
<trkpt lat="49.760997695848346" lon="9.50807380490005">
<ele>173.2</ele>
<time>2024-05-11T13:46:44Z</time>
</trkpt>
<trkpt lat="49.760982440784574" lon="9.508038517087698">
<ele>173.4</ele>
<time>2024-05-11T13:46:45Z</time>
</trkpt>
<trkpt lat="49.760963413864374" lon="9.508007001131771">
<ele>173.4</ele>
<time>2024-05-11T13:46:46Z</time>
</trkpt>
<trkpt lat="49.76094430312514" lon="9.5079745631665">
<ele>173.6</ele>
<time>2024-05-11T13:46:47Z</time>
</trkpt>
<trkpt lat="49.760921420529485" lon="9.507947908714414">
<ele>173.6</ele>
<time>2024-05-11T13:46:48Z</time>
</trkpt>
<trkpt lat="49.760898537933826" lon="9.507925026118755">
<ele>173.6</ele>
<time>2024-05-11T13:46:49Z</time>
</trkpt>
<trkpt lat="49.76087951101363" lon="9.507898287847638">
<ele>173.8</ele>
<time>2024-05-11T13:46:50Z</time>
</trkpt>
<trkpt lat="49.76085662841797" lon="9.50787540525198">
<ele>174</ele>
<time>2024-05-11T13:46:51Z</time>
</trkpt>
<trkpt lat="49.76083751767874" lon="9.507848666980864">
<ele>174</ele>
<time>2024-05-11T13:46:52Z</time>
</trkpt>
<trkpt lat="49.76081463508308" lon="9.507822934538126">
<ele>174.2</ele>
<time>2024-05-11T13:46:53Z</time>
</trkpt>
<trkpt lat="49.76079175248742" lon="9.50779628008604">
<ele>174.4</ele>
<time>2024-05-11T13:46:54Z</time>
</trkpt>
<trkpt lat="49.76076886989176" lon="9.507769541814923">
<ele>174.6</ele>
<time>2024-05-11T13:46:55Z</time>
</trkpt>
<trkpt lat="49.76074975915253" lon="9.507744731381536">
<ele>174.6</ele>
<time>2024-05-11T13:46:56Z</time>
</trkpt>
<trkpt lat="49.760723104700446" lon="9.50771514326334">
<ele>174.8</ele>
<time>2024-05-11T13:46:57Z</time>
</trkpt>
<trkpt lat="49.76070022210479" lon="9.507688488811256">
<ele>174.8</ele>
<time>2024-05-11T13:46:58Z</time>
</trkpt>
<trkpt lat="49.7606772556901" lon="9.50765797868371">
<ele>175</ele>
<time>2024-05-11T13:46:59Z</time>
</trkpt>
<trkpt lat="49.7606582287699" lon="9.507631240412593">
<ele>175</ele>
<time>2024-05-11T13:47:00Z</time>
</trkpt>
<trkpt lat="49.76063534617424" lon="9.507601736113427">
<ele>175.2</ele>
<time>2024-05-11T13:47:01Z</time>
</trkpt>
<trkpt lat="49.76061623543501" lon="9.507573070004582">
<ele>175.2</ele>
<time>2024-05-11T13:47:02Z</time>
</trkpt>
<trkpt lat="49.76059720851481" lon="9.507545409724116">
<ele>175.4</ele>
<time>2024-05-11T13:47:03Z</time>
</trkpt>
<trkpt lat="49.76057809777558" lon="9.507512971758842">
<ele>175.6</ele>
<time>2024-05-11T13:47:04Z</time>
</trkpt>
<trkpt lat="49.76055521517992" lon="9.50748153962195">
<ele>175.6</ele>
<time>2024-05-11T13:47:05Z</time>
</trkpt>
<trkpt lat="49.76053996011615" lon="9.507446251809595">
<ele>175.8</ele>
<time>2024-05-11T13:47:06Z</time>
</trkpt>
<trkpt lat="49.760524705052376" lon="9.507414735853672">
<ele>176</ele>
<time>2024-05-11T13:47:07Z</time>
</trkpt>
<trkpt lat="49.76050944998861" lon="9.507385231554508">
<ele>176</ele>
<time>2024-05-11T13:47:08Z</time>
</trkpt>
<trkpt lat="49.76049419492483" lon="9.507356565445662">
<ele>176</ele>
<time>2024-05-11T13:47:09Z</time>
</trkpt>
<trkpt lat="49.76047893986106" lon="9.507329910993576">
<ele>176.2</ele>
<time>2024-05-11T13:47:10Z</time>
</trkpt>
<trkpt lat="49.76045982912183" lon="9.50730317272246">
<ele>176.2</ele>
<time>2024-05-11T13:47:11Z</time>
</trkpt>
<trkpt lat="49.760444574058056" lon="9.507278362289073">
<ele>176.4</ele>
<time>2024-05-11T13:47:12Z</time>
</trkpt>
<trkpt lat="49.76042931899429" lon="9.507251707836986">
<ele>176.6</ele>
<time>2024-05-11T13:47:13Z</time>
</trkpt>
<trkpt lat="49.76041029207408" lon="9.50722312554717">
<ele>176.8</ele>
<time>2024-05-11T13:47:14Z</time>
</trkpt>
<trkpt lat="49.76039118133485" lon="9.507186831906438">
<ele>177</ele>
<time>2024-05-11T13:47:15Z</time>
</trkpt>
<trkpt lat="49.76037592627108" lon="9.507151544094086">
<ele>177.2</ele>
<time>2024-05-11T13:47:16Z</time>
</trkpt>
<trkpt lat="49.76035689935088" lon="9.507116256281734">
<ele>177.4</ele>
<time>2024-05-11T13:47:17Z</time>
</trkpt>
<trkpt lat="49.76034164428711" lon="9.50708289630711">
<ele>177.6</ele>
<time>2024-05-11T13:47:18Z</time>
</trkpt>
<trkpt lat="49.760326305404305" lon="9.507048530504107">
<ele>177.6</ele>
<time>2024-05-11T13:47:19Z</time>
</trkpt>
<trkpt lat="49.760307278484106" lon="9.507013242691755">
<ele>177.8</ele>
<time>2024-05-11T13:47:20Z</time>
</trkpt>
<trkpt lat="49.760292023420334" lon="9.506979882717133">
<ele>178</ele>
<time>2024-05-11T13:47:21Z</time>
</trkpt>
<trkpt lat="49.76027676835656" lon="9.50694845058024">
<ele>178.2</ele>
<time>2024-05-11T13:47:22Z</time>
</trkpt>
<trkpt lat="49.76025765761733" lon="9.506916934624314">
<ele>178.2</ele>
<time>2024-05-11T13:47:23Z</time>
</trkpt>
<trkpt lat="49.76023477502167" lon="9.5068883523345">
<ele>178.4</ele>
<time>2024-05-11T13:47:24Z</time>
</trkpt>
<trkpt lat="49.7602195199579" lon="9.506858764216304">
<ele>178.6</ele>
<time>2024-05-11T13:47:25Z</time>
</trkpt>
<trkpt lat="49.76019663736224" lon="9.506832109764218">
<ele>178.6</ele>
<time>2024-05-11T13:47:26Z</time>
</trkpt>
<trkpt lat="49.76017761044204" lon="9.50680822134018">
<ele>178.8</ele>
<time>2024-05-11T13:47:27Z</time>
</trkpt>
<trkpt lat="49.76015849970281" lon="9.50678533874452">
<ele>179.2</ele>
<time>2024-05-11T13:47:28Z</time>
</trkpt>
<trkpt lat="49.76013938896358" lon="9.506758684292436">
<ele>179.4</ele>
<time>2024-05-11T13:47:29Z</time>
</trkpt>
<trkpt lat="49.76011650636792" lon="9.506732868030667">
<ele>179.6</ele>
<time>2024-05-11T13:47:30Z</time>
</trkpt>
<trkpt lat="49.76009362377226" lon="9.506711913272738">
<ele>179.6</ele>
<time>2024-05-11T13:47:31Z</time>
</trkpt>
<trkpt lat="49.760070741176605" lon="9.506688108667731">
<ele>179.8</ele>
<time>2024-05-11T13:47:32Z</time>
</trkpt>
<trkpt lat="49.76004785858095" lon="9.506663298234344">
<ele>180</ele>
<time>2024-05-11T13:47:33Z</time>
</trkpt>
<trkpt lat="49.76002497598529" lon="9.506640415638683">
<ele>180</ele>
<time>2024-05-11T13:47:34Z</time>
</trkpt>
<trkpt lat="49.76000209338963" lon="9.506620382890103">
<ele>180.2</ele>
<time>2024-05-11T13:47:35Z</time>
</trkpt>
<trkpt lat="49.7599829826504" lon="9.506605127826331">
<ele>180.2</ele>
<time>2024-05-11T13:47:36Z</time>
</trkpt>
<trkpt lat="49.75996010005474" lon="9.506593644618988">
<ele>180.4</ele>
<time>2024-05-11T13:47:37Z</time>
</trkpt>
<trkpt lat="49.75993721745908" lon="9.506578389555216">
<ele>180.4</ele>
<time>2024-05-11T13:47:38Z</time>
</trkpt>
<trkpt lat="49.759910563007" lon="9.506565062329171">
<ele>180.6</ele>
<time>2024-05-11T13:47:39Z</time>
</trkpt>
<trkpt lat="49.75988768041134" lon="9.5065498072654">
<ele>180.8</ele>
<time>2024-05-11T13:47:40Z</time>
</trkpt>
<trkpt lat="49.75986094214022" lon="9.506536480039358">
<ele>181</ele>
<time>2024-05-11T13:47:41Z</time>
</trkpt>
<trkpt lat="49.759834287688136" lon="9.506524996832011">
<ele>181.2</ele>
<time>2024-05-11T13:47:42Z</time>
</trkpt>
<trkpt lat="49.75980754941702" lon="9.506513513624668">
<ele>181.4</ele>
<time>2024-05-11T13:47:43Z</time>
</trkpt>
<trkpt lat="49.7597808111459" lon="9.506504964083431">
<ele>181.6</ele>
<time>2024-05-11T13:47:44Z</time>
</trkpt>
<trkpt lat="49.75975792855024" lon="9.506498258560896">
<ele>181.6</ele>
<time>2024-05-11T13:47:45Z</time>
</trkpt>
<trkpt lat="49.75973127409816" lon="9.50648970901966">
<ele>181.8</ele>
<time>2024-05-11T13:47:46Z</time>
</trkpt>
<trkpt lat="49.75970453582704" lon="9.506483003497124">
<ele>182</ele>
<time>2024-05-11T13:47:47Z</time>
</trkpt>
<trkpt lat="49.75968165323138" lon="9.506478309631348">
<ele>182.2</ele>
<time>2024-05-11T13:47:48Z</time>
</trkpt>
<trkpt lat="49.7596549987793" lon="9.506476381793618">
<ele>182.4</ele>
<time>2024-05-11T13:47:49Z</time>
</trkpt>
<trkpt lat="49.75962826050818" lon="9.506476381793618">
<ele>182.6</ele>
<time>2024-05-11T13:47:50Z</time>
</trkpt>
<trkpt lat="49.75960152223706" lon="9.506476381793618">
<ele>182.6</ele>
<time>2024-05-11T13:47:51Z</time>
</trkpt>
<trkpt lat="49.75957486778498" lon="9.506476381793618">
<ele>182.8</ele>
<time>2024-05-11T13:47:52Z</time>
</trkpt>
<trkpt lat="49.75954812951386" lon="9.506475375965238">
<ele>183</ele>
<time>2024-05-11T13:47:53Z</time>
</trkpt>
<trkpt lat="49.759521475061774" lon="9.506481159478426">
<ele>183.2</ele>
<time>2024-05-11T13:47:54Z</time>
</trkpt>
<trkpt lat="49.75949096493423" lon="9.506483003497124">
<ele>183.4</ele>
<time>2024-05-11T13:47:55Z</time>
</trkpt>
<trkpt lat="49.75946422666311" lon="9.506486859172584">
<ele>183.6</ele>
<time>2024-05-11T13:47:56Z</time>
</trkpt>
<trkpt lat="49.759437488391995" lon="9.50648970901966">
<ele>184</ele>
<time>2024-05-11T13:47:57Z</time>
</trkpt>
<trkpt lat="49.75941460579634" lon="9.50648970901966">
<ele>184.2</ele>
<time>2024-05-11T13:47:58Z</time>
</trkpt>
<trkpt lat="49.75938795134425" lon="9.50648970901966">
<ele>184.4</ele>
<time>2024-05-11T13:47:59Z</time>
</trkpt>
<trkpt lat="49.75936506874859" lon="9.50648970901966">
<ele>184.8</ele>
<time>2024-05-11T13:48:00Z</time>
</trkpt>
<trkpt lat="49.75933833047747" lon="9.50649163685739">
<ele>185</ele>
<time>2024-05-11T13:48:01Z</time>
</trkpt>
<trkpt lat="49.75931544788182" lon="9.506494486704469">
<ele>185.2</ele>
<time>2024-05-11T13:48:03Z</time>
</trkpt>
<trkpt lat="49.75926582701504" lon="9.506496414542198">
<ele>185.4</ele>
<time>2024-05-11T13:48:04Z</time>
</trkpt>
<trkpt lat="49.75923917256296" lon="9.506498258560896">
<ele>185.6</ele>
<time>2024-05-11T13:48:05Z</time>
</trkpt>
<trkpt lat="49.7592162899673" lon="9.506500186398624">
<ele>185.8</ele>
<time>2024-05-11T13:48:06Z</time>
</trkpt>
<trkpt lat="49.75918955169618" lon="9.506500186398624">
<ele>186</ele>
<time>2024-05-11T13:48:07Z</time>
</trkpt>
<trkpt lat="49.759162897244096" lon="9.506502114236357">
<ele>186.2</ele>
<time>2024-05-11T13:48:08Z</time>
</trkpt>
<trkpt lat="49.75913615897298" lon="9.506503036245704">
<ele>186.4</ele>
<time>2024-05-11T13:48:09Z</time>
</trkpt>
<trkpt lat="49.75911327637732" lon="9.506502114236357">
<ele>186.6</ele>
<time>2024-05-11T13:48:10Z</time>
</trkpt>
<trkpt lat="49.7590865381062" lon="9.506500186398624">
<ele>186.8</ele>
<time>2024-05-11T13:48:11Z</time>
</trkpt>
<trkpt lat="49.75905988365412" lon="9.506494486704469">
<ele>187</ele>
<time>2024-05-11T13:48:12Z</time>
</trkpt>
<trkpt lat="49.75903700105846" lon="9.50649356469512">
<ele>187.2</ele>
<time>2024-05-11T13:48:13Z</time>
</trkpt>
<trkpt lat="49.75901026278734" lon="9.50649356469512">
<ele>187.6</ele>
<time>2024-05-11T13:48:14Z</time>
</trkpt>
<trkpt lat="49.75898738019168" lon="9.50648970901966">
<ele>187.8</ele>
<time>2024-05-11T13:48:15Z</time>
</trkpt>
<trkpt lat="49.75896064192057" lon="9.506488787010312">
<ele>188</ele>
<time>2024-05-11T13:48:16Z</time>
</trkpt>
<trkpt lat="49.75893398746848" lon="9.50648970901966">
<ele>188.2</ele>
<time>2024-05-11T13:48:17Z</time>
</trkpt>
<trkpt lat="49.75891110487282" lon="9.506486859172584">
<ele>188.4</ele>
<time>2024-05-11T13:48:18Z</time>
</trkpt>
<trkpt lat="49.758888222277164" lon="9.506486859172584">
<ele>188.6</ele>
<time>2024-05-11T13:48:19Z</time>
</trkpt>
<trkpt lat="49.75886148400605" lon="9.506481159478426">
<ele>188.6</ele>
<time>2024-05-11T13:48:20Z</time>
</trkpt>
<trkpt lat="49.75883860141039" lon="9.506476381793618">
<ele>188.8</ele>
<time>2024-05-11T13:48:21Z</time>
</trkpt>
<trkpt lat="49.75881571881473" lon="9.506476381793618">
<ele>188.8</ele>
<time>2024-05-11T13:48:22Z</time>
</trkpt>
<trkpt lat="49.75878898054361" lon="9.50647160410881">
<ele>188.8</ele>
<time>2024-05-11T13:48:23Z</time>
</trkpt>
<trkpt lat="49.75876232609153" lon="9.506466826424004">
<ele>189</ele>
<time>2024-05-11T13:48:24Z</time>
</trkpt>
<trkpt lat="49.75873944349587" lon="9.506462970748544">
<ele>189.2</ele>
<time>2024-05-11T13:48:25Z</time>
</trkpt>
<trkpt lat="49.75871270522475" lon="9.506460120901464">
<ele>189.2</ele>
<time>2024-05-11T13:48:26Z</time>
</trkpt>
<trkpt lat="49.758689822629094" lon="9.506455343216658">
<ele>189.4</ele>
<time>2024-05-11T13:48:27Z</time>
</trkpt>
<trkpt lat="49.75866316817701" lon="9.5064496435225">
<ele>189.4</ele>
<time>2024-05-11T13:48:28Z</time>
</trkpt>
<trkpt lat="49.75863642990589" lon="9.506444865837691">
<ele>189.6</ele>
<time>2024-05-11T13:48:29Z</time>
</trkpt>
<trkpt lat="49.75861354731023" lon="9.506438244134188">
<ele>189.8</ele>
<time>2024-05-11T13:48:30Z</time>
</trkpt>
<trkpt lat="49.75858680903912" lon="9.506436316296458">
<ele>190</ele>
<time>2024-05-11T13:48:31Z</time>
</trkpt>
<trkpt lat="49.75856392644346" lon="9.50643346644938">
<ele>190</ele>
<time>2024-05-11T13:48:32Z</time>
</trkpt>
<trkpt lat="49.75853727199137" lon="9.506426760926844">
<ele>190.2</ele>
<time>2024-05-11T13:48:33Z</time>
</trkpt>
<trkpt lat="49.758510533720255" lon="9.506421983242037">
<ele>190.4</ele>
<time>2024-05-11T13:48:34Z</time>
</trkpt>
<trkpt lat="49.75848387926817" lon="9.506416283547878">
<ele>190.4</ele>
<time>2024-05-11T13:48:35Z</time>
</trkpt>
<trkpt lat="49.75845714099705" lon="9.50640957802534">
<ele>190.6</ele>
<time>2024-05-11T13:48:36Z</time>
</trkpt>
<trkpt lat="49.758430402725935" lon="9.506401950493457">
<ele>190.8</ele>
<time>2024-05-11T13:48:37Z</time>
</trkpt>
<trkpt lat="49.75840374827385" lon="9.506396250799298">
<ele>190.8</ele>
<time>2024-05-11T13:48:38Z</time>
</trkpt>
<trkpt lat="49.75838086567819" lon="9.50639147311449">
<ele>191</ele>
<time>2024-05-11T13:48:39Z</time>
</trkpt>
<trkpt lat="49.758354127407074" lon="9.50638954527676">
<ele>191.4</ele>
<time>2024-05-11T13:48:40Z</time>
</trkpt>
<trkpt lat="49.75832747295499" lon="9.506384767591952">
<ele>191.6</ele>
<time>2024-05-11T13:48:41Z</time>
</trkpt>
<trkpt lat="49.75830073468387" lon="9.506381917744877">
<ele>191.8</ele>
<time>2024-05-11T13:48:42Z</time>
</trkpt>
<trkpt lat="49.75827785208821" lon="9.506378145888448">
<ele>192</ele>
<time>2024-05-11T13:48:43Z</time>
</trkpt>
<trkpt lat="49.758251113817096" lon="9.50637529604137">
<ele>192.2</ele>
<time>2024-05-11T13:48:44Z</time>
</trkpt>
<trkpt lat="49.75822060368955" lon="9.50637336820364">
<ele>192.2</ele>
<time>2024-05-11T13:48:45Z</time>
</trkpt>
<trkpt lat="49.75819772109389" lon="9.50637336820364">
<ele>192.4</ele>
<time>2024-05-11T13:48:46Z</time>
</trkpt>
<trkpt lat="49.75817106664181" lon="9.50636951252818">
<ele>192.6</ele>
<time>2024-05-11T13:48:47Z</time>
</trkpt>
<trkpt lat="49.75814432837069" lon="9.506366662681105">
<ele>192.8</ele>
<time>2024-05-11T13:48:48Z</time>
</trkpt>
<trkpt lat="49.75812144577503" lon="9.506364818662403">
<ele>193</ele>
<time>2024-05-11T13:48:49Z</time>
</trkpt>
<trkpt lat="49.758094707503915" lon="9.506364818662403">
<ele>193</ele>
<time>2024-05-11T13:48:50Z</time>
</trkpt>
<trkpt lat="49.758075680583715" lon="9.506366662681105">
<ele>193.2</ele>
<time>2024-05-11T13:48:51Z</time>
</trkpt>
<trkpt lat="49.75805279798806" lon="9.506368590518832">
<ele>193.4</ele>
<time>2024-05-11T13:48:52Z</time>
</trkpt>
<trkpt lat="49.7580299153924" lon="9.50636951252818">
<ele>193.6</ele>
<time>2024-05-11T13:48:53Z</time>
</trkpt>
<trkpt lat="49.75800703279674" lon="9.50636951252818">
<ele>193.8</ele>
<time>2024-05-11T13:48:54Z</time>
</trkpt>
<trkpt lat="49.75798415020108" lon="9.50637144036591">
<ele>194</ele>
<time>2024-05-11T13:48:55Z</time>
</trkpt>
<trkpt lat="49.75796503946185" lon="9.50637144036591">
<ele>194.2</ele>
<time>2024-05-11T13:48:56Z</time>
</trkpt>
<trkpt lat="49.75794215686619" lon="9.50637336820364">
<ele>194.4</ele>
<time>2024-05-11T13:48:57Z</time>
</trkpt>
<trkpt lat="49.757919274270535" lon="9.50637529604137">
<ele>194.6</ele>
<time>2024-05-11T13:48:58Z</time>
</trkpt>
<trkpt lat="49.7579001635313" lon="9.506378145888448">
<ele>194.6</ele>
<time>2024-05-11T13:48:59Z</time>
</trkpt>
<trkpt lat="49.757877280935645" lon="9.506380073726175">
<ele>194.8</ele>
<time>2024-05-11T13:49:00Z</time>
</trkpt>
<trkpt lat="49.757858254015446" lon="9.506380073726175">
<ele>194.8</ele>
<time>2024-05-11T13:49:01Z</time>
</trkpt>
<trkpt lat="49.75783151574433" lon="9.506381917744877">
<ele>195</ele>
<time>2024-05-11T13:49:03Z</time>
</trkpt>
<trkpt lat="49.75778960622847" lon="9.506388623267412">
<ele>195</ele>
<time>2024-05-11T13:49:04Z</time>
</trkpt>
<trkpt lat="49.757762867957354" lon="9.50639340095222">
<ele>195</ele>
<time>2024-05-11T13:49:05Z</time>
</trkpt>
<trkpt lat="49.757739985361695" lon="9.506398178637028">
<ele>195</ele>
<time>2024-05-11T13:49:06Z</time>
</trkpt>
<trkpt lat="49.75771324709058" lon="9.506400106474755">
<ele>195.2</ele>
<time>2024-05-11T13:49:07Z</time>
</trkpt>
<trkpt lat="49.75769036449492" lon="9.506402956321836">
<ele>195.2</ele>
<time>2024-05-11T13:49:08Z</time>
</trkpt>
<trkpt lat="49.75766748189926" lon="9.506406728178264">
<ele>195.4</ele>
<time>2024-05-11T13:49:09Z</time>
</trkpt>
<trkpt lat="49.7576445993036" lon="9.50641150586307">
<ele>195.4</ele>
<time>2024-05-11T13:49:10Z</time>
</trkpt>
<trkpt lat="49.757621716707945" lon="9.506420055404304">
<ele>195.6</ele>
<time>2024-05-11T13:49:11Z</time>
</trkpt>
<trkpt lat="49.75759506225586" lon="9.506426760926844">
<ele>195.8</ele>
<time>2024-05-11T13:49:12Z</time>
</trkpt>
<trkpt lat="49.75756832398474" lon="9.50643346644938">
<ele>196</ele>
<time>2024-05-11T13:49:13Z</time>
</trkpt>
<trkpt lat="49.75754544138909" lon="9.506442015990617">
<ele>196</ele>
<time>2024-05-11T13:49:14Z</time>
</trkpt>
<trkpt lat="49.75751870311797" lon="9.506448721513152">
<ele>196.2</ele>
<time>2024-05-11T13:49:15Z</time>
</trkpt>
<trkpt lat="49.75749582052231" lon="9.506456349045038">
<ele>196.4</ele>
<time>2024-05-11T13:49:16Z</time>
</trkpt>
<trkpt lat="49.75746916607022" lon="9.506464898586271">
<ele>196.4</ele>
<time>2024-05-11T13:49:17Z</time>
</trkpt>
<trkpt lat="49.757446283474565" lon="9.50647160410881">
<ele>196.6</ele>
<time>2024-05-11T13:49:18Z</time>
</trkpt>
<trkpt lat="49.757423400878906" lon="9.506478309631348">
<ele>196.6</ele>
<time>2024-05-11T13:49:19Z</time>
</trkpt>
<trkpt lat="49.757400434464216" lon="9.506484931334851">
<ele>196.8</ele>
<time>2024-05-11T13:49:20Z</time>
</trkpt>
<trkpt lat="49.75738140754402" lon="9.50649163685739">
<ele>197.2</ele>
<time>2024-05-11T13:49:21Z</time>
</trkpt>
<trkpt lat="49.75735852494836" lon="9.506500186398624">
<ele>197.4</ele>
<time>2024-05-11T13:49:22Z</time>
</trkpt>
<trkpt lat="49.75733941420913" lon="9.50650974176824">
<ele>197.6</ele>
<time>2024-05-11T13:49:23Z</time>
</trkpt>
<trkpt lat="49.75731653161347" lon="9.506518291309476">
<ele>197.8</ele>
<time>2024-05-11T13:49:24Z</time>
</trkpt>
<trkpt lat="49.75729750469327" lon="9.506524996832011">
<ele>198</ele>
<time>2024-05-11T13:49:25Z</time>
</trkpt>
<trkpt lat="49.75727462209761" lon="9.506533546373248">
<ele>198.2</ele>
<time>2024-05-11T13:49:26Z</time>
</trkpt>
<trkpt lat="49.75725173950195" lon="9.506543101742864">
<ele>198.4</ele>
<time>2024-05-11T13:49:27Z</time>
</trkpt>
<trkpt lat="49.75722877308726" lon="9.506554584950209">
<ele>198.6</ele>
<time>2024-05-11T13:49:28Z</time>
</trkpt>
<trkpt lat="49.757205890491605" lon="9.506565062329171">
<ele>198.8</ele>
<time>2024-05-11T13:49:29Z</time>
</trkpt>
<trkpt lat="49.757186863571405" lon="9.506574617698789">
<ele>199</ele>
<time>2024-05-11T13:49:30Z</time>
</trkpt>
<trkpt lat="49.75716398097575" lon="9.506587022915484">
<ele>199.2</ele>
<time>2024-05-11T13:49:31Z</time>
</trkpt>
<trkpt lat="49.75714487023651" lon="9.506596494466066">
<ele>199.6</ele>
<time>2024-05-11T13:49:32Z</time>
</trkpt>
<trkpt lat="49.75712198764086" lon="9.506607055664063">
<ele>199.8</ele>
<time>2024-05-11T13:49:33Z</time>
</trkpt>
<trkpt lat="49.7570991050452" lon="9.506618455052376">
<ele>200</ele>
<time>2024-05-11T13:49:34Z</time>
</trkpt>
<trkpt lat="49.757080078125" lon="9.50662993825972">
<ele>200.2</ele>
<time>2024-05-11T13:49:35Z</time>
</trkpt>
<trkpt lat="49.75705333985388" lon="9.506643265485764">
<ele>200.4</ele>
<time>2024-05-11T13:49:36Z</time>
</trkpt>
<trkpt lat="49.757030457258224" lon="9.506656592711806">
<ele>200.6</ele>
<time>2024-05-11T13:49:37Z</time>
</trkpt>
<trkpt lat="49.75701134651899" lon="9.506668075919151">
<ele>200.8</ele>
<time>2024-05-11T13:49:38Z</time>
</trkpt>
<trkpt lat="49.756988463923335" lon="9.506681403145194">
<ele>200.8</ele>
<time>2024-05-11T13:49:39Z</time>
</trkpt>
<trkpt lat="49.75696558132768" lon="9.506694730371237">
<ele>200.8</ele>
<time>2024-05-11T13:49:40Z</time>
</trkpt>
<trkpt lat="49.75694655440748" lon="9.506706213578582">
<ele>201</ele>
<time>2024-05-11T13:49:41Z</time>
</trkpt>
<trkpt lat="49.756927443668246" lon="9.506723396480083">
<ele>201</ele>
<time>2024-05-11T13:49:42Z</time>
</trkpt>
<trkpt lat="49.75690456107259" lon="9.506738651543856">
<ele>201</ele>
<time>2024-05-11T13:49:43Z</time>
</trkpt>
<trkpt lat="49.75688545033336" lon="9.506751978769898">
<ele>201</ele>
<time>2024-05-11T13:49:44Z</time>
</trkpt>
<trkpt lat="49.7568625677377" lon="9.506763378158212">
<ele>201</ele>
<time>2024-05-11T13:49:45Z</time>
</trkpt>
<trkpt lat="49.75683968514204" lon="9.506776789203286">
<ele>201.2</ele>
<time>2024-05-11T13:49:46Z</time>
</trkpt>
<trkpt lat="49.75681680254638" lon="9.5067881885916">
<ele>201.2</ele>
<time>2024-05-11T13:49:47Z</time>
</trkpt>
<trkpt lat="49.75679777562618" lon="9.506801599636674">
<ele>201.4</ele>
<time>2024-05-11T13:49:48Z</time>
</trkpt>
<trkpt lat="49.75677489303053" lon="9.506816854700446">
<ele>201.4</ele>
<time>2024-05-11T13:49:49Z</time>
</trkpt>
<trkpt lat="49.756752010434866" lon="9.506832109764218">
<ele>201.6</ele>
<time>2024-05-11T13:49:50Z</time>
</trkpt>
<trkpt lat="49.756729044020176" lon="9.50684828683734">
<ele>201.8</ele>
<time>2024-05-11T13:49:51Z</time>
</trkpt>
<trkpt lat="49.75670616142452" lon="9.506864547729492">
<ele>202</ele>
<time>2024-05-11T13:49:52Z</time>
</trkpt>
<trkpt lat="49.75668327882886" lon="9.506881646811962">
<ele>202.4</ele>
<time>2024-05-11T13:49:53Z</time>
</trkpt>
<trkpt lat="49.75666425190866" lon="9.506896901875734">
<ele>202.6</ele>
<time>2024-05-11T13:49:54Z</time>
</trkpt>
<trkpt lat="49.75664514116943" lon="9.506913162767887">
<ele>202.8</ele>
<time>2024-05-11T13:49:55Z</time>
</trkpt>
<trkpt lat="49.75662611424923" lon="9.506930345669389">
<ele>203</ele>
<time>2024-05-11T13:49:56Z</time>
</trkpt>
<trkpt lat="49.75660323165357" lon="9.50694652274251">
<ele>203.2</ele>
<time>2024-05-11T13:49:57Z</time>
</trkpt>
<trkpt lat="49.75658034905791" lon="9.506961777806282">
<ele>203.6</ele>
<time>2024-05-11T13:49:58Z</time>
</trkpt>
<trkpt lat="49.75655738264322" lon="9.506975105032325">
<ele>203.8</ele>
<time>2024-05-11T13:49:59Z</time>
</trkpt>
<trkpt lat="49.75653835572302" lon="9.506991365924478">
<ele>204.2</ele>
<time>2024-05-11T13:50:00Z</time>
</trkpt>
<trkpt lat="49.756515473127365" lon="9.507009470835328">
<ele>204.4</ele>
<time>2024-05-11T13:50:01Z</time>
</trkpt>
<trkpt lat="49.75649259053171" lon="9.50702665373683">
<ele>204.8</ele>
<time>2024-05-11T13:50:02Z</time>
</trkpt>
<trkpt lat="49.75647347979248" lon="9.50704475864768">
<ele>205</ele>
<time>2024-05-11T13:50:03Z</time>
</trkpt>
<trkpt lat="49.75645445287227" lon="9.507061941549182">
<ele>205.4</ele>
<time>2024-05-11T13:50:04Z</time>
</trkpt>
<trkpt lat="49.75643157027662" lon="9.507081974297762">
<ele>205.6</ele>
<time>2024-05-11T13:50:05Z</time>
</trkpt>
<trkpt lat="49.7564048320055" lon="9.507098151370885">
<ele>205.8</ele>
<time>2024-05-11T13:50:06Z</time>
</trkpt>
<trkpt lat="49.75638572126627" lon="9.507113406434655">
<ele>206</ele>
<time>2024-05-11T13:50:07Z</time>
</trkpt>
<trkpt lat="49.75636283867061" lon="9.507133439183235">
<ele>206.4</ele>
<time>2024-05-11T13:50:08Z</time>
</trkpt>
<trkpt lat="49.75633995607495" lon="9.507149616256356">
<ele>206.6</ele>
<time>2024-05-11T13:50:10Z</time>
</trkpt>
<trkpt lat="49.75632470101118" lon="9.507168726995587">
<ele>206.8</ele>
<time>2024-05-11T13:50:11Z</time>
</trkpt>
<trkpt lat="49.756278935819864" lon="9.507204936817288">
<ele>207.2</ele>
<time>2024-05-11T13:50:12Z</time>
</trkpt>
<trkpt lat="49.756259908899665" lon="9.507224969565868">
<ele>207.4</ele>
<time>2024-05-11T13:50:13Z</time>
</trkpt>
<trkpt lat="49.75623702630401" lon="9.507245002314448">
<ele>207.6</ele>
<time>2024-05-11T13:50:14Z</time>
</trkpt>
<trkpt lat="49.756217915564775" lon="9.507265035063028">
<ele>207.8</ele>
<time>2024-05-11T13:50:15Z</time>
</trkpt>
<trkpt lat="49.75619503296912" lon="9.507285067811608">
<ele>208</ele>
<time>2024-05-11T13:50:16Z</time>
</trkpt>
<trkpt lat="49.75617215037346" lon="9.507305100560188">
<ele>208</ele>
<time>2024-05-11T13:50:17Z</time>
</trkpt>
<trkpt lat="49.75615303963423" lon="9.50732320547104">
<ele>208.2</ele>
<time>2024-05-11T13:50:18Z</time>
</trkpt>
<trkpt lat="49.75612638518214" lon="9.507338460534813">
<ele>208.6</ele>
<time>2024-05-11T13:50:19Z</time>
</trkpt>
<trkpt lat="49.75610350258648" lon="9.507352793589234">
<ele>208.8</ele>
<time>2024-05-11T13:50:20Z</time>
</trkpt>
<trkpt lat="49.75608439184725" lon="9.507371820509434">
<ele>209</ele>
<time>2024-05-11T13:50:21Z</time>
</trkpt>
<trkpt lat="49.756061509251595" lon="9.507388081401588">
<ele>209.2</ele>
<time>2024-05-11T13:50:22Z</time>
</trkpt>
<trkpt lat="49.75604239851236" lon="9.507406186312435">
<ele>209.4</ele>
<time>2024-05-11T13:50:23Z</time>
</trkpt>
<trkpt lat="49.756019515916705" lon="9.507425297051668">
<ele>209.6</ele>
<time>2024-05-11T13:50:24Z</time>
</trkpt>
<trkpt lat="49.75599663332105" lon="9.50744147412479">
<ele>210</ele>
<time>2024-05-11T13:50:25Z</time>
</trkpt>
<trkpt lat="49.75597375072539" lon="9.50745957903564">
<ele>210.2</ele>
<time>2024-05-11T13:50:26Z</time>
</trkpt>
<trkpt lat="49.75595086812973" lon="9.50747676193714">
<ele>210.4</ele>
<time>2024-05-11T13:50:27Z</time>
</trkpt>
<trkpt lat="49.75592798553407" lon="9.507492939010262">
<ele>210.6</ele>
<time>2024-05-11T13:50:28Z</time>
</trkpt>
<trkpt lat="49.755905102938414" lon="9.507512971758842">
<ele>210.6</ele>
<time>2024-05-11T13:50:29Z</time>
</trkpt>
<trkpt lat="49.755882220342755" lon="9.507533004507422">
<ele>210.8</ele>
<time>2024-05-11T13:50:30Z</time>
</trkpt>
<trkpt lat="49.75585548207164" lon="9.507551193237305">
<ele>210.8</ele>
<time>2024-05-11T13:50:31Z</time>
</trkpt>
<trkpt lat="49.75583259947598" lon="9.507568292319776">
<ele>211</ele>
<time>2024-05-11T13:50:32Z</time>
</trkpt>
<trkpt lat="49.75580971688032" lon="9.507583547383549">
<ele>211</ele>
<time>2024-05-11T13:50:33Z</time>
</trkpt>
<trkpt lat="49.75578306242824" lon="9.50759788043797">
<ele>211.2</ele>
<time>2024-05-11T13:50:34Z</time>
</trkpt>
<trkpt lat="49.75576017983258" lon="9.507613135501742">
<ele>211.2</ele>
<time>2024-05-11T13:50:35Z</time>
</trkpt>
<trkpt lat="49.75573729723692" lon="9.507624618709087">
<ele>211.4</ele>
<time>2024-05-11T13:50:36Z</time>
</trkpt>
<trkpt lat="49.75571441464126" lon="9.50763987377286">
<ele>211.4</ele>
<time>2024-05-11T13:50:37Z</time>
</trkpt>
<trkpt lat="49.75569144822657" lon="9.50765697285533">
<ele>211.6</ele>
<time>2024-05-11T13:50:38Z</time>
</trkpt>
<trkpt lat="49.755664793774486" lon="9.507671305909753">
<ele>211.6</ele>
<time>2024-05-11T13:50:39Z</time>
</trkpt>
<trkpt lat="49.75564191117883" lon="9.507686560973523">
<ele>211.6</ele>
<time>2024-05-11T13:50:40Z</time>
</trkpt>
<trkpt lat="49.75561517290771" lon="9.507703743875028">
<ele>211.6</ele>
<time>2024-05-11T13:50:41Z</time>
</trkpt>
<trkpt lat="49.755588518455625" lon="9.507722854614258">
<ele>211.8</ele>
<time>2024-05-11T13:50:42Z</time>
</trkpt>
<trkpt lat="49.755565635859966" lon="9.507739953696728">
<ele>211.8</ele>
<time>2024-05-11T13:50:43Z</time>
</trkpt>
<trkpt lat="49.75553889758885" lon="9.507758058607578">
<ele>211.8</ele>
<time>2024-05-11T13:50:44Z</time>
</trkpt>
<trkpt lat="49.75551601499319" lon="9.507771469652653">
<ele>211.8</ele>
<time>2024-05-11T13:50:45Z</time>
</trkpt>
<trkpt lat="49.755489276722074" lon="9.507788652554154">
<ele>212</ele>
<time>2024-05-11T13:50:46Z</time>
</trkpt>
<trkpt lat="49.755466394126415" lon="9.507802901789546">
<ele>212</ele>
<time>2024-05-11T13:50:47Z</time>
</trkpt>
<trkpt lat="49.75544351153076" lon="9.507818156853318">
<ele>212</ele>
<time>2024-05-11T13:50:48Z</time>
</trkpt>
<trkpt lat="49.75541685707867" lon="9.507831567898393">
<ele>212</ele>
<time>2024-05-11T13:50:49Z</time>
</trkpt>
<trkpt lat="49.75539397448301" lon="9.507844895124435">
<ele>212.2</ele>
<time>2024-05-11T13:50:50Z</time>
</trkpt>
<trkpt lat="49.755371091887355" lon="9.507858222350478">
<ele>212.4</ele>
<time>2024-05-11T13:50:51Z</time>
</trkpt>
<trkpt lat="49.75534435361624" lon="9.50787154957652">
<ele>212.4</ele>
<time>2024-05-11T13:50:52Z</time>
</trkpt>
<trkpt lat="49.75532147102058" lon="9.507883032783866">
<ele>212.6</ele>
<time>2024-05-11T13:50:53Z</time>
</trkpt>
<trkpt lat="49.75529473274946" lon="9.507896360009909">
<ele>212.8</ele>
<time>2024-05-11T13:50:54Z</time>
</trkpt>
<trkpt lat="49.75527185015381" lon="9.507909771054983">
<ele>213</ele>
<time>2024-05-11T13:50:55Z</time>
</trkpt>
<trkpt lat="49.75524134002626" lon="9.507923098281026">
<ele>213.4</ele>
<time>2024-05-11T13:50:56Z</time>
</trkpt>
<trkpt lat="49.755214685574174" lon="9.507936425507069">
<ele>213.6</ele>
<time>2024-05-11T13:50:57Z</time>
</trkpt>
<trkpt lat="49.75518794730306" lon="9.507947908714414">
<ele>214</ele>
<time>2024-05-11T13:50:58Z</time>
</trkpt>
<trkpt lat="49.7551650647074" lon="9.507961235940456">
<ele>214.2</ele>
<time>2024-05-11T13:50:59Z</time>
</trkpt>
<trkpt lat="49.755134554579854" lon="9.50797364115715">
<ele>214.6</ele>
<time>2024-05-11T13:51:00Z</time>
</trkpt>
<trkpt lat="49.75510781630874" lon="9.507985040545464">
<ele>215</ele>
<time>2024-05-11T13:51:01Z</time>
</trkpt>
<trkpt lat="49.75508116185665" lon="9.507998451590538">
<ele>215.2</ele>
<time>2024-05-11T13:51:02Z</time>
</trkpt>
<trkpt lat="49.755054423585534" lon="9.508007923141122">
<ele>215.6</ele>
<time>2024-05-11T13:51:03Z</time>
</trkpt>
<trkpt lat="49.75502776913345" lon="9.508020328357816">
<ele>215.8</ele>
<time>2024-05-11T13:51:04Z</time>
</trkpt>
<trkpt lat="49.75500103086233" lon="9.50803373940289">
<ele>216</ele>
<time>2024-05-11T13:51:05Z</time>
</trkpt>
<trkpt lat="49.754974292591214" lon="9.508045138791203">
<ele>216.2</ele>
<time>2024-05-11T13:51:06Z</time>
</trkpt>
<trkpt lat="49.75494763813913" lon="9.50805469416082">
<ele>216.4</ele>
<time>2024-05-11T13:51:07Z</time>
</trkpt>
<trkpt lat="49.75492089986801" lon="9.508065171539783">
<ele>216.8</ele>
<time>2024-05-11T13:51:08Z</time>
</trkpt>
<trkpt lat="49.754894245415926" lon="9.5080747269094">
<ele>217</ele>
<time>2024-05-11T13:51:09Z</time>
</trkpt>
<trkpt lat="49.75486750714481" lon="9.508087132126091">
<ele>217</ele>
<time>2024-05-11T13:51:10Z</time>
</trkpt>
<trkpt lat="49.754836997017264" lon="9.508096687495708">
<ele>217.2</ele>
<time>2024-05-11T13:51:11Z</time>
</trkpt>
<trkpt lat="49.754814114421606" lon="9.508105237036943">
<ele>217.4</ele>
<time>2024-05-11T13:51:12Z</time>
</trkpt>
<trkpt lat="49.75478360429406" lon="9.508116720244288">
<ele>217.4</ele>
<time>2024-05-11T13:51:13Z</time>
</trkpt>
<trkpt lat="49.754756866022944" lon="9.508125269785523">
<ele>217.6</ele>
<time>2024-05-11T13:51:14Z</time>
</trkpt>
<trkpt lat="49.75473021157086" lon="9.50813482515514">
<ele>217.6</ele>
<time>2024-05-11T13:51:15Z</time>
</trkpt>
<trkpt lat="49.75470347329974" lon="9.508146224543452">
<ele>217.6</ele>
<time>2024-05-11T13:51:16Z</time>
</trkpt>
<trkpt lat="49.754676818847656" lon="9.508156701922417">
<ele>217.8</ele>
<time>2024-05-11T13:51:17Z</time>
</trkpt>
<trkpt lat="49.75465008057654" lon="9.508166257292032">
<ele>218</ele>
<time>2024-05-11T13:51:18Z</time>
</trkpt>
<trkpt lat="49.754619570448995" lon="9.508176734670997">
<ele>218</ele>
<time>2024-05-11T13:51:19Z</time>
</trkpt>
<trkpt lat="49.75459283217788" lon="9.508183440193534">
<ele>218.2</ele>
<time>2024-05-11T13:51:20Z</time>
</trkpt>
<trkpt lat="49.75456617772579" lon="9.508190145716071">
<ele>218.4</ele>
<time>2024-05-11T13:51:21Z</time>
</trkpt>
<trkpt lat="49.75453566759825" lon="9.508198695257306">
<ele>218.4</ele>
<time>2024-05-11T13:51:22Z</time>
</trkpt>
<trkpt lat="49.7545051574707" lon="9.508205400779843">
<ele>218.6</ele>
<time>2024-05-11T13:51:23Z</time>
</trkpt>
<trkpt lat="49.75447456352413" lon="9.508210178464653">
<ele>218.6</ele>
<time>2024-05-11T13:51:24Z</time>
</trkpt>
<trkpt lat="49.75444405339658" lon="9.508214872330427">
<ele>218.8</ele>
<time>2024-05-11T13:51:25Z</time>
</trkpt>
<trkpt lat="49.75441354326904" lon="9.508221577852964">
<ele>218.8</ele>
<time>2024-05-11T13:51:26Z</time>
</trkpt>
<trkpt lat="49.75438688881695" lon="9.508226355537772">
<ele>219</ele>
<time>2024-05-11T13:51:27Z</time>
</trkpt>
<trkpt lat="49.754360150545835" lon="9.508234905079007">
<ele>219</ele>
<time>2024-05-11T13:51:28Z</time>
</trkpt>
<trkpt lat="49.75433349609375" lon="9.508241610601544">
<ele>219.2</ele>
<time>2024-05-11T13:51:29Z</time>
</trkpt>
<trkpt lat="49.754302902147174" lon="9.50825016014278">
<ele>219.2</ele>
<time>2024-05-11T13:51:30Z</time>
</trkpt>
<trkpt lat="49.75427624769509" lon="9.508259715512397">
<ele>219.4</ele>
<time>2024-05-11T13:51:31Z</time>
</trkpt>
<trkpt lat="49.754241881892085" lon="9.50827019289136">
<ele>219.6</ele>
<time>2024-05-11T13:51:32Z</time>
</trkpt>
<trkpt lat="49.75421137176454" lon="9.508277820423244">
<ele>219.8</ele>
<time>2024-05-11T13:51:33Z</time>
</trkpt>
<trkpt lat="49.754184717312455" lon="9.508284525945784">
<ele>220</ele>
<time>2024-05-11T13:51:34Z</time>
</trkpt>
<trkpt lat="49.75415797904134" lon="9.50829022563994">
<ele>220.2</ele>
<time>2024-05-11T13:51:35Z</time>
</trkpt>
<trkpt lat="49.754127468913794" lon="9.508295003324749">
<ele>220.4</ele>
<time>2024-05-11T13:51:36Z</time>
</trkpt>
<trkpt lat="49.75409695878625" lon="9.508296931162477">
<ele>220.6</ele>
<time>2024-05-11T13:51:37Z</time>
</trkpt>
<trkpt lat="49.75407022051513" lon="9.508297853171824">
<ele>220.8</ele>
<time>2024-05-11T13:51:38Z</time>
</trkpt>
<trkpt lat="49.75403971038759" lon="9.508299781009557">
<ele>221</ele>
<time>2024-05-11T13:51:39Z</time>
</trkpt>
<trkpt lat="49.754005428403616" lon="9.508301708847284">
<ele>221.4</ele>
<time>2024-05-11T13:51:40Z</time>
</trkpt>
<trkpt lat="49.75397483445704" lon="9.508303636685014">
<ele>221.6</ele>
<time>2024-05-11T13:51:41Z</time>
</trkpt>
<trkpt lat="49.753948180004954" lon="9.508304558694364">
<ele>221.8</ele>
<time>2024-05-11T13:51:42Z</time>
</trkpt>
<trkpt lat="49.75391766987741" lon="9.50830833055079">
<ele>222</ele>
<time>2024-05-11T13:51:43Z</time>
</trkpt>
<trkpt lat="49.753887159749866" lon="9.5083112642169">
<ele>222.2</ele>
<time>2024-05-11T13:51:44Z</time>
</trkpt>
<trkpt lat="49.75385664962232" lon="9.508315036073329">
<ele>222.4</ele>
<time>2024-05-11T13:51:45Z</time>
</trkpt>
<trkpt lat="49.75382613949478" lon="9.508316963911057">
<ele>222.4</ele>
<time>2024-05-11T13:51:46Z</time>
</trkpt>
<trkpt lat="49.7537955455482" lon="9.508317885920404">
<ele>222.6</ele>
<time>2024-05-11T13:51:47Z</time>
</trkpt>
<trkpt lat="49.753765035420656" lon="9.508319813758137">
<ele>222.8</ele>
<time>2024-05-11T13:51:49Z</time>
</trkpt>
<trkpt lat="49.75370024330914" lon="9.508324591442944">
<ele>223</ele>
<time>2024-05-11T13:51:50Z</time>
</trkpt>
<trkpt lat="49.7536697331816" lon="9.5083302911371">
<ele>223.2</ele>
<time>2024-05-11T13:51:51Z</time>
</trkpt>
<trkpt lat="49.75363913923502" lon="9.508335068821909">
<ele>223.2</ele>
<time>2024-05-11T13:51:52Z</time>
</trkpt>
<trkpt lat="49.75360485725105" lon="9.508339846506717">
<ele>223.4</ele>
<time>2024-05-11T13:51:53Z</time>
</trkpt>
<trkpt lat="49.753574347123504" lon="9.508346552029252">
<ele>223.6</ele>
<time>2024-05-11T13:51:54Z</time>
</trkpt>
<trkpt lat="49.75354383699596" lon="9.508355101570489">
<ele>223.8</ele>
<time>2024-05-11T13:51:55Z</time>
</trkpt>
<trkpt lat="49.753513326868415" lon="9.508364656940104">
<ele>224</ele>
<time>2024-05-11T13:51:56Z</time>
</trkpt>
<trkpt lat="49.75347896106541" lon="9.508377062156796">
<ele>224.2</ele>
<time>2024-05-11T13:51:57Z</time>
</trkpt>
<trkpt lat="49.75344459526241" lon="9.50839038938284">
<ele>224.4</ele>
<time>2024-05-11T13:51:58Z</time>
</trkpt>
<trkpt lat="49.753414085134864" lon="9.508403716608882">
<ele>224.6</ele>
<time>2024-05-11T13:51:59Z</time>
</trkpt>
<trkpt lat="49.75337980315089" lon="9.508417127653956">
<ele>224.8</ele>
<time>2024-05-11T13:52:00Z</time>
</trkpt>
<trkpt lat="49.75334929302335" lon="9.508431376889348">
<ele>224.8</ele>
<time>2024-05-11T13:52:01Z</time>
</trkpt>
<trkpt lat="49.7533187828958" lon="9.5084494818002">
<ele>225</ele>
<time>2024-05-11T13:52:02Z</time>
</trkpt>
<trkpt lat="49.75328818894923" lon="9.508471442386508">
<ele>225</ele>
<time>2024-05-11T13:52:03Z</time>
</trkpt>
<trkpt lat="49.753253906965256" lon="9.50848954729736">
<ele>225.2</ele>
<time>2024-05-11T13:52:04Z</time>
</trkpt>
<trkpt lat="49.75322339683771" lon="9.508511507883668">
<ele>225.2</ele>
<time>2024-05-11T13:52:05Z</time>
</trkpt>
<trkpt lat="49.753196658566594" lon="9.508538246154783">
<ele>225.4</ele>
<time>2024-05-11T13:52:06Z</time>
</trkpt>
<trkpt lat="49.75316614843905" lon="9.50856490060687">
<ele>225.6</ele>
<time>2024-05-11T13:52:07Z</time>
</trkpt>
<trkpt lat="49.75313949398696" lon="9.508596416562796">
<ele>225.8</ele>
<time>2024-05-11T13:52:08Z</time>
</trkpt>
<trkpt lat="49.75311275571585" lon="9.50862692669034">
<ele>226</ele>
<time>2024-05-11T13:52:09Z</time>
</trkpt>
<trkpt lat="49.75308601744473" lon="9.508660286664965">
<ele>226.2</ele>
<time>2024-05-11T13:52:10Z</time>
</trkpt>
<trkpt lat="49.75305936299264" lon="9.508696496486664">
<ele>226.4</ele>
<time>2024-05-11T13:52:11Z</time>
</trkpt>
<trkpt lat="49.753036480396986" lon="9.508736561983824">
<ele>226.6</ele>
<time>2024-05-11T13:52:12Z</time>
</trkpt>
<trkpt lat="49.753017369657755" lon="9.508776627480984">
<ele>226.8</ele>
<time>2024-05-11T13:52:13Z</time>
</trkpt>
<trkpt lat="49.752998342737556" lon="9.508814765140414">
<ele>226.8</ele>
<time>2024-05-11T13:52:14Z</time>
</trkpt>
<trkpt lat="49.75297923199832" lon="9.508856758475304">
<ele>227</ele>
<time>2024-05-11T13:52:15Z</time>
</trkpt>
<trkpt lat="49.752960205078125" lon="9.508896823972464">
<ele>227.2</ele>
<time>2024-05-11T13:52:16Z</time>
</trkpt>
<trkpt lat="49.752941094338894" lon="9.508937811478972">
<ele>227.4</ele>
<time>2024-05-11T13:52:17Z</time>
</trkpt>
<trkpt lat="49.75292961113155" lon="9.50897972099483">
<ele>227.8</ele>
<time>2024-05-11T13:52:18Z</time>
</trkpt>
<trkpt lat="49.75291821174323" lon="9.509024564176798">
<ele>228</ele>
<time>2024-05-11T13:52:19Z</time>
</trkpt>
<trkpt lat="49.75291058421135" lon="9.509071335196497">
<ele>228.2</ele>
<time>2024-05-11T13:52:20Z</time>
</trkpt>
<trkpt lat="49.75290295667946" lon="9.509117100387812">
<ele>228.4</ele>
<time>2024-05-11T13:52:21Z</time>
</trkpt>
<trkpt lat="49.75289532914758" lon="9.509162865579128">
<ele>228.6</ele>
<time>2024-05-11T13:52:22Z</time>
</trkpt>
<trkpt lat="49.75289147347212" lon="9.509209552779794">
<ele>228.8</ele>
<time>2024-05-11T13:52:23Z</time>
</trkpt>
<trkpt lat="49.75288770161569" lon="9.509256323799493">
<ele>229</ele>
<time>2024-05-11T13:52:24Z</time>
</trkpt>
<trkpt lat="49.75288384594023" lon="9.509302088990808">
<ele>229.4</ele>
<time>2024-05-11T13:52:25Z</time>
</trkpt>
<trkpt lat="49.752880074083805" lon="9.509345004335046">
<ele>229.6</ele>
<time>2024-05-11T13:52:26Z</time>
</trkpt>
<trkpt lat="49.752880074083805" lon="9.509389847517014">
<ele>229.8</ele>
<time>2024-05-11T13:52:27Z</time>
</trkpt>
<trkpt lat="49.752880074083805" lon="9.50943653471768">
<ele>230</ele>
<time>2024-05-11T13:52:28Z</time>
</trkpt>
<trkpt lat="49.752880074083805" lon="9.509483305737376">
<ele>230.2</ele>
<time>2024-05-11T13:52:29Z</time>
</trkpt>
<trkpt lat="49.752880074083805" lon="9.509528148919344">
<ele>230.4</ele>
<time>2024-05-11T13:52:30Z</time>
</trkpt>
<trkpt lat="49.752880074083805" lon="9.50957290828228">
<ele>230.8</ele>
<time>2024-05-11T13:52:31Z</time>
</trkpt>
<trkpt lat="49.75288384594023" lon="9.5096168294549">
<ele>231</ele>
<time>2024-05-11T13:52:32Z</time>
</trkpt>
<trkpt lat="49.75288384594023" lon="9.509659744799135">
<ele>231.2</ele>
<time>2024-05-11T13:52:33Z</time>
</trkpt>
<trkpt lat="49.75288770161569" lon="9.509703582152724">
<ele>231.4</ele>
<time>2024-05-11T13:52:34Z</time>
</trkpt>
<trkpt lat="49.75288770161569" lon="9.509748425334692">
<ele>231.4</ele>
<time>2024-05-11T13:52:35Z</time>
</trkpt>
<trkpt lat="49.75288770161569" lon="9.50979134067893">
<ele>231.6</ele>
<time>2024-05-11T13:52:36Z</time>
</trkpt>
<trkpt lat="49.75289147347212" lon="9.509836183860898">
<ele>231.8</ele>
<time>2024-05-11T13:52:37Z</time>
</trkpt>
<trkpt lat="49.75289147347212" lon="9.509881949052216">
<ele>232</ele>
<time>2024-05-11T13:52:38Z</time>
</trkpt>
<trkpt lat="49.75289532914758" lon="9.50992863625288">
<ele>232.2</ele>
<time>2024-05-11T13:52:39Z</time>
</trkpt>
<trkpt lat="49.752899101004" lon="9.509973479434848">
<ele>232.4</ele>
<time>2024-05-11T13:52:40Z</time>
</trkpt>
<trkpt lat="49.75290295667946" lon="9.510020250454543">
<ele>232.4</ele>
<time>2024-05-11T13:52:41Z</time>
</trkpt>
<trkpt lat="49.75290672853589" lon="9.51006500981748">
<ele>232.6</ele>
<time>2024-05-11T13:52:42Z</time>
</trkpt>
<trkpt lat="49.75290672853589" lon="9.510109852999449">
<ele>232.8</ele>
<time>2024-05-11T13:52:43Z</time>
</trkpt>
<trkpt lat="49.75290672853589" lon="9.510153690353036">
<ele>233</ele>
<time>2024-05-11T13:52:44Z</time>
</trkpt>
<trkpt lat="49.75290672853589" lon="9.510194761678576">
<ele>233.2</ele>
<time>2024-05-11T13:52:45Z</time>
</trkpt>
<trkpt lat="49.752899101004" lon="9.510234827175736">
<ele>233.4</ele>
<time>2024-05-11T13:52:46Z</time>
</trkpt>
<trkpt lat="49.75289532914758" lon="9.510274808853865">
<ele>233.6</ele>
<time>2024-05-11T13:52:47Z</time>
</trkpt>
<trkpt lat="49.75289147347212" lon="9.510319652035832">
<ele>233.6</ele>
<time>2024-05-11T13:52:48Z</time>
</trkpt>
<trkpt lat="49.75288384594023" lon="9.510359717532992">
<ele>233.8</ele>
<time>2024-05-11T13:52:49Z</time>
</trkpt>
<trkpt lat="49.752876218408346" lon="9.510401710867882">
<ele>233.8</ele>
<time>2024-05-11T13:52:50Z</time>
</trkpt>
<trkpt lat="49.75286481902003" lon="9.510441776365042">
<ele>234</ele>
<time>2024-05-11T13:52:51Z</time>
</trkpt>
<trkpt lat="49.75285333581269" lon="9.510479914024472">
<ele>234</ele>
<time>2024-05-11T13:52:52Z</time>
</trkpt>
<trkpt lat="49.75283808074891" lon="9.51052182354033">
<ele>234.2</ele>
<time>2024-05-11T13:52:53Z</time>
</trkpt>
<trkpt lat="49.7528266813606" lon="9.510558117181064">
<ele>234.2</ele>
<time>2024-05-11T13:52:54Z</time>
</trkpt>
<trkpt lat="49.75281142629683" lon="9.510595249012113">
<ele>234.4</ele>
<time>2024-05-11T13:52:55Z</time>
</trkpt>
<trkpt lat="49.75279617123306" lon="9.510628692805769">
<ele>234.6</ele>
<time>2024-05-11T13:52:57Z</time>
</trkpt>
<trkpt lat="49.75276557728648" lon="9.510689713060856">
<ele>235</ele>
<time>2024-05-11T13:52:58Z</time>
</trkpt>
<trkpt lat="49.75274655036628" lon="9.51071636751294">
<ele>235.2</ele>
<time>2024-05-11T13:52:59Z</time>
</trkpt>
<trkpt lat="49.75272743962705" lon="9.51074310578406">
<ele>235.4</ele>
<time>2024-05-11T13:53:00Z</time>
</trkpt>
<trkpt lat="49.75270455703139" lon="9.510769844055176">
<ele>235.8</ele>
<time>2024-05-11T13:53:01Z</time>
</trkpt>
<trkpt lat="49.752685530111194" lon="9.510794570669532">
<ele>236</ele>
<time>2024-05-11T13:53:02Z</time>
</trkpt>
<trkpt lat="49.75266641937196" lon="9.510814603418112">
<ele>236.4</ele>
<time>2024-05-11T13:53:03Z</time>
</trkpt>
<trkpt lat="49.75263976491988" lon="9.51083656400442">
<ele>236.8</ele>
<time>2024-05-11T13:53:04Z</time>
</trkpt>
<trkpt lat="49.75261688232422" lon="9.510861374437807">
<ele>237</ele>
<time>2024-05-11T13:53:05Z</time>
</trkpt>
<trkpt lat="49.75259391590953" lon="9.510883251205088">
<ele>237.4</ele>
<time>2024-05-11T13:53:06Z</time>
</trkpt>
<trkpt lat="49.75256726145744" lon="9.510900434106588">
<ele>237.6</ele>
<time>2024-05-11T13:53:07Z</time>
</trkpt>
<trkpt lat="49.752540523186326" lon="9.510914767161012">
<ele>237.8</ele>
<time>2024-05-11T13:53:08Z</time>
</trkpt>
<trkpt lat="49.75251001305878" lon="9.510926166549323">
<ele>238.2</ele>
<time>2024-05-11T13:53:09Z</time>
</trkpt>
<trkpt lat="49.752483358606696" lon="9.510934799909592">
<ele>238.4</ele>
<time>2024-05-11T13:53:10Z</time>
</trkpt>
<trkpt lat="49.75245662033558" lon="9.510943349450828">
<ele>238.6</ele>
<time>2024-05-11T13:53:11Z</time>
</trkpt>
<trkpt lat="49.75242988206446" lon="9.510948127135634">
<ele>238.8</ele>
<time>2024-05-11T13:53:12Z</time>
</trkpt>
<trkpt lat="49.752403227612376" lon="9.510950054973364">
<ele>239</ele>
<time>2024-05-11T13:53:13Z</time>
</trkpt>
<trkpt lat="49.75237648934126" lon="9.510950054973364">
<ele>239.2</ele>
<time>2024-05-11T13:53:14Z</time>
</trkpt>
<trkpt lat="49.75234983488917" lon="9.510946199297903">
<ele>239.4</ele>
<time>2024-05-11T13:53:15Z</time>
</trkpt>
<trkpt lat="49.75231932476163" lon="9.5109395775944">
<ele>239.4</ele>
<time>2024-05-11T13:53:16Z</time>
</trkpt>
<trkpt lat="49.75229258649051" lon="9.510931950062512">
<ele>239.6</ele>
<time>2024-05-11T13:53:17Z</time>
</trkpt>
<trkpt lat="49.752265848219395" lon="9.510921472683547">
<ele>239.8</ele>
<time>2024-05-11T13:53:18Z</time>
</trkpt>
<trkpt lat="49.75223919376731" lon="9.510906217619777">
<ele>240</ele>
<time>2024-05-11T13:53:19Z</time>
</trkpt>
<trkpt lat="49.75221631117165" lon="9.510888028889894">
<ele>240.2</ele>
<time>2024-05-11T13:53:20Z</time>
</trkpt>
<trkpt lat="49.752189572900534" lon="9.510869923979044">
<ele>240.4</ele>
<time>2024-05-11T13:53:21Z</time>
</trkpt>
<trkpt lat="49.752166690304875" lon="9.510851819068192">
<ele>240.6</ele>
<time>2024-05-11T13:53:22Z</time>
</trkpt>
<trkpt lat="49.75214003585279" lon="9.510828014463186">
<ele>240.8</ele>
<time>2024-05-11T13:53:23Z</time>
</trkpt>
<trkpt lat="49.75211329758167" lon="9.5108032040298">
<ele>241</ele>
<time>2024-05-11T13:53:24Z</time>
</trkpt>
<trkpt lat="49.752090414986014" lon="9.510773615911605">
<ele>241.2</ele>
<time>2024-05-11T13:53:25Z</time>
</trkpt>
<trkpt lat="49.75206753239035" lon="9.51074310578406">
<ele>241.4</ele>
<time>2024-05-11T13:53:26Z</time>
</trkpt>
<trkpt lat="49.752048421651125" lon="9.510711589828134">
<ele>241.4</ele>
<time>2024-05-11T13:53:27Z</time>
</trkpt>
<trkpt lat="49.75202553905547" lon="9.51068208552897">
<ele>241.6</ele>
<time>2024-05-11T13:53:28Z</time>
</trkpt>
<trkpt lat="49.75200651213527" lon="9.510651575401424">
<ele>241.6</ele>
<time>2024-05-11T13:53:29Z</time>
</trkpt>
<trkpt lat="49.75198740139603" lon="9.51062290929258">
<ele>241.8</ele>
<time>2024-05-11T13:53:30Z</time>
</trkpt>
<trkpt lat="49.751972146332264" lon="9.510593404993417">
<ele>241.8</ele>
<time>2024-05-11T13:53:31Z</time>
</trkpt>
<trkpt lat="49.751953119412065" lon="9.51055996119976">
<ele>242</ele>
<time>2024-05-11T13:53:32Z</time>
</trkpt>
<trkpt lat="49.75193786434829" lon="9.510526601225138">
<ele>242</ele>
<time>2024-05-11T13:53:33Z</time>
</trkpt>
<trkpt lat="49.75191875360906" lon="9.510491313412786">
<ele>242.2</ele>
<time>2024-05-11T13:53:34Z</time>
</trkpt>
<trkpt lat="49.75190349854529" lon="9.510457031428814">
<ele>242.4</ele>
<time>2024-05-11T13:53:35Z</time>
</trkpt>
<trkpt lat="49.75188438780606" lon="9.510416965931654">
<ele>242.6</ele>
<time>2024-05-11T13:53:36Z</time>
</trkpt>
<trkpt lat="49.751869132742286" lon="9.510379750281572">
<ele>242.8</ele>
<time>2024-05-11T13:53:37Z</time>
</trkpt>
<trkpt lat="49.751850105822086" lon="9.510343540459871">
<ele>243</ele>
<time>2024-05-11T13:53:38Z</time>
</trkpt>
<trkpt lat="49.751830995082855" lon="9.51030540280044">
<ele>243.4</ele>
<time>2024-05-11T13:53:39Z</time>
</trkpt>
<trkpt lat="49.75181574001908" lon="9.51026625931263">
<ele>243.6</ele>
<time>2024-05-11T13:53:40Z</time>
</trkpt>
<trkpt lat="49.75180048495531" lon="9.5102281216532">
<ele>243.8</ele>
<time>2024-05-11T13:53:41Z</time>
</trkpt>
<trkpt lat="49.75178522989154" lon="9.51018805615604">
<ele>244.2</ele>
<time>2024-05-11T13:53:42Z</time>
</trkpt>
<trkpt lat="49.751773830503225" lon="9.510151846334338">
<ele>244.4</ele>
<time>2024-05-11T13:53:43Z</time>
</trkpt>
<trkpt lat="49.75175857543945" lon="9.510111780837178">
<ele>244.8</ele>
<time>2024-05-11T13:53:44Z</time>
</trkpt>
<trkpt lat="49.75174709223211" lon="9.510074565187097">
<ele>245</ele>
<time>2024-05-11T13:53:45Z</time>
</trkpt>
<trkpt lat="49.751731837168336" lon="9.510038355365396">
<ele>245.2</ele>
<time>2024-05-11T13:53:46Z</time>
</trkpt>
<trkpt lat="49.75171658210456" lon="9.510002061724665">
<ele>245.6</ele>
<time>2024-05-11T13:53:47Z</time>
</trkpt>
<trkpt lat="49.75170509889722" lon="9.509964929893613">
<ele>245.8</ele>
<time>2024-05-11T13:53:48Z</time>
</trkpt>
<trkpt lat="49.751693699508905" lon="9.50992863625288">
<ele>245.8</ele>
<time>2024-05-11T13:53:49Z</time>
</trkpt>
<trkpt lat="49.75167844444513" lon="9.50989150442183">
<ele>246</ele>
<time>2024-05-11T13:53:50Z</time>
</trkpt>
<trkpt lat="49.75166696123779" lon="9.509855210781096">
<ele>246.2</ele>
<time>2024-05-11T13:53:51Z</time>
</trkpt>
<trkpt lat="49.751655561849475" lon="9.509817073121669">
<ele>246.4</ele>
<time>2024-05-11T13:53:52Z</time>
</trkpt>
<trkpt lat="49.75164407864213" lon="9.509777007624509">
<ele>246.6</ele>
<time>2024-05-11T13:53:53Z</time>
</trkpt>
<trkpt lat="49.75163267925382" lon="9.509739875793455">
<ele>246.8</ele>
<time>2024-05-11T13:53:54Z</time>
</trkpt>
<trkpt lat="49.75162119604647" lon="9.509704587981105">
<ele>247</ele>
<time>2024-05-11T13:53:55Z</time>
</trkpt>
<trkpt lat="49.75160979665816" lon="9.509670222178102">
<ele>247.2</ele>
<time>2024-05-11T13:53:56Z</time>
</trkpt>
<trkpt lat="49.75159831345081" lon="9.509632084518673">
<ele>247.4</ele>
<time>2024-05-11T13:53:57Z</time>
</trkpt>
<trkpt lat="49.75158305838704" lon="9.509592019021513">
<ele>247.6</ele>
<time>2024-05-11T13:53:58Z</time>
</trkpt>
<trkpt lat="49.75156780332327" lon="9.509551953524351">
<ele>247.8</ele>
<time>2024-05-11T13:53:59Z</time>
</trkpt>
<trkpt lat="49.75155632011592" lon="9.509516665712">
<ele>248</ele>
<time>2024-05-11T13:54:00Z</time>
</trkpt>
<trkpt lat="49.75154492072761" lon="9.509479450061916">
<ele>248.2</ele>
<time>2024-05-11T13:54:01Z</time>
</trkpt>
<trkpt lat="49.751537293195724" lon="9.509443240240216">
<ele>248.2</ele>
<time>2024-05-11T13:54:02Z</time>
</trkpt>
<trkpt lat="49.75152580998838" lon="9.509405102580786">
<ele>248.4</ele>
<time>2024-05-11T13:54:03Z</time>
</trkpt>
<trkpt lat="49.751514410600066" lon="9.509367886930704">
<ele>248.6</ele>
<time>2024-05-11T13:54:04Z</time>
</trkpt>
<trkpt lat="49.75150292739272" lon="9.50933452695608">
<ele>248.6</ele>
<time>2024-05-11T13:54:05Z</time>
</trkpt>
<trkpt lat="49.75149152800441" lon="9.509303011000156">
<ele>248.8</ele>
<time>2024-05-11T13:54:06Z</time>
</trkpt>
<trkpt lat="49.75148390047252" lon="9.509268729016185">
<ele>249</ele>
<time>2024-05-11T13:54:07Z</time>
</trkpt>
<trkpt lat="49.75147241726518" lon="9.509231513366103">
<ele>249</ele>
<time>2024-05-11T13:54:08Z</time>
</trkpt>
<trkpt lat="49.751457162201405" lon="9.509189603850244">
<ele>249.2</ele>
<time>2024-05-11T13:54:09Z</time>
</trkpt>
<trkpt lat="49.75144576281309" lon="9.509156160056593">
<ele>249.2</ele>
<time>2024-05-11T13:54:10Z</time>
</trkpt>
<trkpt lat="49.751434279605746" lon="9.50911802239716">
<ele>249.4</ele>
<time>2024-05-11T13:54:11Z</time>
</trkpt>
<trkpt lat="49.75142288021743" lon="9.509086590260267">
<ele>249.6</ele>
<time>2024-05-11T13:54:12Z</time>
</trkpt>
<trkpt lat="49.75141139701009" lon="9.509050296619534">
<ele>249.8</ele>
<time>2024-05-11T13:54:13Z</time>
</trkpt>
<trkpt lat="49.75139991380274" lon="9.509011236950755">
<ele>249.8</ele>
<time>2024-05-11T13:54:14Z</time>
</trkpt>
<trkpt lat="49.75138851441443" lon="9.508975027129054">
<ele>250</ele>
<time>2024-05-11T13:54:15Z</time>
</trkpt>
<trkpt lat="49.75137325935066" lon="9.508937811478972">
<ele>250</ele>
<time>2024-05-11T13:54:16Z</time>
</trkpt>
<trkpt lat="49.75136177614331" lon="9.50890344567597">
<ele>250</ele>
<time>2024-05-11T13:54:17Z</time>
</trkpt>
<trkpt lat="49.75134652107954" lon="9.508866230025887">
<ele>250.2</ele>
<time>2024-05-11T13:54:18Z</time>
</trkpt>
<trkpt lat="49.75133512169123" lon="9.508828092366455">
<ele>250.2</ele>
<time>2024-05-11T13:54:19Z</time>
</trkpt>
<trkpt lat="49.75132363848388" lon="9.508791882544756">
<ele>250.4</ele>
<time>2024-05-11T13:54:20Z</time>
</trkpt>
<trkpt lat="49.75131223909557" lon="9.508756594732404">
<ele>250.6</ele>
<time>2024-05-11T13:54:21Z</time>
</trkpt>
<trkpt lat="49.751300755888224" lon="9.508720384910704">
<ele>250.6</ele>
<time>2024-05-11T13:54:22Z</time>
</trkpt>
<trkpt lat="49.75128550082445" lon="9.50868316926062">
<ele>250.8</ele>
<time>2024-05-11T13:54:23Z</time>
</trkpt>
<trkpt lat="49.75127024576068" lon="9.50864695943892">
<ele>250.8</ele>
<time>2024-05-11T13:54:24Z</time>
</trkpt>
<trkpt lat="49.75125499069691" lon="9.508609743788838">
<ele>250.8</ele>
<time>2024-05-11T13:54:25Z</time>
</trkpt>
<trkpt lat="49.751243591308594" lon="9.508575377985837">
<ele>251</ele>
<time>2024-05-11T13:54:26Z</time>
</trkpt>
<trkpt lat="49.75123210810125" lon="9.508542018011212">
<ele>251.2</ele>
<time>2024-05-11T13:54:27Z</time>
</trkpt>
<trkpt lat="49.75122448056936" lon="9.50850673019886">
<ele>251.2</ele>
<time>2024-05-11T13:54:28Z</time>
</trkpt>
<trkpt lat="49.75121299736202" lon="9.50846951454878">
<ele>251.4</ele>
<time>2024-05-11T13:54:29Z</time>
</trkpt>
<trkpt lat="49.751201597973704" lon="9.508433304727076">
<ele>251.4</ele>
<time>2024-05-11T13:54:30Z</time>
</trkpt>
<trkpt lat="49.75119011476636" lon="9.508399944752457">
<ele>251.6</ele>
<time>2024-05-11T13:54:31Z</time>
</trkpt>
<trkpt lat="49.75117485970259" lon="9.508364656940104">
<ele>251.8</ele>
<time>2024-05-11T13:54:32Z</time>
</trkpt>
<trkpt lat="49.751163460314274" lon="9.5083302911371">
<ele>252</ele>
<time>2024-05-11T13:54:33Z</time>
</trkpt>
<trkpt lat="49.75115197710693" lon="9.508295003324749">
<ele>252.2</ele>
<time>2024-05-11T13:54:34Z</time>
</trkpt>
<trkpt lat="49.751140577718616" lon="9.508261643350124">
<ele>252.4</ele>
<time>2024-05-11T13:54:35Z</time>
</trkpt>
<trkpt lat="49.75112909451127" lon="9.508225433528423">
<ele>252.6</ele>
<time>2024-05-11T13:54:36Z</time>
</trkpt>
<trkpt lat="49.75111769512296" lon="9.508186290040612">
<ele>252.8</ele>
<time>2024-05-11T13:54:37Z</time>
</trkpt>
<trkpt lat="49.75111006759107" lon="9.508148152381182">
<ele>252.8</ele>
<time>2024-05-11T13:54:38Z</time>
</trkpt>
<trkpt lat="49.751102440059185" lon="9.508108086884022">
<ele>253</ele>
<time>2024-05-11T13:54:39Z</time>
</trkpt>
<trkpt lat="49.7510948125273" lon="9.50807187706232">
<ele>253.2</ele>
<time>2024-05-11T13:54:40Z</time>
</trkpt>
<trkpt lat="49.75108718499541" lon="9.508036589249969">
<ele>253.4</ele>
<time>2024-05-11T13:54:41Z</time>
</trkpt>
<trkpt lat="49.75107955746353" lon="9.508000295609236">
<ele>253.6</ele>
<time>2024-05-11T13:54:42Z</time>
</trkpt>
<trkpt lat="49.75107192993164" lon="9.507963163778186">
<ele>253.8</ele>
<time>2024-05-11T13:54:43Z</time>
</trkpt>
<trkpt lat="49.75106807425618" lon="9.507923098281026">
<ele>253.8</ele>
<time>2024-05-11T13:54:44Z</time>
</trkpt>
<trkpt lat="49.751060446724296" lon="9.507883032783866">
<ele>254</ele>
<time>2024-05-11T13:54:45Z</time>
</trkpt>
<trkpt lat="49.75105281919241" lon="9.507844895124435">
<ele>254.2</ele>
<time>2024-05-11T13:54:46Z</time>
</trkpt>
<trkpt lat="49.75104519166052" lon="9.507806757465003">
<ele>254.6</ele>
<time>2024-05-11T13:54:47Z</time>
</trkpt>
<trkpt lat="49.75103756412864" lon="9.507768619805574">
<ele>254.8</ele>
<time>2024-05-11T13:54:48Z</time>
</trkpt>
<trkpt lat="49.75103370845318" lon="9.507728554308414">
<ele>255</ele>
<time>2024-05-11T13:54:49Z</time>
</trkpt>
<trkpt lat="49.75102993659675" lon="9.507691338658333">
<ele>255.2</ele>
<time>2024-05-11T13:54:50Z</time>
</trkpt>
<trkpt lat="49.75102993659675" lon="9.507655128836632">
<ele>255.6</ele>
<time>2024-05-11T13:54:51Z</time>
</trkpt>
<trkpt lat="49.75102993659675" lon="9.507621685042976">
<ele>255.8</ele>
<time>2024-05-11T13:54:52Z</time>
</trkpt>
<trkpt lat="49.75102608092129" lon="9.507583547383549">
<ele>256.2</ele>
<time>2024-05-11T13:54:53Z</time>
</trkpt>
<trkpt lat="49.751018453389406" lon="9.507543481886389">
<ele>256.4</ele>
<time>2024-05-11T13:54:54Z</time>
</trkpt>
<trkpt lat="49.75101468153298" lon="9.50750350020826">
<ele>256.6</ele>
<time>2024-05-11T13:54:55Z</time>
</trkpt>
<trkpt lat="49.751003198325634" lon="9.50746150687337">
<ele>256.799</ele>
<time>2024-05-11T13:54:56Z</time>
</trkpt>
<trkpt lat="49.75099942646921" lon="9.507425297051668">
<ele>257.2</ele>
<time>2024-05-11T13:54:57Z</time>
</trkpt>
<trkpt lat="49.75099179893732" lon="9.507390009239316">
<ele>257.4</ele>
<time>2024-05-11T13:54:58Z</time>
</trkpt>
<trkpt lat="49.750984171405435" lon="9.507356565445662">
<ele>257.6</ele>
<time>2024-05-11T13:54:59Z</time>
</trkpt>
<trkpt lat="49.75097654387355" lon="9.50732035562396">
<ele>257.799</ele>
<time>2024-05-11T13:55:00Z</time>
</trkpt>
<trkpt lat="49.75097268819809" lon="9.50728313997388">
<ele>258.2</ele>
<time>2024-05-11T13:55:01Z</time>
</trkpt>
<trkpt lat="49.75096891634166" lon="9.507247852161528">
<ele>258.4</ele>
<time>2024-05-11T13:55:02Z</time>
</trkpt>
<trkpt lat="49.7509650606662" lon="9.507213570177557">
<ele>258.6</ele>
<time>2024-05-11T13:55:03Z</time>
</trkpt>
<trkpt lat="49.75095743313432" lon="9.50718113221228">
<ele>259</ele>
<time>2024-05-11T13:55:04Z</time>
</trkpt>
<trkpt lat="49.75094980560243" lon="9.507151544094086">
<ele>259.2</ele>
<time>2024-05-11T13:55:05Z</time>
</trkpt>
<trkpt lat="49.750942178070545" lon="9.507118184119465">
<ele>259.4</ele>
<time>2024-05-11T13:55:06Z</time>
</trkpt>
<trkpt lat="49.75093455053866" lon="9.50708482414484">
<ele>259.6</ele>
<time>2024-05-11T13:55:07Z</time>
</trkpt>
<trkpt lat="49.75092692300677" lon="9.507051464170218">
<ele>259.6</ele>
<time>2024-05-11T13:55:08Z</time>
</trkpt>
<trkpt lat="49.750923151150346" lon="9.507018020376565">
<ele>259.799</ele>
<time>2024-05-11T13:55:09Z</time>
</trkpt>
<trkpt lat="49.75091552361846" lon="9.506981810554862">
<ele>259.799</ele>
<time>2024-05-11T13:55:10Z</time>
</trkpt>
<trkpt lat="49.750911667943" lon="9.506943672895432">
<ele>260</ele>
<time>2024-05-11T13:55:11Z</time>
</trkpt>
<trkpt lat="49.750904040411115" lon="9.50690838508308">
<ele>260.2</ele>
<time>2024-05-11T13:55:12Z</time>
</trkpt>
<trkpt lat="49.75090026855469" lon="9.506870247423649">
<ele>260.2</ele>
<time>2024-05-11T13:55:13Z</time>
</trkpt>
<trkpt lat="49.75089641287923" lon="9.506833031773567">
<ele>260.4</ele>
<time>2024-05-11T13:55:14Z</time>
</trkpt>
<trkpt lat="49.75088878534734" lon="9.506792966276407">
<ele>260.6</ele>
<time>2024-05-11T13:55:15Z</time>
</trkpt>
<trkpt lat="49.75088492967189" lon="9.506758684292436">
<ele>260.6</ele>
<time>2024-05-11T13:55:16Z</time>
</trkpt>
<trkpt lat="49.75087730214" lon="9.506723396480083">
<ele>260.799</ele>
<time>2024-05-11T13:55:17Z</time>
</trkpt>
<trkpt lat="49.75087353028357" lon="9.506688108667731">
<ele>261</ele>
<time>2024-05-11T13:55:18Z</time>
</trkpt>
<trkpt lat="49.75086967460811" lon="9.50665282085538">
<ele>261.2</ele>
<time>2024-05-11T13:55:19Z</time>
</trkpt>
<trkpt lat="49.75086590275168" lon="9.506618455052376">
<ele>261.4</ele>
<time>2024-05-11T13:55:20Z</time>
</trkpt>
<trkpt lat="49.7508582752198" lon="9.506585095077751">
<ele>261.6</ele>
<time>2024-05-11T13:55:21Z</time>
</trkpt>
<trkpt lat="49.7508582752198" lon="9.506547879427671">
<ele>261.799</ele>
<time>2024-05-11T13:55:22Z</time>
</trkpt>
<trkpt lat="49.75085441954434" lon="9.506507813930511">
<ele>261.799</ele>
<time>2024-05-11T13:55:23Z</time>
</trkpt>
<trkpt lat="49.75084679201245" lon="9.50646967627108">
<ele>262</ele>
<time>2024-05-11T13:55:24Z</time>
</trkpt>
<trkpt lat="49.75083916448057" lon="9.50643153861165">
<ele>262.2</ele>
<time>2024-05-11T13:55:25Z</time>
</trkpt>
<trkpt lat="49.75083153694868" lon="9.50638954527676">
<ele>262.4</ele>
<time>2024-05-11T13:55:26Z</time>
</trkpt>
<trkpt lat="49.750823909416795" lon="9.506348557770252">
<ele>262.6</ele>
<time>2024-05-11T13:55:27Z</time>
</trkpt>
<trkpt lat="49.75081251002848" lon="9.506263732910156">
<ele>262.8</ele>
<time>2024-05-11T13:55:29Z</time>
</trkpt>
<trkpt lat="49.750804882496595" lon="9.506223667412996">
<ele>263</ele>
<time>2024-05-11T13:55:30Z</time>
</trkpt>
<trkpt lat="49.75079725496471" lon="9.506181674078109">
<ele>263.2</ele>
<time>2024-05-11T13:55:31Z</time>
</trkpt>
<trkpt lat="49.75078962743282" lon="9.506141608580949">
<ele>263.4</ele>
<time>2024-05-11T13:55:32Z</time>
</trkpt>
<trkpt lat="49.75078199990094" lon="9.50609969906509">
<ele>263.4</ele>
<time>2024-05-11T13:55:33Z</time>
</trkpt>
<trkpt lat="49.75077814422548" lon="9.506058627739549">
<ele>263.6</ele>
<time>2024-05-11T13:55:34Z</time>
</trkpt>
<trkpt lat="49.75077437236905" lon="9.506016718223693">
<ele>263.8</ele>
<time>2024-05-11T13:55:35Z</time>
</trkpt>
<trkpt lat="49.75077051669359" lon="9.505974724888802">
<ele>264</ele>
<time>2024-05-11T13:55:36Z</time>
</trkpt>
<trkpt lat="49.750762889161706" lon="9.505933737382293">
<ele>264.2</ele>
<time>2024-05-11T13:55:37Z</time>
</trkpt>
<trkpt lat="49.75075526162982" lon="9.505894593894482">
<ele>264.6</ele>
<time>2024-05-11T13:55:38Z</time>
</trkpt>
<trkpt lat="49.75075148977339" lon="9.505854528397322">
<ele>264.8</ele>
<time>2024-05-11T13:55:39Z</time>
</trkpt>
<trkpt lat="49.750747634097934" lon="9.50581831857562">
<ele>265</ele>
<time>2024-05-11T13:55:40Z</time>
</trkpt>
<trkpt lat="49.75074386224151" lon="9.50578018091619">
<ele>265.2</ele>
<time>2024-05-11T13:55:41Z</time>
</trkpt>
<trkpt lat="49.75074000656605" lon="9.505742965266109">
<ele>265.4</ele>
<time>2024-05-11T13:55:42Z</time>
</trkpt>
<trkpt lat="49.75073623470962" lon="9.505704827606678">
<ele>265.6</ele>
<time>2024-05-11T13:55:43Z</time>
</trkpt>
<trkpt lat="49.750728607177734" lon="9.505668617784975">
<ele>265.8</ele>
<time>2024-05-11T13:55:44Z</time>
</trkpt>
<trkpt lat="49.75072089582682" lon="9.505631402134895">
<ele>266</ele>
<time>2024-05-11T13:55:45Z</time>
</trkpt>
<trkpt lat="49.75071712397039" lon="9.505595192313194">
<ele>266.4</ele>
<time>2024-05-11T13:55:46Z</time>
</trkpt>
<trkpt lat="49.75071326829493" lon="9.505553198978305">
<ele>266.6</ele>
<time>2024-05-11T13:55:47Z</time>
</trkpt>
<trkpt lat="49.7507094964385" lon="9.505515061318874">
<ele>266.8</ele>
<time>2024-05-11T13:55:48Z</time>
</trkpt>
<trkpt lat="49.7507094964385" lon="9.505476923659444">
<ele>267.2</ele>
<time>2024-05-11T13:55:49Z</time>
</trkpt>
<trkpt lat="49.75070564076304" lon="9.505434930324554">
<ele>267.4</ele>
<time>2024-05-11T13:55:50Z</time>
</trkpt>
<trkpt lat="49.75070186890662" lon="9.505394864827394">
<ele>267.8</ele>
<time>2024-05-11T13:55:51Z</time>
</trkpt>
<trkpt lat="49.75069801323116" lon="9.505350105464458">
<ele>268</ele>
<time>2024-05-11T13:55:52Z</time>
</trkpt>
<trkpt lat="49.75069801323116" lon="9.50530526228249">
<ele>268.4</ele>
<time>2024-05-11T13:55:53Z</time>
</trkpt>
<trkpt lat="49.75069424137473" lon="9.505261341109872">
<ele>268.6</ele>
<time>2024-05-11T13:55:54Z</time>
</trkpt>
<trkpt lat="49.75069038569927" lon="9.505218425765634">
<ele>268.8</ele>
<time>2024-05-11T13:55:55Z</time>
</trkpt>
<trkpt lat="49.750686613842845" lon="9.505173666402698">
<ele>269</ele>
<time>2024-05-11T13:55:56Z</time>
</trkpt>
<trkpt lat="49.750686613842845" lon="9.50512790121138">
<ele>269.2</ele>
<time>2024-05-11T13:55:57Z</time>
</trkpt>
<trkpt lat="49.750686613842845" lon="9.50508682988584">
<ele>269.4</ele>
<time>2024-05-11T13:55:58Z</time>
</trkpt>
<trkpt lat="49.750686613842845" lon="9.505040142685177">
<ele>269.6</ele>
<time>2024-05-11T13:55:59Z</time>
</trkpt>
<trkpt lat="49.75067898631096" lon="9.504993371665478">
<ele>269.6</ele>
<time>2024-05-11T13:56:00Z</time>
</trkpt>
<trkpt lat="49.75067898631096" lon="9.504948612302542">
<ele>270</ele>
<time>2024-05-11T13:56:01Z</time>
</trkpt>
<trkpt lat="49.7506751306355" lon="9.504899913445117">
<ele>270</ele>
<time>2024-05-11T13:56:02Z</time>
</trkpt>
<trkpt lat="49.7506751306355" lon="9.50485129840672">
<ele>270.2</ele>
<time>2024-05-11T13:56:03Z</time>
</trkpt>
<trkpt lat="49.7506751306355" lon="9.504801677539945">
<ele>270.4</ele>
<time>2024-05-11T13:56:04Z</time>
</trkpt>
<trkpt lat="49.7506751306355" lon="9.50475113466382">
<ele>270.4</ele>
<time>2024-05-11T13:56:05Z</time>
</trkpt>
<trkpt lat="49.75067135877907" lon="9.504699669778349">
<ele>270.6</ele>
<time>2024-05-11T13:56:06Z</time>
</trkpt>
<trkpt lat="49.75067135877907" lon="9.504646277055144">
<ele>270.8</ele>
<time>2024-05-11T13:56:07Z</time>
</trkpt>
<trkpt lat="49.750667503103614" lon="9.504592884331942">
<ele>271</ele>
<time>2024-05-11T13:56:08Z</time>
</trkpt>
<trkpt lat="49.750667503103614" lon="9.504536557942629">
<ele>271.2</ele>
<time>2024-05-11T13:56:09Z</time>
</trkpt>
<trkpt lat="49.75066373124719" lon="9.504481237381697">
<ele>271.4</ele>
<time>2024-05-11T13:56:10Z</time>
</trkpt>
<trkpt lat="49.75066373124719" lon="9.504424994811416">
<ele>271.4</ele>
<time>2024-05-11T13:56:11Z</time>
</trkpt>
<trkpt lat="49.75066373124719" lon="9.504367746412754">
<ele>271.6</ele>
<time>2024-05-11T13:56:12Z</time>
</trkpt>
<trkpt lat="49.75066373124719" lon="9.504311503842471">
<ele>271.8</ele>
<time>2024-05-11T13:56:13Z</time>
</trkpt>
<trkpt lat="49.75066373124719" lon="9.504253333434464">
<ele>272</ele>
<time>2024-05-11T13:56:14Z</time>
</trkpt>
<trkpt lat="49.750667503103614" lon="9.504195163026452">
<ele>272.4</ele>
<time>2024-05-11T13:56:15Z</time>
</trkpt>
<trkpt lat="49.750667503103614" lon="9.50413791462779">
<ele>272.8</ele>
<time>2024-05-11T13:56:16Z</time>
</trkpt>
<trkpt lat="49.750667503103614" lon="9.50408167205751">
<ele>273</ele>
<time>2024-05-11T13:56:17Z</time>
</trkpt>
<trkpt lat="49.750667503103614" lon="9.5040235016495">
<ele>273.4</ele>
<time>2024-05-11T13:56:18Z</time>
</trkpt>
<trkpt lat="49.750667503103614" lon="9.503966253250836">
<ele>273.8</ele>
<time>2024-05-11T13:56:19Z</time>
</trkpt>
<trkpt lat="49.750667503103614" lon="9.503908082842829">
<ele>274</ele>
<time>2024-05-11T13:56:20Z</time>
</trkpt>
<trkpt lat="49.750667503103614" lon="9.503852762281896">
<ele>274.2</ele>
<time>2024-05-11T13:56:21Z</time>
</trkpt>
<trkpt lat="49.75067135877907" lon="9.503800375387073">
<ele>274.4</ele>
<time>2024-05-11T13:56:22Z</time>
</trkpt>
<trkpt lat="49.7506751306355" lon="9.50374790467322">
<ele>274.6</ele>
<time>2024-05-11T13:56:23Z</time>
</trkpt>
<trkpt lat="49.7506751306355" lon="9.503694511950016">
<ele>274.8</ele>
<time>2024-05-11T13:56:24Z</time>
</trkpt>
<trkpt lat="49.75067898631096" lon="9.503642963245513">
<ele>275</ele>
<time>2024-05-11T13:56:25Z</time>
</trkpt>
<trkpt lat="49.75067898631096" lon="9.503591498360038">
<ele>275</ele>
<time>2024-05-11T13:56:26Z</time>
</trkpt>
<trkpt lat="49.750686613842845" lon="9.503541877493262">
<ele>275.2</ele>
<time>2024-05-11T13:56:27Z</time>
</trkpt>
<trkpt lat="49.750686613842845" lon="9.503490412607787">
<ele>275.6</ele>
<time>2024-05-11T13:56:28Z</time>
</trkpt>
<trkpt lat="49.75069038569927" lon="9.503441797569394">
<ele>275.8</ele>
<time>2024-05-11T13:56:29Z</time>
</trkpt>
<trkpt lat="49.75069424137473" lon="9.503395026549695">
<ele>275.8</ele>
<time>2024-05-11T13:56:30Z</time>
</trkpt>
<trkpt lat="49.75069801323116" lon="9.503346411511302">
<ele>276</ele>
<time>2024-05-11T13:56:31Z</time>
</trkpt>
<trkpt lat="49.75069801323116" lon="9.503298718482256">
<ele>276.2</ele>
<time>2024-05-11T13:56:32Z</time>
</trkpt>
<trkpt lat="49.75070186890662" lon="9.50325010344386">
<ele>276.4</ele>
<time>2024-05-11T13:56:33Z</time>
</trkpt>
<trkpt lat="49.75070564076304" lon="9.503205260261891">
<ele>276.6</ele>
<time>2024-05-11T13:56:34Z</time>
</trkpt>
<trkpt lat="49.7507094964385" lon="9.503158489242196">
<ele>277</ele>
<time>2024-05-11T13:56:35Z</time>
</trkpt>
<trkpt lat="49.75071326829493" lon="9.50311372987926">
<ele>277.4</ele>
<time>2024-05-11T13:56:36Z</time>
</trkpt>
<trkpt lat="49.75072089582682" lon="9.50307173654437">
<ele>277.6</ele>
<time>2024-05-11T13:56:37Z</time>
</trkpt>
<trkpt lat="49.750724751502275" lon="9.503027899190784">
<ele>278</ele>
<time>2024-05-11T13:56:38Z</time>
</trkpt>
<trkpt lat="49.750724751502275" lon="9.502986827865245">
<ele>278.2</ele>
<time>2024-05-11T13:56:39Z</time>
</trkpt>
<trkpt lat="49.75073237903416" lon="9.502944918349383">
<ele>278.6</ele>
<time>2024-05-11T13:56:40Z</time>
</trkpt>
<trkpt lat="49.75074000656605" lon="9.502906780689957">
<ele>278.8</ele>
<time>2024-05-11T13:56:41Z</time>
</trkpt>
<trkpt lat="49.75074000656605" lon="9.502862859517336">
<ele>279</ele>
<time>2024-05-11T13:56:42Z</time>
</trkpt>
<trkpt lat="49.75074386224151" lon="9.502821872010829">
<ele>279.2</ele>
<time>2024-05-11T13:56:43Z</time>
</trkpt>
<trkpt lat="49.750747634097934" lon="9.502779878675938">
<ele>279.6</ele>
<time>2024-05-11T13:56:44Z</time>
</trkpt>
<trkpt lat="49.750747634097934" lon="9.5027369633317">
<ele>280</ele>
<time>2024-05-11T13:56:45Z</time>
</trkpt>
<trkpt lat="49.75075148977339" lon="9.502690276131034">
<ele>280.2</ele>
<time>2024-05-11T13:56:46Z</time>
</trkpt>
<trkpt lat="49.75075148977339" lon="9.502645432949066">
<ele>280.6</ele>
<time>2024-05-11T13:56:48Z</time>
</trkpt>
<trkpt lat="49.75075526162982" lon="9.50259966775775">
<ele>280.8</ele>
<time>2024-05-11T13:56:49Z</time>
</trkpt>
<trkpt lat="49.750762889161706" lon="9.502508137375116">
<ele>281.2</ele>
<time>2024-05-11T13:56:50Z</time>
</trkpt>
<trkpt lat="49.750766744837165" lon="9.502465222030878">
<ele>281.4</ele>
<time>2024-05-11T13:56:51Z</time>
</trkpt>
<trkpt lat="49.75077051669359" lon="9.50242037884891">
<ele>281.6</ele>
<time>2024-05-11T13:56:52Z</time>
</trkpt>
<trkpt lat="49.75077437236905" lon="9.502371763810515">
<ele>281.8</ele>
<time>2024-05-11T13:56:53Z</time>
</trkpt>
<trkpt lat="49.75077814422548" lon="9.502324992790818">
<ele>282</ele>
<time>2024-05-11T13:56:54Z</time>
</trkpt>
<trkpt lat="49.75078199990094" lon="9.502278305590153">
<ele>282.2</ele>
<time>2024-05-11T13:56:55Z</time>
</trkpt>
<trkpt lat="49.75078577175736" lon="9.502231534570456">
<ele>282.2</ele>
<time>2024-05-11T13:56:56Z</time>
</trkpt>
<trkpt lat="49.75079339928925" lon="9.50218291953206">
<ele>282.6</ele>
<time>2024-05-11T13:56:57Z</time>
</trkpt>
<trkpt lat="49.75079725496471" lon="9.502138076350093">
<ele>282.8</ele>
<time>2024-05-11T13:56:58Z</time>
</trkpt>
<trkpt lat="49.750804882496595" lon="9.502093233168123">
<ele>283</ele>
<time>2024-05-11T13:56:59Z</time>
</trkpt>
<trkpt lat="49.75081251002848" lon="9.50204654596746">
<ele>283.2</ele>
<time>2024-05-11T13:57:00Z</time>
</trkpt>
<trkpt lat="49.75081628188491" lon="9.502001702785492">
<ele>283.4</ele>
<time>2024-05-11T13:57:01Z</time>
</trkpt>
<trkpt lat="49.75082013756037" lon="9.501953087747095">
<ele>283.6</ele>
<time>2024-05-11T13:57:02Z</time>
</trkpt>
<trkpt lat="49.750827765092254" lon="9.5019063167274">
<ele>283.8</ele>
<time>2024-05-11T13:57:03Z</time>
</trkpt>
<trkpt lat="49.75083539262414" lon="9.501858707517384">
<ele>284</ele>
<time>2024-05-11T13:57:04Z</time>
</trkpt>
<trkpt lat="49.750843020156026" lon="9.501811936497688">
<ele>284.2</ele>
<time>2024-05-11T13:57:05Z</time>
</trkpt>
<trkpt lat="49.75085064768791" lon="9.501761393621564">
<ele>284.4</ele>
<time>2024-05-11T13:57:06Z</time>
</trkpt>
<trkpt lat="49.75085441954434" lon="9.501714706420898">
<ele>284.4</ele>
<time>2024-05-11T13:57:07Z</time>
</trkpt>
<trkpt lat="49.7508582752198" lon="9.5016679354012">
<ele>284.8</ele>
<time>2024-05-11T13:57:08Z</time>
</trkpt>
<trkpt lat="49.75086590275168" lon="9.501621164381504">
<ele>285</ele>
<time>2024-05-11T13:57:09Z</time>
</trkpt>
<trkpt lat="49.75086967460811" lon="9.50157162733376">
<ele>285.2</ele>
<time>2024-05-11T13:57:10Z</time>
</trkpt>
<trkpt lat="49.75087730214" lon="9.501522006466985">
<ele>285.2</ele>
<time>2024-05-11T13:57:11Z</time>
</trkpt>
<trkpt lat="49.750881157815456" lon="9.50147146359086">
<ele>285.4</ele>
<time>2024-05-11T13:57:12Z</time>
</trkpt>
<trkpt lat="49.75088492967189" lon="9.501419998705387">
<ele>285.4</ele>
<time>2024-05-11T13:57:13Z</time>
</trkpt>
<trkpt lat="49.75089255720377" lon="9.501371383666992">
<ele>285.6</ele>
<time>2024-05-11T13:57:14Z</time>
</trkpt>
<trkpt lat="49.75090026855469" lon="9.501324612647297">
<ele>285.6</ele>
<time>2024-05-11T13:57:15Z</time>
</trkpt>
<trkpt lat="49.750907896086574" lon="9.501281697303057">
<ele>285.8</ele>
<time>2024-05-11T13:57:16Z</time>
</trkpt>
<trkpt lat="49.75091552361846" lon="9.501239703968167">
<ele>285.8</ele>
<time>2024-05-11T13:57:17Z</time>
</trkpt>
<trkpt lat="49.750923151150346" lon="9.501203494146466">
<ele>286</ele>
<time>2024-05-11T13:57:18Z</time>
</trkpt>
<trkpt lat="49.750923151150346" lon="9.501163428649306">
<ele>286.2</ele>
<time>2024-05-11T13:57:19Z</time>
</trkpt>
<trkpt lat="49.750923151150346" lon="9.501121519133449">
<ele>286.4</ele>
<time>2024-05-11T13:57:20Z</time>
</trkpt>
<trkpt lat="49.75091929547489" lon="9.50107667595148">
<ele>286.4</ele>
<time>2024-05-11T13:57:21Z</time>
</trkpt>
<trkpt lat="49.75091929547489" lon="9.501029904931784">
<ele>286.6</ele>
<time>2024-05-11T13:57:22Z</time>
</trkpt>
<trkpt lat="49.75091929547489" lon="9.500981289893389">
<ele>286.8</ele>
<time>2024-05-11T13:57:23Z</time>
</trkpt>
<trkpt lat="49.75091929547489" lon="9.50093837454915">
<ele>286.8</ele>
<time>2024-05-11T13:57:24Z</time>
</trkpt>
<trkpt lat="49.75091929547489" lon="9.50089830905199">
<ele>286.8</ele>
<time>2024-05-11T13:57:25Z</time>
</trkpt>
<trkpt lat="49.750923151150346" lon="9.50086017139256">
<ele>287</ele>
<time>2024-05-11T13:57:26Z</time>
</trkpt>
<trkpt lat="49.750923151150346" lon="9.50082203373313">
<ele>287.2</ele>
<time>2024-05-11T13:57:27Z</time>
</trkpt>
<trkpt lat="49.750923151150346" lon="9.500784818083048">
<ele>287.2</ele>
<time>2024-05-11T13:57:28Z</time>
</trkpt>
<trkpt lat="49.75091929547489" lon="9.500746680423616">
<ele>287.4</ele>
<time>2024-05-11T13:57:29Z</time>
</trkpt>
<trkpt lat="49.750911667943" lon="9.500717092305422">
<ele>287.6</ele>
<time>2024-05-11T13:57:30Z</time>
</trkpt>
<trkpt lat="49.750907896086574" lon="9.500690437853336">
<ele>287.6</ele>
<time>2024-05-11T13:57:31Z</time>
</trkpt>
<trkpt lat="49.75090026855469" lon="9.500671327114103">
<ele>287.8</ele>
<time>2024-05-11T13:57:32Z</time>
</trkpt>
<trkpt lat="49.75090026855469" lon="9.500655150040984">
<ele>287.8</ele>
<time>2024-05-11T13:57:33Z</time>
</trkpt>
<trkpt lat="49.75090026855469" lon="9.500637967139482">
<ele>288</ele>
<time>2024-05-11T13:57:34Z</time>
</trkpt>
<trkpt lat="49.75089641287923" lon="9.50062463991344">
<ele>288</ele>
<time>2024-05-11T13:57:35Z</time>
</trkpt>
<trkpt lat="49.75089641287923" lon="9.500617934390904">
<ele>288.2</ele>
<time>2024-05-11T13:57:36Z</time>
</trkpt>
<trkpt lat="49.75089255720377" lon="9.500619862228632">
<ele>288.4</ele>
<time>2024-05-11T13:57:37Z</time>
</trkpt>
<trkpt lat="49.75089255720377" lon="9.50062179006636">
<ele>288.6</ele>
<time>2024-05-11T13:57:38Z</time>
</trkpt>
<trkpt lat="49.75089641287923" lon="9.50062179006636">
<ele>288.6</ele>
<time>2024-05-11T13:57:39Z</time>
</trkpt>
<trkpt lat="49.75089641287923" lon="9.500619862228632">
<ele>288.8</ele>
<time>2024-05-11T13:57:41Z</time>
</trkpt>
<trkpt lat="49.75089641287923" lon="9.50062179006636">
<ele>288.8</ele>
<time>2024-05-11T13:57:43Z</time>
</trkpt>
<trkpt lat="49.75090026855469" lon="9.50062179006636">
<ele>289</ele>
<time>2024-05-11T13:57:45Z</time>
</trkpt>
<trkpt lat="49.75089641287923" lon="9.50062179006636">
<ele>289</ele>
<time>2024-05-11T13:57:47Z</time>
</trkpt>
<trkpt lat="49.75089641287923" lon="9.500619862228632">
<ele>289</ele>
<time>2024-05-11T13:57:48Z</time>
</trkpt>
<trkpt lat="49.75089641287923" lon="9.50062179006636">
<ele>289</ele>
<time>2024-05-11T13:57:54Z</time>
</trkpt>
<trkpt lat="49.75089641287923" lon="9.500619862228632">
<ele>289</ele>
<time>2024-05-11T13:57:55Z</time>
</trkpt>
<trkpt lat="49.75090026855469" lon="9.500619862228632">
<ele>289</ele>
<time>2024-05-11T13:57:56Z</time>
</trkpt>
<trkpt lat="49.75089641287923" lon="9.500617012381554">
<ele>289</ele>
<time>2024-05-11T13:57:57Z</time>
</trkpt>
<trkpt lat="49.75089255720377" lon="9.500608379021289">
<ele>289</ele>
<time>2024-05-11T13:57:58Z</time>
</trkpt>
<trkpt lat="49.75088878534734" lon="9.50060175731778">
<ele>288.8</ele>
<time>2024-05-11T13:57:59Z</time>
</trkpt>
<trkpt lat="49.75088878534734" lon="9.500593123957517">
<ele>288.8</ele>
<time>2024-05-11T13:58:00Z</time>
</trkpt>
<trkpt lat="49.75088492967189" lon="9.500591196119784">
<ele>288.6</ele>
<time>2024-05-11T13:58:01Z</time>
</trkpt>
<trkpt lat="49.75088492967189" lon="9.500590274110436">
<ele>288.4</ele>
<time>2024-05-11T13:58:02Z</time>
</trkpt>
<trkpt lat="49.75088492967189" lon="9.500591196119784">
<ele>288.2</ele>
<time>2024-05-11T13:58:03Z</time>
</trkpt>
<trkpt lat="49.75088878534734" lon="9.500590274110436">
<ele>288</ele>
<time>2024-05-11T13:58:06Z</time>
</trkpt>
<trkpt lat="49.75088878534734" lon="9.500591196119784">
<ele>288</ele>
<time>2024-05-11T13:58:07Z</time>
</trkpt>
<trkpt lat="49.75088878534734" lon="9.500593123957517">
<ele>288</ele>
<time>2024-05-11T13:58:10Z</time>
</trkpt>
<trkpt lat="49.75088878534734" lon="9.500591196119784">
<ele>288</ele>
<time>2024-05-11T13:58:11Z</time>
</trkpt>
<trkpt lat="49.75088878534734" lon="9.500593123957517">
<ele>288</ele>
<time>2024-05-11T13:58:12Z</time>
</trkpt>
<trkpt lat="49.75088878534734" lon="9.500595051795244">
<ele>288</ele>
<time>2024-05-11T13:58:29Z</time>
</trkpt>
<trkpt lat="49.75088878534734" lon="9.500596979632974">
<ele>288</ele>
<time>2024-05-11T13:58:32Z</time>
</trkpt>
<trkpt lat="49.75088878534734" lon="9.500597901642324">
<ele>288</ele>
<time>2024-05-11T13:58:34Z</time>
</trkpt>
<trkpt lat="49.75088878534734" lon="9.500599829480052">
<ele>288.2</ele>
<time>2024-05-11T13:58:43Z</time>
</trkpt>
<trkpt lat="49.75088878534734" lon="9.500597901642324">
<ele>288.2</ele>
<time>2024-05-11T13:58:46Z</time>
</trkpt>
<trkpt lat="49.75089255720377" lon="9.500597901642324">
<ele>288.2</ele>
<time>2024-05-11T13:58:54Z</time>
</trkpt>
<trkpt lat="49.75089255720377" lon="9.500599829480052">
<ele>288.2</ele>
<time>2024-05-11T13:59:10Z</time>
</trkpt>
<trkpt lat="49.75089255720377" lon="9.50060175731778">
<ele>288.2</ele>
<time>2024-05-11T13:59:19Z</time>
</trkpt>
<trkpt lat="49.75089255720377" lon="9.500599829480052">
<ele>288.2</ele>
<time>2024-05-11T13:59:31Z</time>
</trkpt>
<trkpt lat="49.75089255720377" lon="9.50060175731778">
<ele>288.2</ele>
<time>2024-05-11T13:59:32Z</time>
</trkpt>
<trkpt lat="49.75089641287923" lon="9.50060175731778">
<ele>288.2</ele>
<time>2024-05-11T13:59:33Z</time>
</trkpt>
<trkpt lat="49.75089641287923" lon="9.50060360133648">
<ele>288.2</ele>
<time>2024-05-11T13:59:36Z</time>
</trkpt>
<trkpt lat="49.75089641287923" lon="9.50060175731778">
<ele>288.2</ele>
<time>2024-05-11T13:59:37Z</time>
</trkpt>
<trkpt lat="49.75089641287923" lon="9.50060360133648">
<ele>288.2</ele>
<time>2024-05-11T13:59:38Z</time>
</trkpt>
<trkpt lat="49.75089641287923" lon="9.50060175731778">
<ele>288.2</ele>
<time>2024-05-11T13:59:40Z</time>
</trkpt>
<trkpt lat="49.75089641287923" lon="9.500599829480052">
<ele>288.2</ele>
<time>2024-05-11T13:59:48Z</time>
</trkpt>
<trkpt lat="49.75089255720377" lon="9.500596979632974">
<ele>288.2</ele>
<time>2024-05-11T13:59:55Z</time>
</trkpt>
<trkpt lat="49.75088492967189" lon="9.500588346272709">
<ele>288.2</ele>
<time>2024-05-11T13:59:56Z</time>
</trkpt>
<trkpt lat="49.75086967460811" lon="9.500573091208937">
<ele>288.2</ele>
<time>2024-05-11T13:59:57Z</time>
</trkpt>
<trkpt lat="49.75085441954434" lon="9.500541659072042">
<ele>288.2</ele>
<time>2024-05-11T13:59:58Z</time>
</trkpt>
<trkpt lat="49.75085064768791" lon="9.500498743727803">
<ele>288.2</ele>
<time>2024-05-11T13:59:59Z</time>
</trkpt>
<trkpt lat="49.75085441954434" lon="9.500456750392914">
<ele>288.2</ele>
<time>2024-05-11T14:00:00Z</time>
</trkpt>
<trkpt lat="49.75086967460811" lon="9.500419534742832">
<ele>288.2</ele>
<time>2024-05-11T14:00:01Z</time>
</trkpt>
<trkpt lat="49.75088492967189" lon="9.50038810260594">
<ele>288.2</ele>
<time>2024-05-11T14:00:02Z</time>
</trkpt>
<trkpt lat="49.75090026855469" lon="9.500361364334822">
<ele>288.2</ele>
<time>2024-05-11T14:00:03Z</time>
</trkpt>
<trkpt lat="49.750907896086574" lon="9.50032708235085">
<ele>288.2</ele>
<time>2024-05-11T14:00:04Z</time>
</trkpt>
<trkpt lat="49.75091929547489" lon="9.50028508901596">
<ele>288.2</ele>
<time>2024-05-11T14:00:05Z</time>
</trkpt>
<trkpt lat="49.75092692300677" lon="9.500240245833991">
<ele>288.4</ele>
<time>2024-05-11T14:00:06Z</time>
</trkpt>
<trkpt lat="49.75093840621412" lon="9.500191630795598">
<ele>288.4</ele>
<time>2024-05-11T14:00:07Z</time>
</trkpt>
<trkpt lat="49.750942178070545" lon="9.500140165910125">
<ele>288.4</ele>
<time>2024-05-11T14:00:08Z</time>
</trkpt>
<trkpt lat="49.750942178070545" lon="9.50008861720562">
<ele>288.6</ele>
<time>2024-05-11T14:00:09Z</time>
</trkpt>
<trkpt lat="49.750946033746" lon="9.500038074329495">
<ele>288.6</ele>
<time>2024-05-11T14:00:10Z</time>
</trkpt>
<trkpt lat="49.75094980560243" lon="9.499988537281752">
<ele>288.8</ele>
<time>2024-05-11T14:00:11Z</time>
</trkpt>
<trkpt lat="49.75095366127789" lon="9.499939838424323">
<ele>288.8</ele>
<time>2024-05-11T14:00:12Z</time>
</trkpt>
<trkpt lat="49.75095743313432" lon="9.499888373538852">
<ele>288.8</ele>
<time>2024-05-11T14:00:13Z</time>
</trkpt>
<trkpt lat="49.750961288809776" lon="9.499836908653378">
<ele>289</ele>
<time>2024-05-11T14:00:14Z</time>
</trkpt>
<trkpt lat="49.75096891634166" lon="9.499785359948874">
<ele>289</ele>
<time>2024-05-11T14:00:15Z</time>
</trkpt>
<trkpt lat="49.75097268819809" lon="9.49973003938794">
<ele>289</ele>
<time>2024-05-11T14:00:16Z</time>
</trkpt>
<trkpt lat="49.75097268819809" lon="9.499672874808311">
<ele>289</ele>
<time>2024-05-11T14:00:17Z</time>
</trkpt>
<trkpt lat="49.75097654387355" lon="9.499616548419">
<ele>289.2</ele>
<time>2024-05-11T14:00:18Z</time>
</trkpt>
<trkpt lat="49.75097654387355" lon="9.499558378010988">
<ele>289.2</ele>
<time>2024-05-11T14:00:19Z</time>
</trkpt>
<trkpt lat="49.75097654387355" lon="9.49949836358428">
<ele>289.2</ele>
<time>2024-05-11T14:00:20Z</time>
</trkpt>
<trkpt lat="49.750980315729976" lon="9.49943826533854">
<ele>289.2</ele>
<time>2024-05-11T14:00:21Z</time>
</trkpt>
<trkpt lat="49.750984171405435" lon="9.49937623925507">
<ele>289.2</ele>
<time>2024-05-11T14:00:22Z</time>
</trkpt>
<trkpt lat="49.75099179893732" lon="9.49931806884706">
<ele>289.2</ele>
<time>2024-05-11T14:00:23Z</time>
</trkpt>
<trkpt lat="49.75099557079375" lon="9.49925797060132">
<ele>289.2</ele>
<time>2024-05-11T14:00:24Z</time>
</trkpt>
<trkpt lat="49.75099942646921" lon="9.49920172803104">
<ele>289.4</ele>
<time>2024-05-11T14:00:25Z</time>
</trkpt>
<trkpt lat="49.751003198325634" lon="9.499146407470109">
<ele>289.4</ele>
<time>2024-05-11T14:00:26Z</time>
</trkpt>
<trkpt lat="49.751003198325634" lon="9.499093014746904">
<ele>289.4</ele>
<time>2024-05-11T14:00:27Z</time>
</trkpt>
<trkpt lat="49.75100705400109" lon="9.499041549861431">
<ele>289.4</ele>
<time>2024-05-11T14:00:28Z</time>
</trkpt>
<trkpt lat="49.75101082585752" lon="9.498990001156926">
<ele>289.4</ele>
<time>2024-05-11T14:00:29Z</time>
</trkpt>
<trkpt lat="49.75101468153298" lon="9.498936608433723">
<ele>289.4</ele>
<time>2024-05-11T14:00:30Z</time>
</trkpt>
<trkpt lat="49.751018453389406" lon="9.498881287872791">
<ele>289.4</ele>
<time>2024-05-11T14:00:31Z</time>
</trkpt>
<trkpt lat="49.751022309064865" lon="9.49882311746478">
<ele>289.4</ele>
<time>2024-05-11T14:00:32Z</time>
</trkpt>
<trkpt lat="49.75102608092129" lon="9.49876494705677">
<ele>289.2</ele>
<time>2024-05-11T14:00:33Z</time>
</trkpt>
<trkpt lat="49.75102993659675" lon="9.4987029209733">
<ele>289.4</ele>
<time>2024-05-11T14:00:34Z</time>
</trkpt>
<trkpt lat="49.75103756412864" lon="9.498641900718212">
<ele>289.4</ele>
<time>2024-05-11T14:00:35Z</time>
</trkpt>
<trkpt lat="49.751041335985065" lon="9.498578030616043">
<ele>289.4</ele>
<time>2024-05-11T14:00:36Z</time>
</trkpt>
<trkpt lat="49.75104519166052" lon="9.498517010360956">
<ele>289.4</ele>
<time>2024-05-11T14:00:37Z</time>
</trkpt>
<trkpt lat="49.75104896351695" lon="9.498453140258787">
<ele>289.4</ele>
<time>2024-05-11T14:00:38Z</time>
</trkpt>
<trkpt lat="49.75105281919241" lon="9.49839019216597">
<ele>289.4</ele>
<time>2024-05-11T14:00:39Z</time>
</trkpt>
<trkpt lat="49.75105659104884" lon="9.498326238244772">
<ele>289.4</ele>
<time>2024-05-11T14:00:40Z</time>
</trkpt>
<trkpt lat="49.751060446724296" lon="9.498261446133256">
<ele>289.4</ele>
<time>2024-05-11T14:00:41Z</time>
</trkpt>
<trkpt lat="49.75106807425618" lon="9.49819464236498">
<ele>289.4</ele>
<time>2024-05-11T14:00:42Z</time>
</trkpt>
<trkpt lat="49.75107192993164" lon="9.498127922415732">
<ele>289.4</ele>
<time>2024-05-11T14:00:43Z</time>
</trkpt>
<trkpt lat="49.75107570178807" lon="9.498063046485186">
<ele>289.6</ele>
<time>2024-05-11T14:00:44Z</time>
</trkpt>
<trkpt lat="49.75107570178807" lon="9.497998170554638">
<ele>289.6</ele>
<time>2024-05-11T14:00:45Z</time>
</trkpt>
<trkpt lat="49.75107955746353" lon="9.497929522767665">
<ele>289.8</ele>
<time>2024-05-11T14:00:46Z</time>
</trkpt>
<trkpt lat="49.751083329319954" lon="9.497863724827766">
<ele>289.8</ele>
<time>2024-05-11T14:00:47Z</time>
</trkpt>
<trkpt lat="49.75108718499541" lon="9.4977998547256">
<ele>290</ele>
<time>2024-05-11T14:00:48Z</time>
</trkpt>
<trkpt lat="49.75109095685184" lon="9.497734978795052">
<ele>290</ele>
<time>2024-05-11T14:00:49Z</time>
</trkpt>
<trkpt lat="49.75109095685184" lon="9.497670102864504">
<ele>290.2</ele>
<time>2024-05-11T14:00:50Z</time>
</trkpt>
<trkpt lat="49.75109095685184" lon="9.497610088437796">
<ele>290.4</ele>
<time>2024-05-11T14:00:51Z</time>
</trkpt>
<trkpt lat="49.7510948125273" lon="9.497548062354326">
<ele>290.4</ele>
<time>2024-05-11T14:00:52Z</time>
</trkpt>
<trkpt lat="49.7510948125273" lon="9.49748318642378">
<ele>290.4</ele>
<time>2024-05-11T14:00:53Z</time>
</trkpt>
<trkpt lat="49.751102440059185" lon="9.49742023833096">
<ele>290.4</ele>
<time>2024-05-11T14:00:54Z</time>
</trkpt>
<trkpt lat="49.75110621191561" lon="9.497356368228791">
<ele>290.4</ele>
<time>2024-05-11T14:00:55Z</time>
</trkpt>
<trkpt lat="49.75111006759107" lon="9.497295347973704">
<ele>290.4</ele>
<time>2024-05-11T14:00:56Z</time>
</trkpt>
<trkpt lat="49.75111006759107" lon="9.497231477871535">
<ele>290.4</ele>
<time>2024-05-11T14:00:57Z</time>
</trkpt>
<trkpt lat="49.75111006759107" lon="9.497170373797417">
<ele>290.4</ele>
<time>2024-05-11T14:00:58Z</time>
</trkpt>
<trkpt lat="49.7511138394475" lon="9.497110359370708">
<ele>290.6</ele>
<time>2024-05-11T14:00:59Z</time>
</trkpt>
<trkpt lat="49.7511138394475" lon="9.497051183134316">
<ele>290.6</ele>
<time>2024-05-11T14:01:00Z</time>
</trkpt>
<trkpt lat="49.7511138394475" lon="9.496994940564036">
<ele>290.8</ele>
<time>2024-05-11T14:01:01Z</time>
</trkpt>
<trkpt lat="49.7511138394475" lon="9.496938697993755">
<ele>290.8</ele>
<time>2024-05-11T14:01:02Z</time>
</trkpt>
<trkpt lat="49.7511138394475" lon="9.496881449595094">
<ele>290.8</ele>
<time>2024-05-11T14:01:03Z</time>
</trkpt>
<trkpt lat="49.75111006759107" lon="9.496821351349354">
<ele>290.8</ele>
<time>2024-05-11T14:01:04Z</time>
</trkpt>
<trkpt lat="49.75111006759107" lon="9.496763180941343">
<ele>291</ele>
<time>2024-05-11T14:01:05Z</time>
</trkpt>
<trkpt lat="49.75111006759107" lon="9.496703082695603">
<ele>291</ele>
<time>2024-05-11T14:01:06Z</time>
</trkpt>
<trkpt lat="49.75111006759107" lon="9.496642984449863">
<ele>291</ele>
<time>2024-05-11T14:01:07Z</time>
</trkpt>
<trkpt lat="49.75111006759107" lon="9.496582970023155">
<ele>291</ele>
<time>2024-05-11T14:01:08Z</time>
</trkpt>
<trkpt lat="49.75111006759107" lon="9.496522871777415">
<ele>291</ele>
<time>2024-05-11T14:01:09Z</time>
</trkpt>
<trkpt lat="49.75111006759107" lon="9.496463695541024">
<ele>291</ele>
<time>2024-05-11T14:01:10Z</time>
</trkpt>
<trkpt lat="49.75111006759107" lon="9.496401753276588">
<ele>291</ele>
<time>2024-05-11T14:01:11Z</time>
</trkpt>
<trkpt lat="49.75110621191561" lon="9.496344504877923">
<ele>291</ele>
<time>2024-05-11T14:01:12Z</time>
</trkpt>
<trkpt lat="49.751102440059185" lon="9.496292034164073">
<ele>291</ele>
<time>2024-05-11T14:01:13Z</time>
</trkpt>
<trkpt lat="49.751102440059185" lon="9.496238641440868">
<ele>291</ele>
<time>2024-05-11T14:01:14Z</time>
</trkpt>
<trkpt lat="49.751102440059185" lon="9.496183320879936">
<ele>291</ele>
<time>2024-05-11T14:01:15Z</time>
</trkpt>
<trkpt lat="49.751102440059185" lon="9.496133783832192">
<ele>291</ele>
<time>2024-05-11T14:01:16Z</time>
</trkpt>
<trkpt lat="49.751102440059185" lon="9.496083240956068">
<ele>291</ele>
<time>2024-05-11T14:01:17Z</time>
</trkpt>
<trkpt lat="49.751102440059185" lon="9.496031692251565">
<ele>291</ele>
<time>2024-05-11T14:01:18Z</time>
</trkpt>
<trkpt lat="49.751102440059185" lon="9.49597829952836">
<ele>291.2</ele>
<time>2024-05-11T14:01:19Z</time>
</trkpt>
<trkpt lat="49.751098584383726" lon="9.495924906805158">
<ele>291.2</ele>
<time>2024-05-11T14:01:20Z</time>
</trkpt>
<trkpt lat="49.751098584383726" lon="9.495871514081957">
<ele>291.2</ele>
<time>2024-05-11T14:01:21Z</time>
</trkpt>
<trkpt lat="49.7510948125273" lon="9.495815271511674">
<ele>291.2</ele>
<time>2024-05-11T14:01:22Z</time>
</trkpt>
<trkpt lat="49.75109095685184" lon="9.495758023113012">
<ele>291.4</ele>
<time>2024-05-11T14:01:23Z</time>
</trkpt>
<trkpt lat="49.75109095685184" lon="9.495699852705002">
<ele>291.4</ele>
<time>2024-05-11T14:01:24Z</time>
</trkpt>
<trkpt lat="49.75108718499541" lon="9.495641682296991">
<ele>291.6</ele>
<time>2024-05-11T14:01:25Z</time>
</trkpt>
<trkpt lat="49.751083329319954" lon="9.49558543972671">
<ele>291.8</ele>
<time>2024-05-11T14:01:26Z</time>
</trkpt>
<trkpt lat="49.751083329319954" lon="9.495528191328049">
<ele>292</ele>
<time>2024-05-11T14:01:27Z</time>
</trkpt>
<trkpt lat="49.75107955746353" lon="9.495470020920038">
<ele>292</ele>
<time>2024-05-11T14:01:28Z</time>
</trkpt>
<trkpt lat="49.75107955746353" lon="9.495411850512028">
<ele>292.2</ele>
<time>2024-05-11T14:01:29Z</time>
</trkpt>
<trkpt lat="49.75107570178807" lon="9.495354602113366">
<ele>292.6</ele>
<time>2024-05-11T14:01:30Z</time>
</trkpt>
<trkpt lat="49.75107570178807" lon="9.495294503867626">
<ele>292.6</ele>
<time>2024-05-11T14:01:31Z</time>
</trkpt>
<trkpt lat="49.75107570178807" lon="9.495235411450269">
<ele>292.8</ele>
<time>2024-05-11T14:01:32Z</time>
</trkpt>
<trkpt lat="49.75107192993164" lon="9.495176235213876">
<ele>293</ele>
<time>2024-05-11T14:01:33Z</time>
</trkpt>
<trkpt lat="49.75107192993164" lon="9.495116220787168">
<ele>293.2</ele>
<time>2024-05-11T14:01:34Z</time>
</trkpt>
<trkpt lat="49.75106807425618" lon="9.495058050379155">
<ele>293.4</ele>
<time>2024-05-11T14:01:35Z</time>
</trkpt>
<trkpt lat="49.75106807425618" lon="9.495003651827574">
<ele>293.6</ele>
<time>2024-05-11T14:01:36Z</time>
</trkpt>
<trkpt lat="49.75106807425618" lon="9.49495118111372">
<ele>293.6</ele>
<time>2024-05-11T14:01:37Z</time>
</trkpt>
<trkpt lat="49.75106421858072" lon="9.494901644065976">
<ele>293.8</ele>
<time>2024-05-11T14:01:38Z</time>
</trkpt>
<trkpt lat="49.75106421858072" lon="9.494848251342772">
<ele>293.8</ele>
<time>2024-05-11T14:01:39Z</time>
</trkpt>
<trkpt lat="49.75106421858072" lon="9.494796702638268">
<ele>293.8</ele>
<time>2024-05-11T14:01:40Z</time>
</trkpt>
<trkpt lat="49.75106421858072" lon="9.494745237752795">
<ele>294</ele>
<time>2024-05-11T14:01:41Z</time>
</trkpt>
<trkpt lat="49.75105659104884" lon="9.494689917191865">
<ele>294</ele>
<time>2024-05-11T14:01:42Z</time>
</trkpt>
<trkpt lat="49.75105659104884" lon="9.494631746783853">
<ele>294.2</ele>
<time>2024-05-11T14:01:43Z</time>
</trkpt>
<trkpt lat="49.75104896351695" lon="9.494571648538113">
<ele>294.4</ele>
<time>2024-05-11T14:01:44Z</time>
</trkpt>
<trkpt lat="49.75104519166052" lon="9.494513478130102">
<ele>294.6</ele>
<time>2024-05-11T14:01:45Z</time>
</trkpt>
<trkpt lat="49.751041335985065" lon="9.49445815756917">
<ele>294.8</ele>
<time>2024-05-11T14:01:46Z</time>
</trkpt>
<trkpt lat="49.751041335985065" lon="9.494402837008238">
<ele>295</ele>
<time>2024-05-11T14:01:47Z</time>
</trkpt>
<trkpt lat="49.75103756412864" lon="9.494343744590878">
<ele>295.4</ele>
<time>2024-05-11T14:01:48Z</time>
</trkpt>
<trkpt lat="49.75103370845318" lon="9.494284568354487">
<ele>295.6</ele>
<time>2024-05-11T14:01:49Z</time>
</trkpt>
<trkpt lat="49.75102993659675" lon="9.494224470108747">
<ele>295.6</ele>
<time>2024-05-11T14:01:50Z</time>
</trkpt>
<trkpt lat="49.751018453389406" lon="9.494166299700735">
<ele>295.6</ele>
<time>2024-05-11T14:01:51Z</time>
</trkpt>
<trkpt lat="49.75101468153298" lon="9.494108129292728">
<ele>295.8</ele>
<time>2024-05-11T14:01:52Z</time>
</trkpt>
<trkpt lat="49.75100705400109" lon="9.494048114866018">
<ele>295.8</ele>
<time>2024-05-11T14:01:53Z</time>
</trkpt>
<trkpt lat="49.751003198325634" lon="9.493988016620278">
<ele>295.8</ele>
<time>2024-05-11T14:01:54Z</time>
</trkpt>
<trkpt lat="49.75099557079375" lon="9.493929846212268">
<ele>295.8</ele>
<time>2024-05-11T14:01:55Z</time>
</trkpt>
<trkpt lat="49.75099179893732" lon="9.493874525651336">
<ele>295.6</ele>
<time>2024-05-11T14:01:56Z</time>
</trkpt>
<trkpt lat="49.75098794326186" lon="9.493820127099752">
<ele>295.6</ele>
<time>2024-05-11T14:01:57Z</time>
</trkpt>
<trkpt lat="49.750984171405435" lon="9.49376673437655">
<ele>295.6</ele>
<time>2024-05-11T14:01:58Z</time>
</trkpt>
<trkpt lat="49.75097654387355" lon="9.493713341653349">
<ele>295.6</ele>
<time>2024-05-11T14:01:59Z</time>
</trkpt>
<trkpt lat="49.75096891634166" lon="9.493661876767874">
<ele>295.4</ele>
<time>2024-05-11T14:02:00Z</time>
</trkpt>
<trkpt lat="49.750961288809776" lon="9.493606556206942">
<ele>295.4</ele>
<time>2024-05-11T14:02:01Z</time>
</trkpt>
<trkpt lat="49.75095366127789" lon="9.493550229817629">
<ele>295.6</ele>
<time>2024-05-11T14:02:02Z</time>
</trkpt>
<trkpt lat="49.750946033746" lon="9.493493065238">
<ele>295.6</ele>
<time>2024-05-11T14:02:03Z</time>
</trkpt>
<trkpt lat="49.750942178070545" lon="9.493436738848686">
<ele>295.6</ele>
<time>2024-05-11T14:02:04Z</time>
</trkpt>
<trkpt lat="49.75093455053866" lon="9.493378568440676">
<ele>295.8</ele>
<time>2024-05-11T14:02:05Z</time>
</trkpt>
<trkpt lat="49.75093077868223" lon="9.493321403861046">
<ele>295.8</ele>
<time>2024-05-11T14:02:06Z</time>
</trkpt>
<trkpt lat="49.75092692300677" lon="9.493267005309464">
<ele>295.8</ele>
<time>2024-05-11T14:02:07Z</time>
</trkpt>
<trkpt lat="49.75091929547489" lon="9.49321168474853">
<ele>295.8</ele>
<time>2024-05-11T14:02:08Z</time>
</trkpt>
<trkpt lat="49.750911667943" lon="9.4931545201689">
<ele>295.8</ele>
<time>2024-05-11T14:02:09Z</time>
</trkpt>
<trkpt lat="49.750904040411115" lon="9.493098193779588">
<ele>295.6</ele>
<time>2024-05-11T14:02:10Z</time>
</trkpt>
<trkpt lat="49.75089641287923" lon="9.493041951209308">
<ele>295.6</ele>
<time>2024-05-11T14:02:11Z</time>
</trkpt>
<trkpt lat="49.75088492967189" lon="9.492986630648376">
<ele>295.6</ele>
<time>2024-05-11T14:02:12Z</time>
</trkpt>
<trkpt lat="49.75087730214" lon="9.492933237925172">
<ele>295.4</ele>
<time>2024-05-11T14:02:13Z</time>
</trkpt>
<trkpt lat="49.75086967460811" lon="9.49287791736424">
<ele>295.4</ele>
<time>2024-05-11T14:02:14Z</time>
</trkpt>
<trkpt lat="49.750862047076225" lon="9.49282167479396">
<ele>295.4</ele>
<time>2024-05-11T14:02:15Z</time>
</trkpt>
<trkpt lat="49.75085441954434" lon="9.492766354233028">
<ele>295.4</ele>
<time>2024-05-11T14:02:16Z</time>
</trkpt>
<trkpt lat="49.75084679201245" lon="9.492712961509824">
<ele>295.6</ele>
<time>2024-05-11T14:02:17Z</time>
</trkpt>
<trkpt lat="49.75083539262414" lon="9.49265956878662">
<ele>295.6</ele>
<time>2024-05-11T14:02:18Z</time>
</trkpt>
<trkpt lat="49.750827765092254" lon="9.492608020082116">
<ele>295.6</ele>
<time>2024-05-11T14:02:19Z</time>
</trkpt>
<trkpt lat="49.75082013756037" lon="9.492554627358912">
<ele>295.8</ele>
<time>2024-05-11T14:02:20Z</time>
</trkpt>
<trkpt lat="49.75081251002848" lon="9.49250022880733">
<ele>295.8</ele>
<time>2024-05-11T14:02:21Z</time>
</trkpt>
<trkpt lat="49.750804882496595" lon="9.4924430642277">
<ele>295.8</ele>
<time>2024-05-11T14:02:22Z</time>
</trkpt>
<trkpt lat="49.75080102682114" lon="9.492386737838387">
<ele>295.8</ele>
<time>2024-05-11T14:02:23Z</time>
</trkpt>
<trkpt lat="49.75079339928925" lon="9.492329573258758">
<ele>295.8</ele>
<time>2024-05-11T14:02:24Z</time>
</trkpt>
<trkpt lat="49.75078577175736" lon="9.492273330688477">
<ele>295.8</ele>
<time>2024-05-11T14:02:25Z</time>
</trkpt>
<trkpt lat="49.75077814422548" lon="9.492217004299164">
<ele>295.8</ele>
<time>2024-05-11T14:02:26Z</time>
</trkpt>
<trkpt lat="49.750766744837165" lon="9.492156906053424">
<ele>295.6</ele>
<time>2024-05-11T14:02:27Z</time>
</trkpt>
<trkpt lat="49.75075526162982" lon="9.492093035951257">
<ele>295.6</ele>
<time>2024-05-11T14:02:28Z</time>
</trkpt>
<trkpt lat="49.75074386224151" lon="9.49202531017363">
<ele>295.8</ele>
<time>2024-05-11T14:02:29Z</time>
</trkpt>
<trkpt lat="49.750728607177734" lon="9.491956662386656">
<ele>295.6</ele>
<time>2024-05-11T14:02:30Z</time>
</trkpt>
<trkpt lat="49.75071712397039" lon="9.491887092590332">
<ele>295.6</ele>
<time>2024-05-11T14:02:31Z</time>
</trkpt>
<trkpt lat="49.75070564076304" lon="9.491813583299518">
<ele>295.6</ele>
<time>2024-05-11T14:02:32Z</time>
</trkpt>
<trkpt lat="49.75069801323116" lon="9.491741163656116">
<ele>295.6</ele>
<time>2024-05-11T14:02:33Z</time>
</trkpt>
<trkpt lat="49.750686613842845" lon="9.49166958220303">
<ele>295.6</ele>
<time>2024-05-11T14:02:34Z</time>
</trkpt>
<trkpt lat="49.7506751306355" lon="9.491598084568976">
<ele>295.6</ele>
<time>2024-05-11T14:02:35Z</time>
</trkpt>
<trkpt lat="49.75066373124719" lon="9.491524659097196">
<ele>295.6</ele>
<time>2024-05-11T14:02:36Z</time>
</trkpt>
<trkpt lat="49.75065224803984" lon="9.49145500548184">
<ele>295.6</ele>
<time>2024-05-11T14:02:37Z</time>
</trkpt>
<trkpt lat="49.75064084865153" lon="9.491381580010056">
<ele>295.6</ele>
<time>2024-05-11T14:02:38Z</time>
</trkpt>
<trkpt lat="49.75062936544418" lon="9.491310082376003">
<ele>295.8</ele>
<time>2024-05-11T14:02:39Z</time>
</trkpt>
<trkpt lat="49.75061796605587" lon="9.49123858474195">
<ele>295.8</ele>
<time>2024-05-11T14:02:40Z</time>
</trkpt>
<trkpt lat="49.7506027109921" lon="9.491165159270167">
<ele>295.8</ele>
<time>2024-05-11T14:02:41Z</time>
</trkpt>
<trkpt lat="49.75059508346021" lon="9.49109642766416">
<ele>296</ele>
<time>2024-05-11T14:02:42Z</time>
</trkpt>
<trkpt lat="49.75058360025287" lon="9.491026857867835">
<ele>296</ele>
<time>2024-05-11T14:02:43Z</time>
</trkpt>
<trkpt lat="49.75057220086455" lon="9.490956282243133">
<ele>296.2</ele>
<time>2024-05-11T14:02:44Z</time>
</trkpt>
<trkpt lat="49.75056071765721" lon="9.490889478474855">
<ele>296.4</ele>
<time>2024-05-11T14:02:45Z</time>
</trkpt>
<trkpt lat="49.75054923444986" lon="9.49082368053496">
<ele>296.4</ele>
<time>2024-05-11T14:02:46Z</time>
</trkpt>
<trkpt lat="49.75053783506155" lon="9.490755032747984">
<ele>296.6</ele>
<time>2024-05-11T14:02:47Z</time>
</trkpt>
<trkpt lat="49.750526351854205" lon="9.490690156817436">
<ele>296.8</ele>
<time>2024-05-11T14:02:48Z</time>
</trkpt>
<trkpt lat="49.75051872432232" lon="9.490628214553">
<ele>296.8</ele>
<time>2024-05-11T14:02:49Z</time>
</trkpt>
<trkpt lat="49.750507324934006" lon="9.49056811630726">
<ele>297</ele>
<time>2024-05-11T14:02:50Z</time>
</trkpt>
<trkpt lat="49.75049584172666" lon="9.490509945899248">
<ele>297</ele>
<time>2024-05-11T14:02:51Z</time>
</trkpt>
<trkpt lat="49.750488214194775" lon="9.490453703328969">
<ele>297.2</ele>
<time>2024-05-11T14:02:52Z</time>
</trkpt>
<trkpt lat="49.75047681480646" lon="9.490396454930304">
<ele>297.4</ele>
<time>2024-05-11T14:02:53Z</time>
</trkpt>
<trkpt lat="49.75046533159912" lon="9.490340212360024">
<ele>297.6</ele>
<time>2024-05-11T14:02:54Z</time>
</trkpt>
<trkpt lat="49.7504539322108" lon="9.490284891799092">
<ele>297.6</ele>
<time>2024-05-11T14:02:55Z</time>
</trkpt>
<trkpt lat="49.75044630467892" lon="9.490233343094587">
<ele>297.8</ele>
<time>2024-05-11T14:02:56Z</time>
</trkpt>
<trkpt lat="49.75043482147157" lon="9.490181878209114">
<ele>298</ele>
<time>2024-05-11T14:02:57Z</time>
</trkpt>
<trkpt lat="49.750431049615145" lon="9.49013041332364">
<ele>298.2</ele>
<time>2024-05-11T14:02:58Z</time>
</trkpt>
<trkpt lat="49.7504195664078" lon="9.490076936781406">
<ele>298.6</ele>
<time>2024-05-11T14:02:59Z</time>
</trkpt>
<trkpt lat="49.750408167019486" lon="9.490023544058204">
<ele>298.8</ele>
<time>2024-05-11T14:03:00Z</time>
</trkpt>
<trkpt lat="49.75039668381214" lon="9.48997300118208">
<ele>299</ele>
<time>2024-05-11T14:03:01Z</time>
</trkpt>
<trkpt lat="49.75038528442383" lon="9.489925308153031">
<ele>299.2</ele>
<time>2024-05-11T14:03:02Z</time>
</trkpt>
<trkpt lat="49.75037380121648" lon="9.489878620952368">
<ele>299.6</ele>
<time>2024-05-11T14:03:03Z</time>
</trkpt>
<trkpt lat="49.75036231800914" lon="9.489832855761051">
<ele>299.8</ele>
<time>2024-05-11T14:03:04Z</time>
</trkpt>
<trkpt lat="49.750347062945366" lon="9.489791868254542">
<ele>300</ele>
<time>2024-05-11T14:03:05Z</time>
</trkpt>
<trkpt lat="49.75033943541348" lon="9.489751802757382">
<ele>300.2</ele>
<time>2024-05-11T14:03:06Z</time>
</trkpt>
<trkpt lat="49.75032803602517" lon="9.489709809422491">
<ele>300.4</ele>
<time>2024-05-11T14:03:07Z</time>
</trkpt>
<trkpt lat="49.75031655281782" lon="9.48967452161014">
<ele>300.6</ele>
<time>2024-05-11T14:03:08Z</time>
</trkpt>
<trkpt lat="49.75030515342951" lon="9.489640155807136">
<ele>301</ele>
<time>2024-05-11T14:03:09Z</time>
</trkpt>
<trkpt lat="49.75029752589762" lon="9.489606795832517">
<ele>301.2</ele>
<time>2024-05-11T14:03:10Z</time>
</trkpt>
<trkpt lat="49.750289898365736" lon="9.489582991227508">
<ele>301.6</ele>
<time>2024-05-11T14:03:11Z</time>
</trkpt>
<trkpt lat="49.75028604269028" lon="9.48955818079412">
<ele>301.8</ele>
<time>2024-05-11T14:03:12Z</time>
</trkpt>
<trkpt lat="49.75028227083385" lon="9.489531442523004">
<ele>302</ele>
<time>2024-05-11T14:03:13Z</time>
</trkpt>
<trkpt lat="49.75027841515839" lon="9.489504788070915">
<ele>302.2</ele>
<time>2024-05-11T14:03:14Z</time>
</trkpt>
<trkpt lat="49.75027464330197" lon="9.489477127790453">
<ele>302.4</ele>
<time>2024-05-11T14:03:15Z</time>
</trkpt>
<trkpt lat="49.75027464330197" lon="9.489448545500636">
<ele>302.6</ele>
<time>2024-05-11T14:03:16Z</time>
</trkpt>
<trkpt lat="49.750270787626505" lon="9.48941987939179">
<ele>302.8</ele>
<time>2024-05-11T14:03:17Z</time>
</trkpt>
<trkpt lat="49.75027464330197" lon="9.489396996796131">
<ele>302.8</ele>
<time>2024-05-11T14:03:18Z</time>
</trkpt>
<trkpt lat="49.75027841515839" lon="9.489373192191124">
<ele>303</ele>
<time>2024-05-11T14:03:19Z</time>
</trkpt>
<trkpt lat="49.75028227083385" lon="9.489351231604816">
<ele>303</ele>
<time>2024-05-11T14:03:20Z</time>
</trkpt>
<trkpt lat="49.75028604269028" lon="9.489331198856236">
<ele>303.2</ele>
<time>2024-05-11T14:03:21Z</time>
</trkpt>
<trkpt lat="49.75029367022216" lon="9.489313093945384">
<ele>303.2</ele>
<time>2024-05-11T14:03:22Z</time>
</trkpt>
<trkpt lat="49.75030129775405" lon="9.489296833053231">
<ele>303.2</ele>
<time>2024-05-11T14:03:23Z</time>
</trkpt>
<trkpt lat="49.75030515342951" lon="9.48927973397076">
<ele>303.2</ele>
<time>2024-05-11T14:03:24Z</time>
</trkpt>
<trkpt lat="49.750312780961394" lon="9.489266322925689">
<ele>303.2</ele>
<time>2024-05-11T14:03:25Z</time>
</trkpt>
<trkpt lat="49.75031655281782" lon="9.489252995699644">
<ele>303.2</ele>
<time>2024-05-11T14:03:26Z</time>
</trkpt>
<trkpt lat="49.75031655281782" lon="9.4892396684736">
<ele>303.2</ele>
<time>2024-05-11T14:03:27Z</time>
</trkpt>
<trkpt lat="49.75031655281782" lon="9.48922634124756">
<ele>303.2</ele>
<time>2024-05-11T14:03:28Z</time>
</trkpt>
<trkpt lat="49.75031655281782" lon="9.489214858040214">
<ele>303.2</ele>
<time>2024-05-11T14:03:29Z</time>
</trkpt>
<trkpt lat="49.75031655281782" lon="9.48920630849898">
<ele>303.2</ele>
<time>2024-05-11T14:03:30Z</time>
</trkpt>
<trkpt lat="49.75031655281782" lon="9.48920153081417">
<ele>303.2</ele>
<time>2024-05-11T14:03:31Z</time>
</trkpt>
<trkpt lat="49.750312780961394" lon="9.489194825291634">
<ele>303.2</ele>
<time>2024-05-11T14:03:32Z</time>
</trkpt>
<trkpt lat="49.750308925285935" lon="9.489185269922018">
<ele>303.2</ele>
<time>2024-05-11T14:03:33Z</time>
</trkpt>
<trkpt lat="49.750308925285935" lon="9.489174792543054">
<ele>303</ele>
<time>2024-05-11T14:03:34Z</time>
</trkpt>
<trkpt lat="49.75030515342951" lon="9.48916146531701">
<ele>303</ele>
<time>2024-05-11T14:03:35Z</time>
</trkpt>
<trkpt lat="49.75030129775405" lon="9.489141432568433">
<ele>303</ele>
<time>2024-05-11T14:03:36Z</time>
</trkpt>
<trkpt lat="49.75028604269028" lon="9.489116622135043">
<ele>303</ele>
<time>2024-05-11T14:03:37Z</time>
</trkpt>
<trkpt lat="49.75027841515839" lon="9.489100445061922">
<ele>303</ele>
<time>2024-05-11T14:03:38Z</time>
</trkpt>
<trkpt lat="49.75026701577008" lon="9.489074628800154">
<ele>303</ele>
<time>2024-05-11T14:03:39Z</time>
</trkpt>
<trkpt lat="49.75025553256273" lon="9.489049902185798">
<ele>303</ele>
<time>2024-05-11T14:03:40Z</time>
</trkpt>
<trkpt lat="49.75024413317442" lon="9.489016458392143">
<ele>303</ele>
<time>2024-05-11T14:03:41Z</time>
</trkpt>
<trkpt lat="49.750232649967074" lon="9.488980248570442">
<ele>303</ele>
<time>2024-05-11T14:03:42Z</time>
</trkpt>
<trkpt lat="49.75022125057876" lon="9.488948816433547">
<ele>303</ele>
<time>2024-05-11T14:03:43Z</time>
</trkpt>
<trkpt lat="49.750209767371416" lon="9.488920150324702">
<ele>303</ele>
<time>2024-05-11T14:03:44Z</time>
</trkpt>
<trkpt lat="49.75019828416407" lon="9.488893495872617">
<ele>303.2</ele>
<time>2024-05-11T14:03:45Z</time>
</trkpt>
<trkpt lat="49.75018688477576" lon="9.48886482976377">
<ele>303.2</ele>
<time>2024-05-11T14:03:46Z</time>
</trkpt>
<trkpt lat="49.75017540156841" lon="9.488831469789147">
<ele>303.4</ele>
<time>2024-05-11T14:03:47Z</time>
</trkpt>
<trkpt lat="49.7501640021801" lon="9.488796181976795">
<ele>303.6</ele>
<time>2024-05-11T14:03:48Z</time>
</trkpt>
<trkpt lat="49.75015637464821" lon="9.488761899992824">
<ele>303.8</ele>
<time>2024-05-11T14:03:49Z</time>
</trkpt>
<trkpt lat="49.75014489144087" lon="9.488724684342742">
<ele>304</ele>
<time>2024-05-11T14:03:50Z</time>
</trkpt>
<trkpt lat="49.75013726390898" lon="9.48868839070201">
<ele>304.2</ele>
<time>2024-05-11T14:03:51Z</time>
</trkpt>
<trkpt lat="49.750133492052555" lon="9.488655030727386">
<ele>304.4</ele>
<time>2024-05-11T14:03:52Z</time>
</trkpt>
<trkpt lat="49.75012200884521" lon="9.488619742915034">
<ele>304.6</ele>
<time>2024-05-11T14:03:53Z</time>
</trkpt>
<trkpt lat="49.75011823698878" lon="9.488584455102682">
<ele>304.8</ele>
<time>2024-05-11T14:03:54Z</time>
</trkpt>
<trkpt lat="49.7501106094569" lon="9.48854824528098">
<ele>305</ele>
<time>2024-05-11T14:03:55Z</time>
</trkpt>
<trkpt lat="49.750095354393125" lon="9.48851010762155">
<ele>305.2</ele>
<time>2024-05-11T14:03:56Z</time>
</trkpt>
<trkpt lat="49.75008387118578" lon="9.488478591665626">
<ele>305.4</ele>
<time>2024-05-11T14:03:57Z</time>
</trkpt>
<trkpt lat="49.75006484426558" lon="9.488441459834576">
<ele>305.6</ele>
<time>2024-05-11T14:03:58Z</time>
</trkpt>
<trkpt lat="49.75004958920181" lon="9.48840801604092">
<ele>305.8</ele>
<time>2024-05-11T14:03:59Z</time>
</trkpt>
<trkpt lat="49.75002662278712" lon="9.488380355760455">
<ele>305.8</ele>
<time>2024-05-11T14:04:00Z</time>
</trkpt>
<trkpt lat="49.750015223398805" lon="9.48835177347064">
<ele>305.8</ele>
<time>2024-05-11T14:04:01Z</time>
</trkpt>
<trkpt lat="49.75000759586692" lon="9.488323191180823">
<ele>305.8</ele>
<time>2024-05-11T14:04:02Z</time>
</trkpt>
<trkpt lat="49.74999996833503" lon="9.488300308585169">
<ele>305.8</ele>
<time>2024-05-11T14:04:03Z</time>
</trkpt>
<trkpt lat="49.749992340803146" lon="9.488283125683663">
<ele>305.8</ele>
<time>2024-05-11T14:04:04Z</time>
</trkpt>
<trkpt lat="49.749992340803146" lon="9.4882744923234">
<ele>305.8</ele>
<time>2024-05-11T14:04:05Z</time>
</trkpt>
<trkpt lat="49.74998848512769" lon="9.488266864791512">
<ele>305.8</ele>
<time>2024-05-11T14:04:06Z</time>
</trkpt>
<trkpt lat="49.749992340803146" lon="9.488260243088009">
<ele>305.8</ele>
<time>2024-05-11T14:04:07Z</time>
</trkpt>
<trkpt lat="49.749992340803146" lon="9.48825160972774">
<ele>305.8</ele>
<time>2024-05-11T14:04:08Z</time>
</trkpt>
<trkpt lat="49.749992340803146" lon="9.488246915861964">
<ele>305.8</ele>
<time>2024-05-11T14:04:09Z</time>
</trkpt>
<trkpt lat="49.74998848512769" lon="9.488243060186504">
<ele>305.8</ele>
<time>2024-05-11T14:04:10Z</time>
</trkpt>
<trkpt lat="49.74998848512769" lon="9.488241132348776">
<ele>305.8</ele>
<time>2024-05-11T14:04:13Z</time>
</trkpt>
<trkpt lat="49.74998848512769" lon="9.488240210339429">
<ele>305.8</ele>
<time>2024-05-11T14:04:14Z</time>
</trkpt>
<trkpt lat="49.74998848512769" lon="9.488238282501698">
<ele>305.6</ele>
<time>2024-05-11T14:04:17Z</time>
</trkpt>
<trkpt lat="49.74998848512769" lon="9.488240210339429">
<ele>305.6</ele>
<time>2024-05-11T14:04:20Z</time>
</trkpt>
<trkpt lat="49.74998848512769" lon="9.488238282501698">
<ele>305.4</ele>
<time>2024-05-11T14:04:21Z</time>
</trkpt>
<trkpt lat="49.74998848512769" lon="9.488240210339429">
<ele>305.4</ele>
<time>2024-05-11T14:04:22Z</time>
</trkpt>
<trkpt lat="49.74998848512769" lon="9.48823543265462">
<ele>305.2</ele>
<time>2024-05-11T14:04:24Z</time>
</trkpt>
<trkpt lat="49.749992340803146" lon="9.488226883113384">
<ele>305</ele>
<time>2024-05-11T14:04:25Z</time>
</trkpt>
<trkpt lat="49.74999996833503" lon="9.488211628049612">
<ele>304.8</ele>
<time>2024-05-11T14:04:26Z</time>
</trkpt>
<trkpt lat="49.749996112659574" lon="9.48817634023726">
<ele>304.6</ele>
<time>2024-05-11T14:04:27Z</time>
</trkpt>
<trkpt lat="49.749992340803146" lon="9.488138118758798">
<ele>304.4</ele>
<time>2024-05-11T14:04:28Z</time>
</trkpt>
<trkpt lat="49.74998471327126" lon="9.48809813708067">
<ele>304.4</ele>
<time>2024-05-11T14:04:29Z</time>
</trkpt>
<trkpt lat="49.74996945820749" lon="9.488051366060972">
<ele>304.2</ele>
<time>2024-05-11T14:04:30Z</time>
</trkpt>
<trkpt lat="49.74995420314371" lon="9.488003673031926">
<ele>304</ele>
<time>2024-05-11T14:04:31Z</time>
</trkpt>
<trkpt lat="49.749935092404485" lon="9.48795790784061">
<ele>304</ele>
<time>2024-05-11T14:04:32Z</time>
</trkpt>
<trkpt lat="49.749916065484285" lon="9.4879169203341">
<ele>303.8</ele>
<time>2024-05-11T14:04:33Z</time>
</trkpt>
<trkpt lat="49.74989318288863" lon="9.487870149314404">
<ele>303.8</ele>
<time>2024-05-11T14:04:34Z</time>
</trkpt>
<trkpt lat="49.74986644461751" lon="9.487821534276009">
<ele>304</ele>
<time>2024-05-11T14:04:35Z</time>
</trkpt>
<trkpt lat="49.74984356202185" lon="9.487771913409231">
<ele>304</ele>
<time>2024-05-11T14:04:36Z</time>
</trkpt>
<trkpt lat="49.749816823750734" lon="9.487721370533109">
<ele>304</ele>
<time>2024-05-11T14:04:37Z</time>
</trkpt>
<trkpt lat="49.74978631362319" lon="9.487669905647635">
<ele>304.2</ele>
<time>2024-05-11T14:04:38Z</time>
</trkpt>
<trkpt lat="49.74975203163922" lon="9.48762028478086">
<ele>304</ele>
<time>2024-05-11T14:04:39Z</time>
</trkpt>
<trkpt lat="49.749717665836215" lon="9.487566892057655">
<ele>304.2</ele>
<time>2024-05-11T14:04:40Z</time>
</trkpt>
<trkpt lat="49.74968330003321" lon="9.487515427172184">
<ele>304.2</ele>
<time>2024-05-11T14:04:41Z</time>
</trkpt>
<trkpt lat="49.74964516237378" lon="9.487460106611252">
<ele>304.2</ele>
<time>2024-05-11T14:04:42Z</time>
</trkpt>
<trkpt lat="49.74960702471435" lon="9.48740478605032">
<ele>304.4</ele>
<time>2024-05-11T14:04:43Z</time>
</trkpt>
<trkpt lat="49.74956888705492" lon="9.487351393327115">
<ele>304.6</ele>
<time>2024-05-11T14:04:44Z</time>
</trkpt>
<trkpt lat="49.74953074939549" lon="9.487298000603914">
<ele>304.8</ele>
<time>2024-05-11T14:04:45Z</time>
</trkpt>
<trkpt lat="49.74949261173606" lon="9.48724837973714">
<ele>305</ele>
<time>2024-05-11T14:04:46Z</time>
</trkpt>
<trkpt lat="49.74945447407663" lon="9.487197836861014">
<ele>305.2</ele>
<time>2024-05-11T14:04:47Z</time>
</trkpt>
<trkpt lat="49.749420108273625" lon="9.48714637197554">
<ele>305.6</ele>
<time>2024-05-11T14:04:48Z</time>
</trkpt>
<trkpt lat="49.74937819875777" lon="9.487094823271036">
<ele>305.8</ele>
<time>2024-05-11T14:04:49Z</time>
</trkpt>
<trkpt lat="49.74934383295477" lon="9.48704813607037">
<ele>306.2</ele>
<time>2024-05-11T14:04:50Z</time>
</trkpt>
<trkpt lat="49.749305695295334" lon="9.486999437212944">
<ele>306.6</ele>
<time>2024-05-11T14:04:51Z</time>
</trkpt>
<trkpt lat="49.7492675576359" lon="9.4869499001652">
<ele>306.8</ele>
<time>2024-05-11T14:04:52Z</time>
</trkpt>
<trkpt lat="49.74922941997647" lon="9.486903129145505">
<ele>307</ele>
<time>2024-05-11T14:04:53Z</time>
</trkpt>
<trkpt lat="49.74919128231704" lon="9.48685166426003">
<ele>307.2</ele>
<time>2024-05-11T14:04:54Z</time>
</trkpt>
<trkpt lat="49.74915306083858" lon="9.486800115555525">
<ele>307.4</ele>
<time>2024-05-11T14:04:55Z</time>
</trkpt>
<trkpt lat="49.74911492317915" lon="9.486742950975897">
<ele>307.6</ele>
<time>2024-05-11T14:04:56Z</time>
</trkpt>
<trkpt lat="49.74907678551972" lon="9.486686624586582">
<ele>307.6</ele>
<time>2024-05-11T14:04:57Z</time>
</trkpt>
<trkpt lat="49.74903487600386" lon="9.486628454178572">
<ele>307.8</ele>
<time>2024-05-11T14:04:58Z</time>
</trkpt>
<trkpt lat="49.74899288266897" lon="9.48657028377056">
<ele>308</ele>
<time>2024-05-11T14:04:59Z</time>
</trkpt>
<trkpt lat="49.74895474500954" lon="9.486510269343851">
<ele>308.2</ele>
<time>2024-05-11T14:05:00Z</time>
</trkpt>
<trkpt lat="49.74891275167465" lon="9.486446315422654">
<ele>308.2</ele>
<time>2024-05-11T14:05:01Z</time>
</trkpt>
<trkpt lat="49.748870842158794" lon="9.486381523311138">
<ele>308.2</ele>
<time>2024-05-11T14:05:02Z</time>
</trkpt>
<trkpt lat="49.748828848823905" lon="9.48631471954286">
<ele>308.4</ele>
<time>2024-05-11T14:05:03Z</time>
</trkpt>
<trkpt lat="49.748786855489016" lon="9.486249843612311">
<ele>308.4</ele>
<time>2024-05-11T14:05:04Z</time>
</trkpt>
<trkpt lat="49.74874494597316" lon="9.486187901347876">
<ele>308.4</ele>
<time>2024-05-11T14:05:05Z</time>
</trkpt>
<trkpt lat="49.74870295263827" lon="9.48612017557025">
<ele>308.6</ele>
<time>2024-05-11T14:05:06Z</time>
</trkpt>
<trkpt lat="49.74866095930338" lon="9.486049599945543">
<ele>308.6</ele>
<time>2024-05-11T14:05:07Z</time>
</trkpt>
<trkpt lat="49.74862282164395" lon="9.485976174473764">
<ele>308.6</ele>
<time>2024-05-11T14:05:08Z</time>
</trkpt>
<trkpt lat="49.74858091212809" lon="9.48590467683971">
<ele>308.6</ele>
<time>2024-05-11T14:05:09Z</time>
</trkpt>
<trkpt lat="49.74854654632509" lon="9.485831251367928">
<ele>308.6</ele>
<time>2024-05-11T14:05:10Z</time>
</trkpt>
<trkpt lat="49.74850463680923" lon="9.485759669914842">
<ele>308.4</ele>
<time>2024-05-11T14:05:11Z</time>
</trkpt>
<trkpt lat="49.74846641533077" lon="9.485690100118518">
<ele>308.4</ele>
<time>2024-05-11T14:05:12Z</time>
</trkpt>
<trkpt lat="49.74842827767134" lon="9.485621452331545">
<ele>308.2</ele>
<time>2024-05-11T14:05:13Z</time>
</trkpt>
<trkpt lat="49.74839014001191" lon="9.485553726553915">
<ele>308</ele>
<time>2024-05-11T14:05:14Z</time>
</trkpt>
<trkpt lat="49.748355858027935" lon="9.48548792861402">
<ele>308</ele>
<time>2024-05-11T14:05:15Z</time>
</trkpt>
<trkpt lat="49.74831763654947" lon="9.485423052683473">
<ele>307.8</ele>
<time>2024-05-11T14:05:16Z</time>
</trkpt>
<trkpt lat="49.7482833545655" lon="9.485358176752923">
<ele>307.8</ele>
<time>2024-05-11T14:05:17Z</time>
</trkpt>
<trkpt lat="49.74824521690607" lon="9.485293384641407">
<ele>307.8</ele>
<time>2024-05-11T14:05:18Z</time>
</trkpt>
<trkpt lat="49.74820707924664" lon="9.48522850871086">
<ele>308</ele>
<time>2024-05-11T14:05:19Z</time>
</trkpt>
<trkpt lat="49.74817271344364" lon="9.485161704942584">
<ele>308</ele>
<time>2024-05-11T14:05:20Z</time>
</trkpt>
<trkpt lat="49.748138347640634" lon="9.485097834840415">
<ele>308.2</ele>
<time>2024-05-11T14:05:21Z</time>
</trkpt>
<trkpt lat="49.74810406565666" lon="9.4850348867476">
<ele>308.2</ele>
<time>2024-05-11T14:05:22Z</time>
</trkpt>
<trkpt lat="49.748077327385545" lon="9.484961461275816">
<ele>308.4</ele>
<time>2024-05-11T14:05:23Z</time>
</trkpt>
<trkpt lat="49.748058300465345" lon="9.484881330281496">
<ele>308.6</ele>
<time>2024-05-11T14:05:24Z</time>
</trkpt>
<trkpt lat="49.74805067293346" lon="9.484801283106208">
<ele>308.8</ele>
<time>2024-05-11T14:05:25Z</time>
</trkpt>
<trkpt lat="49.748039189726114" lon="9.484723079949616">
<ele>308.8</ele>
<time>2024-05-11T14:05:26Z</time>
</trkpt>
<trkpt lat="49.748016307130456" lon="9.484655354171991">
<ele>309</ele>
<time>2024-05-11T14:05:27Z</time>
</trkpt>
<trkpt lat="49.747978169471025" lon="9.48459810577333">
<ele>309.2</ele>
<time>2024-05-11T14:05:28Z</time>
</trkpt>
<trkpt lat="49.747940031811595" lon="9.484544713050129">
<ele>309.2</ele>
<time>2024-05-11T14:05:29Z</time>
</trkpt>
<trkpt lat="49.747898038476706" lon="9.484491320326924">
<ele>309.4</ele>
<time>2024-05-11T14:05:30Z</time>
</trkpt>
<trkpt lat="49.74785612896085" lon="9.484443627297878">
<ele>309.4</ele>
<time>2024-05-11T14:05:31Z</time>
</trkpt>
<trkpt lat="49.74781036376953" lon="9.484393084421754">
<ele>309.6</ele>
<time>2024-05-11T14:05:32Z</time>
</trkpt>
<trkpt lat="49.74776837043464" lon="9.484345391392708">
<ele>309.8</ele>
<time>2024-05-11T14:05:33Z</time>
</trkpt>
<trkpt lat="49.74772637709975" lon="9.484296776354311">
<ele>310</ele>
<time>2024-05-11T14:05:34Z</time>
</trkpt>
<trkpt lat="49.74768823944032" lon="9.484250005334616">
<ele>310.2</ele>
<time>2024-05-11T14:05:35Z</time>
</trkpt>
<trkpt lat="49.74765010178089" lon="9.48420524597168">
<ele>310.4</ele>
<time>2024-05-11T14:05:36Z</time>
</trkpt>
<trkpt lat="49.74761196412146" lon="9.484158474951982">
<ele>310.8</ele>
<time>2024-05-11T14:05:37Z</time>
</trkpt>
<trkpt lat="49.74758145399392" lon="9.484111703932284">
<ele>311</ele>
<time>2024-05-11T14:05:38Z</time>
</trkpt>
<trkpt lat="49.74754708819091" lon="9.48406694456935">
<ele>311.2</ele>
<time>2024-05-11T14:05:39Z</time>
</trkpt>
<trkpt lat="49.74751280620694" lon="9.484020173549652">
<ele>311.4</ele>
<time>2024-05-11T14:05:40Z</time>
</trkpt>
<trkpt lat="49.74747844040394" lon="9.483973486348988">
<ele>311.8</ele>
<time>2024-05-11T14:05:41Z</time>
</trkpt>
<trkpt lat="49.747447930276394" lon="9.48392864316702">
<ele>312</ele>
<time>2024-05-11T14:05:42Z</time>
</trkpt>
<trkpt lat="49.74741742014885" lon="9.483881872147322">
<ele>312.2</ele>
<time>2024-05-11T14:05:43Z</time>
</trkpt>
<trkpt lat="49.747386910021305" lon="9.483835184946656">
<ele>312.4</ele>
<time>2024-05-11T14:05:44Z</time>
</trkpt>
<trkpt lat="49.74736017175019" lon="9.48378656990826">
<ele>312.6</ele>
<time>2024-05-11T14:05:45Z</time>
</trkpt>
<trkpt lat="49.74732966162264" lon="9.48373317718506">
<ele>312.8</ele>
<time>2024-05-11T14:05:46Z</time>
</trkpt>
<trkpt lat="49.7472991514951" lon="9.483676850795746">
<ele>313</ele>
<time>2024-05-11T14:05:47Z</time>
</trkpt>
<trkpt lat="49.74727241322398" lon="9.483616752550006">
<ele>313.2</ele>
<time>2024-05-11T14:05:48Z</time>
</trkpt>
<trkpt lat="49.74724953062832" lon="9.48355196043849">
<ele>313.2</ele>
<time>2024-05-11T14:05:49Z</time>
</trkpt>
<trkpt lat="49.74722287617624" lon="9.48348993435502">
<ele>313.2</ele>
<time>2024-05-11T14:05:50Z</time>
</trkpt>
<trkpt lat="49.74719999358058" lon="9.483427992090585">
<ele>313.4</ele>
<time>2024-05-11T14:05:51Z</time>
</trkpt>
<trkpt lat="49.74717325530946" lon="9.483367893844845">
<ele>313.6</ele>
<time>2024-05-11T14:05:52Z</time>
</trkpt>
<trkpt lat="49.74715422838926" lon="9.483308717608452">
<ele>313.8</ele>
<time>2024-05-11T14:05:53Z</time>
</trkpt>
<trkpt lat="49.74713511765003" lon="9.483248703181744">
<ele>314</ele>
<time>2024-05-11T14:05:54Z</time>
</trkpt>
<trkpt lat="49.7471160069108" lon="9.483191454783082">
<ele>314</ele>
<time>2024-05-11T14:05:55Z</time>
</trkpt>
<trkpt lat="49.7470969799906" lon="9.4831352122128">
<ele>314.2</ele>
<time>2024-05-11T14:05:56Z</time>
</trkpt>
<trkpt lat="49.74707786925137" lon="9.483081735670568">
<ele>314.4</ele>
<time>2024-05-11T14:05:57Z</time>
</trkpt>
<trkpt lat="49.74705884233117" lon="9.483030270785092">
<ele>314.4</ele>
<time>2024-05-11T14:05:58Z</time>
</trkpt>
<trkpt lat="49.74703973159194" lon="9.482983583584428">
<ele>314.6</ele>
<time>2024-05-11T14:05:59Z</time>
</trkpt>
<trkpt lat="49.74702070467174" lon="9.482933040708303">
<ele>314.6</ele>
<time>2024-05-11T14:06:00Z</time>
</trkpt>
<trkpt lat="49.74700159393251" lon="9.482881492003798">
<ele>314.6</ele>
<time>2024-05-11T14:06:01Z</time>
</trkpt>
<trkpt lat="49.74698256701231" lon="9.482830027118323">
<ele>314.8</ele>
<time>2024-05-11T14:06:02Z</time>
</trkpt>
<trkpt lat="49.74696345627308" lon="9.482776634395124">
<ele>314.8</ele>
<time>2024-05-11T14:06:03Z</time>
</trkpt>
<trkpt lat="49.74694057367742" lon="9.48272131383419">
<ele>314.8</ele>
<time>2024-05-11T14:06:04Z</time>
</trkpt>
<trkpt lat="49.74691769108176" lon="9.482671692967417">
<ele>315</ele>
<time>2024-05-11T14:06:05Z</time>
</trkpt>
<trkpt lat="49.746894808486104" lon="9.482620228081942">
<ele>315.2</ele>
<time>2024-05-11T14:06:06Z</time>
</trkpt>
<trkpt lat="49.74686807021499" lon="9.482571529224517">
<ele>315.2</ele>
<time>2024-05-11T14:06:07Z</time>
</trkpt>
<trkpt lat="49.7468414157629" lon="9.48252484202385">
<ele>315.4</ele>
<time>2024-05-11T14:06:08Z</time>
</trkpt>
<trkpt lat="49.74681090563536" lon="9.482479998841882">
<ele>315.6</ele>
<time>2024-05-11T14:06:09Z</time>
</trkpt>
<trkpt lat="49.746776539832354" lon="9.482437083497643">
<ele>315.8</ele>
<time>2024-05-11T14:06:10Z</time>
</trkpt>
<trkpt lat="49.74674980156123" lon="9.482397018000484">
<ele>316</ele>
<time>2024-05-11T14:06:11Z</time>
</trkpt>
<trkpt lat="49.74672314710915" lon="9.482356952503324">
<ele>316.2</ele>
<time>2024-05-11T14:06:12Z</time>
</trkpt>
<trkpt lat="49.746696408838034" lon="9.482316970825195">
<ele>316.4</ele>
<time>2024-05-11T14:06:13Z</time>
</trkpt>
<trkpt lat="49.74666589871049" lon="9.482278749346731">
<ele>316.8</ele>
<time>2024-05-11T14:06:14Z</time>
</trkpt>
<trkpt lat="49.74663161672652" lon="9.482241617515683">
<ele>317</ele>
<time>2024-05-11T14:06:15Z</time>
</trkpt>
<trkpt lat="49.74660102277994" lon="9.482199624180794">
<ele>317.2</ele>
<time>2024-05-11T14:06:16Z</time>
</trkpt>
<trkpt lat="49.74656674079597" lon="9.482161486521363">
<ele>317.6</ele>
<time>2024-05-11T14:06:17Z</time>
</trkpt>
<trkpt lat="49.746536230668426" lon="9.482119493186474">
<ele>317.8</ele>
<time>2024-05-11T14:06:18Z</time>
</trkpt>
<trkpt lat="49.746498093008995" lon="9.482074733823538">
<ele>317.8</ele>
<time>2024-05-11T14:06:19Z</time>
</trkpt>
<trkpt lat="49.74646758288145" lon="9.482033662497996">
<ele>318</ele>
<time>2024-05-11T14:06:20Z</time>
</trkpt>
<trkpt lat="49.74643321707845" lon="9.48198982514441">
<ele>318</ele>
<time>2024-05-11T14:06:21Z</time>
</trkpt>
<trkpt lat="49.7464027069509" lon="9.48194783180952">
<ele>318</ele>
<time>2024-05-11T14:06:22Z</time>
</trkpt>
<trkpt lat="49.7463683411479" lon="9.48190877214074">
<ele>318</ele>
<time>2024-05-11T14:06:23Z</time>
</trkpt>
<trkpt lat="49.746337831020355" lon="9.481864850968122">
<ele>317.8</ele>
<time>2024-05-11T14:06:24Z</time>
</trkpt>
<trkpt lat="49.74630732089281" lon="9.481820091605186">
<ele>317.8</ele>
<time>2024-05-11T14:06:25Z</time>
</trkpt>
<trkpt lat="49.746276810765266" lon="9.48177524842322">
<ele>317.8</ele>
<time>2024-05-11T14:06:26Z</time>
</trkpt>
<trkpt lat="49.74623867310584" lon="9.481730405241253">
<ele>317.8</ele>
<time>2024-05-11T14:06:27Z</time>
</trkpt>
<trkpt lat="49.74620816297829" lon="9.481683718040586">
<ele>317.8</ele>
<time>2024-05-11T14:06:28Z</time>
</trkpt>
<trkpt lat="49.74617379717529" lon="9.481631247326732">
<ele>317.8</ele>
<time>2024-05-11T14:06:29Z</time>
</trkpt>
<trkpt lat="49.746143287047744" lon="9.481581626459956">
<ele>317.8</ele>
<time>2024-05-11T14:06:30Z</time>
</trkpt>
<trkpt lat="49.74610514938831" lon="9.481532089412212">
<ele>318</ele>
<time>2024-05-11T14:06:31Z</time>
</trkpt>
<trkpt lat="49.74607078358531" lon="9.48147961869836">
<ele>318</ele>
<time>2024-05-11T14:06:32Z</time>
</trkpt>
<trkpt lat="49.74603650160134" lon="9.481429997831585">
<ele>318.2</ele>
<time>2024-05-11T14:06:33Z</time>
</trkpt>
<trkpt lat="49.746005991473794" lon="9.481381382793188">
<ele>318.2</ele>
<time>2024-05-11T14:06:34Z</time>
</trkpt>
<trkpt lat="49.74597162567079" lon="9.481333689764142">
<ele>318.2</ele>
<time>2024-05-11T14:06:35Z</time>
</trkpt>
<trkpt lat="49.745944971218705" lon="9.481281219050288">
<ele>318.4</ele>
<time>2024-05-11T14:06:36Z</time>
</trkpt>
<trkpt lat="49.7459106054157" lon="9.481227826327084">
<ele>318.4</ele>
<time>2024-05-11T14:06:37Z</time>
</trkpt>
<trkpt lat="49.74588009528816" lon="9.48117820546031">
<ele>318.4</ele>
<time>2024-05-11T14:06:38Z</time>
</trkpt>
<trkpt lat="49.74585335701704" lon="9.48112296871841">
<ele>318.4</ele>
<time>2024-05-11T14:06:39Z</time>
</trkpt>
<trkpt lat="49.74581907503307" lon="9.481068570166826">
<ele>318.6</ele>
<time>2024-05-11T14:06:40Z</time>
</trkpt>
<trkpt lat="49.74579233676195" lon="9.481015177443624">
<ele>318.6</ele>
<time>2024-05-11T14:06:41Z</time>
</trkpt>
<trkpt lat="49.74576182663441" lon="9.48096178472042">
<ele>318.6</ele>
<time>2024-05-11T14:06:42Z</time>
</trkpt>
<trkpt lat="49.74572746083141" lon="9.480906464159489">
<ele>318.8</ele>
<time>2024-05-11T14:06:43Z</time>
</trkpt>
<trkpt lat="49.74569695070386" lon="9.480852065607904">
<ele>318.8</ele>
<time>2024-05-11T14:06:44Z</time>
</trkpt>
<trkpt lat="49.74566266871989" lon="9.480796745046971">
<ele>318.8</ele>
<time>2024-05-11T14:06:45Z</time>
</trkpt>
<trkpt lat="49.74563215859234" lon="9.480739580467343">
<ele>319</ele>
<time>2024-05-11T14:06:46Z</time>
</trkpt>
<trkpt lat="49.7456016484648" lon="9.48068618774414">
<ele>319</ele>
<time>2024-05-11T14:06:47Z</time>
</trkpt>
<trkpt lat="49.74557105451822" lon="9.480633717030289">
<ele>319</ele>
<time>2024-05-11T14:06:48Z</time>
</trkpt>
<trkpt lat="49.74554054439068" lon="9.480578396469356">
<ele>319.2</ele>
<time>2024-05-11T14:06:49Z</time>
</trkpt>
<trkpt lat="49.745510034263134" lon="9.480523075908422">
<ele>319.2</ele>
<time>2024-05-11T14:06:50Z</time>
</trkpt>
<trkpt lat="49.74547952413559" lon="9.48046968318522">
<ele>319.4</ele>
<time>2024-05-11T14:06:51Z</time>
</trkpt>
<trkpt lat="49.745449014008045" lon="9.480415284633636">
<ele>319.4</ele>
<time>2024-05-11T14:06:52Z</time>
</trkpt>
<trkpt lat="49.745410876348615" lon="9.480355186387897">
<ele>319.6</ele>
<time>2024-05-11T14:06:53Z</time>
</trkpt>
<trkpt lat="49.74537651054561" lon="9.480295171961188">
<ele>319.6</ele>
<time>2024-05-11T14:06:54Z</time>
</trkpt>
<trkpt lat="49.745349856093526" lon="9.480241695418954">
<ele>319.8</ele>
<time>2024-05-11T14:06:55Z</time>
</trkpt>
<trkpt lat="49.74531549029052" lon="9.480186458677052">
<ele>319.8</ele>
<time>2024-05-11T14:06:56Z</time>
</trkpt>
<trkpt lat="49.74528120830655" lon="9.48013206012547">
<ele>319.8</ele>
<time>2024-05-11T14:06:57Z</time>
</trkpt>
<trkpt lat="49.74524684250355" lon="9.48007296770811">
<ele>320</ele>
<time>2024-05-11T14:06:58Z</time>
</trkpt>
<trkpt lat="49.745216332376" lon="9.4800147973001">
<ele>320</ele>
<time>2024-05-11T14:06:59Z</time>
</trkpt>
<trkpt lat="49.74517819471657" lon="9.479949921369553">
<ele>320</ele>
<time>2024-05-11T14:07:00Z</time>
</trkpt>
<trkpt lat="49.74514005705714" lon="9.479885045439003">
<ele>320</ele>
<time>2024-05-11T14:07:01Z</time>
</trkpt>
<trkpt lat="49.74510191939771" lon="9.479820169508455">
<ele>320</ele>
<time>2024-05-11T14:07:02Z</time>
</trkpt>
<trkpt lat="49.74507140927017" lon="9.47975629940629">
<ele>320</ele>
<time>2024-05-11T14:07:03Z</time>
</trkpt>
<trkpt lat="49.74503704346717" lon="9.4796952791512">
<ele>320</ele>
<time>2024-05-11T14:07:04Z</time>
</trkpt>
<trkpt lat="49.74499890580773" lon="9.479629481211305">
<ele>319.8</ele>
<time>2024-05-11T14:07:05Z</time>
</trkpt>
<trkpt lat="49.7449607681483" lon="9.479568460956216">
<ele>319.6</ele>
<time>2024-05-11T14:07:06Z</time>
</trkpt>
<trkpt lat="49.74492263048887" lon="9.479506434872746">
<ele>319.4</ele>
<time>2024-05-11T14:07:07Z</time>
</trkpt>
<trkpt lat="49.74485012702644" lon="9.47937961667776">
<ele>319.2</ele>
<time>2024-05-11T14:07:09Z</time>
</trkpt>
<trkpt lat="49.744819616898894" lon="9.47932144626975">
<ele>319.2</ele>
<time>2024-05-11T14:07:10Z</time>
</trkpt>
<trkpt lat="49.74478525109589" lon="9.47926134802401">
<ele>319</ele>
<time>2024-05-11T14:07:11Z</time>
</trkpt>
<trkpt lat="49.74475474096835" lon="9.479207955300808">
<ele>319</ele>
<time>2024-05-11T14:07:12Z</time>
</trkpt>
<trkpt lat="49.7447242308408" lon="9.479153556749225">
<ele>318.8</ele>
<time>2024-05-11T14:07:13Z</time>
</trkpt>
<trkpt lat="49.74469372071326" lon="9.479098320007324">
<ele>318.8</ele>
<time>2024-05-11T14:07:14Z</time>
</trkpt>
<trkpt lat="49.744659354910254" lon="9.479040065780282">
<ele>318.8</ele>
<time>2024-05-11T14:07:15Z</time>
</trkpt>
<trkpt lat="49.74462507292628" lon="9.478981895372272">
<ele>318.6</ele>
<time>2024-05-11T14:07:16Z</time>
</trkpt>
<trkpt lat="49.74459070712328" lon="9.478919953107834">
<ele>318.8</ele>
<time>2024-05-11T14:07:17Z</time>
</trkpt>
<trkpt lat="49.74455642513931" lon="9.478857005015016">
<ele>318.8</ele>
<time>2024-05-11T14:07:18Z</time>
</trkpt>
<trkpt lat="49.744518203660846" lon="9.47878835722804">
<ele>318.8</ele>
<time>2024-05-11T14:07:19Z</time>
</trkpt>
<trkpt lat="49.744483921676874" lon="9.478723481297491">
<ele>319</ele>
<time>2024-05-11T14:07:20Z</time>
</trkpt>
<trkpt lat="49.74444578401744" lon="9.478659611195326">
<ele>319</ele>
<time>2024-05-11T14:07:21Z</time>
</trkpt>
<trkpt lat="49.74440764635801" lon="9.478598590940235">
<ele>319</ele>
<time>2024-05-11T14:07:22Z</time>
</trkpt>
<trkpt lat="49.74436942487955" lon="9.47853178717196">
<ele>319.2</ele>
<time>2024-05-11T14:07:23Z</time>
</trkpt>
<trkpt lat="49.74433514289558" lon="9.478467917069793">
<ele>319.2</ele>
<time>2024-05-11T14:07:24Z</time>
</trkpt>
<trkpt lat="49.744300777092576" lon="9.478401113301516">
<ele>319.4</ele>
<time>2024-05-11T14:07:25Z</time>
</trkpt>
<trkpt lat="49.74426649510861" lon="9.47833632119">
<ele>319.6</ele>
<time>2024-05-11T14:07:26Z</time>
</trkpt>
<trkpt lat="49.74423598498106" lon="9.47827622294426">
<ele>319.8</ele>
<time>2024-05-11T14:07:27Z</time>
</trkpt>
<trkpt lat="49.74420547485352" lon="9.47821998037398">
<ele>319.8</ele>
<time>2024-05-11T14:07:28Z</time>
</trkpt>
<trkpt lat="49.74417488090694" lon="9.478164659813046">
<ele>319.8</ele>
<time>2024-05-11T14:07:29Z</time>
</trkpt>
<trkpt lat="49.744144370779395" lon="9.47811311110854">
<ele>319.8</ele>
<time>2024-05-11T14:07:30Z</time>
</trkpt>
<trkpt lat="49.74412148818374" lon="9.478063574060798">
<ele>320</ele>
<time>2024-05-11T14:07:31Z</time>
</trkpt>
<trkpt lat="49.74409097805619" lon="9.478008253499866">
<ele>319.8</ele>
<time>2024-05-11T14:07:32Z</time>
</trkpt>
<trkpt lat="49.744068095460534" lon="9.47795863263309">
<ele>320</ele>
<time>2024-05-11T14:07:33Z</time>
</trkpt>
<trkpt lat="49.74404144100845" lon="9.477906161919236">
<ele>320</ele>
<time>2024-05-11T14:07:34Z</time>
</trkpt>
<trkpt lat="49.74402233026922" lon="9.47785846889019">
<ele>320</ele>
<time>2024-05-11T14:07:35Z</time>
</trkpt>
<trkpt lat="49.744003219529986" lon="9.477811781689525">
<ele>320</ele>
<time>2024-05-11T14:07:36Z</time>
</trkpt>
<trkpt lat="49.7439765650779" lon="9.477767944335938">
<ele>320</ele>
<time>2024-05-11T14:07:37Z</time>
</trkpt>
<trkpt lat="49.743949826806784" lon="9.477720251306891">
<ele>320.2</ele>
<time>2024-05-11T14:07:38Z</time>
</trkpt>
<trkpt lat="49.74391931667924" lon="9.47766300290823">
<ele>320.2</ele>
<time>2024-05-11T14:07:39Z</time>
</trkpt>
<trkpt lat="49.74388503469527" lon="9.477609610185027">
<ele>320.2</ele>
<time>2024-05-11T14:07:40Z</time>
</trkpt>
<trkpt lat="49.74385444074869" lon="9.477558061480522">
<ele>320.4</ele>
<time>2024-05-11T14:07:41Z</time>
</trkpt>
<trkpt lat="49.74382015876472" lon="9.477508524432778">
<ele>320.4</ele>
<time>2024-05-11T14:07:42Z</time>
</trkpt>
<trkpt lat="49.743789648637176" lon="9.477457981556654">
<ele>320.4</ele>
<time>2024-05-11T14:07:43Z</time>
</trkpt>
<trkpt lat="49.74376676604152" lon="9.477406432852147">
<ele>320.6</ele>
<time>2024-05-11T14:07:44Z</time>
</trkpt>
<trkpt lat="49.7437400277704" lon="9.477356895804403">
<ele>320.8</ele>
<time>2024-05-11T14:07:45Z</time>
</trkpt>
<trkpt lat="49.743713373318315" lon="9.4773053470999">
<ele>320.8</ele>
<time>2024-05-11T14:07:46Z</time>
</trkpt>
<trkpt lat="49.74368277937174" lon="9.477252960205078">
<ele>321</ele>
<time>2024-05-11T14:07:47Z</time>
</trkpt>
<trkpt lat="49.74365989677608" lon="9.477201411500571">
<ele>321.2</ele>
<time>2024-05-11T14:07:48Z</time>
</trkpt>
<trkpt lat="49.743633242323995" lon="9.477151790633798">
<ele>321.2</ele>
<time>2024-05-11T14:07:49Z</time>
</trkpt>
<trkpt lat="49.743610359728336" lon="9.477101247757671">
<ele>321.2</ele>
<time>2024-05-11T14:07:50Z</time>
</trkpt>
<trkpt lat="49.74358362145722" lon="9.477054560557008">
<ele>321.2</ele>
<time>2024-05-11T14:07:51Z</time>
</trkpt>
<trkpt lat="49.743556967005134" lon="9.47700971737504">
<ele>321.2</ele>
<time>2024-05-11T14:07:52Z</time>
</trkpt>
<trkpt lat="49.743530228734016" lon="9.476962024345994">
<ele>321.2</ele>
<time>2024-05-11T14:07:53Z</time>
</trkpt>
<trkpt lat="49.743511117994785" lon="9.476918186992409">
<ele>321.4</ele>
<time>2024-05-11T14:07:54Z</time>
</trkpt>
<trkpt lat="49.74348823539913" lon="9.476876193657516">
<ele>321.6</ele>
<time>2024-05-11T14:07:55Z</time>
</trkpt>
<trkpt lat="49.74346535280347" lon="9.476835206151009">
<ele>321.6</ele>
<time>2024-05-11T14:07:56Z</time>
</trkpt>
<trkpt lat="49.74343869835138" lon="9.476781813427806">
<ele>321.8</ele>
<time>2024-05-11T14:07:57Z</time>
</trkpt>
<trkpt lat="49.743411960080266" lon="9.476739820092916">
<ele>321.8</ele>
<time>2024-05-11T14:07:58Z</time>
</trkpt>
<trkpt lat="49.74338530562818" lon="9.476693132892253">
<ele>321.8</ele>
<time>2024-05-11T14:07:59Z</time>
</trkpt>
<trkpt lat="49.74335856735706" lon="9.476646361872554">
<ele>321.6</ele>
<time>2024-05-11T14:08:00Z</time>
</trkpt>
<trkpt lat="49.743335684761405" lon="9.476598668843508">
<ele>321.6</ele>
<time>2024-05-11T14:08:01Z</time>
</trkpt>
<trkpt lat="49.74330894649029" lon="9.476546281948686">
<ele>321.6</ele>
<time>2024-05-11T14:08:02Z</time>
</trkpt>
<trkpt lat="49.74328606389463" lon="9.476499510928988">
<ele>321.4</ele>
<time>2024-05-11T14:08:03Z</time>
</trkpt>
<trkpt lat="49.74326318129897" lon="9.476453745737672">
<ele>321.4</ele>
<time>2024-05-11T14:08:04Z</time>
</trkpt>
<trkpt lat="49.74324029870331" lon="9.476403202861547">
<ele>321.2</ele>
<time>2024-05-11T14:08:05Z</time>
</trkpt>
<trkpt lat="49.743217416107655" lon="9.476349810138345">
<ele>321.2</ele>
<time>2024-05-11T14:08:06Z</time>
</trkpt>
<trkpt lat="49.743194533512" lon="9.47630018927157">
<ele>321.2</ele>
<time>2024-05-11T14:08:07Z</time>
</trkpt>
<trkpt lat="49.74317165091634" lon="9.476248724386096">
<ele>321.4</ele>
<time>2024-05-11T14:08:08Z</time>
</trkpt>
<trkpt lat="49.74314491264522" lon="9.476189548149703">
<ele>321.4</ele>
<time>2024-05-11T14:08:09Z</time>
</trkpt>
<trkpt lat="49.743118258193135" lon="9.476133305579424">
<ele>321.4</ele>
<time>2024-05-11T14:08:10Z</time>
</trkpt>
<trkpt lat="49.74309537559748" lon="9.476077063009145">
<ele>321.4</ele>
<time>2024-05-11T14:08:11Z</time>
</trkpt>
<trkpt lat="49.743076264858246" lon="9.47602367028594">
<ele>321.4</ele>
<time>2024-05-11T14:08:12Z</time>
</trkpt>
<trkpt lat="49.74305338226259" lon="9.475971199572086">
<ele>321.4</ele>
<time>2024-05-11T14:08:13Z</time>
</trkpt>
<trkpt lat="49.74303435534239" lon="9.47592350654304">
<ele>321.6</ele>
<time>2024-05-11T14:08:14Z</time>
</trkpt>
<trkpt lat="49.74301147274673" lon="9.475874891504644">
<ele>321.6</ele>
<time>2024-05-11T14:08:15Z</time>
</trkpt>
<trkpt lat="49.74298473447561" lon="9.475821414962413">
<ele>321.6</ele>
<time>2024-05-11T14:08:16Z</time>
</trkpt>
<trkpt lat="49.742961851879954" lon="9.47576710022986">
<ele>321.6</ele>
<time>2024-05-11T14:08:17Z</time>
</trkpt>
<trkpt lat="49.742938969284296" lon="9.475714629516006">
<ele>321.6</ele>
<time>2024-05-11T14:08:18Z</time>
</trkpt>
<trkpt lat="49.74291223101318" lon="9.475661236792805">
<ele>321.6</ele>
<time>2024-05-11T14:08:19Z</time>
</trkpt>
<trkpt lat="49.74288934841752" lon="9.47560977190733">
<ele>321.6</ele>
<time>2024-05-11T14:08:20Z</time>
</trkpt>
<trkpt lat="49.742862693965435" lon="9.475558223202825">
<ele>321.6</ele>
<time>2024-05-11T14:08:21Z</time>
</trkpt>
<trkpt lat="49.74284358322621" lon="9.475502902641892">
<ele>321.6</ele>
<time>2024-05-11T14:08:22Z</time>
</trkpt>
<trkpt lat="49.74282447248697" lon="9.475446660071611">
<ele>321.8</ele>
<time>2024-05-11T14:08:23Z</time>
</trkpt>
<trkpt lat="49.742801589891315" lon="9.475393267348409">
<ele>321.8</ele>
<time>2024-05-11T14:08:24Z</time>
</trkpt>
<trkpt lat="49.742778707295656" lon="9.475337024778128">
<ele>322</ele>
<time>2024-05-11T14:08:25Z</time>
</trkpt>
<trkpt lat="49.74276345223189" lon="9.475286481902003">
<ele>322</ele>
<time>2024-05-11T14:08:26Z</time>
</trkpt>
<trkpt lat="49.742744425311685" lon="9.475238788872955">
<ele>322.2</ele>
<time>2024-05-11T14:08:27Z</time>
</trkpt>
<trkpt lat="49.74272531457245" lon="9.475188245996833">
<ele>322.2</ele>
<time>2024-05-11T14:08:28Z</time>
</trkpt>
<trkpt lat="49.742706287652254" lon="9.475138625130056">
<ele>322.2</ele>
<time>2024-05-11T14:08:29Z</time>
</trkpt>
<trkpt lat="49.74268340505659" lon="9.475086154416203">
<ele>322.4</ele>
<time>2024-05-11T14:08:30Z</time>
</trkpt>
<trkpt lat="49.74266052246094" lon="9.475040389224889">
<ele>322.4</ele>
<time>2024-05-11T14:08:31Z</time>
</trkpt>
<trkpt lat="49.742645183578134" lon="9.47499370202422">
<ele>322.4</ele>
<time>2024-05-11T14:08:32Z</time>
</trkpt>
<trkpt lat="49.742626156657934" lon="9.474947853013871">
<ele>322.4</ele>
<time>2024-05-11T14:08:33Z</time>
</trkpt>
<trkpt lat="49.7426070459187" lon="9.474904937669637">
<ele>322.4</ele>
<time>2024-05-11T14:08:34Z</time>
</trkpt>
<trkpt lat="49.74259179085493" lon="9.474863028153775">
<ele>322.6</ele>
<time>2024-05-11T14:08:35Z</time>
</trkpt>
<trkpt lat="49.74257653579116" lon="9.47481818497181">
<ele>322.6</ele>
<time>2024-05-11T14:08:36Z</time>
</trkpt>
<trkpt lat="49.74256128072739" lon="9.474773341789842">
<ele>322.6</ele>
<time>2024-05-11T14:08:37Z</time>
</trkpt>
<trkpt lat="49.74254225380719" lon="9.474729504436256">
<ele>322.6</ele>
<time>2024-05-11T14:08:38Z</time>
</trkpt>
<trkpt lat="49.74253077059984" lon="9.474684661254289">
<ele>322.6</ele>
<time>2024-05-11T14:08:39Z</time>
</trkpt>
<trkpt lat="49.74251174367964" lon="9.47463797405362">
<ele>322.6</ele>
<time>2024-05-11T14:08:40Z</time>
</trkpt>
<trkpt lat="49.74249648861587" lon="9.47459690272808">
<ele>322.4</ele>
<time>2024-05-11T14:08:41Z</time>
</trkpt>
<trkpt lat="49.74248114973307" lon="9.474556921049953">
<ele>322.6</ele>
<time>2024-05-11T14:08:42Z</time>
</trkpt>
<trkpt lat="49.74246975034475" lon="9.474514927715065">
<ele>322.6</ele>
<time>2024-05-11T14:08:43Z</time>
</trkpt>
<trkpt lat="49.74245063960552" lon="9.474472012370825">
<ele>322.6</ele>
<time>2024-05-11T14:08:44Z</time>
</trkpt>
<trkpt lat="49.74243924021721" lon="9.474428175017238">
<ele>322.8</ele>
<time>2024-05-11T14:08:45Z</time>
</trkpt>
<trkpt lat="49.74243538454175" lon="9.474374698475003">
<ele>322.8</ele>
<time>2024-05-11T14:08:46Z</time>
</trkpt>
<trkpt lat="49.74243924021721" lon="9.47432323358953">
<ele>322.8</ele>
<time>2024-05-11T14:08:47Z</time>
</trkpt>
<trkpt lat="49.74244301207363" lon="9.47426506318152">
<ele>322.6</ele>
<time>2024-05-11T14:08:48Z</time>
</trkpt>
<trkpt lat="49.742446867749095" lon="9.474209742620587">
<ele>322.8</ele>
<time>2024-05-11T14:08:49Z</time>
</trkpt>
<trkpt lat="49.742446867749095" lon="9.474155344069004">
<ele>322.8</ele>
<time>2024-05-11T14:08:50Z</time>
</trkpt>
<trkpt lat="49.742427757009864" lon="9.474102957174182">
<ele>322.8</ele>
<time>2024-05-11T14:08:51Z</time>
</trkpt>
<trkpt lat="49.742404874414206" lon="9.47404956445098">
<ele>322.6</ele>
<time>2024-05-11T14:08:52Z</time>
</trkpt>
<trkpt lat="49.74237821996212" lon="9.473998015746474">
<ele>322.6</ele>
<time>2024-05-11T14:08:53Z</time>
</trkpt>
<trkpt lat="49.74235910922289" lon="9.473943701013924">
<ele>322.6</ele>
<time>2024-05-11T14:08:54Z</time>
</trkpt>
<trkpt lat="49.74233622662723" lon="9.473883602768185">
<ele>322.6</ele>
<time>2024-05-11T14:08:55Z</time>
</trkpt>
<trkpt lat="49.74231334403157" lon="9.473821576684712">
<ele>322.8</ele>
<time>2024-05-11T14:08:56Z</time>
</trkpt>
<trkpt lat="49.742290461435914" lon="9.473756784573196">
<ele>322.8</ele>
<time>2024-05-11T14:08:57Z</time>
</trkpt>
<trkpt lat="49.74227135069668" lon="9.473685203120112">
<ele>322.8</ele>
<time>2024-05-11T14:08:58Z</time>
</trkpt>
<trkpt lat="49.74225609563291" lon="9.47361177764833">
<ele>323</ele>
<time>2024-05-11T14:08:59Z</time>
</trkpt>
<trkpt lat="49.74223321303725" lon="9.473540280014277">
<ele>323.2</ele>
<time>2024-05-11T14:09:00Z</time>
</trkpt>
<trkpt lat="49.74222181364894" lon="9.473468698561192">
<ele>323.2</ele>
<time>2024-05-11T14:09:01Z</time>
</trkpt>
<trkpt lat="49.74220655858517" lon="9.47339627891779">
<ele>323.2</ele>
<time>2024-05-11T14:09:02Z</time>
</trkpt>
<trkpt lat="49.74219507537782" lon="9.473326625302434">
<ele>323.4</ele>
<time>2024-05-11T14:09:03Z</time>
</trkpt>
<trkpt lat="49.74217982031405" lon="9.47325705550611">
<ele>323.6</ele>
<time>2024-05-11T14:09:04Z</time>
</trkpt>
<trkpt lat="49.742168420925736" lon="9.473190251737831">
<ele>323.8</ele>
<time>2024-05-11T14:09:05Z</time>
</trkpt>
<trkpt lat="49.74215693771839" lon="9.473121603950858">
<ele>324</ele>
<time>2024-05-11T14:09:06Z</time>
</trkpt>
<trkpt lat="49.74214168265462" lon="9.47305672802031">
<ele>324</ele>
<time>2024-05-11T14:09:07Z</time>
</trkpt>
<trkpt lat="49.74212642759085" lon="9.472992857918143">
<ele>324.2</ele>
<time>2024-05-11T14:09:08Z</time>
</trkpt>
<trkpt lat="49.7421149443835" lon="9.472929909825323">
<ele>324.4</ele>
<time>2024-05-11T14:09:09Z</time>
</trkpt>
<trkpt lat="49.74210354499519" lon="9.472866961732509">
<ele>324.6</ele>
<time>2024-05-11T14:09:10Z</time>
</trkpt>
<trkpt lat="49.74209206178784" lon="9.47280309163034">
<ele>324.8</ele>
<time>2024-05-11T14:09:11Z</time>
</trkpt>
<trkpt lat="49.74207680672407" lon="9.47274014353752">
<ele>325</ele>
<time>2024-05-11T14:09:12Z</time>
</trkpt>
<trkpt lat="49.74206540733576" lon="9.472678117454052">
<ele>325.2</ele>
<time>2024-05-11T14:09:13Z</time>
</trkpt>
<trkpt lat="49.74205392412841" lon="9.472615169361234">
<ele>325.4</ele>
<time>2024-05-11T14:09:14Z</time>
</trkpt>
<trkpt lat="49.74203866906464" lon="9.472551299259068">
<ele>325.4</ele>
<time>2024-05-11T14:09:15Z</time>
</trkpt>
<trkpt lat="49.74202341400087" lon="9.47248642332852">
<ele>325.4</ele>
<time>2024-05-11T14:09:16Z</time>
</trkpt>
<trkpt lat="49.7420081589371" lon="9.4724234752357">
<ele>325.6</ele>
<time>2024-05-11T14:09:17Z</time>
</trkpt>
<trkpt lat="49.74199675954878" lon="9.472358683124185">
<ele>325.6</ele>
<time>2024-05-11T14:09:18Z</time>
</trkpt>
<trkpt lat="49.74197764880955" lon="9.472292885184288">
<ele>325.6</ele>
<time>2024-05-11T14:09:19Z</time>
</trkpt>
<trkpt lat="49.74196239374578" lon="9.4722318649292">
<ele>325.6</ele>
<time>2024-05-11T14:09:20Z</time>
</trkpt>
<trkpt lat="49.741950910538435" lon="9.472167911008">
<ele>325.8</ele>
<time>2024-05-11T14:09:21Z</time>
</trkpt>
<trkpt lat="49.74193565547466" lon="9.472106890752912">
<ele>326</ele>
<time>2024-05-11T14:09:22Z</time>
</trkpt>
<trkpt lat="49.74191662855446" lon="9.472044864669442">
<ele>325.8</ele>
<time>2024-05-11T14:09:23Z</time>
</trkpt>
<trkpt lat="49.74190137349069" lon="9.471984850242734">
<ele>326</ele>
<time>2024-05-11T14:09:24Z</time>
</trkpt>
<trkpt lat="49.74188611842692" lon="9.471924751996994">
<ele>326</ele>
<time>2024-05-11T14:09:25Z</time>
</trkpt>
<trkpt lat="49.74186700768769" lon="9.471866581588984">
<ele>325.8</ele>
<time>2024-05-11T14:09:26Z</time>
</trkpt>
<trkpt lat="49.74184798076749" lon="9.471806483343244">
<ele>325.8</ele>
<time>2024-05-11T14:09:27Z</time>
</trkpt>
<trkpt lat="49.74182509817183" lon="9.471746385097504">
<ele>326</ele>
<time>2024-05-11T14:09:28Z</time>
</trkpt>
<trkpt lat="49.74180221557617" lon="9.471686286851764">
<ele>326</ele>
<time>2024-05-11T14:09:29Z</time>
</trkpt>
<trkpt lat="49.74178310483694" lon="9.471630044281484">
<ele>326</ele>
<time>2024-05-11T14:09:30Z</time>
</trkpt>
<trkpt lat="49.74176022224128" lon="9.471571873873472">
<ele>326.2</ele>
<time>2024-05-11T14:09:31Z</time>
</trkpt>
<trkpt lat="49.74174111150205" lon="9.47151655331254">
<ele>326.2</ele>
<time>2024-05-11T14:09:32Z</time>
</trkpt>
<trkpt lat="49.74171822890639" lon="9.471461232751608">
<ele>326.2</ele>
<time>2024-05-11T14:09:33Z</time>
</trkpt>
<trkpt lat="49.74169157445431" lon="9.471407840028403">
<ele>326.2</ele>
<time>2024-05-11T14:09:34Z</time>
</trkpt>
<trkpt lat="49.74166483618319" lon="9.471353525295854">
<ele>326</ele>
<time>2024-05-11T14:09:35Z</time>
</trkpt>
<trkpt lat="49.74164195358753" lon="9.47129820473492">
<ele>326</ele>
<time>2024-05-11T14:09:36Z</time>
</trkpt>
<trkpt lat="49.741615215316415" lon="9.47124288417399">
<ele>325.8</ele>
<time>2024-05-11T14:09:37Z</time>
</trkpt>
<trkpt lat="49.741596188396215" lon="9.471193263307214">
<ele>325.8</ele>
<time>2024-05-11T14:09:38Z</time>
</trkpt>
<trkpt lat="49.74157330580056" lon="9.47114179842174">
<ele>325.8</ele>
<time>2024-05-11T14:09:39Z</time>
</trkpt>
<trkpt lat="49.7415504232049" lon="9.471088405698538">
<ele>325.8</ele>
<time>2024-05-11T14:09:40Z</time>
</trkpt>
<trkpt lat="49.74153131246567" lon="9.471036856994033">
<ele>325.6</ele>
<time>2024-05-11T14:09:41Z</time>
</trkpt>
<trkpt lat="49.74150465801358" lon="9.47098346427083">
<ele>325.8</ele>
<time>2024-05-11T14:09:42Z</time>
</trkpt>
<trkpt lat="49.74148177541792" lon="9.470930071547627">
<ele>325.8</ele>
<time>2024-05-11T14:09:43Z</time>
</trkpt>
<trkpt lat="49.741458892822266" lon="9.470872823148966">
<ele>325.8</ele>
<time>2024-05-11T14:09:44Z</time>
</trkpt>
<trkpt lat="49.741435926407576" lon="9.470820352435112">
<ele>326</ele>
<time>2024-05-11T14:09:45Z</time>
</trkpt>
<trkpt lat="49.74141304381192" lon="9.47076695971191">
<ele>326</ele>
<time>2024-05-11T14:09:46Z</time>
</trkpt>
<trkpt lat="49.74138253368437" lon="9.470714488998055">
<ele>326</ele>
<time>2024-05-11T14:09:47Z</time>
</trkpt>
<trkpt lat="49.741359651088715" lon="9.470664951950312">
<ele>326</ele>
<time>2024-05-11T14:09:48Z</time>
</trkpt>
<trkpt lat="49.74133299663663" lon="9.470615331083536">
<ele>326</ele>
<time>2024-05-11T14:09:49Z</time>
</trkpt>
<trkpt lat="49.74131011404097" lon="9.47056671604514">
<ele>326</ele>
<time>2024-05-11T14:09:50Z</time>
</trkpt>
<trkpt lat="49.74128723144531" lon="9.470518101006746">
<ele>326</ele>
<time>2024-05-11T14:09:51Z</time>
</trkpt>
<trkpt lat="49.74126812070608" lon="9.4704704079777">
<ele>325.8</ele>
<time>2024-05-11T14:09:52Z</time>
</trkpt>
<trkpt lat="49.74124523811042" lon="9.470417015254498">
<ele>325.8</ele>
<time>2024-05-11T14:09:53Z</time>
</trkpt>
<trkpt lat="49.741222355514765" lon="9.470363538712265">
<ele>326</ele>
<time>2024-05-11T14:09:54Z</time>
</trkpt>
<trkpt lat="49.74119561724365" lon="9.470306374132631">
<ele>326</ele>
<time>2024-05-11T14:09:55Z</time>
</trkpt>
<trkpt lat="49.74116896279156" lon="9.47025298140943">
<ele>326.2</ele>
<time>2024-05-11T14:09:56Z</time>
</trkpt>
<trkpt lat="49.741142224520445" lon="9.470201432704926">
<ele>326.4</ele>
<time>2024-05-11T14:09:57Z</time>
</trkpt>
<trkpt lat="49.741123197600245" lon="9.470151895657182">
<ele>326.6</ele>
<time>2024-05-11T14:09:58Z</time>
</trkpt>
<trkpt lat="49.741104086861014" lon="9.470103196799757">
<ele>326.6</ele>
<time>2024-05-11T14:09:59Z</time>
</trkpt>
<trkpt lat="49.74108120426536" lon="9.470049804076552">
<ele>326.6</ele>
<time>2024-05-11T14:10:00Z</time>
</trkpt>
<trkpt lat="49.7410583216697" lon="9.46999833919108">
<ele>326.8</ele>
<time>2024-05-11T14:10:01Z</time>
</trkpt>
<trkpt lat="49.74103921093047" lon="9.469948718324304">
<ele>326.8</ele>
<time>2024-05-11T14:10:02Z</time>
</trkpt>
<trkpt lat="49.74102018401027" lon="9.46989624761045">
<ele>326.8</ele>
<time>2024-05-11T14:10:03Z</time>
</trkpt>
<trkpt lat="49.74099730141461" lon="9.469844782724977">
<ele>326.8</ele>
<time>2024-05-11T14:10:04Z</time>
</trkpt>
<trkpt lat="49.74097819067538" lon="9.469791390001774">
<ele>326.8</ele>
<time>2024-05-11T14:10:05Z</time>
</trkpt>
<trkpt lat="49.740962935611606" lon="9.46973699145019">
<ele>327</ele>
<time>2024-05-11T14:10:06Z</time>
</trkpt>
<trkpt lat="49.74094768054783" lon="9.46967982687056">
<ele>327</ele>
<time>2024-05-11T14:10:07Z</time>
</trkpt>
<trkpt lat="49.74093242548406" lon="9.469625428318976">
<ele>327</ele>
<time>2024-05-11T14:10:08Z</time>
</trkpt>
<trkpt lat="49.74091331474483" lon="9.469566335901618">
<ele>327</ele>
<time>2024-05-11T14:10:09Z</time>
</trkpt>
<trkpt lat="49.74089805968106" lon="9.469506237655878">
<ele>327.2</ele>
<time>2024-05-11T14:10:10Z</time>
</trkpt>
<trkpt lat="49.740882804617286" lon="9.469448067247868">
<ele>327.2</ele>
<time>2024-05-11T14:10:11Z</time>
</trkpt>
<trkpt lat="49.740863777697086" lon="9.469389896839855">
<ele>327.4</ele>
<time>2024-05-11T14:10:12Z</time>
</trkpt>
<trkpt lat="49.740848522633314" lon="9.469327870756388">
<ele>327.4</ele>
<time>2024-05-11T14:10:13Z</time>
</trkpt>
<trkpt lat="49.740825640037656" lon="9.469268778339028">
<ele>327.4</ele>
<time>2024-05-11T14:10:14Z</time>
</trkpt>
<trkpt lat="49.74081038497389" lon="9.469215385615826">
<ele>327.4</ele>
<time>2024-05-11T14:10:15Z</time>
</trkpt>
<trkpt lat="49.74079512991011" lon="9.4691648427397">
<ele>327.4</ele>
<time>2024-05-11T14:10:16Z</time>
</trkpt>
<trkpt lat="49.74077987484634" lon="9.469119999557734">
<ele>327.4</ele>
<time>2024-05-11T14:10:17Z</time>
</trkpt>
<trkpt lat="49.740768391638994" lon="9.46907138451934">
<ele>327.4</ele>
<time>2024-05-11T14:10:18Z</time>
</trkpt>
<trkpt lat="49.74075690843165" lon="9.469023691490293">
<ele>327.4</ele>
<time>2024-05-11T14:10:19Z</time>
</trkpt>
<trkpt lat="49.74074928089976" lon="9.468976920470595">
<ele>327.4</ele>
<time>2024-05-11T14:10:20Z</time>
</trkpt>
<trkpt lat="49.74074165336788" lon="9.468923527747393">
<ele>327.4</ele>
<time>2024-05-11T14:10:21Z</time>
</trkpt>
<trkpt lat="49.74073025397957" lon="9.468861501663923">
<ele>327.4</ele>
<time>2024-05-11T14:10:22Z</time>
</trkpt>
<trkpt lat="49.74073788151145" lon="9.468799559399486">
<ele>327.4</ele>
<time>2024-05-11T14:10:23Z</time>
</trkpt>
<trkpt lat="49.740745509043336" lon="9.468741388991477">
<ele>327.6</ele>
<time>2024-05-11T14:10:24Z</time>
</trkpt>
<trkpt lat="49.74075313657522" lon="9.468683218583465">
<ele>327.6</ele>
<time>2024-05-11T14:10:25Z</time>
</trkpt>
<trkpt lat="49.740764535963535" lon="9.46863166987896">
<ele>327.6</ele>
<time>2024-05-11T14:10:26Z</time>
</trkpt>
<trkpt lat="49.740768391638994" lon="9.468583054840565">
<ele>327.6</ele>
<time>2024-05-11T14:10:27Z</time>
</trkpt>
<trkpt lat="49.74077224731445" lon="9.468546845018864">
<ele>327.6</ele>
<time>2024-05-11T14:10:28Z</time>
</trkpt>
<trkpt lat="49.74077224731445" lon="9.468509629368782">
<ele>327.6</ele>
<time>2024-05-11T14:10:29Z</time>
</trkpt>
<trkpt lat="49.74077601917088" lon="9.468471491709352">
<ele>327.6</ele>
<time>2024-05-11T14:10:30Z</time>
</trkpt>
<trkpt lat="49.74077224731445" lon="9.468438131734729">
<ele>327.6</ele>
<time>2024-05-11T14:10:31Z</time>
</trkpt>
<trkpt lat="49.740768391638994" lon="9.468406615778804">
<ele>327.6</ele>
<time>2024-05-11T14:10:32Z</time>
</trkpt>
<trkpt lat="49.74076076410711" lon="9.46837711147964">
<ele>327.6</ele>
<time>2024-05-11T14:10:33Z</time>
</trkpt>
<trkpt lat="49.74074928089976" lon="9.468346517533064">
<ele>327.6</ele>
<time>2024-05-11T14:10:34Z</time>
</trkpt>
<trkpt lat="49.74073788151145" lon="9.46831508539617">
<ele>327.6</ele>
<time>2024-05-11T14:10:35Z</time>
</trkpt>
<trkpt lat="49.740726398304105" lon="9.468281725421548">
<ele>327.4</ele>
<time>2024-05-11T14:10:36Z</time>
</trkpt>
<trkpt lat="49.74071114324033" lon="9.4682530593127">
<ele>327.2</ele>
<time>2024-05-11T14:10:37Z</time>
</trkpt>
<trkpt lat="49.74069588817656" lon="9.468228332698343">
<ele>327</ele>
<time>2024-05-11T14:10:38Z</time>
</trkpt>
<trkpt lat="49.74067686125636" lon="9.468212071806192">
<ele>327</ele>
<time>2024-05-11T14:10:39Z</time>
</trkpt>
<trkpt lat="49.74066160619259" lon="9.46819488890469">
<ele>326.8</ele>
<time>2024-05-11T14:10:40Z</time>
</trkpt>
<trkpt lat="49.74065012298525" lon="9.468173012137411">
<ele>326.8</ele>
<time>2024-05-11T14:10:41Z</time>
</trkpt>
<trkpt lat="49.74063109606504" lon="9.468143424019216">
<ele>326.8</ele>
<time>2024-05-11T14:10:42Z</time>
</trkpt>
<trkpt lat="49.740608213469386" lon="9.468108136206864">
<ele>326.6</ele>
<time>2024-05-11T14:10:43Z</time>
</trkpt>
<trkpt lat="49.74057761952281" lon="9.468071926385164">
<ele>326.6</ele>
<time>2024-05-11T14:10:44Z</time>
</trkpt>
<trkpt lat="49.74054333753884" lon="9.468043260276318">
<ele>326.4</ele>
<time>2024-05-11T14:10:45Z</time>
</trkpt>
<trkpt lat="49.74050519987941" lon="9.468011828139424">
<ele>326.2</ele>
<time>2024-05-11T14:10:46Z</time>
</trkpt>
<trkpt lat="49.74046706221998" lon="9.467978468164802">
<ele>326</ele>
<time>2024-05-11T14:10:47Z</time>
</trkpt>
<trkpt lat="49.740432696416974" lon="9.467945024371147">
<ele>325.8</ele>
<time>2024-05-11T14:10:48Z</time>
</trkpt>
<trkpt lat="49.74039833061397" lon="9.467906886711717">
<ele>325.6</ele>
<time>2024-05-11T14:10:49Z</time>
</trkpt>
<trkpt lat="49.740367820486426" lon="9.4678611215204">
<ele>325.6</ele>
<time>2024-05-11T14:10:50Z</time>
</trkpt>
<trkpt lat="49.74034116603434" lon="9.467806806787848">
<ele>325.6</ele>
<time>2024-05-11T14:10:51Z</time>
</trkpt>
<trkpt lat="49.74031828343868" lon="9.467753330245614">
<ele>325.6</ele>
<time>2024-05-11T14:10:52Z</time>
</trkpt>
<trkpt lat="49.740291545167565" lon="9.467697087675331">
<ele>325.6</ele>
<time>2024-05-11T14:10:53Z</time>
</trkpt>
<trkpt lat="49.74026489071548" lon="9.467636989429591">
<ele>325.8</ele>
<time>2024-05-11T14:10:54Z</time>
</trkpt>
<trkpt lat="49.74024192430079" lon="9.467575047165155">
<ele>325.8</ele>
<time>2024-05-11T14:10:55Z</time>
</trkpt>
<trkpt lat="49.74021904170513" lon="9.467512099072335">
<ele>325.6</ele>
<time>2024-05-11T14:10:56Z</time>
</trkpt>
<trkpt lat="49.74020001478493" lon="9.46744822897017">
<ele>325.4</ele>
<time>2024-05-11T14:10:57Z</time>
</trkpt>
<trkpt lat="49.7401809040457" lon="9.4673862028867">
<ele>325.4</ele>
<time>2024-05-11T14:10:58Z</time>
</trkpt>
<trkpt lat="49.74015802145004" lon="9.467323254793882">
<ele>325.4</ele>
<time>2024-05-11T14:10:59Z</time>
</trkpt>
<trkpt lat="49.740135138854384" lon="9.467256534844635">
<ele>325.6</ele>
<time>2024-05-11T14:11:00Z</time>
</trkpt>
<trkpt lat="49.740112256258726" lon="9.467196436598895">
<ele>325.6</ele>
<time>2024-05-11T14:11:01Z</time>
</trkpt>
<trkpt lat="49.74008560180664" lon="9.467135416343808">
<ele>325.6</ele>
<time>2024-05-11T14:11:02Z</time>
</trkpt>
<trkpt lat="49.74006263539195" lon="9.46707339026034">
<ele>325.6</ele>
<time>2024-05-11T14:11:03Z</time>
</trkpt>
<trkpt lat="49.740035980939865" lon="9.4670114479959">
<ele>325.6</ele>
<time>2024-05-11T14:11:04Z</time>
</trkpt>
<trkpt lat="49.74001309834421" lon="9.46695034392178">
<ele>325.6</ele>
<time>2024-05-11T14:11:05Z</time>
</trkpt>
<trkpt lat="49.73998636007309" lon="9.466888401657345">
<ele>325.8</ele>
<time>2024-05-11T14:11:06Z</time>
</trkpt>
<trkpt lat="49.73996347747743" lon="9.466828303411605">
<ele>325.8</ele>
<time>2024-05-11T14:11:07Z</time>
</trkpt>
<trkpt lat="49.739936823025346" lon="9.466770133003592">
<ele>326</ele>
<time>2024-05-11T14:11:08Z</time>
</trkpt>
<trkpt lat="49.73991008475423" lon="9.466711962595582">
<ele>326</ele>
<time>2024-05-11T14:11:09Z</time>
</trkpt>
<trkpt lat="49.73988720215857" lon="9.46665471419692">
<ele>326.2</ele>
<time>2024-05-11T14:11:10Z</time>
</trkpt>
<trkpt lat="49.73986431956291" lon="9.46659847162664">
<ele>326.2</ele>
<time>2024-05-11T14:11:11Z</time>
</trkpt>
<trkpt lat="49.739837581291795" lon="9.466547006741166">
<ele>326.2</ele>
<time>2024-05-11T14:11:12Z</time>
</trkpt>
<trkpt lat="49.73981469869614" lon="9.466494536027312">
<ele>326.4</ele>
<time>2024-05-11T14:11:13Z</time>
</trkpt>
<trkpt lat="49.73979181610048" lon="9.466440137475727">
<ele>326.4</ele>
<time>2024-05-11T14:11:14Z</time>
</trkpt>
<trkpt lat="49.73976893350482" lon="9.466386744752526">
<ele>326.6</ele>
<time>2024-05-11T14:11:15Z</time>
</trkpt>
<trkpt lat="49.739742279052734" lon="9.466329496353865">
<ele>326.6</ele>
<time>2024-05-11T14:11:16Z</time>
</trkpt>
<trkpt lat="49.73971931263805" lon="9.466273253783584">
<ele>326.6</ele>
<time>2024-05-11T14:11:17Z</time>
</trkpt>
<trkpt lat="49.739696430042386" lon="9.466211311519146">
<ele>326.6</ele>
<time>2024-05-11T14:11:18Z</time>
</trkpt>
<trkpt lat="49.7396697755903" lon="9.466150207445024">
<ele>326.6</ele>
<time>2024-05-11T14:11:19Z</time>
</trkpt>
<trkpt lat="49.73964303731918" lon="9.466086337342858">
<ele>326.6</ele>
<time>2024-05-11T14:11:20Z</time>
</trkpt>
<trkpt lat="49.7396163828671" lon="9.46602531708777">
<ele>326.6</ele>
<time>2024-05-11T14:11:21Z</time>
</trkpt>
<trkpt lat="49.73958587273955" lon="9.4659632910043">
<ele>326.4</ele>
<time>2024-05-11T14:11:22Z</time>
</trkpt>
<trkpt lat="49.73955913446843" lon="9.465901348739862">
<ele>326.2</ele>
<time>2024-05-11T14:11:23Z</time>
</trkpt>
<trkpt lat="49.73953239619732" lon="9.465840328484774">
<ele>326.2</ele>
<time>2024-05-11T14:11:24Z</time>
</trkpt>
<trkpt lat="49.739501886069775" lon="9.465776374563577">
<ele>326</ele>
<time>2024-05-11T14:11:25Z</time>
</trkpt>
<trkpt lat="49.73947523161769" lon="9.465715354308486">
<ele>326</ele>
<time>2024-05-11T14:11:26Z</time>
</trkpt>
<trkpt lat="49.739444721490145" lon="9.465653412044048">
<ele>325.8</ele>
<time>2024-05-11T14:11:27Z</time>
</trkpt>
<trkpt lat="49.7394142113626" lon="9.46558945812285">
<ele>325.8</ele>
<time>2024-05-11T14:11:28Z</time>
</trkpt>
<trkpt lat="49.73938747309148" lon="9.46553036570549">
<ele>325.8</ele>
<time>2024-05-11T14:11:29Z</time>
</trkpt>
<trkpt lat="49.73935696296394" lon="9.4654711894691">
<ele>325.6</ele>
<time>2024-05-11T14:11:30Z</time>
</trkpt>
<trkpt lat="49.739326452836394" lon="9.465413019061089">
<ele>325.6</ele>
<time>2024-05-11T14:11:31Z</time>
</trkpt>
<trkpt lat="49.739303570240736" lon="9.465358704328535">
<ele>325.6</ele>
<time>2024-05-11T14:11:32Z</time>
</trkpt>
<trkpt lat="49.73927306011319" lon="9.465303383767605">
<ele>325.6</ele>
<time>2024-05-11T14:11:33Z</time>
</trkpt>
<trkpt lat="49.739246321842074" lon="9.465249991044402">
<ele>325.6</ele>
<time>2024-05-11T14:11:34Z</time>
</trkpt>
<trkpt lat="49.73921958357096" lon="9.4651965983212">
<ele>325.4</ele>
<time>2024-05-11T14:11:35Z</time>
</trkpt>
<trkpt lat="49.73919292911887" lon="9.465145049616694">
<ele>325.4</ele>
<time>2024-05-11T14:11:36Z</time>
</trkpt>
<trkpt lat="49.739166190847754" lon="9.465091656893492">
<ele>325.4</ele>
<time>2024-05-11T14:11:37Z</time>
</trkpt>
<trkpt lat="49.739143308252096" lon="9.465042036026716">
<ele>325.4</ele>
<time>2024-05-11T14:11:38Z</time>
</trkpt>
<trkpt lat="49.73911279812455" lon="9.46499534882605">
<ele>325.4</ele>
<time>2024-05-11T14:11:39Z</time>
</trkpt>
<trkpt lat="49.739086143672466" lon="9.464946733787656">
<ele>325.4</ele>
<time>2024-05-11T14:11:40Z</time>
</trkpt>
<trkpt lat="49.73905563354492" lon="9.464893341064451">
<ele>325.4</ele>
<time>2024-05-11T14:11:41Z</time>
</trkpt>
<trkpt lat="49.739028895273805" lon="9.46483701467514">
<ele>325.4</ele>
<time>2024-05-11T14:11:42Z</time>
</trkpt>
<trkpt lat="49.73899838514626" lon="9.46477792225778">
<ele>325.4</ele>
<time>2024-05-11T14:11:43Z</time>
</trkpt>
<trkpt lat="49.73896787501872" lon="9.46471782401204">
<ele>325.6</ele>
<time>2024-05-11T14:11:44Z</time>
</trkpt>
<trkpt lat="49.73893350921571" lon="9.46465965360403">
<ele>325.6</ele>
<time>2024-05-11T14:11:45Z</time>
</trkpt>
<trkpt lat="49.73889922723174" lon="9.464598633348942">
<ele>325.4</ele>
<time>2024-05-11T14:11:46Z</time>
</trkpt>
<trkpt lat="49.73886486142874" lon="9.464536607265472">
<ele>325.4</ele>
<time>2024-05-11T14:11:47Z</time>
</trkpt>
<trkpt lat="49.738830495625734" lon="9.464474665001037">
<ele>325.4</ele>
<time>2024-05-11T14:11:48Z</time>
</trkpt>
<trkpt lat="49.738792357966304" lon="9.464413560926914">
<ele>325.4</ele>
<time>2024-05-11T14:11:49Z</time>
</trkpt>
<trkpt lat="49.73875807598233" lon="9.464351618662477">
<ele>325.4</ele>
<time>2024-05-11T14:11:50Z</time>
</trkpt>
<trkpt lat="49.7387199383229" lon="9.464289592579007">
<ele>325.4</ele>
<time>2024-05-11T14:11:51Z</time>
</trkpt>
<trkpt lat="49.73868171684444" lon="9.464236199855804">
<ele>325.2</ele>
<time>2024-05-11T14:11:52Z</time>
</trkpt>
<trkpt lat="49.73864357918501" lon="9.46418372914195">
<ele>325.2</ele>
<time>2024-05-11T14:11:53Z</time>
</trkpt>
<trkpt lat="49.73860929720104" lon="9.464130336418748">
<ele>325.2</ele>
<time>2024-05-11T14:11:54Z</time>
</trkpt>
<trkpt lat="49.738574931398034" lon="9.464079793542624">
<ele>325</ele>
<time>2024-05-11T14:11:55Z</time>
</trkpt>
<trkpt lat="49.73854064941406" lon="9.46402832865715">
<ele>325</ele>
<time>2024-05-11T14:11:56Z</time>
</trkpt>
<trkpt lat="49.73850628361106" lon="9.463976779952644">
<ele>325</ele>
<time>2024-05-11T14:11:57Z</time>
</trkpt>
<trkpt lat="49.738475773483515" lon="9.463925315067172">
<ele>324.8</ele>
<time>2024-05-11T14:11:58Z</time>
</trkpt>
<trkpt lat="49.73844140768051" lon="9.463872844353318">
<ele>324.8</ele>
<time>2024-05-11T14:11:59Z</time>
</trkpt>
<trkpt lat="49.738414753228426" lon="9.463821379467843">
<ele>324.8</ele>
<time>2024-05-11T14:12:00Z</time>
</trkpt>
<trkpt lat="49.73838801495731" lon="9.46377175860107">
<ele>324.8</ele>
<time>2024-05-11T14:12:01Z</time>
</trkpt>
<trkpt lat="49.73835750482976" lon="9.463721215724943">
<ele>324.8</ele>
<time>2024-05-11T14:12:02Z</time>
</trkpt>
<trkpt lat="49.73833076655865" lon="9.4636716786772">
<ele>324.8</ele>
<time>2024-05-11T14:12:03Z</time>
</trkpt>
<trkpt lat="49.7383002564311" lon="9.463620129972696">
<ele>324.8</ele>
<time>2024-05-11T14:12:04Z</time>
</trkpt>
<trkpt lat="49.73827360197902" lon="9.463564809411764">
<ele>324.6</ele>
<time>2024-05-11T14:12:05Z</time>
</trkpt>
<trkpt lat="49.7382468637079" lon="9.463506639003754">
<ele>324.6</ele>
<time>2024-05-11T14:12:06Z</time>
</trkpt>
<trkpt lat="49.73822398111224" lon="9.463446540758014">
<ele>324.6</ele>
<time>2024-05-11T14:12:07Z</time>
</trkpt>
<trkpt lat="49.73819732666016" lon="9.463383592665195">
<ele>324.6</ele>
<time>2024-05-11T14:12:08Z</time>
</trkpt>
<trkpt lat="49.73817058838904" lon="9.463321650400758">
<ele>324.6</ele>
<time>2024-05-11T14:12:09Z</time>
</trkpt>
<trkpt lat="49.73814385011792" lon="9.46325870230794">
<ele>324.6</ele>
<time>2024-05-11T14:12:10Z</time>
</trkpt>
<trkpt lat="49.73811719566584" lon="9.463192904368045">
<ele>324.6</ele>
<time>2024-05-11T14:12:11Z</time>
</trkpt>
<trkpt lat="49.73809431307018" lon="9.463125178590415">
<ele>324.4</ele>
<time>2024-05-11T14:12:12Z</time>
</trkpt>
<trkpt lat="49.73806757479906" lon="9.463053680956364">
<ele>324.4</ele>
<time>2024-05-11T14:12:13Z</time>
</trkpt>
<trkpt lat="49.7380446922034" lon="9.46298025548458">
<ele>324.2</ele>
<time>2024-05-11T14:12:14Z</time>
</trkpt>
<trkpt lat="49.738021809607744" lon="9.46290297433734">
<ele>324.2</ele>
<time>2024-05-11T14:12:15Z</time>
</trkpt>
<trkpt lat="49.73800269886851" lon="9.46282192133367">
<ele>324</ele>
<time>2024-05-11T14:12:16Z</time>
</trkpt>
<trkpt lat="49.737983671948314" lon="9.46273986250162">
<ele>324</ele>
<time>2024-05-11T14:12:17Z</time>
</trkpt>
<trkpt lat="49.73797604441643" lon="9.462651181966066">
<ele>324</ele>
<time>2024-05-11T14:12:18Z</time>
</trkpt>
<trkpt lat="49.73796841688454" lon="9.46256635710597">
<ele>323.8</ele>
<time>2024-05-11T14:12:19Z</time>
</trkpt>
<trkpt lat="49.73796456120908" lon="9.462483376264572">
<ele>323.8</ele>
<time>2024-05-11T14:12:20Z</time>
</trkpt>
<trkpt lat="49.737960789352655" lon="9.462405173107982">
<ele>323.8</ele>
<time>2024-05-11T14:12:21Z</time>
</trkpt>
<trkpt lat="49.73795316182077" lon="9.46232789196074">
<ele>323.8</ele>
<time>2024-05-11T14:12:22Z</time>
</trkpt>
<trkpt lat="49.73795316182077" lon="9.462255472317338">
<ele>323.8</ele>
<time>2024-05-11T14:12:23Z</time>
</trkpt>
<trkpt lat="49.73794930614531" lon="9.462186740711331">
<ele>323.6</ele>
<time>2024-05-11T14:12:24Z</time>
</trkpt>
<trkpt lat="49.73794553428888" lon="9.462118092924356">
<ele>323.6</ele>
<time>2024-05-11T14:12:25Z</time>
</trkpt>
<trkpt lat="49.737941678613424" lon="9.462051372975113">
<ele>323.4</ele>
<time>2024-05-11T14:12:26Z</time>
</trkpt>
<trkpt lat="49.737941678613424" lon="9.461986497044563">
<ele>323.2</ele>
<time>2024-05-11T14:12:27Z</time>
</trkpt>
<trkpt lat="49.737941678613424" lon="9.461923548951743">
<ele>323.2</ele>
<time>2024-05-11T14:12:28Z</time>
</trkpt>
<trkpt lat="49.737941678613424" lon="9.461859678849578">
<ele>323</ele>
<time>2024-05-11T14:12:29Z</time>
</trkpt>
<trkpt lat="49.737937906757" lon="9.461798658594487">
<ele>323</ele>
<time>2024-05-11T14:12:30Z</time>
</trkpt>
<trkpt lat="49.73792642354965" lon="9.461741410195827">
<ele>322.8</ele>
<time>2024-05-11T14:12:31Z</time>
</trkpt>
<trkpt lat="49.73790739662945" lon="9.461691789329052">
<ele>322.8</ele>
<time>2024-05-11T14:12:32Z</time>
</trkpt>
<trkpt lat="49.737880658358335" lon="9.461647951975465">
<ele>322.6</ele>
<time>2024-05-11T14:12:33Z</time>
</trkpt>
<trkpt lat="49.73785400390625" lon="9.46161643601954">
<ele>322.6</ele>
<time>2024-05-11T14:12:34Z</time>
</trkpt>
<trkpt lat="49.73782726563513" lon="9.461593553423882">
<ele>322.6</ele>
<time>2024-05-11T14:12:35Z</time>
</trkpt>
<trkpt lat="49.737804383039474" lon="9.46157829836011">
<ele>322.4</ele>
<time>2024-05-11T14:12:36Z</time>
</trkpt>
<trkpt lat="49.737781500443816" lon="9.461564971134068">
<ele>322.2</ele>
<time>2024-05-11T14:12:37Z</time>
</trkpt>
<trkpt lat="49.73775861784816" lon="9.461555415764453">
<ele>322.2</ele>
<time>2024-05-11T14:12:38Z</time>
</trkpt>
<trkpt lat="49.73773950710893" lon="9.461547788232563">
<ele>322</ele>
<time>2024-05-11T14:12:39Z</time>
</trkpt>
<trkpt lat="49.73771662451327" lon="9.461546866223216">
<ele>322</ele>
<time>2024-05-11T14:12:40Z</time>
</trkpt>
<trkpt lat="49.73769759759307" lon="9.461544938385488">
<ele>322</ele>
<time>2024-05-11T14:12:41Z</time>
</trkpt>
<trkpt lat="49.73767848685384" lon="9.46153823286295">
<ele>322</ele>
<time>2024-05-11T14:12:42Z</time>
</trkpt>
<trkpt lat="49.73765560425818" lon="9.461529683321714">
<ele>322</ele>
<time>2024-05-11T14:12:43Z</time>
</trkpt>
<trkpt lat="49.73763649351895" lon="9.4615182839334">
<ele>322</ele>
<time>2024-05-11T14:12:44Z</time>
</trkpt>
<trkpt lat="49.737621238455176" lon="9.461506800726056">
<ele>322</ele>
<time>2024-05-11T14:12:45Z</time>
</trkpt>
<trkpt lat="49.73760983906686" lon="9.461493473500012">
<ele>322</ele>
<time>2024-05-11T14:12:46Z</time>
</trkpt>
<trkpt lat="49.73759835585952" lon="9.461476290598512">
<ele>321.8</ele>
<time>2024-05-11T14:12:47Z</time>
</trkpt>
<trkpt lat="49.73759072832763" lon="9.461451480165124">
<ele>321.8</ele>
<time>2024-05-11T14:12:48Z</time>
</trkpt>
<trkpt lat="49.737583100795746" lon="9.461421892046928">
<ele>321.6</ele>
<time>2024-05-11T14:12:49Z</time>
</trkpt>
<trkpt lat="49.73757932893932" lon="9.461388532072306">
<ele>321.4</ele>
<time>2024-05-11T14:12:50Z</time>
</trkpt>
<trkpt lat="49.737583100795746" lon="9.461343688890338">
<ele>321.2</ele>
<time>2024-05-11T14:12:51Z</time>
</trkpt>
<trkpt lat="49.73759458400309" lon="9.461293146014214">
<ele>321.2</ele>
<time>2024-05-11T14:12:52Z</time>
</trkpt>
<trkpt lat="49.73761361092329" lon="9.46123975329101">
<ele>321</ele>
<time>2024-05-11T14:12:53Z</time>
</trkpt>
<trkpt lat="49.73763272166252" lon="9.46118351072073">
<ele>321</ele>
<time>2024-05-11T14:12:54Z</time>
</trkpt>
<trkpt lat="49.737647976726294" lon="9.46112534031272">
<ele>320.8</ele>
<time>2024-05-11T14:12:55Z</time>
</trkpt>
<trkpt lat="49.737663231790066" lon="9.46106524206698">
<ele>320.8</ele>
<time>2024-05-11T14:12:56Z</time>
</trkpt>
<trkpt lat="49.73767848685384" lon="9.461003299802542">
<ele>320.8</ele>
<time>2024-05-11T14:12:57Z</time>
</trkpt>
<trkpt lat="49.73769374191761" lon="9.460938423871994">
<ele>320.6</ele>
<time>2024-05-11T14:12:58Z</time>
</trkpt>
<trkpt lat="49.73770899698138" lon="9.46086977608502">
<ele>320.6</ele>
<time>2024-05-11T14:12:59Z</time>
</trkpt>
<trkpt lat="49.73772048018873" lon="9.460798194631934">
<ele>320.6</ele>
<time>2024-05-11T14:13:00Z</time>
</trkpt>
<trkpt lat="49.7377357352525" lon="9.460722841322422">
<ele>320.6</ele>
<time>2024-05-11T14:13:01Z</time>
</trkpt>
<trkpt lat="49.73775099031627" lon="9.460651343688369">
<ele>320.4</ele>
<time>2024-05-11T14:13:02Z</time>
</trkpt>
<trkpt lat="49.73777001723647" lon="9.460579846054316">
<ele>320.4</ele>
<time>2024-05-11T14:13:03Z</time>
</trkpt>
<trkpt lat="49.73779675550759" lon="9.46051119826734">
<ele>320.2</ele>
<time>2024-05-11T14:13:04Z</time>
</trkpt>
<trkpt lat="49.737823409959674" lon="9.460446322336791">
<ele>320</ele>
<time>2024-05-11T14:13:05Z</time>
</trkpt>
<trkpt lat="49.73784629255533" lon="9.46037189103663">
<ele>320</ele>
<time>2024-05-11T14:13:06Z</time>
</trkpt>
<trkpt lat="49.737861631438136" lon="9.460285138338804">
<ele>319.8</ele>
<time>2024-05-11T14:13:07Z</time>
</trkpt>
<trkpt lat="49.73787688650191" lon="9.46019452996552">
<ele>319.6</ele>
<time>2024-05-11T14:13:08Z</time>
</trkpt>
<trkpt lat="49.73788828589022" lon="9.460109705105424">
<ele>319.4</ele>
<time>2024-05-11T14:13:09Z</time>
</trkpt>
<trkpt lat="49.73789591342211" lon="9.460028568282723">
<ele>319.2</ele>
<time>2024-05-11T14:13:10Z</time>
</trkpt>
<trkpt lat="49.73790739662945" lon="9.459948521107435">
<ele>318.8</ele>
<time>2024-05-11T14:13:11Z</time>
</trkpt>
<trkpt lat="49.73791502416134" lon="9.459870317950845">
<ele>318.6</ele>
<time>2024-05-11T14:13:12Z</time>
</trkpt>
<trkpt lat="49.737922651693225" lon="9.459790186956525">
<ele>318.2</ele>
<time>2024-05-11T14:13:13Z</time>
</trkpt>
<trkpt lat="49.73792642354965" lon="9.459706284105778">
<ele>317.8</ele>
<time>2024-05-11T14:13:14Z</time>
</trkpt>
<trkpt lat="49.73793405108154" lon="9.45962330326438">
<ele>317.6</ele>
<time>2024-05-11T14:13:15Z</time>
</trkpt>
<trkpt lat="49.737937906757" lon="9.459538394585252">
<ele>317.2</ele>
<time>2024-05-11T14:13:16Z</time>
</trkpt>
<trkpt lat="49.737941678613424" lon="9.459455413743854">
<ele>317</ele>
<time>2024-05-11T14:13:17Z</time>
</trkpt>
<trkpt lat="49.73794553428888" lon="9.459373438730836">
<ele>316.6</ele>
<time>2024-05-11T14:13:18Z</time>
</trkpt>
<trkpt lat="49.73794930614531" lon="9.459293307736516">
<ele>316.4</ele>
<time>2024-05-11T14:13:19Z</time>
</trkpt>
<trkpt lat="49.73795316182077" lon="9.459215104579926">
<ele>316.2</ele>
<time>2024-05-11T14:13:20Z</time>
</trkpt>
<trkpt lat="49.7379569336772" lon="9.459137907251716">
<ele>316</ele>
<time>2024-05-11T14:13:21Z</time>
</trkpt>
<trkpt lat="49.737960789352655" lon="9.459065403789282">
<ele>315.8</ele>
<time>2024-05-11T14:13:23Z</time>
</trkpt>
<trkpt lat="49.73796456120908" lon="9.458927102386951">
<ele>315.4</ele>
<time>2024-05-11T14:13:24Z</time>
</trkpt>
<trkpt lat="49.737960789352655" lon="9.458856526762249">
<ele>315.2</ele>
<time>2024-05-11T14:13:25Z</time>
</trkpt>
<trkpt lat="49.7379569336772" lon="9.458785029128194">
<ele>315.2</ele>
<time>2024-05-11T14:13:26Z</time>
</trkpt>
<trkpt lat="49.73795316182077" lon="9.45871638134122">
<ele>315.2</ele>
<time>2024-05-11T14:13:27Z</time>
</trkpt>
<trkpt lat="49.73794553428888" lon="9.458649577572942">
<ele>315.2</ele>
<time>2024-05-11T14:13:28Z</time>
</trkpt>
<trkpt lat="49.73793405108154" lon="9.458582857623696">
<ele>315.2</ele>
<time>2024-05-11T14:13:29Z</time>
</trkpt>
<trkpt lat="49.73792642354965" lon="9.458521837368608">
<ele>315</ele>
<time>2024-05-11T14:13:30Z</time>
</trkpt>
<trkpt lat="49.737922651693225" lon="9.458461739122868">
<ele>315</ele>
<time>2024-05-11T14:13:31Z</time>
</trkpt>
<trkpt lat="49.737918796017766" lon="9.458401640877128">
<ele>314.8</ele>
<time>2024-05-11T14:13:32Z</time>
</trkpt>
<trkpt lat="49.73791502416134" lon="9.458341542631388">
<ele>314.6</ele>
<time>2024-05-11T14:13:33Z</time>
</trkpt>
<trkpt lat="49.73791502416134" lon="9.458281444385648">
<ele>314.4</ele>
<time>2024-05-11T14:13:34Z</time>
</trkpt>
<trkpt lat="49.73791502416134" lon="9.45821849629283">
<ele>314.4</ele>
<time>2024-05-11T14:13:35Z</time>
</trkpt>
<trkpt lat="49.73791116848588" lon="9.458153704181314">
<ele>314.2</ele>
<time>2024-05-11T14:13:36Z</time>
</trkpt>
<trkpt lat="49.737903540953994" lon="9.45808505639434">
<ele>314</ele>
<time>2024-05-11T14:13:37Z</time>
</trkpt>
<trkpt lat="49.73789976909757" lon="9.458016324788332">
<ele>313.8</ele>
<time>2024-05-11T14:13:38Z</time>
</trkpt>
<trkpt lat="49.73789214156568" lon="9.45794482715428">
<ele>313.6</ele>
<time>2024-05-11T14:13:39Z</time>
</trkpt>
<trkpt lat="49.73788828589022" lon="9.457875173538923">
<ele>313.4</ele>
<time>2024-05-11T14:13:40Z</time>
</trkpt>
<trkpt lat="49.73787688650191" lon="9.457796970382333">
<ele>313.4</ele>
<time>2024-05-11T14:13:41Z</time>
</trkpt>
<trkpt lat="49.737861631438136" lon="9.457716923207045">
<ele>313.4</ele>
<time>2024-05-11T14:13:42Z</time>
</trkpt>
<trkpt lat="49.73785014823079" lon="9.457630086690187">
<ele>313.2</ele>
<time>2024-05-11T14:13:43Z</time>
</trkpt>
<trkpt lat="49.737838665023446" lon="9.457543333992362">
<ele>313.2</ele>
<time>2024-05-11T14:13:44Z</time>
</trkpt>
<trkpt lat="49.73783103749156" lon="9.457458425313234">
<ele>313.2</ele>
<time>2024-05-11T14:13:45Z</time>
</trkpt>
<trkpt lat="49.73781963810325" lon="9.457376450300217">
<ele>313</ele>
<time>2024-05-11T14:13:46Z</time>
</trkpt>
<trkpt lat="49.7378081548959" lon="9.457298247143626">
<ele>313</ele>
<time>2024-05-11T14:13:47Z</time>
</trkpt>
<trkpt lat="49.73779675550759" lon="9.457221971824763">
<ele>312.8</ele>
<time>2024-05-11T14:13:48Z</time>
</trkpt>
<trkpt lat="49.7377891279757" lon="9.457146618515251">
<ele>312.6</ele>
<time>2024-05-11T14:13:49Z</time>
</trkpt>
<trkpt lat="49.73777764476836" lon="9.45707126520574">
<ele>312.4</ele>
<time>2024-05-11T14:13:50Z</time>
</trkpt>
<trkpt lat="49.737762389704585" lon="9.45699691772461">
<ele>312.4</ele>
<time>2024-05-11T14:13:51Z</time>
</trkpt>
<trkpt lat="49.73775099031627" lon="9.456919636577368">
<ele>312.2</ele>
<time>2024-05-11T14:13:52Z</time>
</trkpt>
<trkpt lat="49.73773950710893" lon="9.456846211105583">
<ele>312</ele>
<time>2024-05-11T14:13:53Z</time>
</trkpt>
<trkpt lat="49.73772810772061" lon="9.456771779805422">
<ele>312</ele>
<time>2024-05-11T14:13:54Z</time>
</trkpt>
<trkpt lat="49.73771285265684" lon="9.456691732630134">
<ele>311.8</ele>
<time>2024-05-11T14:13:55Z</time>
</trkpt>
<trkpt lat="49.73769374191761" lon="9.456608751788735">
<ele>311.8</ele>
<time>2024-05-11T14:13:56Z</time>
</trkpt>
<trkpt lat="49.73767848685384" lon="9.45652292110026">
<ele>311.6</ele>
<time>2024-05-11T14:13:57Z</time>
</trkpt>
<trkpt lat="49.737663231790066" lon="9.456435162574053">
<ele>311.2</ele>
<time>2024-05-11T14:13:58Z</time>
</trkpt>
<trkpt lat="49.737644121050835" lon="9.45633977651596">
<ele>311</ele>
<time>2024-05-11T14:13:59Z</time>
</trkpt>
<trkpt lat="49.737625094130635" lon="9.456239696592093">
<ele>310.8</ele>
<time>2024-05-11T14:14:00Z</time>
</trkpt>
<trkpt lat="49.73760598339141" lon="9.456141460686922">
<ele>310.6</ele>
<time>2024-05-11T14:14:01Z</time>
</trkpt>
<trkpt lat="49.737583100795746" lon="9.456038447096944">
<ele>310.4</ele>
<time>2024-05-11T14:14:02Z</time>
</trkpt>
<trkpt lat="49.73756021820009" lon="9.455933505669236">
<ele>310.2</ele>
<time>2024-05-11T14:14:03Z</time>
</trkpt>
<trkpt lat="49.737533563748" lon="9.45583149790764">
<ele>310</ele>
<time>2024-05-11T14:14:04Z</time>
</trkpt>
<trkpt lat="49.737506825476885" lon="9.455738039687276">
<ele>309.8</ele>
<time>2024-05-11T14:14:05Z</time>
</trkpt>
<trkpt lat="49.73747631534934" lon="9.455644581466911">
<ele>309.6</ele>
<time>2024-05-11T14:14:06Z</time>
</trkpt>
<trkpt lat="49.73744957707822" lon="9.455554895102978">
<ele>309.4</ele>
<time>2024-05-11T14:14:07Z</time>
</trkpt>
<trkpt lat="49.73741906695068" lon="9.455463364720345">
<ele>309</ele>
<time>2024-05-11T14:14:08Z</time>
</trkpt>
<trkpt lat="49.73738478496671" lon="9.45537468418479">
<ele>308.8</ele>
<time>2024-05-11T14:14:09Z</time>
</trkpt>
<trkpt lat="49.737350419163704" lon="9.455289775505662">
<ele>308.6</ele>
<time>2024-05-11T14:14:10Z</time>
</trkpt>
<trkpt lat="49.7373160533607" lon="9.455208722501991">
<ele>308.6</ele>
<time>2024-05-11T14:14:11Z</time>
</trkpt>
<trkpt lat="49.73727414384484" lon="9.455128591507671">
<ele>308.4</ele>
<time>2024-05-11T14:14:12Z</time>
</trkpt>
<trkpt lat="49.73723977804184" lon="9.455046616494656">
<ele>308.4</ele>
<time>2024-05-11T14:14:13Z</time>
</trkpt>
<trkpt lat="49.73720164038241" lon="9.454970341175796">
<ele>308.2</ele>
<time>2024-05-11T14:14:14Z</time>
</trkpt>
<trkpt lat="49.73715587519109" lon="9.454894987866282">
<ele>308</ele>
<time>2024-05-11T14:14:15Z</time>
</trkpt>
<trkpt lat="49.7371138818562" lon="9.45481871254742">
<ele>308</ele>
<time>2024-05-11T14:14:16Z</time>
</trkpt>
<trkpt lat="49.73706811666489" lon="9.45474528707564">
<ele>307.8</ele>
<time>2024-05-11T14:14:17Z</time>
</trkpt>
<trkpt lat="49.73702620714903" lon="9.454676555469632">
<ele>307.8</ele>
<time>2024-05-11T14:14:18Z</time>
</trkpt>
<trkpt lat="49.73697658628225" lon="9.454613607376814">
<ele>307.8</ele>
<time>2024-05-11T14:14:19Z</time>
</trkpt>
<trkpt lat="49.73693082109094" lon="9.454549737274649">
<ele>307.6</ele>
<time>2024-05-11T14:14:20Z</time>
</trkpt>
<trkpt lat="49.73688505589962" lon="9.454491566866636">
<ele>307.6</ele>
<time>2024-05-11T14:14:21Z</time>
</trkpt>
<trkpt lat="49.7368392907083" lon="9.454438174143434">
<ele>307.4</ele>
<time>2024-05-11T14:14:22Z</time>
</trkpt>
<trkpt lat="49.736793441697955" lon="9.454380003735425">
<ele>307.4</ele>
<time>2024-05-11T14:14:23Z</time>
</trkpt>
<trkpt lat="49.7367515321821" lon="9.454319905489683">
<ele>307.2</ele>
<time>2024-05-11T14:14:24Z</time>
</trkpt>
<trkpt lat="49.73670191131532" lon="9.454263662919402">
<ele>307.2</ele>
<time>2024-05-11T14:14:25Z</time>
</trkpt>
<trkpt lat="49.736656146124005" lon="9.454201636835933">
<ele>307.2</ele>
<time>2024-05-11T14:14:26Z</time>
</trkpt>
<trkpt lat="49.73661038093269" lon="9.454139694571497">
<ele>307</ele>
<time>2024-05-11T14:14:27Z</time>
</trkpt>
<trkpt lat="49.73657224327326" lon="9.454074818640947">
<ele>307</ele>
<time>2024-05-11T14:14:28Z</time>
</trkpt>
<trkpt lat="49.73653024993837" lon="9.454006170853972">
<ele>307</ele>
<time>2024-05-11T14:14:29Z</time>
</trkpt>
<trkpt lat="49.73649211227894" lon="9.453938445076346">
<ele>306.8</ele>
<time>2024-05-11T14:14:30Z</time>
</trkpt>
<trkpt lat="49.73645397461951" lon="9.4538717251271">
<ele>306.8</ele>
<time>2024-05-11T14:14:31Z</time>
</trkpt>
<trkpt lat="49.73642346449196" lon="9.453804921358824">
<ele>306.6</ele>
<time>2024-05-11T14:14:32Z</time>
</trkpt>
<trkpt lat="49.73639295436442" lon="9.453738201409578">
<ele>306.6</ele>
<time>2024-05-11T14:14:33Z</time>
</trkpt>
<trkpt lat="49.736362444236875" lon="9.453669469803572">
<ele>306.4</ele>
<time>2024-05-11T14:14:34Z</time>
</trkpt>
<trkpt lat="49.73633570596576" lon="9.45359512232244">
<ele>306.4</ele>
<time>2024-05-11T14:14:35Z</time>
</trkpt>
<trkpt lat="49.73630905151367" lon="9.45351306349039">
<ele>306.4</ele>
<time>2024-05-11T14:14:36Z</time>
</trkpt>
<trkpt lat="49.736282313242555" lon="9.453426310792564">
<ele>306.2</ele>
<time>2024-05-11T14:14:37Z</time>
</trkpt>
<trkpt lat="49.736259430646896" lon="9.45333955809474">
<ele>306.2</ele>
<time>2024-05-11T14:14:38Z</time>
</trkpt>
<trkpt lat="49.73623654805124" lon="9.453245094045997">
<ele>306</ele>
<time>2024-05-11T14:14:39Z</time>
</trkpt>
<trkpt lat="49.73621366545558" lon="9.453147863969209">
<ele>305.8</ele>
<time>2024-05-11T14:14:40Z</time>
</trkpt>
<trkpt lat="49.73619455471635" lon="9.453051555901766">
<ele>305.6</ele>
<time>2024-05-11T14:14:41Z</time>
</trkpt>
<trkpt lat="49.73617167212069" lon="9.452949464321136">
<ele>305.4</ele>
<time>2024-05-11T14:14:42Z</time>
</trkpt>
<trkpt lat="49.73615641705692" lon="9.452851228415966">
<ele>305.2</ele>
<time>2024-05-11T14:14:43Z</time>
</trkpt>
<trkpt lat="49.7361296787858" lon="9.452752070501449">
<ele>305</ele>
<time>2024-05-11T14:14:44Z</time>
</trkpt>
<trkpt lat="49.73611442372203" lon="9.452650062739847">
<ele>304.6</ele>
<time>2024-05-11T14:14:45Z</time>
</trkpt>
<trkpt lat="49.73609539680183" lon="9.45254989899695">
<ele>304.4</ele>
<time>2024-05-11T14:14:46Z</time>
</trkpt>
<trkpt lat="49.7360762860626" lon="9.452447891235352">
<ele>304.4</ele>
<time>2024-05-11T14:14:47Z</time>
</trkpt>
<trkpt lat="49.7360572591424" lon="9.4523486495018">
<ele>304.2</ele>
<time>2024-05-11T14:14:48Z</time>
</trkpt>
<trkpt lat="49.73603814840317" lon="9.452248569577932">
<ele>304</ele>
<time>2024-05-11T14:14:49Z</time>
</trkpt>
<trkpt lat="49.73601912148297" lon="9.452150333672762">
<ele>303.8</ele>
<time>2024-05-11T14:14:50Z</time>
</trkpt>
<trkpt lat="49.73600001074374" lon="9.452052097767591">
<ele>303.6</ele>
<time>2024-05-11T14:14:51Z</time>
</trkpt>
<trkpt lat="49.73598098382354" lon="9.45195478387177">
<ele>303.6</ele>
<time>2024-05-11T14:14:52Z</time>
</trkpt>
<trkpt lat="49.73596187308431" lon="9.451861325651407">
<ele>303.4</ele>
<time>2024-05-11T14:14:53Z</time>
</trkpt>
<trkpt lat="49.73593513481319" lon="9.451771723106503">
<ele>303.2</ele>
<time>2024-05-11T14:14:54Z</time>
</trkpt>
<trkpt lat="49.735908480361104" lon="9.451686814427376">
<ele>303.2</ele>
<time>2024-05-11T14:14:55Z</time>
</trkpt>
<trkpt lat="49.73588174208999" lon="9.451601905748248">
<ele>303</ele>
<time>2024-05-11T14:14:56Z</time>
</trkpt>
<trkpt lat="49.73585885949433" lon="9.451523702591658">
<ele>303</ele>
<time>2024-05-11T14:14:57Z</time>
</trkpt>
<trkpt lat="49.73583597689867" lon="9.451444577425718">
<ele>303</ele>
<time>2024-05-11T14:14:58Z</time>
</trkpt>
<trkpt lat="49.735809322446585" lon="9.451372073963284">
<ele>303</ele>
<time>2024-05-11T14:14:59Z</time>
</trkpt>
<trkpt lat="49.73578258417547" lon="9.45130149833858">
<ele>303</ele>
<time>2024-05-11T14:15:00Z</time>
</trkpt>
<trkpt lat="49.73575207404792" lon="9.451234778389336">
<ele>303</ele>
<time>2024-05-11T14:15:01Z</time>
</trkpt>
<trkpt lat="49.735725335776806" lon="9.451167052611709">
<ele>303</ele>
<time>2024-05-11T14:15:02Z</time>
</trkpt>
<trkpt lat="49.73569482564926" lon="9.451103182509542">
<ele>303</ele>
<time>2024-05-11T14:15:03Z</time>
</trkpt>
<trkpt lat="49.73566431552172" lon="9.451038306578994">
<ele>303</ele>
<time>2024-05-11T14:15:04Z</time>
</trkpt>
<trkpt lat="49.735630033537745" lon="9.450976364314556">
<ele>303</ele>
<time>2024-05-11T14:15:05Z</time>
</trkpt>
<trkpt lat="49.73559566773474" lon="9.450913416221738">
<ele>303</ele>
<time>2024-05-11T14:15:06Z</time>
</trkpt>
<trkpt lat="49.7355651576072" lon="9.450851390138268">
<ele>303.2</ele>
<time>2024-05-11T14:15:07Z</time>
</trkpt>
<trkpt lat="49.73553464747965" lon="9.45078651420772">
<ele>303.2</ele>
<time>2024-05-11T14:15:08Z</time>
</trkpt>
<trkpt lat="49.73550028167665" lon="9.450719794258475">
<ele>303.2</ele>
<time>2024-05-11T14:15:09Z</time>
</trkpt>
<trkpt lat="49.735469771549106" lon="9.450654918327928">
<ele>303.2</ele>
<time>2024-05-11T14:15:10Z</time>
</trkpt>
<trkpt lat="49.735431633889675" lon="9.45059297606349">
<ele>303.2</ele>
<time>2024-05-11T14:15:11Z</time>
</trkpt>
<trkpt lat="49.73540112376213" lon="9.4505319558084">
<ele>303.2</ele>
<time>2024-05-11T14:15:12Z</time>
</trkpt>
<trkpt lat="49.73536675795913" lon="9.450469929724932">
<ele>303.2</ele>
<time>2024-05-11T14:15:13Z</time>
</trkpt>
<trkpt lat="49.73533624783158" lon="9.450409831479192">
<ele>303.2</ele>
<time>2024-05-11T14:15:14Z</time>
</trkpt>
<trkpt lat="49.73530573770404" lon="9.450347889214754">
<ele>303.4</ele>
<time>2024-05-11T14:15:15Z</time>
</trkpt>
<trkpt lat="49.73527908325195" lon="9.450284941121936">
<ele>303.4</ele>
<time>2024-05-11T14:15:16Z</time>
</trkpt>
<trkpt lat="49.73524848930538" lon="9.450222915038466">
<ele>303.4</ele>
<time>2024-05-11T14:15:17Z</time>
</trkpt>
<trkpt lat="49.73522183485329" lon="9.450162816792728">
<ele>303.6</ele>
<time>2024-05-11T14:15:18Z</time>
</trkpt>
<trkpt lat="49.735195096582174" lon="9.450104646384716">
<ele>303.6</ele>
<time>2024-05-11T14:15:19Z</time>
</trkpt>
<trkpt lat="49.73516458645463" lon="9.450046475976706">
<ele>303.6</ele>
<time>2024-05-11T14:15:20Z</time>
</trkpt>
<trkpt lat="49.73513030447066" lon="9.449986377730966">
<ele>303.4</ele>
<time>2024-05-11T14:15:21Z</time>
</trkpt>
<trkpt lat="49.73509971052408" lon="9.44992351345718">
<ele>303.4</ele>
<time>2024-05-11T14:15:22Z</time>
</trkpt>
<trkpt lat="49.73506542854011" lon="9.449865259230137">
<ele>303.2</ele>
<time>2024-05-11T14:15:23Z</time>
</trkpt>
<trkpt lat="49.73503106273711" lon="9.449805244803429">
<ele>303.2</ele>
<time>2024-05-11T14:15:24Z</time>
</trkpt>
<trkpt lat="49.73500055260956" lon="9.449745146557689">
<ele>303</ele>
<time>2024-05-11T14:15:25Z</time>
</trkpt>
<trkpt lat="49.73497004248202" lon="9.449685048311949">
<ele>303</ele>
<time>2024-05-11T14:15:26Z</time>
</trkpt>
<trkpt lat="49.734939532354474" lon="9.449624950066209">
<ele>302.8</ele>
<time>2024-05-11T14:15:27Z</time>
</trkpt>
<trkpt lat="49.73491279408336" lon="9.449564851820467">
<ele>302.8</ele>
<time>2024-05-11T14:15:28Z</time>
</trkpt>
<trkpt lat="49.73488228395581" lon="9.449502909556031">
<ele>302.6</ele>
<time>2024-05-11T14:15:29Z</time>
</trkpt>
<trkpt lat="49.73485177382827" lon="9.44944473914802">
<ele>302.6</ele>
<time>2024-05-11T14:15:30Z</time>
</trkpt>
<trkpt lat="49.73482511937618" lon="9.449381791055202">
<ele>302.8</ele>
<time>2024-05-11T14:15:31Z</time>
</trkpt>
<trkpt lat="49.73479460924864" lon="9.449319764971731">
<ele>302.8</ele>
<time>2024-05-11T14:15:32Z</time>
</trkpt>
<trkpt lat="49.73476787097752" lon="9.449256816878917">
<ele>302.8</ele>
<time>2024-05-11T14:15:33Z</time>
</trkpt>
<trkpt lat="49.73473736084998" lon="9.449194874614475">
<ele>302.8</ele>
<time>2024-05-11T14:15:34Z</time>
</trkpt>
<trkpt lat="49.73471062257886" lon="9.44913192652166">
<ele>303</ele>
<time>2024-05-11T14:15:35Z</time>
</trkpt>
<trkpt lat="49.734683968126774" lon="9.44906990043819">
<ele>303</ele>
<time>2024-05-11T14:15:36Z</time>
</trkpt>
<trkpt lat="49.73465345799923" lon="9.449007958173752">
<ele>303</ele>
<time>2024-05-11T14:15:37Z</time>
</trkpt>
<trkpt lat="49.73462671972811" lon="9.448945010080934">
<ele>303</ele>
<time>2024-05-11T14:15:38Z</time>
</trkpt>
<trkpt lat="49.734603837132454" lon="9.448882061988115">
<ele>303</ele>
<time>2024-05-11T14:15:39Z</time>
</trkpt>
<trkpt lat="49.7345809545368" lon="9.448820035904646">
<ele>303.2</ele>
<time>2024-05-11T14:15:40Z</time>
</trkpt>
<trkpt lat="49.73455807194114" lon="9.448758093640208">
<ele>303.2</ele>
<time>2024-05-11T14:15:41Z</time>
</trkpt>
<trkpt lat="49.73453133367002" lon="9.44869707338512">
<ele>303.2</ele>
<time>2024-05-11T14:15:42Z</time>
</trkpt>
<trkpt lat="49.734504679217935" lon="9.448637897148728">
<ele>303</ele>
<time>2024-05-11T14:15:43Z</time>
</trkpt>
<trkpt lat="49.73447794094682" lon="9.448579726740718">
<ele>303</ele>
<time>2024-05-11T14:15:44Z</time>
</trkpt>
<trkpt lat="49.73445505835116" lon="9.448526334017515">
<ele>302.8</ele>
<time>2024-05-11T14:15:45Z</time>
</trkpt>
<trkpt lat="49.7344321757555" lon="9.448472941294312">
<ele>302.8</ele>
<time>2024-05-11T14:15:46Z</time>
</trkpt>
<trkpt lat="49.734405437484384" lon="9.44841854274273">
<ele>302.8</ele>
<time>2024-05-11T14:15:47Z</time>
</trkpt>
<trkpt lat="49.734382554888725" lon="9.448363222181795">
<ele>303</ele>
<time>2024-05-11T14:15:48Z</time>
</trkpt>
<trkpt lat="49.73435967229307" lon="9.448307985439897">
<ele>303</ele>
<time>2024-05-11T14:15:49Z</time>
</trkpt>
<trkpt lat="49.73433678969741" lon="9.448251659050584">
<ele>303</ele>
<time>2024-05-11T14:15:50Z</time>
</trkpt>
<trkpt lat="49.73431013524532" lon="9.448193488642572">
<ele>303.2</ele>
<time>2024-05-11T14:15:51Z</time>
</trkpt>
<trkpt lat="49.734287252649665" lon="9.448133390396832">
<ele>303.2</ele>
<time>2024-05-11T14:15:52Z</time>
</trkpt>
<trkpt lat="49.73426051437855" lon="9.448075219988825">
<ele>303.4</ele>
<time>2024-05-11T14:15:53Z</time>
</trkpt>
<trkpt lat="49.73423377610743" lon="9.448015205562116">
<ele>303.4</ele>
<time>2024-05-11T14:15:54Z</time>
</trkpt>
<trkpt lat="49.734207121655345" lon="9.447957035154104">
<ele>303.6</ele>
<time>2024-05-11T14:15:55Z</time>
</trkpt>
<trkpt lat="49.73418423905969" lon="9.447896936908364">
<ele>303.6</ele>
<time>2024-05-11T14:15:56Z</time>
</trkpt>
<trkpt lat="49.73415750078857" lon="9.447836838662624">
<ele>303.6</ele>
<time>2024-05-11T14:15:57Z</time>
</trkpt>
<trkpt lat="49.73413461819291" lon="9.447778668254614">
<ele>303.6</ele>
<time>2024-05-11T14:15:58Z</time>
</trkpt>
<trkpt lat="49.734107963740826" lon="9.447721419855952">
<ele>303.8</ele>
<time>2024-05-11T14:15:59Z</time>
</trkpt>
<trkpt lat="49.73408508114517" lon="9.447663249447942">
<ele>303.8</ele>
<time>2024-05-11T14:16:00Z</time>
</trkpt>
<trkpt lat="49.73405834287405" lon="9.44760700687766">
<ele>303.8</ele>
<time>2024-05-11T14:16:01Z</time>
</trkpt>
<trkpt lat="49.73403160460293" lon="9.44754783064127">
<ele>304</ele>
<time>2024-05-11T14:16:02Z</time>
</trkpt>
<trkpt lat="49.73400109447539" lon="9.447491588070989">
<ele>304</ele>
<time>2024-05-11T14:16:03Z</time>
</trkpt>
<trkpt lat="49.73397058434784" lon="9.447433417662978">
<ele>304.2</ele>
<time>2024-05-11T14:16:04Z</time>
</trkpt>
<trkpt lat="49.73394392989576" lon="9.447380024939775">
<ele>304.4</ele>
<time>2024-05-11T14:16:05Z</time>
</trkpt>
<trkpt lat="49.733913419768214" lon="9.447324704378843">
<ele>304.6</ele>
<time>2024-05-11T14:16:06Z</time>
</trkpt>
<trkpt lat="49.73388282582164" lon="9.447268461808562">
<ele>304.6</ele>
<time>2024-05-11T14:16:07Z</time>
</trkpt>
<trkpt lat="49.733852315694094" lon="9.447216913104056">
<ele>304.8</ele>
<time>2024-05-11T14:16:08Z</time>
</trkpt>
<trkpt lat="49.73381803371012" lon="9.447164526209235">
<ele>305</ele>
<time>2024-05-11T14:16:09Z</time>
</trkpt>
<trkpt lat="49.73377989605069" lon="9.44711490534246">
<ele>305</ele>
<time>2024-05-11T14:16:10Z</time>
</trkpt>
<trkpt lat="49.73374175839126" lon="9.447063440456986">
<ele>305.2</ele>
<time>2024-05-11T14:16:11Z</time>
</trkpt>
<trkpt lat="49.73369976505637" lon="9.44701666943729">
<ele>305.2</ele>
<time>2024-05-11T14:16:12Z</time>
</trkpt>
<trkpt lat="49.73366162739694" lon="9.446969982236624">
<ele>305.4</ele>
<time>2024-05-11T14:16:13Z</time>
</trkpt>
<trkpt lat="49.73361963406205" lon="9.446925139054656">
<ele>305.4</ele>
<time>2024-05-11T14:16:14Z</time>
</trkpt>
<trkpt lat="49.73358149640262" lon="9.446880295872688">
<ele>305.4</ele>
<time>2024-05-11T14:16:15Z</time>
</trkpt>
<trkpt lat="49.73354335874319" lon="9.446834530681372">
<ele>305.2</ele>
<time>2024-05-11T14:16:16Z</time>
</trkpt>
<trkpt lat="49.7335013654083" lon="9.446788765490057">
<ele>305.2</ele>
<time>2024-05-11T14:16:17Z</time>
</trkpt>
<trkpt lat="49.73345945589245" lon="9.446741994470358">
<ele>305.2</ele>
<time>2024-05-11T14:16:18Z</time>
</trkpt>
<trkpt lat="49.73342131823301" lon="9.44669622927904">
<ele>305</ele>
<time>2024-05-11T14:16:19Z</time>
</trkpt>
<trkpt lat="49.73338309675455" lon="9.44665616378188">
<ele>305</ele>
<time>2024-05-11T14:16:20Z</time>
</trkpt>
<trkpt lat="49.73334495909512" lon="9.44661802612245">
<ele>305</ele>
<time>2024-05-11T14:16:21Z</time>
</trkpt>
<trkpt lat="49.73330682143569" lon="9.44658374413848">
<ele>305</ele>
<time>2024-05-11T14:16:22Z</time>
</trkpt>
<trkpt lat="49.73327253945172" lon="9.446548456326129">
<ele>304.8</ele>
<time>2024-05-11T14:16:23Z</time>
</trkpt>
<trkpt lat="49.733238173648715" lon="9.446513168513777">
<ele>304.8</ele>
<time>2024-05-11T14:16:24Z</time>
</trkpt>
<trkpt lat="49.73320766352117" lon="9.44647972472012">
<ele>304.8</ele>
<time>2024-05-11T14:16:25Z</time>
</trkpt>
<trkpt lat="49.73317329771817" lon="9.446448292583227">
<ele>304.8</ele>
<time>2024-05-11T14:16:26Z</time>
</trkpt>
<trkpt lat="49.73313901573419" lon="9.446416776627302">
<ele>304.8</ele>
<time>2024-05-11T14:16:27Z</time>
</trkpt>
<trkpt lat="49.73310464993119" lon="9.446388194337487">
<ele>304.8</ele>
<time>2024-05-11T14:16:28Z</time>
</trkpt>
<trkpt lat="49.73307413980365" lon="9.446358606219292">
<ele>304.6</ele>
<time>2024-05-11T14:16:29Z</time>
</trkpt>
<trkpt lat="49.733043629676104" lon="9.446328096091747">
<ele>304.6</ele>
<time>2024-05-11T14:16:30Z</time>
</trkpt>
<trkpt lat="49.73301311954856" lon="9.446294736117125">
<ele>304.6</ele>
<time>2024-05-11T14:16:31Z</time>
</trkpt>
<trkpt lat="49.73297875374555" lon="9.446261376142502">
<ele>304.6</ele>
<time>2024-05-11T14:16:32Z</time>
</trkpt>
<trkpt lat="49.732944471761584" lon="9.44622801616788">
<ele>304.6</ele>
<time>2024-05-11T14:16:33Z</time>
</trkpt>
<trkpt lat="49.73291010595858" lon="9.446193650364876">
<ele>304.6</ele>
<time>2024-05-11T14:16:34Z</time>
</trkpt>
<trkpt lat="49.73287582397461" lon="9.446158362552524">
<ele>304.6</ele>
<time>2024-05-11T14:16:35Z</time>
</trkpt>
<trkpt lat="49.732841458171606" lon="9.446121146902442">
<ele>304.6</ele>
<time>2024-05-11T14:16:36Z</time>
</trkpt>
<trkpt lat="49.73281094804406" lon="9.44608493708074">
<ele>304.6</ele>
<time>2024-05-11T14:16:37Z</time>
</trkpt>
<trkpt lat="49.73277281038463" lon="9.44604872725904">
<ele>304.8</ele>
<time>2024-05-11T14:16:38Z</time>
</trkpt>
<trkpt lat="49.73273844458163" lon="9.446009583771229">
<ele>304.8</ele>
<time>2024-05-11T14:16:39Z</time>
</trkpt>
<trkpt lat="49.732704162597656" lon="9.445971446111798">
<ele>305</ele>
<time>2024-05-11T14:16:40Z</time>
</trkpt>
<trkpt lat="49.73266979679465" lon="9.445933308452368">
<ele>305</ele>
<time>2024-05-11T14:16:41Z</time>
</trkpt>
<trkpt lat="49.73263165913522" lon="9.445893242955208">
<ele>305</ele>
<time>2024-05-11T14:16:42Z</time>
</trkpt>
<trkpt lat="49.73259729333222" lon="9.445851249620318">
<ele>305.2</ele>
<time>2024-05-11T14:16:43Z</time>
</trkpt>
<trkpt lat="49.73255915567279" lon="9.445806490257382">
<ele>305.2</ele>
<time>2024-05-11T14:16:44Z</time>
</trkpt>
<trkpt lat="49.73252101801336" lon="9.445763574913144">
<ele>305.2</ele>
<time>2024-05-11T14:16:45Z</time>
</trkpt>
<trkpt lat="49.732486652210355" lon="9.445718731731176">
<ele>305.4</ele>
<time>2024-05-11T14:16:46Z</time>
</trkpt>
<trkpt lat="49.7324447426945" lon="9.44567296653986">
<ele>305.4</ele>
<time>2024-05-11T14:16:47Z</time>
</trkpt>
<trkpt lat="49.73240660503507" lon="9.445626195520164">
<ele>305.4</ele>
<time>2024-05-11T14:16:48Z</time>
</trkpt>
<trkpt lat="49.73237223923206" lon="9.445583280175924">
<ele>305.4</ele>
<time>2024-05-11T14:16:49Z</time>
</trkpt>
<trkpt lat="49.73233787342906" lon="9.445540364831686">
<ele>305.4</ele>
<time>2024-05-11T14:16:50Z</time>
</trkpt>
<trkpt lat="49.73229973576963" lon="9.44549367763102">
<ele>305.6</ele>
<time>2024-05-11T14:16:51Z</time>
</trkpt>
<trkpt lat="49.7322615981102" lon="9.445446906611323">
<ele>305.6</ele>
<time>2024-05-11T14:16:52Z</time>
</trkpt>
<trkpt lat="49.73222346045077" lon="9.445402063429356">
<ele>305.6</ele>
<time>2024-05-11T14:16:53Z</time>
</trkpt>
<trkpt lat="49.73218146711588" lon="9.44535629823804">
<ele>305.6</ele>
<time>2024-05-11T14:16:54Z</time>
</trkpt>
<trkpt lat="49.73213955760002" lon="9.445309611037374">
<ele>305.6</ele>
<time>2024-05-11T14:16:55Z</time>
</trkpt>
<trkpt lat="49.73209756426513" lon="9.445259990170598">
<ele>305.6</ele>
<time>2024-05-11T14:16:56Z</time>
</trkpt>
<trkpt lat="49.732055654749274" lon="9.445211375132205">
<ele>305.6</ele>
<time>2024-05-11T14:16:57Z</time>
</trkpt>
<trkpt lat="49.732009805738926" lon="9.445164604112506">
<ele>305.6</ele>
<time>2024-05-11T14:16:58Z</time>
</trkpt>
<trkpt lat="49.73196404054761" lon="9.44511791691184">
<ele>305.6</ele>
<time>2024-05-11T14:16:59Z</time>
</trkpt>
<trkpt lat="49.73191827535629" lon="9.445070223882794">
<ele>305.6</ele>
<time>2024-05-11T14:17:00Z</time>
</trkpt>
<trkpt lat="49.731876365840435" lon="9.4450216088444">
<ele>305.4</ele>
<time>2024-05-11T14:17:01Z</time>
</trkpt>
<trkpt lat="49.73183051683009" lon="9.444972909986973">
<ele>305.4</ele>
<time>2024-05-11T14:17:02Z</time>
</trkpt>
<trkpt lat="49.73178860731423" lon="9.444923372939227">
<ele>305.4</ele>
<time>2024-05-11T14:17:03Z</time>
</trkpt>
<trkpt lat="49.73174661397934" lon="9.444874757900834">
<ele>305.2</ele>
<time>2024-05-11T14:17:04Z</time>
</trkpt>
<trkpt lat="49.73170847631991" lon="9.44482513703406">
<ele>305.2</ele>
<time>2024-05-11T14:17:05Z</time>
</trkpt>
<trkpt lat="49.73166648298502" lon="9.444776521995664">
<ele>305.2</ele>
<time>2024-05-11T14:17:06Z</time>
</trkpt>
<trkpt lat="49.73162834532559" lon="9.444726901128888">
<ele>305.2</ele>
<time>2024-05-11T14:17:07Z</time>
</trkpt>
<trkpt lat="49.73159020766616" lon="9.444678286090491">
<ele>305.2</ele>
<time>2024-05-11T14:17:08Z</time>
</trkpt>
<trkpt lat="49.731559697538614" lon="9.444628665223718">
<ele>305</ele>
<time>2024-05-11T14:17:09Z</time>
</trkpt>
<trkpt lat="49.73152541555464" lon="9.444578122347592">
<ele>305</ele>
<time>2024-05-11T14:17:10Z</time>
</trkpt>
<trkpt lat="49.73149482160807" lon="9.444530429318547">
<ele>305</ele>
<time>2024-05-11T14:17:11Z</time>
</trkpt>
<trkpt lat="49.73146431148052" lon="9.444481814280152">
<ele>305</ele>
<time>2024-05-11T14:17:12Z</time>
</trkpt>
<trkpt lat="49.73143380135298" lon="9.44442842155695">
<ele>305</ele>
<time>2024-05-11T14:17:13Z</time>
</trkpt>
<trkpt lat="49.73140329122543" lon="9.444371173158288">
<ele>305</ele>
<time>2024-05-11T14:17:14Z</time>
</trkpt>
<trkpt lat="49.73137663677335" lon="9.444313002750278">
<ele>305</ele>
<time>2024-05-11T14:17:15Z</time>
</trkpt>
<trkpt lat="49.73134989850223" lon="9.444252904504538">
<ele>305</ele>
<time>2024-05-11T14:17:16Z</time>
</trkpt>
<trkpt lat="49.73132701590657" lon="9.444192806258798">
<ele>305</ele>
<time>2024-05-11T14:17:17Z</time>
</trkpt>
<trkpt lat="49.731300277635455" lon="9.444129941985013">
<ele>305</ele>
<time>2024-05-11T14:17:18Z</time>
</trkpt>
<trkpt lat="49.7312773950398" lon="9.444065066054463">
<ele>305</ele>
<time>2024-05-11T14:17:19Z</time>
</trkpt>
<trkpt lat="49.73125074058771" lon="9.443998262286186">
<ele>305</ele>
<time>2024-05-11T14:17:20Z</time>
</trkpt>
<trkpt lat="49.731224002316594" lon="9.44393347017467">
<ele>305</ele>
<time>2024-05-11T14:17:21Z</time>
</trkpt>
<trkpt lat="49.73119734786451" lon="9.443869516253471">
<ele>305</ele>
<time>2024-05-11T14:17:22Z</time>
</trkpt>
<trkpt lat="49.73117060959339" lon="9.443804724141955">
<ele>305</ele>
<time>2024-05-11T14:17:23Z</time>
</trkpt>
<trkpt lat="49.731143871322274" lon="9.443739848211408">
<ele>304.8</ele>
<time>2024-05-11T14:17:24Z</time>
</trkpt>
<trkpt lat="49.73111721687019" lon="9.443673128262162">
<ele>304.8</ele>
<time>2024-05-11T14:17:25Z</time>
</trkpt>
<trkpt lat="49.73109047859907" lon="9.443608252331614">
<ele>304.6</ele>
<time>2024-05-11T14:17:26Z</time>
</trkpt>
<trkpt lat="49.731063824146986" lon="9.443543376401069">
<ele>304.4</ele>
<time>2024-05-11T14:17:27Z</time>
</trkpt>
<trkpt lat="49.73104094155133" lon="9.443481434136627">
<ele>304.4</ele>
<time>2024-05-11T14:17:28Z</time>
</trkpt>
<trkpt lat="49.73101805895567" lon="9.443427957594396">
<ele>304.2</ele>
<time>2024-05-11T14:17:29Z</time>
</trkpt>
<trkpt lat="49.73099517636001" lon="9.44337649270892">
<ele>304.2</ele>
<time>2024-05-11T14:17:30Z</time>
</trkpt>
<trkpt lat="49.73097606562078" lon="9.443327877670528">
<ele>304.2</ele>
<time>2024-05-11T14:17:31Z</time>
</trkpt>
<trkpt lat="49.73095318302512" lon="9.44328018464148">
<ele>304.2</ele>
<time>2024-05-11T14:17:32Z</time>
</trkpt>
<trkpt lat="49.73093407228589" lon="9.443233413621783">
<ele>304.2</ele>
<time>2024-05-11T14:17:33Z</time>
</trkpt>
<trkpt lat="49.73091118969023" lon="9.44318287074566">
<ele>304.2</ele>
<time>2024-05-11T14:17:34Z</time>
</trkpt>
<trkpt lat="49.730888307094574" lon="9.443135261535645">
<ele>304.4</ele>
<time>2024-05-11T14:17:35Z</time>
</trkpt>
<trkpt lat="49.730869280174375" lon="9.443086562678218">
<ele>304.4</ele>
<time>2024-05-11T14:17:36Z</time>
</trkpt>
<trkpt lat="49.73084639757872" lon="9.443039875477552">
<ele>304.4</ele>
<time>2024-05-11T14:17:37Z</time>
</trkpt>
<trkpt lat="49.73082351498306" lon="9.442991176620126">
<ele>304.4</ele>
<time>2024-05-11T14:17:38Z</time>
</trkpt>
<trkpt lat="49.73080054856837" lon="9.442943567410111">
<ele>304.6</ele>
<time>2024-05-11T14:17:39Z</time>
</trkpt>
<trkpt lat="49.73077766597271" lon="9.442892018705606">
<ele>304.6</ele>
<time>2024-05-11T14:17:40Z</time>
</trkpt>
<trkpt lat="49.73075478337705" lon="9.442841475829482">
<ele>304.6</ele>
<time>2024-05-11T14:17:41Z</time>
</trkpt>
<trkpt lat="49.730728128924966" lon="9.442791938781738">
<ele>304.6</ele>
<time>2024-05-11T14:17:42Z</time>
</trkpt>
<trkpt lat="49.73070524632931" lon="9.442741312086582">
<ele>304.6</ele>
<time>2024-05-11T14:17:43Z</time>
</trkpt>
<trkpt lat="49.73067850805819" lon="9.442689847201107">
<ele>304.8</ele>
<time>2024-05-11T14:17:44Z</time>
</trkpt>
<trkpt lat="49.730651853606105" lon="9.442640226334332">
<ele>304.8</ele>
<time>2024-05-11T14:17:45Z</time>
</trkpt>
<trkpt lat="49.73062511533499" lon="9.442591611295938">
<ele>304.8</ele>
<time>2024-05-11T14:17:46Z</time>
</trkpt>
<trkpt lat="49.73060223273933" lon="9.442542996257544">
<ele>304.8</ele>
<time>2024-05-11T14:17:47Z</time>
</trkpt>
<trkpt lat="49.73057935014367" lon="9.442500080913304">
<ele>304.8</ele>
<time>2024-05-11T14:17:48Z</time>
</trkpt>
<trkpt lat="49.73056023940444" lon="9.442456243559718">
<ele>304.8</ele>
<time>2024-05-11T14:17:49Z</time>
</trkpt>
<trkpt lat="49.73054121248424" lon="9.442417100071909">
<ele>304.8</ele>
<time>2024-05-11T14:17:50Z</time>
</trkpt>
<trkpt lat="49.73051832988858" lon="9.442377034574749">
<ele>304.8</ele>
<time>2024-05-11T14:17:51Z</time>
</trkpt>
<trkpt lat="49.73049544729293" lon="9.442336969077587">
<ele>304.8</ele>
<time>2024-05-11T14:17:52Z</time>
</trkpt>
<trkpt lat="49.73047633655369" lon="9.442293131724">
<ele>304.8</ele>
<time>2024-05-11T14:17:53Z</time>
</trkpt>
<trkpt lat="49.730453453958035" lon="9.442250216379762">
<ele>305</ele>
<time>2024-05-11T14:17:54Z</time>
</trkpt>
<trkpt lat="49.73042671568692" lon="9.442206379026176">
<ele>305</ele>
<time>2024-05-11T14:17:55Z</time>
</trkpt>
<trkpt lat="49.73040383309126" lon="9.442163463681936">
<ele>305.2</ele>
<time>2024-05-11T14:17:56Z</time>
</trkpt>
<trkpt lat="49.7303809504956" lon="9.442118620499969">
<ele>305.2</ele>
<time>2024-05-11T14:17:57Z</time>
</trkpt>
<trkpt lat="49.73035806789994" lon="9.442073777318">
<ele>305.4</ele>
<time>2024-05-11T14:17:58Z</time>
</trkpt>
<trkpt lat="49.73033518530429" lon="9.442029939964414">
<ele>305.4</ele>
<time>2024-05-11T14:17:59Z</time>
</trkpt>
<trkpt lat="49.730312302708626" lon="9.441987024620175">
<ele>305.4</ele>
<time>2024-05-11T14:18:00Z</time>
</trkpt>
<trkpt lat="49.730293191969395" lon="9.441946959123015">
<ele>305.6</ele>
<time>2024-05-11T14:18:01Z</time>
</trkpt>
<trkpt lat="49.730270309373736" lon="9.441904965788126">
<ele>305.6</ele>
<time>2024-05-11T14:18:02Z</time>
</trkpt>
<trkpt lat="49.73025128245354" lon="9.441863056272268">
<ele>305.6</ele>
<time>2024-05-11T14:18:03Z</time>
</trkpt>
<trkpt lat="49.73022839985788" lon="9.441822990775108">
<ele>305.8</ele>
<time>2024-05-11T14:18:04Z</time>
</trkpt>
<trkpt lat="49.73020928911865" lon="9.441782925277948">
<ele>305.8</ele>
<time>2024-05-11T14:18:05Z</time>
</trkpt>
<trkpt lat="49.73019026219845" lon="9.441744787618518">
<ele>306</ele>
<time>2024-05-11T14:18:06Z</time>
</trkpt>
<trkpt lat="49.73017115145922" lon="9.441706649959087">
<ele>306.2</ele>
<time>2024-05-11T14:18:07Z</time>
</trkpt>
<trkpt lat="49.73015212453902" lon="9.441666584461927">
<ele>306.2</ele>
<time>2024-05-11T14:18:08Z</time>
</trkpt>
<trkpt lat="49.73013301379979" lon="9.441630290821196">
<ele>306.4</ele>
<time>2024-05-11T14:18:09Z</time>
</trkpt>
<trkpt lat="49.73011013120413" lon="9.441593158990145">
<ele>306.4</ele>
<time>2024-05-11T14:18:10Z</time>
</trkpt>
<trkpt lat="49.73009487614035" lon="9.441557871177793">
<ele>306.6</ele>
<time>2024-05-11T14:18:11Z</time>
</trkpt>
<trkpt lat="49.730075765401125" lon="9.44152350537479">
<ele>306.8</ele>
<time>2024-05-11T14:18:12Z</time>
</trkpt>
<trkpt lat="49.73006051033735" lon="9.441492073237896">
<ele>307</ele>
<time>2024-05-11T14:18:13Z</time>
</trkpt>
<trkpt lat="49.73004525527358" lon="9.441461563110352">
<ele>307</ele>
<time>2024-05-11T14:18:14Z</time>
</trkpt>
<trkpt lat="49.73003000020981" lon="9.441430047154428">
<ele>307.2</ele>
<time>2024-05-11T14:18:15Z</time>
</trkpt>
<trkpt lat="49.73001474514603" lon="9.441398615017532">
<ele>307.4</ele>
<time>2024-05-11T14:18:16Z</time>
</trkpt>
<trkpt lat="49.729999490082264" lon="9.44136617705226">
<ele>307.6</ele>
<time>2024-05-11T14:18:17Z</time>
</trkpt>
<trkpt lat="49.729980463162065" lon="9.441331811249256">
<ele>307.8</ele>
<time>2024-05-11T14:18:18Z</time>
</trkpt>
<trkpt lat="49.72996520809829" lon="9.441298451274632">
<ele>308</ele>
<time>2024-05-11T14:18:19Z</time>
</trkpt>
<trkpt lat="49.72994986921549" lon="9.44126509130001">
<ele>308.4</ele>
<time>2024-05-11T14:18:20Z</time>
</trkpt>
<trkpt lat="49.72993084229529" lon="9.44122980348766">
<ele>308.6</ele>
<time>2024-05-11T14:18:21Z</time>
</trkpt>
<trkpt lat="49.72991173155606" lon="9.441194515675306">
<ele>308.8</ele>
<time>2024-05-11T14:18:22Z</time>
</trkpt>
<trkpt lat="49.729896476492286" lon="9.441160149872305">
<ele>309</ele>
<time>2024-05-11T14:18:23Z</time>
</trkpt>
<trkpt lat="49.72987359389663" lon="9.44112486205995">
<ele>309.2</ele>
<time>2024-05-11T14:18:24Z</time>
</trkpt>
<trkpt lat="49.729858338832855" lon="9.44108672440052">
<ele>309.4</ele>
<time>2024-05-11T14:18:25Z</time>
</trkpt>
<trkpt lat="49.7298354562372" lon="9.44104950875044">
<ele>309.6</ele>
<time>2024-05-11T14:18:26Z</time>
</trkpt>
<trkpt lat="49.729816429317" lon="9.441013298928738">
<ele>309.8</ele>
<time>2024-05-11T14:18:27Z</time>
</trkpt>
<trkpt lat="49.72979354672134" lon="9.440975161269307">
<ele>310.2</ele>
<time>2024-05-11T14:18:28Z</time>
</trkpt>
<trkpt lat="49.72977443598211" lon="9.440933167934418">
<ele>310.2</ele>
<time>2024-05-11T14:18:29Z</time>
</trkpt>
<trkpt lat="49.72975155338645" lon="9.440893102437258">
<ele>310.4</ele>
<time>2024-05-11T14:18:30Z</time>
</trkpt>
<trkpt lat="49.72973244264722" lon="9.440854964777827">
<ele>310.6</ele>
<time>2024-05-11T14:18:31Z</time>
</trkpt>
<trkpt lat="49.72971341572702" lon="9.440814899280667">
<ele>310.8</ele>
<time>2024-05-11T14:18:32Z</time>
</trkpt>
<trkpt lat="49.72969430498779" lon="9.440778689458966">
<ele>311</ele>
<time>2024-05-11T14:18:33Z</time>
</trkpt>
<trkpt lat="49.72967142239213" lon="9.440738623961806">
<ele>311.2</ele>
<time>2024-05-11T14:18:34Z</time>
</trkpt>
<trkpt lat="49.72965616732836" lon="9.440698558464646">
<ele>311.4</ele>
<time>2024-05-11T14:18:35Z</time>
</trkpt>
<trkpt lat="49.7296332847327" lon="9.440658492967486">
<ele>311.6</ele>
<time>2024-05-11T14:18:36Z</time>
</trkpt>
<trkpt lat="49.72961802966893" lon="9.440616583451629">
<ele>311.8</ele>
<time>2024-05-11T14:18:37Z</time>
</trkpt>
<trkpt lat="49.72959514707327" lon="9.440576517954469">
<ele>312</ele>
<time>2024-05-11T14:18:38Z</time>
</trkpt>
<trkpt lat="49.72957603633404" lon="9.440538380295038">
<ele>312.2</ele>
<time>2024-05-11T14:18:39Z</time>
</trkpt>
<trkpt lat="49.72955315373838" lon="9.440498314797878">
<ele>312.4</ele>
<time>2024-05-11T14:18:40Z</time>
</trkpt>
<trkpt lat="49.72953027114272" lon="9.440460177138448">
<ele>312.6</ele>
<time>2024-05-11T14:18:41Z</time>
</trkpt>
<trkpt lat="49.72951124422252" lon="9.440420111641288">
<ele>312.6</ele>
<time>2024-05-11T14:18:42Z</time>
</trkpt>
<trkpt lat="49.72948836162686" lon="9.440378118306398">
<ele>312.8</ele>
<time>2024-05-11T14:18:43Z</time>
</trkpt>
<trkpt lat="49.729465479031205" lon="9.44033520296216">
<ele>312.8</ele>
<time>2024-05-11T14:18:44Z</time>
</trkpt>
<trkpt lat="49.72944259643555" lon="9.440290443599224">
<ele>312.8</ele>
<time>2024-05-11T14:18:45Z</time>
</trkpt>
<trkpt lat="49.72941963002086" lon="9.440244594588876">
<ele>312.8</ele>
<time>2024-05-11T14:18:46Z</time>
</trkpt>
<trkpt lat="49.7293967474252" lon="9.44019790738821">
<ele>312.8</ele>
<time>2024-05-11T14:18:47Z</time>
</trkpt>
<trkpt lat="49.72937009297311" lon="9.440151136368511">
<ele>312.8</ele>
<time>2024-05-11T14:18:48Z</time>
</trkpt>
<trkpt lat="49.729343354702" lon="9.440105371177197">
<ele>313</ele>
<time>2024-05-11T14:18:49Z</time>
</trkpt>
<trkpt lat="49.72931670024991" lon="9.440054828301072">
<ele>313</ele>
<time>2024-05-11T14:18:50Z</time>
</trkpt>
<trkpt lat="49.72928996197879" lon="9.440005291253328">
<ele>312.8</ele>
<time>2024-05-11T14:18:51Z</time>
</trkpt>
<trkpt lat="49.72926322370768" lon="9.439952820539474">
<ele>312.8</ele>
<time>2024-05-11T14:18:52Z</time>
</trkpt>
<trkpt lat="49.72923656925559" lon="9.439898421987891">
<ele>312.8</ele>
<time>2024-05-11T14:18:53Z</time>
</trkpt>
<trkpt lat="49.729206059128046" lon="9.43984025157988">
<ele>312.8</ele>
<time>2024-05-11T14:18:54Z</time>
</trkpt>
<trkpt lat="49.7291755490005" lon="9.43978015333414">
<ele>312.8</ele>
<time>2024-05-11T14:18:55Z</time>
</trkpt>
<trkpt lat="49.72914503887296" lon="9.439715361222625">
<ele>312.8</ele>
<time>2024-05-11T14:18:56Z</time>
</trkpt>
<trkpt lat="49.72910690121353" lon="9.43964478559792">
<ele>312.8</ele>
<time>2024-05-11T14:18:57Z</time>
</trkpt>
<trkpt lat="49.72906490787864" lon="9.43956851027906">
<ele>312.8</ele>
<time>2024-05-11T14:18:58Z</time>
</trkpt>
<trkpt lat="49.72902677021921" lon="9.439490307122467">
<ele>312.6</ele>
<time>2024-05-11T14:18:59Z</time>
</trkpt>
<trkpt lat="49.72898477688432" lon="9.43940632045269">
<ele>312.6</ele>
<time>2024-05-11T14:19:00Z</time>
</trkpt>
<trkpt lat="49.728939011693" lon="9.439323423430324">
<ele>312.4</ele>
<time>2024-05-11T14:19:01Z</time>
</trkpt>
<trkpt lat="49.72889324650168" lon="9.439234659075735">
<ele>312.2</ele>
<time>2024-05-11T14:19:02Z</time>
</trkpt>
<trkpt lat="49.72884362563491" lon="9.439143128693104">
<ele>312.2</ele>
<time>2024-05-11T14:19:03Z</time>
</trkpt>
<trkpt lat="49.728790232911706" lon="9.4390535261482">
<ele>312</ele>
<time>2024-05-11T14:19:04Z</time>
</trkpt>
<trkpt lat="49.7287368401885" lon="9.438960067927836">
<ele>311.8</ele>
<time>2024-05-11T14:19:05Z</time>
</trkpt>
<trkpt lat="49.7286834474653" lon="9.438866609707476">
<ele>311.6</ele>
<time>2024-05-11T14:19:06Z</time>
</trkpt>
<trkpt lat="49.72862619906664" lon="9.43877499550581">
<ele>311.4</ele>
<time>2024-05-11T14:19:07Z</time>
</trkpt>
<trkpt lat="49.72856895066798" lon="9.438683465123177">
<ele>311.2</ele>
<time>2024-05-11T14:19:08Z</time>
</trkpt>
<trkpt lat="49.72851178608835" lon="9.438592856749892">
<ele>311</ele>
<time>2024-05-11T14:19:09Z</time>
</trkpt>
<trkpt lat="49.7284469101578" lon="9.438503254204988">
<ele>310.8</ele>
<time>2024-05-11T14:19:10Z</time>
</trkpt>
<trkpt lat="49.72838203422725" lon="9.438413567841051">
<ele>310.6</ele>
<time>2024-05-11T14:19:11Z</time>
</trkpt>
<trkpt lat="49.72832101397216" lon="9.438324887305498">
<ele>310.4</ele>
<time>2024-05-11T14:19:12Z</time>
</trkpt>
<trkpt lat="49.72825622186065" lon="9.438236206769943">
<ele>310.4</ele>
<time>2024-05-11T14:19:13Z</time>
</trkpt>
<trkpt lat="49.72819511778653" lon="9.438148448243735">
<ele>310.2</ele>
<time>2024-05-11T14:19:14Z</time>
</trkpt>
<trkpt lat="49.72813409753144" lon="9.43806353956461">
<ele>310.2</ele>
<time>2024-05-11T14:19:15Z</time>
</trkpt>
<trkpt lat="49.72807307727635" lon="9.437978714704514">
<ele>310</ele>
<time>2024-05-11T14:19:16Z</time>
</trkpt>
<trkpt lat="49.72801205702126" lon="9.437896655872464">
<ele>310</ele>
<time>2024-05-11T14:19:17Z</time>
</trkpt>
<trkpt lat="49.7279548086226" lon="9.437814680859448">
<ele>310</ele>
<time>2024-05-11T14:19:18Z</time>
</trkpt>
<trkpt lat="49.72788993269205" lon="9.437734549865128">
<ele>309.8</ele>
<time>2024-05-11T14:19:19Z</time>
</trkpt>
<trkpt lat="49.72783653996885" lon="9.437656346708536">
<ele>309.8</ele>
<time>2024-05-11T14:19:20Z</time>
</trkpt>
<trkpt lat="49.72777937538922" lon="9.437582921236752">
<ele>309.6</ele>
<time>2024-05-11T14:19:21Z</time>
</trkpt>
<trkpt lat="49.727725982666016" lon="9.4375114236027">
<ele>309.6</ele>
<time>2024-05-11T14:19:22Z</time>
</trkpt>
<trkpt lat="49.72767250612378" lon="9.437439842149615">
<ele>309.6</ele>
<time>2024-05-11T14:19:23Z</time>
</trkpt>
<trkpt lat="49.72761911340058" lon="9.437366416677833">
<ele>309.6</ele>
<time>2024-05-11T14:19:24Z</time>
</trkpt>
<trkpt lat="49.727565720677376" lon="9.437296846881509">
<ele>309.4</ele>
<time>2024-05-11T14:19:25Z</time>
</trkpt>
<trkpt lat="49.72751232795417" lon="9.437226271256804">
<ele>309.4</ele>
<time>2024-05-11T14:19:26Z</time>
</trkpt>
<trkpt lat="49.72745893523097" lon="9.437158545479178">
<ele>309.4</ele>
<time>2024-05-11T14:19:27Z</time>
</trkpt>
<trkpt lat="49.727409314364195" lon="9.43709366954863">
<ele>309.2</ele>
<time>2024-05-11T14:19:28Z</time>
</trkpt>
<trkpt lat="49.72735969349742" lon="9.437027871608734">
<ele>309</ele>
<time>2024-05-11T14:19:29Z</time>
</trkpt>
<trkpt lat="49.72731015644968" lon="9.436966851353644">
<ele>309</ele>
<time>2024-05-11T14:19:30Z</time>
</trkpt>
<trkpt lat="49.72726439125836" lon="9.436906753107904">
<ele>308.8</ele>
<time>2024-05-11T14:19:31Z</time>
</trkpt>
<trkpt lat="49.72721862606704" lon="9.436851432546971">
<ele>308.8</ele>
<time>2024-05-11T14:19:32Z</time>
</trkpt>
<trkpt lat="49.72717663273215" lon="9.436795189976692">
<ele>308.6</ele>
<time>2024-05-11T14:19:33Z</time>
</trkpt>
<trkpt lat="49.72713849507272" lon="9.43674372509122">
<ele>308.6</ele>
<time>2024-05-11T14:19:34Z</time>
</trkpt>
<trkpt lat="49.72709650173783" lon="9.436691254377363">
<ele>308.6</ele>
<time>2024-05-11T14:19:35Z</time>
</trkpt>
<trkpt lat="49.727054592221975" lon="9.43664356134832">
<ele>308.4</ele>
<time>2024-05-11T14:19:36Z</time>
</trkpt>
<trkpt lat="49.72701637074351" lon="9.436594946309924">
<ele>308.4</ele>
<time>2024-05-11T14:19:37Z</time>
</trkpt>
<trkpt lat="49.72697823308408" lon="9.436550103127956">
<ele>308.4</ele>
<time>2024-05-11T14:19:38Z</time>
</trkpt>
<trkpt lat="49.72694009542465" lon="9.436505259945989">
<ele>308.4</ele>
<time>2024-05-11T14:19:39Z</time>
</trkpt>
<trkpt lat="49.72690195776522" lon="9.436459494754672">
<ele>308.4</ele>
<time>2024-05-11T14:19:40Z</time>
</trkpt>
<trkpt lat="49.72686767578125" lon="9.436413729563355">
<ele>308.4</ele>
<time>2024-05-11T14:19:41Z</time>
</trkpt>
<trkpt lat="49.72682945430279" lon="9.436366958543658">
<ele>308.4</ele>
<time>2024-05-11T14:19:42Z</time>
</trkpt>
<trkpt lat="49.72679131664336" lon="9.436318343505263">
<ele>308.4</ele>
<time>2024-05-11T14:19:43Z</time>
</trkpt>
<trkpt lat="49.72675317898393" lon="9.436269728466868">
<ele>308.4</ele>
<time>2024-05-11T14:19:44Z</time>
</trkpt>
<trkpt lat="49.726715041324496" lon="9.436218179762363">
<ele>308.4</ele>
<time>2024-05-11T14:19:45Z</time>
</trkpt>
<trkpt lat="49.72667304798961" lon="9.43616478703916">
<ele>308.4</ele>
<time>2024-05-11T14:19:46Z</time>
</trkpt>
<trkpt lat="49.72662728279829" lon="9.436109466478229">
<ele>308.2</ele>
<time>2024-05-11T14:19:47Z</time>
</trkpt>
<trkpt lat="49.726581517606974" lon="9.436055151745675">
<ele>308.2</ele>
<time>2024-05-11T14:19:48Z</time>
</trkpt>
<trkpt lat="49.72653960809112" lon="9.435997903347015">
<ele>308.2</ele>
<time>2024-05-11T14:19:49Z</time>
</trkpt>
<trkpt lat="49.72648998722434" lon="9.435941660776734">
<ele>308</ele>
<time>2024-05-11T14:19:50Z</time>
</trkpt>
<trkpt lat="49.726444222033024" lon="9.435883490368724">
<ele>308</ele>
<time>2024-05-11T14:19:51Z</time>
</trkpt>
<trkpt lat="49.72639460116625" lon="9.435825319960712">
<ele>307.8</ele>
<time>2024-05-11T14:19:52Z</time>
</trkpt>
<trkpt lat="49.72634883597493" lon="9.435763293877244">
<ele>307.8</ele>
<time>2024-05-11T14:19:53Z</time>
</trkpt>
<trkpt lat="49.726303070783615" lon="9.435701351612806">
<ele>307.6</ele>
<time>2024-05-11T14:19:54Z</time>
</trkpt>
<trkpt lat="49.7262573055923" lon="9.435640331357718">
<ele>307.6</ele>
<time>2024-05-11T14:19:55Z</time>
</trkpt>
<trkpt lat="49.72621154040098" lon="9.435578305274248">
<ele>307.6</ele>
<time>2024-05-11T14:19:56Z</time>
</trkpt>
<trkpt lat="49.72616954706609" lon="9.43551627919078">
<ele>307.6</ele>
<time>2024-05-11T14:19:57Z</time>
</trkpt>
<trkpt lat="49.7261275537312" lon="9.435453414916992">
<ele>307.6</ele>
<time>2024-05-11T14:19:58Z</time>
</trkpt>
<trkpt lat="49.726085644215345" lon="9.435388538986444">
<ele>307.6</ele>
<time>2024-05-11T14:19:59Z</time>
</trkpt>
<trkpt lat="49.726047506555915" lon="9.43531989119947">
<ele>307.6</ele>
<time>2024-05-11T14:20:00Z</time>
</trkpt>
<trkpt lat="49.72600936889648" lon="9.435251159593465">
<ele>307.8</ele>
<time>2024-05-11T14:20:01Z</time>
</trkpt>
<trkpt lat="49.72597114741802" lon="9.435183517634869">
<ele>308</ele>
<time>2024-05-11T14:20:02Z</time>
</trkpt>
<trkpt lat="49.72593300975859" lon="9.435114786028862">
<ele>308</ele>
<time>2024-05-11T14:20:03Z</time>
</trkpt>
<trkpt lat="49.72589487209916" lon="9.435043288394809">
<ele>308</ele>
<time>2024-05-11T14:20:04Z</time>
</trkpt>
<trkpt lat="49.72585673443973" lon="9.434973634779452">
<ele>308</ele>
<time>2024-05-11T14:20:05Z</time>
</trkpt>
<trkpt lat="49.7258185967803" lon="9.43490020930767">
<ele>308</ele>
<time>2024-05-11T14:20:06Z</time>
</trkpt>
<trkpt lat="49.7257842309773" lon="9.434829633682966">
<ele>308</ele>
<time>2024-05-11T14:20:07Z</time>
</trkpt>
<trkpt lat="49.725746093317866" lon="9.434756208211184">
<ele>308</ele>
<time>2024-05-11T14:20:08Z</time>
</trkpt>
<trkpt lat="49.72570795565843" lon="9.434679932892324">
<ele>308</ele>
<time>2024-05-11T14:20:09Z</time>
</trkpt>
<trkpt lat="49.725669817999005" lon="9.43460457958281">
<ele>307.8</ele>
<time>2024-05-11T14:20:10Z</time>
</trkpt>
<trkpt lat="49.72562782466411" lon="9.43453023210168">
<ele>307.8</ele>
<time>2024-05-11T14:20:11Z</time>
</trkpt>
<trkpt lat="49.725589687004685" lon="9.434452028945088">
<ele>307.6</ele>
<time>2024-05-11T14:20:12Z</time>
</trkpt>
<trkpt lat="49.725551549345255" lon="9.434372819960116">
<ele>307.4</ele>
<time>2024-05-11T14:20:13Z</time>
</trkpt>
<trkpt lat="49.7255096398294" lon="9.434296544641256">
<ele>307.2</ele>
<time>2024-05-11T14:20:14Z</time>
</trkpt>
<trkpt lat="49.725471418350935" lon="9.434218341484666">
<ele>307</ele>
<time>2024-05-11T14:20:15Z</time>
</trkpt>
<trkpt lat="49.725433280691504" lon="9.434140138328075">
<ele>306.8</ele>
<time>2024-05-11T14:20:16Z</time>
</trkpt>
<trkpt lat="49.725395143032074" lon="9.434061935171483">
<ele>306.4</ele>
<time>2024-05-11T14:20:17Z</time>
</trkpt>
<trkpt lat="49.72535700537264" lon="9.433984737843277">
<ele>306.2</ele>
<time>2024-05-11T14:20:18Z</time>
</trkpt>
<trkpt lat="49.725315012037754" lon="9.433908462524414">
<ele>306</ele>
<time>2024-05-11T14:20:19Z</time>
</trkpt>
<trkpt lat="49.72527687437832" lon="9.433833109214902">
<ele>305.8</ele>
<time>2024-05-11T14:20:20Z</time>
</trkpt>
<trkpt lat="49.725234964862466" lon="9.43375675007701">
<ele>305.4</ele>
<time>2024-05-11T14:20:21Z</time>
</trkpt>
<trkpt lat="49.725196827203035" lon="9.43367854692042">
<ele>305.2</ele>
<time>2024-05-11T14:20:22Z</time>
</trkpt>
<trkpt lat="49.72515106201172" lon="9.433600343763828">
<ele>305</ele>
<time>2024-05-11T14:20:23Z</time>
</trkpt>
<trkpt lat="49.72510906867683" lon="9.433521218597887">
<ele>304.8</ele>
<time>2024-05-11T14:20:24Z</time>
</trkpt>
<trkpt lat="49.72506707534194" lon="9.433443015441298">
<ele>304.6</ele>
<time>2024-05-11T14:20:25Z</time>
</trkpt>
<trkpt lat="49.72502516582608" lon="9.433364812284708">
<ele>304.4</ele>
<time>2024-05-11T14:20:26Z</time>
</trkpt>
<trkpt lat="49.724979400634766" lon="9.433286609128118">
<ele>304.2</ele>
<time>2024-05-11T14:20:27Z</time>
</trkpt>
<trkpt lat="49.72493355162442" lon="9.433206478133798">
<ele>304</ele>
<time>2024-05-11T14:20:28Z</time>
</trkpt>
<trkpt lat="49.7248877864331" lon="9.43312450312078">
<ele>303.8</ele>
<time>2024-05-11T14:20:29Z</time>
</trkpt>
<trkpt lat="49.724842021241784" lon="9.433039594441652">
<ele>303.4</ele>
<time>2024-05-11T14:20:30Z</time>
</trkpt>
<trkpt lat="49.724800027906895" lon="9.432956613600254">
<ele>303.2</ele>
<time>2024-05-11T14:20:31Z</time>
</trkpt>
<trkpt lat="49.72475049085915" lon="9.432871788740158">
<ele>303</ele>
<time>2024-05-11T14:20:32Z</time>
</trkpt>
<trkpt lat="49.724704725667834" lon="9.4327849522233">
<ele>302.8</ele>
<time>2024-05-11T14:20:33Z</time>
</trkpt>
<trkpt lat="49.72465510480106" lon="9.432698199525476">
<ele>302.8</ele>
<time>2024-05-11T14:20:34Z</time>
</trkpt>
<trkpt lat="49.72460933960974" lon="9.43261144682765">
<ele>302.6</ele>
<time>2024-05-11T14:20:35Z</time>
</trkpt>
<trkpt lat="49.72455971874297" lon="9.432524610310791">
<ele>302.2</ele>
<time>2024-05-11T14:20:36Z</time>
</trkpt>
<trkpt lat="49.72451018169522" lon="9.432437857612967">
<ele>302.2</ele>
<time>2024-05-11T14:20:37Z</time>
</trkpt>
<trkpt lat="49.724464416503906" lon="9.43235294893384">
<ele>302</ele>
<time>2024-05-11T14:20:38Z</time>
</trkpt>
<trkpt lat="49.72441479563713" lon="9.432266196236014">
<ele>301.8</ele>
<time>2024-05-11T14:20:39Z</time>
</trkpt>
<trkpt lat="49.724369030445814" lon="9.432178437709808">
<ele>301.8</ele>
<time>2024-05-11T14:20:40Z</time>
</trkpt>
<trkpt lat="49.72431940957904" lon="9.432091685011985">
<ele>301.6</ele>
<time>2024-05-11T14:20:41Z</time>
</trkpt>
<trkpt lat="49.72427364438772" lon="9.432006776332855">
<ele>301.4</ele>
<time>2024-05-11T14:20:42Z</time>
</trkpt>
<trkpt lat="49.724227879196405" lon="9.43192195147276">
<ele>301.2</ele>
<time>2024-05-11T14:20:43Z</time>
</trkpt>
<trkpt lat="49.72418211400509" lon="9.43183796480298">
<ele>301</ele>
<time>2024-05-11T14:20:44Z</time>
</trkpt>
<trkpt lat="49.7241401206702" lon="9.431756911799312">
<ele>300.8</ele>
<time>2024-05-11T14:20:45Z</time>
</trkpt>
<trkpt lat="49.72409812733531" lon="9.431676864624023">
<ele>300.6</ele>
<time>2024-05-11T14:20:46Z</time>
</trkpt>
<trkpt lat="49.72405998967588" lon="9.431598661467431">
<ele>300.4</ele>
<time>2024-05-11T14:20:47Z</time>
</trkpt>
<trkpt lat="49.72402185201645" lon="9.43152515217662">
<ele>300.2</ele>
<time>2024-05-11T14:20:48Z</time>
</trkpt>
<trkpt lat="49.72398371435702" lon="9.431453654542564">
<ele>300.2</ele>
<time>2024-05-11T14:20:49Z</time>
</trkpt>
<trkpt lat="49.72394943237305" lon="9.43138500675559">
<ele>300</ele>
<time>2024-05-11T14:20:50Z</time>
</trkpt>
<trkpt lat="49.72391506657005" lon="9.431318202987311">
<ele>300</ele>
<time>2024-05-11T14:20:51Z</time>
</trkpt>
<trkpt lat="49.72388070076704" lon="9.431258188560603">
<ele>300</ele>
<time>2024-05-11T14:20:52Z</time>
</trkpt>
<trkpt lat="49.723850190639496" lon="9.431198090314863">
<ele>300</ele>
<time>2024-05-11T14:20:53Z</time>
</trkpt>
<trkpt lat="49.72381968051195" lon="9.431139919906856">
<ele>300.2</ele>
<time>2024-05-11T14:20:54Z</time>
</trkpt>
<trkpt lat="49.72378917038441" lon="9.431083677336574">
<ele>300.2</ele>
<time>2024-05-11T14:20:55Z</time>
</trkpt>
<trkpt lat="49.72375866025686" lon="9.43102835677564">
<ele>300.2</ele>
<time>2024-05-11T14:20:56Z</time>
</trkpt>
<trkpt lat="49.723731921985745" lon="9.430974880233409">
<ele>300.4</ele>
<time>2024-05-11T14:20:57Z</time>
</trkpt>
<trkpt lat="49.72370526753366" lon="9.430921487510204">
<ele>300.4</ele>
<time>2024-05-11T14:20:58Z</time>
</trkpt>
<trkpt lat="49.72367852926254" lon="9.430870022624733">
<ele>300.4</ele>
<time>2024-05-11T14:20:59Z</time>
</trkpt>
<trkpt lat="49.723648019135" lon="9.430820401757956">
<ele>300.4</ele>
<time>2024-05-11T14:21:00Z</time>
</trkpt>
<trkpt lat="49.72362513653934" lon="9.430767009034753">
<ele>300.6</ele>
<time>2024-05-11T14:21:01Z</time>
</trkpt>
<trkpt lat="49.72359839826822" lon="9.43071361631155">
<ele>300.6</ele>
<time>2024-05-11T14:21:02Z</time>
</trkpt>
<trkpt lat="49.72357174381614" lon="9.430662151426075">
<ele>300.6</ele>
<time>2024-05-11T14:21:03Z</time>
</trkpt>
<trkpt lat="49.72354123368859" lon="9.430609680712225">
<ele>300.8</ele>
<time>2024-05-11T14:21:04Z</time>
</trkpt>
<trkpt lat="49.72351449541747" lon="9.430558132007718">
<ele>300.8</ele>
<time>2024-05-11T14:21:05Z</time>
</trkpt>
<trkpt lat="49.72348398528993" lon="9.430508594959974">
<ele>301</ele>
<time>2024-05-11T14:21:06Z</time>
</trkpt>
<trkpt lat="49.72345347516239" lon="9.430459896102548">
<ele>301</ele>
<time>2024-05-11T14:21:07Z</time>
</trkpt>
<trkpt lat="49.72342673689127" lon="9.430410359054804">
<ele>301</ele>
<time>2024-05-11T14:21:08Z</time>
</trkpt>
<trkpt lat="49.723396226763725" lon="9.43035788834095">
<ele>301</ele>
<time>2024-05-11T14:21:09Z</time>
</trkpt>
<trkpt lat="49.72336957231164" lon="9.430308267474174">
<ele>301.2</ele>
<time>2024-05-11T14:21:10Z</time>
</trkpt>
<trkpt lat="49.723339062184095" lon="9.430254874750972">
<ele>301.4</ele>
<time>2024-05-11T14:21:11Z</time>
</trkpt>
<trkpt lat="49.72330855205655" lon="9.430205337703228">
<ele>301.6</ele>
<time>2024-05-11T14:21:12Z</time>
</trkpt>
<trkpt lat="49.723281813785434" lon="9.4301566388458">
<ele>301.6</ele>
<time>2024-05-11T14:21:13Z</time>
</trkpt>
<trkpt lat="49.72325507551432" lon="9.430107101798058">
<ele>301.8</ele>
<time>2024-05-11T14:21:14Z</time>
</trkpt>
<trkpt lat="49.72322456538677" lon="9.430056558921931">
<ele>302</ele>
<time>2024-05-11T14:21:15Z</time>
</trkpt>
<trkpt lat="49.72319405525923" lon="9.430005010217428">
<ele>302.2</ele>
<time>2024-05-11T14:21:16Z</time>
</trkpt>
<trkpt lat="49.72316740080714" lon="9.429953545331957">
<ele>302.4</ele>
<time>2024-05-11T14:21:17Z</time>
</trkpt>
<trkpt lat="49.7231368906796" lon="9.429900152608752">
<ele>302.6</ele>
<time>2024-05-11T14:21:18Z</time>
</trkpt>
<trkpt lat="49.72311015240848" lon="9.42984675988555">
<ele>302.8</ele>
<time>2024-05-11T14:21:19Z</time>
</trkpt>
<trkpt lat="49.72308341413736" lon="9.429798061028125">
<ele>303</ele>
<time>2024-05-11T14:21:20Z</time>
</trkpt>
<trkpt lat="49.72305675968528" lon="9.429750367999077">
<ele>303.2</ele>
<time>2024-05-11T14:21:21Z</time>
</trkpt>
<trkpt lat="49.72303002141416" lon="9.429701752960682">
<ele>303.4</ele>
<time>2024-05-11T14:21:22Z</time>
</trkpt>
<trkpt lat="49.723003366962075" lon="9.429653137922289">
<ele>303.6</ele>
<time>2024-05-11T14:21:23Z</time>
</trkpt>
<trkpt lat="49.72297662869096" lon="9.42960636690259">
<ele>304</ele>
<time>2024-05-11T14:21:24Z</time>
</trkpt>
<trkpt lat="49.72294997423887" lon="9.429558673873544">
<ele>304</ele>
<time>2024-05-11T14:21:25Z</time>
</trkpt>
<trkpt lat="49.722923235967755" lon="9.429512908682227">
<ele>304.2</ele>
<time>2024-05-11T14:21:26Z</time>
</trkpt>
<trkpt lat="49.72289649769664" lon="9.429466221481562">
<ele>304.4</ele>
<time>2024-05-11T14:21:27Z</time>
</trkpt>
<trkpt lat="49.72286984324455" lon="9.429420456290243">
<ele>304.6</ele>
<time>2024-05-11T14:21:28Z</time>
</trkpt>
<trkpt lat="49.722843104973435" lon="9.429373685270548">
<ele>304.8</ele>
<time>2024-05-11T14:21:29Z</time>
</trkpt>
<trkpt lat="49.72281645052135" lon="9.429325070232151">
<ele>305</ele>
<time>2024-05-11T14:21:30Z</time>
</trkpt>
<trkpt lat="49.72278971225023" lon="9.429278299212456">
<ele>305.2</ele>
<time>2024-05-11T14:21:31Z</time>
</trkpt>
<trkpt lat="49.72276305779815" lon="9.42922968417406">
<ele>305.4</ele>
<time>2024-05-11T14:21:32Z</time>
</trkpt>
<trkpt lat="49.72273631952703" lon="9.429182996973395">
<ele>305.4</ele>
<time>2024-05-11T14:21:33Z</time>
</trkpt>
<trkpt lat="49.72270958125591" lon="9.429136225953698">
<ele>305.6</ele>
<time>2024-05-11T14:21:34Z</time>
</trkpt>
<trkpt lat="49.722686698660254" lon="9.42909138277173">
<ele>305.6</ele>
<time>2024-05-11T14:21:35Z</time>
</trkpt>
<trkpt lat="49.72266004420817" lon="9.429048467427492">
<ele>305.8</ele>
<time>2024-05-11T14:21:36Z</time>
</trkpt>
<trkpt lat="49.72263716161251" lon="9.429004630073903">
<ele>305.8</ele>
<time>2024-05-11T14:21:37Z</time>
</trkpt>
<trkpt lat="49.72261427901685" lon="9.428959786891935">
<ele>306</ele>
<time>2024-05-11T14:21:38Z</time>
</trkpt>
<trkpt lat="49.722591396421194" lon="9.4289168715477">
<ele>306</ele>
<time>2024-05-11T14:21:39Z</time>
</trkpt>
<trkpt lat="49.722568430006504" lon="9.428872028365731">
<ele>306.2</ele>
<time>2024-05-11T14:21:40Z</time>
</trkpt>
<trkpt lat="49.722545547410846" lon="9.428828191012144">
<ele>306.4</ele>
<time>2024-05-11T14:21:41Z</time>
</trkpt>
<trkpt lat="49.72251889295876" lon="9.428786197677256">
<ele>306.6</ele>
<time>2024-05-11T14:21:42Z</time>
</trkpt>
<trkpt lat="49.7224960103631" lon="9.42874143831432">
<ele>306.6</ele>
<time>2024-05-11T14:21:43Z</time>
</trkpt>
<trkpt lat="49.72247312776744" lon="9.428696595132353">
<ele>306.8</ele>
<time>2024-05-11T14:21:44Z</time>
</trkpt>
<trkpt lat="49.722450245171785" lon="9.428651751950383">
<ele>307</ele>
<time>2024-05-11T14:21:45Z</time>
</trkpt>
<trkpt lat="49.72242736257613" lon="9.428607914596796">
<ele>307.2</ele>
<time>2024-05-11T14:21:46Z</time>
</trkpt>
<trkpt lat="49.72240447998047" lon="9.428564999252558">
<ele>307.2</ele>
<time>2024-05-11T14:21:47Z</time>
</trkpt>
<trkpt lat="49.72238536924124" lon="9.42852208390832">
<ele>307.4</ele>
<time>2024-05-11T14:21:48Z</time>
</trkpt>
<trkpt lat="49.72236625850201" lon="9.428476318717005">
<ele>307.4</ele>
<time>2024-05-11T14:21:49Z</time>
</trkpt>
<trkpt lat="49.72234723158181" lon="9.428431475535035">
<ele>307.6</ele>
<time>2024-05-11T14:21:50Z</time>
</trkpt>
<trkpt lat="49.722328120842576" lon="9.428386632353067">
<ele>307.6</ele>
<time>2024-05-11T14:21:51Z</time>
</trkpt>
<trkpt lat="49.72230909392238" lon="9.4283417891711">
<ele>307.8</ele>
<time>2024-05-11T14:21:52Z</time>
</trkpt>
<trkpt lat="49.72229383885861" lon="9.428299879655242">
<ele>307.8</ele>
<time>2024-05-11T14:21:53Z</time>
</trkpt>
<trkpt lat="49.72227472811937" lon="9.428257886320353">
<ele>307.8</ele>
<time>2024-05-11T14:21:54Z</time>
</trkpt>
<trkpt lat="49.722255701199174" lon="9.428216898813844">
<ele>307.8</ele>
<time>2024-05-11T14:21:55Z</time>
</trkpt>
<trkpt lat="49.72223659045994" lon="9.428172055631876">
<ele>307.8</ele>
<time>2024-05-11T14:21:56Z</time>
</trkpt>
<trkpt lat="49.72222133539617" lon="9.42812629044056">
<ele>307.8</ele>
<time>2024-05-11T14:21:57Z</time>
</trkpt>
<trkpt lat="49.7222060803324" lon="9.428079603239894">
<ele>307.8</ele>
<time>2024-05-11T14:21:58Z</time>
</trkpt>
<trkpt lat="49.72218696959317" lon="9.428032832220197">
<ele>307.8</ele>
<time>2024-05-11T14:21:59Z</time>
</trkpt>
<trkpt lat="49.72216794267297" lon="9.42798706702888">
<ele>308</ele>
<time>2024-05-11T14:22:00Z</time>
</trkpt>
<trkpt lat="49.72214883193374" lon="9.427940296009185">
<ele>308</ele>
<time>2024-05-11T14:22:01Z</time>
</trkpt>
<trkpt lat="49.72212594933808" lon="9.427893608808516">
<ele>308.2</ele>
<time>2024-05-11T14:22:02Z</time>
</trkpt>
<trkpt lat="49.72210692241788" lon="9.427844993770124">
<ele>308.4</ele>
<time>2024-05-11T14:22:03Z</time>
</trkpt>
<trkpt lat="49.72208403982222" lon="9.427800150588157">
<ele>308.4</ele>
<time>2024-05-11T14:22:04Z</time>
</trkpt>
<trkpt lat="49.72206492908299" lon="9.42775153554976">
<ele>308.6</ele>
<time>2024-05-11T14:22:05Z</time>
</trkpt>
<trkpt lat="49.72204204648733" lon="9.427701914682984">
<ele>308.8</ele>
<time>2024-05-11T14:22:06Z</time>
</trkpt>
<trkpt lat="49.72201916389167" lon="9.42765137180686">
<ele>309</ele>
<time>2024-05-11T14:22:07Z</time>
</trkpt>
<trkpt lat="49.72200005315244" lon="9.427601750940084">
<ele>309</ele>
<time>2024-05-11T14:22:08Z</time>
</trkpt>
<trkpt lat="49.721977170556784" lon="9.427550286054611">
<ele>309.2</ele>
<time>2024-05-11T14:22:09Z</time>
</trkpt>
<trkpt lat="49.721958143636584" lon="9.427499743178489">
<ele>309.2</ele>
<time>2024-05-11T14:22:10Z</time>
</trkpt>
<trkpt lat="49.72193140536547" lon="9.427448194473982">
<ele>309.4</ele>
<time>2024-05-11T14:22:11Z</time>
</trkpt>
<trkpt lat="49.72190852276981" lon="9.42739295773208">
<ele>309.6</ele>
<time>2024-05-11T14:22:12Z</time>
</trkpt>
<trkpt lat="49.72188564017415" lon="9.427338559180498">
<ele>309.6</ele>
<time>2024-05-11T14:22:13Z</time>
</trkpt>
<trkpt lat="49.72186652943492" lon="9.427281310781837">
<ele>309.8</ele>
<time>2024-05-11T14:22:14Z</time>
</trkpt>
<trkpt lat="49.721839874982834" lon="9.427227918058634">
<ele>310</ele>
<time>2024-05-11T14:22:15Z</time>
</trkpt>
<trkpt lat="49.72181313671172" lon="9.427173603326082">
<ele>310</ele>
<time>2024-05-11T14:22:16Z</time>
</trkpt>
<trkpt lat="49.72179025411606" lon="9.42711635492742">
<ele>310.2</ele>
<time>2024-05-11T14:22:17Z</time>
</trkpt>
<trkpt lat="49.7217673715204" lon="9.42706011235714">
<ele>310.4</ele>
<time>2024-05-11T14:22:18Z</time>
</trkpt>
<trkpt lat="49.72174448892474" lon="9.427002863958478">
<ele>310.4</ele>
<time>2024-05-11T14:22:19Z</time>
</trkpt>
<trkpt lat="49.72172160632908" lon="9.426944693550467">
<ele>310.6</ele>
<time>2024-05-11T14:22:20Z</time>
</trkpt>
<trkpt lat="49.721698723733425" lon="9.426888450980186">
<ele>310.8</ele>
<time>2024-05-11T14:22:21Z</time>
</trkpt>
<trkpt lat="49.72167584113777" lon="9.426833130419254">
<ele>311.2</ele>
<time>2024-05-11T14:22:22Z</time>
</trkpt>
<trkpt lat="49.72165295854211" lon="9.426776804029942">
<ele>311.4</ele>
<time>2024-05-11T14:22:23Z</time>
</trkpt>
<trkpt lat="49.72163007594645" lon="9.42672156728804">
<ele>311.6</ele>
<time>2024-05-11T14:22:24Z</time>
</trkpt>
<trkpt lat="49.72160719335079" lon="9.426666246727107">
<ele>311.8</ele>
<time>2024-05-11T14:22:25Z</time>
</trkpt>
<trkpt lat="49.721584310755134" lon="9.426611848175526">
<ele>312</ele>
<time>2024-05-11T14:22:26Z</time>
</trkpt>
<trkpt lat="49.721561428159475" lon="9.426554599776864">
<ele>312.4</ele>
<time>2024-05-11T14:22:27Z</time>
</trkpt>
<trkpt lat="49.72153468988836" lon="9.426500285044312">
<ele>312.6</ele>
<time>2024-05-11T14:22:28Z</time>
</trkpt>
<trkpt lat="49.7215118072927" lon="9.42644689232111">
<ele>312.8</ele>
<time>2024-05-11T14:22:29Z</time>
</trkpt>
<trkpt lat="49.72148892469704" lon="9.426395343616605">
<ele>313</ele>
<time>2024-05-11T14:22:30Z</time>
</trkpt>
<trkpt lat="49.72146218642592" lon="9.426342956721784">
<ele>313.2</ele>
<time>2024-05-11T14:22:31Z</time>
</trkpt>
<trkpt lat="49.721443159505725" lon="9.426293335855007">
<ele>313.4</ele>
<time>2024-05-11T14:22:32Z</time>
</trkpt>
<trkpt lat="49.72142027691007" lon="9.426243714988232">
<ele>313.6</ele>
<time>2024-05-11T14:22:33Z</time>
</trkpt>
<trkpt lat="49.721401166170835" lon="9.426193172112107">
<ele>313.8</ele>
<time>2024-05-11T14:22:34Z</time>
</trkpt>
<trkpt lat="49.72137828357518" lon="9.426139779388905">
<ele>313.8</ele>
<time>2024-05-11T14:22:35Z</time>
</trkpt>
<trkpt lat="49.721359172835946" lon="9.426088314503431">
<ele>314</ele>
<time>2024-05-11T14:22:36Z</time>
</trkpt>
<trkpt lat="49.72133629024029" lon="9.426034921780229">
<ele>314</ele>
<time>2024-05-11T14:22:37Z</time>
</trkpt>
<trkpt lat="49.72131340764463" lon="9.425981445237994">
<ele>314</ele>
<time>2024-05-11T14:22:38Z</time>
</trkpt>
<trkpt lat="49.721286753192544" lon="9.425928052514791">
<ele>314</ele>
<time>2024-05-11T14:22:39Z</time>
</trkpt>
<trkpt lat="49.721263870596886" lon="9.42587373778224">
<ele>314.2</ele>
<time>2024-05-11T14:22:40Z</time>
</trkpt>
<trkpt lat="49.72124098800123" lon="9.425820345059035">
<ele>314.2</ele>
<time>2024-05-11T14:22:41Z</time>
</trkpt>
<trkpt lat="49.72121810540557" lon="9.425767874345183">
<ele>314.4</ele>
<time>2024-05-11T14:22:42Z</time>
</trkpt>
<trkpt lat="49.72119513899088" lon="9.4257134757936">
<ele>314.4</ele>
<time>2024-05-11T14:22:43Z</time>
</trkpt>
<trkpt lat="49.72117225639522" lon="9.425660083070396">
<ele>314.6</ele>
<time>2024-05-11T14:22:44Z</time>
</trkpt>
<trkpt lat="49.72114937379956" lon="9.425604762509463">
<ele>314.6</ele>
<time>2024-05-11T14:22:45Z</time>
</trkpt>
<trkpt lat="49.721126491203904" lon="9.425548519939184">
<ele>314.6</ele>
<time>2024-05-11T14:22:46Z</time>
</trkpt>
<trkpt lat="49.72109983675182" lon="9.425491271540524">
<ele>314.8</ele>
<time>2024-05-11T14:22:47Z</time>
</trkpt>
<trkpt lat="49.72107695415616" lon="9.425433101132512">
<ele>314.8</ele>
<time>2024-05-11T14:22:48Z</time>
</trkpt>
<trkpt lat="49.7210540715605" lon="9.425374930724502">
<ele>314.8</ele>
<time>2024-05-11T14:22:49Z</time>
</trkpt>
<trkpt lat="49.721027333289385" lon="9.42531961016357">
<ele>314.8</ele>
<time>2024-05-11T14:22:50Z</time>
</trkpt>
<trkpt lat="49.72100445069373" lon="9.425265295431018">
<ele>314.8</ele>
<time>2024-05-11T14:22:51Z</time>
</trkpt>
<trkpt lat="49.72097771242261" lon="9.425209974870086">
<ele>314.8</ele>
<time>2024-05-11T14:22:52Z</time>
</trkpt>
<trkpt lat="49.72095482982695" lon="9.425153732299805">
<ele>315</ele>
<time>2024-05-11T14:22:53Z</time>
</trkpt>
<trkpt lat="49.720928175374866" lon="9.425094556063414">
<ele>315</ele>
<time>2024-05-11T14:22:54Z</time>
</trkpt>
<trkpt lat="49.72090143710375" lon="9.425036385655403">
<ele>315</ele>
<time>2024-05-11T14:22:55Z</time>
</trkpt>
<trkpt lat="49.72087855450809" lon="9.424975365400314">
<ele>314.8</ele>
<time>2024-05-11T14:22:56Z</time>
</trkpt>
<trkpt lat="49.72085181623697" lon="9.424913339316843">
<ele>314.8</ele>
<time>2024-05-11T14:22:57Z</time>
</trkpt>
<trkpt lat="49.720828933641315" lon="9.424855168908834">
<ele>314.8</ele>
<time>2024-05-11T14:22:58Z</time>
</trkpt>
<trkpt lat="49.72080227918923" lon="9.424798004329205">
<ele>315</ele>
<time>2024-05-11T14:22:59Z</time>
</trkpt>
<trkpt lat="49.72077554091811" lon="9.424739833921194">
<ele>315</ele>
<time>2024-05-11T14:23:00Z</time>
</trkpt>
<trkpt lat="49.720748886466026" lon="9.424681663513184">
<ele>315.2</ele>
<time>2024-05-11T14:23:01Z</time>
</trkpt>
<trkpt lat="49.72072214819491" lon="9.42462340928614">
<ele>315.2</ele>
<time>2024-05-11T14:23:02Z</time>
</trkpt>
<trkpt lat="49.720695493742824" lon="9.424563394859431">
<ele>315.2</ele>
<time>2024-05-11T14:23:03Z</time>
</trkpt>
<trkpt lat="49.720668755471706" lon="9.424503296613691">
<ele>315.2</ele>
<time>2024-05-11T14:23:04Z</time>
</trkpt>
<trkpt lat="49.72063824534416" lon="9.424441270530224">
<ele>315.2</ele>
<time>2024-05-11T14:23:05Z</time>
</trkpt>
<trkpt lat="49.720611507073045" lon="9.424380250275137">
<ele>315.2</ele>
<time>2024-05-11T14:23:06Z</time>
</trkpt>
<trkpt lat="49.72058485262096" lon="9.424318308010696">
<ele>315.2</ele>
<time>2024-05-11T14:23:07Z</time>
</trkpt>
<trkpt lat="49.72055811434984" lon="9.424258209764956">
<ele>315.2</ele>
<time>2024-05-11T14:23:08Z</time>
</trkpt>
<trkpt lat="49.7205276042223" lon="9.424200039356949">
<ele>315.2</ele>
<time>2024-05-11T14:23:09Z</time>
</trkpt>
<trkpt lat="49.72050086595118" lon="9.424141868948936">
<ele>315.2</ele>
<time>2024-05-11T14:23:10Z</time>
</trkpt>
<trkpt lat="49.720474211499095" lon="9.424081770703197">
<ele>315.2</ele>
<time>2024-05-11T14:23:11Z</time>
</trkpt>
<trkpt lat="49.72044370137155" lon="9.424021672457457">
<ele>315.2</ele>
<time>2024-05-11T14:23:12Z</time>
</trkpt>
<trkpt lat="49.720413191244006" lon="9.423958724364638">
<ele>315</ele>
<time>2024-05-11T14:23:13Z</time>
</trkpt>
<trkpt lat="49.72038645297289" lon="9.423898626118898">
<ele>315.2</ele>
<time>2024-05-11T14:23:14Z</time>
</trkpt>
<trkpt lat="49.7203597985208" lon="9.423841461539268">
<ele>315.2</ele>
<time>2024-05-11T14:23:15Z</time>
</trkpt>
<trkpt lat="49.720333060249686" lon="9.423785135149956">
<ele>315.4</ele>
<time>2024-05-11T14:23:16Z</time>
</trkpt>
<trkpt lat="49.72030632197857" lon="9.423727970570326">
<ele>315.4</ele>
<time>2024-05-11T14:23:17Z</time>
</trkpt>
<trkpt lat="49.72027966752648" lon="9.423671644181011">
<ele>315.4</ele>
<time>2024-05-11T14:23:18Z</time>
</trkpt>
<trkpt lat="49.720252929255366" lon="9.423616407439113">
<ele>315.4</ele>
<time>2024-05-11T14:23:19Z</time>
</trkpt>
<trkpt lat="49.72022627480328" lon="9.4235600810498">
<ele>315.4</ele>
<time>2024-05-11T14:23:20Z</time>
</trkpt>
<trkpt lat="49.720195764675736" lon="9.42350191064179">
<ele>315.6</ele>
<time>2024-05-11T14:23:21Z</time>
</trkpt>
<trkpt lat="49.72016902640462" lon="9.42344474606216">
<ele>315.6</ele>
<time>2024-05-11T14:23:22Z</time>
</trkpt>
<trkpt lat="49.7201422881335" lon="9.423391269519923">
<ele>315.6</ele>
<time>2024-05-11T14:23:23Z</time>
</trkpt>
<trkpt lat="49.72011177800596" lon="9.423339804634452">
<ele>315.8</ele>
<time>2024-05-11T14:23:24Z</time>
</trkpt>
<trkpt lat="49.72008512355387" lon="9.42328833974898">
<ele>315.8</ele>
<time>2024-05-11T14:23:25Z</time>
</trkpt>
<trkpt lat="49.720058385282755" lon="9.423236791044474">
<ele>315.8</ele>
<time>2024-05-11T14:23:26Z</time>
</trkpt>
<trkpt lat="49.72003173083067" lon="9.423185326159">
<ele>316</ele>
<time>2024-05-11T14:23:27Z</time>
</trkpt>
<trkpt lat="49.72000499255955" lon="9.423134783282876">
<ele>316.2</ele>
<time>2024-05-11T14:23:28Z</time>
</trkpt>
<trkpt lat="49.719978254288435" lon="9.42308709025383">
<ele>316.2</ele>
<time>2024-05-11T14:23:29Z</time>
</trkpt>
<trkpt lat="49.71995159983635" lon="9.423038475215437">
<ele>316.4</ele>
<time>2024-05-11T14:23:30Z</time>
</trkpt>
<trkpt lat="49.71992486156523" lon="9.42298793233931">
<ele>316.6</ele>
<time>2024-05-11T14:23:31Z</time>
</trkpt>
<trkpt lat="49.71989435143769" lon="9.422936383634806">
<ele>316.6</ele>
<time>2024-05-11T14:23:32Z</time>
</trkpt>
<trkpt lat="49.7198676969856" lon="9.422886846587062">
<ele>316.4</ele>
<time>2024-05-11T14:23:33Z</time>
</trkpt>
<trkpt lat="49.719840958714485" lon="9.422838147729635">
<ele>316.2</ele>
<time>2024-05-11T14:23:34Z</time>
</trkpt>
<trkpt lat="49.71981044858694" lon="9.42279146052897">
<ele>316.2</ele>
<time>2024-05-11T14:23:35Z</time>
</trkpt>
<trkpt lat="49.719783710315824" lon="9.422746617347002">
<ele>316.2</ele>
<time>2024-05-11T14:23:36Z</time>
</trkpt>
<trkpt lat="49.71975320018828" lon="9.422698002308609">
<ele>316.4</ele>
<time>2024-05-11T14:23:37Z</time>
</trkpt>
<trkpt lat="49.719726545736194" lon="9.422646453604102">
<ele>316.6</ele>
<time>2024-05-11T14:23:38Z</time>
</trkpt>
<trkpt lat="49.71969980746507" lon="9.422594988718629">
<ele>316.8</ele>
<time>2024-05-11T14:23:39Z</time>
</trkpt>
<trkpt lat="49.71966929733753" lon="9.422543523833156">
<ele>317</ele>
<time>2024-05-11T14:23:40Z</time>
</trkpt>
<trkpt lat="49.719642559066415" lon="9.42249197512865">
<ele>317.2</ele>
<time>2024-05-11T14:23:41Z</time>
</trkpt>
<trkpt lat="49.71961204893887" lon="9.422439504414797">
<ele>317.4</ele>
<time>2024-05-11T14:23:42Z</time>
</trkpt>
<trkpt lat="49.719581538811326" lon="9.422389967367051">
<ele>317.4</ele>
<time>2024-05-11T14:23:43Z</time>
</trkpt>
<trkpt lat="49.71955102868378" lon="9.422338418662548">
<ele>317.6</ele>
<time>2024-05-11T14:23:44Z</time>
</trkpt>
<trkpt lat="49.71952051855624" lon="9.422286953777077">
<ele>317.8</ele>
<time>2024-05-11T14:23:45Z</time>
</trkpt>
<trkpt lat="49.71949000842869" lon="9.42223641090095">
<ele>318</ele>
<time>2024-05-11T14:23:46Z</time>
</trkpt>
<trkpt lat="49.71945949830115" lon="9.422184862196444">
<ele>318.2</ele>
<time>2024-05-11T14:23:47Z</time>
</trkpt>
<trkpt lat="49.7194289881736" lon="9.422133397310972">
<ele>318.4</ele>
<time>2024-05-11T14:23:48Z</time>
</trkpt>
<trkpt lat="49.71939847804606" lon="9.4220819324255">
<ele>318.4</ele>
<time>2024-05-11T14:23:49Z</time>
</trkpt>
<trkpt lat="49.71937173977494" lon="9.422031389549376">
<ele>318.6</ele>
<time>2024-05-11T14:23:50Z</time>
</trkpt>
<trkpt lat="49.7193412296474" lon="9.4219817686826">
<ele>318.8</ele>
<time>2024-05-11T14:23:51Z</time>
</trkpt>
<trkpt lat="49.71931457519531" lon="9.421931225806476">
<ele>318.8</ele>
<time>2024-05-11T14:23:52Z</time>
</trkpt>
<trkpt lat="49.719283981248736" lon="9.4218816049397">
<ele>318.8</ele>
<time>2024-05-11T14:23:53Z</time>
</trkpt>
<trkpt lat="49.71925347112119" lon="9.421832067891955">
<ele>318.8</ele>
<time>2024-05-11T14:23:54Z</time>
</trkpt>
<trkpt lat="49.71922296099365" lon="9.421779597178102">
<ele>318.6</ele>
<time>2024-05-11T14:23:55Z</time>
</trkpt>
<trkpt lat="49.7191924508661" lon="9.421729976311326">
<ele>318.8</ele>
<time>2024-05-11T14:23:56Z</time>
</trkpt>
<trkpt lat="49.71916194073856" lon="9.421680439263582">
<ele>318.8</ele>
<time>2024-05-11T14:23:57Z</time>
</trkpt>
<trkpt lat="49.719131430611014" lon="9.421629896387458">
<ele>319</ele>
<time>2024-05-11T14:23:58Z</time>
</trkpt>
<trkpt lat="49.71910092048347" lon="9.421580275520682">
<ele>319.2</ele>
<time>2024-05-11T14:23:59Z</time>
</trkpt>
<trkpt lat="49.719070410355926" lon="9.421531660482287">
<ele>319.4</ele>
<time>2024-05-11T14:24:00Z</time>
</trkpt>
<trkpt lat="49.71904367208481" lon="9.421482039615512">
<ele>319.6</ele>
<time>2024-05-11T14:24:01Z</time>
</trkpt>
<trkpt lat="49.719013161957264" lon="9.421433424577115">
<ele>319.8</ele>
<time>2024-05-11T14:24:02Z</time>
</trkpt>
<trkpt lat="49.71898265182972" lon="9.421384809538722">
<ele>320</ele>
<time>2024-05-11T14:24:03Z</time>
</trkpt>
<trkpt lat="49.718952141702175" lon="9.421337116509676">
<ele>320</ele>
<time>2024-05-11T14:24:04Z</time>
</trkpt>
<trkpt lat="49.71892163157463" lon="9.421286573633552">
<ele>320.2</ele>
<time>2024-05-11T14:24:05Z</time>
</trkpt>
<trkpt lat="49.718891121447086" lon="9.421233097091315">
<ele>320.4</ele>
<time>2024-05-11T14:24:06Z</time>
</trkpt>
<trkpt lat="49.71886061131954" lon="9.421181632205844">
<ele>320.6</ele>
<time>2024-05-11T14:24:07Z</time>
</trkpt>
<trkpt lat="49.718830101192" lon="9.421132011339068">
<ele>320.6</ele>
<time>2024-05-11T14:24:08Z</time>
</trkpt>
<trkpt lat="49.71879959106445" lon="9.421086246147752">
<ele>320.6</ele>
<time>2024-05-11T14:24:09Z</time>
</trkpt>
<trkpt lat="49.71876522526145" lon="9.421041486784816">
<ele>320.8</ele>
<time>2024-05-11T14:24:10Z</time>
</trkpt>
<trkpt lat="49.718734715133905" lon="9.420996643602848">
<ele>321</ele>
<time>2024-05-11T14:24:11Z</time>
</trkpt>
<trkpt lat="49.71870420500636" lon="9.42095180042088">
<ele>321</ele>
<time>2024-05-11T14:24:12Z</time>
</trkpt>
<trkpt lat="49.71867369487882" lon="9.420907963067291">
<ele>321.2</ele>
<time>2024-05-11T14:24:13Z</time>
</trkpt>
<trkpt lat="49.71864318475127" lon="9.420863119885324">
<ele>321.4</ele>
<time>2024-05-11T14:24:14Z</time>
</trkpt>
<trkpt lat="49.718612590804696" lon="9.420818276703358">
<ele>321.4</ele>
<time>2024-05-11T14:24:15Z</time>
</trkpt>
<trkpt lat="49.71858208067715" lon="9.420771589502692">
<ele>321.6</ele>
<time>2024-05-11T14:24:16Z</time>
</trkpt>
<trkpt lat="49.71855157054961" lon="9.420724818482997">
<ele>321.8</ele>
<time>2024-05-11T14:24:17Z</time>
</trkpt>
<trkpt lat="49.71852491609752" lon="9.4206762034446">
<ele>322</ele>
<time>2024-05-11T14:24:18Z</time>
</trkpt>
<trkpt lat="49.71849440596998" lon="9.420631360262632">
<ele>322.2</ele>
<time>2024-05-11T14:24:19Z</time>
</trkpt>
<trkpt lat="49.718460040166974" lon="9.420586517080665">
<ele>322.4</ele>
<time>2024-05-11T14:24:20Z</time>
</trkpt>
<trkpt lat="49.71842953003943" lon="9.420541757717729">
<ele>322.6</ele>
<time>2024-05-11T14:24:21Z</time>
</trkpt>
<trkpt lat="49.718395164236426" lon="9.42049783654511">
<ele>322.8</ele>
<time>2024-05-11T14:24:22Z</time>
</trkpt>
<trkpt lat="49.71836850978434" lon="9.420452993363142">
<ele>323</ele>
<time>2024-05-11T14:24:23Z</time>
</trkpt>
<trkpt lat="49.71833414398134" lon="9.420408234000206">
<ele>323</ele>
<time>2024-05-11T14:24:24Z</time>
</trkpt>
<trkpt lat="49.71830363385379" lon="9.420366240665317">
<ele>323.2</ele>
<time>2024-05-11T14:24:25Z</time>
</trkpt>
<trkpt lat="49.71827312372625" lon="9.420323325321078">
<ele>323.2</ele>
<time>2024-05-11T14:24:26Z</time>
</trkpt>
<trkpt lat="49.71824638545513" lon="9.42027848213911">
<ele>323.4</ele>
<time>2024-05-11T14:24:27Z</time>
</trkpt>
<trkpt lat="49.71821587532759" lon="9.420234644785523">
<ele>323.4</ele>
<time>2024-05-11T14:24:28Z</time>
</trkpt>
<trkpt lat="49.71818536520004" lon="9.420194579288363">
<ele>323.4</ele>
<time>2024-05-11T14:24:29Z</time>
</trkpt>
<trkpt lat="49.7181548550725" lon="9.420149736106396">
<ele>323.4</ele>
<time>2024-05-11T14:24:30Z</time>
</trkpt>
<trkpt lat="49.718124344944954" lon="9.42010497674346">
<ele>323.4</ele>
<time>2024-05-11T14:24:31Z</time>
</trkpt>
<trkpt lat="49.71808997914195" lon="9.42006298340857">
<ele>323.6</ele>
<time>2024-05-11T14:24:32Z</time>
</trkpt>
<trkpt lat="49.718059469014406" lon="9.420020068064332">
<ele>323.6</ele>
<time>2024-05-11T14:24:33Z</time>
</trkpt>
<trkpt lat="49.71802895888686" lon="9.419978074729444">
<ele>323.6</ele>
<time>2024-05-11T14:24:34Z</time>
</trkpt>
<trkpt lat="49.71799844875932" lon="9.419938009232284">
<ele>323.6</ele>
<time>2024-05-11T14:24:35Z</time>
</trkpt>
<trkpt lat="49.71797179430723" lon="9.419897021725774">
<ele>323.8</ele>
<time>2024-05-11T14:24:36Z</time>
</trkpt>
<trkpt lat="49.71794128417969" lon="9.419856956228614">
<ele>323.8</ele>
<time>2024-05-11T14:24:37Z</time>
</trkpt>
<trkpt lat="49.71790691837669" lon="9.419815046712756">
<ele>323.8</ele>
<time>2024-05-11T14:24:38Z</time>
</trkpt>
<trkpt lat="49.71788018010557" lon="9.419771125540136">
<ele>323.8</ele>
<time>2024-05-11T14:24:39Z</time>
</trkpt>
<trkpt lat="49.71784966997802" lon="9.419730138033628">
<ele>323.8</ele>
<time>2024-05-11T14:24:40Z</time>
</trkpt>
<trkpt lat="49.71781538799405" lon="9.41968814469874">
<ele>323.8</ele>
<time>2024-05-11T14:24:41Z</time>
</trkpt>
<trkpt lat="49.71778487786651" lon="9.41964623518288">
<ele>324</ele>
<time>2024-05-11T14:24:42Z</time>
</trkpt>
<trkpt lat="49.71775428391993" lon="9.419603319838645">
<ele>324.2</ele>
<time>2024-05-11T14:24:43Z</time>
</trkpt>
<trkpt lat="49.717723773792386" lon="9.419561326503754">
<ele>324.4</ele>
<time>2024-05-11T14:24:44Z</time>
</trkpt>
<trkpt lat="49.71769326366484" lon="9.419518411159515">
<ele>324.6</ele>
<time>2024-05-11T14:24:45Z</time>
</trkpt>
<trkpt lat="49.7176627535373" lon="9.419474573805928">
<ele>324.6</ele>
<time>2024-05-11T14:24:46Z</time>
</trkpt>
<trkpt lat="49.71763224340975" lon="9.41943165846169">
<ele>324.8</ele>
<time>2024-05-11T14:24:47Z</time>
</trkpt>
<trkpt lat="49.71760173328221" lon="9.419388743117452">
<ele>325</ele>
<time>2024-05-11T14:24:48Z</time>
</trkpt>
<trkpt lat="49.717571223154664" lon="9.419344821944833">
<ele>325</ele>
<time>2024-05-11T14:24:49Z</time>
</trkpt>
<trkpt lat="49.71754071302712" lon="9.419302912428977">
<ele>325.2</ele>
<time>2024-05-11T14:24:50Z</time>
</trkpt>
<trkpt lat="49.717510202899575" lon="9.419261924922466">
<ele>325.4</ele>
<time>2024-05-11T14:24:51Z</time>
</trkpt>
<trkpt lat="49.71747969277203" lon="9.419219931587577">
<ele>325.4</ele>
<time>2024-05-11T14:24:52Z</time>
</trkpt>
<trkpt lat="49.717449182644486" lon="9.41917701624334">
<ele>325.6</ele>
<time>2024-05-11T14:24:53Z</time>
</trkpt>
<trkpt lat="49.71741858869791" lon="9.41913695074618">
<ele>325.8</ele>
<time>2024-05-11T14:24:54Z</time>
</trkpt>
<trkpt lat="49.717388078570366" lon="9.41909688524902">
<ele>326</ele>
<time>2024-05-11T14:24:55Z</time>
</trkpt>
<trkpt lat="49.71736142411828" lon="9.41905681975186">
<ele>326.2</ele>
<time>2024-05-11T14:24:56Z</time>
</trkpt>
<trkpt lat="49.717330913990736" lon="9.419018682092428">
<ele>326.4</ele>
<time>2024-05-11T14:24:57Z</time>
</trkpt>
<trkpt lat="49.71730417571962" lon="9.418978616595268">
<ele>326.6</ele>
<time>2024-05-11T14:24:58Z</time>
</trkpt>
<trkpt lat="49.717273665592074" lon="9.41893670707941">
<ele>326.8</ele>
<time>2024-05-11T14:24:59Z</time>
</trkpt>
<trkpt lat="49.71724315546453" lon="9.41889471374452">
<ele>327</ele>
<time>2024-05-11T14:25:00Z</time>
</trkpt>
<trkpt lat="49.717212645336986" lon="9.418851798400285">
<ele>327.2</ele>
<time>2024-05-11T14:25:01Z</time>
</trkpt>
<trkpt lat="49.71718213520944" lon="9.418805111199616">
<ele>327.4</ele>
<time>2024-05-11T14:25:02Z</time>
</trkpt>
<trkpt lat="49.71714776940644" lon="9.418761190027">
<ele>327.6</ele>
<time>2024-05-11T14:25:03Z</time>
</trkpt>
<trkpt lat="49.717113487422466" lon="9.418714502826331">
<ele>327.8</ele>
<time>2024-05-11T14:25:04Z</time>
</trkpt>
<trkpt lat="49.717075265944" lon="9.418666809797289">
<ele>328.2</ele>
<time>2024-05-11T14:25:05Z</time>
</trkpt>
<trkpt lat="49.717037128284574" lon="9.418616266921164">
<ele>328.2</ele>
<time>2024-05-11T14:25:06Z</time>
</trkpt>
<trkpt lat="49.71699899062514" lon="9.418569495901464">
<ele>328.4</ele>
<time>2024-05-11T14:25:07Z</time>
</trkpt>
<trkpt lat="49.716957081109285" lon="9.418519958853722">
<ele>328.4</ele>
<time>2024-05-11T14:25:08Z</time>
</trkpt>
<trkpt lat="49.7169150877744" lon="9.418468410149217">
<ele>328.4</ele>
<time>2024-05-11T14:25:09Z</time>
</trkpt>
<trkpt lat="49.71688072197139" lon="9.418416945263743">
<ele>328.4</ele>
<time>2024-05-11T14:25:10Z</time>
</trkpt>
<trkpt lat="49.71684258431196" lon="9.418365396559238">
<ele>328.4</ele>
<time>2024-05-11T14:25:11Z</time>
</trkpt>
<trkpt lat="49.71680444665253" lon="9.418312003836036">
<ele>328.6</ele>
<time>2024-05-11T14:25:12Z</time>
</trkpt>
<trkpt lat="49.716762537136674" lon="9.418256683275104">
<ele>328.8</ele>
<time>2024-05-11T14:25:13Z</time>
</trkpt>
<trkpt lat="49.716720543801785" lon="9.418199518695474">
<ele>328.8</ele>
<time>2024-05-11T14:25:14Z</time>
</trkpt>
<trkpt lat="49.71667092293501" lon="9.418141348287463">
<ele>329</ele>
<time>2024-05-11T14:25:15Z</time>
</trkpt>
<trkpt lat="49.71662515774369" lon="9.418083177879453">
<ele>329.2</ele>
<time>2024-05-11T14:25:16Z</time>
</trkpt>
<trkpt lat="49.716579392552376" lon="9.418025007471442">
<ele>329.4</ele>
<time>2024-05-11T14:25:17Z</time>
</trkpt>
<trkpt lat="49.7165297716856" lon="9.41796868108213">
<ele>329.4</ele>
<time>2024-05-11T14:25:18Z</time>
</trkpt>
<trkpt lat="49.71648400649429" lon="9.417913360521196">
<ele>329.4</ele>
<time>2024-05-11T14:25:19Z</time>
</trkpt>
<trkpt lat="49.71643446944654" lon="9.417855190113189">
<ele>329.4</ele>
<time>2024-05-11T14:25:20Z</time>
</trkpt>
<trkpt lat="49.71638484857976" lon="9.41779324784875">
<ele>329.4</ele>
<time>2024-05-11T14:25:21Z</time>
</trkpt>
<trkpt lat="49.71633908338845" lon="9.417730299755933">
<ele>329.4</ele>
<time>2024-05-11T14:25:22Z</time>
</trkpt>
<trkpt lat="49.71629331819713" lon="9.417668273672462">
<ele>329.2</ele>
<time>2024-05-11T14:25:23Z</time>
</trkpt>
<trkpt lat="49.71624369733035" lon="9.417606331408024">
<ele>329.2</ele>
<time>2024-05-11T14:25:24Z</time>
</trkpt>
<trkpt lat="49.71619793213904" lon="9.417546233162284">
<ele>329</ele>
<time>2024-05-11T14:25:25Z</time>
</trkpt>
<trkpt lat="49.71615216694772" lon="9.417486134916544">
<ele>329</ele>
<time>2024-05-11T14:25:26Z</time>
</trkpt>
<trkpt lat="49.71610254608095" lon="9.417427964508532">
<ele>328.8</ele>
<time>2024-05-11T14:25:27Z</time>
</trkpt>
<trkpt lat="49.7160530090332" lon="9.417366944253445">
<ele>328.8</ele>
<time>2024-05-11T14:25:28Z</time>
</trkpt>
<trkpt lat="49.71600338816643" lon="9.417304918169975">
<ele>328.8</ele>
<time>2024-05-11T14:25:29Z</time>
</trkpt>
<trkpt lat="49.71595762297511" lon="9.417242975905538">
<ele>328.8</ele>
<time>2024-05-11T14:25:30Z</time>
</trkpt>
<trkpt lat="49.715908002108335" lon="9.417181955650449">
<ele>328.6</ele>
<time>2024-05-11T14:25:31Z</time>
</trkpt>
<trkpt lat="49.71585838124156" lon="9.417121857404709">
<ele>328.6</ele>
<time>2024-05-11T14:25:32Z</time>
</trkpt>
<trkpt lat="49.71581261605024" lon="9.417061759158967">
<ele>328.6</ele>
<time>2024-05-11T14:25:33Z</time>
</trkpt>
<trkpt lat="49.71576685085893" lon="9.416997889056802">
<ele>328.6</ele>
<time>2024-05-11T14:25:34Z</time>
</trkpt>
<trkpt lat="49.71572108566761" lon="9.416939718648791">
<ele>328.6</ele>
<time>2024-05-11T14:25:35Z</time>
</trkpt>
<trkpt lat="49.715671464800835" lon="9.41688154824078">
<ele>328.4</ele>
<time>2024-05-11T14:25:36Z</time>
</trkpt>
<trkpt lat="49.71562569960952" lon="9.41682144999504">
<ele>328.4</ele>
<time>2024-05-11T14:25:37Z</time>
</trkpt>
<trkpt lat="49.7155799344182" lon="9.41676520742476">
<ele>328.4</ele>
<time>2024-05-11T14:25:38Z</time>
</trkpt>
<trkpt lat="49.715534169226885" lon="9.416707959026098">
<ele>328.4</ele>
<time>2024-05-11T14:25:39Z</time>
</trkpt>
<trkpt lat="49.71548840403557" lon="9.416649788618088">
<ele>328.4</ele>
<time>2024-05-11T14:25:40Z</time>
</trkpt>
<trkpt lat="49.71544263884425" lon="9.416593546047809">
<ele>328.4</ele>
<time>2024-05-11T14:25:41Z</time>
</trkpt>
<trkpt lat="49.715396873652935" lon="9.416538225486876">
<ele>328.4</ele>
<time>2024-05-11T14:25:42Z</time>
</trkpt>
<trkpt lat="49.715354880318046" lon="9.416482904925942">
<ele>328.4</ele>
<time>2024-05-11T14:25:43Z</time>
</trkpt>
<trkpt lat="49.71530911512673" lon="9.41642951220274">
<ele>328.4</ele>
<time>2024-05-11T14:25:44Z</time>
</trkpt>
<trkpt lat="49.71526334993541" lon="9.416377041488886">
<ele>328.4</ele>
<time>2024-05-11T14:25:45Z</time>
</trkpt>
<trkpt lat="49.71522521227598" lon="9.41632649861276">
<ele>328.4</ele>
<time>2024-05-11T14:25:46Z</time>
</trkpt>
<trkpt lat="49.71518321894109" lon="9.416274949908257">
<ele>328.4</ele>
<time>2024-05-11T14:25:47Z</time>
</trkpt>
<trkpt lat="49.71514508128166" lon="9.416225412860513">
<ele>328.4</ele>
<time>2024-05-11T14:25:48Z</time>
</trkpt>
<trkpt lat="49.71510308794677" lon="9.416176714003086">
<ele>328.4</ele>
<time>2024-05-11T14:25:49Z</time>
</trkpt>
<trkpt lat="49.71506495028734" lon="9.416128098964691">
<ele>328.4</ele>
<time>2024-05-11T14:25:50Z</time>
</trkpt>
<trkpt lat="49.71502304077149" lon="9.416080405935643">
<ele>328.4</ele>
<time>2024-05-11T14:25:51Z</time>
</trkpt>
<trkpt lat="49.714977191761136" lon="9.41603179089725">
<ele>328.4</ele>
<time>2024-05-11T14:25:52Z</time>
</trkpt>
<trkpt lat="49.71493528224528" lon="9.415986947715282">
<ele>328.6</ele>
<time>2024-05-11T14:25:53Z</time>
</trkpt>
<trkpt lat="49.71489328891039" lon="9.415940260514615">
<ele>328.6</ele>
<time>2024-05-11T14:25:54Z</time>
</trkpt>
<trkpt lat="49.71485137939453" lon="9.41589348949492">
<ele>328.6</ele>
<time>2024-05-11T14:25:55Z</time>
</trkpt>
<trkpt lat="49.71480938605964" lon="9.415842024609448">
<ele>328.6</ele>
<time>2024-05-11T14:25:56Z</time>
</trkpt>
<trkpt lat="49.71477124840021" lon="9.415789553895593">
<ele>328.6</ele>
<time>2024-05-11T14:25:57Z</time>
</trkpt>
<trkpt lat="49.71473311074078" lon="9.415739933028815">
<ele>328.6</ele>
<time>2024-05-11T14:25:58Z</time>
</trkpt>
<trkpt lat="49.71469111740589" lon="9.41569517366588">
<ele>328.6</ele>
<time>2024-05-11T14:25:59Z</time>
</trkpt>
<trkpt lat="49.71465297974646" lon="9.415650330483912">
<ele>328.6</ele>
<time>2024-05-11T14:26:00Z</time>
</trkpt>
<trkpt lat="49.71461098641157" lon="9.415603559464216">
<ele>328.4</ele>
<time>2024-05-11T14:26:01Z</time>
</trkpt>
<trkpt lat="49.714569076895714" lon="9.415553016588092">
<ele>328.4</ele>
<time>2024-05-11T14:26:02Z</time>
</trkpt>
<trkpt lat="49.71453093923628" lon="9.415503479540348">
<ele>328.4</ele>
<time>2024-05-11T14:26:03Z</time>
</trkpt>
<trkpt lat="49.714488945901394" lon="9.415452936664224">
<ele>328.4</ele>
<time>2024-05-11T14:26:04Z</time>
</trkpt>
<trkpt lat="49.714446952566504" lon="9.415405243635178">
<ele>328.6</ele>
<time>2024-05-11T14:26:05Z</time>
</trkpt>
<trkpt lat="49.71440504305065" lon="9.415356628596784">
<ele>328.6</ele>
<time>2024-05-11T14:26:06Z</time>
</trkpt>
<trkpt lat="49.71436304971576" lon="9.415309857577084">
<ele>328.6</ele>
<time>2024-05-11T14:26:07Z</time>
</trkpt>
<trkpt lat="49.71432491205633" lon="9.41526317037642">
<ele>328.6</ele>
<time>2024-05-11T14:26:08Z</time>
</trkpt>
<trkpt lat="49.71428291872144" lon="9.415216399356725">
<ele>328.4</ele>
<time>2024-05-11T14:26:09Z</time>
</trkpt>
<trkpt lat="49.71424100920558" lon="9.415171556174757">
<ele>328.6</ele>
<time>2024-05-11T14:26:10Z</time>
</trkpt>
<trkpt lat="49.71420287154615" lon="9.41512679681182">
<ele>328.6</ele>
<time>2024-05-11T14:26:11Z</time>
</trkpt>
<trkpt lat="49.71416087821126" lon="9.4150828756392">
<ele>328.6</ele>
<time>2024-05-11T14:26:12Z</time>
</trkpt>
<trkpt lat="49.71412274055183" lon="9.415035182610154">
<ele>328.6</ele>
<time>2024-05-11T14:26:13Z</time>
</trkpt>
<trkpt lat="49.7140846028924" lon="9.41498463973403">
<ele>328.8</ele>
<time>2024-05-11T14:26:14Z</time>
</trkpt>
<trkpt lat="49.71404646523297" lon="9.414936946704984">
<ele>329</ele>
<time>2024-05-11T14:26:15Z</time>
</trkpt>
<trkpt lat="49.714012099429965" lon="9.41488640382886">
<ele>329</ele>
<time>2024-05-11T14:26:16Z</time>
</trkpt>
<trkpt lat="49.713973961770535" lon="9.414833011105657">
<ele>329.2</ele>
<time>2024-05-11T14:26:17Z</time>
</trkpt>
<trkpt lat="49.71393959596753" lon="9.414779618382454">
<ele>329.2</ele>
<time>2024-05-11T14:26:18Z</time>
</trkpt>
<trkpt lat="49.71390531398356" lon="9.414726225659251">
<ele>329.2</ele>
<time>2024-05-11T14:26:19Z</time>
</trkpt>
<trkpt lat="49.71386717632413" lon="9.41466998308897">
<ele>329.4</ele>
<time>2024-05-11T14:26:20Z</time>
</trkpt>
<trkpt lat="49.7138290386647" lon="9.414613656699656">
<ele>329.4</ele>
<time>2024-05-11T14:26:21Z</time>
</trkpt>
<trkpt lat="49.71378704532981" lon="9.414556492120028">
<ele>329.4</ele>
<time>2024-05-11T14:26:22Z</time>
</trkpt>
<trkpt lat="49.71374505199492" lon="9.414498321712015">
<ele>329.4</ele>
<time>2024-05-11T14:26:23Z</time>
</trkpt>
<trkpt lat="49.71370314247906" lon="9.41442959010601">
<ele>329.6</ele>
<time>2024-05-11T14:26:24Z</time>
</trkpt>
<trkpt lat="49.71366500481963" lon="9.414360020309688">
<ele>329.6</ele>
<time>2024-05-11T14:26:25Z</time>
</trkpt>
<trkpt lat="49.713634410873055" lon="9.414286594837904">
<ele>329.8</ele>
<time>2024-05-11T14:26:26Z</time>
</trkpt>
<trkpt lat="49.71360012888909" lon="9.414210319519045">
<ele>329.8</ele>
<time>2024-05-11T14:26:27Z</time>
</trkpt>
<trkpt lat="49.71356576308608" lon="9.4141330383718">
<ele>329.6</ele>
<time>2024-05-11T14:26:28Z</time>
</trkpt>
<trkpt lat="49.713535252958536" lon="9.41405676305294">
<ele>329.6</ele>
<time>2024-05-11T14:26:29Z</time>
</trkpt>
<trkpt lat="49.71350474283099" lon="9.413981409743428">
<ele>329.6</ele>
<time>2024-05-11T14:26:30Z</time>
</trkpt>
<trkpt lat="49.713478088378906" lon="9.413905134424567">
<ele>329.6</ele>
<time>2024-05-11T14:26:31Z</time>
</trkpt>
<trkpt lat="49.71344749443233" lon="9.413829781115057">
<ele>329.6</ele>
<time>2024-05-11T14:26:32Z</time>
</trkpt>
<trkpt lat="49.713420839980245" lon="9.413753505796194">
<ele>329.6</ele>
<time>2024-05-11T14:26:33Z</time>
</trkpt>
<trkpt lat="49.7133903298527" lon="9.413676224648952">
<ele>329.4</ele>
<time>2024-05-11T14:26:34Z</time>
</trkpt>
<trkpt lat="49.71336359158158" lon="9.41360372118652">
<ele>329.4</ele>
<time>2024-05-11T14:26:35Z</time>
</trkpt>
<trkpt lat="49.71333308145404" lon="9.413526523858309">
<ele>329.4</ele>
<time>2024-05-11T14:26:36Z</time>
</trkpt>
<trkpt lat="49.71331019885838" lon="9.413452092558146">
<ele>329.6</ele>
<time>2024-05-11T14:26:37Z</time>
</trkpt>
<trkpt lat="49.71327968873083" lon="9.413374895229936">
<ele>329.6</ele>
<time>2024-05-11T14:26:38Z</time>
</trkpt>
<trkpt lat="49.71325295045972" lon="9.413298536092045">
<ele>329.6</ele>
<time>2024-05-11T14:26:39Z</time>
</trkpt>
<trkpt lat="49.713222440332174" lon="9.413221338763831">
<ele>329.8</ele>
<time>2024-05-11T14:26:40Z</time>
</trkpt>
<trkpt lat="49.71319578588009" lon="9.41314690746367">
<ele>329.8</ele>
<time>2024-05-11T14:26:41Z</time>
</trkpt>
<trkpt lat="49.713161420077085" lon="9.413071554154158">
<ele>330</ele>
<time>2024-05-11T14:26:42Z</time>
</trkpt>
<trkpt lat="49.71313090994954" lon="9.412998128682377">
<ele>330</ele>
<time>2024-05-11T14:26:43Z</time>
</trkpt>
<trkpt lat="49.71309654414654" lon="9.412926631048322">
<ele>330</ele>
<time>2024-05-11T14:26:44Z</time>
</trkpt>
<trkpt lat="49.71306603401899" lon="9.412857983261349">
<ele>330.2</ele>
<time>2024-05-11T14:26:45Z</time>
</trkpt>
<trkpt lat="49.71302789635956" lon="9.41279025748372">
<ele>330.2</ele>
<time>2024-05-11T14:26:46Z</time>
</trkpt>
<trkpt lat="49.71299361437559" lon="9.412723537534475">
<ele>330.2</ele>
<time>2024-05-11T14:26:47Z</time>
</trkpt>
<trkpt lat="49.7129516210407" lon="9.412658661603928">
<ele>330.2</ele>
<time>2024-05-11T14:26:48Z</time>
</trkpt>
<trkpt lat="49.71290962770581" lon="9.412596635520458">
<ele>330.2</ele>
<time>2024-05-11T14:26:49Z</time>
</trkpt>
<trkpt lat="49.71286009065807" lon="9.412531843408942">
<ele>330.2</ele>
<time>2024-05-11T14:26:50Z</time>
</trkpt>
<trkpt lat="49.71280284225941" lon="9.412466967478396">
<ele>330.2</ele>
<time>2024-05-11T14:26:51Z</time>
</trkpt>
<trkpt lat="49.71274944953621" lon="9.412403097376227">
<ele>330.2</ele>
<time>2024-05-11T14:26:52Z</time>
</trkpt>
<trkpt lat="49.71268842928112" lon="9.412341993302109">
<ele>330</ele>
<time>2024-05-11T14:26:53Z</time>
</trkpt>
<trkpt lat="49.712631180882454" lon="9.41227812319994">
<ele>329.8</ele>
<time>2024-05-11T14:26:54Z</time>
</trkpt>
<trkpt lat="49.712570160627365" lon="9.41221517510712">
<ele>329.6</ele>
<time>2024-05-11T14:26:55Z</time>
</trkpt>
<trkpt lat="49.71250528469682" lon="9.412151305004954">
<ele>329.4</ele>
<time>2024-05-11T14:26:56Z</time>
</trkpt>
<trkpt lat="49.71244426444173" lon="9.412091206759214">
<ele>329</ele>
<time>2024-05-11T14:26:57Z</time>
</trkpt>
<trkpt lat="49.71237938851118" lon="9.412028258666396">
<ele>328.8</ele>
<time>2024-05-11T14:26:58Z</time>
</trkpt>
<trkpt lat="49.71231836825609" lon="9.411965310573578">
<ele>328.6</ele>
<time>2024-05-11T14:26:59Z</time>
</trkpt>
<trkpt lat="49.712253492325544" lon="9.41189951263368">
<ele>328.2</ele>
<time>2024-05-11T14:27:00Z</time>
</trkpt>
<trkpt lat="49.71218870021403" lon="9.411834636703134">
<ele>328</ele>
<time>2024-05-11T14:27:01Z</time>
</trkpt>
<trkpt lat="49.71212005242705" lon="9.411767916753888">
<ele>327.8</ele>
<time>2024-05-11T14:27:02Z</time>
</trkpt>
<trkpt lat="49.712055176496506" lon="9.411700190976262">
<ele>327.4</ele>
<time>2024-05-11T14:27:03Z</time>
</trkpt>
<trkpt lat="49.71199030056596" lon="9.411633471027017">
<ele>327.2</ele>
<time>2024-05-11T14:27:04Z</time>
</trkpt>
<trkpt lat="49.71192542463541" lon="9.411564823240042">
<ele>326.8</ele>
<time>2024-05-11T14:27:05Z</time>
</trkpt>
<trkpt lat="49.711856776848435" lon="9.411497097462416">
<ele>326.6</ele>
<time>2024-05-11T14:27:06Z</time>
</trkpt>
<trkpt lat="49.71179575659335" lon="9.41143029369414">
<ele>326.4</ele>
<time>2024-05-11T14:27:07Z</time>
</trkpt>
<trkpt lat="49.7117308806628" lon="9.411364495754242">
<ele>326.2</ele>
<time>2024-05-11T14:27:08Z</time>
</trkpt>
<trkpt lat="49.71166986040771" lon="9.411301547661424">
<ele>326</ele>
<time>2024-05-11T14:27:09Z</time>
</trkpt>
<trkpt lat="49.711605068296194" lon="9.411234827712178">
<ele>325.8</ele>
<time>2024-05-11T14:27:10Z</time>
</trkpt>
<trkpt lat="49.711543964222074" lon="9.41117187961936">
<ele>325.6</ele>
<time>2024-05-11T14:27:11Z</time>
</trkpt>
<trkpt lat="49.71147917211056" lon="9.411108009517193">
<ele>325.4</ele>
<time>2024-05-11T14:27:12Z</time>
</trkpt>
<trkpt lat="49.71141815185547" lon="9.411046905443072">
<ele>325.2</ele>
<time>2024-05-11T14:27:13Z</time>
</trkpt>
<trkpt lat="49.71135704778135" lon="9.410984963178636">
<ele>325</ele>
<time>2024-05-11T14:27:14Z</time>
</trkpt>
<trkpt lat="49.71129602752626" lon="9.410924864932896">
<ele>324.8</ele>
<time>2024-05-11T14:27:15Z</time>
</trkpt>
<trkpt lat="49.71123500727117" lon="9.410866694524884">
<ele>324.4</ele>
<time>2024-05-11T14:27:16Z</time>
</trkpt>
<trkpt lat="49.71117775887251" lon="9.410808524116874">
<ele>324.2</ele>
<time>2024-05-11T14:27:17Z</time>
</trkpt>
<trkpt lat="49.71112059429288" lon="9.410748425871134">
<ele>324.2</ele>
<time>2024-05-11T14:27:18Z</time>
</trkpt>
<trkpt lat="49.71106334589422" lon="9.410688327625394">
<ele>324</ele>
<time>2024-05-11T14:27:19Z</time>
</trkpt>
<trkpt lat="49.71100609749555" lon="9.410628313198686">
<ele>323.8</ele>
<time>2024-05-11T14:27:20Z</time>
</trkpt>
<trkpt lat="49.710948932915926" lon="9.410570142790675">
<ele>323.8</ele>
<time>2024-05-11T14:27:21Z</time>
</trkpt>
<trkpt lat="49.710891684517264" lon="9.410510044544935">
<ele>323.6</ele>
<time>2024-05-11T14:27:22Z</time>
</trkpt>
<trkpt lat="49.71083829179406" lon="9.410451874136925">
<ele>323.4</ele>
<time>2024-05-11T14:27:23Z</time>
</trkpt>
<trkpt lat="49.71078489907086" lon="9.410394625738263">
<ele>323.2</ele>
<time>2024-05-11T14:27:24Z</time>
</trkpt>
<trkpt lat="49.71073527820408" lon="9.410338383167982">
<ele>323</ele>
<time>2024-05-11T14:27:25Z</time>
</trkpt>
<trkpt lat="49.71068565733731" lon="9.41028306260705">
<ele>323</ele>
<time>2024-05-11T14:27:26Z</time>
</trkpt>
<trkpt lat="49.71063612028957" lon="9.410228664055468">
<ele>322.8</ele>
<time>2024-05-11T14:27:27Z</time>
</trkpt>
<trkpt lat="49.71058272756636" lon="9.410173343494534">
<ele>322.8</ele>
<time>2024-05-11T14:27:28Z</time>
</trkpt>
<trkpt lat="49.71052925102413" lon="9.410118022933602">
<ele>322.6</ele>
<time>2024-05-11T14:27:29Z</time>
</trkpt>
<trkpt lat="49.71047585830093" lon="9.41006178036332">
<ele>322.6</ele>
<time>2024-05-11T14:27:30Z</time>
</trkpt>
<trkpt lat="49.710418693721294" lon="9.410004615783691">
<ele>322.4</ele>
<time>2024-05-11T14:27:31Z</time>
</trkpt>
<trkpt lat="49.71036144532263" lon="9.40994636155665">
<ele>322.2</ele>
<time>2024-05-11T14:27:32Z</time>
</trkpt>
<trkpt lat="49.710296569392085" lon="9.40988534130156">
<ele>322</ele>
<time>2024-05-11T14:27:33Z</time>
</trkpt>
<trkpt lat="49.71023554913699" lon="9.409821471199391">
<ele>321.8</ele>
<time>2024-05-11T14:27:34Z</time>
</trkpt>
<trkpt lat="49.71017067320645" lon="9.409753745421767">
<ele>321.4</ele>
<time>2024-05-11T14:27:35Z</time>
</trkpt>
<trkpt lat="49.71010588109493" lon="9.409681241959332">
<ele>321.2</ele>
<time>2024-05-11T14:27:36Z</time>
</trkpt>
<trkpt lat="49.710037149488926" lon="9.40960974432528">
<ele>320.8</ele>
<time>2024-05-11T14:27:37Z</time>
</trkpt>
<trkpt lat="49.70996850170195" lon="9.409535396844149">
<ele>320.4</ele>
<time>2024-05-11T14:27:38Z</time>
</trkpt>
<trkpt lat="49.70989608205855" lon="9.409460043534636">
<ele>320</ele>
<time>2024-05-11T14:27:39Z</time>
</trkpt>
<trkpt lat="49.709823578596115" lon="9.409379912540317">
<ele>319.4</ele>
<time>2024-05-11T14:27:40Z</time>
</trkpt>
<trkpt lat="49.70975107513368" lon="9.409286454319954">
<ele>318.8</ele>
<time>2024-05-11T14:27:41Z</time>
</trkpt>
<trkpt lat="49.70967479981482" lon="9.409199701622128">
<ele>318.2</ele>
<time>2024-05-11T14:27:42Z</time>
</trkpt>
<trkpt lat="49.7095946688205" lon="9.409101465716958">
<ele>317.6</ele>
<time>2024-05-11T14:27:43Z</time>
</trkpt>
<trkpt lat="49.709529876708984" lon="9.408993674442172">
<ele>317</ele>
<time>2024-05-11T14:27:44Z</time>
</trkpt>
<trkpt lat="49.70946500077844" lon="9.408884961158035">
<ele>316.4</ele>
<time>2024-05-11T14:27:45Z</time>
</trkpt>
<trkpt lat="49.70939635299146" lon="9.408773398026824">
<ele>315.8</ele>
<time>2024-05-11T14:27:46Z</time>
</trkpt>
<trkpt lat="49.709346732124686" lon="9.408663678914309">
<ele>315.2</ele>
<time>2024-05-11T14:27:47Z</time>
</trkpt>
<trkpt lat="49.709308594465256" lon="9.408561671152713">
<ele>314.6</ele>
<time>2024-05-11T14:27:48Z</time>
</trkpt>
<trkpt lat="49.70926282927394" lon="9.408452957868576">
<ele>314</ele>
<time>2024-05-11T14:27:49Z</time>
</trkpt>
<trkpt lat="49.709209436550736" lon="9.408341394737365">
<ele>313.6</ele>
<time>2024-05-11T14:27:50Z</time>
</trkpt>
<trkpt lat="49.709171215072274" lon="9.40822790376842">
<ele>313.2</ele>
<time>2024-05-11T14:27:51Z</time>
</trkpt>
<trkpt lat="49.70912930555642" lon="9.408115334808826">
<ele>312.8</ele>
<time>2024-05-11T14:27:52Z</time>
</trkpt>
<trkpt lat="49.70909493975341" lon="9.407999916002154">
<ele>312.2</ele>
<time>2024-05-11T14:27:53Z</time>
</trkpt>
<trkpt lat="49.70906442962587" lon="9.407884581014514">
<ele>311.8</ele>
<time>2024-05-11T14:27:54Z</time>
</trkpt>
<trkpt lat="49.70903391949832" lon="9.4077730178833">
<ele>311.4</ele>
<time>2024-05-11T14:27:55Z</time>
</trkpt>
<trkpt lat="49.70900340937078" lon="9.407663298770784">
<ele>311</ele>
<time>2024-05-11T14:27:56Z</time>
</trkpt>
<trkpt lat="49.70897667109966" lon="9.40755844116211">
<ele>310.8</ele>
<time>2024-05-11T14:27:57Z</time>
</trkpt>
<trkpt lat="49.70895001664758" lon="9.40745634958148">
<ele>310.6</ele>
<time>2024-05-11T14:27:58Z</time>
</trkpt>
<trkpt lat="49.70892713405192" lon="9.40736004151404">
<ele>310.4</ele>
<time>2024-05-11T14:27:59Z</time>
</trkpt>
<trkpt lat="49.7089003957808" lon="9.407268511131406">
<ele>310.2</ele>
<time>2024-05-11T14:28:00Z</time>
</trkpt>
<trkpt lat="49.7088813688606" lon="9.407179830595853">
<ele>310.2</ele>
<time>2024-05-11T14:28:01Z</time>
</trkpt>
<trkpt lat="49.708858486264944" lon="9.407096849754453">
<ele>310.2</ele>
<time>2024-05-11T14:28:02Z</time>
</trkpt>
<trkpt lat="49.70883937552571" lon="9.407016718760133">
<ele>310</ele>
<time>2024-05-11T14:28:03Z</time>
</trkpt>
<trkpt lat="49.708816492930055" lon="9.40694136545062">
<ele>310</ele>
<time>2024-05-11T14:28:04Z</time>
</trkpt>
<trkpt lat="49.708797382190824" lon="9.406869867816567">
<ele>310</ele>
<time>2024-05-11T14:28:05Z</time>
</trkpt>
<trkpt lat="49.708778355270624" lon="9.40680306404829">
<ele>310</ele>
<time>2024-05-11T14:28:06Z</time>
</trkpt>
<trkpt lat="49.70875924453139" lon="9.406735338270664">
<ele>310.2</ele>
<time>2024-05-11T14:28:07Z</time>
</trkpt>
<trkpt lat="49.70874398946762" lon="9.40666669048369">
<ele>310.2</ele>
<time>2024-05-11T14:28:08Z</time>
</trkpt>
<trkpt lat="49.70872496254742" lon="9.406595192849636">
<ele>310.4</ele>
<time>2024-05-11T14:28:09Z</time>
</trkpt>
<trkpt lat="49.70870585180819" lon="9.406524617224932">
<ele>310.6</ele>
<time>2024-05-11T14:28:10Z</time>
</trkpt>
<trkpt lat="49.70868682488799" lon="9.406456891447306">
<ele>310.6</ele>
<time>2024-05-11T14:28:11Z</time>
</trkpt>
<trkpt lat="49.70866771414876" lon="9.40638824366033">
<ele>310.8</ele>
<time>2024-05-11T14:28:12Z</time>
</trkpt>
<trkpt lat="49.70864860340953" lon="9.406323367729785">
<ele>311</ele>
<time>2024-05-11T14:28:13Z</time>
</trkpt>
<trkpt lat="49.70863334834576" lon="9.406258575618269">
<ele>311.4</ele>
<time>2024-05-11T14:28:14Z</time>
</trkpt>
<trkpt lat="49.708618093281984" lon="9.40619369968772">
<ele>311.6</ele>
<time>2024-05-11T14:28:15Z</time>
</trkpt>
<trkpt lat="49.70860283821821" lon="9.40613167360425">
<ele>311.8</ele>
<time>2024-05-11T14:28:16Z</time>
</trkpt>
<trkpt lat="49.70858758315444" lon="9.406066881492734">
<ele>312</ele>
<time>2024-05-11T14:28:17Z</time>
</trkpt>
<trkpt lat="49.70857618376613" lon="9.405998149886727">
<ele>312.2</ele>
<time>2024-05-11T14:28:18Z</time>
</trkpt>
<trkpt lat="49.70856470055878" lon="9.405928580090404">
<ele>312.6</ele>
<time>2024-05-11T14:28:19Z</time>
</trkpt>
<trkpt lat="49.70855330117047" lon="9.40585708245635">
<ele>312.8</ele>
<time>2024-05-11T14:28:20Z</time>
</trkpt>
<trkpt lat="49.70854181796312" lon="9.405784578993917">
<ele>313</ele>
<time>2024-05-11T14:28:21Z</time>
</trkpt>
<trkpt lat="49.70852656289935" lon="9.405710147693751">
<ele>313.2</ele>
<time>2024-05-11T14:28:22Z</time>
</trkpt>
<trkpt lat="49.70851130783558" lon="9.4056386500597">
<ele>313.4</ele>
<time>2024-05-11T14:28:23Z</time>
</trkpt>
<trkpt lat="49.70849219709635" lon="9.405565224587916">
<ele>313.6</ele>
<time>2024-05-11T14:28:24Z</time>
</trkpt>
<trkpt lat="49.708480797708035" lon="9.405493726953864">
<ele>313.6</ele>
<time>2024-05-11T14:28:25Z</time>
</trkpt>
<trkpt lat="49.70846931450069" lon="9.40542315132916">
<ele>313.8</ele>
<time>2024-05-11T14:28:26Z</time>
</trkpt>
<trkpt lat="49.708457915112376" lon="9.405353497713804">
<ele>313.8</ele>
<time>2024-05-11T14:28:27Z</time>
</trkpt>
<trkpt lat="49.70844643190503" lon="9.40528484992683">
<ele>314</ele>
<time>2024-05-11T14:28:28Z</time>
</trkpt>
<trkpt lat="49.70843503251672" lon="9.405215196311474">
<ele>314</ele>
<time>2024-05-11T14:28:29Z</time>
</trkpt>
<trkpt lat="49.70842354930937" lon="9.40514369867742">
<ele>314</ele>
<time>2024-05-11T14:28:30Z</time>
</trkpt>
<trkpt lat="49.70841592177749" lon="9.405071195214989">
<ele>314.2</ele>
<time>2024-05-11T14:28:31Z</time>
</trkpt>
<trkpt lat="49.70840452238917" lon="9.404998775571585">
<ele>314.4</ele>
<time>2024-05-11T14:28:32Z</time>
</trkpt>
<trkpt lat="49.70839689485729" lon="9.404923422262073">
<ele>314.4</ele>
<time>2024-05-11T14:28:33Z</time>
</trkpt>
<trkpt lat="49.7083892673254" lon="9.40484999679029">
<ele>314.4</ele>
<time>2024-05-11T14:28:34Z</time>
</trkpt>
<trkpt lat="49.708381639793515" lon="9.404776571318507">
<ele>314.6</ele>
<time>2024-05-11T14:28:35Z</time>
</trkpt>
<trkpt lat="49.70837401226163" lon="9.404706917703152">
<ele>314.6</ele>
<time>2024-05-11T14:28:36Z</time>
</trkpt>
<trkpt lat="49.70836638472974" lon="9.404635420069098">
<ele>314.4</ele>
<time>2024-05-11T14:28:37Z</time>
</trkpt>
<trkpt lat="49.70835875719786" lon="9.404566688463092">
<ele>314.4</ele>
<time>2024-05-11T14:28:38Z</time>
</trkpt>
<trkpt lat="49.7083549015224" lon="9.404498040676115">
<ele>314.4</ele>
<time>2024-05-11T14:28:39Z</time>
</trkpt>
<trkpt lat="49.70834727399051" lon="9.404431320726871">
<ele>314.6</ele>
<time>2024-05-11T14:28:40Z</time>
</trkpt>
<trkpt lat="49.708343502134085" lon="9.404364516958594">
<ele>314.6</ele>
<time>2024-05-11T14:28:41Z</time>
</trkpt>
<trkpt lat="49.708339646458626" lon="9.404296875">
<ele>314.8</ele>
<time>2024-05-11T14:28:42Z</time>
</trkpt>
<trkpt lat="49.7083358746022" lon="9.404228143393992">
<ele>315</ele>
<time>2024-05-11T14:28:43Z</time>
</trkpt>
<trkpt lat="49.70832824707031" lon="9.404159495607018">
<ele>315</ele>
<time>2024-05-11T14:28:44Z</time>
</trkpt>
<trkpt lat="49.70832824707031" lon="9.404089925810696">
<ele>315.2</ele>
<time>2024-05-11T14:28:45Z</time>
</trkpt>
<trkpt lat="49.708324391394854" lon="9.404021194204688">
<ele>315.2</ele>
<time>2024-05-11T14:28:46Z</time>
</trkpt>
<trkpt lat="49.708320535719395" lon="9.403953552246094">
<ele>315.4</ele>
<time>2024-05-11T14:28:47Z</time>
</trkpt>
<trkpt lat="49.70831676386297" lon="9.403884820640087">
<ele>315.4</ele>
<time>2024-05-11T14:28:48Z</time>
</trkpt>
<trkpt lat="49.70830913633108" lon="9.403818100690842">
<ele>315.4</ele>
<time>2024-05-11T14:28:49Z</time>
</trkpt>
<trkpt lat="49.70830528065562" lon="9.403750374913216">
<ele>315.4</ele>
<time>2024-05-11T14:28:50Z</time>
</trkpt>
<trkpt lat="49.70830528065562" lon="9.40368365496397">
<ele>315.6</ele>
<time>2024-05-11T14:28:51Z</time>
</trkpt>
<trkpt lat="49.708301508799195" lon="9.403612073510883">
<ele>315.6</ele>
<time>2024-05-11T14:28:52Z</time>
</trkpt>
<trkpt lat="49.708297653123736" lon="9.403539653867483">
<ele>315.6</ele>
<time>2024-05-11T14:28:53Z</time>
</trkpt>
<trkpt lat="49.70829388126731" lon="9.403466144576669">
<ele>315.6</ele>
<time>2024-05-11T14:28:54Z</time>
</trkpt>
<trkpt lat="49.70829002559185" lon="9.403391797095535">
<ele>315.6</ele>
<time>2024-05-11T14:28:55Z</time>
</trkpt>
<trkpt lat="49.70828239805997" lon="9.403316443786023">
<ele>315.6</ele>
<time>2024-05-11T14:28:56Z</time>
</trkpt>
<trkpt lat="49.70827477052808" lon="9.403240168467164">
<ele>315.6</ele>
<time>2024-05-11T14:28:57Z</time>
</trkpt>
<trkpt lat="49.708263371139765" lon="9.403161965310574">
<ele>315.8</ele>
<time>2024-05-11T14:28:58Z</time>
</trkpt>
<trkpt lat="49.70825188793242" lon="9.403083762153983">
<ele>315.8</ele>
<time>2024-05-11T14:28:59Z</time>
</trkpt>
<trkpt lat="49.70823663286865" lon="9.403004636988044">
<ele>315.8</ele>
<time>2024-05-11T14:29:00Z</time>
</trkpt>
<trkpt lat="49.708221377804875" lon="9.402926433831452">
<ele>315.8</ele>
<time>2024-05-11T14:29:01Z</time>
</trkpt>
<trkpt lat="49.70819849520922" lon="9.402845380827785">
<ele>315.8</ele>
<time>2024-05-11T14:29:02Z</time>
</trkpt>
<trkpt lat="49.70817561261356" lon="9.402765249833465">
<ele>315.8</ele>
<time>2024-05-11T14:29:03Z</time>
</trkpt>
<trkpt lat="49.70816035754979" lon="9.402685118839145">
<ele>315.6</ele>
<time>2024-05-11T14:29:04Z</time>
</trkpt>
<trkpt lat="49.708141246810555" lon="9.402609765529633">
<ele>315.6</ele>
<time>2024-05-11T14:29:05Z</time>
</trkpt>
<trkpt lat="49.7081183642149" lon="9.40253826789558">
<ele>315.4</ele>
<time>2024-05-11T14:29:06Z</time>
</trkpt>
<trkpt lat="49.70809170976281" lon="9.402466770261526">
<ele>315.4</ele>
<time>2024-05-11T14:29:07Z</time>
</trkpt>
<trkpt lat="49.708064971491694" lon="9.402401894330978">
<ele>315.2</ele>
<time>2024-05-11T14:29:08Z</time>
</trkpt>
<trkpt lat="49.70803831703961" lon="9.402339868247507">
<ele>315.2</ele>
<time>2024-05-11T14:29:09Z</time>
</trkpt>
<trkpt lat="49.70801157876849" lon="9.402286475524306">
<ele>315</ele>
<time>2024-05-11T14:29:10Z</time>
</trkpt>
<trkpt lat="49.707984924316406" lon="9.402237860485911">
<ele>315</ele>
<time>2024-05-11T14:29:11Z</time>
</trkpt>
<trkpt lat="49.70795818604529" lon="9.402196872979404">
<ele>315</ele>
<time>2024-05-11T14:29:12Z</time>
</trkpt>
<trkpt lat="49.707923820242286" lon="9.40216158516705">
<ele>314.8</ele>
<time>2024-05-11T14:29:13Z</time>
</trkpt>
<trkpt lat="49.70789331011474" lon="9.402134846895931">
<ele>314.8</ele>
<time>2024-05-11T14:29:14Z</time>
</trkpt>
<trkpt lat="49.7078627999872" lon="9.402116741985084">
<ele>314.6</ele>
<time>2024-05-11T14:29:15Z</time>
</trkpt>
<trkpt lat="49.707828518003225" lon="9.402112886309624">
<ele>314.2</ele>
<time>2024-05-11T14:29:16Z</time>
</trkpt>
<trkpt lat="49.70779415220022" lon="9.402114814147351">
<ele>314</ele>
<time>2024-05-11T14:29:17Z</time>
</trkpt>
<trkpt lat="49.70775978639722" lon="9.40212151966989">
<ele>314</ele>
<time>2024-05-11T14:29:18Z</time>
</trkpt>
<trkpt lat="49.70772550441325" lon="9.402130069211124">
<ele>313.8</ele>
<time>2024-05-11T14:29:19Z</time>
</trkpt>
<trkpt lat="49.70769113861024" lon="9.402152029797437">
<ele>313.6</ele>
<time>2024-05-11T14:29:20Z</time>
</trkpt>
<trkpt lat="49.70765685662627" lon="9.402174912393091">
<ele>313.6</ele>
<time>2024-05-11T14:29:21Z</time>
</trkpt>
<trkpt lat="49.70762249082327" lon="9.402213050052524">
<ele>313.4</ele>
<time>2024-05-11T14:29:22Z</time>
</trkpt>
<trkpt lat="49.70757672563195" lon="9.402243560180068">
<ele>313.4</ele>
<time>2024-05-11T14:29:23Z</time>
</trkpt>
<trkpt lat="49.70753096044064" lon="9.40227692015469">
<ele>313.2</ele>
<time>2024-05-11T14:29:24Z</time>
</trkpt>
<trkpt lat="49.707488967105746" lon="9.402317991480231">
<ele>313</ele>
<time>2024-05-11T14:29:25Z</time>
</trkpt>
<trkpt lat="49.70744320191443" lon="9.402366606518626">
<ele>312.8</ele>
<time>2024-05-11T14:29:26Z</time>
</trkpt>
<trkpt lat="49.707393581047654" lon="9.40241522155702">
<ele>312.6</ele>
<time>2024-05-11T14:29:27Z</time>
</trkpt>
<trkpt lat="49.70734018832445" lon="9.402451515197754">
<ele>312.6</ele>
<time>2024-05-11T14:29:28Z</time>
</trkpt>
<trkpt lat="49.70728679560125" lon="9.402482947334647">
<ele>312.4</ele>
<time>2024-05-11T14:29:29Z</time>
</trkpt>
<trkpt lat="49.707233402878046" lon="9.402504907920957">
<ele>312.4</ele>
<time>2024-05-11T14:29:30Z</time>
</trkpt>
<trkpt lat="49.70718001015484" lon="9.402524940669537">
<ele>312.2</ele>
<time>2024-05-11T14:29:31Z</time>
</trkpt>
<trkpt lat="49.70712661743164" lon="9.402540195733309">
<ele>312.2</ele>
<time>2024-05-11T14:29:32Z</time>
</trkpt>
<trkpt lat="49.707073140889406" lon="9.40255545079708">
<ele>312.2</ele>
<time>2024-05-11T14:29:33Z</time>
</trkpt>
<trkpt lat="49.70702360384166" lon="9.402561150491238">
<ele>312</ele>
<time>2024-05-11T14:29:34Z</time>
</trkpt>
<trkpt lat="49.70697021111846" lon="9.402560228481889">
<ele>312</ele>
<time>2024-05-11T14:29:35Z</time>
</trkpt>
<trkpt lat="49.70692059025168" lon="9.402548745274544">
<ele>312</ele>
<time>2024-05-11T14:29:36Z</time>
</trkpt>
<trkpt lat="49.70687482506037" lon="9.402529634535313">
<ele>312</ele>
<time>2024-05-11T14:29:37Z</time>
</trkpt>
<trkpt lat="49.70682520419359" lon="9.402504907920957">
<ele>312</ele>
<time>2024-05-11T14:29:38Z</time>
</trkpt>
<trkpt lat="49.70677558332682" lon="9.402469620108604">
<ele>312</ele>
<time>2024-05-11T14:29:39Z</time>
</trkpt>
<trkpt lat="49.70673367381096" lon="9.402426704764366">
<ele>312</ele>
<time>2024-05-11T14:29:40Z</time>
</trkpt>
<trkpt lat="49.70669553615153" lon="9.40237800590694">
<ele>312</ele>
<time>2024-05-11T14:29:41Z</time>
</trkpt>
<trkpt lat="49.7066573984921" lon="9.402326541021466">
<ele>312.2</ele>
<time>2024-05-11T14:29:42Z</time>
</trkpt>
<trkpt lat="49.70662688836455" lon="9.402264514937997">
<ele>312.2</ele>
<time>2024-05-11T14:29:43Z</time>
</trkpt>
<trkpt lat="49.70659629441798" lon="9.40219972282648">
<ele>312.4</ele>
<time>2024-05-11T14:29:44Z</time>
</trkpt>
<trkpt lat="49.70657341182232" lon="9.402131997048857">
<ele>312.4</ele>
<time>2024-05-11T14:29:45Z</time>
</trkpt>
<trkpt lat="49.70655438490212" lon="9.402066199108958">
<ele>312.6</ele>
<time>2024-05-11T14:29:46Z</time>
</trkpt>
<trkpt lat="49.70653912983835" lon="9.40200517885387">
<ele>312.8</ele>
<time>2024-05-11T14:29:47Z</time>
</trkpt>
<trkpt lat="49.706527646631" lon="9.40194508060813">
<ele>312.8</ele>
<time>2024-05-11T14:29:48Z</time>
</trkpt>
<trkpt lat="49.70651624724269" lon="9.401881210505962">
<ele>312.8</ele>
<time>2024-05-11T14:29:49Z</time>
</trkpt>
<trkpt lat="49.70650099217892" lon="9.401818262413144">
<ele>313</ele>
<time>2024-05-11T14:29:50Z</time>
</trkpt>
<trkpt lat="49.70649336464703" lon="9.401756236329676">
<ele>313</ele>
<time>2024-05-11T14:29:51Z</time>
</trkpt>
<trkpt lat="49.706481881439686" lon="9.401693288236856">
<ele>313</ele>
<time>2024-05-11T14:29:52Z</time>
</trkpt>
<trkpt lat="49.70647048205137" lon="9.401626568287613">
<ele>313.2</ele>
<time>2024-05-11T14:29:53Z</time>
</trkpt>
<trkpt lat="49.70645899884403" lon="9.401557920500636">
<ele>313.2</ele>
<time>2024-05-11T14:29:54Z</time>
</trkpt>
<trkpt lat="49.706447599455714" lon="9.401492038741708">
<ele>313.4</ele>
<time>2024-05-11T14:29:55Z</time>
</trkpt>
<trkpt lat="49.70643611624837" lon="9.40143009647727">
<ele>313.6</ele>
<time>2024-05-11T14:29:56Z</time>
</trkpt>
<trkpt lat="49.70641700550914" lon="9.401372848078609">
<ele>313.6</ele>
<time>2024-05-11T14:29:57Z</time>
</trkpt>
<trkpt lat="49.70639035105705" lon="9.401332782581449">
<ele>313.8</ele>
<time>2024-05-11T14:29:58Z</time>
</trkpt>
<trkpt lat="49.70635984092951" lon="9.401303278282285">
<ele>313.8</ele>
<time>2024-05-11T14:29:59Z</time>
</trkpt>
<trkpt lat="49.70632170327008" lon="9.40129179507494">
<ele>314</ele>
<time>2024-05-11T14:30:00Z</time>
</trkpt>
<trkpt lat="49.70627970993519" lon="9.401294644922018">
<ele>314</ele>
<time>2024-05-11T14:30:01Z</time>
</trkpt>
<trkpt lat="49.7062377166003" lon="9.401307050138712">
<ele>314</ele>
<time>2024-05-11T14:30:02Z</time>
</trkpt>
<trkpt lat="49.70619957894087" lon="9.401320377364756">
<ele>314</ele>
<time>2024-05-11T14:30:03Z</time>
</trkpt>
<trkpt lat="49.70615766942501" lon="9.401336638256907">
<ele>314.2</ele>
<time>2024-05-11T14:30:04Z</time>
</trkpt>
<trkpt lat="49.70611953176558" lon="9.40134996548295">
<ele>314.2</ele>
<time>2024-05-11T14:30:05Z</time>
</trkpt>
<trkpt lat="49.70607753843069" lon="9.401365220546722">
<ele>314.2</ele>
<time>2024-05-11T14:30:06Z</time>
</trkpt>
<trkpt lat="49.7060355450958" lon="9.401383325457571">
<ele>314.2</ele>
<time>2024-05-11T14:30:07Z</time>
</trkpt>
<trkpt lat="49.70599740743637" lon="9.401398580521343">
<ele>314.2</ele>
<time>2024-05-11T14:30:08Z</time>
</trkpt>
<trkpt lat="49.70595926977694" lon="9.401412913575768">
<ele>314.2</ele>
<time>2024-05-11T14:30:09Z</time>
</trkpt>
<trkpt lat="49.70592113211751" lon="9.401423390954731">
<ele>314.2</ele>
<time>2024-05-11T14:30:10Z</time>
</trkpt>
<trkpt lat="49.70587913878262" lon="9.401436801999807">
<ele>314.4</ele>
<time>2024-05-11T14:30:11Z</time>
</trkpt>
<trkpt lat="49.70584100112319" lon="9.401454906910658">
<ele>314.6</ele>
<time>2024-05-11T14:30:12Z</time>
</trkpt>
<trkpt lat="49.70580671913922" lon="9.40147016197443">
<ele>314.8</ele>
<time>2024-05-11T14:30:13Z</time>
</trkpt>
<trkpt lat="49.70576858147979" lon="9.40148826688528">
<ele>315</ele>
<time>2024-05-11T14:30:14Z</time>
</trkpt>
<trkpt lat="49.705734215676785" lon="9.401499666273594">
<ele>315.2</ele>
<time>2024-05-11T14:30:15Z</time>
</trkpt>
<trkpt lat="49.705696078017354" lon="9.401503521949053">
<ele>315.4</ele>
<time>2024-05-11T14:30:16Z</time>
</trkpt>
<trkpt lat="49.70566171221435" lon="9.401512071490288">
<ele>315.6</ele>
<time>2024-05-11T14:30:17Z</time>
</trkpt>
<trkpt lat="49.70562743023038" lon="9.401523554697633">
<ele>315.8</ele>
<time>2024-05-11T14:30:18Z</time>
</trkpt>
<trkpt lat="49.705596920102835" lon="9.401536881923676">
<ele>316</ele>
<time>2024-05-11T14:30:19Z</time>
</trkpt>
<trkpt lat="49.70556255429983" lon="9.401556914672256">
<ele>316.2</ele>
<time>2024-05-11T14:30:20Z</time>
</trkpt>
<trkpt lat="49.70552818849683" lon="9.401573175564408">
<ele>316.4</ele>
<time>2024-05-11T14:30:21Z</time>
</trkpt>
<trkpt lat="49.70549767836928" lon="9.40158843062818">
<ele>316.6</ele>
<time>2024-05-11T14:30:22Z</time>
</trkpt>
<trkpt lat="49.70546339638531" lon="9.401601757854223">
<ele>316.8</ele>
<time>2024-05-11T14:30:24Z</time>
</trkpt>
<trkpt lat="49.705394664779305" lon="9.401630340144038">
<ele>317.2</ele>
<time>2024-05-11T14:30:25Z</time>
</trkpt>
<trkpt lat="49.70536415465176" lon="9.401643751189113">
<ele>317.2</ele>
<time>2024-05-11T14:30:26Z</time>
</trkpt>
<trkpt lat="49.70532987266779" lon="9.401651378721">
<ele>317.4</ele>
<time>2024-05-11T14:30:27Z</time>
</trkpt>
<trkpt lat="49.705295506864786" lon="9.401659928262234">
<ele>317.4</ele>
<time>2024-05-11T14:30:28Z</time>
</trkpt>
<trkpt lat="49.70525736920536" lon="9.401661856099963">
<ele>317.4</ele>
<time>2024-05-11T14:30:29Z</time>
</trkpt>
<trkpt lat="49.705215375870466" lon="9.401661856099963">
<ele>317.4</ele>
<time>2024-05-11T14:30:30Z</time>
</trkpt>
<trkpt lat="49.70517723821104" lon="9.401664705947042">
<ele>317.4</ele>
<time>2024-05-11T14:30:31Z</time>
</trkpt>
<trkpt lat="49.70514672808349" lon="9.401668477803469">
<ele>317.2</ele>
<time>2024-05-11T14:30:32Z</time>
</trkpt>
<trkpt lat="49.705120073631406" lon="9.401668477803469">
<ele>317.2</ele>
<time>2024-05-11T14:30:33Z</time>
</trkpt>
<trkpt lat="49.705100962892175" lon="9.401666633784773">
<ele>317</ele>
<time>2024-05-11T14:30:34Z</time>
</trkpt>
<trkpt lat="49.70507808029651" lon="9.40166370011866">
<ele>317</ele>
<time>2024-05-11T14:30:35Z</time>
</trkpt>
<trkpt lat="49.705058969557285" lon="9.401657078415155">
<ele>316.8</ele>
<time>2024-05-11T14:30:36Z</time>
</trkpt>
<trkpt lat="49.705039942637086" lon="9.401653222739697">
<ele>316.6</ele>
<time>2024-05-11T14:30:37Z</time>
</trkpt>
<trkpt lat="49.705024687573314" lon="9.401651378721">
<ele>316.4</ele>
<time>2024-05-11T14:30:38Z</time>
</trkpt>
<trkpt lat="49.70500557683408" lon="9.401651378721">
<ele>316.4</ele>
<time>2024-05-11T14:30:39Z</time>
</trkpt>
<trkpt lat="49.70499032177031" lon="9.401650372892618">
<ele>316.2</ele>
<time>2024-05-11T14:30:40Z</time>
</trkpt>
<trkpt lat="49.70497129485011" lon="9.401646601036193">
<ele>316.2</ele>
<time>2024-05-11T14:30:41Z</time>
</trkpt>
<trkpt lat="49.70494841225445" lon="9.401641823351383">
<ele>316</ele>
<time>2024-05-11T14:30:42Z</time>
</trkpt>
<trkpt lat="49.704921673983335" lon="9.401637045666575">
<ele>316</ele>
<time>2024-05-11T14:30:43Z</time>
</trkpt>
<trkpt lat="49.70489501953125" lon="9.40163134597242">
<ele>315.8</ele>
<time>2024-05-11T14:30:44Z</time>
</trkpt>
<trkpt lat="49.704864425584674" lon="9.401628412306309">
<ele>315.6</ele>
<time>2024-05-11T14:30:45Z</time>
</trkpt>
<trkpt lat="49.70483391545713" lon="9.401624640449882">
<ele>315.4</ele>
<time>2024-05-11T14:30:46Z</time>
</trkpt>
<trkpt lat="49.704803405329585" lon="9.401623718440533">
<ele>315.2</ele>
<time>2024-05-11T14:30:47Z</time>
</trkpt>
<trkpt lat="49.70476912334561" lon="9.401624640449882">
<ele>315.2</ele>
<time>2024-05-11T14:30:48Z</time>
</trkpt>
<trkpt lat="49.70473475754261" lon="9.40163134597242">
<ele>315</ele>
<time>2024-05-11T14:30:49Z</time>
</trkpt>
<trkpt lat="49.70469661988318" lon="9.401639895513654">
<ele>314.8</ele>
<time>2024-05-11T14:30:50Z</time>
</trkpt>
<trkpt lat="49.70465462654829" lon="9.401650372892618">
<ele>314.8</ele>
<time>2024-05-11T14:30:51Z</time>
</trkpt>
<trkpt lat="49.70461271703243" lon="9.401659928262234">
<ele>314.6</ele>
<time>2024-05-11T14:30:52Z</time>
</trkpt>
<trkpt lat="49.70457072369754" lon="9.401664705947042">
<ele>314.4</ele>
<time>2024-05-11T14:30:53Z</time>
</trkpt>
<trkpt lat="49.70452495850623" lon="9.401666633784773">
<ele>314.4</ele>
<time>2024-05-11T14:30:54Z</time>
</trkpt>
<trkpt lat="49.70447919331491" lon="9.401668477803469">
<ele>314.2</ele>
<time>2024-05-11T14:30:55Z</time>
</trkpt>
<trkpt lat="49.70443342812359" lon="9.401668477803469">
<ele>314.2</ele>
<time>2024-05-11T14:30:56Z</time>
</trkpt>
<trkpt lat="49.70438380725682" lon="9.40166370011866">
<ele>314</ele>
<time>2024-05-11T14:30:58Z</time>
</trkpt>
<trkpt lat="49.70427702181041" lon="9.401646601036193">
<ele>313.8</ele>
<time>2024-05-11T14:30:59Z</time>
</trkpt>
<trkpt lat="49.70422740094364" lon="9.401644673198462">
<ele>313.6</ele>
<time>2024-05-11T14:31:00Z</time>
</trkpt>
<trkpt lat="49.704174008220434" lon="9.401648445054889">
<ele>313.4</ele>
<time>2024-05-11T14:31:01Z</time>
</trkpt>
<trkpt lat="49.70412061549723" lon="9.401651378721">
<ele>313.4</ele>
<time>2024-05-11T14:31:02Z</time>
</trkpt>
<trkpt lat="49.70406336709857" lon="9.401651378721">
<ele>313.2</ele>
<time>2024-05-11T14:31:03Z</time>
</trkpt>
<trkpt lat="49.70400234684348" lon="9.401658000424504">
<ele>313</ele>
<time>2024-05-11T14:31:04Z</time>
</trkpt>
<trkpt lat="49.70394509844482" lon="9.401666633784773">
<ele>312.8</ele>
<time>2024-05-11T14:31:05Z</time>
</trkpt>
<trkpt lat="49.70388407818973" lon="9.401676105335357">
<ele>312.6</ele>
<time>2024-05-11T14:31:06Z</time>
</trkpt>
<trkpt lat="49.70382305793464" lon="9.401686666533353">
<ele>312.4</ele>
<time>2024-05-11T14:31:07Z</time>
</trkpt>
<trkpt lat="49.703758182004094" lon="9.401693288236856">
<ele>312.2</ele>
<time>2024-05-11T14:31:08Z</time>
</trkpt>
<trkpt lat="49.70369338989258" lon="9.401699993759394">
<ele>312</ele>
<time>2024-05-11T14:31:09Z</time>
</trkpt>
<trkpt lat="49.70362465828657" lon="9.40170954912901">
<ele>311.8</ele>
<time>2024-05-11T14:31:10Z</time>
</trkpt>
<trkpt lat="49.70354838296771" lon="9.401720026507974">
<ele>311.6</ele>
<time>2024-05-11T14:31:11Z</time>
</trkpt>
<trkpt lat="49.70347587950528" lon="9.40172958187759">
<ele>311.4</ele>
<time>2024-05-11T14:31:12Z</time>
</trkpt>
<trkpt lat="49.703399604186416" lon="9.401740059256554">
<ele>311.2</ele>
<time>2024-05-11T14:31:13Z</time>
</trkpt>
<trkpt lat="49.703323328867555" lon="9.401749530807136">
<ele>310.8</ele>
<time>2024-05-11T14:31:14Z</time>
</trkpt>
<trkpt lat="49.70323942601681" lon="9.401760092005134">
<ele>310.6</ele>
<time>2024-05-11T14:31:15Z</time>
</trkpt>
<trkpt lat="49.70315543934703" lon="9.40176671370864">
<ele>310.2</ele>
<time>2024-05-11T14:31:16Z</time>
</trkpt>
<trkpt lat="49.70307153649628" lon="9.401771491393449">
<ele>310</ele>
<time>2024-05-11T14:31:17Z</time>
</trkpt>
<trkpt lat="49.702987633645535" lon="9.401775347068906">
<ele>309.8</ele>
<time>2024-05-11T14:31:18Z</time>
</trkpt>
<trkpt lat="49.702907502651215" lon="9.401768641546369">
<ele>309.6</ele>
<time>2024-05-11T14:31:20Z</time>
</trkpt>
<trkpt lat="49.70274732448161" lon="9.401736203581097">
<ele>309.2</ele>
<time>2024-05-11T14:31:21Z</time>
</trkpt>
<trkpt lat="49.702671049162745" lon="9.401718098670244">
<ele>308.8</ele>
<time>2024-05-11T14:31:22Z</time>
</trkpt>
<trkpt lat="49.70259854570031" lon="9.401695216074586">
<ele>308.6</ele>
<time>2024-05-11T14:31:23Z</time>
</trkpt>
<trkpt lat="49.70252989791334" lon="9.401670405641198">
<ele>308.4</ele>
<time>2024-05-11T14:31:24Z</time>
</trkpt>
<trkpt lat="49.70246502198279" lon="9.401641823351383">
<ele>308.2</ele>
<time>2024-05-11T14:31:25Z</time>
</trkpt>
<trkpt lat="49.7024040017277" lon="9.401613157242537">
<ele>308.2</ele>
<time>2024-05-11T14:31:26Z</time>
</trkpt>
<trkpt lat="49.70234675332904" lon="9.401584574952722">
<ele>308</ele>
<time>2024-05-11T14:31:27Z</time>
</trkpt>
<trkpt lat="49.70229336060584" lon="9.401559764519334">
<ele>308</ele>
<time>2024-05-11T14:31:28Z</time>
</trkpt>
<trkpt lat="49.70223996788263" lon="9.401536881923676">
<ele>308</ele>
<time>2024-05-11T14:31:29Z</time>
</trkpt>
<trkpt lat="49.70219034701586" lon="9.401513077318668">
<ele>308</ele>
<time>2024-05-11T14:31:30Z</time>
</trkpt>
<trkpt lat="49.70214458182454" lon="9.401493044570088">
<ele>308.2</ele>
<time>2024-05-11T14:31:31Z</time>
</trkpt>
<trkpt lat="49.702098816633224" lon="9.401473011821508">
<ele>308.2</ele>
<time>2024-05-11T14:31:32Z</time>
</trkpt>
<trkpt lat="49.702056823298335" lon="9.401452979072928">
<ele>308.4</ele>
<time>2024-05-11T14:31:33Z</time>
</trkpt>
<trkpt lat="49.70201105810702" lon="9.401436801999807">
<ele>308.6</ele>
<time>2024-05-11T14:31:34Z</time>
</trkpt>
<trkpt lat="49.70196906477213" lon="9.401421546936035">
<ele>308.6</ele>
<time>2024-05-11T14:31:35Z</time>
</trkpt>
<trkpt lat="49.7019309271127" lon="9.401406208053231">
<ele>308.8</ele>
<time>2024-05-11T14:31:36Z</time>
</trkpt>
<trkpt lat="49.70189278945327" lon="9.401394808664918">
<ele>308.8</ele>
<time>2024-05-11T14:31:37Z</time>
</trkpt>
<trkpt lat="49.70185465179384" lon="9.401379553601146">
<ele>309</ele>
<time>2024-05-11T14:31:38Z</time>
</trkpt>
<trkpt lat="49.70181274227798" lon="9.401365220546722">
<ele>309</ele>
<time>2024-05-11T14:31:39Z</time>
</trkpt>
<trkpt lat="49.70177074894309" lon="9.401354743167758">
<ele>309.2</ele>
<time>2024-05-11T14:31:40Z</time>
</trkpt>
<trkpt lat="49.7017287556082" lon="9.401345187798142">
<ele>309.2</ele>
<time>2024-05-11T14:31:41Z</time>
</trkpt>
<trkpt lat="49.70168684609234" lon="9.401334710419178">
<ele>309.4</ele>
<time>2024-05-11T14:31:42Z</time>
</trkpt>
<trkpt lat="49.701644852757454" lon="9.401327082887292">
<ele>309.6</ele>
<time>2024-05-11T14:31:43Z</time>
</trkpt>
<trkpt lat="49.701602859422565" lon="9.401320377364756">
<ele>309.8</ele>
<time>2024-05-11T14:31:44Z</time>
</trkpt>
<trkpt lat="49.70156094990671" lon="9.40131375566125">
<ele>310</ele>
<time>2024-05-11T14:31:45Z</time>
</trkpt>
<trkpt lat="49.70151895657182" lon="9.401307050138712">
<ele>310.2</ele>
<time>2024-05-11T14:31:46Z</time>
</trkpt>
<trkpt lat="49.70147704705596" lon="9.401301350444555">
<ele>310.4</ele>
<time>2024-05-11T14:31:47Z</time>
</trkpt>
<trkpt lat="49.70143505372107" lon="9.401294644922018">
<ele>310.6</ele>
<time>2024-05-11T14:31:48Z</time>
</trkpt>
<trkpt lat="49.70139306038618" lon="9.40128986723721">
<ele>310.8</ele>
<time>2024-05-11T14:31:49Z</time>
</trkpt>
<trkpt lat="49.70135115087032" lon="9.401283245533705">
<ele>311</ele>
<time>2024-05-11T14:31:50Z</time>
</trkpt>
<trkpt lat="49.70130538567901" lon="9.401274612173438">
<ele>311.4</ele>
<time>2024-05-11T14:31:51Z</time>
</trkpt>
<trkpt lat="49.70125953666866" lon="9.401266984641552">
<ele>311.6</ele>
<time>2024-05-11T14:31:52Z</time>
</trkpt>
<trkpt lat="49.701209999620914" lon="9.401256507262588">
<ele>311.8</ele>
<time>2024-05-11T14:31:53Z</time>
</trkpt>
<trkpt lat="49.701168006286025" lon="9.401245107874274">
<ele>312</ele>
<time>2024-05-11T14:31:54Z</time>
</trkpt>
<trkpt lat="49.70112609677017" lon="9.40123362466693">
<ele>312.2</ele>
<time>2024-05-11T14:31:55Z</time>
</trkpt>
<trkpt lat="49.70108410343528" lon="9.401225075125694">
<ele>312.6</ele>
<time>2024-05-11T14:31:56Z</time>
</trkpt>
<trkpt lat="49.70104211010039" lon="9.40121459774673">
<ele>312.8</ele>
<time>2024-05-11T14:31:57Z</time>
</trkpt>
<trkpt lat="49.70100397244096" lon="9.401206970214844">
<ele>313</ele>
<time>2024-05-11T14:31:58Z</time>
</trkpt>
<trkpt lat="49.70096583478153" lon="9.401196409016848">
<ele>313.2</ele>
<time>2024-05-11T14:31:59Z</time>
</trkpt>
<trkpt lat="49.7009276971221" lon="9.401186937466264">
<ele>313.4</ele>
<time>2024-05-11T14:32:00Z</time>
</trkpt>
<trkpt lat="49.70088570378721" lon="9.40117453224957">
<ele>313.6</ele>
<time>2024-05-11T14:32:01Z</time>
</trkpt>
<trkpt lat="49.70084756612778" lon="9.401160199195148">
<ele>313.6</ele>
<time>2024-05-11T14:32:02Z</time>
</trkpt>
<trkpt lat="49.70080565661192" lon="9.401144944131374">
<ele>313.8</ele>
<time>2024-05-11T14:32:03Z</time>
</trkpt>
<trkpt lat="49.70076366327703" lon="9.401129689067602">
<ele>314</ele>
<time>2024-05-11T14:32:04Z</time>
</trkpt>
<trkpt lat="49.70072166994214" lon="9.401111584156752">
<ele>314</ele>
<time>2024-05-11T14:32:05Z</time>
</trkpt>
<trkpt lat="49.70067976042628" lon="9.4010934792459">
<ele>314</ele>
<time>2024-05-11T14:32:06Z</time>
</trkpt>
<trkpt lat="49.70063776709139" lon="9.40107529051602">
<ele>314</ele>
<time>2024-05-11T14:32:07Z</time>
</trkpt>
<trkpt lat="49.700595773756504" lon="9.40105525776744">
<ele>314.2</ele>
<time>2024-05-11T14:32:08Z</time>
</trkpt>
<trkpt lat="49.700557636097074" lon="9.40103338100016">
<ele>314.4</ele>
<time>2024-05-11T14:32:09Z</time>
</trkpt>
<trkpt lat="49.700515726581216" lon="9.401009492576122">
<ele>314.4</ele>
<time>2024-05-11T14:32:10Z</time>
</trkpt>
<trkpt lat="49.700473733246326" lon="9.400984682142736">
<ele>314.6</ele>
<time>2024-05-11T14:32:11Z</time>
</trkpt>
<trkpt lat="49.700435595586896" lon="9.400958027690647">
<ele>314.8</ele>
<time>2024-05-11T14:32:12Z</time>
</trkpt>
<trkpt lat="49.70039360225201" lon="9.400930367410185">
<ele>315</ele>
<time>2024-05-11T14:32:13Z</time>
</trkpt>
<trkpt lat="49.700355464592576" lon="9.400901785120368">
<ele>315</ele>
<time>2024-05-11T14:32:14Z</time>
</trkpt>
<trkpt lat="49.700317326933146" lon="9.400870269164445">
<ele>315.2</ele>
<time>2024-05-11T14:32:15Z</time>
</trkpt>
<trkpt lat="49.70027541741729" lon="9.4008397590369">
<ele>315.2</ele>
<time>2024-05-11T14:32:16Z</time>
</trkpt>
<trkpt lat="49.700237195938826" lon="9.400808326900004">
<ele>315.2</ele>
<time>2024-05-11T14:32:17Z</time>
</trkpt>
<trkpt lat="49.70019528642297" lon="9.40077873878181">
<ele>315.4</ele>
<time>2024-05-11T14:32:18Z</time>
</trkpt>
<trkpt lat="49.70015329308808" lon="9.400746300816536">
<ele>315.4</ele>
<time>2024-05-11T14:32:19Z</time>
</trkpt>
<trkpt lat="49.70011515542865" lon="9.400714868679644">
<ele>315.6</ele>
<time>2024-05-11T14:32:20Z</time>
</trkpt>
<trkpt lat="49.70007316209376" lon="9.40067958086729">
<ele>315.6</ele>
<time>2024-05-11T14:32:21Z</time>
</trkpt>
<trkpt lat="49.70003502443433" lon="9.400646137073636">
<ele>315.8</ele>
<time>2024-05-11T14:32:22Z</time>
</trkpt>
<trkpt lat="49.6999968867749" lon="9.400614704936745">
<ele>315.8</ele>
<time>2024-05-11T14:32:23Z</time>
</trkpt>
<trkpt lat="49.69995497725904" lon="9.400583188980818">
<ele>315.8</ele>
<time>2024-05-11T14:32:24Z</time>
</trkpt>
<trkpt lat="49.69991683959961" lon="9.400551756843925">
<ele>315.8</ele>
<time>2024-05-11T14:32:25Z</time>
</trkpt>
<trkpt lat="49.69987484626472" lon="9.400520324707031">
<ele>315.8</ele>
<time>2024-05-11T14:32:26Z</time>
</trkpt>
<trkpt lat="49.69983285292983" lon="9.400486880913377">
<ele>315.8</ele>
<time>2024-05-11T14:32:27Z</time>
</trkpt>
<trkpt lat="49.69979094341397" lon="9.400453520938754">
<ele>315.8</ele>
<time>2024-05-11T14:32:28Z</time>
</trkpt>
<trkpt lat="49.69974895007908" lon="9.400420160964131">
<ele>315.8</ele>
<time>2024-05-11T14:32:29Z</time>
</trkpt>
<trkpt lat="49.699706956744194" lon="9.400386800989509">
<ele>315.8</ele>
<time>2024-05-11T14:32:30Z</time>
</trkpt>
<trkpt lat="49.699665047228336" lon="9.400353357195854">
<ele>315.8</ele>
<time>2024-05-11T14:32:31Z</time>
</trkpt>
<trkpt lat="49.69962305389345" lon="9.400319997221231">
<ele>315.8</ele>
<time>2024-05-11T14:32:32Z</time>
</trkpt>
<trkpt lat="49.69958114437759" lon="9.400288565084338">
<ele>315.8</ele>
<time>2024-05-11T14:32:33Z</time>
</trkpt>
<trkpt lat="49.6995391510427" lon="9.400255121290684">
<ele>315.8</ele>
<time>2024-05-11T14:32:34Z</time>
</trkpt>
<trkpt lat="49.69949338585138" lon="9.40022368915379">
<ele>316</ele>
<time>2024-05-11T14:32:35Z</time>
</trkpt>
<trkpt lat="49.69945524819195" lon="9.400190329179168">
<ele>316</ele>
<time>2024-05-11T14:32:36Z</time>
</trkpt>
<trkpt lat="49.69940948300064" lon="9.400156969204543">
<ele>316</ele>
<time>2024-05-11T14:32:37Z</time>
</trkpt>
<trkpt lat="49.69936363399029" lon="9.400126375257967">
<ele>316</ele>
<time>2024-05-11T14:32:38Z</time>
</trkpt>
<trkpt lat="49.69932172447443" lon="9.400096870958803">
<ele>316</ele>
<time>2024-05-11T14:32:39Z</time>
</trkpt>
<trkpt lat="49.69927595928311" lon="9.40006636083126">
<ele>316</ele>
<time>2024-05-11T14:32:40Z</time>
</trkpt>
<trkpt lat="49.6992301940918" lon="9.400038700550796">
<ele>316</ele>
<time>2024-05-11T14:32:41Z</time>
</trkpt>
<trkpt lat="49.69918820075691" lon="9.400010034441948">
<ele>316.2</ele>
<time>2024-05-11T14:32:42Z</time>
</trkpt>
<trkpt lat="49.69913857989013" lon="9.399981452152131">
<ele>316.4</ele>
<time>2024-05-11T14:32:43Z</time>
</trkpt>
<trkpt lat="49.699092814698815" lon="9.399954713881016">
<ele>316.6</ele>
<time>2024-05-11T14:32:44Z</time>
</trkpt>
<trkpt lat="49.6990470495075" lon="9.39992713741958">
<ele>316.8</ele>
<time>2024-05-11T14:32:45Z</time>
</trkpt>
<trkpt lat="49.69900128431618" lon="9.399900399148464">
<ele>317</ele>
<time>2024-05-11T14:32:46Z</time>
</trkpt>
<trkpt lat="49.698955519124866" lon="9.399876594543455">
<ele>317</ele>
<time>2024-05-11T14:32:47Z</time>
</trkpt>
<trkpt lat="49.698913525789976" lon="9.399853628128769">
<ele>317.2</ele>
<time>2024-05-11T14:32:48Z</time>
</trkpt>
<trkpt lat="49.69886776059866" lon="9.39982982352376">
<ele>317.4</ele>
<time>2024-05-11T14:32:49Z</time>
</trkpt>
<trkpt lat="49.69882199540734" lon="9.39980786293745">
<ele>317.4</ele>
<time>2024-05-11T14:32:50Z</time>
</trkpt>
<trkpt lat="49.69878000207245" lon="9.399786908179522">
<ele>317.6</ele>
<time>2024-05-11T14:32:51Z</time>
</trkpt>
<trkpt lat="49.69873809255659" lon="9.399763103574514">
<ele>317.8</ele>
<time>2024-05-11T14:32:52Z</time>
</trkpt>
<trkpt lat="49.69869224354625" lon="9.399743070825934">
<ele>317.8</ele>
<time>2024-05-11T14:32:53Z</time>
</trkpt>
<trkpt lat="49.69865033403039" lon="9.399723038077354">
<ele>318</ele>
<time>2024-05-11T14:32:54Z</time>
</trkpt>
<trkpt lat="49.6986083406955" lon="9.399703005328774">
<ele>318.2</ele>
<time>2024-05-11T14:32:55Z</time>
</trkpt>
<trkpt lat="49.698562575504184" lon="9.399686744436622">
<ele>318.4</ele>
<time>2024-05-11T14:32:56Z</time>
</trkpt>
<trkpt lat="49.69851681031287" lon="9.399668639525771">
<ele>318.4</ele>
<time>2024-05-11T14:32:57Z</time>
</trkpt>
<trkpt lat="49.69847481697798" lon="9.399655312299728">
<ele>318.6</ele>
<time>2024-05-11T14:32:58Z</time>
</trkpt>
<trkpt lat="49.69842905178666" lon="9.399640057235956">
<ele>318.6</ele>
<time>2024-05-11T14:32:59Z</time>
</trkpt>
<trkpt lat="49.698383286595345" lon="9.399626730009912">
<ele>318.8</ele>
<time>2024-05-11T14:33:00Z</time>
</trkpt>
<trkpt lat="49.698341293260455" lon="9.39961331896484">
<ele>319</ele>
<time>2024-05-11T14:33:01Z</time>
</trkpt>
<trkpt lat="49.69829552806914" lon="9.399599991738796">
<ele>319.2</ele>
<time>2024-05-11T14:33:02Z</time>
</trkpt>
<trkpt lat="49.69824976287782" lon="9.399584736675024">
<ele>319.4</ele>
<time>2024-05-11T14:33:03Z</time>
</trkpt>
<trkpt lat="49.69820022583008" lon="9.39957140944898">
<ele>319.6</ele>
<time>2024-05-11T14:33:04Z</time>
</trkpt>
<trkpt lat="49.69815437681973" lon="9.399557076394558">
<ele>319.6</ele>
<time>2024-05-11T14:33:05Z</time>
</trkpt>
<trkpt lat="49.69810861162841" lon="9.399544671177864">
<ele>319.8</ele>
<time>2024-05-11T14:33:06Z</time>
</trkpt>
<trkpt lat="49.6980628464371" lon="9.399535115808249">
<ele>319.8</ele>
<time>2024-05-11T14:33:07Z</time>
</trkpt>
<trkpt lat="49.69802085310221" lon="9.399524638429284">
<ele>320</ele>
<time>2024-05-11T14:33:08Z</time>
</trkpt>
<trkpt lat="49.69797508791089" lon="9.399515083059669">
<ele>320</ele>
<time>2024-05-11T14:33:09Z</time>
</trkpt>
<trkpt lat="49.69792555086315" lon="9.399504605680704">
<ele>320</ele>
<time>2024-05-11T14:33:10Z</time>
</trkpt>
<trkpt lat="49.69787978567183" lon="9.399496978148818">
<ele>320</ele>
<time>2024-05-11T14:33:11Z</time>
</trkpt>
<trkpt lat="49.697830164805055" lon="9.399488428607585">
<ele>320.2</ele>
<time>2024-05-11T14:33:12Z</time>
</trkpt>
<trkpt lat="49.69778439961374" lon="9.399479795247316">
<ele>320.2</ele>
<time>2024-05-11T14:33:13Z</time>
</trkpt>
<trkpt lat="49.69773477874696" lon="9.399468395859005">
<ele>320.2</ele>
<time>2024-05-11T14:33:14Z</time>
</trkpt>
<trkpt lat="49.69768138602376" lon="9.39945506863296">
<ele>320.2</ele>
<time>2024-05-11T14:33:15Z</time>
</trkpt>
<trkpt lat="49.697631765156984" lon="9.399441657587886">
<ele>320.2</ele>
<time>2024-05-11T14:33:16Z</time>
</trkpt>
<trkpt lat="49.69757837243378" lon="9.399430258199573">
<ele>320.2</ele>
<time>2024-05-11T14:33:17Z</time>
</trkpt>
<trkpt lat="49.69752497971058" lon="9.399416847154498">
<ele>320</ele>
<time>2024-05-11T14:33:18Z</time>
</trkpt>
<trkpt lat="49.697471586987376" lon="9.399403519928455">
<ele>320</ele>
<time>2024-05-11T14:33:19Z</time>
</trkpt>
<trkpt lat="49.69741819426417" lon="9.399392120540142">
<ele>319.8</ele>
<time>2024-05-11T14:33:20Z</time>
</trkpt>
<trkpt lat="49.69736480154097" lon="9.399379715323448">
<ele>319.8</ele>
<time>2024-05-11T14:33:21Z</time>
</trkpt>
<trkpt lat="49.697311324998736" lon="9.399366304278374">
<ele>319.6</ele>
<time>2024-05-11T14:33:22Z</time>
</trkpt>
<trkpt lat="49.697257932275534" lon="9.399352055042982">
<ele>319.4</ele>
<time>2024-05-11T14:33:23Z</time>
</trkpt>
<trkpt lat="49.69720453955233" lon="9.39933487214148">
<ele>319.4</ele>
<time>2024-05-11T14:33:24Z</time>
</trkpt>
<trkpt lat="49.69714729115367" lon="9.39931676723063">
<ele>319.2</ele>
<time>2024-05-11T14:33:25Z</time>
</trkpt>
<trkpt lat="49.69709389843047" lon="9.39929480664432">
<ele>319.2</ele>
<time>2024-05-11T14:33:26Z</time>
</trkpt>
<trkpt lat="49.697040505707264" lon="9.399268068373203">
<ele>319</ele>
<time>2024-05-11T14:33:27Z</time>
</trkpt>
<trkpt lat="49.6969832573086" lon="9.399241413921118">
<ele>318.8</ele>
<time>2024-05-11T14:33:28Z</time>
</trkpt>
<trkpt lat="49.6969298645854" lon="9.399213753640652">
<ele>318.6</ele>
<time>2024-05-11T14:33:29Z</time>
</trkpt>
<trkpt lat="49.6968764718622" lon="9.399181315675378">
<ele>318.6</ele>
<time>2024-05-11T14:33:30Z</time>
</trkpt>
<trkpt lat="49.696823079138994" lon="9.399147955700755">
<ele>318.4</ele>
<time>2024-05-11T14:33:31Z</time>
</trkpt>
<trkpt lat="49.69677345827222" lon="9.399111745879054">
<ele>318.2</ele>
<time>2024-05-11T14:33:32Z</time>
</trkpt>
<trkpt lat="49.696720065549016" lon="9.399071680381894">
<ele>318.2</ele>
<time>2024-05-11T14:33:33Z</time>
</trkpt>
<trkpt lat="49.69667052850127" lon="9.399029687047005">
<ele>318</ele>
<time>2024-05-11T14:33:34Z</time>
</trkpt>
<trkpt lat="49.6966209076345" lon="9.398986771702766">
<ele>318</ele>
<time>2024-05-11T14:33:35Z</time>
</trkpt>
<trkpt lat="49.69657128676772" lon="9.398936228826642">
<ele>317.8</ele>
<time>2024-05-11T14:33:36Z</time>
</trkpt>
<trkpt lat="49.696525521576405" lon="9.398884763941169">
<ele>317.8</ele>
<time>2024-05-11T14:33:37Z</time>
</trkpt>
<trkpt lat="49.69647975638509" lon="9.398835143074391">
<ele>317.8</ele>
<time>2024-05-11T14:33:38Z</time>
</trkpt>
<trkpt lat="49.69643013551831" lon="9.398784600198267">
<ele>317.8</ele>
<time>2024-05-11T14:33:39Z</time>
</trkpt>
<trkpt lat="49.69638437032699" lon="9.398728357627988">
<ele>317.8</ele>
<time>2024-05-11T14:33:40Z</time>
</trkpt>
<trkpt lat="49.69634246081114" lon="9.398668259382248">
<ele>317.8</ele>
<time>2024-05-11T14:33:41Z</time>
</trkpt>
<trkpt lat="49.69629661180079" lon="9.398608161136508">
<ele>317.6</ele>
<time>2024-05-11T14:33:42Z</time>
</trkpt>
<trkpt lat="49.69625084660947" lon="9.398548062890768">
<ele>317.6</ele>
<time>2024-05-11T14:33:43Z</time>
</trkpt>
<trkpt lat="49.69620508141816" lon="9.398489892482758">
<ele>317.4</ele>
<time>2024-05-11T14:33:44Z</time>
</trkpt>
<trkpt lat="49.69615931622684" lon="9.398433649912477">
<ele>317.2</ele>
<time>2024-05-11T14:33:45Z</time>
</trkpt>
<trkpt lat="49.69611355103552" lon="9.398374557495115">
<ele>317.2</ele>
<time>2024-05-11T14:33:46Z</time>
</trkpt>
<trkpt lat="49.69606778584421" lon="9.398315381258726">
<ele>317</ele>
<time>2024-05-11T14:33:47Z</time>
</trkpt>
<trkpt lat="49.69602202065289" lon="9.398256288841369">
<ele>316.8</ele>
<time>2024-05-11T14:33:48Z</time>
</trkpt>
<trkpt lat="49.695976255461574" lon="9.398201890289783">
<ele>316.6</ele>
<time>2024-05-11T14:33:49Z</time>
</trkpt>
<trkpt lat="49.69593426212669" lon="9.39814849756658">
<ele>316.4</ele>
<time>2024-05-11T14:33:50Z</time>
</trkpt>
<trkpt lat="49.69588849693537" lon="9.398097954690456">
<ele>316.2</ele>
<time>2024-05-11T14:33:51Z</time>
</trkpt>
<trkpt lat="49.69584650360048" lon="9.398046489804983">
<ele>316.2</ele>
<time>2024-05-11T14:33:52Z</time>
</trkpt>
<trkpt lat="49.69580073840916" lon="9.397996868938208">
<ele>316</ele>
<time>2024-05-11T14:33:53Z</time>
</trkpt>
<trkpt lat="49.695754973217845" lon="9.397946326062083">
<ele>315.8</ele>
<time>2024-05-11T14:33:54Z</time>
</trkpt>
<trkpt lat="49.69571297988296" lon="9.397894777357578">
<ele>315.6</ele>
<time>2024-05-11T14:33:55Z</time>
</trkpt>
<trkpt lat="49.6956710703671" lon="9.397845240309834">
<ele>315.4</ele>
<time>2024-05-11T14:33:56Z</time>
</trkpt>
<trkpt lat="49.69562907703221" lon="9.39779469743371">
<ele>315.2</ele>
<time>2024-05-11T14:33:57Z</time>
</trkpt>
<trkpt lat="49.69558708369732" lon="9.397747004404664">
<ele>315</ele>
<time>2024-05-11T14:33:58Z</time>
</trkpt>
<trkpt lat="49.69554894603789" lon="9.397701239213347">
<ele>315</ele>
<time>2024-05-11T14:33:59Z</time>
</trkpt>
<trkpt lat="49.69551080837846" lon="9.39765547402203">
<ele>314.8</ele>
<time>2024-05-11T14:34:00Z</time>
</trkpt>
<trkpt lat="49.6954688988626" lon="9.397606775164604">
<ele>314.4</ele>
<time>2024-05-11T14:34:01Z</time>
</trkpt>
<trkpt lat="49.69543067738414" lon="9.39755623228848">
<ele>314.2</ele>
<time>2024-05-11T14:34:02Z</time>
</trkpt>
<trkpt lat="49.69539253972471" lon="9.397506695240736">
<ele>314</ele>
<time>2024-05-11T14:34:03Z</time>
</trkpt>
<trkpt lat="49.69535063020885" lon="9.397455146536233">
<ele>313.8</ele>
<time>2024-05-11T14:34:04Z</time>
</trkpt>
<trkpt lat="49.69531249254942" lon="9.3973998259753">
<ele>313.6</ele>
<time>2024-05-11T14:34:05Z</time>
</trkpt>
<trkpt lat="49.69526664353907" lon="9.397344589233398">
<ele>313.4</ele>
<time>2024-05-11T14:34:06Z</time>
</trkpt>
<trkpt lat="49.69522473402321" lon="9.397283485159278">
<ele>313.2</ele>
<time>2024-05-11T14:34:07Z</time>
</trkpt>
<trkpt lat="49.69518659636378" lon="9.397218693047762">
<ele>313.2</ele>
<time>2024-05-11T14:34:08Z</time>
</trkpt>
<trkpt lat="49.69514460302889" lon="9.397149961441755">
<ele>313</ele>
<time>2024-05-11T14:34:09Z</time>
</trkpt>
<trkpt lat="49.695102609694" lon="9.397080391645432">
<ele>313</ele>
<time>2024-05-11T14:34:10Z</time>
</trkpt>
<trkpt lat="49.695060700178146" lon="9.39700311049819">
<ele>312.8</ele>
<time>2024-05-11T14:34:11Z</time>
</trkpt>
<trkpt lat="49.69501870684326" lon="9.396923063322902">
<ele>312.8</ele>
<time>2024-05-11T14:34:12Z</time>
</trkpt>
<trkpt lat="49.69497294165194" lon="9.396838154643774">
<ele>312.6</ele>
<time>2024-05-11T14:34:13Z</time>
</trkpt>
<trkpt lat="49.694923320785165" lon="9.396750396117568">
<ele>312.4</ele>
<time>2024-05-11T14:34:14Z</time>
</trkpt>
<trkpt lat="49.69487755559385" lon="9.396656937897204">
<ele>312.2</ele>
<time>2024-05-11T14:34:15Z</time>
</trkpt>
<trkpt lat="49.694824162870646" lon="9.396558701992037">
<ele>312</ele>
<time>2024-05-11T14:34:16Z</time>
</trkpt>
<trkpt lat="49.694766998291016" lon="9.396456694230436">
<ele>311.8</ele>
<time>2024-05-11T14:34:17Z</time>
</trkpt>
<trkpt lat="49.694705894216895" lon="9.39635175280273">
<ele>311.6</ele>
<time>2024-05-11T14:34:18Z</time>
</trkpt>
<trkpt lat="49.694644873961806" lon="9.396238261833789">
<ele>311.2</ele>
<time>2024-05-11T14:34:19Z</time>
</trkpt>
<trkpt lat="49.69457999803126" lon="9.396126698702574">
<ele>310.8</ele>
<time>2024-05-11T14:34:20Z</time>
</trkpt>
<trkpt lat="49.694526605308056" lon="9.396010357886553">
<ele>310.6</ele>
<time>2024-05-11T14:34:21Z</time>
</trkpt>
<trkpt lat="49.69444655813277" lon="9.395926455035806">
<ele>310</ele>
<time>2024-05-11T14:34:22Z</time>
</trkpt>
<trkpt lat="49.69439693726599" lon="9.395831990987062">
<ele>309.6</ele>
<time>2024-05-11T14:34:24Z</time>
</trkpt>
<trkpt lat="49.69427866861224" lon="9.395671812817454">
<ele>308.4</ele>
<time>2024-05-11T14:34:25Z</time>
</trkpt>
<trkpt lat="49.694213792681694" lon="9.395605009049175">
<ele>307.8</ele>
<time>2024-05-11T14:34:26Z</time>
</trkpt>
<trkpt lat="49.69414900057018" lon="9.395546838641168">
<ele>307.2</ele>
<time>2024-05-11T14:34:27Z</time>
</trkpt>
<trkpt lat="49.694076497107744" lon="9.3955001514405">
<ele>306.6</ele>
<time>2024-05-11T14:34:28Z</time>
</trkpt>
<trkpt lat="49.69400399364531" lon="9.395458158105612">
<ele>306</ele>
<time>2024-05-11T14:34:29Z</time>
</trkpt>
<trkpt lat="49.69393157400191" lon="9.395433347672224">
<ele>305.2</ele>
<time>2024-05-11T14:34:30Z</time>
</trkpt>
<trkpt lat="49.6938628423959" lon="9.395416248589754">
<ele>304.4</ele>
<time>2024-05-11T14:34:31Z</time>
</trkpt>
<trkpt lat="49.69378656707704" lon="9.395408621057868">
<ele>303.6</ele>
<time>2024-05-11T14:34:32Z</time>
</trkpt>
<trkpt lat="49.69371029175818" lon="9.395404765382407">
<ele>302.8</ele>
<time>2024-05-11T14:34:33Z</time>
</trkpt>
<trkpt lat="49.69363016076386" lon="9.395404765382407">
<ele>302</ele>
<time>2024-05-11T14:34:34Z</time>
</trkpt>
<trkpt lat="49.693542402237654" lon="9.395409543067217">
<ele>301.2</ele>
<time>2024-05-11T14:34:35Z</time>
</trkpt>
<trkpt lat="49.69345472753048" lon="9.395416248589754">
<ele>300.4</ele>
<time>2024-05-11T14:34:36Z</time>
</trkpt>
<trkpt lat="49.69336696900427" lon="9.395424798130987">
<ele>299.6</ele>
<time>2024-05-11T14:34:37Z</time>
</trkpt>
<trkpt lat="49.693206707015634" lon="9.39544198103249">
<ele>298.8</ele>
<time>2024-05-11T14:34:39Z</time>
</trkpt>
<trkpt lat="49.693126659840345" lon="9.395448602735996">
<ele>297.8</ele>
<time>2024-05-11T14:34:40Z</time>
</trkpt>
<trkpt lat="49.69305038452149" lon="9.39546008594334">
<ele>296.8</ele>
<time>2024-05-11T14:34:41Z</time>
</trkpt>
<trkpt lat="49.69297402538359" lon="9.395464863628147">
<ele>295.8</ele>
<time>2024-05-11T14:34:42Z</time>
</trkpt>
<trkpt lat="49.69289775006473" lon="9.395471569150686">
<ele>295</ele>
<time>2024-05-11T14:34:43Z</time>
</trkpt>
<trkpt lat="49.69282910227776" lon="9.395478190854192">
<ele>294.2</ele>
<time>2024-05-11T14:34:44Z</time>
</trkpt>
<trkpt lat="49.69276045449078" lon="9.395488668233156">
<ele>293.6</ele>
<time>2024-05-11T14:34:45Z</time>
</trkpt>
<trkpt lat="49.69269935041666" lon="9.395504929125307">
<ele>292.8</ele>
<time>2024-05-11T14:34:46Z</time>
</trkpt>
<trkpt lat="49.69263833016157" lon="9.39552303403616">
<ele>292</ele>
<time>2024-05-11T14:34:47Z</time>
</trkpt>
<trkpt lat="49.69257730990648" lon="9.395546838641168">
<ele>291.4</ele>
<time>2024-05-11T14:34:48Z</time>
</trkpt>
<trkpt lat="49.692516289651394" lon="9.39558120444417">
<ele>290.8</ele>
<time>2024-05-11T14:34:49Z</time>
</trkpt>
<trkpt lat="49.692455269396305" lon="9.39562126994133">
<ele>290.2</ele>
<time>2024-05-11T14:34:50Z</time>
</trkpt>
<trkpt lat="49.69239802099764" lon="9.395667957141995">
<ele>289.8</ele>
<time>2024-05-11T14:34:51Z</time>
</trkpt>
<trkpt lat="49.69234462827444" lon="9.3957195058465">
<ele>289.2</ele>
<time>2024-05-11T14:34:52Z</time>
</trkpt>
<trkpt lat="49.69228360801935" lon="9.395772898569705">
<ele>288.8</ele>
<time>2024-05-11T14:34:53Z</time>
</trkpt>
<trkpt lat="49.69222635962069" lon="9.395830146968365">
<ele>288.4</ele>
<time>2024-05-11T14:34:54Z</time>
</trkpt>
<trkpt lat="49.6921653393656" lon="9.395883539691567">
<ele>288</ele>
<time>2024-05-11T14:34:55Z</time>
</trkpt>
<trkpt lat="49.69210431911051" lon="9.395939782261848">
<ele>287.6</ele>
<time>2024-05-11T14:34:56Z</time>
</trkpt>
<trkpt lat="49.69204707071185" lon="9.39599510282278">
<ele>287.2</ele>
<time>2024-05-11T14:34:57Z</time>
</trkpt>
<trkpt lat="49.69198605045676" lon="9.396046567708254">
<ele>286.8</ele>
<time>2024-05-11T14:34:58Z</time>
</trkpt>
<trkpt lat="49.69192503020167" lon="9.39609526656568">
<ele>286.6</ele>
<time>2024-05-11T14:34:59Z</time>
</trkpt>
<trkpt lat="49.691864009946585" lon="9.396146731451154">
<ele>286.2</ele>
<time>2024-05-11T14:35:00Z</time>
</trkpt>
<trkpt lat="49.69179913401604" lon="9.396202974021437">
<ele>285.8</ele>
<time>2024-05-11T14:35:01Z</time>
</trkpt>
<trkpt lat="49.691741885617375" lon="9.39625452272594">
<ele>285.4</ele>
<time>2024-05-11T14:35:02Z</time>
</trkpt>
<trkpt lat="49.691684721037745" lon="9.396307915449142">
<ele>285</ele>
<time>2024-05-11T14:35:03Z</time>
</trkpt>
<trkpt lat="49.691623616963625" lon="9.396363236010076">
<ele>284.8</ele>
<time>2024-05-11T14:35:04Z</time>
</trkpt>
<trkpt lat="49.691566452383995" lon="9.3964137788862">
<ele>284.4</ele>
<time>2024-05-11T14:35:05Z</time>
</trkpt>
<trkpt lat="49.69150920398533" lon="9.396466249600053">
<ele>284.2</ele>
<time>2024-05-11T14:35:06Z</time>
</trkpt>
<trkpt lat="49.69145958311856" lon="9.396521486341952">
<ele>284</ele>
<time>2024-05-11T14:35:07Z</time>
</trkpt>
<trkpt lat="49.691410046070814" lon="9.396578734740617">
<ele>283.6</ele>
<time>2024-05-11T14:35:08Z</time>
</trkpt>
<trkpt lat="49.69135665334761" lon="9.39663028344512">
<ele>283.2</ele>
<time>2024-05-11T14:35:09Z</time>
</trkpt>
<trkpt lat="49.69130317680538" lon="9.396676970645784">
<ele>283</ele>
<time>2024-05-11T14:35:10Z</time>
</trkpt>
<trkpt lat="49.69124215655029" lon="9.396719885990024">
<ele>282.6</ele>
<time>2024-05-11T14:35:11Z</time>
</trkpt>
<trkpt lat="49.69118499197066" lon="9.396759951487184">
<ele>282.4</ele>
<time>2024-05-11T14:35:12Z</time>
</trkpt>
<trkpt lat="49.69112388789654" lon="9.396796161308885">
<ele>282</ele>
<time>2024-05-11T14:35:13Z</time>
</trkpt>
<trkpt lat="49.69106672331691" lon="9.39682960510254">
<ele>281.8</ele>
<time>2024-05-11T14:35:14Z</time>
</trkpt>
<trkpt lat="49.691013330593705" lon="9.39686195924878">
<ele>281.8</ele>
<time>2024-05-11T14:35:15Z</time>
</trkpt>
<trkpt lat="49.69095985405147" lon="9.396891547366977">
<ele>281.6</ele>
<time>2024-05-11T14:35:16Z</time>
</trkpt>
<trkpt lat="49.69090646132827" lon="9.396920129656792">
<ele>281.4</ele>
<time>2024-05-11T14:35:17Z</time>
</trkpt>
<trkpt lat="49.69084929674864" lon="9.396947789937258">
<ele>281.2</ele>
<time>2024-05-11T14:35:18Z</time>
</trkpt>
<trkpt lat="49.69078819267452" lon="9.396974528208377">
<ele>281</ele>
<time>2024-05-11T14:35:19Z</time>
</trkpt>
<trkpt lat="49.69072717241943" lon="9.39700311049819">
<ele>280.8</ele>
<time>2024-05-11T14:35:20Z</time>
</trkpt>
<trkpt lat="49.69066615216434" lon="9.397029848769307">
<ele>280.6</ele>
<time>2024-05-11T14:35:21Z</time>
</trkpt>
<trkpt lat="49.69060127623379" lon="9.3970612809062">
<ele>280.4</ele>
<time>2024-05-11T14:35:22Z</time>
</trkpt>
<trkpt lat="49.69053262844682" lon="9.397089947015049">
<ele>280.2</ele>
<time>2024-05-11T14:35:23Z</time>
</trkpt>
<trkpt lat="49.69046775251627" lon="9.397116601467133">
<ele>279.8</ele>
<time>2024-05-11T14:35:24Z</time>
</trkpt>
<trkpt lat="49.690402960404754" lon="9.397146189585328">
<ele>279.6</ele>
<time>2024-05-11T14:35:25Z</time>
</trkpt>
<trkpt lat="49.690341940149665" lon="9.397186255082488">
<ele>279.4</ele>
<time>2024-05-11T14:35:26Z</time>
</trkpt>
<trkpt lat="49.69028846360743" lon="9.397232020273805">
<ele>279.2</ele>
<time>2024-05-11T14:35:27Z</time>
</trkpt>
<trkpt lat="49.69023507088423" lon="9.397276863455772">
<ele>279</ele>
<time>2024-05-11T14:35:28Z</time>
</trkpt>
<trkpt lat="49.6901779063046" lon="9.397323550656438">
<ele>279</ele>
<time>2024-05-11T14:35:29Z</time>
</trkpt>
<trkpt lat="49.69011680223048" lon="9.397371243685484">
<ele>278.8</ele>
<time>2024-05-11T14:35:30Z</time>
</trkpt>
<trkpt lat="49.690063409507275" lon="9.39741801470518">
<ele>278.6</ele>
<time>2024-05-11T14:35:31Z</time>
</trkpt>
<trkpt lat="49.690006244927645" lon="9.397462774068115">
<ele>278.4</ele>
<time>2024-05-11T14:35:32Z</time>
</trkpt>
<trkpt lat="49.68995276838541" lon="9.397504767403008">
<ele>278.2</ele>
<time>2024-05-11T14:35:33Z</time>
</trkpt>
<trkpt lat="49.68983835540712" lon="9.39757819287479">
<ele>278.2</ele>
<time>2024-05-11T14:35:35Z</time>
</trkpt>
<trkpt lat="49.68978496268392" lon="9.397609708830714">
<ele>278</ele>
<time>2024-05-11T14:35:36Z</time>
</trkpt>
<trkpt lat="49.68973156996071" lon="9.397643068805335">
<ele>277.8</ele>
<time>2024-05-11T14:35:37Z</time>
</trkpt>
<trkpt lat="49.68967817723751" lon="9.39767450094223">
<ele>277.6</ele>
<time>2024-05-11T14:35:38Z</time>
</trkpt>
<trkpt lat="49.689632412046194" lon="9.397707860916851">
<ele>277.4</ele>
<time>2024-05-11T14:35:39Z</time>
</trkpt>
<trkpt lat="49.689586563035846" lon="9.397745076566936">
<ele>277.2</ele>
<time>2024-05-11T14:35:40Z</time>
</trkpt>
<trkpt lat="49.68954465351999" lon="9.397781370207667">
<ele>277</ele>
<time>2024-05-11T14:35:41Z</time>
</trkpt>
<trkpt lat="49.68949888832867" lon="9.397818502038715">
<ele>276.8</ele>
<time>2024-05-11T14:35:42Z</time>
</trkpt>
<trkpt lat="49.689453123137355" lon="9.39785479567945">
<ele>276.8</ele>
<time>2024-05-11T14:35:43Z</time>
</trkpt>
<trkpt lat="49.68941490165889" lon="9.397901482880116">
<ele>276.6</ele>
<time>2024-05-11T14:35:44Z</time>
</trkpt>
<trkpt lat="49.689372992143035" lon="9.397943476215003">
<ele>276.6</ele>
<time>2024-05-11T14:35:45Z</time>
</trkpt>
<trkpt lat="49.68932722695172" lon="9.397972980514169">
<ele>276.6</ele>
<time>2024-05-11T14:35:46Z</time>
</trkpt>
<trkpt lat="49.68927760608494" lon="9.397999718785286">
<ele>276.4</ele>
<time>2024-05-11T14:35:47Z</time>
</trkpt>
<trkpt lat="49.689231840893626" lon="9.398031234741213">
<ele>276.4</ele>
<time>2024-05-11T14:35:48Z</time>
</trkpt>
<trkpt lat="49.68918222002685" lon="9.398063588887451">
<ele>276.4</ele>
<time>2024-05-11T14:35:49Z</time>
</trkpt>
<trkpt lat="49.68912882730365" lon="9.398097954690456">
<ele>276.4</ele>
<time>2024-05-11T14:35:50Z</time>
</trkpt>
<trkpt lat="49.68908306211233" lon="9.398141792044044">
<ele>276.2</ele>
<time>2024-05-11T14:35:51Z</time>
</trkpt>
<trkpt lat="49.68902966938913" lon="9.398179929703474">
<ele>276.2</ele>
<time>2024-05-11T14:35:52Z</time>
</trkpt>
<trkpt lat="49.68898004852235" lon="9.398219995200634">
<ele>276</ele>
<time>2024-05-11T14:35:53Z</time>
</trkpt>
<trkpt lat="49.68893051147461" lon="9.398262910544872">
<ele>275.8</ele>
<time>2024-05-11T14:35:54Z</time>
</trkpt>
<trkpt lat="49.688880890607834" lon="9.398306831717491">
<ele>275.8</ele>
<time>2024-05-11T14:35:55Z</time>
</trkpt>
<trkpt lat="49.68883126974106" lon="9.39834974706173">
<ele>275.6</ele>
<time>2024-05-11T14:35:56Z</time>
</trkpt>
<trkpt lat="49.688781732693315" lon="9.398391656577587">
<ele>275.4</ele>
<time>2024-05-11T14:35:57Z</time>
</trkpt>
<trkpt lat="49.68872448429465" lon="9.398423172533512">
<ele>275.2</ele>
<time>2024-05-11T14:35:58Z</time>
</trkpt>
<trkpt lat="49.68867109157145" lon="9.398449826985598">
<ele>275</ele>
<time>2024-05-11T14:35:59Z</time>
</trkpt>
<trkpt lat="49.68861384317279" lon="9.398473715409636">
<ele>274.8</ele>
<time>2024-05-11T14:36:00Z</time>
</trkpt>
<trkpt lat="49.68856422230601" lon="9.398500369861722">
<ele>274.4</ele>
<time>2024-05-11T14:36:01Z</time>
</trkpt>
<trkpt lat="49.68851082958281" lon="9.398528030142188">
<ele>274.2</ele>
<time>2024-05-11T14:36:02Z</time>
</trkpt>
<trkpt lat="49.688465064391494" lon="9.398561473935844">
<ele>274</ele>
<time>2024-05-11T14:36:03Z</time>
</trkpt>
<trkpt lat="49.68841929920018" lon="9.3986033834517">
<ele>274</ele>
<time>2024-05-11T14:36:04Z</time>
</trkpt>
<trkpt lat="49.68837730586529" lon="9.398650154471396">
<ele>273.8</ele>
<time>2024-05-11T14:36:05Z</time>
</trkpt>
<trkpt lat="49.68833154067397" lon="9.398698769509792">
<ele>273.6</ele>
<time>2024-05-11T14:36:06Z</time>
</trkpt>
<trkpt lat="49.68829340301454" lon="9.398750234395266">
<ele>273.4</ele>
<time>2024-05-11T14:36:07Z</time>
</trkpt>
<trkpt lat="49.688247637823224" lon="9.398791305720806">
<ele>273.2</ele>
<time>2024-05-11T14:36:08Z</time>
</trkpt>
<trkpt lat="49.68819424510002" lon="9.398826593533158">
<ele>272.8</ele>
<time>2024-05-11T14:36:09Z</time>
</trkpt>
<trkpt lat="49.688148479908705" lon="9.398858025670052">
<ele>272.6</ele>
<time>2024-05-11T14:36:10Z</time>
</trkpt>
<trkpt lat="49.68810271471739" lon="9.398896163329482">
<ele>272.4</ele>
<time>2024-05-11T14:36:11Z</time>
</trkpt>
<trkpt lat="49.68805309385061" lon="9.398931451141834">
<ele>272</ele>
<time>2024-05-11T14:36:12Z</time>
</trkpt>
<trkpt lat="49.68799970112741" lon="9.39896196126938">
<ele>271.6</ele>
<time>2024-05-11T14:36:13Z</time>
</trkpt>
<trkpt lat="49.68794245272875" lon="9.398988699540496">
<ele>271.2</ele>
<time>2024-05-11T14:36:14Z</time>
</trkpt>
<trkpt lat="49.68788143247366" lon="9.39902205951512">
<ele>270.8</ele>
<time>2024-05-11T14:36:15Z</time>
</trkpt>
<trkpt lat="49.68782803975046" lon="9.399047791957855">
<ele>270.4</ele>
<time>2024-05-11T14:36:16Z</time>
</trkpt>
<trkpt lat="49.687770791351795" lon="9.399074530228972">
<ele>270</ele>
<time>2024-05-11T14:36:17Z</time>
</trkpt>
<trkpt lat="49.687709771096706" lon="9.399103112518787">
<ele>269.6</ele>
<time>2024-05-11T14:36:18Z</time>
</trkpt>
<trkpt lat="49.687652522698045" lon="9.399133622646332">
<ele>269.2</ele>
<time>2024-05-11T14:36:19Z</time>
</trkpt>
<trkpt lat="49.68758773058653" lon="9.399160360917447">
<ele>268.8</ele>
<time>2024-05-11T14:36:20Z</time>
</trkpt>
<trkpt lat="49.68751899898052" lon="9.399187015369534">
<ele>268.2</ele>
<time>2024-05-11T14:36:21Z</time>
</trkpt>
<trkpt lat="49.68744657933712" lon="9.399211825802922">
<ele>267.8</ele>
<time>2024-05-11T14:36:22Z</time>
</trkpt>
<trkpt lat="49.687374075874686" lon="9.39923470839858">
<ele>267.2</ele>
<time>2024-05-11T14:36:23Z</time>
</trkpt>
<trkpt lat="49.687297800555825" lon="9.399261446669698">
<ele>266.6</ele>
<time>2024-05-11T14:36:24Z</time>
</trkpt>
<trkpt lat="49.68722152523696" lon="9.399288101121783">
<ele>266</ele>
<time>2024-05-11T14:36:25Z</time>
</trkpt>
<trkpt lat="49.68714139424264" lon="9.399312911555173">
<ele>265.4</ele>
<time>2024-05-11T14:36:26Z</time>
</trkpt>
<trkpt lat="49.68706511892378" lon="9.399338643997908">
<ele>264.8</ele>
<time>2024-05-11T14:36:27Z</time>
</trkpt>
<trkpt lat="49.686981132254" lon="9.399365382269025">
<ele>264.2</ele>
<time>2024-05-11T14:36:28Z</time>
</trkpt>
<trkpt lat="49.68689345754683" lon="9.399393042549493">
<ele>263.6</ele>
<time>2024-05-11T14:36:29Z</time>
</trkpt>
<trkpt lat="49.686801843345165" lon="9.3994150031358">
<ele>263.2</ele>
<time>2024-05-11T14:36:30Z</time>
</trkpt>
<trkpt lat="49.68671794049442" lon="9.399443585425615">
<ele>262.8</ele>
<time>2024-05-11T14:36:31Z</time>
</trkpt>
<trkpt lat="49.68661492690444" lon="9.399475017562509">
<ele>262.2</ele>
<time>2024-05-11T14:36:32Z</time>
</trkpt>
<trkpt lat="49.68653102405369" lon="9.399499827995896">
<ele>261.6</ele>
<time>2024-05-11T14:36:33Z</time>
</trkpt>
<trkpt lat="49.686447121202946" lon="9.39951323904097">
<ele>261.2</ele>
<time>2024-05-11T14:36:34Z</time>
</trkpt>
<trkpt lat="49.686366990208626" lon="9.399535115808249">
<ele>260.6</ele>
<time>2024-05-11T14:36:35Z</time>
</trkpt>
<trkpt lat="49.68629448674619" lon="9.3995513767004">
<ele>260.2</ele>
<time>2024-05-11T14:36:36Z</time>
</trkpt>
<trkpt lat="49.68621821142733" lon="9.399564703926444">
<ele>259.799</ele>
<time>2024-05-11T14:36:37Z</time>
</trkpt>
<trkpt lat="49.6861457079649" lon="9.399583814665675">
<ele>259.4</ele>
<time>2024-05-11T14:36:38Z</time>
</trkpt>
<trkpt lat="49.686073288321495" lon="9.399599991738796">
<ele>259</ele>
<time>2024-05-11T14:36:39Z</time>
</trkpt>
<trkpt lat="49.68600078485906" lon="9.399615246802568">
<ele>258.799</ele>
<time>2024-05-11T14:36:40Z</time>
</trkpt>
<trkpt lat="49.68592828139663" lon="9.399626730009912">
<ele>258.4</ele>
<time>2024-05-11T14:36:41Z</time>
</trkpt>
<trkpt lat="49.68585963360965" lon="9.399640057235956">
<ele>258.2</ele>
<time>2024-05-11T14:36:42Z</time>
</trkpt>
<trkpt lat="49.68578713014722" lon="9.399653384462">
<ele>258</ele>
<time>2024-05-11T14:36:43Z</time>
</trkpt>
<trkpt lat="49.68571471050382" lon="9.39967148937285">
<ele>257.6</ele>
<time>2024-05-11T14:36:44Z</time>
</trkpt>
<trkpt lat="49.68564220704138" lon="9.399688672274351">
<ele>257.4</ele>
<time>2024-05-11T14:36:45Z</time>
</trkpt>
<trkpt lat="49.68556970357895" lon="9.399704933166504">
<ele>257</ele>
<time>2024-05-11T14:36:46Z</time>
</trkpt>
<trkpt lat="49.68549728393555" lon="9.399723038077354">
<ele>256.799</ele>
<time>2024-05-11T14:36:47Z</time>
</trkpt>
<trkpt lat="49.68541715294123" lon="9.399738293141128">
<ele>256.4</ele>
<time>2024-05-11T14:36:48Z</time>
</trkpt>
<trkpt lat="49.68533702194691" lon="9.399755476042628">
<ele>256</ele>
<time>2024-05-11T14:36:49Z</time>
</trkpt>
<trkpt lat="49.68525311909616" lon="9.39976972527802">
<ele>255.8</ele>
<time>2024-05-11T14:36:50Z</time>
</trkpt>
<trkpt lat="49.68516921624541" lon="9.399781208485363">
<ele>255.4</ele>
<time>2024-05-11T14:36:51Z</time>
</trkpt>
<trkpt lat="49.68507760204375" lon="9.39979168586433">
<ele>255.2</ele>
<time>2024-05-11T14:36:52Z</time>
</trkpt>
<trkpt lat="49.684989927336574" lon="9.399794535711408">
<ele>255</ele>
<time>2024-05-11T14:36:53Z</time>
</trkpt>
<trkpt lat="49.68489831313491" lon="9.399786908179522">
<ele>254.8</ele>
<time>2024-05-11T14:36:54Z</time>
</trkpt>
<trkpt lat="49.684806782752275" lon="9.39979168586433">
<ele>254.4</ele>
<time>2024-05-11T14:36:55Z</time>
</trkpt>
<trkpt lat="49.68471139669418" lon="9.399796463549135">
<ele>254.2</ele>
<time>2024-05-11T14:36:56Z</time>
</trkpt>
<trkpt lat="49.684608383104205" lon="9.3997897580266">
<ele>254</ele>
<time>2024-05-11T14:36:57Z</time>
</trkpt>
<trkpt lat="49.684513080865145" lon="9.39976972527802">
<ele>253.6</ele>
<time>2024-05-11T14:36:58Z</time>
</trkpt>
<trkpt lat="49.68439858406782" lon="9.3997535482049">
<ele>253.4</ele>
<time>2024-05-11T14:36:59Z</time>
</trkpt>
<trkpt lat="49.6842994261533" lon="9.39973351545632">
<ele>253.2</ele>
<time>2024-05-11T14:37:00Z</time>
</trkpt>
<trkpt lat="49.68420026823878" lon="9.399706777185202">
<ele>253</ele>
<time>2024-05-11T14:37:01Z</time>
</trkpt>
<trkpt lat="49.68410102650523" lon="9.3996895942837">
<ele>252.4</ele>
<time>2024-05-11T14:37:02Z</time>
</trkpt>
<trkpt lat="49.683998096734285" lon="9.399666711688042">
<ele>252</ele>
<time>2024-05-11T14:37:03Z</time>
</trkpt>
<trkpt lat="49.683898855000734" lon="9.399636201560496">
<ele>251.6</ele>
<time>2024-05-11T14:37:04Z</time>
</trkpt>
<trkpt lat="49.68379206955433" lon="9.399608541280031">
<ele>251</ele>
<time>2024-05-11T14:37:05Z</time>
</trkpt>
<trkpt lat="49.68369291163981" lon="9.399575181305408">
<ele>250.4</ele>
<time>2024-05-11T14:37:06Z</time>
</trkpt>
<trkpt lat="49.68358989804983" lon="9.399541821330786">
<ele>250</ele>
<time>2024-05-11T14:37:07Z</time>
</trkpt>
<trkpt lat="49.68349451199174" lon="9.399506533518434">
<ele>249.4</ele>
<time>2024-05-11T14:37:08Z</time>
</trkpt>
<trkpt lat="49.68339149840176" lon="9.39947124570608">
<ele>248.6</ele>
<time>2024-05-11T14:37:09Z</time>
</trkpt>
<trkpt lat="49.6832961961627" lon="9.39943503588438">
<ele>248</ele>
<time>2024-05-11T14:37:10Z</time>
</trkpt>
<trkpt lat="49.68319695442915" lon="9.399390192702413">
<ele>247.4</ele>
<time>2024-05-11T14:37:11Z</time>
</trkpt>
<trkpt lat="49.68310542404651" lon="9.39933679997921">
<ele>246.8</ele>
<time>2024-05-11T14:37:12Z</time>
</trkpt>
<trkpt lat="49.683010037988424" lon="9.399281479418278">
<ele>246.4</ele>
<time>2024-05-11T14:37:13Z</time>
</trkpt>
<trkpt lat="49.68291850760579" lon="9.399221381172538">
<ele>245.8</ele>
<time>2024-05-11T14:37:14Z</time>
</trkpt>
<trkpt lat="49.6828231215477" lon="9.399161282926798">
<ele>245.2</ele>
<time>2024-05-11T14:37:15Z</time>
</trkpt>
<trkpt lat="49.68272773548961" lon="9.39909833483398">
<ele>244.6</ele>
<time>2024-05-11T14:37:16Z</time>
</trkpt>
<trkpt lat="49.68263243325055" lon="9.39903538674116">
<ele>244.2</ele>
<time>2024-05-11T14:37:17Z</time>
</trkpt>
<trkpt lat="49.682537047192454" lon="9.398971516638994">
<ele>243.6</ele>
<time>2024-05-11T14:37:18Z</time>
</trkpt>
<trkpt lat="49.68244551680982" lon="9.398908568546176">
<ele>243.2</ele>
<time>2024-05-11T14:37:19Z</time>
</trkpt>
<trkpt lat="49.68235390260816" lon="9.398844698444009">
<ele>242.8</ele>
<time>2024-05-11T14:37:20Z</time>
</trkpt>
<trkpt lat="49.68226237222552" lon="9.39878367818892">
<ele>242.2</ele>
<time>2024-05-11T14:37:21Z</time>
</trkpt>
<trkpt lat="49.68217461369932" lon="9.398717880249023">
<ele>241.8</ele>
<time>2024-05-11T14:37:22Z</time>
</trkpt>
<trkpt lat="49.68209071084857" lon="9.398651998490095">
<ele>241.4</ele>
<time>2024-05-11T14:37:23Z</time>
</trkpt>
<trkpt lat="49.68200680799782" lon="9.39858527854085">
<ele>241</ele>
<time>2024-05-11T14:37:24Z</time>
</trkpt>
<trkpt lat="49.68192290514707" lon="9.39850707538426">
<ele>240.4</ele>
<time>2024-05-11T14:37:25Z</time>
</trkpt>
<trkpt lat="49.6818389184773" lon="9.39842694438994">
<ele>240</ele>
<time>2024-05-11T14:37:26Z</time>
</trkpt>
<trkpt lat="49.68176264315843" lon="9.39834974706173">
<ele>239.6</ele>
<time>2024-05-11T14:37:27Z</time>
</trkpt>
<trkpt lat="49.68168251216411" lon="9.398261988535523">
<ele>239.2</ele>
<time>2024-05-11T14:37:28Z</time>
</trkpt>
<trkpt lat="49.681606236845255" lon="9.398181857541203">
<ele>238.8</ele>
<time>2024-05-11T14:37:29Z</time>
</trkpt>
<trkpt lat="49.681526105850935" lon="9.39809124916792">
<ele>238.4</ele>
<time>2024-05-11T14:37:30Z</time>
</trkpt>
<trkpt lat="49.68145745806396" lon="9.398017823696136">
<ele>238</ele>
<time>2024-05-11T14:37:31Z</time>
</trkpt>
<trkpt lat="49.6813811827451" lon="9.397934842854738">
<ele>237.6</ele>
<time>2024-05-11T14:37:32Z</time>
</trkpt>
<trkpt lat="49.68129727989435" lon="9.397843312472103">
<ele>237.2</ele>
<time>2024-05-11T14:37:33Z</time>
</trkpt>
<trkpt lat="49.681213377043605" lon="9.397763181477783">
<ele>236.8</ele>
<time>2024-05-11T14:37:34Z</time>
</trkpt>
<trkpt lat="49.681129390373826" lon="9.39767642877996">
<ele>236.2</ele>
<time>2024-05-11T14:37:35Z</time>
</trkpt>
<trkpt lat="49.68104171566665" lon="9.39759822562337">
<ele>235.8</ele>
<time>2024-05-11T14:37:36Z</time>
</trkpt>
<trkpt lat="49.68095010146499" lon="9.397526727989316">
<ele>235.2</ele>
<time>2024-05-11T14:37:37Z</time>
</trkpt>
<trkpt lat="49.680858571082354" lon="9.397455146536233">
<ele>234.8</ele>
<time>2024-05-11T14:37:38Z</time>
</trkpt>
<trkpt lat="49.68076704069972" lon="9.397386498749256">
<ele>234.2</ele>
<time>2024-05-11T14:37:39Z</time>
</trkpt>
<trkpt lat="49.680675426498055" lon="9.397321622818708">
<ele>233.6</ele>
<time>2024-05-11T14:37:40Z</time>
</trkpt>
<trkpt lat="49.68058389611542" lon="9.397254902869465">
<ele>233</ele>
<time>2024-05-11T14:37:41Z</time>
</trkpt>
<trkpt lat="49.68049236573279" lon="9.397191954776645">
<ele>232.6</ele>
<time>2024-05-11T14:37:42Z</time>
</trkpt>
<trkpt lat="49.68040083535016" lon="9.397134706377985">
<ele>232</ele>
<time>2024-05-11T14:37:43Z</time>
</trkpt>
<trkpt lat="49.68030922114849" lon="9.397080391645432">
<ele>231.2</ele>
<time>2024-05-11T14:37:44Z</time>
</trkpt>
<trkpt lat="49.68021006323397" lon="9.397031776607037">
<ele>230.6</ele>
<time>2024-05-11T14:37:45Z</time>
</trkpt>
<trkpt lat="49.68012993223965" lon="9.396993555128574">
<ele>229.8</ele>
<time>2024-05-11T14:37:46Z</time>
</trkpt>
<trkpt lat="49.68004225753248" lon="9.396953573450446">
<ele>229</ele>
<time>2024-05-11T14:37:47Z</time>
</trkpt>
<trkpt lat="49.6799582708627" lon="9.39694301225245">
<ele>228.4</ele>
<time>2024-05-11T14:37:48Z</time>
</trkpt>
<trkpt lat="49.67985534109175" lon="9.396900096908212">
<ele>227.6</ele>
<time>2024-05-11T14:37:49Z</time>
</trkpt>
<trkpt lat="49.67976372689009" lon="9.396869586780667">
<ele>226.8</ele>
<time>2024-05-11T14:37:50Z</time>
</trkpt>
<trkpt lat="49.67967605218291" lon="9.396842932328582">
<ele>226.2</ele>
<time>2024-05-11T14:37:51Z</time>
</trkpt>
<trkpt lat="49.67958443798125" lon="9.396813344210386">
<ele>225.6</ele>
<time>2024-05-11T14:37:52Z</time>
</trkpt>
<trkpt lat="49.67948528006673" lon="9.396762801334262">
<ele>224.8</ele>
<time>2024-05-11T14:37:53Z</time>
</trkpt>
<trkpt lat="49.67938989400864" lon="9.39670655876398">
<ele>224.2</ele>
<time>2024-05-11T14:37:54Z</time>
</trkpt>
<trkpt lat="49.679294507950544" lon="9.396615028381348">
<ele>223.6</ele>
<time>2024-05-11T14:37:55Z</time>
</trkpt>
<trkpt lat="49.67919920571149" lon="9.396512936800718">
<ele>222.8</ele>
<time>2024-05-11T14:37:56Z</time>
</trkpt>
<trkpt lat="49.67911144718528" lon="9.396388046443462">
<ele>222.2</ele>
<time>2024-05-11T14:37:57Z</time>
</trkpt>
<trkpt lat="49.67902368865907" lon="9.396298360079529">
<ele>221.4</ele>
<time>2024-05-11T14:37:58Z</time>
</trkpt>
<trkpt lat="49.6789550408721" lon="9.396218229085209">
<ele>220.6</ele>
<time>2024-05-11T14:37:59Z</time>
</trkpt>
<trkpt lat="49.67888639308512" lon="9.396140025928617">
<ele>220</ele>
<time>2024-05-11T14:38:00Z</time>
</trkpt>
<trkpt lat="49.67881011776626" lon="9.3960752338171">
<ele>219.2</ele>
<time>2024-05-11T14:38:01Z</time>
</trkpt>
<trkpt lat="49.67875664122403" lon="9.39601513557136">
<ele>218.4</ele>
<time>2024-05-11T14:38:02Z</time>
</trkpt>
<trkpt lat="49.678661338984966" lon="9.395979847759008">
<ele>217.8</ele>
<time>2024-05-11T14:38:03Z</time>
</trkpt>
<trkpt lat="49.678565952926874" lon="9.395951265469192">
<ele>217</ele>
<time>2024-05-11T14:38:04Z</time>
</trkpt>
<trkpt lat="49.67848205007613" lon="9.39595503732562">
<ele>216.4</ele>
<time>2024-05-11T14:38:05Z</time>
</trkpt>
<trkpt lat="49.67839806340635" lon="9.395966520532966">
<ele>215.8</ele>
<time>2024-05-11T14:38:06Z</time>
</trkpt>
<trkpt lat="49.6783141605556" lon="9.39599510282278">
<ele>215.2</ele>
<time>2024-05-11T14:38:07Z</time>
</trkpt>
<trkpt lat="49.67823402956128" lon="9.396028462797403">
<ele>214.8</ele>
<time>2024-05-11T14:38:08Z</time>
</trkpt>
<trkpt lat="49.67816160991788" lon="9.396068528294563">
<ele>214.2</ele>
<time>2024-05-11T14:38:09Z</time>
</trkpt>
<trkpt lat="49.678085250779986" lon="9.396106665953994">
<ele>213.8</ele>
<time>2024-05-11T14:38:10Z</time>
</trkpt>
<trkpt lat="49.67801660299301" lon="9.396146731451154">
<ele>213.4</ele>
<time>2024-05-11T14:38:11Z</time>
</trkpt>
<trkpt lat="49.677951810881495" lon="9.396186796948314">
<ele>213</ele>
<time>2024-05-11T14:38:12Z</time>
</trkpt>
<trkpt lat="49.67788307927549" lon="9.396226862445474">
<ele>212.8</ele>
<time>2024-05-11T14:38:13Z</time>
</trkpt>
<trkpt lat="49.677814431488514" lon="9.396266927942634">
<ele>212.6</ele>
<time>2024-05-11T14:38:14Z</time>
</trkpt>
<trkpt lat="49.677749555557966" lon="9.396303137764336">
<ele>212.4</ele>
<time>2024-05-11T14:38:15Z</time>
</trkpt>
<trkpt lat="49.67768476344645" lon="9.396343203261496">
<ele>212.4</ele>
<time>2024-05-11T14:38:16Z</time>
</trkpt>
<trkpt lat="49.6776198875159" lon="9.396381340920923">
<ele>212.2</ele>
<time>2024-05-11T14:38:17Z</time>
</trkpt>
<trkpt lat="49.677558867260814" lon="9.396418556571009">
<ele>212.2</ele>
<time>2024-05-11T14:38:18Z</time>
</trkpt>
<trkpt lat="49.677493991330266" lon="9.396454766392708">
<ele>212.2</ele>
<time>2024-05-11T14:38:19Z</time>
</trkpt>
<trkpt lat="49.67743297107518" lon="9.396494831889868">
<ele>212.2</ele>
<time>2024-05-11T14:38:20Z</time>
</trkpt>
<trkpt lat="49.67737195082009" lon="9.39653011970222">
<ele>212.2</ele>
<time>2024-05-11T14:38:21Z</time>
</trkpt>
<trkpt lat="49.677310930565" lon="9.39656825736165">
<ele>212.2</ele>
<time>2024-05-11T14:38:22Z</time>
</trkpt>
<trkpt lat="49.67724982649088" lon="9.396604467183352">
<ele>212.2</ele>
<time>2024-05-11T14:38:23Z</time>
</trkpt>
<trkpt lat="49.67718880623579" lon="9.396639754995704">
<ele>212.2</ele>
<time>2024-05-11T14:38:24Z</time>
</trkpt>
<trkpt lat="49.677124014124274" lon="9.396675042808056">
<ele>212.4</ele>
<time>2024-05-11T14:38:25Z</time>
</trkpt>
<trkpt lat="49.677062910050154" lon="9.396711336448789">
<ele>212.4</ele>
<time>2024-05-11T14:38:26Z</time>
</trkpt>
<trkpt lat="49.677001889795065" lon="9.396744696423411">
<ele>212.4</ele>
<time>2024-05-11T14:38:27Z</time>
</trkpt>
<trkpt lat="49.676940869539976" lon="9.396776128560305">
<ele>212.6</ele>
<time>2024-05-11T14:38:28Z</time>
</trkpt>
<trkpt lat="49.67687984928489" lon="9.39680957235396">
<ele>212.6</ele>
<time>2024-05-11T14:38:29Z</time>
</trkpt>
<trkpt lat="49.67683022841811" lon="9.396844860166311">
<ele>212.6</ele>
<time>2024-05-11T14:38:30Z</time>
</trkpt>
<trkpt lat="49.67677306383848" lon="9.396880147978663">
<ele>212.6</ele>
<time>2024-05-11T14:38:31Z</time>
</trkpt>
<trkpt lat="49.67671581543982" lon="9.396909652277827">
<ele>212.6</ele>
<time>2024-05-11T14:38:32Z</time>
</trkpt>
<trkpt lat="49.67665093950927" lon="9.396934462711217">
<ele>212.6</ele>
<time>2024-05-11T14:38:33Z</time>
</trkpt>
<trkpt lat="49.6765822917223" lon="9.396958351135254">
<ele>212.6</ele>
<time>2024-05-11T14:38:34Z</time>
</trkpt>
<trkpt lat="49.67651364393532" lon="9.396980227902532">
<ele>212.4</ele>
<time>2024-05-11T14:38:35Z</time>
</trkpt>
<trkpt lat="49.67644499614835" lon="9.396998332813382">
<ele>212.4</ele>
<time>2024-05-11T14:38:36Z</time>
</trkpt>
<trkpt lat="49.676372492685914" lon="9.397016521543264">
<ele>212</ele>
<time>2024-05-11T14:38:37Z</time>
</trkpt>
<trkpt lat="49.67629621736705" lon="9.397029848769307">
<ele>211.6</ele>
<time>2024-05-11T14:38:38Z</time>
</trkpt>
<trkpt lat="49.67621985822916" lon="9.397040326148272">
<ele>211.2</ele>
<time>2024-05-11T14:38:39Z</time>
</trkpt>
<trkpt lat="49.67613981105387" lon="9.39704317599535">
<ele>210.8</ele>
<time>2024-05-11T14:38:40Z</time>
</trkpt>
<trkpt lat="49.67606353573501" lon="9.39704317599535">
<ele>210.4</ele>
<time>2024-05-11T14:38:41Z</time>
</trkpt>
<trkpt lat="49.67598340474069" lon="9.397040326148272">
<ele>210</ele>
<time>2024-05-11T14:38:42Z</time>
</trkpt>
<trkpt lat="49.67590327374637" lon="9.397029848769307">
<ele>209.6</ele>
<time>2024-05-11T14:38:43Z</time>
</trkpt>
<trkpt lat="49.67582314275205" lon="9.397020293399692">
<ele>209.2</ele>
<time>2024-05-11T14:38:44Z</time>
</trkpt>
<trkpt lat="49.67574309557676" lon="9.39700503833592">
<ele>208.6</ele>
<time>2024-05-11T14:38:45Z</time>
</trkpt>
<trkpt lat="49.67566673643887" lon="9.396989783272147">
<ele>208.2</ele>
<time>2024-05-11T14:38:46Z</time>
</trkpt>
<trkpt lat="49.67558668926358" lon="9.396976456046104">
<ele>207.6</ele>
<time>2024-05-11T14:38:47Z</time>
</trkpt>
<trkpt lat="49.67550655826926" lon="9.39696304500103">
<ele>207.2</ele>
<time>2024-05-11T14:38:48Z</time>
</trkpt>
<trkpt lat="49.67542642727494" lon="9.396947789937258">
<ele>206.6</ele>
<time>2024-05-11T14:38:49Z</time>
</trkpt>
<trkpt lat="49.675342524424195" lon="9.396931612864137">
<ele>206</ele>
<time>2024-05-11T14:38:50Z</time>
</trkpt>
<trkpt lat="49.67525476589799" lon="9.396911580115557">
<ele>205.4</ele>
<time>2024-05-11T14:38:51Z</time>
</trkpt>
<trkpt lat="49.67517463490367" lon="9.396889619529247">
<ele>205</ele>
<time>2024-05-11T14:38:52Z</time>
</trkpt>
<trkpt lat="49.67509073205292" lon="9.396862965077162">
<ele>204.4</ele>
<time>2024-05-11T14:38:53Z</time>
</trkpt>
<trkpt lat="49.675006829202175" lon="9.396826671436427">
<ele>204</ele>
<time>2024-05-11T14:38:54Z</time>
</trkpt>
<trkpt lat="49.67491907067597" lon="9.396782834082842">
<ele>203.4</ele>
<time>2024-05-11T14:38:55Z</time>
</trkpt>
<trkpt lat="49.674827540293336" lon="9.396731369197369">
<ele>202.8</ele>
<time>2024-05-11T14:38:56Z</time>
</trkpt>
<trkpt lat="49.67473978176713" lon="9.396675042808056">
<ele>202.2</ele>
<time>2024-05-11T14:38:57Z</time>
</trkpt>
<trkpt lat="49.67463299632072" lon="9.396616872400044">
<ele>201.6</ele>
<time>2024-05-11T14:38:58Z</time>
</trkpt>
<trkpt lat="49.674552865326405" lon="9.396565407514572">
<ele>201</ele>
<time>2024-05-11T14:38:59Z</time>
</trkpt>
<trkpt lat="49.67446896247566" lon="9.39652819186449">
<ele>200.2</ele>
<time>2024-05-11T14:39:00Z</time>
</trkpt>
<trkpt lat="49.67436594888568" lon="9.396501537412403">
<ele>199.6</ele>
<time>2024-05-11T14:39:01Z</time>
</trkpt>
<trkpt lat="49.674274418503046" lon="9.396483348682525">
<ele>199.2</ele>
<time>2024-05-11T14:39:02Z</time>
</trkpt>
<trkpt lat="49.6741905156523" lon="9.39647002145648">
<ele>198.6</ele>
<time>2024-05-11T14:39:03Z</time>
</trkpt>
<trkpt lat="49.67411038465798" lon="9.396456694230436">
<ele>198.2</ele>
<time>2024-05-11T14:39:04Z</time>
</trkpt>
<trkpt lat="49.67403410933912" lon="9.396446216851473">
<ele>197.6</ele>
<time>2024-05-11T14:39:05Z</time>
</trkpt>
<trkpt lat="49.67395012266934" lon="9.396443367004396">
<ele>197</ele>
<time>2024-05-11T14:39:06Z</time>
</trkpt>
<trkpt lat="49.67387007549405" lon="9.396438589319589">
<ele>196.4</ele>
<time>2024-05-11T14:39:07Z</time>
</trkpt>
<trkpt lat="49.67379371635616" lon="9.396434733644128">
<ele>195.8</ele>
<time>2024-05-11T14:39:08Z</time>
</trkpt>
<trkpt lat="49.67372129671275" lon="9.396425178274512">
<ele>195.4</ele>
<time>2024-05-11T14:39:09Z</time>
</trkpt>
<trkpt lat="49.67364493757486" lon="9.39640992321074">
<ele>194.8</ele>
<time>2024-05-11T14:39:10Z</time>
</trkpt>
<trkpt lat="49.67357628978789" lon="9.39638989046216">
<ele>194.2</ele>
<time>2024-05-11T14:39:11Z</time>
</trkpt>
<trkpt lat="49.67351149767637" lon="9.39637178555131">
<ele>193.8</ele>
<time>2024-05-11T14:39:12Z</time>
</trkpt>
<trkpt lat="49.673446621745825" lon="9.39635175280273">
<ele>193.2</ele>
<time>2024-05-11T14:39:13Z</time>
</trkpt>
<trkpt lat="49.67338174581528" lon="9.39633172005415">
<ele>192.8</ele>
<time>2024-05-11T14:39:14Z</time>
</trkpt>
<trkpt lat="49.67332072556019" lon="9.396309843286872">
<ele>192.4</ele>
<time>2024-05-11T14:39:15Z</time>
</trkpt>
<trkpt lat="49.673267332836986" lon="9.396287882700562">
<ele>192</ele>
<time>2024-05-11T14:39:16Z</time>
</trkpt>
<trkpt lat="49.67321394011378" lon="9.396267849951982">
<ele>191.4</ele>
<time>2024-05-11T14:39:17Z</time>
</trkpt>
<trkpt lat="49.67316431924701" lon="9.39625351689756">
<ele>191</ele>
<time>2024-05-11T14:39:18Z</time>
</trkpt>
<trkpt lat="49.67311469838023" lon="9.396238261833789">
<ele>190.6</ele>
<time>2024-05-11T14:39:19Z</time>
</trkpt>
<trkpt lat="49.67306130565703" lon="9.396224934607744">
<ele>190</ele>
<time>2024-05-11T14:39:20Z</time>
</trkpt>
<trkpt lat="49.673007912933826" lon="9.396206829696894">
<ele>189.6</ele>
<time>2024-05-11T14:39:21Z</time>
</trkpt>
<trkpt lat="49.67295829206705" lon="9.396188724786043">
<ele>189.2</ele>
<time>2024-05-11T14:39:22Z</time>
</trkpt>
<trkpt lat="49.67290875501931" lon="9.396168692037463">
<ele>188.8</ele>
<time>2024-05-11T14:39:23Z</time>
</trkpt>
<trkpt lat="49.67285913415253" lon="9.396149581298232">
<ele>188.4</ele>
<time>2024-05-11T14:39:24Z</time>
</trkpt>
<trkpt lat="49.67280959710479" lon="9.396133404225113">
<ele>188</ele>
<time>2024-05-11T14:39:25Z</time>
</trkpt>
<trkpt lat="49.67275612056255" lon="9.39611622132361">
<ele>187.6</ele>
<time>2024-05-11T14:39:26Z</time>
</trkpt>
<trkpt lat="49.67269895598292" lon="9.396102894097568">
<ele>187.2</ele>
<time>2024-05-11T14:39:27Z</time>
</trkpt>
<trkpt lat="49.67264556325972" lon="9.396088561043143">
<ele>186.8</ele>
<time>2024-05-11T14:39:28Z</time>
</trkpt>
<trkpt lat="49.672592086717486" lon="9.396073305979373">
<ele>186.4</ele>
<time>2024-05-11T14:39:29Z</time>
</trkpt>
<trkpt lat="49.67254254966974" lon="9.396059978753328">
<ele>186</ele>
<time>2024-05-11T14:39:30Z</time>
</trkpt>
<trkpt lat="49.67249292880297" lon="9.396046567708254">
<ele>185.6</ele>
<time>2024-05-11T14:39:31Z</time>
</trkpt>
<trkpt lat="49.67244330793619" lon="9.39603709615767">
<ele>185.2</ele>
<time>2024-05-11T14:39:32Z</time>
</trkpt>
<trkpt lat="49.672397542744875" lon="9.396030390635133">
<ele>184.8</ele>
<time>2024-05-11T14:39:33Z</time>
</trkpt>
<trkpt lat="49.67235177755356" lon="9.396023685112596">
<ele>184.4</ele>
<time>2024-05-11T14:39:34Z</time>
</trkpt>
<trkpt lat="49.67230601236224" lon="9.39601513557136">
<ele>184</ele>
<time>2024-05-11T14:39:35Z</time>
</trkpt>
<trkpt lat="49.67226401902735" lon="9.396004658192396">
<ele>183.8</ele>
<time>2024-05-11T14:39:36Z</time>
</trkpt>
<trkpt lat="49.67222588136792" lon="9.395993174985051">
<ele>183.4</ele>
<time>2024-05-11T14:39:37Z</time>
</trkpt>
<trkpt lat="49.67218774370849" lon="9.395981775596738">
<ele>183</ele>
<time>2024-05-11T14:39:38Z</time>
</trkpt>
<trkpt lat="49.672145834192634" lon="9.395979847759008">
<ele>182.6</ele>
<time>2024-05-11T14:39:39Z</time>
</trkpt>
<trkpt lat="49.6721076965332" lon="9.396001808345318">
<ele>182.4</ele>
<time>2024-05-11T14:39:40Z</time>
</trkpt>
<trkpt lat="49.672080958262086" lon="9.396046567708254">
<ele>182.2</ele>
<time>2024-05-11T14:39:41Z</time>
</trkpt>
<trkpt lat="49.67205807566643" lon="9.396101888269186">
<ele>182</ele>
<time>2024-05-11T14:39:42Z</time>
</trkpt>
<trkpt lat="49.672042820602655" lon="9.396162908524277">
<ele>181.8</ele>
<time>2024-05-11T14:39:43Z</time>
</trkpt>
<trkpt lat="49.67202756553888" lon="9.396228790283203">
<ele>181.6</ele>
<time>2024-05-11T14:39:44Z</time>
</trkpt>
<trkpt lat="49.67200845479965" lon="9.3962945882231">
<ele>181.4</ele>
<time>2024-05-11T14:39:45Z</time>
</trkpt>
<trkpt lat="49.671985572203994" lon="9.396360386162996">
<ele>181.4</ele>
<time>2024-05-11T14:39:46Z</time>
</trkpt>
<trkpt lat="49.671962689608335" lon="9.39643188379705">
<ele>181.2</ele>
<time>2024-05-11T14:39:47Z</time>
</trkpt>
<trkpt lat="49.67193980701268" lon="9.396498603746297">
<ele>181</ele>
<time>2024-05-11T14:39:48Z</time>
</trkpt>
<trkpt lat="49.67191306874156" lon="9.396554930135608">
<ele>180.8</ele>
<time>2024-05-11T14:39:49Z</time>
</trkpt>
<trkpt lat="49.6718901861459" lon="9.39660639502108">
<ele>180.8</ele>
<time>2024-05-11T14:39:50Z</time>
</trkpt>
<trkpt lat="49.67186730355024" lon="9.396653166040778">
<ele>180.6</ele>
<time>2024-05-11T14:39:51Z</time>
</trkpt>
<trkpt lat="49.671844420954585" lon="9.396701781079171">
<ele>180.6</ele>
<time>2024-05-11T14:39:52Z</time>
</trkpt>
<trkpt lat="49.6718177665025" lon="9.396750396117568">
<ele>180.6</ele>
<time>2024-05-11T14:39:53Z</time>
</trkpt>
<trkpt lat="49.67179488390684" lon="9.396798089146614">
<ele>180.6</ele>
<time>2024-05-11T14:39:54Z</time>
</trkpt>
<trkpt lat="49.67176814563573" lon="9.396846704185007">
<ele>180.6</ele>
<time>2024-05-11T14:39:55Z</time>
</trkpt>
<trkpt lat="49.671745263040066" lon="9.396889619529247">
<ele>180.6</ele>
<time>2024-05-11T14:39:56Z</time>
</trkpt>
<trkpt lat="49.67172238044441" lon="9.396933540701866">
<ele>180.8</ele>
<time>2024-05-11T14:39:57Z</time>
</trkpt>
<trkpt lat="49.67169564217329" lon="9.396971678361297">
<ele>180.8</ele>
<time>2024-05-11T14:39:58Z</time>
</trkpt>
<trkpt lat="49.671665132045746" lon="9.397006966173649">
<ele>181</ele>
<time>2024-05-11T14:39:59Z</time>
</trkpt>
<trkpt lat="49.67163847759366" lon="9.397034626454117">
<ele>181</ele>
<time>2024-05-11T14:40:00Z</time>
</trkpt>
<trkpt lat="49.67161173932254" lon="9.397056503221393">
<ele>181</ele>
<time>2024-05-11T14:40:01Z</time>
</trkpt>
<trkpt lat="49.67157737351954" lon="9.397067064419389">
<ele>181.2</ele>
<time>2024-05-11T14:40:02Z</time>
</trkpt>
<trkpt lat="49.67151635326445" lon="9.397058431059122">
<ele>181.2</ele>
<time>2024-05-11T14:40:04Z</time>
</trkpt>
<trkpt lat="49.67149347066879" lon="9.397027920931578">
<ele>181.4</ele>
<time>2024-05-11T14:40:05Z</time>
</trkpt>
<trkpt lat="49.67146681621671" lon="9.396987855434418">
<ele>181.4</ele>
<time>2024-05-11T14:40:06Z</time>
</trkpt>
<trkpt lat="49.67144393362105" lon="9.396938318386674">
<ele>181.6</ele>
<time>2024-05-11T14:40:07Z</time>
</trkpt>
<trkpt lat="49.67142105102539" lon="9.396891547366977">
<ele>181.8</ele>
<time>2024-05-11T14:40:08Z</time>
</trkpt>
<trkpt lat="49.6713980846107" lon="9.396842932328582">
<ele>181.8</ele>
<time>2024-05-11T14:40:09Z</time>
</trkpt>
<trkpt lat="49.6713790576905" lon="9.396793311461806">
<ele>181.8</ele>
<time>2024-05-11T14:40:10Z</time>
</trkpt>
<trkpt lat="49.67135994695127" lon="9.396737068891523">
<ele>181.8</ele>
<time>2024-05-11T14:40:11Z</time>
</trkpt>
<trkpt lat="49.67134092003107" lon="9.396675042808056">
<ele>181.8</ele>
<time>2024-05-11T14:40:12Z</time>
</trkpt>
<trkpt lat="49.67132180929184" lon="9.396613100543618">
<ele>181.8</ele>
<time>2024-05-11T14:40:13Z</time>
</trkpt>
<trkpt lat="49.67129892669618" lon="9.3965501524508">
<ele>181.8</ele>
<time>2024-05-11T14:40:14Z</time>
</trkpt>
<trkpt lat="49.67127989977598" lon="9.39648812636733">
<ele>181.6</ele>
<time>2024-05-11T14:40:15Z</time>
</trkpt>
<trkpt lat="49.67126078903675" lon="9.39642802812159">
<ele>181.6</ele>
<time>2024-05-11T14:40:16Z</time>
</trkpt>
<trkpt lat="49.67124167829752" lon="9.396365163847804">
<ele>181.4</ele>
<time>2024-05-11T14:40:17Z</time>
</trkpt>
<trkpt lat="49.67121879570186" lon="9.396303137764336">
<ele>181.4</ele>
<time>2024-05-11T14:40:18Z</time>
</trkpt>
<trkpt lat="49.67119976878166" lon="9.396244967356324">
<ele>181.4</ele>
<time>2024-05-11T14:40:19Z</time>
</trkpt>
<trkpt lat="49.67118451371789" lon="9.396193502470853">
<ele>181.2</ele>
<time>2024-05-11T14:40:20Z</time>
</trkpt>
<trkpt lat="49.67116925865412" lon="9.396142959594728">
<ele>181</ele>
<time>2024-05-11T14:40:21Z</time>
</trkpt>
<trkpt lat="49.671154003590345" lon="9.39609811641276">
<ele>180.8</ele>
<time>2024-05-11T14:40:22Z</time>
</trkpt>
<trkpt lat="49.67113874852657" lon="9.39605520106852">
<ele>180.6</ele>
<time>2024-05-11T14:40:23Z</time>
</trkpt>
<trkpt lat="49.6711234934628" lon="9.39601798541844">
<ele>180.6</ele>
<time>2024-05-11T14:40:24Z</time>
</trkpt>
<trkpt lat="49.671112010255456" lon="9.395983619615436">
<ele>180.4</ele>
<time>2024-05-11T14:40:25Z</time>
</trkpt>
<trkpt lat="49.67109675519168" lon="9.395948331803083">
<ele>180.4</ele>
<time>2024-05-11T14:40:26Z</time>
</trkpt>
<trkpt lat="49.67108150012791" lon="9.395911199972034">
<ele>180.2</ele>
<time>2024-05-11T14:40:27Z</time>
</trkpt>
<trkpt lat="49.67107001692057" lon="9.39587876200676">
<ele>180.2</ele>
<time>2024-05-11T14:40:28Z</time>
</trkpt>
<trkpt lat="49.67106624506414" lon="9.395845402032135">
<ele>180</ele>
<time>2024-05-11T14:40:29Z</time>
</trkpt>
<trkpt lat="49.67106238938868" lon="9.395811958238482">
<ele>180</ele>
<time>2024-05-11T14:40:30Z</time>
</trkpt>
<trkpt lat="49.67106624506414" lon="9.395774826407433">
<ele>179.8</ele>
<time>2024-05-11T14:40:31Z</time>
</trkpt>
<trkpt lat="49.67106624506414" lon="9.39573953859508">
<ele>179.6</ele>
<time>2024-05-11T14:40:32Z</time>
</trkpt>
<trkpt lat="49.67106624506414" lon="9.395705172792075">
<ele>179.4</ele>
<time>2024-05-11T14:40:33Z</time>
</trkpt>
<trkpt lat="49.67106238938868" lon="9.395674662664533">
<ele>179.2</ele>
<time>2024-05-11T14:40:34Z</time>
</trkpt>
<trkpt lat="49.671054761856794" lon="9.395649852231143">
<ele>179</ele>
<time>2024-05-11T14:40:35Z</time>
</trkpt>
<trkpt lat="49.67104713432491" lon="9.395629819482563">
<ele>179</ele>
<time>2024-05-11T14:40:36Z</time>
</trkpt>
<trkpt lat="49.67104336246848" lon="9.395625041797755">
<ele>178.8</ele>
<time>2024-05-11T14:40:37Z</time>
</trkpt>
<trkpt lat="49.67103950679302" lon="9.39562126994133">
<ele>178.8</ele>
<time>2024-05-11T14:40:38Z</time>
</trkpt>
<trkpt lat="49.67104336246848" lon="9.39562026411295">
<ele>178.8</ele>
<time>2024-05-11T14:40:39Z</time>
</trkpt>
<trkpt lat="49.67103950679302" lon="9.39562026411295">
<ele>178.6</ele>
<time>2024-05-11T14:40:41Z</time>
</trkpt>
<trkpt lat="49.67103950679302" lon="9.39562126994133">
<ele>178.6</ele>
<time>2024-05-11T14:40:43Z</time>
</trkpt>
<trkpt lat="49.67103950679302" lon="9.39562026411295">
<ele>178.6</ele>
<time>2024-05-11T14:40:46Z</time>
</trkpt>
<trkpt lat="49.671035734936595" lon="9.395618420094252">
<ele>178.6</ele>
<time>2024-05-11T14:40:48Z</time>
</trkpt>
<trkpt lat="49.671035734936595" lon="9.395616492256522">
<ele>178.6</ele>
<time>2024-05-11T14:40:55Z</time>
</trkpt>
<trkpt lat="49.67103950679302" lon="9.395616492256522">
<ele>178.6</ele>
<time>2024-05-11T14:40:58Z</time>
</trkpt>
<trkpt lat="49.671035734936595" lon="9.395616492256522">
<ele>178.4</ele>
<time>2024-05-11T14:40:59Z</time>
</trkpt>
<trkpt lat="49.67103950679302" lon="9.395616492256522">
<ele>178.4</ele>
<time>2024-05-11T14:41:01Z</time>
</trkpt>
<trkpt lat="49.67103950679302" lon="9.395614564418793">
<ele>178.2</ele>
<time>2024-05-11T14:41:04Z</time>
</trkpt>
<trkpt lat="49.67104336246848" lon="9.395614564418793">
<ele>178.2</ele>
<time>2024-05-11T14:41:05Z</time>
</trkpt>
<trkpt lat="49.67104336246848" lon="9.395616492256522">
<ele>178.2</ele>
<time>2024-05-11T14:41:07Z</time>
</trkpt>
<trkpt lat="49.67104336246848" lon="9.395618420094252">
<ele>178.2</ele>
<time>2024-05-11T14:41:09Z</time>
</trkpt>
<trkpt lat="49.67104336246848" lon="9.39562026411295">
<ele>178</ele>
<time>2024-05-11T14:41:18Z</time>
</trkpt>
<trkpt lat="49.67104336246848" lon="9.395618420094252">
<ele>178</ele>
<time>2024-05-11T14:41:23Z</time>
</trkpt>
<trkpt lat="49.67104336246848" lon="9.395616492256522">
<ele>178</ele>
<time>2024-05-11T14:41:25Z</time>
</trkpt>
<trkpt lat="49.67104336246848" lon="9.395614564418793">
<ele>178</ele>
<time>2024-05-11T14:41:29Z</time>
</trkpt>
<trkpt lat="49.67104336246848" lon="9.395613642409444">
<ele>178</ele>
<time>2024-05-11T14:41:34Z</time>
</trkpt>
<trkpt lat="49.67104713432491" lon="9.395613642409444">
<ele>178</ele>
<time>2024-05-11T14:41:35Z</time>
</trkpt>
<trkpt lat="49.67104713432491" lon="9.395611714571714">
<ele>178</ele>
<time>2024-05-11T14:41:38Z</time>
</trkpt>
<trkpt lat="49.67104713432491" lon="9.395613642409444">
<ele>178.2</ele>
<time>2024-05-11T14:41:48Z</time>
</trkpt>
<trkpt lat="49.67104713432491" lon="9.395614564418793">
<ele>178.2</ele>
<time>2024-05-11T14:41:51Z</time>
</trkpt>
<trkpt lat="49.67104713432491" lon="9.395616492256522">
<ele>178.2</ele>
<time>2024-05-11T14:41:53Z</time>
</trkpt>
<trkpt lat="49.67104336246848" lon="9.395618420094252">
<ele>178.2</ele>
<time>2024-05-11T14:41:55Z</time>
</trkpt>
<trkpt lat="49.67104713432491" lon="9.395618420094252">
<ele>178.2</ele>
<time>2024-05-11T14:41:56Z</time>
</trkpt>
<trkpt lat="49.67104336246848" lon="9.395618420094252">
<ele>178.4</ele>
<time>2024-05-11T14:41:57Z</time>
</trkpt>
<trkpt lat="49.67104336246848" lon="9.395616492256522">
<ele>178.4</ele>
<time>2024-05-11T14:42:03Z</time>
</trkpt>
<trkpt lat="49.67104336246848" lon="9.395614564418793">
<ele>178.4</ele>
<time>2024-05-11T14:42:04Z</time>
</trkpt>
<trkpt lat="49.67104336246848" lon="9.395613642409444">
<ele>178.4</ele>
<time>2024-05-11T14:42:06Z</time>
</trkpt>
<trkpt lat="49.67104336246848" lon="9.395614564418793">
<ele>178.4</ele>
<time>2024-05-11T14:42:11Z</time>
</trkpt>
<trkpt lat="49.67104336246848" lon="9.395616492256522">
<ele>178.4</ele>
<time>2024-05-11T14:42:13Z</time>
</trkpt>
<trkpt lat="49.67104336246848" lon="9.395618420094252">
<ele>178.4</ele>
<time>2024-05-11T14:42:14Z</time>
</trkpt>
<trkpt lat="49.67104336246848" lon="9.39562026411295">
<ele>178.2</ele>
<time>2024-05-11T14:42:15Z</time>
</trkpt>
<trkpt lat="49.67104336246848" lon="9.39562126994133">
<ele>178.2</ele>
<time>2024-05-11T14:42:21Z</time>
</trkpt>
<trkpt lat="49.67104336246848" lon="9.39562319777906">
<ele>178.2</ele>
<time>2024-05-11T14:42:27Z</time>
</trkpt>
<trkpt lat="49.67104336246848" lon="9.395625041797755">
<ele>178.2</ele>
<time>2024-05-11T14:42:32Z</time>
</trkpt>
<trkpt lat="49.67104336246848" lon="9.395626969635488">
<ele>178.2</ele>
<time>2024-05-11T14:42:36Z</time>
</trkpt>
<trkpt lat="49.67104336246848" lon="9.395625041797755">
<ele>178.2</ele>
<time>2024-05-11T14:42:39Z</time>
</trkpt>
<trkpt lat="49.67104336246848" lon="9.395626969635488">
<ele>178.2</ele>
<time>2024-05-11T14:42:40Z</time>
</trkpt>
<trkpt lat="49.67104336246848" lon="9.395627975463867">
<ele>178.2</ele>
<time>2024-05-11T14:42:47Z</time>
</trkpt>
<trkpt lat="49.67104336246848" lon="9.395629819482563">
<ele>178.2</ele>
<time>2024-05-11T14:42:49Z</time>
</trkpt>
<trkpt lat="49.67104713432491" lon="9.395629819482563">
<ele>178.2</ele>
<time>2024-05-11T14:42:50Z</time>
</trkpt>
<trkpt lat="49.67104713432491" lon="9.395631747320294">
<ele>178.2</ele>
<time>2024-05-11T14:42:53Z</time>
</trkpt>
<trkpt lat="49.67105099000037" lon="9.395633675158024">
<ele>178.2</ele>
<time>2024-05-11T14:42:54Z</time>
</trkpt>
<trkpt lat="49.67105099000037" lon="9.395634597167373">
<ele>178.2</ele>
<time>2024-05-11T14:42:55Z</time>
</trkpt>
<trkpt lat="49.67105099000037" lon="9.395636525005102">
<ele>178.2</ele>
<time>2024-05-11T14:42:58Z</time>
</trkpt>
<trkpt lat="49.67105099000037" lon="9.39564029686153">
<ele>178.2</ele>
<time>2024-05-11T14:43:00Z</time>
</trkpt>
<trkpt lat="49.671054761856794" lon="9.39564029686153">
<ele>178.4</ele>
<time>2024-05-11T14:43:01Z</time>
</trkpt>
<trkpt lat="49.671054761856794" lon="9.39564130268991">
<ele>178.4</ele>
<time>2024-05-11T14:43:02Z</time>
</trkpt>
<trkpt lat="49.671054761856794" lon="9.39564323052764">
<ele>178.4</ele>
<time>2024-05-11T14:43:04Z</time>
</trkpt>
<trkpt lat="49.671054761856794" lon="9.395645074546335">
<ele>178.4</ele>
<time>2024-05-11T14:43:06Z</time>
</trkpt>
<trkpt lat="49.67105099000037" lon="9.395645074546335">
<ele>178.4</ele>
<time>2024-05-11T14:43:07Z</time>
</trkpt>
<trkpt lat="49.67105099000037" lon="9.39564323052764">
<ele>178.4</ele>
<time>2024-05-11T14:43:14Z</time>
</trkpt>
<trkpt lat="49.67105099000037" lon="9.39564130268991">
<ele>178.4</ele>
<time>2024-05-11T14:43:22Z</time>
</trkpt>
<trkpt lat="49.671054761856794" lon="9.39564323052764">
<ele>178.4</ele>
<time>2024-05-11T14:43:27Z</time>
</trkpt>
<trkpt lat="49.671054761856794" lon="9.39564130268991">
<ele>178.4</ele>
<time>2024-05-11T14:43:33Z</time>
</trkpt>
<trkpt lat="49.67105099000037" lon="9.39564130268991">
<ele>178.6</ele>
<time>2024-05-11T14:43:35Z</time>
</trkpt>
<trkpt lat="49.67105099000037" lon="9.39564029686153">
<ele>178.6</ele>
<time>2024-05-11T14:43:37Z</time>
</trkpt>
<trkpt lat="49.67105099000037" lon="9.39564130268991">
<ele>178.8</ele>
<time>2024-05-11T14:43:45Z</time>
</trkpt>
<trkpt lat="49.67105099000037" lon="9.39564323052764">
<ele>178.8</ele>
<time>2024-05-11T14:43:48Z</time>
</trkpt>
<trkpt lat="49.671054761856794" lon="9.39564323052764">
<ele>179</ele>
<time>2024-05-11T14:43:49Z</time>
</trkpt>
<trkpt lat="49.671054761856794" lon="9.395645074546335">
<ele>179.2</ele>
<time>2024-05-11T14:43:50Z</time>
</trkpt>
<trkpt lat="49.671054761856794" lon="9.395647002384068">
<ele>179.2</ele>
<time>2024-05-11T14:43:53Z</time>
</trkpt>
<trkpt lat="49.671054761856794" lon="9.395645074546335">
<ele>179.4</ele>
<time>2024-05-11T14:43:56Z</time>
</trkpt>
<trkpt lat="49.671054761856794" lon="9.395647002384068">
<ele>179.4</ele>
<time>2024-05-11T14:43:58Z</time>
</trkpt>
<trkpt lat="49.671054761856794" lon="9.395645074546335">
<ele>179.4</ele>
<time>2024-05-11T14:44:03Z</time>
</trkpt>
<trkpt lat="49.671054761856794" lon="9.395647002384068">
<ele>179.4</ele>
<time>2024-05-11T14:44:04Z</time>
</trkpt>
<trkpt lat="49.671054761856794" lon="9.395645074546335">
<ele>179.4</ele>
<time>2024-05-11T14:44:05Z</time>
</trkpt>
<trkpt lat="49.671054761856794" lon="9.39564323052764">
<ele>179.4</ele>
<time>2024-05-11T14:44:17Z</time>
</trkpt>
<trkpt lat="49.671054761856794" lon="9.39564130268991">
<ele>179.4</ele>
<time>2024-05-11T14:44:28Z</time>
</trkpt>
<trkpt lat="49.671054761856794" lon="9.39564323052764">
<ele>179.4</ele>
<time>2024-05-11T14:44:30Z</time>
</trkpt>
<trkpt lat="49.671054761856794" lon="9.39564130268991">
<ele>179.4</ele>
<time>2024-05-11T14:44:35Z</time>
</trkpt>
<trkpt lat="49.671054761856794" lon="9.39564323052764">
<ele>179.4</ele>
<time>2024-05-11T14:44:42Z</time>
</trkpt>
<trkpt lat="49.671054761856794" lon="9.39564130268991">
<ele>179.4</ele>
<time>2024-05-11T14:44:44Z</time>
</trkpt>
<trkpt lat="49.67105099000037" lon="9.39564130268991">
<ele>179.4</ele>
<time>2024-05-11T14:44:45Z</time>
</trkpt>
<trkpt lat="49.671054761856794" lon="9.39564130268991">
<ele>179.4</ele>
<time>2024-05-11T14:44:46Z</time>
</trkpt>
<trkpt lat="49.67105099000037" lon="9.39564323052764">
<ele>179.4</ele>
<time>2024-05-11T14:44:47Z</time>
</trkpt>
<trkpt lat="49.671054761856794" lon="9.395647002384068">
<ele>179.4</ele>
<time>2024-05-11T14:44:48Z</time>
</trkpt>
<trkpt lat="49.671054761856794" lon="9.395647924393415">
<ele>179.4</ele>
<time>2024-05-11T14:44:49Z</time>
</trkpt>
<trkpt lat="49.671054761856794" lon="9.395649852231143">
<ele>179.6</ele>
<time>2024-05-11T14:44:50Z</time>
</trkpt>
<trkpt lat="49.671054761856794" lon="9.395647924393415">
<ele>179.6</ele>
<time>2024-05-11T14:44:51Z</time>
</trkpt>
<trkpt lat="49.671054761856794" lon="9.395647002384068">
<ele>179.6</ele>
<time>2024-05-11T14:44:55Z</time>
</trkpt>
<trkpt lat="49.67105099000037" lon="9.395647002384068">
<ele>179.6</ele>
<time>2024-05-11T14:44:56Z</time>
</trkpt>
<trkpt lat="49.67105099000037" lon="9.395645074546335">
<ele>179.6</ele>
<time>2024-05-11T14:44:58Z</time>
</trkpt>
<trkpt lat="49.67105099000037" lon="9.395647002384068">
<ele>179.6</ele>
<time>2024-05-11T14:45:05Z</time>
</trkpt>
<trkpt lat="49.67105099000037" lon="9.395645074546335">
<ele>179.6</ele>
<time>2024-05-11T14:45:07Z</time>
</trkpt>
<trkpt lat="49.67105099000037" lon="9.395647002384068">
<ele>179.6</ele>
<time>2024-05-11T14:45:08Z</time>
</trkpt>
<trkpt lat="49.671054761856794" lon="9.395647002384068">
<ele>179.6</ele>
<time>2024-05-11T14:45:10Z</time>
</trkpt>
<trkpt lat="49.671054761856794" lon="9.395647924393415">
<ele>179.6</ele>
<time>2024-05-11T14:45:11Z</time>
</trkpt>
<trkpt lat="49.671054761856794" lon="9.395649852231143">
<ele>179.6</ele>
<time>2024-05-11T14:45:12Z</time>
</trkpt>
<trkpt lat="49.671054761856794" lon="9.395651780068874">
<ele>179.6</ele>
<time>2024-05-11T14:45:14Z</time>
</trkpt>
<trkpt lat="49.671054761856794" lon="9.395653707906604">
<ele>179.6</ele>
<time>2024-05-11T14:45:15Z</time>
</trkpt>
<trkpt lat="49.67105861753225" lon="9.395653707906604">
<ele>179.6</ele>
<time>2024-05-11T14:45:16Z</time>
</trkpt>
<trkpt lat="49.67105861753225" lon="9.395654629915953">
<ele>179.6</ele>
<time>2024-05-11T14:45:17Z</time>
</trkpt>
<trkpt lat="49.67105861753225" lon="9.395656557753682">
<ele>179.6</ele>
<time>2024-05-11T14:45:19Z</time>
</trkpt>
<trkpt lat="49.67105861753225" lon="9.395658485591412">
<ele>179.4</ele>
<time>2024-05-11T14:45:21Z</time>
</trkpt>
<trkpt lat="49.67105861753225" lon="9.39566032961011">
<ele>179.4</ele>
<time>2024-05-11T14:45:23Z</time>
</trkpt>
<trkpt lat="49.67105861753225" lon="9.39566133543849">
<ele>179.4</ele>
<time>2024-05-11T14:45:24Z</time>
</trkpt>
<trkpt lat="49.67105861753225" lon="9.39566032961011">
<ele>179.4</ele>
<time>2024-05-11T14:45:26Z</time>
</trkpt>
<trkpt lat="49.67105861753225" lon="9.395658485591412">
<ele>179.6</ele>
<time>2024-05-11T14:45:28Z</time>
</trkpt>
<trkpt lat="49.671054761856794" lon="9.395656557753682">
<ele>179.6</ele>
<time>2024-05-11T14:45:29Z</time>
</trkpt>
<trkpt lat="49.671054761856794" lon="9.395654629915953">
<ele>179.6</ele>
<time>2024-05-11T14:45:30Z</time>
</trkpt>
<trkpt lat="49.67105099000037" lon="9.395651780068874">
<ele>179.6</ele>
<time>2024-05-11T14:45:33Z</time>
</trkpt>
<trkpt lat="49.67105099000037" lon="9.395653707906604">
<ele>179.6</ele>
<time>2024-05-11T14:45:34Z</time>
</trkpt>
<trkpt lat="49.67105099000037" lon="9.395651780068874">
<ele>179.6</ele>
<time>2024-05-11T14:45:36Z</time>
</trkpt>
<trkpt lat="49.67105099000037" lon="9.395649852231143">
<ele>179.6</ele>
<time>2024-05-11T14:45:37Z</time>
</trkpt>
<trkpt lat="49.67105099000037" lon="9.395647924393415">
<ele>179.6</ele>
<time>2024-05-11T14:45:38Z</time>
</trkpt>
<trkpt lat="49.67105099000037" lon="9.395647002384068">
<ele>179.6</ele>
<time>2024-05-11T14:45:39Z</time>
</trkpt>
<trkpt lat="49.67104713432491" lon="9.395645074546335">
<ele>179.6</ele>
<time>2024-05-11T14:45:41Z</time>
</trkpt>
<trkpt lat="49.67104713432491" lon="9.39564323052764">
<ele>179.6</ele>
<time>2024-05-11T14:45:43Z</time>
</trkpt>
<trkpt lat="49.67104713432491" lon="9.39564130268991">
<ele>179.6</ele>
<time>2024-05-11T14:45:45Z</time>
</trkpt>
<trkpt lat="49.67104713432491" lon="9.39564323052764">
<ele>179.6</ele>
<time>2024-05-11T14:45:50Z</time>
</trkpt>
<trkpt lat="49.67104713432491" lon="9.395645074546335">
<ele>179.6</ele>
<time>2024-05-11T14:45:56Z</time>
</trkpt>
<trkpt lat="49.67104336246848" lon="9.395645074546335">
<ele>179.8</ele>
<time>2024-05-11T14:45:59Z</time>
</trkpt>
<trkpt lat="49.67104713432491" lon="9.395647002384068">
<ele>179.8</ele>
<time>2024-05-11T14:46:02Z</time>
</trkpt>
<trkpt lat="49.67104336246848" lon="9.395647002384068">
<ele>179.8</ele>
<time>2024-05-11T14:46:09Z</time>
</trkpt>
<trkpt lat="49.67104336246848" lon="9.395647924393415">
<ele>179.8</ele>
<time>2024-05-11T14:46:10Z</time>
</trkpt>
<trkpt lat="49.67104336246848" lon="9.395649852231143">
<ele>179.8</ele>
<time>2024-05-11T14:46:12Z</time>
</trkpt>
<trkpt lat="49.67104336246848" lon="9.395651780068874">
<ele>179.8</ele>
<time>2024-05-11T14:46:13Z</time>
</trkpt>
<trkpt lat="49.67104336246848" lon="9.395653707906604">
<ele>179.8</ele>
<time>2024-05-11T14:46:14Z</time>
</trkpt>
<trkpt lat="49.67104336246848" lon="9.395654629915953">
<ele>179.8</ele>
<time>2024-05-11T14:46:21Z</time>
</trkpt>
<trkpt lat="49.67104713432491" lon="9.395654629915953">
<ele>179.8</ele>
<time>2024-05-11T14:46:28Z</time>
</trkpt>
<trkpt lat="49.67104713432491" lon="9.395653707906604">
<ele>179.8</ele>
<time>2024-05-11T14:46:30Z</time>
</trkpt>
<trkpt lat="49.67104713432491" lon="9.395651780068874">
<ele>179.6</ele>
<time>2024-05-11T14:46:32Z</time>
</trkpt>
<trkpt lat="49.67104713432491" lon="9.395649852231143">
<ele>179.6</ele>
<time>2024-05-11T14:46:36Z</time>
</trkpt>
<trkpt lat="49.67104713432491" lon="9.395647924393415">
<ele>179.6</ele>
<time>2024-05-11T14:46:39Z</time>
</trkpt>
<trkpt lat="49.67104713432491" lon="9.395647002384068">
<ele>179.6</ele>
<time>2024-05-11T14:46:42Z</time>
</trkpt>
<trkpt lat="49.67105099000037" lon="9.395647002384068">
<ele>179.6</ele>
<time>2024-05-11T14:46:45Z</time>
</trkpt>
<trkpt lat="49.67105099000037" lon="9.395645074546335">
<ele>179.6</ele>
<time>2024-05-11T14:46:48Z</time>
</trkpt>
<trkpt lat="49.67105099000037" lon="9.39564323052764">
<ele>179.6</ele>
<time>2024-05-11T14:46:57Z</time>
</trkpt>
<trkpt lat="49.67105099000037" lon="9.395645074546335">
<ele>179.6</ele>
<time>2024-05-11T14:47:03Z</time>
</trkpt>
<trkpt lat="49.67105099000037" lon="9.395647002384068">
<ele>179.6</ele>
<time>2024-05-11T14:47:13Z</time>
</trkpt>
<trkpt lat="49.67105099000037" lon="9.395647924393415">
<ele>179.6</ele>
<time>2024-05-11T14:47:27Z</time>
</trkpt>
<trkpt lat="49.67105099000037" lon="9.395649852231143">
<ele>179.6</ele>
<time>2024-05-11T14:47:32Z</time>
</trkpt>
<trkpt lat="49.67105099000037" lon="9.395647924393415">
<ele>179.6</ele>
<time>2024-05-11T14:47:33Z</time>
</trkpt>
<trkpt lat="49.67105099000037" lon="9.395647002384068">
<ele>179.6</ele>
<time>2024-05-11T14:47:40Z</time>
</trkpt>
<trkpt lat="49.67105099000037" lon="9.395647924393415">
<ele>179.6</ele>
<time>2024-05-11T14:47:52Z</time>
</trkpt>
<trkpt lat="49.67105099000037" lon="9.395649852231143">
<ele>179.6</ele>
<time>2024-05-11T14:47:54Z</time>
</trkpt>
<trkpt lat="49.67105099000037" lon="9.395651780068874">
<ele>179.6</ele>
<time>2024-05-11T14:47:57Z</time>
</trkpt>
<trkpt lat="49.67105099000037" lon="9.395653707906604">
<ele>179.6</ele>
<time>2024-05-11T14:47:58Z</time>
</trkpt>
<trkpt lat="49.67104713432491" lon="9.395653707906604">
<ele>179.6</ele>
<time>2024-05-11T14:48:00Z</time>
</trkpt>
<trkpt lat="49.67104713432491" lon="9.395654629915953">
<ele>179.6</ele>
<time>2024-05-11T14:48:03Z</time>
</trkpt>
<trkpt lat="49.67104713432491" lon="9.395653707906604">
<ele>179.6</ele>
<time>2024-05-11T14:48:17Z</time>
</trkpt>
<trkpt lat="49.67104336246848" lon="9.395653707906604">
<ele>179.6</ele>
<time>2024-05-11T14:48:19Z</time>
</trkpt>
<trkpt lat="49.67104336246848" lon="9.395651780068874">
<ele>179.6</ele>
<time>2024-05-11T14:48:20Z</time>
</trkpt>
<trkpt lat="49.67104336246848" lon="9.395649852231143">
<ele>179.6</ele>
<time>2024-05-11T14:48:25Z</time>
</trkpt>
<trkpt lat="49.67104336246848" lon="9.395651780068874">
<ele>179.6</ele>
<time>2024-05-11T14:48:26Z</time>
</trkpt>
<trkpt lat="49.67104336246848" lon="9.395653707906604">
<ele>179.6</ele>
<time>2024-05-11T14:48:30Z</time>
</trkpt>
<trkpt lat="49.67104336246848" lon="9.395654629915953">
<ele>179.6</ele>
<time>2024-05-11T14:48:33Z</time>
</trkpt>
<trkpt lat="49.67104336246848" lon="9.395656557753682">
<ele>179.6</ele>
<time>2024-05-11T14:48:35Z</time>
</trkpt>
<trkpt lat="49.67104336246848" lon="9.395658485591412">
<ele>179.6</ele>
<time>2024-05-11T14:48:37Z</time>
</trkpt>
<trkpt lat="49.67104336246848" lon="9.39566032961011">
<ele>179.6</ele>
<time>2024-05-11T14:48:38Z</time>
</trkpt>
<trkpt lat="49.67104336246848" lon="9.39566133543849">
<ele>179.6</ele>
<time>2024-05-11T14:48:41Z</time>
</trkpt>
<trkpt lat="49.67104336246848" lon="9.395663179457188">
<ele>179.6</ele>
<time>2024-05-11T14:48:42Z</time>
</trkpt>
<trkpt lat="49.67104336246848" lon="9.395665107294915">
<ele>179.6</ele>
<time>2024-05-11T14:48:44Z</time>
</trkpt>
<trkpt lat="49.67104713432491" lon="9.395667035132648">
<ele>179.6</ele>
<time>2024-05-11T14:48:47Z</time>
</trkpt>
<trkpt lat="49.67104713432491" lon="9.395667957141995">
<ele>179.6</ele>
<time>2024-05-11T14:48:53Z</time>
</trkpt>
<trkpt lat="49.67105099000037" lon="9.395667957141995">
<ele>179.6</ele>
<time>2024-05-11T14:49:12Z</time>
</trkpt>
<trkpt lat="49.67105099000037" lon="9.395669884979725">
<ele>179.6</ele>
<time>2024-05-11T14:49:15Z</time>
</trkpt>
<trkpt lat="49.67105099000037" lon="9.395671812817454">
<ele>179.6</ele>
<time>2024-05-11T14:49:20Z</time>
</trkpt>
<trkpt lat="49.67104713432491" lon="9.395671812817454">
<ele>179.6</ele>
<time>2024-05-11T14:49:22Z</time>
</trkpt>
<trkpt lat="49.67104713432491" lon="9.395669884979725">
<ele>179.6</ele>
<time>2024-05-11T14:49:24Z</time>
</trkpt>
<trkpt lat="49.67104713432491" lon="9.395667957141995">
<ele>179.6</ele>
<time>2024-05-11T14:49:27Z</time>
</trkpt>
<trkpt lat="49.67104713432491" lon="9.395667035132648">
<ele>179.6</ele>
<time>2024-05-11T14:49:29Z</time>
</trkpt>
<trkpt lat="49.67104713432491" lon="9.395667957141995">
<ele>179.6</ele>
<time>2024-05-11T14:49:30Z</time>
</trkpt>
<trkpt lat="49.67104713432491" lon="9.395667035132648">
<ele>179.6</ele>
<time>2024-05-11T14:49:35Z</time>
</trkpt>
<trkpt lat="49.67105099000037" lon="9.395667035132648">
<ele>179.6</ele>
<time>2024-05-11T14:49:36Z</time>
</trkpt>
<trkpt lat="49.67105099000037" lon="9.395665107294915">
<ele>179.6</ele>
<time>2024-05-11T14:49:38Z</time>
</trkpt>
<trkpt lat="49.67105099000037" lon="9.395667035132648">
<ele>179.6</ele>
<time>2024-05-11T14:49:41Z</time>
</trkpt>
<trkpt lat="49.67105099000037" lon="9.395665107294915">
<ele>179.6</ele>
<time>2024-05-11T14:49:43Z</time>
</trkpt>
<trkpt lat="49.67105099000037" lon="9.395663179457188">
<ele>179.6</ele>
<time>2024-05-11T14:49:48Z</time>
</trkpt>
<trkpt lat="49.67105099000037" lon="9.395665107294915">
<ele>179.6</ele>
<time>2024-05-11T14:49:51Z</time>
</trkpt>
<trkpt lat="49.67105099000037" lon="9.395663179457188">
<ele>179.6</ele>
<time>2024-05-11T14:49:57Z</time>
</trkpt>
<trkpt lat="49.67105099000037" lon="9.395665107294915">
<ele>179.6</ele>
<time>2024-05-11T14:49:58Z</time>
</trkpt>
<trkpt lat="49.67105099000037" lon="9.395663179457188">
<ele>179.6</ele>
<time>2024-05-11T14:49:59Z</time>
</trkpt>
<trkpt lat="49.671054761856794" lon="9.39566133543849">
<ele>179.6</ele>
<time>2024-05-11T14:50:02Z</time>
</trkpt>
<trkpt lat="49.67105099000037" lon="9.39566133543849">
<ele>179.6</ele>
<time>2024-05-11T14:50:03Z</time>
</trkpt>
<trkpt lat="49.671054761856794" lon="9.39566032961011">
<ele>179.6</ele>
<time>2024-05-11T14:50:06Z</time>
</trkpt>
<trkpt lat="49.67105099000037" lon="9.39566032961011">
<ele>179.6</ele>
<time>2024-05-11T14:50:08Z</time>
</trkpt>
<trkpt lat="49.67105099000037" lon="9.395658485591412">
<ele>179.6</ele>
<time>2024-05-11T14:50:10Z</time>
</trkpt>
<trkpt lat="49.67105099000037" lon="9.39566032961011">
<ele>179.6</ele>
<time>2024-05-11T14:50:11Z</time>
</trkpt>
<trkpt lat="49.67105099000037" lon="9.39566133543849">
<ele>179.6</ele>
<time>2024-05-11T14:50:15Z</time>
</trkpt>
<trkpt lat="49.67105099000037" lon="9.39566032961011">
<ele>179.6</ele>
<time>2024-05-11T14:50:18Z</time>
</trkpt>
<trkpt lat="49.67105099000037" lon="9.395658485591412">
<ele>179.6</ele>
<time>2024-05-11T14:50:23Z</time>
</trkpt>
<trkpt lat="49.67105099000037" lon="9.395656557753682">
<ele>179.6</ele>
<time>2024-05-11T14:50:27Z</time>
</trkpt>
<trkpt lat="49.67105099000037" lon="9.395654629915953">
<ele>179.6</ele>
<time>2024-05-11T14:50:29Z</time>
</trkpt>
<trkpt lat="49.67105099000037" lon="9.395653707906604">
<ele>179.6</ele>
<time>2024-05-11T14:50:33Z</time>
</trkpt>
<trkpt lat="49.67104713432491" lon="9.395651780068874">
<ele>179.6</ele>
<time>2024-05-11T14:50:35Z</time>
</trkpt>
<trkpt lat="49.67104713432491" lon="9.395649852231143">
<ele>179.6</ele>
<time>2024-05-11T14:50:39Z</time>
</trkpt>
<trkpt lat="49.67104713432491" lon="9.395647924393415">
<ele>179.6</ele>
<time>2024-05-11T14:50:45Z</time>
</trkpt>
<trkpt lat="49.671054761856794" lon="9.395645074546335">
<ele>179.6</ele>
<time>2024-05-11T14:50:51Z</time>
</trkpt>
<trkpt lat="49.67105099000037" lon="9.395645074546335">
<ele>179.6</ele>
<time>2024-05-11T14:50:53Z</time>
</trkpt>
<trkpt lat="49.67105099000037" lon="9.395647002384068">
<ele>179.6</ele>
<time>2024-05-11T14:51:01Z</time>
</trkpt>
<trkpt lat="49.67104713432491" lon="9.395647002384068">
<ele>179.6</ele>
<time>2024-05-11T14:51:05Z</time>
</trkpt>
<trkpt lat="49.67105099000037" lon="9.395647924393415">
<ele>179.6</ele>
<time>2024-05-11T14:51:06Z</time>
</trkpt>
<trkpt lat="49.67105099000037" lon="9.395649852231143">
<ele>179.6</ele>
<time>2024-05-11T14:51:09Z</time>
</trkpt>
<trkpt lat="49.67105099000037" lon="9.395651780068874">
<ele>179.6</ele>
<time>2024-05-11T14:51:10Z</time>
</trkpt>
<trkpt lat="49.671054761856794" lon="9.395649852231143">
<ele>179.6</ele>
<time>2024-05-11T14:51:11Z</time>
</trkpt>
<trkpt lat="49.671054761856794" lon="9.395647924393415">
<ele>179.6</ele>
<time>2024-05-11T14:51:14Z</time>
</trkpt>
<trkpt lat="49.67105099000037" lon="9.395647002384068">
<ele>179.6</ele>
<time>2024-05-11T14:51:16Z</time>
</trkpt>
<trkpt lat="49.67105099000037" lon="9.395647924393415">
<ele>179.6</ele>
<time>2024-05-11T14:51:17Z</time>
</trkpt>
<trkpt lat="49.67105099000037" lon="9.395649852231143">
<ele>179.6</ele>
<time>2024-05-11T14:51:19Z</time>
</trkpt>
<trkpt lat="49.67105099000037" lon="9.395647924393415">
<ele>179.6</ele>
<time>2024-05-11T14:51:21Z</time>
</trkpt>
<trkpt lat="49.67104713432491" lon="9.395647924393415">
<ele>179.6</ele>
<time>2024-05-11T14:51:22Z</time>
</trkpt>
<trkpt lat="49.67104713432491" lon="9.395647002384068">
<ele>179.6</ele>
<time>2024-05-11T14:51:23Z</time>
</trkpt>
<trkpt lat="49.67104713432491" lon="9.395645074546335">
<ele>179.6</ele>
<time>2024-05-11T14:51:24Z</time>
</trkpt>
<trkpt lat="49.67104713432491" lon="9.39564323052764">
<ele>179.6</ele>
<time>2024-05-11T14:51:26Z</time>
</trkpt>
<trkpt lat="49.67104713432491" lon="9.39564130268991">
<ele>179.6</ele>
<time>2024-05-11T14:51:28Z</time>
</trkpt>
<trkpt lat="49.67104713432491" lon="9.39564029686153">
<ele>179.6</ele>
<time>2024-05-11T14:51:29Z</time>
</trkpt>
<trkpt lat="49.67104336246848" lon="9.395638452842832">
<ele>179.6</ele>
<time>2024-05-11T14:51:30Z</time>
</trkpt>
<trkpt lat="49.67104336246848" lon="9.395636525005102">
<ele>179.6</ele>
<time>2024-05-11T14:51:31Z</time>
</trkpt>
<trkpt lat="49.67104336246848" lon="9.395634597167373">
<ele>179.6</ele>
<time>2024-05-11T14:51:32Z</time>
</trkpt>
<trkpt lat="49.67103950679302" lon="9.395634597167373">
<ele>179.6</ele>
<time>2024-05-11T14:51:34Z</time>
</trkpt>
<trkpt lat="49.67103950679302" lon="9.395633675158024">
<ele>179.6</ele>
<time>2024-05-11T14:51:35Z</time>
</trkpt>
<trkpt lat="49.671035734936595" lon="9.395633675158024">
<ele>179.6</ele>
<time>2024-05-11T14:51:36Z</time>
</trkpt>
<trkpt lat="49.671031879261136" lon="9.395633675158024">
<ele>179.6</ele>
<time>2024-05-11T14:51:39Z</time>
</trkpt>
<trkpt lat="49.671031879261136" lon="9.395634597167373">
<ele>179.6</ele>
<time>2024-05-11T14:51:42Z</time>
</trkpt>
<trkpt lat="49.671031879261136" lon="9.395636525005102">
<ele>179.6</ele>
<time>2024-05-11T14:51:43Z</time>
</trkpt>
<trkpt lat="49.671031879261136" lon="9.395638452842832">
<ele>179.6</ele>
<time>2024-05-11T14:51:44Z</time>
</trkpt>
<trkpt lat="49.671031879261136" lon="9.395636525005102">
<ele>179.6</ele>
<time>2024-05-11T14:51:45Z</time>
</trkpt>
<trkpt lat="49.671031879261136" lon="9.395638452842832">
<ele>179.6</ele>
<time>2024-05-11T14:51:46Z</time>
</trkpt>
<trkpt lat="49.671031879261136" lon="9.395636525005102">
<ele>179.6</ele>
<time>2024-05-11T14:51:47Z</time>
</trkpt>
<trkpt lat="49.671035734936595" lon="9.395636525005102">
<ele>179.6</ele>
<time>2024-05-11T14:51:48Z</time>
</trkpt>
<trkpt lat="49.671035734936595" lon="9.395634597167373">
<ele>179.6</ele>
<time>2024-05-11T14:51:50Z</time>
</trkpt>
<trkpt lat="49.671035734936595" lon="9.395636525005102">
<ele>179.6</ele>
<time>2024-05-11T14:51:52Z</time>
</trkpt>
<trkpt lat="49.671035734936595" lon="9.395638452842832">
<ele>179.6</ele>
<time>2024-05-11T14:51:53Z</time>
</trkpt>
<trkpt lat="49.671035734936595" lon="9.39564029686153">
<ele>179.6</ele>
<time>2024-05-11T14:51:55Z</time>
</trkpt>
<trkpt lat="49.671031879261136" lon="9.39564029686153">
<ele>179.6</ele>
<time>2024-05-11T14:51:56Z</time>
</trkpt>
<trkpt lat="49.67102810740471" lon="9.39564029686153">
<ele>179.6</ele>
<time>2024-05-11T14:52:00Z</time>
</trkpt>
<trkpt lat="49.67102425172925" lon="9.395631747320294">
<ele>179.6</ele>
<time>2024-05-11T14:52:01Z</time>
</trkpt>
<trkpt lat="49.67101662419736" lon="9.395613642409444">
<ele>179.6</ele>
<time>2024-05-11T14:52:02Z</time>
</trkpt>
<trkpt lat="49.67100136913359" lon="9.395589753985403">
<ele>179.6</ele>
<time>2024-05-11T14:52:03Z</time>
</trkpt>
<trkpt lat="49.67098611406982" lon="9.39556117169559">
<ele>179.6</ele>
<time>2024-05-11T14:52:04Z</time>
</trkpt>
<trkpt lat="49.67097085900605" lon="9.395526805892588">
<ele>179.6</ele>
<time>2024-05-11T14:52:05Z</time>
</trkpt>
<trkpt lat="49.670959459617734" lon="9.395486824214458">
<ele>179.6</ele>
<time>2024-05-11T14:52:06Z</time>
</trkpt>
<trkpt lat="49.67094420455396" lon="9.395438125357032">
<ele>179.6</ele>
<time>2024-05-11T14:52:07Z</time>
</trkpt>
<trkpt lat="49.67092894949019" lon="9.395388588309288">
<ele>179.6</ele>
<time>2024-05-11T14:52:08Z</time>
</trkpt>
<trkpt lat="49.67091369442642" lon="9.395335195586084">
<ele>179.6</ele>
<time>2024-05-11T14:52:09Z</time>
</trkpt>
<trkpt lat="49.67089835554361" lon="9.395281719043853">
<ele>179.6</ele>
<time>2024-05-11T14:52:10Z</time>
</trkpt>
<trkpt lat="49.670879328623414" lon="9.395228326320648">
<ele>179.6</ele>
<time>2024-05-11T14:52:11Z</time>
</trkpt>
<trkpt lat="49.67086021788418" lon="9.395174933597444">
<ele>179.6</ele>
<time>2024-05-11T14:52:12Z</time>
</trkpt>
<trkpt lat="49.67084496282041" lon="9.395119613036512">
<ele>179.6</ele>
<time>2024-05-11T14:52:13Z</time>
</trkpt>
<trkpt lat="49.67082593590021" lon="9.39506622031331">
<ele>179.6</ele>
<time>2024-05-11T14:52:14Z</time>
</trkpt>
<trkpt lat="49.67081068083644" lon="9.395013749599457">
<ele>179.6</ele>
<time>2024-05-11T14:52:15Z</time>
</trkpt>
<trkpt lat="49.67079542577267" lon="9.394961278885605">
<ele>179.6</ele>
<time>2024-05-11T14:52:16Z</time>
</trkpt>
<trkpt lat="49.67077631503344" lon="9.3949078861624">
<ele>179.6</ele>
<time>2024-05-11T14:52:17Z</time>
</trkpt>
<trkpt lat="49.67075728811323" lon="9.394856421276929">
<ele>179.6</ele>
<time>2024-05-11T14:52:18Z</time>
</trkpt>
<trkpt lat="49.670738177374005" lon="9.394802022725344">
<ele>179.6</ele>
<time>2024-05-11T14:52:19Z</time>
</trkpt>
<trkpt lat="49.67072292231023" lon="9.394749635830522">
<ele>179.6</ele>
<time>2024-05-11T14:52:20Z</time>
</trkpt>
<trkpt lat="49.67071143910289" lon="9.394700014963746">
<ele>179.6</ele>
<time>2024-05-11T14:52:21Z</time>
</trkpt>
<trkpt lat="49.670700039714575" lon="9.394653243944049">
<ele>179.6</ele>
<time>2024-05-11T14:52:22Z</time>
</trkpt>
<trkpt lat="49.67069241218269" lon="9.394603706896303">
<ele>179.8</ele>
<time>2024-05-11T14:52:23Z</time>
</trkpt>
<trkpt lat="49.6706847846508" lon="9.39455509185791">
<ele>180.2</ele>
<time>2024-05-11T14:52:24Z</time>
</trkpt>
<trkpt lat="49.67067715711892" lon="9.394504465162754">
<ele>180.4</ele>
<time>2024-05-11T14:52:25Z</time>
</trkpt>
<trkpt lat="49.67066952958703" lon="9.39445300027728">
<ele>180.8</ele>
<time>2024-05-11T14:52:26Z</time>
</trkpt>
<trkpt lat="49.670661902055144" lon="9.394403379410504">
<ele>181.2</ele>
<time>2024-05-11T14:52:27Z</time>
</trkpt>
<trkpt lat="49.67065427452326" lon="9.394351914525032">
<ele>181.6</ele>
<time>2024-05-11T14:52:28Z</time>
</trkpt>
<trkpt lat="49.67064664699137" lon="9.394301371648908">
<ele>181.8</ele>
<time>2024-05-11T14:52:29Z</time>
</trkpt>
<trkpt lat="49.670639019459486" lon="9.394251750782132">
<ele>182.2</ele>
<time>2024-05-11T14:52:30Z</time>
</trkpt>
<trkpt lat="49.6706313919276" lon="9.394206991419196">
<ele>182.4</ele>
<time>2024-05-11T14:52:31Z</time>
</trkpt>
<trkpt lat="49.670623764395714" lon="9.394163070246575">
<ele>182.6</ele>
<time>2024-05-11T14:52:32Z</time>
</trkpt>
<trkpt lat="49.670619908720255" lon="9.394122082740068">
<ele>182.8</ele>
<time>2024-05-11T14:52:33Z</time>
</trkpt>
<trkpt lat="49.67060850933194" lon="9.394084867089989">
<ele>183</ele>
<time>2024-05-11T14:52:34Z</time>
</trkpt>
<trkpt lat="49.670600881800056" lon="9.394044801592829">
<ele>183.2</ele>
<time>2024-05-11T14:52:35Z</time>
</trkpt>
<trkpt lat="49.67058939859271" lon="9.394006663933396">
<ele>183.4</ele>
<time>2024-05-11T14:52:36Z</time>
</trkpt>
<trkpt lat="49.6705779992044" lon="9.393971376121044">
<ele>183.6</ele>
<time>2024-05-11T14:52:37Z</time>
</trkpt>
<trkpt lat="49.67056651599705" lon="9.39393801614642">
<ele>183.8</ele>
<time>2024-05-11T14:52:38Z</time>
</trkpt>
<trkpt lat="49.67055503278971" lon="9.393903650343418">
<ele>184</ele>
<time>2024-05-11T14:52:39Z</time>
</trkpt>
<trkpt lat="49.670543633401394" lon="9.393866518512368">
<ele>184</ele>
<time>2024-05-11T14:52:40Z</time>
</trkpt>
<trkpt lat="49.67052837833762" lon="9.393835002556443">
<ele>184.2</ele>
<time>2024-05-11T14:52:41Z</time>
</trkpt>
<trkpt lat="49.67051689513028" lon="9.3938044924289">
<ele>184.2</ele>
<time>2024-05-11T14:52:42Z</time>
</trkpt>
<trkpt lat="49.670501640066504" lon="9.393777837976812">
<ele>184.2</ele>
<time>2024-05-11T14:52:43Z</time>
</trkpt>
<trkpt lat="49.670482613146305" lon="9.393754955381157">
<ele>184.4</ele>
<time>2024-05-11T14:52:44Z</time>
</trkpt>
<trkpt lat="49.67046735808253" lon="9.393730144947767">
<ele>184.6</ele>
<time>2024-05-11T14:52:45Z</time>
</trkpt>
<trkpt lat="49.6704482473433" lon="9.393710112199187">
<ele>184.8</ele>
<time>2024-05-11T14:52:46Z</time>
</trkpt>
<trkpt lat="49.67043299227953" lon="9.393694857135417">
<ele>184.8</ele>
<time>2024-05-11T14:52:47Z</time>
</trkpt>
<trkpt lat="49.67041010968387" lon="9.393678596243262">
<ele>185</ele>
<time>2024-05-11T14:52:48Z</time>
</trkpt>
<trkpt lat="49.6703948546201" lon="9.393659569323065">
<ele>185.2</ele>
<time>2024-05-11T14:52:49Z</time>
</trkpt>
<trkpt lat="49.67037574388087" lon="9.393641464412212">
<ele>185.2</ele>
<time>2024-05-11T14:52:50Z</time>
</trkpt>
<trkpt lat="49.67035286128521" lon="9.39362327568233">
<ele>185.4</ele>
<time>2024-05-11T14:52:51Z</time>
</trkpt>
<trkpt lat="49.67032997868955" lon="9.39360517077148">
<ele>185.6</ele>
<time>2024-05-11T14:52:52Z</time>
</trkpt>
<trkpt lat="49.67031095176935" lon="9.393587065860627">
<ele>186</ele>
<time>2024-05-11T14:52:53Z</time>
</trkpt>
<trkpt lat="49.67029569670558" lon="9.39356510527432">
<ele>186.2</ele>
<time>2024-05-11T14:52:54Z</time>
</trkpt>
<trkpt lat="49.67028044164181" lon="9.39354507252574">
<ele>186.4</ele>
<time>2024-05-11T14:52:55Z</time>
</trkpt>
<trkpt lat="49.670261330902576" lon="9.39352797344327">
<ele>186.6</ele>
<time>2024-05-11T14:52:56Z</time>
</trkpt>
<trkpt lat="49.67024230398238" lon="9.393509784713387">
<ele>186.8</ele>
<time>2024-05-11T14:52:57Z</time>
</trkpt>
<trkpt lat="49.670223193243146" lon="9.393496457487345">
<ele>187</ele>
<time>2024-05-11T14:52:58Z</time>
</trkpt>
<trkpt lat="49.6702117100358" lon="9.39348983578384">
<ele>187.2</ele>
<time>2024-05-11T14:52:59Z</time>
</trkpt>
<trkpt lat="49.67018882744014" lon="9.393480280414224">
<ele>187.4</ele>
<time>2024-05-11T14:53:00Z</time>
</trkpt>
<trkpt lat="49.67016980051994" lon="9.39346980303526">
<ele>187.6</ele>
<time>2024-05-11T14:53:01Z</time>
</trkpt>
<trkpt lat="49.67015454545617" lon="9.393461169674993">
<ele>187.8</ele>
<time>2024-05-11T14:53:02Z</time>
</trkpt>
<trkpt lat="49.67013543471694" lon="9.393460247665644">
<ele>188</ele>
<time>2024-05-11T14:53:03Z</time>
</trkpt>
<trkpt lat="49.67011255212128" lon="9.393456391990185">
<ele>188.2</ele>
<time>2024-05-11T14:53:04Z</time>
</trkpt>
<trkpt lat="49.67009352520108" lon="9.393454547971489">
<ele>188.4</ele>
<time>2024-05-11T14:53:05Z</time>
</trkpt>
<trkpt lat="49.670066786929965" lon="9.393454547971489">
<ele>188.6</ele>
<time>2024-05-11T14:53:06Z</time>
</trkpt>
<trkpt lat="49.670047760009766" lon="9.393451614305375">
<ele>188.8</ele>
<time>2024-05-11T14:53:07Z</time>
</trkpt>
<trkpt lat="49.67002479359507" lon="9.39344977028668">
<ele>189</ele>
<time>2024-05-11T14:53:08Z</time>
</trkpt>
<trkpt lat="49.67000576667488" lon="9.3934469204396">
<ele>189.2</ele>
<time>2024-05-11T14:53:09Z</time>
</trkpt>
<trkpt lat="49.669986655935645" lon="9.393443064764142">
<ele>189.4</ele>
<time>2024-05-11T14:53:10Z</time>
</trkpt>
<trkpt lat="49.669967629015446" lon="9.393440214917064">
<ele>189.6</ele>
<time>2024-05-11T14:53:11Z</time>
</trkpt>
<trkpt lat="49.66994474641979" lon="9.393434515222909">
<ele>189.8</ele>
<time>2024-05-11T14:53:12Z</time>
</trkpt>
<trkpt lat="49.66992563568056" lon="9.393434515222909">
<ele>190</ele>
<time>2024-05-11T14:53:13Z</time>
</trkpt>
<trkpt lat="49.66990660876036" lon="9.393431581556795">
<ele>190.4</ele>
<time>2024-05-11T14:53:14Z</time>
</trkpt>
<trkpt lat="49.6698837261647" lon="9.39342688769102">
<ele>190.6</ele>
<time>2024-05-11T14:53:15Z</time>
</trkpt>
<trkpt lat="49.66986461542547" lon="9.393423032015562">
<ele>190.8</ele>
<time>2024-05-11T14:53:16Z</time>
</trkpt>
<trkpt lat="49.66984173282981" lon="9.393422110006211">
<ele>191.2</ele>
<time>2024-05-11T14:53:17Z</time>
</trkpt>
<trkpt lat="49.66982647776604" lon="9.393418254330754">
<ele>191.4</ele>
<time>2024-05-11T14:53:18Z</time>
</trkpt>
<trkpt lat="49.669807367026806" lon="9.393411632627249">
<ele>191.8</ele>
<time>2024-05-11T14:53:19Z</time>
</trkpt>
<trkpt lat="49.66978834010661" lon="9.393404927104712">
<ele>192.2</ele>
<time>2024-05-11T14:53:20Z</time>
</trkpt>
<trkpt lat="49.669773085042834" lon="9.393396377563477">
<ele>192.6</ele>
<time>2024-05-11T14:53:21Z</time>
</trkpt>
<trkpt lat="49.6697539743036" lon="9.39338967204094">
<ele>193</ele>
<time>2024-05-11T14:53:22Z</time>
</trkpt>
<trkpt lat="49.66973871923983" lon="9.39338682219386">
<ele>193.6</ele>
<time>2024-05-11T14:53:23Z</time>
</trkpt>
<trkpt lat="49.66971969231963" lon="9.393382966518402">
<ele>194</ele>
<time>2024-05-11T14:53:24Z</time>
</trkpt>
<trkpt lat="49.66969672590494" lon="9.393382966518402">
<ele>194.6</ele>
<time>2024-05-11T14:53:25Z</time>
</trkpt>
<trkpt lat="49.66967769898474" lon="9.393380116671324">
<ele>195.2</ele>
<time>2024-05-11T14:53:26Z</time>
</trkpt>
<trkpt lat="49.66965481638909" lon="9.393371567130089">
<ele>195.6</ele>
<time>2024-05-11T14:53:27Z</time>
</trkpt>
<trkpt lat="49.66963570564985" lon="9.393362933769822">
<ele>196.2</ele>
<time>2024-05-11T14:53:28Z</time>
</trkpt>
<trkpt lat="49.66961667872965" lon="9.393355306237936">
<ele>196.8</ele>
<time>2024-05-11T14:53:29Z</time>
</trkpt>
<trkpt lat="49.669593796133995" lon="9.3933467566967">
<ele>197.2</ele>
<time>2024-05-11T14:53:30Z</time>
</trkpt>
<trkpt lat="49.66957468539477" lon="9.393338123336434">
<ele>197.8</ele>
<time>2024-05-11T14:53:31Z</time>
</trkpt>
<trkpt lat="49.669551802799106" lon="9.393331501632929">
<ele>198.2</ele>
<time>2024-05-11T14:53:32Z</time>
</trkpt>
<trkpt lat="49.669532775878906" lon="9.393321946263312">
<ele>198.6</ele>
<time>2024-05-11T14:53:33Z</time>
</trkpt>
<trkpt lat="49.669509809464216" lon="9.39330954104662">
<ele>199</ele>
<time>2024-05-11T14:53:34Z</time>
</trkpt>
<trkpt lat="49.66949078254402" lon="9.393301913514732">
<ele>199.4</ele>
<time>2024-05-11T14:53:35Z</time>
</trkpt>
<trkpt lat="49.669471671804786" lon="9.393291436135767">
<ele>199.8</ele>
<time>2024-05-11T14:53:36Z</time>
</trkpt>
<trkpt lat="49.66944878920913" lon="9.393281880766152">
<ele>200.2</ele>
<time>2024-05-11T14:53:37Z</time>
</trkpt>
<trkpt lat="49.66942976228893" lon="9.393271403387187">
<ele>200.4</ele>
<time>2024-05-11T14:53:38Z</time>
</trkpt>
<trkpt lat="49.66940687969327" lon="9.393264697864652">
<ele>200.6</ele>
<time>2024-05-11T14:53:39Z</time>
</trkpt>
<trkpt lat="49.66938776895404" lon="9.393261848017572">
<ele>201</ele>
<time>2024-05-11T14:53:40Z</time>
</trkpt>
<trkpt lat="49.669372513890266" lon="9.393261848017572">
<ele>201.2</ele>
<time>2024-05-11T14:53:41Z</time>
</trkpt>
<trkpt lat="49.669353403151035" lon="9.393262853845954">
<ele>201.4</ele>
<time>2024-05-11T14:53:42Z</time>
</trkpt>
<trkpt lat="49.66933052055538" lon="9.393261848017572">
<ele>201.8</ele>
<time>2024-05-11T14:53:43Z</time>
</trkpt>
<trkpt lat="49.66931149363518" lon="9.393259920179844">
<ele>202</ele>
<time>2024-05-11T14:53:44Z</time>
</trkpt>
<trkpt lat="49.66928861103952" lon="9.393259920179844">
<ele>202.2</ele>
<time>2024-05-11T14:53:45Z</time>
</trkpt>
<trkpt lat="49.66926950030029" lon="9.393264697864652">
<ele>202.6</ele>
<time>2024-05-11T14:53:46Z</time>
</trkpt>
<trkpt lat="49.66924661770463" lon="9.39326855354011">
<ele>202.8</ele>
<time>2024-05-11T14:53:47Z</time>
</trkpt>
<trkpt lat="49.66922759078443" lon="9.393271403387187">
<ele>203</ele>
<time>2024-05-11T14:53:48Z</time>
</trkpt>
<trkpt lat="49.6692084800452" lon="9.393273331224918">
<ele>203.2</ele>
<time>2024-05-11T14:53:49Z</time>
</trkpt>
<trkpt lat="49.669189453125" lon="9.393275259062648">
<ele>203.4</ele>
<time>2024-05-11T14:53:50Z</time>
</trkpt>
<trkpt lat="49.66917034238577" lon="9.393275259062648">
<ele>203.8</ele>
<time>2024-05-11T14:53:51Z</time>
</trkpt>
<trkpt lat="49.669155087322" lon="9.393276181071997">
<ele>204</ele>
<time>2024-05-11T14:53:52Z</time>
</trkpt>
<trkpt lat="49.669135976582766" lon="9.393279952928424">
<ele>204.2</ele>
<time>2024-05-11T14:53:53Z</time>
</trkpt>
<trkpt lat="49.669116949662566" lon="9.393282886594534">
<ele>204.6</ele>
<time>2024-05-11T14:53:54Z</time>
</trkpt>
<trkpt lat="49.669101694598794" lon="9.39328858628869">
<ele>204.8</ele>
<time>2024-05-11T14:53:55Z</time>
</trkpt>
<trkpt lat="49.66908643953502" lon="9.393293363973498">
<ele>205.2</ele>
<time>2024-05-11T14:53:56Z</time>
</trkpt>
<trkpt lat="49.66906732879579" lon="9.393296213820577">
<ele>205.4</ele>
<time>2024-05-11T14:53:57Z</time>
</trkpt>
<trkpt lat="49.66905207373202" lon="9.393299985677004">
<ele>205.8</ele>
<time>2024-05-11T14:53:58Z</time>
</trkpt>
<trkpt lat="49.669036818668246" lon="9.393301913514732">
<ele>206</ele>
<time>2024-05-11T14:53:59Z</time>
</trkpt>
<trkpt lat="49.669021563604474" lon="9.393299985677004">
<ele>206.4</ele>
<time>2024-05-11T14:54:00Z</time>
</trkpt>
<trkpt lat="49.66901008039713" lon="9.393298141658306">
<ele>206.6</ele>
<time>2024-05-11T14:54:01Z</time>
</trkpt>
<trkpt lat="49.66899482533336" lon="9.393299985677004">
<ele>206.8</ele>
<time>2024-05-11T14:54:03Z</time>
</trkpt>
<trkpt lat="49.668960543349385" lon="9.39330954104662">
<ele>207.4</ele>
<time>2024-05-11T14:54:04Z</time>
</trkpt>
<trkpt lat="49.66894528828561" lon="9.393316246569157">
<ele>207.6</ele>
<time>2024-05-11T14:54:05Z</time>
</trkpt>
<trkpt lat="49.66893003322184" lon="9.393321946263312">
<ele>208</ele>
<time>2024-05-11T14:54:06Z</time>
</trkpt>
<trkpt lat="49.66891092248261" lon="9.393322868272662">
<ele>208.2</ele>
<time>2024-05-11T14:54:07Z</time>
</trkpt>
<trkpt lat="49.66889566741884" lon="9.393324796110392">
<ele>208.4</ele>
<time>2024-05-11T14:54:08Z</time>
</trkpt>
<trkpt lat="49.66887664049864" lon="9.393324796110392">
<ele>208.8</ele>
<time>2024-05-11T14:54:09Z</time>
</trkpt>
<trkpt lat="49.668861385434866" lon="9.393324796110392">
<ele>209</ele>
<time>2024-05-11T14:54:10Z</time>
</trkpt>
<trkpt lat="49.668842274695635" lon="9.39332672394812">
<ele>209.4</ele>
<time>2024-05-11T14:54:11Z</time>
</trkpt>
<trkpt lat="49.66882701963186" lon="9.39332865178585">
<ele>209.6</ele>
<time>2024-05-11T14:54:12Z</time>
</trkpt>
<trkpt lat="49.66881176456809" lon="9.3933295737952">
<ele>210</ele>
<time>2024-05-11T14:54:13Z</time>
</trkpt>
<trkpt lat="49.66879650950432" lon="9.3933295737952">
<ele>210.2</ele>
<time>2024-05-11T14:54:14Z</time>
</trkpt>
<trkpt lat="49.66877739876509" lon="9.3933295737952">
<ele>210.6</ele>
<time>2024-05-11T14:54:16Z</time>
</trkpt>
<trkpt lat="49.66874688863754" lon="9.39332865178585">
<ele>211.2</ele>
<time>2024-05-11T14:54:17Z</time>
</trkpt>
<trkpt lat="49.66873163357377" lon="9.3933295737952">
<ele>211.6</ele>
<time>2024-05-11T14:54:18Z</time>
</trkpt>
<trkpt lat="49.66872023418546" lon="9.393335273489356">
<ele>211.8</ele>
<time>2024-05-11T14:54:19Z</time>
</trkpt>
<trkpt lat="49.66870875097811" lon="9.393341979011891">
<ele>212.2</ele>
<time>2024-05-11T14:54:20Z</time>
</trkpt>
<trkpt lat="49.66869349591434" lon="9.39334868453443">
<ele>212.6</ele>
<time>2024-05-11T14:54:21Z</time>
</trkpt>
<trkpt lat="49.66867824085057" lon="9.393355306237936">
<ele>212.8</ele>
<time>2024-05-11T14:54:22Z</time>
</trkpt>
<trkpt lat="49.66866675764322" lon="9.393356312066317">
<ele>213.2</ele>
<time>2024-05-11T14:54:23Z</time>
</trkpt>
<trkpt lat="49.66865150257945" lon="9.393356312066317">
<ele>213.4</ele>
<time>2024-05-11T14:54:24Z</time>
</trkpt>
<trkpt lat="49.66864010319114" lon="9.393351534381509">
<ele>213.8</ele>
<time>2024-05-11T14:54:25Z</time>
</trkpt>
<trkpt lat="49.668624848127365" lon="9.3933467566967">
<ele>214</ele>
<time>2024-05-11T14:54:26Z</time>
</trkpt>
<trkpt lat="49.66860959306359" lon="9.393342901021242">
<ele>214.4</ele>
<time>2024-05-11T14:54:27Z</time>
</trkpt>
<trkpt lat="49.66859048232436" lon="9.393342901021242">
<ele>214.6</ele>
<time>2024-05-11T14:54:28Z</time>
</trkpt>
<trkpt lat="49.66857145540416" lon="9.393342901021242">
<ele>215</ele>
<time>2024-05-11T14:54:29Z</time>
</trkpt>
<trkpt lat="49.66855234466493" lon="9.393340051174164">
<ele>215.2</ele>
<time>2024-05-11T14:54:30Z</time>
</trkpt>
<trkpt lat="49.66853708960116" lon="9.393335273489356">
<ele>215.4</ele>
<time>2024-05-11T14:54:31Z</time>
</trkpt>
<trkpt lat="49.66851806268096" lon="9.393331501632929">
<ele>215.8</ele>
<time>2024-05-11T14:54:32Z</time>
</trkpt>
<trkpt lat="49.66850280761719" lon="9.39332865178585">
<ele>216</ele>
<time>2024-05-11T14:54:33Z</time>
</trkpt>
<trkpt lat="49.668487468734384" lon="9.393321946263312">
<ele>216.2</ele>
<time>2024-05-11T14:54:34Z</time>
</trkpt>
<trkpt lat="49.668468441814184" lon="9.393315240740776">
<ele>216.4</ele>
<time>2024-05-11T14:54:35Z</time>
</trkpt>
<trkpt lat="49.66845318675041" lon="9.39330954104662">
<ele>216.6</ele>
<time>2024-05-11T14:54:36Z</time>
</trkpt>
<trkpt lat="49.66843407601118" lon="9.393301913514732">
<ele>217</ele>
<time>2024-05-11T14:54:37Z</time>
</trkpt>
<trkpt lat="49.66841882094741" lon="9.393296213820577">
<ele>217.2</ele>
<time>2024-05-11T14:54:38Z</time>
</trkpt>
<trkpt lat="49.66839979402721" lon="9.39328950829804">
<ele>217.2</ele>
<time>2024-05-11T14:54:39Z</time>
</trkpt>
<trkpt lat="49.66838068328798" lon="9.393281880766152">
<ele>217.4</ele>
<time>2024-05-11T14:54:40Z</time>
</trkpt>
<trkpt lat="49.668369283899665" lon="9.393275259062648">
<ele>217.8</ele>
<time>2024-05-11T14:54:41Z</time>
</trkpt>
<trkpt lat="49.66835780069232" lon="9.393262853845954">
<ele>218.2</ele>
<time>2024-05-11T14:54:42Z</time>
</trkpt>
<trkpt lat="49.66834640130401" lon="9.393251370638607">
<ele>218.4</ele>
<time>2024-05-11T14:54:43Z</time>
</trkpt>
<trkpt lat="49.668327290564775" lon="9.393239971250296">
<ele>218.8</ele>
<time>2024-05-11T14:54:44Z</time>
</trkpt>
<trkpt lat="49.668308179825544" lon="9.393233265727758">
<ele>219.4</ele>
<time>2024-05-11T14:54:45Z</time>
</trkpt>
<trkpt lat="49.668289152905345" lon="9.393221782520412">
<ele>219.8</ele>
<time>2024-05-11T14:54:46Z</time>
</trkpt>
<trkpt lat="49.6682586427778" lon="9.393211305141447">
<ele>220</ele>
<time>2024-05-11T14:54:47Z</time>
</trkpt>
<trkpt lat="49.668228132650256" lon="9.393203677609565">
<ele>220.2</ele>
<time>2024-05-11T14:54:48Z</time>
</trkpt>
<trkpt lat="49.66819376684725" lon="9.393195128068328">
<ele>220.8</ele>
<time>2024-05-11T14:54:49Z</time>
</trkpt>
<trkpt lat="49.66816325671971" lon="9.39319035038352">
<ele>221.2</ele>
<time>2024-05-11T14:54:50Z</time>
</trkpt>
<trkpt lat="49.66813274659216" lon="9.393184650689363">
<ele>221.6</ele>
<time>2024-05-11T14:54:51Z</time>
</trkpt>
<trkpt lat="49.668109863996506" lon="9.393181800842283">
<ele>222.2</ele>
<time>2024-05-11T14:54:52Z</time>
</trkpt>
<trkpt lat="49.66809460893273" lon="9.393177023157476">
<ele>222.8</ele>
<time>2024-05-11T14:54:53Z</time>
</trkpt>
<trkpt lat="49.66808312572539" lon="9.39316838979721">
<ele>223.4</ele>
<time>2024-05-11T14:54:54Z</time>
</trkpt>
<trkpt lat="49.6680564712733" lon="9.39316838979721">
<ele>223.8</ele>
<time>2024-05-11T14:54:55Z</time>
</trkpt>
<trkpt lat="49.668029733002186" lon="9.393164617940784">
<ele>224.2</ele>
<time>2024-05-11T14:54:56Z</time>
</trkpt>
<trkpt lat="49.66800685040653" lon="9.393157912418246">
<ele>224.6</ele>
<time>2024-05-11T14:54:57Z</time>
</trkpt>
<trkpt lat="49.66797248460352" lon="9.39315028488636">
<ele>225</ele>
<time>2024-05-11T14:54:58Z</time>
</trkpt>
<trkpt lat="49.66793820261955" lon="9.393139807507396">
<ele>225.6</ele>
<time>2024-05-11T14:54:59Z</time>
</trkpt>
<trkpt lat="49.66790383681655" lon="9.39313025213778">
<ele>226</ele>
<time>2024-05-11T14:55:00Z</time>
</trkpt>
<trkpt lat="49.667873326689005" lon="9.393117846921086">
<ele>226.6</ele>
<time>2024-05-11T14:55:01Z</time>
</trkpt>
<trkpt lat="49.66785044409335" lon="9.393106447532771">
<ele>227.4</ele>
<time>2024-05-11T14:55:02Z</time>
</trkpt>
<trkpt lat="49.66782756149769" lon="9.39308825880289">
<ele>228.2</ele>
<time>2024-05-11T14:55:03Z</time>
</trkpt>
<trkpt lat="49.66780082322657" lon="9.39307208172977">
<ele>228.8</ele>
<time>2024-05-11T14:55:04Z</time>
</trkpt>
<trkpt lat="49.66778179630637" lon="9.393059676513076">
<ele>229.4</ele>
<time>2024-05-11T14:55:05Z</time>
</trkpt>
<trkpt lat="49.66775891371071" lon="9.393048277124764">
<ele>229.8</ele>
<time>2024-05-11T14:55:06Z</time>
</trkpt>
<trkpt lat="49.66773980297148" lon="9.393041571602224">
<ele>230.4</ele>
<time>2024-05-11T14:55:07Z</time>
</trkpt>
<trkpt lat="49.667716920375824" lon="9.39303201623261">
<ele>231.2</ele>
<time>2024-05-11T14:55:08Z</time>
</trkpt>
<trkpt lat="49.667697893455625" lon="9.393023466691377">
<ele>231.8</ele>
<time>2024-05-11T14:55:09Z</time>
</trkpt>
<trkpt lat="49.667675010859966" lon="9.39301298931241">
<ele>232.6</ele>
<time>2024-05-11T14:55:10Z</time>
</trkpt>
<trkpt lat="49.66764827258885" lon="9.392999578267336">
<ele>233</ele>
<time>2024-05-11T14:55:11Z</time>
</trkpt>
<trkpt lat="49.66762538999319" lon="9.392990106716752">
<ele>233.6</ele>
<time>2024-05-11T14:55:12Z</time>
</trkpt>
<trkpt lat="49.66760250739753" lon="9.392981473356484">
<ele>234</ele>
<time>2024-05-11T14:55:13Z</time>
</trkpt>
<trkpt lat="49.6675833966583" lon="9.39297485165298">
<ele>234.4</ele>
<time>2024-05-11T14:55:14Z</time>
</trkpt>
<trkpt lat="49.66756051406264" lon="9.392966218292711">
<ele>234.6</ele>
<time>2024-05-11T14:55:15Z</time>
</trkpt>
<trkpt lat="49.66753385961056" lon="9.392958590760829">
<ele>234.8</ele>
<time>2024-05-11T14:55:16Z</time>
</trkpt>
<trkpt lat="49.66750334948301" lon="9.392950041219592">
<ele>235.2</ele>
<time>2024-05-11T14:55:17Z</time>
</trkpt>
<trkpt lat="49.667476611211896" lon="9.392939563840628">
<ele>235.4</ele>
<time>2024-05-11T14:55:18Z</time>
</trkpt>
<trkpt lat="49.66744987294078" lon="9.39293285831809">
<ele>235.6</ele>
<time>2024-05-11T14:55:19Z</time>
</trkpt>
<trkpt lat="49.66742699034512" lon="9.392926152795551">
<ele>235.6</ele>
<time>2024-05-11T14:55:20Z</time>
</trkpt>
<trkpt lat="49.66740796342492" lon="9.392916597425938">
<ele>235.6</ele>
<time>2024-05-11T14:55:21Z</time>
</trkpt>
<trkpt lat="49.66738508082926" lon="9.392906120046971">
<ele>235.6</ele>
<time>2024-05-11T14:55:22Z</time>
</trkpt>
<trkpt lat="49.667358342558146" lon="9.39289664849639">
<ele>235.8</ele>
<time>2024-05-11T14:55:23Z</time>
</trkpt>
<trkpt lat="49.66733168810606" lon="9.392885165289044">
<ele>236.2</ele>
<time>2024-05-11T14:55:24Z</time>
</trkpt>
<trkpt lat="49.6673088055104" lon="9.3928736820817">
<ele>236.4</ele>
<time>2024-05-11T14:55:25Z</time>
</trkpt>
<trkpt lat="49.66728583909571" lon="9.392860354855657">
<ele>236.8</ele>
<time>2024-05-11T14:55:26Z</time>
</trkpt>
<trkpt lat="49.66726681217551" lon="9.392841327935455">
<ele>237.2</ele>
<time>2024-05-11T14:55:27Z</time>
</trkpt>
<trkpt lat="49.66724770143628" lon="9.392829844728112">
<ele>237.6</ele>
<time>2024-05-11T14:55:28Z</time>
</trkpt>
<trkpt lat="49.66722867451608" lon="9.3928184453398">
<ele>238.2</ele>
<time>2024-05-11T14:55:29Z</time>
</trkpt>
<trkpt lat="49.66720956377685" lon="9.392805034294724">
<ele>238.6</ele>
<time>2024-05-11T14:55:30Z</time>
</trkpt>
<trkpt lat="49.66718668118119" lon="9.392787851393225">
<ele>239.2</ele>
<time>2024-05-11T14:55:31Z</time>
</trkpt>
<trkpt lat="49.66716765426099" lon="9.39277837984264">
<ele>239.6</ele>
<time>2024-05-11T14:55:32Z</time>
</trkpt>
<trkpt lat="49.667144771665335" lon="9.392773602157831">
<ele>240</ele>
<time>2024-05-11T14:55:33Z</time>
</trkpt>
<trkpt lat="49.667125660926104" lon="9.392773602157831">
<ele>240.4</ele>
<time>2024-05-11T14:55:34Z</time>
</trkpt>
<trkpt lat="49.66711040586233" lon="9.392769746482372">
<ele>241</ele>
<time>2024-05-11T14:55:35Z</time>
</trkpt>
<trkpt lat="49.667102778330445" lon="9.392766896635294">
<ele>241.6</ele>
<time>2024-05-11T14:55:36Z</time>
</trkpt>
<trkpt lat="49.66709515079856" lon="9.392763124778869">
<ele>242.4</ele>
<time>2024-05-11T14:55:37Z</time>
</trkpt>
<trkpt lat="49.66707989573479" lon="9.392751641571522">
<ele>243</ele>
<time>2024-05-11T14:55:38Z</time>
</trkpt>
<trkpt lat="49.66706841252744" lon="9.392742086201906">
<ele>243.8</ele>
<time>2024-05-11T14:55:39Z</time>
</trkpt>
<trkpt lat="49.66704175807536" lon="9.392733536660671">
<ele>244.6</ele>
<time>2024-05-11T14:55:40Z</time>
</trkpt>
<trkpt lat="49.667022647336125" lon="9.392726831138134">
<ele>245.2</ele>
<time>2024-05-11T14:55:41Z</time>
</trkpt>
<trkpt lat="49.66699976474047" lon="9.392713503912091">
<ele>246</ele>
<time>2024-05-11T14:55:42Z</time>
</trkpt>
<trkpt lat="49.66697688214481" lon="9.39269824884832">
<ele>246.6</ele>
<time>2024-05-11T14:55:43Z</time>
</trkpt>
<trkpt lat="49.66695399954915" lon="9.392686765640974">
<ele>247</ele>
<time>2024-05-11T14:55:44Z</time>
</trkpt>
<trkpt lat="49.66693488880992" lon="9.392682071775198">
<ele>247.4</ele>
<time>2024-05-11T14:55:45Z</time>
</trkpt>
<trkpt lat="49.666923489421606" lon="9.39267628826201">
<ele>247.8</ele>
<time>2024-05-11T14:55:46Z</time>
</trkpt>
<trkpt lat="49.66690060682595" lon="9.392651477828622">
<ele>248.4</ele>
<time>2024-05-11T14:55:47Z</time>
</trkpt>
<trkpt lat="49.66689297929406" lon="9.3926353007555">
<ele>248.8</ele>
<time>2024-05-11T14:55:48Z</time>
</trkpt>
<trkpt lat="49.666885351762176" lon="9.392621973529458">
<ele>249.2</ele>
<time>2024-05-11T14:55:49Z</time>
</trkpt>
<trkpt lat="49.66687386855483" lon="9.392600012943149">
<ele>249.4</ele>
<time>2024-05-11T14:55:50Z</time>
</trkpt>
<trkpt lat="49.666866241022944" lon="9.39259523525834">
<ele>249.6</ele>
<time>2024-05-11T14:55:51Z</time>
</trkpt>
<trkpt lat="49.66685484163463" lon="9.392586685717106">
<ele>250</ele>
<time>2024-05-11T14:55:52Z</time>
</trkpt>
<trkpt lat="49.666843358427286" lon="9.39257620833814">
<ele>250.2</ele>
<time>2024-05-11T14:55:53Z</time>
</trkpt>
<trkpt lat="49.666828103363514" lon="9.392566652968526">
<ele>250.4</ele>
<time>2024-05-11T14:55:54Z</time>
</trkpt>
<trkpt lat="49.666805220767856" lon="9.392549470067024">
<ele>250.8</ele>
<time>2024-05-11T14:55:55Z</time>
</trkpt>
<trkpt lat="49.66677848249674" lon="9.3925351370126">
<ele>251</ele>
<time>2024-05-11T14:55:56Z</time>
</trkpt>
<trkpt lat="49.66675182804465" lon="9.392521809786558">
<ele>251.2</ele>
<time>2024-05-11T14:55:57Z</time>
</trkpt>
<trkpt lat="49.66672131791711" lon="9.392510410398245">
<ele>251.4</ele>
<time>2024-05-11T14:55:58Z</time>
</trkpt>
<trkpt lat="49.66669457964599" lon="9.392495155334473">
<ele>251.8</ele>
<time>2024-05-11T14:55:59Z</time>
</trkpt>
<trkpt lat="49.666667925193906" lon="9.392481744289398">
<ele>252.2</ele>
<time>2024-05-11T14:56:00Z</time>
</trkpt>
<trkpt lat="49.66664504259825" lon="9.392466489225626">
<ele>252.6</ele>
<time>2024-05-11T14:56:01Z</time>
</trkpt>
<trkpt lat="49.666625931859016" lon="9.392453161999583">
<ele>253</ele>
<time>2024-05-11T14:56:02Z</time>
</trkpt>
<trkpt lat="49.666606821119785" lon="9.392443606629968">
<ele>253.2</ele>
<time>2024-05-11T14:56:03Z</time>
</trkpt>
<trkpt lat="49.666587794199586" lon="9.392435057088733">
<ele>253.6</ele>
<time>2024-05-11T14:56:04Z</time>
</trkpt>
<trkpt lat="49.66656491160393" lon="9.392415024340153">
<ele>253.8</ele>
<time>2024-05-11T14:56:05Z</time>
</trkpt>
<trkpt lat="49.666549656540155" lon="9.392403541132808">
<ele>254.2</ele>
<time>2024-05-11T14:56:06Z</time>
</trkpt>
<trkpt lat="49.6665267739445" lon="9.392391135916114">
<ele>254.4</ele>
<time>2024-05-11T14:56:07Z</time>
</trkpt>
<trkpt lat="49.66651529073715" lon="9.3923797365278">
<ele>254.6</ele>
<time>2024-05-11T14:56:08Z</time>
</trkpt>
<trkpt lat="49.66649626381695" lon="9.392363475635648">
<ele>255</ele>
<time>2024-05-11T14:56:09Z</time>
</trkpt>
<trkpt lat="49.66648478060961" lon="9.39235869795084">
<ele>255.4</ele>
<time>2024-05-11T14:56:10Z</time>
</trkpt>
<trkpt lat="49.66647715307772" lon="9.392352076247334">
<ele>255.6</ele>
<time>2024-05-11T14:56:11Z</time>
</trkpt>
<trkpt lat="49.66646189801395" lon="9.392343442887068">
<ele>256</ele>
<time>2024-05-11T14:56:12Z</time>
</trkpt>
<trkpt lat="49.66643901541829" lon="9.392328187823296">
<ele>256.4</ele>
<time>2024-05-11T14:56:13Z</time>
</trkpt>
<trkpt lat="49.66642376035452" lon="9.392316788434982">
<ele>257</ele>
<time>2024-05-11T14:56:14Z</time>
</trkpt>
<trkpt lat="49.666412277147174" lon="9.392312932759523">
<ele>257.2</ele>
<time>2024-05-11T14:56:15Z</time>
</trkpt>
<trkpt lat="49.66640464961529" lon="9.392308155074716">
<ele>257.6</ele>
<time>2024-05-11T14:56:16Z</time>
</trkpt>
<trkpt lat="49.66638562269509" lon="9.392291978001596">
<ele>258</ele>
<time>2024-05-11T14:56:17Z</time>
</trkpt>
<trkpt lat="49.666351256892085" lon="9.392278650775552">
<ele>258.4</ele>
<time>2024-05-11T14:56:18Z</time>
</trkpt>
<trkpt lat="49.666313119232655" lon="9.39226339571178">
<ele>258.6</ele>
<time>2024-05-11T14:56:19Z</time>
</trkpt>
<trkpt lat="49.66629023663699" lon="9.392252918332815">
<ele>259</ele>
<time>2024-05-11T14:56:20Z</time>
</trkpt>
<trkpt lat="49.66626735404134" lon="9.392248140648007">
<ele>259.2</ele>
<time>2024-05-11T14:56:21Z</time>
</trkpt>
<trkpt lat="49.66624447144568" lon="9.392245290800927">
<ele>259.4</ele>
<time>2024-05-11T14:56:22Z</time>
</trkpt>
<trkpt lat="49.66622158885002" lon="9.392234729602931">
<ele>259.6</ele>
<time>2024-05-11T14:56:23Z</time>
</trkpt>
<trkpt lat="49.666194850578904" lon="9.392218552529812">
<ele>259.799</ele>
<time>2024-05-11T14:56:24Z</time>
</trkpt>
<trkpt lat="49.66618345119059" lon="9.392210002988575">
<ele>260</ele>
<time>2024-05-11T14:56:25Z</time>
</trkpt>
<trkpt lat="49.66616056859493" lon="9.39220044761896">
<ele>260.4</ele>
<time>2024-05-11T14:56:26Z</time>
</trkpt>
<trkpt lat="49.6661414578557" lon="9.392191814258696">
<ele>260.799</ele>
<time>2024-05-11T14:56:27Z</time>
</trkpt>
<trkpt lat="49.666114803403616" lon="9.392174715176225">
<ele>261.2</ele>
<time>2024-05-11T14:56:28Z</time>
</trkpt>
<trkpt lat="49.666091836988926" lon="9.39216130413115">
<ele>261.799</ele>
<time>2024-05-11T14:56:29Z</time>
</trkpt>
<trkpt lat="49.66606895439327" lon="9.392153676599264">
<ele>262.2</ele>
<time>2024-05-11T14:56:30Z</time>
</trkpt>
<trkpt lat="49.66604607179761" lon="9.39214512705803">
<ele>262.6</ele>
<time>2024-05-11T14:56:31Z</time>
</trkpt>
<trkpt lat="49.66602318920195" lon="9.392134649679065">
<ele>262.8</ele>
<time>2024-05-11T14:56:32Z</time>
</trkpt>
<trkpt lat="49.66600030660629" lon="9.39212702214718">
<ele>263.2</ele>
<time>2024-05-11T14:56:33Z</time>
</trkpt>
<trkpt lat="49.66598127968609" lon="9.392114616930485">
<ele>263.6</ele>
<time>2024-05-11T14:56:34Z</time>
</trkpt>
<trkpt lat="49.665958397090435" lon="9.39210120588541">
<ele>264</ele>
<time>2024-05-11T14:56:35Z</time>
</trkpt>
<trkpt lat="49.66594314202666" lon="9.392089806497095">
<ele>264.4</ele>
<time>2024-05-11T14:56:36Z</time>
</trkpt>
<trkpt lat="49.66592788696289" lon="9.39208025112748">
<ele>264.8</ele>
<time>2024-05-11T14:56:37Z</time>
</trkpt>
<trkpt lat="49.66591254808009" lon="9.392071701586246">
<ele>265</ele>
<time>2024-05-11T14:56:38Z</time>
</trkpt>
<trkpt lat="49.6659049205482" lon="9.39206692390144">
<ele>265.2</ele>
<time>2024-05-11T14:56:39Z</time>
</trkpt>
<trkpt lat="49.66588203795254" lon="9.392054518684745">
<ele>265.4</ele>
<time>2024-05-11T14:56:40Z</time>
</trkpt>
<trkpt lat="49.66586678288877" lon="9.39204496331513">
<ele>265.6</ele>
<time>2024-05-11T14:56:41Z</time>
</trkpt>
<trkpt lat="49.66584775596857" lon="9.392038341611624">
<ele>265.8</ele>
<time>2024-05-11T14:56:42Z</time>
</trkpt>
<trkpt lat="49.66582487337291" lon="9.39202685840428">
<ele>266</ele>
<time>2024-05-11T14:56:43Z</time>
</trkpt>
<trkpt lat="49.66580576263368" lon="9.392018308863044">
<ele>266.2</ele>
<time>2024-05-11T14:56:44Z</time>
</trkpt>
<trkpt lat="49.66578673571348" lon="9.392009675502775">
<ele>266.4</ele>
<time>2024-05-11T14:56:45Z</time>
</trkpt>
<trkpt lat="49.66576762497425" lon="9.391995426267384">
<ele>266.4</ele>
<time>2024-05-11T14:56:46Z</time>
</trkpt>
<trkpt lat="49.665740886703134" lon="9.391978243365884">
<ele>266.8</ele>
<time>2024-05-11T14:56:47Z</time>
</trkpt>
<trkpt lat="49.66571037657559" lon="9.391962988302112">
<ele>267</ele>
<time>2024-05-11T14:56:48Z</time>
</trkpt>
<trkpt lat="49.66567609459162" lon="9.391948655247688">
<ele>267.2</ele>
<time>2024-05-11T14:56:49Z</time>
</trkpt>
<trkpt lat="49.66565321199596" lon="9.391940105706452">
<ele>267.4</ele>
<time>2024-05-11T14:56:50Z</time>
</trkpt>
<trkpt lat="49.6656303294003" lon="9.391933400183916">
<ele>267.4</ele>
<time>2024-05-11T14:56:51Z</time>
</trkpt>
<trkpt lat="49.66560744680464" lon="9.39192485064268">
<ele>267.6</ele>
<time>2024-05-11T14:56:52Z</time>
</trkpt>
<trkpt lat="49.66558833606541" lon="9.391911439597608">
<ele>267.8</ele>
<time>2024-05-11T14:56:53Z</time>
</trkpt>
<trkpt lat="49.66557308100164" lon="9.391902890056372">
<ele>268</ele>
<time>2024-05-11T14:56:54Z</time>
</trkpt>
<trkpt lat="49.66555019840598" lon="9.391895262524486">
<ele>268.2</ele>
<time>2024-05-11T14:56:55Z</time>
</trkpt>
<trkpt lat="49.66553108766675" lon="9.391882857307792">
<ele>268.6</ele>
<time>2024-05-11T14:56:56Z</time>
</trkpt>
<trkpt lat="49.66550820507109" lon="9.391869530081747">
<ele>268.8</ele>
<time>2024-05-11T14:56:57Z</time>
</trkpt>
<trkpt lat="49.66548532247543" lon="9.391853269189596">
<ele>269</ele>
<time>2024-05-11T14:56:58Z</time>
</trkpt>
<trkpt lat="49.665462439879775" lon="9.39184471964836">
<ele>269.2</ele>
<time>2024-05-11T14:56:59Z</time>
</trkpt>
<trkpt lat="49.665443412959576" lon="9.391833236441016">
<ele>269.6</ele>
<time>2024-05-11T14:57:00Z</time>
</trkpt>
<trkpt lat="49.665424302220345" lon="9.391823764890432">
<ele>269.8</ele>
<time>2024-05-11T14:57:01Z</time>
</trkpt>
<trkpt lat="49.665401419624686" lon="9.391811359673738">
<ele>270</ele>
<time>2024-05-11T14:57:02Z</time>
</trkpt>
<trkpt lat="49.665382308885455" lon="9.391803732141852">
<ele>270.2</ele>
<time>2024-05-11T14:57:03Z</time>
</trkpt>
<trkpt lat="49.665363281965256" lon="9.39178654924035">
<ele>270.2</ele>
<time>2024-05-11T14:57:04Z</time>
</trkpt>
<trkpt lat="49.66533654369414" lon="9.3917684443295">
<ele>270.6</ele>
<time>2024-05-11T14:57:05Z</time>
</trkpt>
<trkpt lat="49.66530988924205" lon="9.391751261428">
<ele>270.8</ele>
<time>2024-05-11T14:57:06Z</time>
</trkpt>
<trkpt lat="49.665283150970936" lon="9.391735000535846">
<ele>271.2</ele>
<time>2024-05-11T14:57:07Z</time>
</trkpt>
<trkpt lat="49.66525649651885" lon="9.391721673309805">
<ele>271.6</ele>
<time>2024-05-11T14:57:08Z</time>
</trkpt>
<trkpt lat="49.66522975824773" lon="9.3917044904083">
<ele>271.4</ele>
<time>2024-05-11T14:57:09Z</time>
</trkpt>
<trkpt lat="49.66519924812019" lon="9.391685463488102">
<ele>271</ele>
<time>2024-05-11T14:57:10Z</time>
</trkpt>
<trkpt lat="49.665164882317185" lon="9.39167020842433">
<ele>271</ele>
<time>2024-05-11T14:57:11Z</time>
</trkpt>
<trkpt lat="49.665130600333214" lon="9.391656797379255">
<ele>271.2</ele>
<time>2024-05-11T14:57:12Z</time>
</trkpt>
<trkpt lat="49.66510009020567" lon="9.391645397990942">
<ele>271.4</ele>
<time>2024-05-11T14:57:13Z</time>
</trkpt>
<trkpt lat="49.6650848351419" lon="9.391636848449709">
<ele>271.8</ele>
<time>2024-05-11T14:57:14Z</time>
</trkpt>
<trkpt lat="49.665065724402666" lon="9.391625365242362">
<ele>272.4</ele>
<time>2024-05-11T14:57:15Z</time>
</trkpt>
<trkpt lat="49.66505424119532" lon="9.391612960025668">
<ele>272.8</ele>
<time>2024-05-11T14:57:16Z</time>
</trkpt>
<trkpt lat="49.66503898613155" lon="9.391603404656053">
<ele>273.4</ele>
<time>2024-05-11T14:57:17Z</time>
</trkpt>
<trkpt lat="49.66501233167946" lon="9.391579600051044">
<ele>274</ele>
<time>2024-05-11T14:57:18Z</time>
</trkpt>
<trkpt lat="49.66499322094023" lon="9.391559567302464">
<ele>274.6</ele>
<time>2024-05-11T14:57:19Z</time>
</trkpt>
<trkpt lat="49.66497796587646" lon="9.391545234248042">
<ele>275</ele>
<time>2024-05-11T14:57:20Z</time>
</trkpt>
<trkpt lat="49.66495893895626" lon="9.391531907022">
<ele>275.6</ele>
<time>2024-05-11T14:57:21Z</time>
</trkpt>
<trkpt lat="49.66493982821703" lon="9.391518579795957">
<ele>276</ele>
<time>2024-05-11T14:57:22Z</time>
</trkpt>
<trkpt lat="49.66492842882872" lon="9.391506174579265">
<ele>276.4</ele>
<time>2024-05-11T14:57:23Z</time>
</trkpt>
<trkpt lat="49.664909318089485" lon="9.391496619209647">
<ele>277</ele>
<time>2024-05-11T14:57:24Z</time>
</trkpt>
<trkpt lat="49.66489406302571" lon="9.391483291983604">
<ele>277.2</ele>
<time>2024-05-11T14:57:25Z</time>
</trkpt>
<trkpt lat="49.66487880796194" lon="9.391474658623338">
<ele>277.8</ele>
<time>2024-05-11T14:57:26Z</time>
</trkpt>
<trkpt lat="49.664871180430055" lon="9.391473736613989">
<ele>278.2</ele>
<time>2024-05-11T14:57:27Z</time>
</trkpt>
<trkpt lat="49.66486355289817" lon="9.39146988093853">
<ele>278.6</ele>
<time>2024-05-11T14:57:28Z</time>
</trkpt>
<trkpt lat="49.66485592536628" lon="9.391463259235024">
<ele>278.8</ele>
<time>2024-05-11T14:57:29Z</time>
</trkpt>
<trkpt lat="49.6648482978344" lon="9.39145177602768">
<ele>279.2</ele>
<time>2024-05-11T14:57:30Z</time>
</trkpt>
<trkpt lat="49.664829187095165" lon="9.391436520963907">
<ele>279.4</ele>
<time>2024-05-11T14:57:31Z</time>
</trkpt>
<trkpt lat="49.664810160174966" lon="9.391418416053057">
<ele>279.6</ele>
<time>2024-05-11T14:57:32Z</time>
</trkpt>
<trkpt lat="49.664791049435735" lon="9.391409866511822">
<ele>279.8</ele>
<time>2024-05-11T14:57:33Z</time>
</trkpt>
<trkpt lat="49.66478342190385" lon="9.391401233151557">
<ele>280</ele>
<time>2024-05-11T14:57:34Z</time>
</trkpt>
<trkpt lat="49.66475676745176" lon="9.391387905925512">
<ele>280.4</ele>
<time>2024-05-11T14:57:35Z</time>
</trkpt>
<trkpt lat="49.664733884856105" lon="9.391378350555897">
<ele>280.8</ele>
<time>2024-05-11T14:57:36Z</time>
</trkpt>
<trkpt lat="49.66470329090953" lon="9.391366951167583">
<ele>281.2</ele>
<time>2024-05-11T14:57:37Z</time>
</trkpt>
<trkpt lat="49.66468803584576" lon="9.391356389969587">
<ele>281.6</ele>
<time>2024-05-11T14:57:38Z</time>
</trkpt>
<trkpt lat="49.6646651532501" lon="9.391340212896466">
<ele>282</ele>
<time>2024-05-11T14:57:39Z</time>
</trkpt>
<trkpt lat="49.66463849879801" lon="9.391324957832694">
<ele>282.4</ele>
<time>2024-05-11T14:57:40Z</time>
</trkpt>
<trkpt lat="49.66461938805878" lon="9.391309702768922">
<ele>282.8</ele>
<time>2024-05-11T14:57:41Z</time>
</trkpt>
<trkpt lat="49.66459650546312" lon="9.391300147399306">
<ele>283.2</ele>
<time>2024-05-11T14:57:42Z</time>
</trkpt>
<trkpt lat="49.664573622867465" lon="9.391289670020342">
<ele>283.4</ele>
<time>2024-05-11T14:57:43Z</time>
</trkpt>
<trkpt lat="49.66455836780369" lon="9.391284892335534">
<ele>283.8</ele>
<time>2024-05-11T14:57:44Z</time>
</trkpt>
<trkpt lat="49.664531629532576" lon="9.39127533696592">
<ele>284.2</ele>
<time>2024-05-11T14:57:45Z</time>
</trkpt>
<trkpt lat="49.664512602612376" lon="9.391268715262411">
<ele>284.6</ele>
<time>2024-05-11T14:57:46Z</time>
</trkpt>
<trkpt lat="49.66448972001672" lon="9.391260081902146">
<ele>285</ele>
<time>2024-05-11T14:57:47Z</time>
</trkpt>
<trkpt lat="49.6644629817456" lon="9.391241976991296">
<ele>285.4</ele>
<time>2024-05-11T14:57:48Z</time>
</trkpt>
<trkpt lat="49.664436327293515" lon="9.391224794089794">
<ele>285.8</ele>
<time>2024-05-11T14:57:49Z</time>
</trkpt>
<trkpt lat="49.6644095890224" lon="9.391208617016671">
<ele>286.2</ele>
<time>2024-05-11T14:57:50Z</time>
</trkpt>
<trkpt lat="49.66438670642674" lon="9.39119528979063">
<ele>286.4</ele>
<time>2024-05-11T14:57:51Z</time>
</trkpt>
<trkpt lat="49.66436759568751" lon="9.391181878745556">
<ele>286.6</ele>
<time>2024-05-11T14:57:52Z</time>
</trkpt>
<trkpt lat="49.66433708555997" lon="9.391171401366591">
<ele>286.8</ele>
<time>2024-05-11T14:57:53Z</time>
</trkpt>
<trkpt lat="49.664314202964306" lon="9.391166623681784">
<ele>287.2</ele>
<time>2024-05-11T14:57:54Z</time>
</trkpt>
<trkpt lat="49.66429517604411" lon="9.391160001978278">
<ele>287.4</ele>
<time>2024-05-11T14:57:55Z</time>
</trkpt>
<trkpt lat="49.66427229344845" lon="9.39115522429347">
<ele>287.8</ele>
<time>2024-05-11T14:57:56Z</time>
</trkpt>
<trkpt lat="49.66425703838467" lon="9.391148518770931">
<ele>288.2</ele>
<time>2024-05-11T14:57:57Z</time>
</trkpt>
<trkpt lat="49.664241783320904" lon="9.391139969229698">
<ele>288.6</ele>
<time>2024-05-11T14:57:58Z</time>
</trkpt>
<trkpt lat="49.664218900725245" lon="9.391131335869431">
<ele>288.8</ele>
<time>2024-05-11T14:57:59Z</time>
</trkpt>
<trkpt lat="49.664199789986014" lon="9.391126558184624">
<ele>289.2</ele>
<time>2024-05-11T14:58:00Z</time>
</trkpt>
<trkpt lat="49.6641730517149" lon="9.391118008643389">
<ele>289.6</ele>
<time>2024-05-11T14:58:01Z</time>
</trkpt>
<trkpt lat="49.66415016911924" lon="9.391108453273771">
<ele>289.8</ele>
<time>2024-05-11T14:58:02Z</time>
</trkpt>
<trkpt lat="49.66412728652358" lon="9.391097975894809">
<ele>290.2</ele>
<time>2024-05-11T14:58:03Z</time>
</trkpt>
<trkpt lat="49.66410825960338" lon="9.391084648668766">
<ele>290.8</ele>
<time>2024-05-11T14:58:04Z</time>
</trkpt>
<trkpt lat="49.664081521332264" lon="9.391071237623692">
<ele>291.2</ele>
<time>2024-05-11T14:58:05Z</time>
</trkpt>
<trkpt lat="49.664058638736606" lon="9.391061766073108">
<ele>291.8</ele>
<time>2024-05-11T14:58:06Z</time>
</trkpt>
<trkpt lat="49.66404338367283" lon="9.391051288694143">
<ele>292.4</ele>
<time>2024-05-11T14:58:07Z</time>
</trkpt>
<trkpt lat="49.6640242729336" lon="9.391044583171606">
<ele>292.6</ele>
<time>2024-05-11T14:58:08Z</time>
</trkpt>
<trkpt lat="49.66400901786983" lon="9.391041733324528">
<ele>292.8</ele>
<time>2024-05-11T14:58:09Z</time>
</trkpt>
<trkpt lat="49.66399376280606" lon="9.391037877649069">
<ele>293</ele>
<time>2024-05-11T14:58:10Z</time>
</trkpt>
<trkpt lat="49.66396710835397" lon="9.391043661162255">
<ele>293.4</ele>
<time>2024-05-11T14:58:11Z</time>
</trkpt>
<trkpt lat="49.663944225758314" lon="9.391037877649069">
<ele>293.4</ele>
<time>2024-05-11T14:58:12Z</time>
</trkpt>
<trkpt lat="49.6639174874872" lon="9.39103502780199">
<ele>293.8</ele>
<time>2024-05-11T14:58:13Z</time>
</trkpt>
<trkpt lat="49.66389083303511" lon="9.39103502780199">
<ele>294</ele>
<time>2024-05-11T14:58:14Z</time>
</trkpt>
<trkpt lat="49.663864094763994" lon="9.391031255945563">
<ele>294.4</ele>
<time>2024-05-11T14:58:15Z</time>
</trkpt>
<trkpt lat="49.663841212168336" lon="9.39103309996426">
<ele>294.6</ele>
<time>2024-05-11T14:58:16Z</time>
</trkpt>
<trkpt lat="49.66381447389722" lon="9.39103309996426">
<ele>294.8</ele>
<time>2024-05-11T14:58:17Z</time>
</trkpt>
<trkpt lat="49.66379159130156" lon="9.39103309996426">
<ele>294.8</ele>
<time>2024-05-11T14:58:18Z</time>
</trkpt>
<trkpt lat="49.6637687087059" lon="9.39103309996426">
<ele>295</ele>
<time>2024-05-11T14:58:19Z</time>
</trkpt>
<trkpt lat="49.6637496817857" lon="9.391030250117185">
<ele>295.4</ele>
<time>2024-05-11T14:58:20Z</time>
</trkpt>
<trkpt lat="49.66372679919005" lon="9.391021700575948">
<ele>296</ele>
<time>2024-05-11T14:58:21Z</time>
</trkpt>
<trkpt lat="49.66370006091893" lon="9.391010217368605">
<ele>296.4</ele>
<time>2024-05-11T14:58:22Z</time>
</trkpt>
<trkpt lat="49.663680950179696" lon="9.391003595665095">
<ele>296.6</ele>
<time>2024-05-11T14:58:23Z</time>
</trkpt>
<trkpt lat="49.66365806758404" lon="9.390997812151909">
<ele>296.8</ele>
<time>2024-05-11T14:58:24Z</time>
</trkpt>
<trkpt lat="49.66363518498838" lon="9.390991190448403">
<ele>296.8</ele>
<time>2024-05-11T14:58:25Z</time>
</trkpt>
<trkpt lat="49.663608530536294" lon="9.390985406935217">
<ele>297.2</ele>
<time>2024-05-11T14:58:26Z</time>
</trkpt>
<trkpt lat="49.66358564794064" lon="9.390983562916515">
<ele>297.4</ele>
<time>2024-05-11T14:58:27Z</time>
</trkpt>
<trkpt lat="49.663566537201405" lon="9.390983562916515">
<ele>297.8</ele>
<time>2024-05-11T14:58:28Z</time>
</trkpt>
<trkpt lat="49.663543654605746" lon="9.390983562916515">
<ele>298</ele>
<time>2024-05-11T14:58:29Z</time>
</trkpt>
<trkpt lat="49.66352077201009" lon="9.390981635078788">
<ele>298.2</ele>
<time>2024-05-11T14:58:30Z</time>
</trkpt>
<trkpt lat="49.66350166127086" lon="9.390977779403327">
<ele>298.6</ele>
<time>2024-05-11T14:58:31Z</time>
</trkpt>
<trkpt lat="49.66347500681877" lon="9.390973085537553">
<ele>298.8</ele>
<time>2024-05-11T14:58:32Z</time>
</trkpt>
<trkpt lat="49.66345589607954" lon="9.390973085537553">
<ele>299</ele>
<time>2024-05-11T14:58:33Z</time>
</trkpt>
<trkpt lat="49.66343686915934" lon="9.390966380015016">
<ele>299</ele>
<time>2024-05-11T14:58:34Z</time>
</trkpt>
<trkpt lat="49.66341398656368" lon="9.39095875248313">
<ele>299.2</ele>
<time>2024-05-11T14:58:35Z</time>
</trkpt>
<trkpt lat="49.66339487582445" lon="9.390950202941896">
<ele>299.4</ele>
<time>2024-05-11T14:58:36Z</time>
</trkpt>
<trkpt lat="49.663368221372366" lon="9.390943497419356">
<ele>299.6</ele>
<time>2024-05-11T14:58:37Z</time>
</trkpt>
<trkpt lat="49.663352966308594" lon="9.390933020040393">
<ele>299.8</ele>
<time>2024-05-11T14:58:38Z</time>
</trkpt>
<trkpt lat="49.66333385556936" lon="9.390930170193316">
<ele>300</ele>
<time>2024-05-11T14:58:39Z</time>
</trkpt>
<trkpt lat="49.66331474483013" lon="9.390928242355583">
<ele>300</ele>
<time>2024-05-11T14:58:40Z</time>
</trkpt>
<trkpt lat="49.66329948976636" lon="9.390926314517856">
<ele>300.2</ele>
<time>2024-05-11T14:58:41Z</time>
</trkpt>
<trkpt lat="49.66328046284616" lon="9.390925392508509">
<ele>300.4</ele>
<time>2024-05-11T14:58:42Z</time>
</trkpt>
<trkpt lat="49.66326135210693" lon="9.390919608995318">
<ele>300.8</ele>
<time>2024-05-11T14:58:43Z</time>
</trkpt>
<trkpt lat="49.66323846951127" lon="9.390911981463432">
<ele>301.2</ele>
<time>2024-05-11T14:58:44Z</time>
</trkpt>
<trkpt lat="49.66321944259107" lon="9.390903431922196">
<ele>301.6</ele>
<time>2024-05-11T14:58:45Z</time>
</trkpt>
<trkpt lat="49.66319655999541" lon="9.390892954543231">
<ele>302.2</ele>
<time>2024-05-11T14:58:46Z</time>
</trkpt>
<trkpt lat="49.66317359358072" lon="9.390883399173616">
<ele>302.8</ele>
<time>2024-05-11T14:58:47Z</time>
</trkpt>
<trkpt lat="49.663150710985065" lon="9.39087962731719">
<ele>303.2</ele>
<time>2024-05-11T14:58:48Z</time>
</trkpt>
<trkpt lat="49.663131684064865" lon="9.39087862148881">
<ele>303.8</ele>
<time>2024-05-11T14:58:49Z</time>
</trkpt>
<trkpt lat="49.663112573325634" lon="9.390874849632382">
<ele>304</ele>
<time>2024-05-11T14:58:50Z</time>
</trkpt>
<trkpt lat="49.66308206319809" lon="9.390874849632382">
<ele>304.4</ele>
<time>2024-05-11T14:58:51Z</time>
</trkpt>
<trkpt lat="49.66305918060243" lon="9.390872921794651">
<ele>304.8</ele>
<time>2024-05-11T14:58:52Z</time>
</trkpt>
<trkpt lat="49.663032526150346" lon="9.390870071947576">
<ele>305.2</ele>
<time>2024-05-11T14:58:53Z</time>
</trkpt>
<trkpt lat="49.663013415411115" lon="9.390863366425036">
<ele>305.6</ele>
<time>2024-05-11T14:58:54Z</time>
</trkpt>
<trkpt lat="49.66298667714" lon="9.390854816883802">
<ele>306.2</ele>
<time>2024-05-11T14:58:55Z</time>
</trkpt>
<trkpt lat="49.6629676502198" lon="9.390851967036724">
<ele>306.8</ele>
<time>2024-05-11T14:58:56Z</time>
</trkpt>
<trkpt lat="49.66296002268791" lon="9.390851967036724">
<ele>307.2</ele>
<time>2024-05-11T14:58:57Z</time>
</trkpt>
<trkpt lat="49.66294853948057" lon="9.390852889046071">
<ele>307.4</ele>
<time>2024-05-11T14:58:58Z</time>
</trkpt>
<trkpt lat="49.66292951256037" lon="9.390850039198996">
<ele>307.6</ele>
<time>2024-05-11T14:58:59Z</time>
</trkpt>
<trkpt lat="49.66290662996471" lon="9.390848111361263">
<ele>307.8</ele>
<time>2024-05-11T14:59:00Z</time>
</trkpt>
<trkpt lat="49.66288751922548" lon="9.390843333676456">
<ele>307.8</ele>
<time>2024-05-11T14:59:01Z</time>
</trkpt>
<trkpt lat="49.66286849230528" lon="9.39083956182003">
<ele>308</ele>
<time>2024-05-11T14:59:02Z</time>
</trkpt>
<trkpt lat="49.66284938156605" lon="9.390836711972952">
<ele>308.2</ele>
<time>2024-05-11T14:59:03Z</time>
</trkpt>
<trkpt lat="49.66282264329493" lon="9.390831934288144">
<ele>308.6</ele>
<time>2024-05-11T14:59:04Z</time>
</trkpt>
<trkpt lat="49.66279976069927" lon="9.390825228765609">
<ele>308.8</ele>
<time>2024-05-11T14:59:05Z</time>
</trkpt>
<trkpt lat="49.662776878103614" lon="9.390823300927876">
<ele>309.2</ele>
<time>2024-05-11T14:59:06Z</time>
</trkpt>
<trkpt lat="49.66275022365153" lon="9.390825228765609">
<ele>309.6</ele>
<time>2024-05-11T14:59:07Z</time>
</trkpt>
<trkpt lat="49.662715857848525" lon="9.39082145690918">
<ele>310</ele>
<time>2024-05-11T14:59:08Z</time>
</trkpt>
<trkpt lat="49.66268534772098" lon="9.390823300927876">
<ele>310.4</ele>
<time>2024-05-11T14:59:09Z</time>
</trkpt>
<trkpt lat="49.66265483759344" lon="9.390826150774956">
<ele>310.8</ele>
<time>2024-05-11T14:59:10Z</time>
</trkpt>
<trkpt lat="49.66262809932232" lon="9.390826150774956">
<ele>311.2</ele>
<time>2024-05-11T14:59:11Z</time>
</trkpt>
<trkpt lat="49.66260144487023" lon="9.390825228765609">
<ele>311.6</ele>
<time>2024-05-11T14:59:12Z</time>
</trkpt>
<trkpt lat="49.662578562274575" lon="9.390830006450416">
<ele>312</ele>
<time>2024-05-11T14:59:13Z</time>
</trkpt>
<trkpt lat="49.662559451535344" lon="9.390834784135222">
<ele>312.4</ele>
<time>2024-05-11T14:59:14Z</time>
</trkpt>
<trkpt lat="49.662536568939686" lon="9.390836711972952">
<ele>312.6</ele>
<time>2024-05-11T14:59:15Z</time>
</trkpt>
<trkpt lat="49.66251368634403" lon="9.39083956182003">
<ele>312.8</ele>
<time>2024-05-11T14:59:16Z</time>
</trkpt>
<trkpt lat="49.66249465942383" lon="9.39083855599165">
<ele>313</ele>
<time>2024-05-11T14:59:17Z</time>
</trkpt>
<trkpt lat="49.6624755486846" lon="9.390841405838728">
<ele>313.2</ele>
<time>2024-05-11T14:59:18Z</time>
</trkpt>
<trkpt lat="49.662460293620825" lon="9.390850039198996">
<ele>313.6</ele>
<time>2024-05-11T14:59:19Z</time>
</trkpt>
<trkpt lat="49.66243741102517" lon="9.390848111361263">
<ele>313.8</ele>
<time>2024-05-11T14:59:20Z</time>
</trkpt>
<trkpt lat="49.662418300285935" lon="9.390845261514189">
<ele>314.2</ele>
<time>2024-05-11T14:59:21Z</time>
</trkpt>
<trkpt lat="49.66239541769028" lon="9.390845261514189">
<ele>314.4</ele>
<time>2024-05-11T14:59:22Z</time>
</trkpt>
<trkpt lat="49.66237253509462" lon="9.390846183523536">
<ele>314.6</ele>
<time>2024-05-11T14:59:23Z</time>
</trkpt>
<trkpt lat="49.66235350817442" lon="9.390850039198996">
<ele>314.6</ele>
<time>2024-05-11T14:59:24Z</time>
</trkpt>
<trkpt lat="49.6623267699033" lon="9.3908566609025">
<ele>314.8</ele>
<time>2024-05-11T14:59:25Z</time>
</trkpt>
<trkpt lat="49.66230388730765" lon="9.390863366425036">
<ele>315</ele>
<time>2024-05-11T14:59:26Z</time>
</trkpt>
<trkpt lat="49.66228477656841" lon="9.390870071947576">
<ele>315.4</ele>
<time>2024-05-11T14:59:27Z</time>
</trkpt>
<trkpt lat="49.66225812211633" lon="9.390872921794651">
<ele>315.6</ele>
<time>2024-05-11T14:59:28Z</time>
</trkpt>
<trkpt lat="49.66223523952067" lon="9.39087962731719">
<ele>315.8</ele>
<time>2024-05-11T14:59:29Z</time>
</trkpt>
<trkpt lat="49.66221612878144" lon="9.390885327011349">
<ele>316</ele>
<time>2024-05-11T14:59:30Z</time>
</trkpt>
<trkpt lat="49.66219324618578" lon="9.390886249020696">
<ele>316.2</ele>
<time>2024-05-11T14:59:31Z</time>
</trkpt>
<trkpt lat="49.66217421926558" lon="9.390888176858423">
<ele>316.4</ele>
<time>2024-05-11T14:59:32Z</time>
</trkpt>
<trkpt lat="49.66215510852635" lon="9.390891948714852">
<ele>316.6</ele>
<time>2024-05-11T14:59:33Z</time>
</trkpt>
<trkpt lat="49.66213222593069" lon="9.39089865423739">
<ele>316.8</ele>
<time>2024-05-11T14:59:34Z</time>
</trkpt>
<trkpt lat="49.66211311519146" lon="9.390905359759929">
<ele>317</ele>
<time>2024-05-11T14:59:35Z</time>
</trkpt>
<trkpt lat="49.6620902325958" lon="9.390910137444736">
<ele>317.4</ele>
<time>2024-05-11T14:59:36Z</time>
</trkpt>
<trkpt lat="49.66207497753203" lon="9.39091675914824">
<ele>317.6</ele>
<time>2024-05-11T14:59:37Z</time>
</trkpt>
<trkpt lat="49.66205595061183" lon="9.390923464670776">
<ele>317.8</ele>
<time>2024-05-11T14:59:38Z</time>
</trkpt>
<trkpt lat="49.66203306801617" lon="9.390926314517856">
<ele>318.2</ele>
<time>2024-05-11T14:59:39Z</time>
</trkpt>
<trkpt lat="49.66201018542051" lon="9.390932014212012">
<ele>318.4</ele>
<time>2024-05-11T14:59:40Z</time>
</trkpt>
<trkpt lat="49.66199493035674" lon="9.39093486405909">
<ele>318.6</ele>
<time>2024-05-11T14:59:41Z</time>
</trkpt>
<trkpt lat="49.66197967529297" lon="9.39093871973455">
<ele>318.8</ele>
<time>2024-05-11T14:59:42Z</time>
</trkpt>
<trkpt lat="49.66195670887828" lon="9.390943497419356">
<ele>319.2</ele>
<time>2024-05-11T14:59:43Z</time>
</trkpt>
<trkpt lat="49.661926198750734" lon="9.390952046960592">
<ele>319</ele>
<time>2024-05-11T14:59:44Z</time>
</trkpt>
<trkpt lat="49.66189568862319" lon="9.3909568246454">
<ele>319</ele>
<time>2024-05-11T14:59:45Z</time>
</trkpt>
<trkpt lat="49.66187666170299" lon="9.390963530167936">
<ele>319</ele>
<time>2024-05-11T14:59:46Z</time>
</trkpt>
<trkpt lat="49.66185755096376" lon="9.390968307852743">
<ele>319.2</ele>
<time>2024-05-11T14:59:47Z</time>
</trkpt>
<trkpt lat="49.661830896511674" lon="9.390973085537553">
<ele>319.4</ele>
<time>2024-05-11T14:59:48Z</time>
</trkpt>
<trkpt lat="49.66181178577244" lon="9.390977779403327">
<ele>319.6</ele>
<time>2024-05-11T14:59:49Z</time>
</trkpt>
<trkpt lat="49.661785047501326" lon="9.390988340601323">
<ele>319.8</ele>
<time>2024-05-11T14:59:50Z</time>
</trkpt>
<trkpt lat="49.661766020581126" lon="9.391001667827368">
<ele>320.2</ele>
<time>2024-05-11T14:59:51Z</time>
</trkpt>
<trkpt lat="49.66174313798547" lon="9.391019772738218">
<ele>320.6</ele>
<time>2024-05-11T14:59:52Z</time>
</trkpt>
<trkpt lat="49.66172025538981" lon="9.39103695563972">
<ele>321</ele>
<time>2024-05-11T14:59:53Z</time>
</trkpt>
<trkpt lat="49.66170114465058" lon="9.391048355028031">
<ele>321.4</ele>
<time>2024-05-11T14:59:54Z</time>
</trkpt>
<trkpt lat="49.66167449019849" lon="9.391057910397649">
<ele>322</ele>
<time>2024-05-11T14:59:55Z</time>
</trkpt>
<trkpt lat="49.661651607602835" lon="9.391068387776611">
<ele>322.4</ele>
<time>2024-05-11T14:59:56Z</time>
</trkpt>
<trkpt lat="49.66163635253906" lon="9.391081798821688">
<ele>322.8</ele>
<time>2024-05-11T14:59:57Z</time>
</trkpt>
<trkpt lat="49.66161338612437" lon="9.39109319821">
<ele>323</ele>
<time>2024-05-11T14:59:58Z</time>
</trkpt>
<trkpt lat="49.66158673167229" lon="9.391108453273771">
<ele>323.4</ele>
<time>2024-05-11T14:59:59Z</time>
</trkpt>
<trkpt lat="49.66156384907663" lon="9.391121864318848">
<ele>323.8</ele>
<time>2024-05-11T15:00:00Z</time>
</trkpt>
<trkpt lat="49.6615447383374" lon="9.391131335869431">
<ele>324</ele>
<time>2024-05-11T15:00:01Z</time>
</trkpt>
<trkpt lat="49.661529483273625" lon="9.391141813248396">
<ele>324.4</ele>
<time>2024-05-11T15:00:02Z</time>
</trkpt>
<trkpt lat="49.661510456353426" lon="9.391151368618011">
<ele>324.8</ele>
<time>2024-05-11T15:00:03Z</time>
</trkpt>
<trkpt lat="49.661491345614195" lon="9.391160001978278">
<ele>325.2</ele>
<time>2024-05-11T15:00:04Z</time>
</trkpt>
<trkpt lat="49.661472318693995" lon="9.391168551519511">
<ele>325.4</ele>
<time>2024-05-11T15:00:05Z</time>
</trkpt>
<trkpt lat="49.66144558042288" lon="9.39117332920432">
<ele>325.6</ele>
<time>2024-05-11T15:00:06Z</time>
</trkpt>
<trkpt lat="49.66142269782722" lon="9.391178106889129">
<ele>325.6</ele>
<time>2024-05-11T15:00:07Z</time>
</trkpt>
<trkpt lat="49.66139981523156" lon="9.391184728592634">
<ele>325.8</ele>
<time>2024-05-11T15:00:08Z</time>
</trkpt>
<trkpt lat="49.661373076960444" lon="9.391191434115171">
<ele>326.2</ele>
<time>2024-05-11T15:00:09Z</time>
</trkpt>
<trkpt lat="49.661354050040245" lon="9.391201911494136">
<ele>326.2</ele>
<time>2024-05-11T15:00:10Z</time>
</trkpt>
<trkpt lat="49.66133116744459" lon="9.391211466863751">
<ele>326.4</ele>
<time>2024-05-11T15:00:11Z</time>
</trkpt>
<trkpt lat="49.66130828484893" lon="9.391224794089794">
<ele>326.8</ele>
<time>2024-05-11T15:00:12Z</time>
</trkpt>
<trkpt lat="49.66129302978515" lon="9.39123527146876">
<ele>327.2</ele>
<time>2024-05-11T15:00:13Z</time>
</trkpt>
<trkpt lat="49.66127769090235" lon="9.391242899000645">
<ele>327.4</ele>
<time>2024-05-11T15:00:14Z</time>
</trkpt>
<trkpt lat="49.66125866398215" lon="9.391264859586954">
<ele>327.8</ele>
<time>2024-05-11T15:00:15Z</time>
</trkpt>
<trkpt lat="49.661235781386495" lon="9.391282964497805">
<ele>328</ele>
<time>2024-05-11T15:00:16Z</time>
</trkpt>
<trkpt lat="49.66120904311538" lon="9.391298219561577">
<ele>328.4</ele>
<time>2024-05-11T15:00:17Z</time>
</trkpt>
<trkpt lat="49.66118616051972" lon="9.391309702768922">
<ele>329</ele>
<time>2024-05-11T15:00:18Z</time>
</trkpt>
<trkpt lat="49.66116327792406" lon="9.391320180147886">
<ele>329.4</ele>
<time>2024-05-11T15:00:19Z</time>
</trkpt>
<trkpt lat="49.66114802286029" lon="9.39133451320231">
<ele>329.8</ele>
<time>2024-05-11T15:00:20Z</time>
</trkpt>
<trkpt lat="49.6611213684082" lon="9.391346918419003">
<ele>330.2</ele>
<time>2024-05-11T15:00:21Z</time>
</trkpt>
<trkpt lat="49.66109840199351" lon="9.39135454595089">
<ele>330.6</ele>
<time>2024-05-11T15:00:22Z</time>
</trkpt>
<trkpt lat="49.661075519397855" lon="9.391363095492125">
<ele>331</ele>
<time>2024-05-11T15:00:23Z</time>
</trkpt>
<trkpt lat="49.6610526368022" lon="9.39137457869947">
<ele>331.2</ele>
<time>2024-05-11T15:00:24Z</time>
</trkpt>
<trkpt lat="49.66102975420654" lon="9.391387905925512">
<ele>331.6</ele>
<time>2024-05-11T15:00:25Z</time>
</trkpt>
<trkpt lat="49.661014499142766" lon="9.391396455466747">
<ele>331.8</ele>
<time>2024-05-11T15:00:26Z</time>
</trkpt>
<trkpt lat="49.66099161654711" lon="9.391403160989285">
<ele>332</ele>
<time>2024-05-11T15:00:27Z</time>
</trkpt>
<trkpt lat="49.66096873395145" lon="9.391407938674092">
<ele>332.2</ele>
<time>2024-05-11T15:00:28Z</time>
</trkpt>
<trkpt lat="49.66095347888768" lon="9.391418416053057">
<ele>332.4</ele>
<time>2024-05-11T15:00:29Z</time>
</trkpt>
<trkpt lat="49.66093059629202" lon="9.391425121575594">
<ele>332.8</ele>
<time>2024-05-11T15:00:30Z</time>
</trkpt>
<trkpt lat="49.66091148555279" lon="9.391429899260402">
<ele>333</ele>
<time>2024-05-11T15:00:31Z</time>
</trkpt>
<trkpt lat="49.66088860295713" lon="9.391438448801637">
<ele>333.2</ele>
<time>2024-05-11T15:00:32Z</time>
</trkpt>
<trkpt lat="49.66086957603693" lon="9.391446998342872">
<ele>333.2</ele>
<time>2024-05-11T15:00:33Z</time>
</trkpt>
<trkpt lat="49.6608504652977" lon="9.391456553712487">
<ele>333.6</ele>
<time>2024-05-11T15:00:34Z</time>
</trkpt>
<trkpt lat="49.66082381084561" lon="9.391467031091452">
<ele>333.8</ele>
<time>2024-05-11T15:00:35Z</time>
</trkpt>
<trkpt lat="49.66080470010638" lon="9.391481364145877">
<ele>334</ele>
<time>2024-05-11T15:00:36Z</time>
</trkpt>
<trkpt lat="49.66078181751072" lon="9.391488069668412">
<ele>334.2</ele>
<time>2024-05-11T15:00:37Z</time>
</trkpt>
<trkpt lat="49.66076656244695" lon="9.391496619209647">
<ele>334.6</ele>
<time>2024-05-11T15:00:38Z</time>
</trkpt>
<trkpt lat="49.660743679851294" lon="9.391506174579265">
<ele>334.8</ele>
<time>2024-05-11T15:00:39Z</time>
</trkpt>
<trkpt lat="49.660720797255635" lon="9.391514724120498">
<ele>335.2</ele>
<time>2024-05-11T15:00:40Z</time>
</trkpt>
<trkpt lat="49.66069791465998" lon="9.391521429643037">
<ele>335.6</ele>
<time>2024-05-11T15:00:41Z</time>
</trkpt>
<trkpt lat="49.66067503206432" lon="9.391523357480764">
<ele>336.2</ele>
<time>2024-05-11T15:00:42Z</time>
</trkpt>
<trkpt lat="49.6606482937932" lon="9.391521429643037">
<ele>336.6</ele>
<time>2024-05-11T15:00:43Z</time>
</trkpt>
<trkpt lat="49.660629266873" lon="9.391526207327844">
<ele>337</ele>
<time>2024-05-11T15:00:44Z</time>
</trkpt>
<trkpt lat="49.66061401180923" lon="9.391538612544537">
<ele>337.4</ele>
<time>2024-05-11T15:00:45Z</time>
</trkpt>
<trkpt lat="49.660602528601885" lon="9.391546240076424">
<ele>337.6</ele>
<time>2024-05-11T15:00:46Z</time>
</trkpt>
<trkpt lat="49.660583417862654" lon="9.391552861779928">
<ele>337.8</ele>
<time>2024-05-11T15:00:47Z</time>
</trkpt>
<trkpt lat="49.660564390942454" lon="9.391565266996622">
<ele>338</ele>
<time>2024-05-11T15:00:48Z</time>
</trkpt>
<trkpt lat="49.66054528020322" lon="9.391572894528508">
<ele>338.4</ele>
<time>2024-05-11T15:00:49Z</time>
</trkpt>
<trkpt lat="49.660526253283024" lon="9.391585299745202">
<ele>338.4</ele>
<time>2024-05-11T15:00:50Z</time>
</trkpt>
<trkpt lat="49.660503370687366" lon="9.391594855114818">
<ele>338.6</ele>
<time>2024-05-11T15:00:51Z</time>
</trkpt>
<trkpt lat="49.66048048809171" lon="9.391603404656053">
<ele>338.6</ele>
<time>2024-05-11T15:00:52Z</time>
</trkpt>
<trkpt lat="49.66046137735248" lon="9.391612960025668">
<ele>338.8</ele>
<time>2024-05-11T15:00:53Z</time>
</trkpt>
<trkpt lat="49.66043849475682" lon="9.391623437404633">
<ele>339</ele>
<time>2024-05-11T15:00:54Z</time>
</trkpt>
<trkpt lat="49.66041938401759" lon="9.391632992774248">
<ele>339.2</ele>
<time>2024-05-11T15:00:55Z</time>
</trkpt>
<trkpt lat="49.66039650142193" lon="9.391639698296784">
<ele>339.4</ele>
<time>2024-05-11T15:00:56Z</time>
</trkpt>
<trkpt lat="49.66037361882627" lon="9.391643470153213">
<ele>339.6</ele>
<time>2024-05-11T15:00:57Z</time>
</trkpt>
<trkpt lat="49.66035459190607" lon="9.39164824783802">
<ele>339.8</ele>
<time>2024-05-11T15:00:58Z</time>
</trkpt>
<trkpt lat="49.66033170931041" lon="9.39165210351348">
<ele>340.2</ele>
<time>2024-05-11T15:00:59Z</time>
</trkpt>
<trkpt lat="49.660308826714754" lon="9.391656797379255">
<ele>340.4</ele>
<time>2024-05-11T15:01:00Z</time>
</trkpt>
<trkpt lat="49.66029357165098" lon="9.391663502901793">
<ele>340.8</ele>
<time>2024-05-11T15:01:01Z</time>
</trkpt>
<trkpt lat="49.66027068905533" lon="9.39167020842433">
<ele>341</ele>
<time>2024-05-11T15:01:02Z</time>
</trkpt>
<trkpt lat="49.66025157831609" lon="9.391674986109138">
<ele>341.2</ele>
<time>2024-05-11T15:01:03Z</time>
</trkpt>
<trkpt lat="49.66023632325232" lon="9.391676830127835">
<ele>341.4</ele>
<time>2024-05-11T15:01:04Z</time>
</trkpt>
<trkpt lat="49.660228695720434" lon="9.391676830127835">
<ele>341.4</ele>
<time>2024-05-11T15:01:05Z</time>
</trkpt>
<trkpt lat="49.660224840044975" lon="9.391674986109138">
<ele>341.6</ele>
<time>2024-05-11T15:01:06Z</time>
</trkpt>
<trkpt lat="49.660228695720434" lon="9.391673058271408">
<ele>341.6</ele>
<time>2024-05-11T15:01:07Z</time>
</trkpt>
<trkpt lat="49.660224840044975" lon="9.391672052443027">
<ele>341.8</ele>
<time>2024-05-11T15:01:08Z</time>
</trkpt>
<trkpt lat="49.660224840044975" lon="9.39167020842433">
<ele>342</ele>
<time>2024-05-11T15:01:09Z</time>
</trkpt>
<trkpt lat="49.660228695720434" lon="9.39167020842433">
<ele>342</ele>
<time>2024-05-11T15:01:10Z</time>
</trkpt>
<trkpt lat="49.660228695720434" lon="9.391673058271408">
<ele>342</ele>
<time>2024-05-11T15:01:11Z</time>
</trkpt>
<trkpt lat="49.660228695720434" lon="9.391672052443027">
<ele>342</ele>
<time>2024-05-11T15:01:14Z</time>
</trkpt>
<trkpt lat="49.660228695720434" lon="9.391673058271408">
<ele>342.2</ele>
<time>2024-05-11T15:01:20Z</time>
</trkpt>
<trkpt lat="49.66023246757686" lon="9.391673058271408">
<ele>342.2</ele>
<time>2024-05-11T15:01:21Z</time>
</trkpt>
<trkpt lat="49.66023246757686" lon="9.391674986109138">
<ele>342.4</ele>
<time>2024-05-11T15:01:24Z</time>
</trkpt>
<trkpt lat="49.66023246757686" lon="9.391676830127835">
<ele>342.4</ele>
<time>2024-05-11T15:01:35Z</time>
</trkpt>
<trkpt lat="49.660228695720434" lon="9.391677835956216">
<ele>342.4</ele>
<time>2024-05-11T15:01:37Z</time>
</trkpt>
<trkpt lat="49.660228695720434" lon="9.391679763793944">
<ele>342.4</ele>
<time>2024-05-11T15:01:39Z</time>
</trkpt>
<trkpt lat="49.660228695720434" lon="9.391681607812645">
<ele>342.4</ele>
<time>2024-05-11T15:01:40Z</time>
</trkpt>
<trkpt lat="49.660228695720434" lon="9.391685463488102">
<ele>342.4</ele>
<time>2024-05-11T15:01:42Z</time>
</trkpt>
<trkpt lat="49.660228695720434" lon="9.39168638549745">
<ele>342.4</ele>
<time>2024-05-11T15:01:44Z</time>
</trkpt>
<trkpt lat="49.660228695720434" lon="9.39168831333518">
<ele>342.4</ele>
<time>2024-05-11T15:01:45Z</time>
</trkpt>
<trkpt lat="49.660228695720434" lon="9.39169024117291">
<ele>342.6</ele>
<time>2024-05-11T15:01:48Z</time>
</trkpt>
<trkpt lat="49.660228695720434" lon="9.39169116318226">
<ele>342.6</ele>
<time>2024-05-11T15:01:51Z</time>
</trkpt>
<trkpt lat="49.660228695720434" lon="9.391693091019988">
<ele>342.6</ele>
<time>2024-05-11T15:01:55Z</time>
</trkpt>
<trkpt lat="49.660228695720434" lon="9.391695018857718">
<ele>342.6</ele>
<time>2024-05-11T15:01:58Z</time>
</trkpt>
<trkpt lat="49.66023246757686" lon="9.391695018857718">
<ele>342.6</ele>
<time>2024-05-11T15:01:59Z</time>
</trkpt>
<trkpt lat="49.66023246757686" lon="9.391696862876415">
<ele>342.6</ele>
<time>2024-05-11T15:02:00Z</time>
</trkpt>
<trkpt lat="49.66023246757686" lon="9.391697868704796">
<ele>342.6</ele>
<time>2024-05-11T15:02:02Z</time>
</trkpt>
<trkpt lat="49.66023246757686" lon="9.391699712723494">
<ele>342.6</ele>
<time>2024-05-11T15:02:05Z</time>
</trkpt>
<trkpt lat="49.66023246757686" lon="9.391701640561225">
<ele>342.6</ele>
<time>2024-05-11T15:02:08Z</time>
</trkpt>
<trkpt lat="49.66023632325232" lon="9.391701640561225">
<ele>342.4</ele>
<time>2024-05-11T15:02:10Z</time>
</trkpt>
<trkpt lat="49.66023632325232" lon="9.391703568398952">
<ele>342.4</ele>
<time>2024-05-11T15:02:18Z</time>
</trkpt>
<trkpt lat="49.66023632325232" lon="9.3917044904083">
<ele>342.4</ele>
<time>2024-05-11T15:02:22Z</time>
</trkpt>
<trkpt lat="49.66023246757686" lon="9.3917044904083">
<ele>342.4</ele>
<time>2024-05-11T15:02:33Z</time>
</trkpt>
<trkpt lat="49.66023246757686" lon="9.391703568398952">
<ele>342.2</ele>
<time>2024-05-11T15:02:40Z</time>
</trkpt>
<trkpt lat="49.66023246757686" lon="9.391701640561225">
<ele>342.2</ele>
<time>2024-05-11T15:02:47Z</time>
</trkpt>
<trkpt lat="49.66023632325232" lon="9.391701640561225">
<ele>342.2</ele>
<time>2024-05-11T15:02:59Z</time>
</trkpt>
<trkpt lat="49.66023632325232" lon="9.391699712723494">
<ele>342.2</ele>
<time>2024-05-11T15:03:11Z</time>
</trkpt>
<trkpt lat="49.66023246757686" lon="9.391699712723494">
<ele>342.2</ele>
<time>2024-05-11T15:03:15Z</time>
</trkpt>
<trkpt lat="49.66023632325232" lon="9.391699712723494">
<ele>342.2</ele>
<time>2024-05-11T15:03:18Z</time>
</trkpt>
<trkpt lat="49.66023246757686" lon="9.391699712723494">
<ele>342.2</ele>
<time>2024-05-11T15:03:19Z</time>
</trkpt>
<trkpt lat="49.66023246757686" lon="9.391697868704796">
<ele>342.2</ele>
<time>2024-05-11T15:03:24Z</time>
</trkpt>
<trkpt lat="49.66023246757686" lon="9.391696862876415">
<ele>342.2</ele>
<time>2024-05-11T15:03:26Z</time>
</trkpt>
<trkpt lat="49.66023246757686" lon="9.391695018857718">
<ele>342.2</ele>
<time>2024-05-11T15:03:27Z</time>
</trkpt>
<trkpt lat="49.66023246757686" lon="9.391693091019988">
<ele>342.2</ele>
<time>2024-05-11T15:03:30Z</time>
</trkpt>
<trkpt lat="49.660228695720434" lon="9.391693091019988">
<ele>342.2</ele>
<time>2024-05-11T15:03:34Z</time>
</trkpt>
<trkpt lat="49.660228695720434" lon="9.39169116318226">
<ele>342</ele>
<time>2024-05-11T15:03:35Z</time>
</trkpt>
<trkpt lat="49.660224840044975" lon="9.39169116318226">
<ele>342</ele>
<time>2024-05-11T15:03:59Z</time>
</trkpt>
<trkpt lat="49.660224840044975" lon="9.391693091019988">
<ele>342</ele>
<time>2024-05-11T15:04:03Z</time>
</trkpt>
<trkpt lat="49.660224840044975" lon="9.39169116318226">
<ele>341.8</ele>
<time>2024-05-11T15:04:14Z</time>
</trkpt>
<trkpt lat="49.660224840044975" lon="9.39169024117291">
<ele>341.8</ele>
<time>2024-05-11T15:04:19Z</time>
</trkpt>
<trkpt lat="49.660224840044975" lon="9.39169116318226">
<ele>341.8</ele>
<time>2024-05-11T15:04:26Z</time>
</trkpt>
<trkpt lat="49.660224840044975" lon="9.391693091019988">
<ele>341.8</ele>
<time>2024-05-11T15:04:29Z</time>
</trkpt>
<trkpt lat="49.660224840044975" lon="9.391695018857718">
<ele>342</ele>
<time>2024-05-11T15:04:31Z</time>
</trkpt>
<trkpt lat="49.660228695720434" lon="9.391695018857718">
<ele>342</ele>
<time>2024-05-11T15:04:38Z</time>
</trkpt>
<trkpt lat="49.660228695720434" lon="9.391696862876415">
<ele>342</ele>
<time>2024-05-11T15:04:39Z</time>
</trkpt>
<trkpt lat="49.660228695720434" lon="9.391697868704796">
<ele>342</ele>
<time>2024-05-11T15:04:41Z</time>
</trkpt>
<trkpt lat="49.660228695720434" lon="9.391699712723494">
<ele>342</ele>
<time>2024-05-11T15:04:43Z</time>
</trkpt>
<trkpt lat="49.660228695720434" lon="9.391701640561225">
<ele>342</ele>
<time>2024-05-11T15:04:45Z</time>
</trkpt>
<trkpt lat="49.660228695720434" lon="9.391703568398952">
<ele>342</ele>
<time>2024-05-11T15:04:47Z</time>
</trkpt>
<trkpt lat="49.660228695720434" lon="9.391701640561225">
<ele>341.8</ele>
<time>2024-05-11T15:04:57Z</time>
</trkpt>
<trkpt lat="49.660228695720434" lon="9.391699712723494">
<ele>341.8</ele>
<time>2024-05-11T15:04:58Z</time>
</trkpt>
<trkpt lat="49.660228695720434" lon="9.391697868704796">
<ele>341.8</ele>
<time>2024-05-11T15:05:00Z</time>
</trkpt>
<trkpt lat="49.660224840044975" lon="9.391697868704796">
<ele>341.8</ele>
<time>2024-05-11T15:05:02Z</time>
</trkpt>
<trkpt lat="49.660224840044975" lon="9.391696862876415">
<ele>341.8</ele>
<time>2024-05-11T15:05:03Z</time>
</trkpt>
<trkpt lat="49.660224840044975" lon="9.391695018857718">
<ele>341.8</ele>
<time>2024-05-11T15:05:06Z</time>
</trkpt>
<trkpt lat="49.660224840044975" lon="9.391693091019988">
<ele>342</ele>
<time>2024-05-11T15:05:12Z</time>
</trkpt>
<trkpt lat="49.660224840044975" lon="9.391695018857718">
<ele>342</ele>
<time>2024-05-11T15:05:16Z</time>
</trkpt>
<trkpt lat="49.660224840044975" lon="9.391696862876415">
<ele>342</ele>
<time>2024-05-11T15:05:21Z</time>
</trkpt>
<trkpt lat="49.660224840044975" lon="9.391697868704796">
<ele>342</ele>
<time>2024-05-11T15:05:23Z</time>
</trkpt>
<trkpt lat="49.660224840044975" lon="9.391699712723494">
<ele>342</ele>
<time>2024-05-11T15:05:25Z</time>
</trkpt>
<trkpt lat="49.660224840044975" lon="9.391701640561225">
<ele>342</ele>
<time>2024-05-11T15:05:27Z</time>
</trkpt>
<trkpt lat="49.660224840044975" lon="9.391703568398952">
<ele>342</ele>
<time>2024-05-11T15:05:30Z</time>
</trkpt>
<trkpt lat="49.66022106818855" lon="9.391703568398952">
<ele>342</ele>
<time>2024-05-11T15:05:33Z</time>
</trkpt>
<trkpt lat="49.660224840044975" lon="9.391703568398952">
<ele>342.2</ele>
<time>2024-05-11T15:05:36Z</time>
</trkpt>
<trkpt lat="49.660224840044975" lon="9.391701640561225">
<ele>342.2</ele>
<time>2024-05-11T15:05:38Z</time>
</trkpt>
<trkpt lat="49.660224840044975" lon="9.391703568398952">
<ele>342.2</ele>
<time>2024-05-11T15:05:51Z</time>
</trkpt>
<trkpt lat="49.660224840044975" lon="9.391701640561225">
<ele>342.2</ele>
<time>2024-05-11T15:06:02Z</time>
</trkpt>
<trkpt lat="49.660224840044975" lon="9.391699712723494">
<ele>342.4</ele>
<time>2024-05-11T15:06:05Z</time>
</trkpt>
<trkpt lat="49.660224840044975" lon="9.391697868704796">
<ele>342.4</ele>
<time>2024-05-11T15:06:08Z</time>
</trkpt>
<trkpt lat="49.660224840044975" lon="9.391696862876415">
<ele>342.4</ele>
<time>2024-05-11T15:06:11Z</time>
</trkpt>
<trkpt lat="49.660224840044975" lon="9.391695018857718">
<ele>342.4</ele>
<time>2024-05-11T15:06:13Z</time>
</trkpt>
<trkpt lat="49.660224840044975" lon="9.391693091019988">
<ele>342.6</ele>
<time>2024-05-11T15:06:15Z</time>
</trkpt>
<trkpt lat="49.660224840044975" lon="9.391695018857718">
<ele>342.6</ele>
<time>2024-05-11T15:06:24Z</time>
</trkpt>
<trkpt lat="49.660228695720434" lon="9.391695018857718">
<ele>342.6</ele>
<time>2024-05-11T15:06:25Z</time>
</trkpt>
<trkpt lat="49.660228695720434" lon="9.391696862876415">
<ele>342.6</ele>
<time>2024-05-11T15:06:27Z</time>
</trkpt>
<trkpt lat="49.660228695720434" lon="9.391697868704796">
<ele>342.6</ele>
<time>2024-05-11T15:06:29Z</time>
</trkpt>
<trkpt lat="49.660228695720434" lon="9.391699712723494">
<ele>342.6</ele>
<time>2024-05-11T15:06:31Z</time>
</trkpt>
<trkpt lat="49.660228695720434" lon="9.391701640561225">
<ele>342.6</ele>
<time>2024-05-11T15:06:34Z</time>
</trkpt>
<trkpt lat="49.660228695720434" lon="9.391703568398952">
<ele>342.6</ele>
<time>2024-05-11T15:06:38Z</time>
</trkpt>
<trkpt lat="49.660228695720434" lon="9.3917044904083">
<ele>342.6</ele>
<time>2024-05-11T15:06:44Z</time>
</trkpt>
<trkpt lat="49.660228695720434" lon="9.39170641824603">
<ele>342.6</ele>
<time>2024-05-11T15:06:49Z</time>
</trkpt>
<trkpt lat="49.660228695720434" lon="9.3917044904083">
<ele>342.6</ele>
<time>2024-05-11T15:07:04Z</time>
</trkpt>
<trkpt lat="49.660228695720434" lon="9.391703568398952">
<ele>342.6</ele>
<time>2024-05-11T15:07:12Z</time>
</trkpt>
<trkpt lat="49.660224840044975" lon="9.391703568398952">
<ele>342.6</ele>
<time>2024-05-11T15:07:24Z</time>
</trkpt>
<trkpt lat="49.660224840044975" lon="9.3917044904083">
<ele>342.6</ele>
<time>2024-05-11T15:07:25Z</time>
</trkpt>
<trkpt lat="49.660224840044975" lon="9.39170641824603">
<ele>342.6</ele>
<time>2024-05-11T15:07:29Z</time>
</trkpt>
<trkpt lat="49.66022106818855" lon="9.391713123768568">
<ele>342.6</ele>
<time>2024-05-11T15:07:30Z</time>
</trkpt>
<trkpt lat="49.66021344065666" lon="9.391717901453376">
<ele>342.6</ele>
<time>2024-05-11T15:07:31Z</time>
</trkpt>
<trkpt lat="49.66020195744932" lon="9.391723601147532">
<ele>342.6</ele>
<time>2024-05-11T15:07:32Z</time>
</trkpt>
<trkpt lat="49.66019432991743" lon="9.39172645099461">
<ele>342.6</ele>
<time>2024-05-11T15:07:33Z</time>
</trkpt>
<trkpt lat="49.660186702385545" lon="9.39173030667007">
<ele>342.6</ele>
<time>2024-05-11T15:07:34Z</time>
</trkpt>
<trkpt lat="49.66017907485366" lon="9.39173030667007">
<ele>342.6</ele>
<time>2024-05-11T15:07:35Z</time>
</trkpt>
<trkpt lat="49.66017530299723" lon="9.39173122867942">
<ele>342.6</ele>
<time>2024-05-11T15:07:36Z</time>
</trkpt>
<trkpt lat="49.66017144732177" lon="9.391735000535846">
<ele>342.6</ele>
<time>2024-05-11T15:07:37Z</time>
</trkpt>
<trkpt lat="49.66016381978989" lon="9.391737934201956">
<ele>342.6</ele>
<time>2024-05-11T15:07:38Z</time>
</trkpt>
<trkpt lat="49.66016004793346" lon="9.391737934201956">
<ele>342.6</ele>
<time>2024-05-11T15:07:39Z</time>
</trkpt>
<trkpt lat="49.660156192258" lon="9.391737934201956">
<ele>342.6</ele>
<time>2024-05-11T15:07:40Z</time>
</trkpt>
<trkpt lat="49.66014479286969" lon="9.391737934201956">
<ele>342.6</ele>
<time>2024-05-11T15:07:41Z</time>
</trkpt>
<trkpt lat="49.66013330966234" lon="9.391737934201956">
<ele>342.6</ele>
<time>2024-05-11T15:07:42Z</time>
</trkpt>
<trkpt lat="49.66011805459857" lon="9.391735000535846">
<ele>342.6</ele>
<time>2024-05-11T15:07:43Z</time>
</trkpt>
<trkpt lat="49.66009902767837" lon="9.39173122867942">
<ele>342.6</ele>
<time>2024-05-11T15:07:44Z</time>
</trkpt>
<trkpt lat="49.66008368879557" lon="9.39172837883234">
<ele>342.6</ele>
<time>2024-05-11T15:07:45Z</time>
</trkpt>
<trkpt lat="49.66007606126368" lon="9.39173122867942">
<ele>342.6</ele>
<time>2024-05-11T15:07:46Z</time>
</trkpt>
<trkpt lat="49.660068433731794" lon="9.391735000535846">
<ele>342.6</ele>
<time>2024-05-11T15:07:47Z</time>
</trkpt>
<trkpt lat="49.66005317866802" lon="9.39173122867942">
<ele>342.6</ele>
<time>2024-05-11T15:07:48Z</time>
</trkpt>
<trkpt lat="49.66004177927971" lon="9.39172837883234">
<ele>342.6</ele>
<time>2024-05-11T15:07:49Z</time>
</trkpt>
<trkpt lat="49.66003029607237" lon="9.39172645099461">
<ele>342.6</ele>
<time>2024-05-11T15:07:50Z</time>
</trkpt>
<trkpt lat="49.66002266854048" lon="9.39172645099461">
<ele>342.6</ele>
<time>2024-05-11T15:07:51Z</time>
</trkpt>
<trkpt lat="49.66001504100859" lon="9.39172645099461">
<ele>342.6</ele>
<time>2024-05-11T15:07:52Z</time>
</trkpt>
<trkpt lat="49.660007413476706" lon="9.39172837883234">
<ele>342.6</ele>
<time>2024-05-11T15:07:53Z</time>
</trkpt>
<trkpt lat="49.65999978594482" lon="9.39173122867942">
<ele>342.6</ele>
<time>2024-05-11T15:07:54Z</time>
</trkpt>
<trkpt lat="49.65999215841293" lon="9.391733156517148">
<ele>342.6</ele>
<time>2024-05-11T15:07:55Z</time>
</trkpt>
<trkpt lat="49.659988386556506" lon="9.391741706058385">
<ele>342.6</ele>
<time>2024-05-11T15:07:56Z</time>
</trkpt>
<trkpt lat="49.65998453088105" lon="9.39174841158092">
<ele>342.6</ele>
<time>2024-05-11T15:07:57Z</time>
</trkpt>
<trkpt lat="49.65998075902462" lon="9.391753189265728">
<ele>342.6</ele>
<time>2024-05-11T15:07:58Z</time>
</trkpt>
<trkpt lat="49.65997690334916" lon="9.391756961122155">
<ele>342.6</ele>
<time>2024-05-11T15:07:59Z</time>
</trkpt>
<trkpt lat="49.659973131492734" lon="9.391759810969234">
<ele>342.6</ele>
<time>2024-05-11T15:08:00Z</time>
</trkpt>
<trkpt lat="49.659969275817275" lon="9.391763666644692">
<ele>342.6</ele>
<time>2024-05-11T15:08:01Z</time>
</trkpt>
<trkpt lat="49.65996550396085" lon="9.39176651649177">
<ele>342.6</ele>
<time>2024-05-11T15:08:02Z</time>
</trkpt>
<trkpt lat="49.65996550396085" lon="9.3917684443295">
<ele>342.6</ele>
<time>2024-05-11T15:08:03Z</time>
</trkpt>
<trkpt lat="49.65996550396085" lon="9.391770288348198">
<ele>342.6</ele>
<time>2024-05-11T15:08:04Z</time>
</trkpt>
<trkpt lat="49.65996550396085" lon="9.39177129417658">
<ele>342.6</ele>
<time>2024-05-11T15:08:05Z</time>
</trkpt>
<trkpt lat="49.65996550396085" lon="9.391773222014308">
<ele>342.6</ele>
<time>2024-05-11T15:08:07Z</time>
</trkpt>
<trkpt lat="49.65996164828539" lon="9.391775066033006">
<ele>342.6</ele>
<time>2024-05-11T15:08:10Z</time>
</trkpt>
<trkpt lat="49.65996164828539" lon="9.391776993870735">
<ele>342.6</ele>
<time>2024-05-11T15:08:14Z</time>
</trkpt>
<trkpt lat="49.65996164828539" lon="9.391777915880084">
<ele>342.6</ele>
<time>2024-05-11T15:08:16Z</time>
</trkpt>
<trkpt lat="49.65996164828539" lon="9.391779843717812">
<ele>342.6</ele>
<time>2024-05-11T15:08:18Z</time>
</trkpt>
<trkpt lat="49.65996164828539" lon="9.391781771555545">
<ele>342.6</ele>
<time>2024-05-11T15:08:23Z</time>
</trkpt>
<trkpt lat="49.65995787642896" lon="9.391781771555545">
<ele>342.6</ele>
<time>2024-05-11T15:08:24Z</time>
</trkpt>
<trkpt lat="49.65995787642896" lon="9.391779843717812">
<ele>342.6</ele>
<time>2024-05-11T15:08:30Z</time>
</trkpt>
<trkpt lat="49.65995787642896" lon="9.391777915880084">
<ele>342.6</ele>
<time>2024-05-11T15:08:32Z</time>
</trkpt>
<trkpt lat="49.65995787642896" lon="9.391779843717812">
<ele>342.6</ele>
<time>2024-05-11T15:08:33Z</time>
</trkpt>
<trkpt lat="49.65995787642896" lon="9.391777915880084">
<ele>342.6</ele>
<time>2024-05-11T15:08:35Z</time>
</trkpt>
<trkpt lat="49.65995787642896" lon="9.391776993870735">
<ele>342.6</ele>
<time>2024-05-11T15:08:42Z</time>
</trkpt>
<trkpt lat="49.6599540207535" lon="9.391775066033006">
<ele>342.6</ele>
<time>2024-05-11T15:08:44Z</time>
</trkpt>
<trkpt lat="49.6599540207535" lon="9.391773222014308">
<ele>342.6</ele>
<time>2024-05-11T15:08:46Z</time>
</trkpt>
<trkpt lat="49.6599540207535" lon="9.391775066033006">
<ele>342.6</ele>
<time>2024-05-11T15:08:50Z</time>
</trkpt>
<trkpt lat="49.65995787642896" lon="9.391773222014308">
<ele>342.6</ele>
<time>2024-05-11T15:08:51Z</time>
</trkpt>
<trkpt lat="49.6599540207535" lon="9.391773222014308">
<ele>342.6</ele>
<time>2024-05-11T15:08:52Z</time>
</trkpt>
<trkpt lat="49.6599540207535" lon="9.39177129417658">
<ele>342.6</ele>
<time>2024-05-11T15:09:10Z</time>
</trkpt>
<trkpt lat="49.6599540207535" lon="9.391770288348198">
<ele>342.6</ele>
<time>2024-05-11T15:09:13Z</time>
</trkpt>
<trkpt lat="49.65995787642896" lon="9.391770288348198">
<ele>342.6</ele>
<time>2024-05-11T15:09:18Z</time>
</trkpt>
<trkpt lat="49.65995787642896" lon="9.3917684443295">
<ele>342.6</ele>
<time>2024-05-11T15:09:21Z</time>
</trkpt>
<trkpt lat="49.6599540207535" lon="9.3917684443295">
<ele>342.6</ele>
<time>2024-05-11T15:09:22Z</time>
</trkpt>
<trkpt lat="49.6599540207535" lon="9.391770288348198">
<ele>342.6</ele>
<time>2024-05-11T15:09:23Z</time>
</trkpt>
<trkpt lat="49.65995787642896" lon="9.391770288348198">
<ele>342.6</ele>
<time>2024-05-11T15:09:27Z</time>
</trkpt>
<trkpt lat="49.65995787642896" lon="9.3917684443295">
<ele>342.6</ele>
<time>2024-05-11T15:09:29Z</time>
</trkpt>
<trkpt lat="49.6599540207535" lon="9.391770288348198">
<ele>342.6</ele>
<time>2024-05-11T15:09:33Z</time>
</trkpt>
<trkpt lat="49.6599540207535" lon="9.39177129417658">
<ele>342.6</ele>
<time>2024-05-11T15:09:35Z</time>
</trkpt>
<trkpt lat="49.6599540207535" lon="9.391773222014308">
<ele>342.6</ele>
<time>2024-05-11T15:09:38Z</time>
</trkpt>
<trkpt lat="49.6599540207535" lon="9.391775066033006">
<ele>342.6</ele>
<time>2024-05-11T15:09:41Z</time>
</trkpt>
<trkpt lat="49.6599540207535" lon="9.391773222014308">
<ele>342.6</ele>
<time>2024-05-11T15:09:43Z</time>
</trkpt>
<trkpt lat="49.6599540207535" lon="9.39177129417658">
<ele>342.6</ele>
<time>2024-05-11T15:09:47Z</time>
</trkpt>
<trkpt lat="49.6599540207535" lon="9.391770288348198">
<ele>342.6</ele>
<time>2024-05-11T15:09:49Z</time>
</trkpt>
<trkpt lat="49.6599540207535" lon="9.3917684443295">
<ele>342.6</ele>
<time>2024-05-11T15:09:52Z</time>
</trkpt>
<trkpt lat="49.6599540207535" lon="9.39176651649177">
<ele>342.6</ele>
<time>2024-05-11T15:09:53Z</time>
</trkpt>
<trkpt lat="49.6599540207535" lon="9.39176458865404">
<ele>342.6</ele>
<time>2024-05-11T15:09:57Z</time>
</trkpt>
<trkpt lat="49.6599540207535" lon="9.39176651649177">
<ele>342.6</ele>
<time>2024-05-11T15:10:02Z</time>
</trkpt>
<trkpt lat="49.6599540207535" lon="9.39176458865404">
<ele>342.6</ele>
<time>2024-05-11T15:10:09Z</time>
</trkpt>
<trkpt lat="49.6599540207535" lon="9.39176651649177">
<ele>342.6</ele>
<time>2024-05-11T15:10:13Z</time>
</trkpt>
<trkpt lat="49.6599540207535" lon="9.3917684443295">
<ele>342.6</ele>
<time>2024-05-11T15:10:14Z</time>
</trkpt>
<trkpt lat="49.6599540207535" lon="9.391770288348198">
<ele>342.6</ele>
<time>2024-05-11T15:10:19Z</time>
</trkpt>
<trkpt lat="49.6599540207535" lon="9.39177129417658">
<ele>342.6</ele>
<time>2024-05-11T15:10:26Z</time>
</trkpt>
<trkpt lat="49.6599540207535" lon="9.391770288348198">
<ele>342.6</ele>
<time>2024-05-11T15:10:30Z</time>
</trkpt>
<trkpt lat="49.65995024889707" lon="9.391770288348198">
<ele>342.6</ele>
<time>2024-05-11T15:10:35Z</time>
</trkpt>
<trkpt lat="49.6599540207535" lon="9.391770288348198">
<ele>342.6</ele>
<time>2024-05-11T15:10:36Z</time>
</trkpt>
<trkpt lat="49.6599540207535" lon="9.3917684443295">
<ele>342.6</ele>
<time>2024-05-11T15:10:38Z</time>
</trkpt>
<trkpt lat="49.6599540207535" lon="9.391770288348198">
<ele>342.6</ele>
<time>2024-05-11T15:10:39Z</time>
</trkpt>
<trkpt lat="49.6599540207535" lon="9.39177129417658">
<ele>342.6</ele>
<time>2024-05-11T15:10:43Z</time>
</trkpt>
<trkpt lat="49.6599540207535" lon="9.391773222014308">
<ele>342.6</ele>
<time>2024-05-11T15:10:46Z</time>
</trkpt>
<trkpt lat="49.6599540207535" lon="9.391775066033006">
<ele>342.6</ele>
<time>2024-05-11T15:10:47Z</time>
</trkpt>
<trkpt lat="49.65995787642896" lon="9.391775066033006">
<ele>342.6</ele>
<time>2024-05-11T15:10:48Z</time>
</trkpt>
<trkpt lat="49.65995787642896" lon="9.391773222014308">
<ele>342.6</ele>
<time>2024-05-11T15:10:56Z</time>
</trkpt>
<trkpt lat="49.65996164828539" lon="9.391773222014308">
<ele>342.6</ele>
<time>2024-05-11T15:10:57Z</time>
</trkpt>
<trkpt lat="49.65996164828539" lon="9.39177129417658">
<ele>342.6</ele>
<time>2024-05-11T15:10:58Z</time>
</trkpt>
<trkpt lat="49.65996164828539" lon="9.391770288348198">
<ele>342.6</ele>
<time>2024-05-11T15:10:59Z</time>
</trkpt>
<trkpt lat="49.65996164828539" lon="9.3917684443295">
<ele>342.6</ele>
<time>2024-05-11T15:11:00Z</time>
</trkpt>
<trkpt lat="49.65996550396085" lon="9.3917684443295">
<ele>342.6</ele>
<time>2024-05-11T15:11:01Z</time>
</trkpt>
<trkpt lat="49.65996550396085" lon="9.39176651649177">
<ele>342.6</ele>
<time>2024-05-11T15:11:02Z</time>
</trkpt>
<trkpt lat="49.65996550396085" lon="9.39176458865404">
<ele>342.6</ele>
<time>2024-05-11T15:11:03Z</time>
</trkpt>
<trkpt lat="49.65996550396085" lon="9.39176651649177">
<ele>342.6</ele>
<time>2024-05-11T15:11:04Z</time>
</trkpt>
<trkpt lat="49.65996550396085" lon="9.3917684443295">
<ele>342.6</ele>
<time>2024-05-11T15:11:06Z</time>
</trkpt>
<trkpt lat="49.65996550396085" lon="9.391770288348198">
<ele>342.6</ele>
<time>2024-05-11T15:11:07Z</time>
</trkpt>
<trkpt lat="49.65996164828539" lon="9.39177129417658">
<ele>342.6</ele>
<time>2024-05-11T15:11:08Z</time>
</trkpt>
<trkpt lat="49.65996164828539" lon="9.391770288348198">
<ele>342.6</ele>
<time>2024-05-11T15:11:10Z</time>
</trkpt>
<trkpt lat="49.65996164828539" lon="9.3917684443295">
<ele>342.6</ele>
<time>2024-05-11T15:11:14Z</time>
</trkpt>
<trkpt lat="49.65996164828539" lon="9.39176651649177">
<ele>342.6</ele>
<time>2024-05-11T15:11:20Z</time>
</trkpt>
<trkpt lat="49.65996164828539" lon="9.3917684443295">
<ele>342.6</ele>
<time>2024-05-11T15:11:21Z</time>
</trkpt>
<trkpt lat="49.65996164828539" lon="9.39176651649177">
<ele>342.6</ele>
<time>2024-05-11T15:11:23Z</time>
</trkpt>
<trkpt lat="49.65996164828539" lon="9.3917684443295">
<ele>342.6</ele>
<time>2024-05-11T15:11:25Z</time>
</trkpt>
<trkpt lat="49.65996164828539" lon="9.391770288348198">
<ele>342.6</ele>
<time>2024-05-11T15:11:34Z</time>
</trkpt>
<trkpt lat="49.65996550396085" lon="9.391770288348198">
<ele>342.6</ele>
<time>2024-05-11T15:11:35Z</time>
</trkpt>
<trkpt lat="49.65996550396085" lon="9.39177129417658">
<ele>342.6</ele>
<time>2024-05-11T15:11:40Z</time>
</trkpt>
<trkpt lat="49.65996550396085" lon="9.391773222014308">
<ele>342.6</ele>
<time>2024-05-11T15:11:49Z</time>
</trkpt>
<trkpt lat="49.659969275817275" lon="9.391775066033006">
<ele>342.6</ele>
<time>2024-05-11T15:11:55Z</time>
</trkpt>
<trkpt lat="49.65996550396085" lon="9.391773222014308">
<ele>342.6</ele>
<time>2024-05-11T15:11:58Z</time>
</trkpt>
<trkpt lat="49.65996164828539" lon="9.39177129417658">
<ele>342.6</ele>
<time>2024-05-11T15:11:59Z</time>
</trkpt>
<trkpt lat="49.65996164828539" lon="9.391770288348198">
<ele>342.6</ele>
<time>2024-05-11T15:12:00Z</time>
</trkpt>
<trkpt lat="49.65995787642896" lon="9.391770288348198">
<ele>342.6</ele>
<time>2024-05-11T15:12:02Z</time>
</trkpt>
<trkpt lat="49.65995787642896" lon="9.3917684443295">
<ele>342.6</ele>
<time>2024-05-11T15:12:04Z</time>
</trkpt>
<trkpt lat="49.65995787642896" lon="9.391770288348198">
<ele>342.6</ele>
<time>2024-05-11T15:12:05Z</time>
</trkpt>
<trkpt lat="49.65995787642896" lon="9.39177129417658">
<ele>342.6</ele>
<time>2024-05-11T15:12:06Z</time>
</trkpt>
<trkpt lat="49.65995787642896" lon="9.3917684443295">
<ele>342.6</ele>
<time>2024-05-11T15:12:07Z</time>
</trkpt>
<trkpt lat="49.65995787642896" lon="9.39176651649177">
<ele>342.6</ele>
<time>2024-05-11T15:12:09Z</time>
</trkpt>
<trkpt lat="49.6599540207535" lon="9.391761738806965">
<ele>342.6</ele>
<time>2024-05-11T15:12:10Z</time>
</trkpt>
<trkpt lat="49.65994639322162" lon="9.391755033284426">
<ele>342.6</ele>
<time>2024-05-11T15:12:11Z</time>
</trkpt>
<trkpt lat="49.6599349938333" lon="9.39174648374319">
<ele>342.6</ele>
<time>2024-05-11T15:12:12Z</time>
</trkpt>
<trkpt lat="49.65991973876953" lon="9.391733156517148">
<ele>342.6</ele>
<time>2024-05-11T15:12:13Z</time>
</trkpt>
<trkpt lat="49.65989677235484" lon="9.391696862876415">
<ele>342.6</ele>
<time>2024-05-11T15:12:14Z</time>
</trkpt>
<trkpt lat="49.65987774543464" lon="9.391672052443027">
<ele>342.6</ele>
<time>2024-05-11T15:12:15Z</time>
</trkpt>
<trkpt lat="49.65985863469541" lon="9.391645397990942">
<ele>342.6</ele>
<time>2024-05-11T15:12:16Z</time>
</trkpt>
<trkpt lat="49.659828124567866" lon="9.391596782952549">
<ele>342.6</ele>
<time>2024-05-11T15:12:17Z</time>
</trkpt>
<trkpt lat="49.659793842583895" lon="9.39155193977058">
<ele>342.6</ele>
<time>2024-05-11T15:12:18Z</time>
</trkpt>
<trkpt lat="49.659755704924464" lon="9.391505168750882">
<ele>342.6</ele>
<time>2024-05-11T15:12:19Z</time>
</trkpt>
<trkpt lat="49.65972511097789" lon="9.391458481550217">
<ele>342.6</ele>
<time>2024-05-11T15:12:20Z</time>
</trkpt>
<trkpt lat="49.659694600850344" lon="9.391405088827014">
<ele>342.6</ele>
<time>2024-05-11T15:12:21Z</time>
</trkpt>
<trkpt lat="49.6596640907228" lon="9.39135454595089">
<ele>342.6</ele>
<time>2024-05-11T15:12:22Z</time>
</trkpt>
<trkpt lat="49.659637436270714" lon="9.391304925084114">
<ele>342.6</ele>
<time>2024-05-11T15:12:23Z</time>
</trkpt>
<trkpt lat="49.65961832553148" lon="9.391258237883449">
<ele>342.6</ele>
<time>2024-05-11T15:12:24Z</time>
</trkpt>
<trkpt lat="49.659595442935824" lon="9.391211466863751">
<ele>342.6</ele>
<time>2024-05-11T15:12:25Z</time>
</trkpt>
<trkpt lat="49.659576416015625" lon="9.391162851825356">
<ele>342.6</ele>
<time>2024-05-11T15:12:26Z</time>
</trkpt>
<trkpt lat="49.65956107713282" lon="9.39111515879631">
<ele>342.6</ele>
<time>2024-05-11T15:12:27Z</time>
</trkpt>
<trkpt lat="49.65954205021262" lon="9.391064615920186">
<ele>342.6</ele>
<time>2024-05-11T15:12:28Z</time>
</trkpt>
<trkpt lat="49.65952679514885" lon="9.391019772738218">
<ele>342.8</ele>
<time>2024-05-11T15:12:29Z</time>
</trkpt>
<trkpt lat="49.659515311941504" lon="9.39097492955625">
<ele>342.8</ele>
<time>2024-05-11T15:12:30Z</time>
</trkpt>
<trkpt lat="49.65950768440962" lon="9.390928242355583">
<ele>343</ele>
<time>2024-05-11T15:12:31Z</time>
</trkpt>
<trkpt lat="49.65950005687773" lon="9.390881471335888">
<ele>343.2</ele>
<time>2024-05-11T15:12:32Z</time>
</trkpt>
<trkpt lat="49.65948865748942" lon="9.390832856297491">
<ele>343.2</ele>
<time>2024-05-11T15:12:33Z</time>
</trkpt>
<trkpt lat="49.65948102995753" lon="9.390787091106176">
<ele>343.4</ele>
<time>2024-05-11T15:12:34Z</time>
</trkpt>
<trkpt lat="49.65947340242565" lon="9.39073847606778">
<ele>343.8</ele>
<time>2024-05-11T15:12:35Z</time>
</trkpt>
<trkpt lat="49.65946577489376" lon="9.390691705048084">
<ele>344</ele>
<time>2024-05-11T15:12:36Z</time>
</trkpt>
<trkpt lat="49.6594619192183" lon="9.390646861866117">
<ele>344.2</ele>
<time>2024-05-11T15:12:37Z</time>
</trkpt>
<trkpt lat="49.6594619192183" lon="9.390595396980643">
<ele>344.6</ele>
<time>2024-05-11T15:12:38Z</time>
</trkpt>
<trkpt lat="49.6594619192183" lon="9.39054485410452">
<ele>344.8</ele>
<time>2024-05-11T15:12:39Z</time>
</trkpt>
<trkpt lat="49.6594619192183" lon="9.390493389219046">
<ele>345.2</ele>
<time>2024-05-11T15:12:40Z</time>
</trkpt>
<trkpt lat="49.6594619192183" lon="9.39044184051454">
<ele>345.6</ele>
<time>2024-05-11T15:12:41Z</time>
</trkpt>
<trkpt lat="49.6594619192183" lon="9.390390375629067">
<ele>345.8</ele>
<time>2024-05-11T15:12:42Z</time>
</trkpt>
<trkpt lat="49.65946577489376" lon="9.390339832752945">
<ele>346.2</ele>
<time>2024-05-11T15:12:43Z</time>
</trkpt>
<trkpt lat="49.65946954675019" lon="9.39028644002974">
<ele>346.6</ele>
<time>2024-05-11T15:12:44Z</time>
</trkpt>
<trkpt lat="49.65947340242565" lon="9.390234891325235">
<ele>346.8</ele>
<time>2024-05-11T15:12:45Z</time>
</trkpt>
<trkpt lat="49.65948102995753" lon="9.390183426439762">
<ele>347</ele>
<time>2024-05-11T15:12:46Z</time>
</trkpt>
<trkpt lat="49.65948865748942" lon="9.390134811401367">
<ele>347.2</ele>
<time>2024-05-11T15:12:47Z</time>
</trkpt>
<trkpt lat="49.65950005687773" lon="9.39008711837232">
<ele>347.4</ele>
<time>2024-05-11T15:12:48Z</time>
</trkpt>
<trkpt lat="49.65950768440962" lon="9.390041269361973">
<ele>347.6</ele>
<time>2024-05-11T15:12:49Z</time>
</trkpt>
<trkpt lat="49.65951916761696" lon="9.389996509999037">
<ele>347.8</ele>
<time>2024-05-11T15:12:50Z</time>
</trkpt>
<trkpt lat="49.65953056700528" lon="9.389951666817067">
<ele>347.8</ele>
<time>2024-05-11T15:12:51Z</time>
</trkpt>
<trkpt lat="49.65954205021262" lon="9.3899068236351">
<ele>348</ele>
<time>2024-05-11T15:12:52Z</time>
</trkpt>
<trkpt lat="49.659557305276394" lon="9.389862986281514">
<ele>348.2</ele>
<time>2024-05-11T15:12:53Z</time>
</trkpt>
<trkpt lat="49.65956870466471" lon="9.389818143099546">
<ele>348.4</ele>
<time>2024-05-11T15:12:54Z</time>
</trkpt>
<trkpt lat="49.65958018787205" lon="9.389775227755308">
<ele>348.6</ele>
<time>2024-05-11T15:12:55Z</time>
</trkpt>
<trkpt lat="49.6595916710794" lon="9.38973038457334">
<ele>348.8</ele>
<time>2024-05-11T15:12:56Z</time>
</trkpt>
<trkpt lat="49.65960307046771" lon="9.389686547219751">
<ele>349</ele>
<time>2024-05-11T15:12:57Z</time>
</trkpt>
<trkpt lat="49.6596106979996" lon="9.389641704037786">
<ele>349.2</ele>
<time>2024-05-11T15:12:58Z</time>
</trkpt>
<trkpt lat="49.65962218120694" lon="9.389596860855818">
<ele>349.2</ele>
<time>2024-05-11T15:12:59Z</time>
</trkpt>
<trkpt lat="49.65962980873883" lon="9.389550173655152">
<ele>349.4</ele>
<time>2024-05-11T15:13:00Z</time>
</trkpt>
<trkpt lat="49.659637436270714" lon="9.389501558616756">
<ele>349.6</ele>
<time>2024-05-11T15:13:01Z</time>
</trkpt>
<trkpt lat="49.6596450638026" lon="9.38945285975933">
<ele>349.8</ele>
<time>2024-05-11T15:13:02Z</time>
</trkpt>
<trkpt lat="49.6596450638026" lon="9.389406172558663">
<ele>350.2</ele>
<time>2024-05-11T15:13:03Z</time>
</trkpt>
<trkpt lat="49.6596450638026" lon="9.38935655169189">
<ele>350.4</ele>
<time>2024-05-11T15:13:04Z</time>
</trkpt>
<trkpt lat="49.6596450638026" lon="9.389309864491224">
<ele>350.6</ele>
<time>2024-05-11T15:13:05Z</time>
</trkpt>
<trkpt lat="49.65964120812714" lon="9.389260243624449">
<ele>350.8</ele>
<time>2024-05-11T15:13:06Z</time>
</trkpt>
<trkpt lat="49.659633580595255" lon="9.389209700748324">
<ele>351</ele>
<time>2024-05-11T15:13:07Z</time>
</trkpt>
<trkpt lat="49.65962595306337" lon="9.389162007719278">
<ele>351.2</ele>
<time>2024-05-11T15:13:08Z</time>
</trkpt>
<trkpt lat="49.659614553675056" lon="9.389113392680883">
<ele>351.6</ele>
<time>2024-05-11T15:13:09Z</time>
</trkpt>
<trkpt lat="49.65960692614317" lon="9.389066621661186">
<ele>351.8</ele>
<time>2024-05-11T15:13:10Z</time>
</trkpt>
<trkpt lat="49.6595916710794" lon="9.38902186229825">
<ele>352</ele>
<time>2024-05-11T15:13:11Z</time>
</trkpt>
<trkpt lat="49.659576416015625" lon="9.388977019116282">
<ele>352.2</ele>
<time>2024-05-11T15:13:12Z</time>
</trkpt>
<trkpt lat="49.65956107713282" lon="9.388933181762695">
<ele>352.4</ele>
<time>2024-05-11T15:13:13Z</time>
</trkpt>
<trkpt lat="49.65954205021262" lon="9.388891188427806">
<ele>352.4</ele>
<time>2024-05-11T15:13:14Z</time>
</trkpt>
<trkpt lat="49.65951916761696" lon="9.388853050768375">
<ele>352.6</ele>
<time>2024-05-11T15:13:15Z</time>
</trkpt>
<trkpt lat="49.65950005687773" lon="9.388818684965372">
<ele>352.8</ele>
<time>2024-05-11T15:13:16Z</time>
</trkpt>
<trkpt lat="49.659477174282074" lon="9.38878532499075">
<ele>353</ele>
<time>2024-05-11T15:13:17Z</time>
</trkpt>
<trkpt lat="49.659454291686416" lon="9.388756742700934">
<ele>353.2</ele>
<time>2024-05-11T15:13:18Z</time>
</trkpt>
<trkpt lat="49.65943140909076" lon="9.38872623257339">
<ele>353.2</ele>
<time>2024-05-11T15:13:19Z</time>
</trkpt>
<trkpt lat="49.6594085264951" lon="9.388696644455194">
<ele>353.4</ele>
<time>2024-05-11T15:13:20Z</time>
</trkpt>
<trkpt lat="49.65938564389944" lon="9.388669906184075">
<ele>353.6</ele>
<time>2024-05-11T15:13:21Z</time>
</trkpt>
<trkpt lat="49.65936653316021" lon="9.388643251731992">
<ele>353.8</ele>
<time>2024-05-11T15:13:22Z</time>
</trkpt>
<trkpt lat="49.65933987870813" lon="9.388616513460876">
<ele>354.2</ele>
<time>2024-05-11T15:13:23Z</time>
</trkpt>
<trkpt lat="49.659316996112466" lon="9.38858793117106">
<ele>354.4</ele>
<time>2024-05-11T15:13:24Z</time>
</trkpt>
<trkpt lat="49.65929411351681" lon="9.388561192899942">
<ele>354.6</ele>
<time>2024-05-11T15:13:25Z</time>
</trkpt>
<trkpt lat="49.65926737524569" lon="9.388533532619476">
<ele>355</ele>
<time>2024-05-11T15:13:26Z</time>
</trkpt>
<trkpt lat="49.65924449265003" lon="9.388502100482585">
<ele>355.4</ele>
<time>2024-05-11T15:13:27Z</time>
</trkpt>
<trkpt lat="49.659217754378915" lon="9.38846966251731">
<ele>355.6</ele>
<time>2024-05-11T15:13:28Z</time>
</trkpt>
<trkpt lat="49.65919487178326" lon="9.388438146561384">
<ele>356</ele>
<time>2024-05-11T15:13:29Z</time>
</trkpt>
<trkpt lat="49.65916821733117" lon="9.38840956427157">
<ele>356.2</ele>
<time>2024-05-11T15:13:30Z</time>
</trkpt>
<trkpt lat="49.659141479060054" lon="9.388376204296948">
<ele>356.4</ele>
<time>2024-05-11T15:13:31Z</time>
</trkpt>
<trkpt lat="49.6591185964644" lon="9.388346616178753">
<ele>356.6</ele>
<time>2024-05-11T15:13:32Z</time>
</trkpt>
<trkpt lat="49.65909194201231" lon="9.388317028060555">
<ele>356.6</ele>
<time>2024-05-11T15:13:33Z</time>
</trkpt>
<trkpt lat="49.65906520374119" lon="9.388284673914312">
<ele>356.8</ele>
<time>2024-05-11T15:13:34Z</time>
</trkpt>
<trkpt lat="49.65903846547008" lon="9.38825123012066">
<ele>357</ele>
<time>2024-05-11T15:13:35Z</time>
</trkpt>
<trkpt lat="49.65901181101799" lon="9.388217870146036">
<ele>357.4</ele>
<time>2024-05-11T15:13:36Z</time>
</trkpt>
<trkpt lat="49.65898507274687" lon="9.38819020986557">
<ele>357.8</ele>
<time>2024-05-11T15:13:37Z</time>
</trkpt>
<trkpt lat="49.65895456261933" lon="9.388164477422832">
<ele>358</ele>
<time>2024-05-11T15:13:38Z</time>
</trkpt>
<trkpt lat="49.658924052491784" lon="9.388138744980097">
<ele>358.2</ele>
<time>2024-05-11T15:13:39Z</time>
</trkpt>
<trkpt lat="49.65889354236424" lon="9.388116784393787">
<ele>358.4</ele>
<time>2024-05-11T15:13:40Z</time>
</trkpt>
<trkpt lat="49.658863032236695" lon="9.388099601492286">
<ele>358.6</ele>
<time>2024-05-11T15:13:41Z</time>
</trkpt>
<trkpt lat="49.65883252210915" lon="9.388096751645207">
<ele>358.8</ele>
<time>2024-05-11T15:13:42Z</time>
</trkpt>
<trkpt lat="49.65880201198161" lon="9.388105385005474">
<ele>359</ele>
<time>2024-05-11T15:13:43Z</time>
</trkpt>
<trkpt lat="49.65877912938595" lon="9.388121562078595">
<ele>359.2</ele>
<time>2024-05-11T15:13:44Z</time>
</trkpt>
<trkpt lat="49.658763874322176" lon="9.388152994215488">
<ele>359.4</ele>
<time>2024-05-11T15:13:45Z</time>
</trkpt>
<trkpt lat="49.65875624679029" lon="9.388194987550378">
<ele>359.4</ele>
<time>2024-05-11T15:13:46Z</time>
</trkpt>
<trkpt lat="49.65875239111483" lon="9.388237902894616">
<ele>359.8</ele>
<time>2024-05-11T15:13:47Z</time>
</trkpt>
<trkpt lat="49.658744763582945" lon="9.388324655592442">
<ele>359.8</ele>
<time>2024-05-11T15:13:49Z</time>
</trkpt>
<trkpt lat="49.65873336419463" lon="9.388366648927333">
<ele>360.2</ele>
<time>2024-05-11T15:13:50Z</time>
</trkpt>
<trkpt lat="49.658725736662745" lon="9.3884114921093">
<ele>360.4</ele>
<time>2024-05-11T15:13:51Z</time>
</trkpt>
<trkpt lat="49.65871810913086" lon="9.388458179309964">
<ele>360.8</ele>
<time>2024-05-11T15:13:52Z</time>
</trkpt>
<trkpt lat="49.65871039777994" lon="9.38850780017674">
<ele>361.2</ele>
<time>2024-05-11T15:13:53Z</time>
</trkpt>
<trkpt lat="49.65869899839163" lon="9.388556415215136">
<ele>361.4</ele>
<time>2024-05-11T15:13:54Z</time>
</trkpt>
<trkpt lat="49.65869137085974" lon="9.38860511407256">
<ele>361.8</ele>
<time>2024-05-11T15:13:55Z</time>
</trkpt>
<trkpt lat="49.658683743327856" lon="9.388653729110956">
<ele>362</ele>
<time>2024-05-11T15:13:56Z</time>
</trkpt>
<trkpt lat="49.658683743327856" lon="9.3887032661587">
<ele>362.4</ele>
<time>2024-05-11T15:13:57Z</time>
</trkpt>
<trkpt lat="49.65867611579597" lon="9.388752887025476">
<ele>362.6</ele>
<time>2024-05-11T15:13:58Z</time>
</trkpt>
<trkpt lat="49.65866848826408" lon="9.3888034299016">
<ele>362.8</ele>
<time>2024-05-11T15:13:59Z</time>
</trkpt>
<trkpt lat="49.65865323320031" lon="9.388853050768375">
<ele>363</ele>
<time>2024-05-11T15:14:00Z</time>
</trkpt>
<trkpt lat="49.65864174999297" lon="9.38889973796904">
<ele>363.2</ele>
<time>2024-05-11T15:14:01Z</time>
</trkpt>
<trkpt lat="49.65863412246108" lon="9.388946508988738">
<ele>363.4</ele>
<time>2024-05-11T15:14:02Z</time>
</trkpt>
<trkpt lat="49.65861886739731" lon="9.388995124027131">
<ele>363.6</ele>
<time>2024-05-11T15:14:03Z</time>
</trkpt>
<trkpt lat="49.65859984047711" lon="9.38904189504683">
<ele>363.8</ele>
<time>2024-05-11T15:14:04Z</time>
</trkpt>
<trkpt lat="49.65858072973788" lon="9.389086654409766">
<ele>363.8</ele>
<time>2024-05-11T15:14:05Z</time>
</trkpt>
<trkpt lat="49.65856170281768" lon="9.389133425429463">
<ele>363.8</ele>
<time>2024-05-11T15:14:07Z</time>
</trkpt>
<trkpt lat="49.65851970948279" lon="9.389233589172363">
<ele>364</ele>
<time>2024-05-11T15:14:08Z</time>
</trkpt>
<trkpt lat="49.65849297121167" lon="9.389280276373029">
<ele>364</ele>
<time>2024-05-11T15:14:09Z</time>
</trkpt>
<trkpt lat="49.65846246108413" lon="9.389325119554996">
<ele>364.2</ele>
<time>2024-05-11T15:14:10Z</time>
</trkpt>
<trkpt lat="49.65843957848847" lon="9.389373734593391">
<ele>364.2</ele>
<time>2024-05-11T15:14:11Z</time>
</trkpt>
<trkpt lat="49.658412924036384" lon="9.389423355460169">
<ele>364.2</ele>
<time>2024-05-11T15:14:12Z</time>
</trkpt>
<trkpt lat="49.658390041440725" lon="9.38947289250791">
<ele>364.4</ele>
<time>2024-05-11T15:14:13Z</time>
</trkpt>
<trkpt lat="49.65836330316961" lon="9.389525363221765">
<ele>364.4</ele>
<time>2024-05-11T15:14:14Z</time>
</trkpt>
<trkpt lat="49.65833656489849" lon="9.38957498408854">
<ele>364.6</ele>
<time>2024-05-11T15:14:15Z</time>
</trkpt>
<trkpt lat="49.65831368230283" lon="9.389626448974012">
<ele>364.8</ele>
<time>2024-05-11T15:14:16Z</time>
</trkpt>
<trkpt lat="49.65828702785075" lon="9.389676991850138">
<ele>365</ele>
<time>2024-05-11T15:14:17Z</time>
</trkpt>
<trkpt lat="49.65826791711152" lon="9.38973038457334">
<ele>365.2</ele>
<time>2024-05-11T15:14:18Z</time>
</trkpt>
<trkpt lat="49.65824126265943" lon="9.389781933277844">
<ele>365.4</ele>
<time>2024-05-11T15:14:19Z</time>
</trkpt>
<trkpt lat="49.65821838006377" lon="9.389829626306891">
<ele>365.4</ele>
<time>2024-05-11T15:14:20Z</time>
</trkpt>
<trkpt lat="49.658191641792655" lon="9.389875391498208">
<ele>365.2</ele>
<time>2024-05-11T15:14:21Z</time>
</trkpt>
<trkpt lat="49.658168759197" lon="9.389918306842446">
<ele>365.2</ele>
<time>2024-05-11T15:14:22Z</time>
</trkpt>
<trkpt lat="49.65814587660134" lon="9.389958372339606">
<ele>365.2</ele>
<time>2024-05-11T15:14:23Z</time>
</trkpt>
<trkpt lat="49.65812676586211" lon="9.389996509999037">
<ele>365.2</ele>
<time>2024-05-11T15:14:24Z</time>
</trkpt>
<trkpt lat="49.658111510798335" lon="9.390031797811387">
<ele>365.2</ele>
<time>2024-05-11T15:14:25Z</time>
</trkpt>
<trkpt lat="49.658092483878136" lon="9.39006708562374">
<ele>365.2</ele>
<time>2024-05-11T15:14:26Z</time>
</trkpt>
<trkpt lat="49.65807722881436" lon="9.390096589922903">
<ele>365.2</ele>
<time>2024-05-11T15:14:27Z</time>
</trkpt>
<trkpt lat="49.65805811807513" lon="9.390132883563638">
<ele>365.2</ele>
<time>2024-05-11T15:14:28Z</time>
</trkpt>
<trkpt lat="49.65804286301136" lon="9.39016817137599">
<ele>365.2</ele>
<time>2024-05-11T15:14:29Z</time>
</trkpt>
<trkpt lat="49.65802375227213" lon="9.390203459188342">
<ele>365.2</ele>
<time>2024-05-11T15:14:30Z</time>
</trkpt>
<trkpt lat="49.65800472535193" lon="9.390243524685502">
<ele>365.2</ele>
<time>2024-05-11T15:14:31Z</time>
</trkpt>
<trkpt lat="49.65798947028816" lon="9.390276884660125">
<ele>365</ele>
<time>2024-05-11T15:14:32Z</time>
</trkpt>
<trkpt lat="49.657970359548926" lon="9.39030647277832">
<ele>365.2</ele>
<time>2024-05-11T15:14:33Z</time>
</trkpt>
<trkpt lat="49.65795133262873" lon="9.390331199392676">
<ele>365.2</ele>
<time>2024-05-11T15:14:34Z</time>
</trkpt>
<trkpt lat="49.65792845003307" lon="9.390348382294178">
<ele>365.4</ele>
<time>2024-05-11T15:14:35Z</time>
</trkpt>
<trkpt lat="49.65790171176195" lon="9.390368415042758">
<ele>365.4</ele>
<time>2024-05-11T15:14:36Z</time>
</trkpt>
<trkpt lat="49.65788268484175" lon="9.390390375629067">
<ele>365.6</ele>
<time>2024-05-11T15:14:37Z</time>
</trkpt>
<trkpt lat="49.657859802246094" lon="9.390411330386996">
<ele>365.6</ele>
<time>2024-05-11T15:14:39Z</time>
</trkpt>
<trkpt lat="49.65782158076763" lon="9.390451395884156">
<ele>365.6</ele>
<time>2024-05-11T15:14:40Z</time>
</trkpt>
<trkpt lat="49.65780255384743" lon="9.39046279527247">
<ele>365.6</ele>
<time>2024-05-11T15:14:41Z</time>
</trkpt>
<trkpt lat="49.657779671251774" lon="9.390475200489163">
<ele>365.4</ele>
<time>2024-05-11T15:14:42Z</time>
</trkpt>
<trkpt lat="49.657756788656116" lon="9.390486683696508">
<ele>365.4</ele>
<time>2024-05-11T15:14:43Z</time>
</trkpt>
<trkpt lat="49.65773390606046" lon="9.39050193876028">
<ele>365.4</ele>
<time>2024-05-11T15:14:44Z</time>
</trkpt>
<trkpt lat="49.6577110234648" lon="9.390516271814704">
<ele>365.2</ele>
<time>2024-05-11T15:14:45Z</time>
</trkpt>
<trkpt lat="49.65768814086914" lon="9.390538148581982">
<ele>365.4</ele>
<time>2024-05-11T15:14:46Z</time>
</trkpt>
<trkpt lat="49.65766903012991" lon="9.390555331483483">
<ele>365.4</ele>
<time>2024-05-11T15:14:47Z</time>
</trkpt>
<trkpt lat="49.65764229185879" lon="9.390573436394334">
<ele>365.6</ele>
<time>2024-05-11T15:14:48Z</time>
</trkpt>
<trkpt lat="49.65761563740671" lon="9.390591541305184">
<ele>365.8</ele>
<time>2024-05-11T15:14:49Z</time>
</trkpt>
<trkpt lat="49.65759275481105" lon="9.390609730035068">
<ele>366</ele>
<time>2024-05-11T15:14:50Z</time>
</trkpt>
<trkpt lat="49.65756987221539" lon="9.390626829117537">
<ele>366.2</ele>
<time>2024-05-11T15:14:51Z</time>
</trkpt>
<trkpt lat="49.65754698961973" lon="9.39064501784742">
<ele>366.4</ele>
<time>2024-05-11T15:14:52Z</time>
</trkpt>
<trkpt lat="49.6574935130775" lon="9.390686927363276">
<ele>366.4</ele>
<time>2024-05-11T15:14:54Z</time>
</trkpt>
<trkpt lat="49.65746685862541" lon="9.390705032274129">
<ele>366.6</ele>
<time>2024-05-11T15:14:55Z</time>
</trkpt>
<trkpt lat="49.657440120354295" lon="9.39072129316628">
<ele>367</ele>
<time>2024-05-11T15:14:56Z</time>
</trkpt>
<trkpt lat="49.65741346590221" lon="9.39073847606778">
<ele>367.2</ele>
<time>2024-05-11T15:14:57Z</time>
</trkpt>
<trkpt lat="49.65738672763109" lon="9.390753731131554">
<ele>367.4</ele>
<time>2024-05-11T15:14:58Z</time>
</trkpt>
<trkpt lat="49.65736007317901" lon="9.390765130519869">
<ele>367.6</ele>
<time>2024-05-11T15:14:59Z</time>
</trkpt>
<trkpt lat="49.65732947923243" lon="9.39078038558364">
<ele>367.8</ele>
<time>2024-05-11T15:15:00Z</time>
</trkpt>
<trkpt lat="49.657298969104886" lon="9.390789940953256">
<ele>368</ele>
<time>2024-05-11T15:15:01Z</time>
</trkpt>
<trkpt lat="49.65726845897734" lon="9.39079849049449">
<ele>368.4</ele>
<time>2024-05-11T15:15:02Z</time>
</trkpt>
<trkpt lat="49.65723417699337" lon="9.390803268179296">
<ele>368.6</ele>
<time>2024-05-11T15:15:03Z</time>
</trkpt>
<trkpt lat="49.65719981119037" lon="9.390809973701836">
<ele>368.8</ele>
<time>2024-05-11T15:15:04Z</time>
</trkpt>
<trkpt lat="49.65716544538736" lon="9.390809973701836">
<ele>369</ele>
<time>2024-05-11T15:15:05Z</time>
</trkpt>
<trkpt lat="49.65713116340339" lon="9.390809973701836">
<ele>369.2</ele>
<time>2024-05-11T15:15:06Z</time>
</trkpt>
<trkpt lat="49.65709302574396" lon="9.390809973701836">
<ele>369.4</ele>
<time>2024-05-11T15:15:07Z</time>
</trkpt>
<trkpt lat="49.65705488808453" lon="9.390809973701836">
<ele>369.6</ele>
<time>2024-05-11T15:15:08Z</time>
</trkpt>
<trkpt lat="49.6570167504251" lon="9.390809973701836">
<ele>369.8</ele>
<time>2024-05-11T15:15:09Z</time>
</trkpt>
<trkpt lat="49.65697852894664" lon="9.390808045864103">
<ele>370</ele>
<time>2024-05-11T15:15:10Z</time>
</trkpt>
<trkpt lat="49.65694039128721" lon="9.390808045864103">
<ele>370.2</ele>
<time>2024-05-11T15:15:11Z</time>
</trkpt>
<trkpt lat="49.65690225362778" lon="9.390806118026376">
<ele>370.4</ele>
<time>2024-05-11T15:15:12Z</time>
</trkpt>
<trkpt lat="49.65686411596835" lon="9.390808045864103">
<ele>370.6</ele>
<time>2024-05-11T15:15:13Z</time>
</trkpt>
<trkpt lat="49.65682597830891" lon="9.390811901539564">
<ele>370.8</ele>
<time>2024-05-11T15:15:14Z</time>
</trkpt>
<trkpt lat="49.656787840649486" lon="9.390809973701836">
<ele>371</ele>
<time>2024-05-11T15:15:15Z</time>
</trkpt>
<trkpt lat="49.65675347484648" lon="9.390808045864103">
<ele>370.8</ele>
<time>2024-05-11T15:15:16Z</time>
</trkpt>
<trkpt lat="49.65671533718705" lon="9.390811901539564">
<ele>370.6</ele>
<time>2024-05-11T15:15:17Z</time>
</trkpt>
<trkpt lat="49.65664668940008" lon="9.390814751386642">
<ele>370.6</ele>
<time>2024-05-11T15:15:19Z</time>
</trkpt>
<trkpt lat="49.656612323597074" lon="9.39081852324307">
<ele>370.8</ele>
<time>2024-05-11T15:15:20Z</time>
</trkpt>
<trkpt lat="49.6565780416131" lon="9.39081952907145">
<ele>371</ele>
<time>2024-05-11T15:15:21Z</time>
</trkpt>
<trkpt lat="49.65653990395367" lon="9.390823300927876">
<ele>371.4</ele>
<time>2024-05-11T15:15:22Z</time>
</trkpt>
<trkpt lat="49.65646740049124" lon="9.390836711972952">
<ele>371.6</ele>
<time>2024-05-11T15:15:24Z</time>
</trkpt>
<trkpt lat="49.656433034688234" lon="9.39083855599165">
<ele>371.6</ele>
<time>2024-05-11T15:15:25Z</time>
</trkpt>
<trkpt lat="49.6563948970288" lon="9.39083956182003">
<ele>371.8</ele>
<time>2024-05-11T15:15:26Z</time>
</trkpt>
<trkpt lat="49.65636061504483" lon="9.39083956182003">
<ele>372.2</ele>
<time>2024-05-11T15:15:27Z</time>
</trkpt>
<trkpt lat="49.65633010491729" lon="9.39083956182003">
<ele>372.4</ele>
<time>2024-05-11T15:15:28Z</time>
</trkpt>
<trkpt lat="49.656291883438826" lon="9.390841405838728">
<ele>372.6</ele>
<time>2024-05-11T15:15:29Z</time>
</trkpt>
<trkpt lat="49.656257601454854" lon="9.390845261514189">
<ele>372.8</ele>
<time>2024-05-11T15:15:30Z</time>
</trkpt>
<trkpt lat="49.65621946379542" lon="9.390850039198996">
<ele>373</ele>
<time>2024-05-11T15:15:31Z</time>
</trkpt>
<trkpt lat="49.65618509799242" lon="9.390852889046071">
<ele>373</ele>
<time>2024-05-11T15:15:32Z</time>
</trkpt>
<trkpt lat="49.65614696033299" lon="9.3908566609025">
<ele>373.2</ele>
<time>2024-05-11T15:15:33Z</time>
</trkpt>
<trkpt lat="49.65610882267356" lon="9.39085959456861">
<ele>373.4</ele>
<time>2024-05-11T15:15:34Z</time>
</trkpt>
<trkpt lat="49.65607445687056" lon="9.3908566609025">
<ele>373.4</ele>
<time>2024-05-11T15:15:35Z</time>
</trkpt>
<trkpt lat="49.656036319211125" lon="9.39085858874023">
<ele>373.6</ele>
<time>2024-05-11T15:15:36Z</time>
</trkpt>
<trkpt lat="49.655998181551695" lon="9.39085959456861">
<ele>373.6</ele>
<time>2024-05-11T15:15:37Z</time>
</trkpt>
<trkpt lat="49.65596381574869" lon="9.39085959456861">
<ele>373.6</ele>
<time>2024-05-11T15:15:38Z</time>
</trkpt>
<trkpt lat="49.65592567808926" lon="9.390863366425036">
<ele>373.8</ele>
<time>2024-05-11T15:15:39Z</time>
</trkpt>
<trkpt lat="49.65589139610529" lon="9.390865294262769">
<ele>373.8</ele>
<time>2024-05-11T15:15:40Z</time>
</trkpt>
<trkpt lat="49.65585325844586" lon="9.390868144109843">
<ele>373.8</ele>
<time>2024-05-11T15:15:41Z</time>
</trkpt>
<trkpt lat="49.655818892642856" lon="9.390871999785304">
<ele>373.8</ele>
<time>2024-05-11T15:15:42Z</time>
</trkpt>
<trkpt lat="49.655780754983425" lon="9.390872921794651">
<ele>374</ele>
<time>2024-05-11T15:15:43Z</time>
</trkpt>
<trkpt lat="49.65574638918042" lon="9.390871999785304">
<ele>374.2</ele>
<time>2024-05-11T15:15:44Z</time>
</trkpt>
<trkpt lat="49.65570825152099" lon="9.390874849632382">
<ele>374.4</ele>
<time>2024-05-11T15:15:45Z</time>
</trkpt>
<trkpt lat="49.65567011386156" lon="9.39087962731719">
<ele>374.6</ele>
<time>2024-05-11T15:15:46Z</time>
</trkpt>
<trkpt lat="49.655639603734016" lon="9.390883399173616">
<ele>374.8</ele>
<time>2024-05-11T15:15:47Z</time>
</trkpt>
<trkpt lat="49.655563328415155" lon="9.390883399173616">
<ele>375</ele>
<time>2024-05-11T15:15:49Z</time>
</trkpt>
<trkpt lat="49.655525190755725" lon="9.390883399173616">
<ele>375.2</ele>
<time>2024-05-11T15:15:50Z</time>
</trkpt>
<trkpt lat="49.65549082495272" lon="9.390885327011349">
<ele>375.2</ele>
<time>2024-05-11T15:15:51Z</time>
</trkpt>
<trkpt lat="49.65545268729329" lon="9.390888176858423">
<ele>375.2</ele>
<time>2024-05-11T15:15:52Z</time>
</trkpt>
<trkpt lat="49.65541454963386" lon="9.390888176858423">
<ele>375.4</ele>
<time>2024-05-11T15:15:53Z</time>
</trkpt>
<trkpt lat="49.65538018383086" lon="9.390888176858423">
<ele>375.4</ele>
<time>2024-05-11T15:15:54Z</time>
</trkpt>
<trkpt lat="49.65534204617143" lon="9.390891948714852">
<ele>375.4</ele>
<time>2024-05-11T15:15:55Z</time>
</trkpt>
<trkpt lat="49.655307764187455" lon="9.390892954543231">
<ele>375.4</ele>
<time>2024-05-11T15:15:56Z</time>
</trkpt>
<trkpt lat="49.65527339838445" lon="9.390892954543231">
<ele>375.4</ele>
<time>2024-05-11T15:15:57Z</time>
</trkpt>
<trkpt lat="49.65523526072502" lon="9.390894882380962">
<ele>375.4</ele>
<time>2024-05-11T15:15:58Z</time>
</trkpt>
<trkpt lat="49.65519712306559" lon="9.39089672639966">
<ele>375.4</ele>
<time>2024-05-11T15:15:59Z</time>
</trkpt>
<trkpt lat="49.65515898540616" lon="9.390899576246738">
<ele>375.2</ele>
<time>2024-05-11T15:16:00Z</time>
</trkpt>
<trkpt lat="49.65512084774673" lon="9.39089865423739">
<ele>375.2</ele>
<time>2024-05-11T15:16:01Z</time>
</trkpt>
<trkpt lat="49.65508262626827" lon="9.390894882380962">
<ele>375.2</ele>
<time>2024-05-11T15:16:02Z</time>
</trkpt>
<trkpt lat="49.65504448860884" lon="9.390890104696156">
<ele>375.4</ele>
<time>2024-05-11T15:16:03Z</time>
</trkpt>
<trkpt lat="49.65500635094941" lon="9.390883399173616">
<ele>375.4</ele>
<time>2024-05-11T15:16:04Z</time>
</trkpt>
<trkpt lat="49.654968213289976" lon="9.39087669365108">
<ele>375.4</ele>
<time>2024-05-11T15:16:05Z</time>
</trkpt>
<trkpt lat="49.654930075630546" lon="9.390866216272116">
<ele>375.6</ele>
<time>2024-05-11T15:16:06Z</time>
</trkpt>
<trkpt lat="49.65489570982754" lon="9.390854816883802">
<ele>375.6</ele>
<time>2024-05-11T15:16:07Z</time>
</trkpt>
<trkpt lat="49.65485757216811" lon="9.390845261514189">
<ele>375.8</ele>
<time>2024-05-11T15:16:08Z</time>
</trkpt>
<trkpt lat="49.65481943450868" lon="9.39083956182003">
<ele>376</ele>
<time>2024-05-11T15:16:09Z</time>
</trkpt>
<trkpt lat="49.65478129684925" lon="9.390836711972952">
<ele>376.2</ele>
<time>2024-05-11T15:16:10Z</time>
</trkpt>
<trkpt lat="49.65470879338682" lon="9.390831934288144">
<ele>376.4</ele>
<time>2024-05-11T15:16:12Z</time>
</trkpt>
<trkpt lat="49.654674511402845" lon="9.390834784135222">
<ele>376.4</ele>
<time>2024-05-11T15:16:13Z</time>
</trkpt>
<trkpt lat="49.654636373743415" lon="9.39083855599165">
<ele>376.4</ele>
<time>2024-05-11T15:16:14Z</time>
</trkpt>
<trkpt lat="49.654598236083984" lon="9.39083956182003">
<ele>376.4</ele>
<time>2024-05-11T15:16:15Z</time>
</trkpt>
<trkpt lat="49.65456001460552" lon="9.390843333676456">
<ele>376.6</ele>
<time>2024-05-11T15:16:16Z</time>
</trkpt>
<trkpt lat="49.65452187694609" lon="9.390846183523536">
<ele>376.8</ele>
<time>2024-05-11T15:16:17Z</time>
</trkpt>
<trkpt lat="49.65448373928666" lon="9.390851967036724">
<ele>377</ele>
<time>2024-05-11T15:16:18Z</time>
</trkpt>
<trkpt lat="49.65444945730269" lon="9.39085858874023">
<ele>377.2</ele>
<time>2024-05-11T15:16:19Z</time>
</trkpt>
<trkpt lat="49.65441123582423" lon="9.390866216272116">
<ele>377.2</ele>
<time>2024-05-11T15:16:20Z</time>
</trkpt>
<trkpt lat="49.6543730981648" lon="9.390874849632382">
<ele>377.4</ele>
<time>2024-05-11T15:16:21Z</time>
</trkpt>
<trkpt lat="49.654334960505366" lon="9.390885327011349">
<ele>377.4</ele>
<time>2024-05-11T15:16:22Z</time>
</trkpt>
<trkpt lat="49.654300678521395" lon="9.390891948714852">
<ele>377.4</ele>
<time>2024-05-11T15:16:23Z</time>
</trkpt>
<trkpt lat="49.65426631271839" lon="9.390899576246738">
<ele>377.6</ele>
<time>2024-05-11T15:16:24Z</time>
</trkpt>
<trkpt lat="49.65422817505896" lon="9.390906281769276">
<ele>377.6</ele>
<time>2024-05-11T15:16:25Z</time>
</trkpt>
<trkpt lat="49.65419380925596" lon="9.390912987291811">
<ele>377.6</ele>
<time>2024-05-11T15:16:26Z</time>
</trkpt>
<trkpt lat="49.65415567159653" lon="9.390923464670776">
<ele>377.6</ele>
<time>2024-05-11T15:16:27Z</time>
</trkpt>
<trkpt lat="49.6541175339371" lon="9.390932014212012">
<ele>377.8</ele>
<time>2024-05-11T15:16:28Z</time>
</trkpt>
<trkpt lat="49.654083251953125" lon="9.390941569581628">
<ele>377.8</ele>
<time>2024-05-11T15:16:29Z</time>
</trkpt>
<trkpt lat="49.65404888615012" lon="9.390948275104163">
<ele>378</ele>
<time>2024-05-11T15:16:30Z</time>
</trkpt>
<trkpt lat="49.65401837602258" lon="9.39095875248313">
<ele>378</ele>
<time>2024-05-11T15:16:31Z</time>
</trkpt>
<trkpt lat="49.653984010219574" lon="9.390966380015016">
<ele>378.2</ele>
<time>2024-05-11T15:16:32Z</time>
</trkpt>
<trkpt lat="49.65395350009203" lon="9.39097492955625">
<ele>378.2</ele>
<time>2024-05-11T15:16:33Z</time>
</trkpt>
<trkpt lat="49.65391921810806" lon="9.390981635078788">
<ele>378.2</ele>
<time>2024-05-11T15:16:34Z</time>
</trkpt>
<trkpt lat="49.653884852305055" lon="9.390988340601323">
<ele>378.2</ele>
<time>2024-05-11T15:16:35Z</time>
</trkpt>
<trkpt lat="49.65385434217751" lon="9.39099496230483">
<ele>378.2</ele>
<time>2024-05-11T15:16:36Z</time>
</trkpt>
<trkpt lat="49.65381997637451" lon="9.390997812151909">
<ele>378.2</ele>
<time>2024-05-11T15:16:37Z</time>
</trkpt>
<trkpt lat="49.653785694390535" lon="9.391004517674446">
<ele>378</ele>
<time>2024-05-11T15:16:38Z</time>
</trkpt>
<trkpt lat="49.65375132858753" lon="9.391010217368605">
<ele>378</ele>
<time>2024-05-11T15:16:39Z</time>
</trkpt>
<trkpt lat="49.65371696278453" lon="9.39101306721568">
<ele>378</ele>
<time>2024-05-11T15:16:40Z</time>
</trkpt>
<trkpt lat="49.65368268080056" lon="9.39101306721568">
<ele>378</ele>
<time>2024-05-11T15:16:41Z</time>
</trkpt>
<trkpt lat="49.653648314997554" lon="9.39101306721568">
<ele>378.2</ele>
<time>2024-05-11T15:16:42Z</time>
</trkpt>
<trkpt lat="49.65361017733812" lon="9.391008373349903">
<ele>378.4</ele>
<time>2024-05-11T15:16:43Z</time>
</trkpt>
<trkpt lat="49.65357966721058" lon="9.391003595665095">
<ele>378.6</ele>
<time>2024-05-11T15:16:44Z</time>
</trkpt>
<trkpt lat="49.653545301407576" lon="9.39099689014256">
<ele>378.8</ele>
<time>2024-05-11T15:16:45Z</time>
</trkpt>
<trkpt lat="49.6535110194236" lon="9.390991190448403">
<ele>379.2</ele>
<time>2024-05-11T15:16:46Z</time>
</trkpt>
<trkpt lat="49.6534766536206" lon="9.390986412763596">
<ele>379.4</ele>
<time>2024-05-11T15:16:47Z</time>
</trkpt>
<trkpt lat="49.653446143493056" lon="9.390985406935217">
<ele>379.4</ele>
<time>2024-05-11T15:16:48Z</time>
</trkpt>
<trkpt lat="49.653411861509085" lon="9.390981635078788">
<ele>379.6</ele>
<time>2024-05-11T15:16:49Z</time>
</trkpt>
<trkpt lat="49.65337749570608" lon="9.390979707241058">
<ele>379.6</ele>
<time>2024-05-11T15:16:50Z</time>
</trkpt>
<trkpt lat="49.65334312990308" lon="9.390977779403327">
<ele>379.8</ele>
<time>2024-05-11T15:16:51Z</time>
</trkpt>
<trkpt lat="49.65330884791911" lon="9.39097685739398">
<ele>379.8</ele>
<time>2024-05-11T15:16:52Z</time>
</trkpt>
<trkpt lat="49.65327833779156" lon="9.39097492955625">
<ele>379.8</ele>
<time>2024-05-11T15:16:53Z</time>
</trkpt>
<trkpt lat="49.65324397198856" lon="9.39097685739398">
<ele>379.8</ele>
<time>2024-05-11T15:16:54Z</time>
</trkpt>
<trkpt lat="49.653209606185555" lon="9.390981635078788">
<ele>379.8</ele>
<time>2024-05-11T15:16:55Z</time>
</trkpt>
<trkpt lat="49.653171468526125" lon="9.390988340601323">
<ele>379.8</ele>
<time>2024-05-11T15:16:56Z</time>
</trkpt>
<trkpt lat="49.65314095839858" lon="9.390997812151909">
<ele>379.8</ele>
<time>2024-05-11T15:16:57Z</time>
</trkpt>
<trkpt lat="49.65310667641461" lon="9.39101306721568">
<ele>379.8</ele>
<time>2024-05-11T15:16:58Z</time>
</trkpt>
<trkpt lat="49.653076166287065" lon="9.391031255945563">
<ele>380</ele>
<time>2024-05-11T15:16:59Z</time>
</trkpt>
<trkpt lat="49.65304180048406" lon="9.391048355028031">
<ele>380</ele>
<time>2024-05-11T15:17:00Z</time>
</trkpt>
<trkpt lat="49.653015062212944" lon="9.39107316546142">
<ele>380.2</ele>
<time>2024-05-11T15:17:01Z</time>
</trkpt>
<trkpt lat="49.6529845520854" lon="9.391101831570268">
<ele>380.2</ele>
<time>2024-05-11T15:17:02Z</time>
</trkpt>
<trkpt lat="49.652957897633314" lon="9.391130413860084">
<ele>380.4</ele>
<time>2024-05-11T15:17:03Z</time>
</trkpt>
<trkpt lat="49.6529311593622" lon="9.391160001978278">
<ele>380.6</ele>
<time>2024-05-11T15:17:04Z</time>
</trkpt>
<trkpt lat="49.65290450491011" lon="9.391188584268091">
<ele>380.6</ele>
<time>2024-05-11T15:17:05Z</time>
</trkpt>
<trkpt lat="49.652877766638994" lon="9.39121339470148">
<ele>380.8</ele>
<time>2024-05-11T15:17:06Z</time>
</trkpt>
<trkpt lat="49.65285102836788" lon="9.391238205134869">
<ele>381</ele>
<time>2024-05-11T15:17:07Z</time>
</trkpt>
<trkpt lat="49.65282437391579" lon="9.391262931749225">
<ele>381.2</ele>
<time>2024-05-11T15:17:08Z</time>
</trkpt>
<trkpt lat="49.652797635644674" lon="9.391289670020342">
<ele>381.2</ele>
<time>2024-05-11T15:17:09Z</time>
</trkpt>
<trkpt lat="49.652774753049016" lon="9.39131640829146">
<ele>381.4</ele>
<time>2024-05-11T15:17:10Z</time>
</trkpt>
<trkpt lat="49.65274809859693" lon="9.391344990581274">
<ele>381.6</ele>
<time>2024-05-11T15:17:11Z</time>
</trkpt>
<trkpt lat="49.65272136032581" lon="9.39137457869947">
<ele>381.6</ele>
<time>2024-05-11T15:17:12Z</time>
</trkpt>
<trkpt lat="49.65269085019827" lon="9.391401233151557">
<ele>381.8</ele>
<time>2024-05-11T15:17:13Z</time>
</trkpt>
<trkpt lat="49.65266411192715" lon="9.391426965594292">
<ele>381.8</ele>
<time>2024-05-11T15:17:14Z</time>
</trkpt>
<trkpt lat="49.65263360179961" lon="9.39145177602768">
<ele>382</ele>
<time>2024-05-11T15:17:15Z</time>
</trkpt>
<trkpt lat="49.65260694734752" lon="9.391478514298797">
<ele>382.2</ele>
<time>2024-05-11T15:17:16Z</time>
</trkpt>
<trkpt lat="49.652580209076405" lon="9.391503324732184">
<ele>382.2</ele>
<time>2024-05-11T15:17:17Z</time>
</trkpt>
<trkpt lat="49.65251918882131" lon="9.39154808409512">
<ele>382.2</ele>
<time>2024-05-11T15:17:19Z</time>
</trkpt>
<trkpt lat="49.65248867869377" lon="9.39157197251916">
<ele>382.4</ele>
<time>2024-05-11T15:17:20Z</time>
</trkpt>
<trkpt lat="49.65245816856623" lon="9.391596782952549">
<ele>382.4</ele>
<time>2024-05-11T15:17:21Z</time>
</trkpt>
<trkpt lat="49.65243143029511" lon="9.391619665548204">
<ele>382.4</ele>
<time>2024-05-11T15:17:22Z</time>
</trkpt>
<trkpt lat="49.652400920167565" lon="9.391643470153213">
<ele>382.6</ele>
<time>2024-05-11T15:17:23Z</time>
</trkpt>
<trkpt lat="49.652366638183594" lon="9.391661575064065">
<ele>382.6</ele>
<time>2024-05-11T15:17:24Z</time>
</trkpt>
<trkpt lat="49.65233989991248" lon="9.391685463488102">
<ele>382.8</ele>
<time>2024-05-11T15:17:25Z</time>
</trkpt>
<trkpt lat="49.65231316164136" lon="9.39171027392149">
<ele>382.8</ele>
<time>2024-05-11T15:17:26Z</time>
</trkpt>
<trkpt lat="49.652282651513815" lon="9.391735000535846">
<ele>382.8</ele>
<time>2024-05-11T15:17:27Z</time>
</trkpt>
<trkpt lat="49.65225214138627" lon="9.391761738806965">
<ele>382.8</ele>
<time>2024-05-11T15:17:28Z</time>
</trkpt>
<trkpt lat="49.652225486934185" lon="9.39178462140262">
<ele>382.6</ele>
<time>2024-05-11T15:17:29Z</time>
</trkpt>
<trkpt lat="49.65219497680664" lon="9.39180850982666">
<ele>382.8</ele>
<time>2024-05-11T15:17:30Z</time>
</trkpt>
<trkpt lat="49.65216823853552" lon="9.391831392422318">
<ele>382.8</ele>
<time>2024-05-11T15:17:31Z</time>
</trkpt>
<trkpt lat="49.65213772840798" lon="9.391853269189596">
<ele>383</ele>
<time>2024-05-11T15:17:32Z</time>
</trkpt>
<trkpt lat="49.652107218280435" lon="9.391875229775906">
<ele>383.2</ele>
<time>2024-05-11T15:17:33Z</time>
</trkpt>
<trkpt lat="49.65207670815289" lon="9.391895262524486">
<ele>383.2</ele>
<time>2024-05-11T15:17:34Z</time>
</trkpt>
<trkpt lat="49.65204996988177" lon="9.391913367435336">
<ele>383.6</ele>
<time>2024-05-11T15:17:35Z</time>
</trkpt>
<trkpt lat="49.65201945975423" lon="9.391936250030994">
<ele>383.8</ele>
<time>2024-05-11T15:17:36Z</time>
</trkpt>
<trkpt lat="49.65198894962669" lon="9.391960138455032">
<ele>384</ele>
<time>2024-05-11T15:17:37Z</time>
</trkpt>
<trkpt lat="49.65193170122802" lon="9.39200489781797">
<ele>384.2</ele>
<time>2024-05-11T15:17:39Z</time>
</trkpt>
<trkpt lat="49.65190504677594" lon="9.39202685840428">
<ele>384.6</ele>
<time>2024-05-11T15:17:40Z</time>
</trkpt>
<trkpt lat="49.65187830850482" lon="9.392049740999935">
<ele>384.8</ele>
<time>2024-05-11T15:17:41Z</time>
</trkpt>
<trkpt lat="49.651851654052734" lon="9.392071701586246">
<ele>385</ele>
<time>2024-05-11T15:17:42Z</time>
</trkpt>
<trkpt lat="49.65182491578162" lon="9.392093578353524">
<ele>385.2</ele>
<time>2024-05-11T15:17:43Z</time>
</trkpt>
<trkpt lat="49.6517981775105" lon="9.392114616930485">
<ele>385.2</ele>
<time>2024-05-11T15:17:44Z</time>
</trkpt>
<trkpt lat="49.651771523058414" lon="9.392136493697762">
<ele>385.4</ele>
<time>2024-05-11T15:17:45Z</time>
</trkpt>
<trkpt lat="49.6517447847873" lon="9.3921603821218">
<ele>385.4</ele>
<time>2024-05-11T15:17:46Z</time>
</trkpt>
<trkpt lat="49.65171813033521" lon="9.39218133687973">
<ele>385.4</ele>
<time>2024-05-11T15:17:47Z</time>
</trkpt>
<trkpt lat="49.65168762020767" lon="9.39220329746604">
<ele>385.4</ele>
<time>2024-05-11T15:17:48Z</time>
</trkpt>
<trkpt lat="49.65166088193655" lon="9.392225258052347">
<ele>385.4</ele>
<time>2024-05-11T15:17:49Z</time>
</trkpt>
<trkpt lat="49.651630371809006" lon="9.392245290800927">
<ele>385.2</ele>
<time>2024-05-11T15:17:50Z</time>
</trkpt>
<trkpt lat="49.65160363353789" lon="9.392265239730476">
<ele>385.2</ele>
<time>2024-05-11T15:17:51Z</time>
</trkpt>
<trkpt lat="49.6515769790858" lon="9.39228342846036">
<ele>385.2</ele>
<time>2024-05-11T15:17:52Z</time>
</trkpt>
<trkpt lat="49.651554096490145" lon="9.39230153337121">
<ele>385.2</ele>
<time>2024-05-11T15:17:53Z</time>
</trkpt>
<trkpt lat="49.65152735821903" lon="9.392318716272712">
<ele>385.4</ele>
<time>2024-05-11T15:17:54Z</time>
</trkpt>
<trkpt lat="49.65150061994791" lon="9.392332965508103">
<ele>385.4</ele>
<time>2024-05-11T15:17:55Z</time>
</trkpt>
<trkpt lat="49.65147773735225" lon="9.392348220571876">
<ele>385.6</ele>
<time>2024-05-11T15:17:56Z</time>
</trkpt>
<trkpt lat="49.65145108290017" lon="9.392365403473375">
<ele>385.6</ele>
<time>2024-05-11T15:17:57Z</time>
</trkpt>
<trkpt lat="49.65142820030451" lon="9.392377808690073">
<ele>385.8</ele>
<time>2024-05-11T15:17:58Z</time>
</trkpt>
<trkpt lat="49.65140146203339" lon="9.392393063753843">
<ele>385.8</ele>
<time>2024-05-11T15:17:59Z</time>
</trkpt>
<trkpt lat="49.651374807581306" lon="9.392406390979886">
<ele>386</ele>
<time>2024-05-11T15:18:00Z</time>
</trkpt>
<trkpt lat="49.65135192498565" lon="9.39241980202496">
<ele>386</ele>
<time>2024-05-11T15:18:01Z</time>
</trkpt>
<trkpt lat="49.65132133103907" lon="9.392431201413274">
<ele>386</ele>
<time>2024-05-11T15:18:02Z</time>
</trkpt>
<trkpt lat="49.651294676586986" lon="9.392443606629968">
<ele>386.2</ele>
<time>2024-05-11T15:18:03Z</time>
</trkpt>
<trkpt lat="49.65126416645944" lon="9.392450312152503">
<ele>386.4</ele>
<time>2024-05-11T15:18:04Z</time>
</trkpt>
<trkpt lat="49.65123742818832" lon="9.39245986752212">
<ele>386.6</ele>
<time>2024-05-11T15:18:05Z</time>
</trkpt>
<trkpt lat="49.65120691806078" lon="9.392471266910434">
<ele>386.8</ele>
<time>2024-05-11T15:18:06Z</time>
</trkpt>
<trkpt lat="49.651180263608694" lon="9.392479816451669">
<ele>386.8</ele>
<time>2024-05-11T15:18:07Z</time>
</trkpt>
<trkpt lat="49.65115352533758" lon="9.392486521974206">
<ele>387.2</ele>
<time>2024-05-11T15:18:08Z</time>
</trkpt>
<trkpt lat="49.65112678706646" lon="9.392493227496743">
<ele>387.4</ele>
<time>2024-05-11T15:18:09Z</time>
</trkpt>
<trkpt lat="49.651096276938915" lon="9.392499849200249">
<ele>387.6</ele>
<time>2024-05-11T15:18:10Z</time>
</trkpt>
<trkpt lat="49.65106576681137" lon="9.392508482560515">
<ele>387.8</ele>
<time>2024-05-11T15:18:11Z</time>
</trkpt>
<trkpt lat="49.651035256683826" lon="9.39251510426402">
<ele>388</ele>
<time>2024-05-11T15:18:12Z</time>
</trkpt>
<trkpt lat="49.65100474655628" lon="9.392519881948829">
<ele>388.2</ele>
<time>2024-05-11T15:18:13Z</time>
</trkpt>
<trkpt lat="49.650978008285165" lon="9.392526587471366">
<ele>388.2</ele>
<time>2024-05-11T15:18:14Z</time>
</trkpt>
<trkpt lat="49.65094749815762" lon="9.3925351370126">
<ele>388.4</ele>
<time>2024-05-11T15:18:15Z</time>
</trkpt>
<trkpt lat="49.65091698803008" lon="9.392543770372868">
<ele>388.4</ele>
<time>2024-05-11T15:18:16Z</time>
</trkpt>
<trkpt lat="49.65088647790253" lon="9.392549470067024">
<ele>388.6</ele>
<time>2024-05-11T15:18:17Z</time>
</trkpt>
<trkpt lat="49.650859823450446" lon="9.39255709759891">
<ele>388.6</ele>
<time>2024-05-11T15:18:18Z</time>
</trkpt>
<trkpt lat="49.65083308517933" lon="9.392561875283718">
<ele>388.6</ele>
<time>2024-05-11T15:18:19Z</time>
</trkpt>
<trkpt lat="49.650802575051785" lon="9.392564725130796">
<ele>388.8</ele>
<time>2024-05-11T15:18:20Z</time>
</trkpt>
<trkpt lat="49.65077583678067" lon="9.392571430653334">
<ele>388.8</ele>
<time>2024-05-11T15:18:21Z</time>
</trkpt>
<trkpt lat="49.65074918232858" lon="9.39257620833814">
<ele>388.8</ele>
<time>2024-05-11T15:18:22Z</time>
</trkpt>
<trkpt lat="49.650722444057465" lon="9.392582830041649">
<ele>388.8</ele>
<time>2024-05-11T15:18:23Z</time>
</trkpt>
<trkpt lat="49.65069193392992" lon="9.392588613554835">
<ele>389</ele>
<time>2024-05-11T15:18:24Z</time>
</trkpt>
<trkpt lat="49.650665279477835" lon="9.392593307420611">
<ele>389.2</ele>
<time>2024-05-11T15:18:25Z</time>
</trkpt>
<trkpt lat="49.65063468553126" lon="9.392600012943149">
<ele>389.4</ele>
<time>2024-05-11T15:18:26Z</time>
</trkpt>
<trkpt lat="49.65060803107917" lon="9.392609568312764">
<ele>389.6</ele>
<time>2024-05-11T15:18:27Z</time>
</trkpt>
<trkpt lat="49.650581292808056" lon="9.392620045691729">
<ele>389.8</ele>
<time>2024-05-11T15:18:28Z</time>
</trkpt>
<trkpt lat="49.65055078268051" lon="9.392629601061344">
<ele>390</ele>
<time>2024-05-11T15:18:29Z</time>
</trkpt>
<trkpt lat="49.65051650069654" lon="9.392640078440309">
<ele>390.2</ele>
<time>2024-05-11T15:18:30Z</time>
</trkpt>
<trkpt lat="49.65048976242542" lon="9.392648627981544">
<ele>390.4</ele>
<time>2024-05-11T15:18:31Z</time>
</trkpt>
<trkpt lat="49.65045925229788" lon="9.39265818335116">
<ele>390.6</ele>
<time>2024-05-11T15:18:32Z</time>
</trkpt>
<trkpt lat="49.65043636970222" lon="9.392666816711426">
<ele>390.8</ele>
<time>2024-05-11T15:18:33Z</time>
</trkpt>
<trkpt lat="49.6504096314311" lon="9.39267628826201">
<ele>391</ele>
<time>2024-05-11T15:18:34Z</time>
</trkpt>
<trkpt lat="49.65038674883544" lon="9.392682993784549">
<ele>391.2</ele>
<time>2024-05-11T15:18:35Z</time>
</trkpt>
<trkpt lat="49.65036009438336" lon="9.392688693478703">
<ele>391.4</ele>
<time>2024-05-11T15:18:36Z</time>
</trkpt>
<trkpt lat="49.65033335611224" lon="9.39269539900124">
<ele>391.6</ele>
<time>2024-05-11T15:18:37Z</time>
</trkpt>
<trkpt lat="49.65030670166016" lon="9.392700176686049">
<ele>391.8</ele>
<time>2024-05-11T15:18:38Z</time>
</trkpt>
<trkpt lat="49.65027610771358" lon="9.392703026533129">
<ele>392</ele>
<time>2024-05-11T15:18:39Z</time>
</trkpt>
<trkpt lat="49.650249453261495" lon="9.392708726227283">
<ele>392</ele>
<time>2024-05-11T15:18:40Z</time>
</trkpt>
<trkpt lat="49.65021894313395" lon="9.39271635375917">
<ele>392.2</ele>
<time>2024-05-11T15:18:41Z</time>
</trkpt>
<trkpt lat="49.650188433006406" lon="9.392721131443976">
<ele>392.2</ele>
<time>2024-05-11T15:18:42Z</time>
</trkpt>
<trkpt lat="49.6501540672034" lon="9.392726831138134">
<ele>392.2</ele>
<time>2024-05-11T15:18:43Z</time>
</trkpt>
<trkpt lat="49.65012355707586" lon="9.392731608822942">
<ele>392.4</ele>
<time>2024-05-11T15:18:44Z</time>
</trkpt>
<trkpt lat="49.650093046948314" lon="9.392733536660671">
<ele>392.4</ele>
<time>2024-05-11T15:18:45Z</time>
</trkpt>
<trkpt lat="49.65005868114531" lon="9.392740242183208">
<ele>392.4</ele>
<time>2024-05-11T15:18:46Z</time>
</trkpt>
<trkpt lat="49.650028171017766" lon="9.392746863886714">
<ele>392.4</ele>
<time>2024-05-11T15:18:47Z</time>
</trkpt>
<trkpt lat="49.649971006438136" lon="9.392760274931788">
<ele>392.4</ele>
<time>2024-05-11T15:18:49Z</time>
</trkpt>
<trkpt lat="49.64993664063513" lon="9.392764968797565">
<ele>392.4</ele>
<time>2024-05-11T15:18:50Z</time>
</trkpt>
<trkpt lat="49.64990613050759" lon="9.392767902463676">
<ele>392.4</ele>
<time>2024-05-11T15:18:51Z</time>
</trkpt>
<trkpt lat="49.649871764704585" lon="9.392771674320102">
<ele>392.4</ele>
<time>2024-05-11T15:18:52Z</time>
</trkpt>
<trkpt lat="49.64984125457704" lon="9.39277645200491">
<ele>392.2</ele>
<time>2024-05-11T15:18:53Z</time>
</trkpt>
<trkpt lat="49.64980697259307" lon="9.392783157527449">
<ele>392</ele>
<time>2024-05-11T15:18:54Z</time>
</trkpt>
<trkpt lat="49.649772606790066" lon="9.392793634906411">
<ele>391.8</ele>
<time>2024-05-11T15:18:55Z</time>
</trkpt>
<trkpt lat="49.64973824098706" lon="9.392803190276029">
<ele>391.8</ele>
<time>2024-05-11T15:18:56Z</time>
</trkpt>
<trkpt lat="49.64970010332763" lon="9.392809811979532">
<ele>391.6</ele>
<time>2024-05-11T15:18:57Z</time>
</trkpt>
<trkpt lat="49.649658193811774" lon="9.3928184453398">
<ele>391.4</ele>
<time>2024-05-11T15:18:58Z</time>
</trkpt>
<trkpt lat="49.64962382800877" lon="9.392826994881034">
<ele>391.2</ele>
<time>2024-05-11T15:18:59Z</time>
</trkpt>
<trkpt lat="49.64958946220577" lon="9.392833700403571">
<ele>391</ele>
<time>2024-05-11T15:19:00Z</time>
</trkpt>
<trkpt lat="49.64955518022179" lon="9.39283847808838">
<ele>390.8</ele>
<time>2024-05-11T15:19:01Z</time>
</trkpt>
<trkpt lat="49.64952081441879" lon="9.392845099791884">
<ele>390.6</ele>
<time>2024-05-11T15:19:02Z</time>
</trkpt>
<trkpt lat="49.64948653243482" lon="9.3928546551615">
<ele>390.4</ele>
<time>2024-05-11T15:19:03Z</time>
</trkpt>
<trkpt lat="49.64944839477539" lon="9.392863204702737">
<ele>390.2</ele>
<time>2024-05-11T15:19:04Z</time>
</trkpt>
<trkpt lat="49.6494064014405" lon="9.392871838063002">
<ele>390.2</ele>
<time>2024-05-11T15:19:05Z</time>
</trkpt>
<trkpt lat="49.64936440810561" lon="9.392878459766507">
<ele>390</ele>
<time>2024-05-11T15:19:06Z</time>
</trkpt>
<trkpt lat="49.649318642914295" lon="9.392885165289044">
<ele>390</ele>
<time>2024-05-11T15:19:07Z</time>
</trkpt>
<trkpt lat="49.64927287772298" lon="9.39289371483028">
<ele>389.8</ele>
<time>2024-05-11T15:19:08Z</time>
</trkpt>
<trkpt lat="49.64922711253166" lon="9.392903270199897">
<ele>389.8</ele>
<time>2024-05-11T15:19:09Z</time>
</trkpt>
<trkpt lat="49.649181347340345" lon="9.392911903560162">
<ele>389.4</ele>
<time>2024-05-11T15:19:10Z</time>
</trkpt>
<trkpt lat="49.64913172647357" lon="9.392919531092048">
<ele>389</ele>
<time>2024-05-11T15:19:11Z</time>
</trkpt>
<trkpt lat="49.64907833375037" lon="9.392930008471012">
<ele>388.8</ele>
<time>2024-05-11T15:19:12Z</time>
</trkpt>
<trkpt lat="49.649024941027164" lon="9.392938558012249">
<ele>388.6</ele>
<time>2024-05-11T15:19:13Z</time>
</trkpt>
<trkpt lat="49.64897532016039" lon="9.392945263534784">
<ele>388.6</ele>
<time>2024-05-11T15:19:14Z</time>
</trkpt>
<trkpt lat="49.648921927437186" lon="9.39295289106667">
<ele>388.4</ele>
<time>2024-05-11T15:19:15Z</time>
</trkpt>
<trkpt lat="49.64887230657041" lon="9.392965296283364">
<ele>388.2</ele>
<time>2024-05-11T15:19:16Z</time>
</trkpt>
<trkpt lat="49.64882276952267" lon="9.39297292381525">
<ele>388.2</ele>
<time>2024-05-11T15:19:17Z</time>
</trkpt>
<trkpt lat="49.64877314865589" lon="9.392981473356484">
<ele>388</ele>
<time>2024-05-11T15:19:18Z</time>
</trkpt>
<trkpt lat="49.64872352778912" lon="9.39299295656383">
<ele>387.8</ele>
<time>2024-05-11T15:19:19Z</time>
</trkpt>
<trkpt lat="49.6486777625978" lon="9.393001506105064">
<ele>387.6</ele>
<time>2024-05-11T15:19:20Z</time>
</trkpt>
<trkpt lat="49.648628225550056" lon="9.393010139465332">
<ele>387.4</ele>
<time>2024-05-11T15:19:21Z</time>
</trkpt>
<trkpt lat="49.64858237653971" lon="9.393018689006569">
<ele>387.2</ele>
<time>2024-05-11T15:19:22Z</time>
</trkpt>
<trkpt lat="49.64853661134839" lon="9.39303008839488">
<ele>387</ele>
<time>2024-05-11T15:19:23Z</time>
</trkpt>
<trkpt lat="49.64848321862519" lon="9.393041571602224">
<ele>386.6</ele>
<time>2024-05-11T15:19:24Z</time>
</trkpt>
<trkpt lat="49.648429825901985" lon="9.39305204898119">
<ele>386.2</ele>
<time>2024-05-11T15:19:25Z</time>
</trkpt>
<trkpt lat="49.64837643317878" lon="9.393061604350804">
<ele>386</ele>
<time>2024-05-11T15:19:26Z</time>
</trkpt>
<trkpt lat="49.64832681231201" lon="9.39307300373912">
<ele>385.8</ele>
<time>2024-05-11T15:19:27Z</time>
</trkpt>
<trkpt lat="49.6482734195888" lon="9.393083564937116">
<ele>385.4</ele>
<time>2024-05-11T15:19:28Z</time>
</trkpt>
<trkpt lat="49.64822379872203" lon="9.3930930364877">
<ele>385.2</ele>
<time>2024-05-11T15:19:29Z</time>
</trkpt>
<trkpt lat="49.6481666341424" lon="9.393101669847963">
<ele>384.8</ele>
<time>2024-05-11T15:19:30Z</time>
</trkpt>
<trkpt lat="49.6481132414192" lon="9.39311122521758">
<ele>384.4</ele>
<time>2024-05-11T15:19:31Z</time>
</trkpt>
<trkpt lat="49.64805976487696" lon="9.393121702596543">
<ele>384</ele>
<time>2024-05-11T15:19:32Z</time>
</trkpt>
<trkpt lat="49.64794535189867" lon="9.393143579363825">
<ele>383.8</ele>
<time>2024-05-11T15:19:34Z</time>
</trkpt>
<trkpt lat="49.64788810350001" lon="9.393155062571168">
<ele>383.2</ele>
<time>2024-05-11T15:19:35Z</time>
</trkpt>
<trkpt lat="49.64783093892038" lon="9.39316646195948">
<ele>382.8</ele>
<time>2024-05-11T15:19:36Z</time>
</trkpt>
<trkpt lat="49.647777546197176" lon="9.393177945166826">
<ele>382.4</ele>
<time>2024-05-11T15:19:37Z</time>
</trkpt>
<trkpt lat="49.6477279253304" lon="9.393191272392867">
<ele>381.8</ele>
<time>2024-05-11T15:19:38Z</time>
</trkpt>
<trkpt lat="49.647678304463625" lon="9.39320845529437">
<ele>381.4</ele>
<time>2024-05-11T15:19:39Z</time>
</trkpt>
<trkpt lat="49.64763253927231" lon="9.393224716186523">
<ele>381</ele>
<time>2024-05-11T15:19:40Z</time>
</trkpt>
<trkpt lat="49.64758677408099" lon="9.393244665116072">
<ele>380.6</ele>
<time>2024-05-11T15:19:41Z</time>
</trkpt>
<trkpt lat="49.647537153214216" lon="9.393264697864652">
<ele>380.2</ele>
<time>2024-05-11T15:19:42Z</time>
</trkpt>
<trkpt lat="49.6474379952997" lon="9.39330954104662">
<ele>379.8</ele>
<time>2024-05-11T15:19:44Z</time>
</trkpt>
<trkpt lat="49.64738845825195" lon="9.393333429470658">
<ele>379.4</ele>
<time>2024-05-11T15:19:45Z</time>
</trkpt>
<trkpt lat="49.64733498170972" lon="9.393356312066317">
<ele>379.2</ele>
<time>2024-05-11T15:19:46Z</time>
</trkpt>
<trkpt lat="49.64728158898651" lon="9.393382044509051">
<ele>378.8</ele>
<time>2024-05-11T15:19:47Z</time>
</trkpt>
<trkpt lat="49.64722819626331" lon="9.393404927104712">
<ele>378.4</ele>
<time>2024-05-11T15:19:48Z</time>
</trkpt>
<trkpt lat="49.64717094786465" lon="9.393431581556795">
<ele>378</ele>
<time>2024-05-11T15:19:49Z</time>
</trkpt>
<trkpt lat="49.64711378328502" lon="9.393458319827914">
<ele>377.6</ele>
<time>2024-05-11T15:19:50Z</time>
</trkpt>
<trkpt lat="49.64705653488636" lon="9.393480280414224">
<ele>377.2</ele>
<time>2024-05-11T15:19:51Z</time>
</trkpt>
<trkpt lat="49.64699551463127" lon="9.393498385325074">
<ele>376.8</ele>
<time>2024-05-11T15:19:52Z</time>
</trkpt>
<trkpt lat="49.64693449437618" lon="9.393514562398195">
<ele>376.6</ele>
<time>2024-05-11T15:19:53Z</time>
</trkpt>
<trkpt lat="49.646873474121094" lon="9.39352696761489">
<ele>376.2</ele>
<time>2024-05-11T15:19:54Z</time>
</trkpt>
<trkpt lat="49.64680474251509" lon="9.393536522984505">
<ele>375.6</ele>
<time>2024-05-11T15:19:55Z</time>
</trkpt>
<trkpt lat="49.64673609472811" lon="9.393541300669312">
<ele>375.2</ele>
<time>2024-05-11T15:19:56Z</time>
</trkpt>
<trkpt lat="49.64666744694114" lon="9.39354507252574">
<ele>374.8</ele>
<time>2024-05-11T15:19:57Z</time>
</trkpt>
<trkpt lat="49.6465949434787" lon="9.393553705886006">
<ele>374.2</ele>
<time>2024-05-11T15:19:58Z</time>
</trkpt>
<trkpt lat="49.64651866815984" lon="9.393563261255622">
<ele>373.8</ele>
<time>2024-05-11T15:19:59Z</time>
</trkpt>
<trkpt lat="49.64644616469741" lon="9.393574660643935">
<ele>373.2</ele>
<time>2024-05-11T15:20:00Z</time>
</trkpt>
<trkpt lat="49.64636988937855" lon="9.393591843545437">
<ele>372.6</ele>
<time>2024-05-11T15:20:01Z</time>
</trkpt>
<trkpt lat="49.646297385916114" lon="9.393613804131746">
<ele>372.2</ele>
<time>2024-05-11T15:20:02Z</time>
</trkpt>
<trkpt lat="49.64622111059725" lon="9.393631909042597">
<ele>372</ele>
<time>2024-05-11T15:20:03Z</time>
</trkpt>
<trkpt lat="49.64615246281028" lon="9.393651941791177">
<ele>371.6</ele>
<time>2024-05-11T15:20:04Z</time>
</trkpt>
<trkpt lat="49.64609144255519" lon="9.393668118864298">
<ele>371.2</ele>
<time>2024-05-11T15:20:05Z</time>
</trkpt>
<trkpt lat="49.6460304223001" lon="9.39368144609034">
<ele>370.6</ele>
<time>2024-05-11T15:20:06Z</time>
</trkpt>
<trkpt lat="49.64598457328975" lon="9.3936853017658">
<ele>370.2</ele>
<time>2024-05-11T15:20:07Z</time>
</trkpt>
<trkpt lat="49.645938808098435" lon="9.39368337392807">
<ele>369.8</ele>
<time>2024-05-11T15:20:08Z</time>
</trkpt>
<trkpt lat="49.645904526114464" lon="9.393674824386837">
<ele>369.4</ele>
<time>2024-05-11T15:20:09Z</time>
</trkpt>
<trkpt lat="49.645881643518806" lon="9.393658563494682">
<ele>369.2</ele>
<time>2024-05-11T15:20:10Z</time>
</trkpt>
<trkpt lat="49.64585876092315" lon="9.393632831051946">
<ele>368.8</ele>
<time>2024-05-11T15:20:11Z</time>
</trkpt>
<trkpt lat="49.64583579450846" lon="9.393613804131746">
<ele>368.8</ele>
<time>2024-05-11T15:20:12Z</time>
</trkpt>
<trkpt lat="49.64580914005637" lon="9.393598549067974">
<ele>368.8</ele>
<time>2024-05-11T15:20:13Z</time>
</trkpt>
<trkpt lat="49.64577477425337" lon="9.393578516319394">
<ele>368.8</ele>
<time>2024-05-11T15:20:14Z</time>
</trkpt>
<trkpt lat="49.6457404922694" lon="9.393561333417892">
<ele>368.8</ele>
<time>2024-05-11T15:20:15Z</time>
</trkpt>
<trkpt lat="49.64571375399828" lon="9.393541300669312">
<ele>368.8</ele>
<time>2024-05-11T15:20:16Z</time>
</trkpt>
<trkpt lat="49.645687099546194" lon="9.393523195758462">
<ele>369</ele>
<time>2024-05-11T15:20:17Z</time>
</trkpt>
<trkpt lat="49.64565650559962" lon="9.39350794069469">
<ele>369.2</ele>
<time>2024-05-11T15:20:18Z</time>
</trkpt>
<trkpt lat="49.645622223615646" lon="9.393498385325074">
<ele>369.2</ele>
<time>2024-05-11T15:20:19Z</time>
</trkpt>
<trkpt lat="49.645584085956216" lon="9.39348790794611">
<ele>369.2</ele>
<time>2024-05-11T15:20:20Z</time>
</trkpt>
<trkpt lat="49.645545948296785" lon="9.393478352576494">
<ele>369.4</ele>
<time>2024-05-11T15:20:21Z</time>
</trkpt>
<trkpt lat="49.64551158249378" lon="9.39346787519753">
<ele>369.4</ele>
<time>2024-05-11T15:20:22Z</time>
</trkpt>
<trkpt lat="49.64548107236624" lon="9.393461169674993">
<ele>369.4</ele>
<time>2024-05-11T15:20:23Z</time>
</trkpt>
<trkpt lat="49.64545056223869" lon="9.393454547971489">
<ele>369.6</ele>
<time>2024-05-11T15:20:24Z</time>
</trkpt>
<trkpt lat="49.64542005211115" lon="9.393454547971489">
<ele>369.6</ele>
<time>2024-05-11T15:20:25Z</time>
</trkpt>
<trkpt lat="49.6453895419836" lon="9.393453542143106">
<ele>369.8</ele>
<time>2024-05-11T15:20:26Z</time>
</trkpt>
<trkpt lat="49.64535903185606" lon="9.39344977028668">
<ele>370</ele>
<time>2024-05-11T15:20:27Z</time>
</trkpt>
<trkpt lat="49.64533229358494" lon="9.3934469204396">
<ele>370.2</ele>
<time>2024-05-11T15:20:28Z</time>
</trkpt>
<trkpt lat="49.6453017834574" lon="9.393444992601871">
<ele>370.2</ele>
<time>2024-05-11T15:20:29Z</time>
</trkpt>
<trkpt lat="49.64527504518628" lon="9.393442142754791">
<ele>370.4</ele>
<time>2024-05-11T15:20:30Z</time>
</trkpt>
<trkpt lat="49.64525216259062" lon="9.393440214917064">
<ele>370.6</ele>
<time>2024-05-11T15:20:31Z</time>
</trkpt>
<trkpt lat="49.64523313567042" lon="9.393438287079334">
<ele>370.6</ele>
<time>2024-05-11T15:20:32Z</time>
</trkpt>
<trkpt lat="49.64521402493119" lon="9.393436359241605">
<ele>370.8</ele>
<time>2024-05-11T15:20:33Z</time>
</trkpt>
<trkpt lat="49.64519499801099" lon="9.393440214917064">
<ele>371</ele>
<time>2024-05-11T15:20:34Z</time>
</trkpt>
<trkpt lat="49.645172115415335" lon="9.393442142754791">
<ele>371.2</ele>
<time>2024-05-11T15:20:35Z</time>
</trkpt>
<trkpt lat="49.645149149000645" lon="9.39344784244895">
<ele>371.4</ele>
<time>2024-05-11T15:20:36Z</time>
</trkpt>
<trkpt lat="49.64512249454856" lon="9.39344784244895">
<ele>371.6</ele>
<time>2024-05-11T15:20:37Z</time>
</trkpt>
<trkpt lat="49.6450996119529" lon="9.3934469204396">
<ele>371.8</ele>
<time>2024-05-11T15:20:38Z</time>
</trkpt>
<trkpt lat="49.64506910182536" lon="9.3934469204396">
<ele>371.8</ele>
<time>2024-05-11T15:20:39Z</time>
</trkpt>
<trkpt lat="49.6450462192297" lon="9.393444992601871">
<ele>371.8</ele>
<time>2024-05-11T15:20:40Z</time>
</trkpt>
<trkpt lat="49.64501948095858" lon="9.393438287079334">
<ele>372</ele>
<time>2024-05-11T15:20:41Z</time>
</trkpt>
<trkpt lat="49.64498897083104" lon="9.393436359241605">
<ele>372</ele>
<time>2024-05-11T15:20:42Z</time>
</trkpt>
<trkpt lat="49.64496223255992" lon="9.393440214917064">
<ele>372</ele>
<time>2024-05-11T15:20:43Z</time>
</trkpt>
<trkpt lat="49.644935578107834" lon="9.3934469204396">
<ele>372</ele>
<time>2024-05-11T15:20:44Z</time>
</trkpt>
<trkpt lat="49.64490883983672" lon="9.39344977028668">
<ele>372.2</ele>
<time>2024-05-11T15:20:45Z</time>
</trkpt>
<trkpt lat="49.64487832970917" lon="9.39344977028668">
<ele>372.2</ele>
<time>2024-05-11T15:20:46Z</time>
</trkpt>
<trkpt lat="49.64485167525709" lon="9.393442142754791">
<ele>372.4</ele>
<time>2024-05-11T15:20:47Z</time>
</trkpt>
<trkpt lat="49.64482879266143" lon="9.393436359241605">
<ele>372.6</ele>
<time>2024-05-11T15:20:48Z</time>
</trkpt>
<trkpt lat="49.64480582624674" lon="9.393433509394526">
<ele>372.8</ele>
<time>2024-05-11T15:20:49Z</time>
</trkpt>
<trkpt lat="49.64478294365108" lon="9.3934297375381">
<ele>373</ele>
<time>2024-05-11T15:20:50Z</time>
</trkpt>
<trkpt lat="49.64476391673088" lon="9.39342688769102">
<ele>373.4</ele>
<time>2024-05-11T15:20:51Z</time>
</trkpt>
<trkpt lat="49.64474103413522" lon="9.393423032015562">
<ele>373.6</ele>
<time>2024-05-11T15:20:52Z</time>
</trkpt>
<trkpt lat="49.64470666833222" lon="9.393420182168484">
<ele>373.8</ele>
<time>2024-05-11T15:20:53Z</time>
</trkpt>
<trkpt lat="49.644680013880134" lon="9.393416326493025">
<ele>374.2</ele>
<time>2024-05-11T15:20:54Z</time>
</trkpt>
<trkpt lat="49.6446609031409" lon="9.393413476645948">
<ele>374.4</ele>
<time>2024-05-11T15:20:55Z</time>
</trkpt>
<trkpt lat="49.64463039301336" lon="9.393413476645948">
<ele>374.8</ele>
<time>2024-05-11T15:20:56Z</time>
</trkpt>
<trkpt lat="49.644599882885814" lon="9.393415404483676">
<ele>375</ele>
<time>2024-05-11T15:20:57Z</time>
</trkpt>
<trkpt lat="49.6445731446147" lon="9.393411632627249">
<ele>375.4</ele>
<time>2024-05-11T15:20:58Z</time>
</trkpt>
<trkpt lat="49.64454649016261" lon="9.39340869896114">
<ele>375.6</ele>
<time>2024-05-11T15:20:59Z</time>
</trkpt>
<trkpt lat="49.64452360756695" lon="9.393413476645948">
<ele>375.8</ele>
<time>2024-05-11T15:21:00Z</time>
</trkpt>
<trkpt lat="49.644496869295835" lon="9.393418254330754">
<ele>376</ele>
<time>2024-05-11T15:21:01Z</time>
</trkpt>
<trkpt lat="49.64446250349283" lon="9.393422110006211">
<ele>376.2</ele>
<time>2024-05-11T15:21:02Z</time>
</trkpt>
<trkpt lat="49.644439620897174" lon="9.393423032015562">
<ele>376.6</ele>
<time>2024-05-11T15:21:03Z</time>
</trkpt>
<trkpt lat="49.64441296644509" lon="9.39342873170972">
<ele>376.8</ele>
<time>2024-05-11T15:21:04Z</time>
</trkpt>
<trkpt lat="49.64437482878566" lon="9.39342873170972">
<ele>377.2</ele>
<time>2024-05-11T15:21:05Z</time>
</trkpt>
<trkpt lat="49.64434431865811" lon="9.39342873170972">
<ele>377.4</ele>
<time>2024-05-11T15:21:06Z</time>
</trkpt>
<trkpt lat="49.644321436062455" lon="9.393424959853292">
<ele>377.8</ele>
<time>2024-05-11T15:21:07Z</time>
</trkpt>
<trkpt lat="49.64429469779134" lon="9.393424959853292">
<ele>378</ele>
<time>2024-05-11T15:21:08Z</time>
</trkpt>
<trkpt lat="49.64427181519568" lon="9.393424959853292">
<ele>378.2</ele>
<time>2024-05-11T15:21:09Z</time>
</trkpt>
<trkpt lat="49.644241305068135" lon="9.39342873170972">
<ele>378.6</ele>
<time>2024-05-11T15:21:10Z</time>
</trkpt>
<trkpt lat="49.64421079494059" lon="9.39342873170972">
<ele>378.8</ele>
<time>2024-05-11T15:21:11Z</time>
</trkpt>
<trkpt lat="49.644184056669474" lon="9.393423032015562">
<ele>379</ele>
<time>2024-05-11T15:21:12Z</time>
</trkpt>
<trkpt lat="49.64415740221739" lon="9.393416326493025">
<ele>379.2</ele>
<time>2024-05-11T15:21:13Z</time>
</trkpt>
<trkpt lat="49.64413451962173" lon="9.393415404483676">
<ele>379.4</ele>
<time>2024-05-11T15:21:14Z</time>
</trkpt>
<trkpt lat="49.644119180738926" lon="9.393413476645948">
<ele>379.6</ele>
<time>2024-05-11T15:21:15Z</time>
</trkpt>
<trkpt lat="49.64408867061138" lon="9.393404927104712">
<ele>379.8</ele>
<time>2024-05-11T15:21:16Z</time>
</trkpt>
<trkpt lat="49.64405816048384" lon="9.393398221582174">
<ele>380</ele>
<time>2024-05-11T15:21:17Z</time>
</trkpt>
<trkpt lat="49.64403150603175" lon="9.393396377563477">
<ele>380.2</ele>
<time>2024-05-11T15:21:18Z</time>
</trkpt>
<trkpt lat="49.64399714022875" lon="9.393396377563477">
<ele>380.4</ele>
<time>2024-05-11T15:21:19Z</time>
</trkpt>
<trkpt lat="49.6439666301012" lon="9.393400149419904">
<ele>380.8</ele>
<time>2024-05-11T15:21:20Z</time>
</trkpt>
<trkpt lat="49.64393611997366" lon="9.393402077257631">
<ele>381</ele>
<time>2024-05-11T15:21:21Z</time>
</trkpt>
<trkpt lat="49.643913237378" lon="9.393398221582174">
<ele>381.2</ele>
<time>2024-05-11T15:21:22Z</time>
</trkpt>
<trkpt lat="49.64388272725046" lon="9.393402077257631">
<ele>381.6</ele>
<time>2024-05-11T15:21:23Z</time>
</trkpt>
<trkpt lat="49.64385598897934" lon="9.393398221582174">
<ele>381.8</ele>
<time>2024-05-11T15:21:24Z</time>
</trkpt>
<trkpt lat="49.643829334527254" lon="9.393393443897368">
<ele>382</ele>
<time>2024-05-11T15:21:25Z</time>
</trkpt>
<trkpt lat="49.64380259625614" lon="9.39338866621256">
<ele>382.2</ele>
<time>2024-05-11T15:21:26Z</time>
</trkpt>
<trkpt lat="49.64377585798502" lon="9.393382966518402">
<ele>382.6</ele>
<time>2024-05-11T15:21:27Z</time>
</trkpt>
<trkpt lat="49.643745347857475" lon="9.393380116671324">
<ele>382.8</ele>
<time>2024-05-11T15:21:28Z</time>
</trkpt>
<trkpt lat="49.64371869340539" lon="9.393376344814897">
<ele>383.2</ele>
<time>2024-05-11T15:21:29Z</time>
</trkpt>
<trkpt lat="49.64369195513427" lon="9.39336871728301">
<ele>383.4</ele>
<time>2024-05-11T15:21:30Z</time>
</trkpt>
<trkpt lat="49.64366530068219" lon="9.393353462219238">
<ele>383.8</ele>
<time>2024-05-11T15:21:31Z</time>
</trkpt>
<trkpt lat="49.64364241808653" lon="9.393341979011891">
<ele>384</ele>
<time>2024-05-11T15:21:32Z</time>
</trkpt>
<trkpt lat="49.64361567981541" lon="9.39332865178585">
<ele>384.4</ele>
<time>2024-05-11T15:21:33Z</time>
</trkpt>
<trkpt lat="49.64359279721975" lon="9.393315240740776">
<ele>384.6</ele>
<time>2024-05-11T15:21:34Z</time>
</trkpt>
<trkpt lat="49.64356228709221" lon="9.393299985677004">
<ele>384.8</ele>
<time>2024-05-11T15:21:35Z</time>
</trkpt>
<trkpt lat="49.64353940449655" lon="9.393282886594534">
<ele>385</ele>
<time>2024-05-11T15:21:36Z</time>
</trkpt>
<trkpt lat="49.64351652190089" lon="9.393261848017572">
<ele>385.2</ele>
<time>2024-05-11T15:21:37Z</time>
</trkpt>
<trkpt lat="49.643489783629775" lon="9.393239971250296">
<ele>385.4</ele>
<time>2024-05-11T15:21:38Z</time>
</trkpt>
<trkpt lat="49.64346690103412" lon="9.393217004835606">
<ele>385.6</ele>
<time>2024-05-11T15:21:39Z</time>
</trkpt>
<trkpt lat="49.64344401843846" lon="9.393197055906056">
<ele>385.8</ele>
<time>2024-05-11T15:21:40Z</time>
</trkpt>
<trkpt lat="49.64341728016734" lon="9.393177945166826">
<ele>386</ele>
<time>2024-05-11T15:21:41Z</time>
</trkpt>
<trkpt lat="49.64339439757168" lon="9.393159840255976">
<ele>386</ele>
<time>2024-05-11T15:21:42Z</time>
</trkpt>
<trkpt lat="49.6433677431196" lon="9.393137879669666">
<ele>386.2</ele>
<time>2024-05-11T15:21:43Z</time>
</trkpt>
<trkpt lat="49.64334100484848" lon="9.393116924911736">
<ele>386.2</ele>
<time>2024-05-11T15:21:44Z</time>
</trkpt>
<trkpt lat="49.643314350396395" lon="9.393097814172506">
<ele>386.2</ele>
<time>2024-05-11T15:21:45Z</time>
</trkpt>
<trkpt lat="49.64328761212528" lon="9.393077781423926">
<ele>386.2</ele>
<time>2024-05-11T15:21:46Z</time>
</trkpt>
<trkpt lat="49.64326087385416" lon="9.393056826665998">
<ele>386.4</ele>
<time>2024-05-11T15:21:47Z</time>
</trkpt>
<trkpt lat="49.643230363726616" lon="9.393034866079688">
<ele>386.4</ele>
<time>2024-05-11T15:21:48Z</time>
</trkpt>
<trkpt lat="49.64320370927453" lon="9.393016761168838">
<ele>386.6</ele>
<time>2024-05-11T15:21:49Z</time>
</trkpt>
<trkpt lat="49.64317697100341" lon="9.392994800582528">
<ele>386.8</ele>
<time>2024-05-11T15:21:50Z</time>
</trkpt>
<trkpt lat="49.64315031655133" lon="9.392979545518756">
<ele>387</ele>
<time>2024-05-11T15:21:51Z</time>
</trkpt>
<trkpt lat="49.64311980642378" lon="9.392963368445637">
<ele>387.2</ele>
<time>2024-05-11T15:21:52Z</time>
</trkpt>
<trkpt lat="49.643096923828125" lon="9.392945263534784">
<ele>387.4</ele>
<time>2024-05-11T15:21:53Z</time>
</trkpt>
<trkpt lat="49.64306632988155" lon="9.392928080633284">
<ele>387.4</ele>
<time>2024-05-11T15:21:54Z</time>
</trkpt>
<trkpt lat="49.64303967542946" lon="9.392909975722432">
<ele>387.6</ele>
<time>2024-05-11T15:21:55Z</time>
</trkpt>
<trkpt lat="49.64300916530192" lon="9.39289371483028">
<ele>387.6</ele>
<time>2024-05-11T15:21:56Z</time>
</trkpt>
<trkpt lat="49.642978655174375" lon="9.392878459766507">
<ele>387.8</ele>
<time>2024-05-11T15:21:57Z</time>
</trkpt>
<trkpt lat="49.64294814504683" lon="9.392861360684035">
<ele>387.8</ele>
<time>2024-05-11T15:21:58Z</time>
</trkpt>
<trkpt lat="49.64292140677571" lon="9.392847949638965">
<ele>388</ele>
<time>2024-05-11T15:21:59Z</time>
</trkpt>
<trkpt lat="49.64289089664817" lon="9.39283847808838">
<ele>388.2</ele>
<time>2024-05-11T15:22:00Z</time>
</trkpt>
<trkpt lat="49.642860386520624" lon="9.392831772565842">
<ele>388.4</ele>
<time>2024-05-11T15:22:01Z</time>
</trkpt>
<trkpt lat="49.64283364824951" lon="9.392821295186875">
<ele>388.6</ele>
<time>2024-05-11T15:22:02Z</time>
</trkpt>
<trkpt lat="49.64280699379742" lon="9.392806962132454">
<ele>388.8</ele>
<time>2024-05-11T15:22:03Z</time>
</trkpt>
<trkpt lat="49.642780255526304" lon="9.39279648475349">
<ele>389</ele>
<time>2024-05-11T15:22:04Z</time>
</trkpt>
<trkpt lat="49.64274974539876" lon="9.392789779230952">
<ele>389.2</ele>
<time>2024-05-11T15:22:05Z</time>
</trkpt>
<trkpt lat="49.64272300712764" lon="9.392787851393225">
<ele>389.4</ele>
<time>2024-05-11T15:22:06Z</time>
</trkpt>
<trkpt lat="49.6426924970001" lon="9.392780223861337">
<ele>389.6</ele>
<time>2024-05-11T15:22:07Z</time>
</trkpt>
<trkpt lat="49.642661986872554" lon="9.392773602157831">
<ele>389.8</ele>
<time>2024-05-11T15:22:08Z</time>
</trkpt>
<trkpt lat="49.64263533242047" lon="9.392769746482372">
<ele>390</ele>
<time>2024-05-11T15:22:09Z</time>
</trkpt>
<trkpt lat="49.64260859414935" lon="9.392764968797565">
<ele>390.2</ele>
<time>2024-05-11T15:22:10Z</time>
</trkpt>
<trkpt lat="49.64258571155369" lon="9.392763124778869">
<ele>390.4</ele>
<time>2024-05-11T15:22:11Z</time>
</trkpt>
<trkpt lat="49.642558973282576" lon="9.392761196941136">
<ele>390.6</ele>
<time>2024-05-11T15:22:12Z</time>
</trkpt>
<trkpt lat="49.64253231883049" lon="9.39275834709406">
<ele>390.8</ele>
<time>2024-05-11T15:22:13Z</time>
</trkpt>
<trkpt lat="49.64250943623483" lon="9.3927544914186">
<ele>391</ele>
<time>2024-05-11T15:22:14Z</time>
</trkpt>
<trkpt lat="49.642482697963715" lon="9.392749713733792">
<ele>391.4</ele>
<time>2024-05-11T15:22:15Z</time>
</trkpt>
<trkpt lat="49.64245604351163" lon="9.392743092030289">
<ele>391.6</ele>
<time>2024-05-11T15:22:16Z</time>
</trkpt>
<trkpt lat="49.642421677708626" lon="9.39273638650775">
<ele>392</ele>
<time>2024-05-11T15:22:17Z</time>
</trkpt>
<trkpt lat="49.64239116758108" lon="9.392728758975863">
<ele>392.4</ele>
<time>2024-05-11T15:22:18Z</time>
</trkpt>
<trkpt lat="49.64235680177808" lon="9.392728758975863">
<ele>392.8</ele>
<time>2024-05-11T15:22:19Z</time>
</trkpt>
<trkpt lat="49.642326291650534" lon="9.392724987119436">
<ele>393.2</ele>
<time>2024-05-11T15:22:20Z</time>
</trkpt>
<trkpt lat="49.64229200966656" lon="9.392724987119436">
<ele>393.4</ele>
<time>2024-05-11T15:22:21Z</time>
</trkpt>
<trkpt lat="49.64226149953902" lon="9.392721131443976">
<ele>393.6</ele>
<time>2024-05-11T15:22:22Z</time>
</trkpt>
<trkpt lat="49.64223090559244" lon="9.392720209434628">
<ele>393.8</ele>
<time>2024-05-11T15:22:23Z</time>
</trkpt>
<trkpt lat="49.64219662360847" lon="9.392720209434628">
<ele>393.8</ele>
<time>2024-05-11T15:22:24Z</time>
</trkpt>
<trkpt lat="49.64216988533735" lon="9.392711576074362">
<ele>394</ele>
<time>2024-05-11T15:22:25Z</time>
</trkpt>
<trkpt lat="49.64213560335338" lon="9.392706798389554">
<ele>394</ele>
<time>2024-05-11T15:22:26Z</time>
</trkpt>
<trkpt lat="49.64210123755038" lon="9.392704954370856">
<ele>394</ele>
<time>2024-05-11T15:22:27Z</time>
</trkpt>
<trkpt lat="49.642066955566406" lon="9.392700176686049">
<ele>394</ele>
<time>2024-05-11T15:22:28Z</time>
</trkpt>
<trkpt lat="49.6420325897634" lon="9.392693471163511">
<ele>394</ele>
<time>2024-05-11T15:22:29Z</time>
</trkpt>
<trkpt lat="49.6419982239604" lon="9.392684921622276">
<ele>394</ele>
<time>2024-05-11T15:22:30Z</time>
</trkpt>
<trkpt lat="49.641967713832855" lon="9.39267821609974">
<ele>394</ele>
<time>2024-05-11T15:22:31Z</time>
</trkpt>
<trkpt lat="49.64193343184888" lon="9.392666816711426">
<ele>394.2</ele>
<time>2024-05-11T15:22:32Z</time>
</trkpt>
<trkpt lat="49.641906693577766" lon="9.39265533350408">
<ele>394.2</ele>
<time>2024-05-11T15:22:33Z</time>
</trkpt>
<trkpt lat="49.64187232777476" lon="9.392649633809924">
<ele>394</ele>
<time>2024-05-11T15:22:34Z</time>
</trkpt>
<trkpt lat="49.64184181764722" lon="9.392648627981544">
<ele>394</ele>
<time>2024-05-11T15:22:35Z</time>
</trkpt>
<trkpt lat="49.641811307519674" lon="9.392644856125116">
<ele>393.8</ele>
<time>2024-05-11T15:22:36Z</time>
</trkpt>
<trkpt lat="49.64178079739213" lon="9.39263622276485">
<ele>393.6</ele>
<time>2024-05-11T15:22:37Z</time>
</trkpt>
<trkpt lat="49.641750287264585" lon="9.392628595232964">
<ele>393.6</ele>
<time>2024-05-11T15:22:38Z</time>
</trkpt>
<trkpt lat="49.64171977713704" lon="9.392621973529458">
<ele>393.6</ele>
<time>2024-05-11T15:22:39Z</time>
</trkpt>
<trkpt lat="49.64168541133404" lon="9.392611496150494">
<ele>393.6</ele>
<time>2024-05-11T15:22:40Z</time>
</trkpt>
<trkpt lat="49.64165490120649" lon="9.392600012943149">
<ele>393.4</ele>
<time>2024-05-11T15:22:41Z</time>
</trkpt>
<trkpt lat="49.64161676354706" lon="9.392588613554835">
<ele>393.6</ele>
<time>2024-05-11T15:22:42Z</time>
</trkpt>
<trkpt lat="49.641574854031205" lon="9.392579980194569">
<ele>393.6</ele>
<time>2024-05-11T15:22:43Z</time>
</trkpt>
<trkpt lat="49.64153663255274" lon="9.392569502815604">
<ele>393.8</ele>
<time>2024-05-11T15:22:44Z</time>
</trkpt>
<trkpt lat="49.641494723036885" lon="9.392559947445989">
<ele>394</ele>
<time>2024-05-11T15:22:45Z</time>
</trkpt>
<trkpt lat="49.641456585377455" lon="9.392549470067024">
<ele>394.2</ele>
<time>2024-05-11T15:22:46Z</time>
</trkpt>
<trkpt lat="49.641414592042565" lon="9.392541842535138">
<ele>394.2</ele>
<time>2024-05-11T15:22:47Z</time>
</trkpt>
<trkpt lat="49.64137259870768" lon="9.392531365156174">
<ele>394.4</ele>
<time>2024-05-11T15:22:48Z</time>
</trkpt>
<trkpt lat="49.64133068919182" lon="9.392521809786558">
<ele>394.4</ele>
<time>2024-05-11T15:22:49Z</time>
</trkpt>
<trkpt lat="49.64128869585693" lon="9.392508482560515">
<ele>394.4</ele>
<time>2024-05-11T15:22:50Z</time>
</trkpt>
<trkpt lat="49.6412505581975" lon="9.392491299659014">
<ele>394.4</ele>
<time>2024-05-11T15:22:51Z</time>
</trkpt>
<trkpt lat="49.64120864868164" lon="9.392483672127128">
<ele>394.4</ele>
<time>2024-05-11T15:22:52Z</time>
</trkpt>
<trkpt lat="49.64117042720318" lon="9.392473194748163">
<ele>394.4</ele>
<time>2024-05-11T15:22:53Z</time>
</trkpt>
<trkpt lat="49.64112851768732" lon="9.39245693385601">
<ele>394.2</ele>
<time>2024-05-11T15:22:54Z</time>
</trkpt>
<trkpt lat="49.641082752496" lon="9.39243690110743">
<ele>394.2</ele>
<time>2024-05-11T15:22:55Z</time>
</trkpt>
<trkpt lat="49.641040759161115" lon="9.39241980202496">
<ele>394</ele>
<time>2024-05-11T15:22:56Z</time>
</trkpt>
<trkpt lat="49.640998765826225" lon="9.392401613295078">
<ele>394</ele>
<time>2024-05-11T15:22:57Z</time>
</trkpt>
<trkpt lat="49.64095685631037" lon="9.392386358231306">
<ele>393.8</ele>
<time>2024-05-11T15:22:58Z</time>
</trkpt>
<trkpt lat="49.64091486297548" lon="9.392370181158183">
<ele>393.8</ele>
<time>2024-05-11T15:22:59Z</time>
</trkpt>
<trkpt lat="49.64087672531605" lon="9.392352998256683">
<ele>393.8</ele>
<time>2024-05-11T15:23:00Z</time>
</trkpt>
<trkpt lat="49.64083096012473" lon="9.392336821183562">
<ele>393.6</ele>
<time>2024-05-11T15:23:01Z</time>
</trkpt>
<trkpt lat="49.640785194933414" lon="9.39232349395752">
<ele>393.6</ele>
<time>2024-05-11T15:23:02Z</time>
</trkpt>
<trkpt lat="49.64073557406664" lon="9.392312932759523">
<ele>393.6</ele>
<time>2024-05-11T15:23:03Z</time>
</trkpt>
<trkpt lat="49.64068980887532" lon="9.392305305227636">
<ele>393.6</ele>
<time>2024-05-11T15:23:04Z</time>
</trkpt>
<trkpt lat="49.64064018800855" lon="9.392296755686402">
<ele>393.4</ele>
<time>2024-05-11T15:23:05Z</time>
</trkpt>
<trkpt lat="49.6405906509608" lon="9.392294827848673">
<ele>393.4</ele>
<time>2024-05-11T15:23:06Z</time>
</trkpt>
<trkpt lat="49.640544885769486" lon="9.392294827848673">
<ele>393.2</ele>
<time>2024-05-11T15:23:07Z</time>
</trkpt>
<trkpt lat="49.64049526490271" lon="9.39230346120894">
<ele>393</ele>
<time>2024-05-11T15:23:08Z</time>
</trkpt>
<trkpt lat="49.640445644035935" lon="9.392318716272712">
<ele>392.8</ele>
<time>2024-05-11T15:23:09Z</time>
</trkpt>
<trkpt lat="49.64039987884462" lon="9.392332965508103">
<ele>392.6</ele>
<time>2024-05-11T15:23:10Z</time>
</trkpt>
<trkpt lat="49.6403541136533" lon="9.392350148409603">
<ele>392.4</ele>
<time>2024-05-11T15:23:11Z</time>
</trkpt>
<trkpt lat="49.640308348461986" lon="9.392370181158183">
<ele>392.4</ele>
<time>2024-05-11T15:23:12Z</time>
</trkpt>
<trkpt lat="49.64025872759521" lon="9.392393063753843">
<ele>392.2</ele>
<time>2024-05-11T15:23:13Z</time>
</trkpt>
<trkpt lat="49.64021681807935" lon="9.392415024340153">
<ele>392</ele>
<time>2024-05-11T15:23:14Z</time>
</trkpt>
<trkpt lat="49.64016719721258" lon="9.392437906935813">
<ele>391.8</ele>
<time>2024-05-11T15:23:15Z</time>
</trkpt>
<trkpt lat="49.64012143202126" lon="9.392463639378548">
<ele>391.8</ele>
<time>2024-05-11T15:23:16Z</time>
</trkpt>
<trkpt lat="49.64007943868637" lon="9.392486521974206">
<ele>391.6</ele>
<time>2024-05-11T15:23:17Z</time>
</trkpt>
<trkpt lat="49.64003752917051" lon="9.392511332407594">
<ele>391.4</ele>
<time>2024-05-11T15:23:18Z</time>
</trkpt>
<trkpt lat="49.63999930769205" lon="9.39253706485033">
<ele>391.2</ele>
<time>2024-05-11T15:23:19Z</time>
</trkpt>
<trkpt lat="49.63996502570808" lon="9.39255516976118">
<ele>391</ele>
<time>2024-05-11T15:23:20Z</time>
</trkpt>
<trkpt lat="49.639934515580535" lon="9.392571430653334">
<ele>390.8</ele>
<time>2024-05-11T15:23:21Z</time>
</trkpt>
<trkpt lat="49.63990014977753" lon="9.392586685717106">
<ele>390.8</ele>
<time>2024-05-11T15:23:22Z</time>
</trkpt>
<trkpt lat="49.63986586779356" lon="9.392606718465686">
<ele>390.8</ele>
<time>2024-05-11T15:23:23Z</time>
</trkpt>
<trkpt lat="49.63983150199056" lon="9.392626751214266">
<ele>390.8</ele>
<time>2024-05-11T15:23:24Z</time>
</trkpt>
<trkpt lat="49.63979713618755" lon="9.392642006278038">
<ele>390.8</ele>
<time>2024-05-11T15:23:25Z</time>
</trkpt>
<trkpt lat="49.63975899852812" lon="9.39265533350408">
<ele>390.8</ele>
<time>2024-05-11T15:23:26Z</time>
</trkpt>
<trkpt lat="49.63972471654415" lon="9.392666816711426">
<ele>390.8</ele>
<time>2024-05-11T15:23:27Z</time>
</trkpt>
<trkpt lat="49.63968272320926" lon="9.392682071775198">
<ele>390.8</ele>
<time>2024-05-11T15:23:28Z</time>
</trkpt>
<trkpt lat="49.63964458554983" lon="9.392693471163511">
<ele>391</ele>
<time>2024-05-11T15:23:29Z</time>
</trkpt>
<trkpt lat="49.63960259221494" lon="9.392708726227283">
<ele>391</ele>
<time>2024-05-11T15:23:30Z</time>
</trkpt>
<trkpt lat="49.63956445455551" lon="9.392721131443976">
<ele>391</ele>
<time>2024-05-11T15:23:31Z</time>
</trkpt>
<trkpt lat="49.639518689364195" lon="9.392733536660671">
<ele>391</ele>
<time>2024-05-11T15:23:32Z</time>
</trkpt>
<trkpt lat="49.63948055170477" lon="9.392742086201906">
<ele>391.2</ele>
<time>2024-05-11T15:23:33Z</time>
</trkpt>
<trkpt lat="49.63943478651345" lon="9.392751641571522">
<ele>391.2</ele>
<time>2024-05-11T15:23:34Z</time>
</trkpt>
<trkpt lat="49.63939664885402" lon="9.392760274931788">
<ele>391.2</ele>
<time>2024-05-11T15:23:35Z</time>
</trkpt>
<trkpt lat="49.63935465551913" lon="9.392766896635294">
<ele>391</ele>
<time>2024-05-11T15:23:36Z</time>
</trkpt>
<trkpt lat="49.6393165178597" lon="9.392771674320102">
<ele>391</ele>
<time>2024-05-11T15:23:37Z</time>
</trkpt>
<trkpt lat="49.63927452452481" lon="9.392780223861337">
<ele>390.8</ele>
<time>2024-05-11T15:23:38Z</time>
</trkpt>
<trkpt lat="49.63923261500895" lon="9.392787851393225">
<ele>390.8</ele>
<time>2024-05-11T15:23:39Z</time>
</trkpt>
<trkpt lat="49.63919447734952" lon="9.39279648475349">
<ele>390.6</ele>
<time>2024-05-11T15:23:40Z</time>
</trkpt>
<trkpt lat="49.63915633969009" lon="9.392805034294724">
<ele>390.4</ele>
<time>2024-05-11T15:23:41Z</time>
</trkpt>
<trkpt lat="49.63911811821163" lon="9.392811739817262">
<ele>390.2</ele>
<time>2024-05-11T15:23:42Z</time>
</trkpt>
<trkpt lat="49.6390799805522" lon="9.392820289358497">
<ele>390</ele>
<time>2024-05-11T15:23:43Z</time>
</trkpt>
<trkpt lat="49.639041842892766" lon="9.392829844728112">
<ele>389.8</ele>
<time>2024-05-11T15:23:44Z</time>
</trkpt>
<trkpt lat="49.639003705233335" lon="9.392840322107077">
<ele>389.6</ele>
<time>2024-05-11T15:23:45Z</time>
</trkpt>
<trkpt lat="49.63896933943033" lon="9.392847949638965">
<ele>389.4</ele>
<time>2024-05-11T15:23:46Z</time>
</trkpt>
<trkpt lat="49.6389312017709" lon="9.39285658299923">
<ele>389.2</ele>
<time>2024-05-11T15:23:47Z</time>
</trkpt>
<trkpt lat="49.63889306411147" lon="9.392863204702737">
<ele>389</ele>
<time>2024-05-11T15:23:48Z</time>
</trkpt>
<trkpt lat="49.63885492645204" lon="9.392869910225272">
<ele>388.8</ele>
<time>2024-05-11T15:23:49Z</time>
</trkpt>
<trkpt lat="49.63881678879261" lon="9.392880387604237">
<ele>388.6</ele>
<time>2024-05-11T15:23:50Z</time>
</trkpt>
<trkpt lat="49.63878242298961" lon="9.392889942973852">
<ele>388.4</ele>
<time>2024-05-11T15:23:51Z</time>
</trkpt>
<trkpt lat="49.638748141005635" lon="9.392898492515087">
<ele>388.4</ele>
<time>2024-05-11T15:23:52Z</time>
</trkpt>
<trkpt lat="49.63871377520263" lon="9.392908047884704">
<ele>388.4</ele>
<time>2024-05-11T15:23:53Z</time>
</trkpt>
<trkpt lat="49.6386756375432" lon="9.392921375110744">
<ele>388.2</ele>
<time>2024-05-11T15:23:54Z</time>
</trkpt>
<trkpt lat="49.63864135555923" lon="9.39293478615582">
<ele>388</ele>
<time>2024-05-11T15:23:55Z</time>
</trkpt>
<trkpt lat="49.63860698975623" lon="9.392948113381864">
<ele>388</ele>
<time>2024-05-11T15:23:56Z</time>
</trkpt>
<trkpt lat="49.63857262395322" lon="9.392959512770176">
<ele>387.8</ele>
<time>2024-05-11T15:23:57Z</time>
</trkpt>
<trkpt lat="49.63853834196925" lon="9.392978623509409">
<ele>387.8</ele>
<time>2024-05-11T15:23:58Z</time>
</trkpt>
<trkpt lat="49.63850397616625" lon="9.392996728420258">
<ele>387.8</ele>
<time>2024-05-11T15:23:59Z</time>
</trkpt>
<trkpt lat="49.638473466038704" lon="9.393016761168838">
<ele>387.8</ele>
<time>2024-05-11T15:24:00Z</time>
</trkpt>
<trkpt lat="49.6384391002357" lon="9.393038721755149">
<ele>387.8</ele>
<time>2024-05-11T15:24:01Z</time>
</trkpt>
<trkpt lat="49.63840481825173" lon="9.393061604350804">
<ele>387.8</ele>
<time>2024-05-11T15:24:02Z</time>
</trkpt>
<trkpt lat="49.638370452448726" lon="9.393085408955812">
<ele>387.8</ele>
<time>2024-05-11T15:24:03Z</time>
</trkpt>
<trkpt lat="49.638336170464754" lon="9.3931102193892">
<ele>387.8</ele>
<time>2024-05-11T15:24:04Z</time>
</trkpt>
<trkpt lat="49.63830180466175" lon="9.393131174147127">
<ele>387.8</ele>
<time>2024-05-11T15:24:05Z</time>
</trkpt>
<trkpt lat="49.638271294534206" lon="9.393155062571168">
<ele>388</ele>
<time>2024-05-11T15:24:06Z</time>
</trkpt>
<trkpt lat="49.6382369287312" lon="9.393177023157476">
<ele>388</ele>
<time>2024-05-11T15:24:07Z</time>
</trkpt>
<trkpt lat="49.63817213661969" lon="9.393224716186523">
<ele>388</ele>
<time>2024-05-11T15:24:09Z</time>
</trkpt>
<trkpt lat="49.63813777081669" lon="9.393253298476338">
<ele>388</ele>
<time>2024-05-11T15:24:10Z</time>
</trkpt>
<trkpt lat="49.63810340501368" lon="9.393281880766152">
<ele>387.8</ele>
<time>2024-05-11T15:24:11Z</time>
</trkpt>
<trkpt lat="49.63806912302971" lon="9.39330954104662">
<ele>387.8</ele>
<time>2024-05-11T15:24:12Z</time>
</trkpt>
<trkpt lat="49.638034757226706" lon="9.393336279317737">
<ele>388</ele>
<time>2024-05-11T15:24:13Z</time>
</trkpt>
<trkpt lat="49.638000475242734" lon="9.393364861607552">
<ele>388</ele>
<time>2024-05-11T15:24:14Z</time>
</trkpt>
<trkpt lat="49.63796996511519" lon="9.393395371735096">
<ele>388.2</ele>
<time>2024-05-11T15:24:15Z</time>
</trkpt>
<trkpt lat="49.637935599312186" lon="9.393423032015562">
<ele>388.2</ele>
<time>2024-05-11T15:24:16Z</time>
</trkpt>
<trkpt lat="49.63790123350918" lon="9.393451614305375">
<ele>388.4</ele>
<time>2024-05-11T15:24:17Z</time>
</trkpt>
<trkpt lat="49.63786695152521" lon="9.393481202423573">
<ele>388.4</ele>
<time>2024-05-11T15:24:18Z</time>
</trkpt>
<trkpt lat="49.63782881386578" lon="9.393511712551115">
<ele>388.2</ele>
<time>2024-05-11T15:24:19Z</time>
</trkpt>
<trkpt lat="49.63779067620635" lon="9.393541300669312">
<ele>388.2</ele>
<time>2024-05-11T15:24:20Z</time>
</trkpt>
<trkpt lat="49.63775631040335" lon="9.393571810796857">
<ele>388.2</ele>
<time>2024-05-11T15:24:21Z</time>
</trkpt>
<trkpt lat="49.63771817274392" lon="9.393600393086672">
<ele>388.2</ele>
<time>2024-05-11T15:24:22Z</time>
</trkpt>
<trkpt lat="49.63768380694091" lon="9.393628053367138">
<ele>388.2</ele>
<time>2024-05-11T15:24:23Z</time>
</trkpt>
<trkpt lat="49.63764952495694" lon="9.393652863800526">
<ele>388</ele>
<time>2024-05-11T15:24:24Z</time>
</trkpt>
<trkpt lat="49.63761515915394" lon="9.393678596243262">
<ele>388</ele>
<time>2024-05-11T15:24:25Z</time>
</trkpt>
<trkpt lat="49.63757702149451" lon="9.393706256523728">
<ele>387.8</ele>
<time>2024-05-11T15:24:26Z</time>
</trkpt>
<trkpt lat="49.637542655691504" lon="9.393736766651273">
<ele>387.8</ele>
<time>2024-05-11T15:24:27Z</time>
</trkpt>
<trkpt lat="49.63750837370753" lon="9.393766354769468">
<ele>387.8</ele>
<time>2024-05-11T15:24:28Z</time>
</trkpt>
<trkpt lat="49.63746638037264" lon="9.393794937059283">
<ele>387.8</ele>
<time>2024-05-11T15:24:29Z</time>
</trkpt>
<trkpt lat="49.63742824271321" lon="9.3938216753304">
<ele>387.8</ele>
<time>2024-05-11T15:24:30Z</time>
</trkpt>
<trkpt lat="49.63738624937832" lon="9.393851263448596">
<ele>388</ele>
<time>2024-05-11T15:24:31Z</time>
</trkpt>
<trkpt lat="49.63734811171889" lon="9.39388177357614">
<ele>388</ele>
<time>2024-05-11T15:24:32Z</time>
</trkpt>
<trkpt lat="49.63730997405946" lon="9.393911361694336">
<ele>388</ele>
<time>2024-05-11T15:24:33Z</time>
</trkpt>
<trkpt lat="49.63727183640003" lon="9.39393994398415">
<ele>387.8</ele>
<time>2024-05-11T15:24:34Z</time>
</trkpt>
<trkpt lat="49.63723747059703" lon="9.393971376121044">
<ele>387.8</ele>
<time>2024-05-11T15:24:35Z</time>
</trkpt>
<trkpt lat="49.63720318861306" lon="9.394006663933396">
<ele>387.6</ele>
<time>2024-05-11T15:24:36Z</time>
</trkpt>
<trkpt lat="49.63717645034194" lon="9.394041951745749">
<ele>387.6</ele>
<time>2024-05-11T15:24:37Z</time>
</trkpt>
<trkpt lat="49.63715356774628" lon="9.394075311720371">
<ele>387.6</ele>
<time>2024-05-11T15:24:38Z</time>
</trkpt>
<trkpt lat="49.63713068515062" lon="9.394102972000836">
<ele>387.6</ele>
<time>2024-05-11T15:24:39Z</time>
</trkpt>
<trkpt lat="49.637111658230424" lon="9.394131638109684">
<ele>387.6</ele>
<time>2024-05-11T15:24:40Z</time>
</trkpt>
<trkpt lat="49.63709254749119" lon="9.3941602203995">
<ele>387.4</ele>
<time>2024-05-11T15:24:41Z</time>
</trkpt>
<trkpt lat="49.63707343675196" lon="9.394186958670616">
<ele>387.4</ele>
<time>2024-05-11T15:24:42Z</time>
</trkpt>
<trkpt lat="49.63705440983176" lon="9.394213613122702">
<ele>387.2</ele>
<time>2024-05-11T15:24:43Z</time>
</trkpt>
<trkpt lat="49.637031527236104" lon="9.39424035139382">
<ele>387.2</ele>
<time>2024-05-11T15:24:44Z</time>
</trkpt>
<trkpt lat="49.63701241649687" lon="9.394271783530712">
<ele>387</ele>
<time>2024-05-11T15:24:45Z</time>
</trkpt>
<trkpt lat="49.63699338957667" lon="9.394308077171443">
<ele>386.8</ele>
<time>2024-05-11T15:24:46Z</time>
</trkpt>
<trkpt lat="49.636970506981015" lon="9.394346214830875">
<ele>386.6</ele>
<time>2024-05-11T15:24:47Z</time>
</trkpt>
<trkpt lat="49.63694762438536" lon="9.394383430480955">
<ele>386.4</ele>
<time>2024-05-11T15:24:48Z</time>
</trkpt>
<trkpt lat="49.6369247417897" lon="9.394421568140388">
<ele>386.2</ele>
<time>2024-05-11T15:24:49Z</time>
</trkpt>
<trkpt lat="49.63690177537501" lon="9.39445685595274">
<ele>385.8</ele>
<time>2024-05-11T15:24:50Z</time>
</trkpt>
<trkpt lat="49.63687889277935" lon="9.39449306577444">
<ele>385.6</ele>
<time>2024-05-11T15:24:51Z</time>
</trkpt>
<trkpt lat="49.63685601018369" lon="9.394524497911334">
<ele>385.2</ele>
<time>2024-05-11T15:24:52Z</time>
</trkpt>
<trkpt lat="49.63682935573161" lon="9.394556935876608">
<ele>385.2</ele>
<time>2024-05-11T15:24:53Z</time>
</trkpt>
<trkpt lat="49.63680647313595" lon="9.39459322951734">
<ele>385.2</ele>
<time>2024-05-11T15:24:54Z</time>
</trkpt>
<trkpt lat="49.63677973486483" lon="9.394631367176771">
<ele>385.2</ele>
<time>2024-05-11T15:24:55Z</time>
</trkpt>
<trkpt lat="49.63675685226917" lon="9.394671432673931">
<ele>385.2</ele>
<time>2024-05-11T15:24:56Z</time>
</trkpt>
<trkpt lat="49.636730113998055" lon="9.394709570333362">
<ele>385.4</ele>
<time>2024-05-11T15:24:57Z</time>
</trkpt>
<trkpt lat="49.63668057695031" lon="9.39479154534638">
<ele>385.4</ele>
<time>2024-05-11T15:24:59Z</time>
</trkpt>
<trkpt lat="49.63665006682277" lon="9.394836388528349">
<ele>385.4</ele>
<time>2024-05-11T15:25:00Z</time>
</trkpt>
<trkpt lat="49.63662332855165" lon="9.394876454025509">
<ele>385.2</ele>
<time>2024-05-11T15:25:01Z</time>
</trkpt>
<trkpt lat="49.636596674099565" lon="9.394916519522669">
<ele>385.2</ele>
<time>2024-05-11T15:25:02Z</time>
</trkpt>
<trkpt lat="49.63656993582845" lon="9.394954657182096">
<ele>385.2</ele>
<time>2024-05-11T15:25:03Z</time>
</trkpt>
<trkpt lat="49.63654319755733" lon="9.394993716850877">
<ele>385</ele>
<time>2024-05-11T15:25:04Z</time>
</trkpt>
<trkpt lat="49.636516543105245" lon="9.395031854510307">
<ele>385</ele>
<time>2024-05-11T15:25:05Z</time>
</trkpt>
<trkpt lat="49.636493660509586" lon="9.39506814815104">
<ele>384.8</ele>
<time>2024-05-11T15:25:06Z</time>
</trkpt>
<trkpt lat="49.63646692223847" lon="9.3951082136482">
<ele>384.8</ele>
<time>2024-05-11T15:25:07Z</time>
</trkpt>
<trkpt lat="49.63642115704715" lon="9.39518541097641">
<ele>384.8</ele>
<time>2024-05-11T15:25:09Z</time>
</trkpt>
<trkpt lat="49.636394418776035" lon="9.39522455446422">
<ele>384.8</ele>
<time>2024-05-11T15:25:10Z</time>
</trkpt>
<trkpt lat="49.63637153618038" lon="9.395268391817808">
<ele>384.8</ele>
<time>2024-05-11T15:25:11Z</time>
</trkpt>
<trkpt lat="49.63634488172829" lon="9.395311307162046">
<ele>384.6</ele>
<time>2024-05-11T15:25:12Z</time>
</trkpt>
<trkpt lat="49.63632577098906" lon="9.395357072353365">
<ele>384.6</ele>
<time>2024-05-11T15:25:13Z</time>
</trkpt>
<trkpt lat="49.63630674406886" lon="9.39540191553533">
<ele>384.6</ele>
<time>2024-05-11T15:25:14Z</time>
</trkpt>
<trkpt lat="49.63628763332963" lon="9.395444830879567">
<ele>384.4</ele>
<time>2024-05-11T15:25:15Z</time>
</trkpt>
<trkpt lat="49.63627623394132" lon="9.395484896376727">
<ele>384.4</ele>
<time>2024-05-11T15:25:16Z</time>
</trkpt>
<trkpt lat="49.63626475073397" lon="9.39552018418908">
<ele>384.2</ele>
<time>2024-05-11T15:25:17Z</time>
</trkpt>
<trkpt lat="49.63625335134566" lon="9.395554466173053">
<ele>384</ele>
<time>2024-05-11T15:25:18Z</time>
</trkpt>
<trkpt lat="49.63624186813831" lon="9.395589753985403">
<ele>383.8</ele>
<time>2024-05-11T15:25:19Z</time>
</trkpt>
<trkpt lat="49.63623046875" lon="9.39562026411295">
<ele>383.6</ele>
<time>2024-05-11T15:25:20Z</time>
</trkpt>
<trkpt lat="49.636218985542655" lon="9.395651780068874">
<ele>383.4</ele>
<time>2024-05-11T15:25:21Z</time>
</trkpt>
<trkpt lat="49.63620750233531" lon="9.395678518339992">
<ele>383.2</ele>
<time>2024-05-11T15:25:22Z</time>
</trkpt>
<trkpt lat="49.636196102947" lon="9.395709950476885">
<ele>383</ele>
<time>2024-05-11T15:25:23Z</time>
</trkpt>
<trkpt lat="49.636180847883224" lon="9.395746160298586">
<ele>382.8</ele>
<time>2024-05-11T15:25:24Z</time>
</trkpt>
<trkpt lat="49.63616936467588" lon="9.395785303786395">
<ele>382.8</ele>
<time>2024-05-11T15:25:26Z</time>
</trkpt>
<trkpt lat="49.636142710223794" lon="9.39585487358272">
<ele>382.6</ele>
<time>2024-05-11T15:25:27Z</time>
</trkpt>
<trkpt lat="49.63611597195268" lon="9.39591497182846">
<ele>382.6</ele>
<time>2024-05-11T15:25:29Z</time>
</trkpt>
<trkpt lat="49.636100716888905" lon="9.395939782261848">
<ele>382.4</ele>
<time>2024-05-11T15:25:30Z</time>
</trkpt>
<trkpt lat="49.636081689968705" lon="9.395951265469192">
<ele>382.4</ele>
<time>2024-05-11T15:25:31Z</time>
</trkpt>
<trkpt lat="49.63606643490493" lon="9.395953109487891">
<ele>382.2</ele>
<time>2024-05-11T15:25:32Z</time>
</trkpt>
<trkpt lat="49.63605109602213" lon="9.395939782261848">
<ele>382.2</ele>
<time>2024-05-11T15:25:33Z</time>
</trkpt>
<trkpt lat="49.63603584095836" lon="9.39591782167554">
<ele>382.2</ele>
<time>2024-05-11T15:25:34Z</time>
</trkpt>
<trkpt lat="49.63601681403816" lon="9.395883539691567">
<ele>382</ele>
<time>2024-05-11T15:25:35Z</time>
</trkpt>
<trkpt lat="49.63600533083081" lon="9.39585872925818">
<ele>381.8</ele>
<time>2024-05-11T15:25:36Z</time>
</trkpt>
<trkpt lat="49.635997703298926" lon="9.3958386965096">
<ele>381.6</ele>
<time>2024-05-11T15:25:37Z</time>
</trkpt>
<trkpt lat="49.63598630391061" lon="9.395819585770369">
<ele>381.4</ele>
<time>2024-05-11T15:25:38Z</time>
</trkpt>
<trkpt lat="49.63597867637873" lon="9.395810114219785">
<ele>381.2</ele>
<time>2024-05-11T15:25:39Z</time>
</trkpt>
<trkpt lat="49.63597867637873" lon="9.395808186382055">
<ele>380.8</ele>
<time>2024-05-11T15:25:40Z</time>
</trkpt>
<trkpt lat="49.63597482070327" lon="9.395806258544326">
<ele>380.6</ele>
<time>2024-05-11T15:25:41Z</time>
</trkpt>
<trkpt lat="49.63597482070327" lon="9.395808186382055">
<ele>380.4</ele>
<time>2024-05-11T15:25:46Z</time>
</trkpt>
<trkpt lat="49.63597482070327" lon="9.395810114219785">
<ele>380.2</ele>
<time>2024-05-11T15:25:47Z</time>
</trkpt>
<trkpt lat="49.63597482070327" lon="9.395811958238482">
<ele>380</ele>
<time>2024-05-11T15:25:49Z</time>
</trkpt>
<trkpt lat="49.63597867637873" lon="9.395811958238482">
<ele>379.8</ele>
<time>2024-05-11T15:25:50Z</time>
</trkpt>
<trkpt lat="49.63597867637873" lon="9.395810114219785">
<ele>379.6</ele>
<time>2024-05-11T15:25:59Z</time>
</trkpt>
<trkpt lat="49.63597867637873" lon="9.395806258544326">
<ele>379.4</ele>
<time>2024-05-11T15:26:00Z</time>
</trkpt>
<trkpt lat="49.63597482070327" lon="9.395788153633475">
<ele>379.2</ele>
<time>2024-05-11T15:26:01Z</time>
</trkpt>
<trkpt lat="49.63597104884684" lon="9.395761415362358">
<ele>379</ele>
<time>2024-05-11T15:26:02Z</time>
</trkpt>
<trkpt lat="49.63597104884684" lon="9.395727133378386">
<ele>378.8</ele>
<time>2024-05-11T15:26:03Z</time>
</trkpt>
<trkpt lat="49.63597104884684" lon="9.395685140043495">
<ele>378.6</ele>
<time>2024-05-11T15:26:04Z</time>
</trkpt>
<trkpt lat="49.63597104884684" lon="9.395631747320294">
<ele>378.6</ele>
<time>2024-05-11T15:26:05Z</time>
</trkpt>
<trkpt lat="49.63596719317138" lon="9.39556024968624">
<ele>378.4</ele>
<time>2024-05-11T15:26:06Z</time>
</trkpt>
<trkpt lat="49.635959565639496" lon="9.395498223602772">
<ele>378.2</ele>
<time>2024-05-11T15:26:07Z</time>
</trkpt>
<trkpt lat="49.63595193810761" lon="9.39544198103249">
<ele>378.2</ele>
<time>2024-05-11T15:26:08Z</time>
</trkpt>
<trkpt lat="49.63594816625118" lon="9.395395210012794">
<ele>378</ele>
<time>2024-05-11T15:26:09Z</time>
</trkpt>
<trkpt lat="49.63593668304384" lon="9.395351372659206">
<ele>378</ele>
<time>2024-05-11T15:26:10Z</time>
</trkpt>
<trkpt lat="49.635921427980065" lon="9.395308457314968">
<ele>378</ele>
<time>2024-05-11T15:26:11Z</time>
</trkpt>
<trkpt lat="49.63589854538441" lon="9.39526461996138">
<ele>377.8</ele>
<time>2024-05-11T15:26:12Z</time>
</trkpt>
<trkpt lat="49.63587566278875" lon="9.395221704617144">
<ele>377.8</ele>
<time>2024-05-11T15:26:13Z</time>
</trkpt>
<trkpt lat="49.63584892451763" lon="9.39518541097641">
<ele>377.6</ele>
<time>2024-05-11T15:26:14Z</time>
</trkpt>
<trkpt lat="49.6358107868582" lon="9.395152973011136">
<ele>377.6</ele>
<time>2024-05-11T15:26:15Z</time>
</trkpt>
<trkpt lat="49.63577650487423" lon="9.39512824639678">
<ele>377.4</ele>
<time>2024-05-11T15:26:16Z</time>
</trkpt>
<trkpt lat="49.6357383672148" lon="9.39510628581047">
<ele>377.2</ele>
<time>2024-05-11T15:26:17Z</time>
</trkpt>
<trkpt lat="49.63569637387991" lon="9.39508818089962">
<ele>377</ele>
<time>2024-05-11T15:26:18Z</time>
</trkpt>
<trkpt lat="49.63565060868859" lon="9.395071920007467">
<ele>376.6</ele>
<time>2024-05-11T15:26:19Z</time>
</trkpt>
<trkpt lat="49.63560484349728" lon="9.395052893087268">
<ele>376.2</ele>
<time>2024-05-11T15:26:20Z</time>
</trkpt>
<trkpt lat="49.635566705837846" lon="9.395038560032845">
<ele>375.8</ele>
<time>2024-05-11T15:26:21Z</time>
</trkpt>
<trkpt lat="49.635528484359384" lon="9.395023304969072">
<ele>375.4</ele>
<time>2024-05-11T15:26:22Z</time>
</trkpt>
<trkpt lat="49.63549034669995" lon="9.3950080499053">
<ele>375</ele>
<time>2024-05-11T15:26:23Z</time>
</trkpt>
<trkpt lat="49.63545220904052" lon="9.394993716850877">
<ele>374.6</ele>
<time>2024-05-11T15:26:24Z</time>
</trkpt>
<trkpt lat="49.63541407138109" lon="9.394974689930676">
<ele>374.2</ele>
<time>2024-05-11T15:26:25Z</time>
</trkpt>
<trkpt lat="49.635372161865234" lon="9.39495180733502">
<ele>373.8</ele>
<time>2024-05-11T15:26:26Z</time>
</trkpt>
<trkpt lat="49.635330168530345" lon="9.394925069063902">
<ele>373.4</ele>
<time>2024-05-11T15:26:27Z</time>
</trkpt>
<trkpt lat="49.635288175195456" lon="9.394896486774089">
<ele>373</ele>
<time>2024-05-11T15:26:28Z</time>
</trkpt>
<trkpt lat="49.63524241000414" lon="9.394866898655891">
<ele>372.6</ele>
<time>2024-05-11T15:26:29Z</time>
</trkpt>
<trkpt lat="49.635189017280936" lon="9.39483161084354">
<ele>372.2</ele>
<time>2024-05-11T15:26:30Z</time>
</trkpt>
<trkpt lat="49.63513939641416" lon="9.394795401021838">
<ele>371.8</ele>
<time>2024-05-11T15:26:31Z</time>
</trkpt>
<trkpt lat="49.63508985936642" lon="9.394755335524678">
<ele>371.4</ele>
<time>2024-05-11T15:26:32Z</time>
</trkpt>
<trkpt lat="49.635036466643214" lon="9.394715270027518">
<ele>371.2</ele>
<time>2024-05-11T15:26:33Z</time>
</trkpt>
<trkpt lat="49.63498684577644" lon="9.394675204530358">
<ele>370.8</ele>
<time>2024-05-11T15:26:34Z</time>
</trkpt>
<trkpt lat="49.63493345305323" lon="9.394633211195467">
<ele>370.4</ele>
<time>2024-05-11T15:26:35Z</time>
</trkpt>
<trkpt lat="49.63488768786192" lon="9.39459322951734">
<ele>369.8</ele>
<time>2024-05-11T15:26:36Z</time>
</trkpt>
<trkpt lat="49.63484946638346" lon="9.394546458497643">
<ele>369.4</ele>
<time>2024-05-11T15:26:37Z</time>
</trkpt>
<trkpt lat="49.63481132872403" lon="9.394497843459249">
<ele>369</ele>
<time>2024-05-11T15:26:38Z</time>
</trkpt>
<trkpt lat="49.63477319106459" lon="9.394445372745396">
<ele>368.4</ele>
<time>2024-05-11T15:26:39Z</time>
</trkpt>
<trkpt lat="49.634735053405166" lon="9.394385274499657">
<ele>368</ele>
<time>2024-05-11T15:26:40Z</time>
</trkpt>
<trkpt lat="49.634696915745735" lon="9.394325176253917">
<ele>367.4</ele>
<time>2024-05-11T15:26:41Z</time>
</trkpt>
<trkpt lat="49.63466640561819" lon="9.394265161827208">
<ele>366.8</ele>
<time>2024-05-11T15:26:42Z</time>
</trkpt>
<trkpt lat="49.63462826795876" lon="9.394201207906008">
<ele>366.2</ele>
<time>2024-05-11T15:26:43Z</time>
</trkpt>
<trkpt lat="49.63459390215576" lon="9.394134487956762">
<ele>365.6</ele>
<time>2024-05-11T15:26:44Z</time>
</trkpt>
<trkpt lat="49.634555764496326" lon="9.394068690016866">
<ele>364.8</ele>
<time>2024-05-11T15:26:45Z</time>
</trkpt>
<trkpt lat="49.63451385498047" lon="9.394001886248589">
<ele>363.8</ele>
<time>2024-05-11T15:26:46Z</time>
</trkpt>
<trkpt lat="49.63447186164558" lon="9.393931310623884">
<ele>363</ele>
<time>2024-05-11T15:26:47Z</time>
</trkpt>
<trkpt lat="49.63442986831069" lon="9.39386459067464">
<ele>362</ele>
<time>2024-05-11T15:26:48Z</time>
</trkpt>
<trkpt lat="49.634380331262946" lon="9.39380164258182">
<ele>361.2</ele>
<time>2024-05-11T15:26:49Z</time>
</trkpt>
<trkpt lat="49.63433071039617" lon="9.393738694489002">
<ele>360.4</ele>
<time>2024-05-11T15:26:50Z</time>
</trkpt>
<trkpt lat="49.634281089529395" lon="9.393678596243262">
<ele>359.6</ele>
<time>2024-05-11T15:26:51Z</time>
</trkpt>
<trkpt lat="49.63423155248165" lon="9.39362327568233">
<ele>358.8</ele>
<time>2024-05-11T15:26:52Z</time>
</trkpt>
<trkpt lat="49.634185787290335" lon="9.393574660643935">
<ele>358</ele>
<time>2024-05-11T15:26:53Z</time>
</trkpt>
<trkpt lat="49.63413616642356" lon="9.393529817461967">
<ele>357</ele>
<time>2024-05-11T15:26:54Z</time>
</trkpt>
<trkpt lat="49.634086545556784" lon="9.39348690211773">
<ele>356</ele>
<time>2024-05-11T15:26:55Z</time>
</trkpt>
<trkpt lat="49.63403315283358" lon="9.393440214917064">
<ele>355</ele>
<time>2024-05-11T15:26:56Z</time>
</trkpt>
<trkpt lat="49.63397976011038" lon="9.39338967204094">
<ele>354</ele>
<time>2024-05-11T15:26:57Z</time>
</trkpt>
<trkpt lat="49.6339301392436" lon="9.3933295737952">
<ele>352.8</ele>
<time>2024-05-11T15:26:58Z</time>
</trkpt>
<trkpt lat="49.633869118988514" lon="9.393255226314068">
<ele>352</ele>
<time>2024-05-11T15:26:59Z</time>
</trkpt>
<trkpt lat="49.63381572626531" lon="9.39316646195948">
<ele>351</ele>
<time>2024-05-11T15:27:00Z</time>
</trkpt>
<trkpt lat="49.63376233354211" lon="9.393068309873344">
<ele>350.2</ele>
<time>2024-05-11T15:27:01Z</time>
</trkpt>
<trkpt lat="49.63371656835079" lon="9.392968146130444">
<ele>349.4</ele>
<time>2024-05-11T15:27:02Z</time>
</trkpt>
<trkpt lat="49.63367843069136" lon="9.3928736820817">
<ele>348.6</ele>
<time>2024-05-11T15:27:03Z</time>
</trkpt>
<trkpt lat="49.6336402092129" lon="9.39277837984264">
<ele>348</ele>
<time>2024-05-11T15:27:04Z</time>
</trkpt>
<trkpt lat="49.63360592722893" lon="9.392684921622276">
<ele>347.2</ele>
<time>2024-05-11T15:27:05Z</time>
</trkpt>
<trkpt lat="49.6335677895695" lon="9.392589535564184">
<ele>346.8</ele>
<time>2024-05-11T15:27:06Z</time>
</trkpt>
<trkpt lat="49.63352965191007" lon="9.392493227496743">
<ele>346.2</ele>
<time>2024-05-11T15:27:07Z</time>
</trkpt>
<trkpt lat="49.63348765857518" lon="9.392394991591573">
<ele>345.4</ele>
<time>2024-05-11T15:27:08Z</time>
</trkpt>
<trkpt lat="49.63344952091575" lon="9.392292900010943">
<ele>344.8</ele>
<time>2024-05-11T15:27:09Z</time>
</trkpt>
<trkpt lat="49.63341138325632" lon="9.392189970239995">
<ele>344.4</ele>
<time>2024-05-11T15:27:10Z</time>
</trkpt>
<trkpt lat="49.63338087312877" lon="9.39208695665002">
<ele>343.8</ele>
<time>2024-05-11T15:27:11Z</time>
</trkpt>
<trkpt lat="49.633365618065" lon="9.39198679290712">
<ele>343.4</ele>
<time>2024-05-11T15:27:12Z</time>
</trkpt>
<trkpt lat="49.633354134857655" lon="9.391891406849028">
<ele>343</ele>
<time>2024-05-11T15:27:13Z</time>
</trkpt>
<trkpt lat="49.63334650732577" lon="9.39180850982666">
<ele>342.8</ele>
<time>2024-05-11T15:27:14Z</time>
</trkpt>
<trkpt lat="49.633335107937455" lon="9.391733156517148">
<ele>342.6</ele>
<time>2024-05-11T15:27:15Z</time>
</trkpt>
<trkpt lat="49.633335107937455" lon="9.391672052443027">
<ele>342.6</ele>
<time>2024-05-11T15:27:16Z</time>
</trkpt>
<trkpt lat="49.633331252262" lon="9.391618659719825">
<ele>342.6</ele>
<time>2024-05-11T15:27:17Z</time>
</trkpt>
<trkpt lat="49.63332748040557" lon="9.3915681168437">
<ele>342.6</ele>
<time>2024-05-11T15:27:19Z</time>
</trkpt>
<trkpt lat="49.633315997198224" lon="9.391468036919832">
<ele>342.6</ele>
<time>2024-05-11T15:27:20Z</time>
</trkpt>
<trkpt lat="49.6333122253418" lon="9.391416488215327">
<ele>342.6</ele>
<time>2024-05-11T15:27:21Z</time>
</trkpt>
<trkpt lat="49.63330836966634" lon="9.391366951167583">
<ele>342.8</ele>
<time>2024-05-11T15:27:22Z</time>
</trkpt>
<trkpt lat="49.63330836966634" lon="9.391318252310157">
<ele>343</ele>
<time>2024-05-11T15:27:23Z</time>
</trkpt>
<trkpt lat="49.63330074213445" lon="9.391269637271762">
<ele>343.4</ele>
<time>2024-05-11T15:27:24Z</time>
</trkpt>
<trkpt lat="49.633293114602566" lon="9.391222950071096">
<ele>343.8</ele>
<time>2024-05-11T15:27:25Z</time>
</trkpt>
<trkpt lat="49.63328548707068" lon="9.39117332920432">
<ele>344.2</ele>
<time>2024-05-11T15:27:26Z</time>
</trkpt>
<trkpt lat="49.633274003863335" lon="9.391124714165926">
<ele>344.6</ele>
<time>2024-05-11T15:27:27Z</time>
</trkpt>
<trkpt lat="49.63326637633145" lon="9.391079870983958">
<ele>344.8</ele>
<time>2024-05-11T15:27:28Z</time>
</trkpt>
<trkpt lat="49.63325112126768" lon="9.39103309996426">
<ele>345.2</ele>
<time>2024-05-11T15:27:29Z</time>
</trkpt>
<trkpt lat="49.633235866203904" lon="9.390988340601323">
<ele>345.6</ele>
<time>2024-05-11T15:27:30Z</time>
</trkpt>
<trkpt lat="49.63322061114013" lon="9.390945425257089">
<ele>345.8</ele>
<time>2024-05-11T15:27:31Z</time>
</trkpt>
<trkpt lat="49.63320158421993" lon="9.390905359759929">
<ele>346.2</ele>
<time>2024-05-11T15:27:32Z</time>
</trkpt>
<trkpt lat="49.6331634465605" lon="9.390825228765609">
<ele>346.6</ele>
<time>2024-05-11T15:27:34Z</time>
</trkpt>
<trkpt lat="49.63314433582127" lon="9.390788013115523">
<ele>347</ele>
<time>2024-05-11T15:27:35Z</time>
</trkpt>
<trkpt lat="49.63312145322561" lon="9.390751803293824">
<ele>347.4</ele>
<time>2024-05-11T15:27:36Z</time>
</trkpt>
<trkpt lat="49.63310234248638" lon="9.390716515481472">
<ele>347.8</ele>
<time>2024-05-11T15:27:37Z</time>
</trkpt>
<trkpt lat="49.63308331556618" lon="9.39068122766912">
<ele>348.2</ele>
<time>2024-05-11T15:27:38Z</time>
</trkpt>
<trkpt lat="49.63306420482695" lon="9.390647867694495">
<ele>348.8</ele>
<time>2024-05-11T15:27:39Z</time>
</trkpt>
<trkpt lat="49.63304517790675" lon="9.390613501891494">
<ele>349.2</ele>
<time>2024-05-11T15:27:40Z</time>
</trkpt>
<trkpt lat="49.63302606716752" lon="9.390578214079142">
<ele>349.6</ele>
<time>2024-05-11T15:27:41Z</time>
</trkpt>
<trkpt lat="49.63300704024732" lon="9.39054200425744">
<ele>350</ele>
<time>2024-05-11T15:27:42Z</time>
</trkpt>
<trkpt lat="49.63298792950809" lon="9.390506716445088">
<ele>350.2</ele>
<time>2024-05-11T15:27:43Z</time>
</trkpt>
<trkpt lat="49.63296504691243" lon="9.390473356470466">
<ele>350.6</ele>
<time>2024-05-11T15:27:44Z</time>
</trkpt>
<trkpt lat="49.63294216431677" lon="9.39044184051454">
<ele>350.8</ele>
<time>2024-05-11T15:27:45Z</time>
</trkpt>
<trkpt lat="49.63292305357754" lon="9.390411330386996">
<ele>351.2</ele>
<time>2024-05-11T15:27:46Z</time>
</trkpt>
<trkpt lat="49.63289639912546" lon="9.390386519953609">
<ele>351.4</ele>
<time>2024-05-11T15:27:47Z</time>
</trkpt>
<trkpt lat="49.6328735165298" lon="9.39036464318633">
<ele>351.8</ele>
<time>2024-05-11T15:27:48Z</time>
</trkpt>
<trkpt lat="49.63285063393414" lon="9.390346454456449">
<ele>352.2</ele>
<time>2024-05-11T15:27:49Z</time>
</trkpt>
<trkpt lat="49.63283152319491" lon="9.390330277383327">
<ele>352.4</ele>
<time>2024-05-11T15:27:50Z</time>
</trkpt>
<trkpt lat="49.63280864059925" lon="9.390313094481826">
<ele>352.8</ele>
<time>2024-05-11T15:27:51Z</time>
</trkpt>
<trkpt lat="49.63279338553548" lon="9.39028644002974">
<ele>353</ele>
<time>2024-05-11T15:27:52Z</time>
</trkpt>
<trkpt lat="49.632778130471706" lon="9.390250146389008">
<ele>353.4</ele>
<time>2024-05-11T15:27:53Z</time>
</trkpt>
<trkpt lat="49.632762875407934" lon="9.39020630903542">
<ele>353.6</ele>
<time>2024-05-11T15:27:54Z</time>
</trkpt>
<trkpt lat="49.63273613713682" lon="9.390114778652787">
<ele>353.8</ele>
<time>2024-05-11T15:27:56Z</time>
</trkpt>
<trkpt lat="49.632724737748504" lon="9.39006708562374">
<ele>354</ele>
<time>2024-05-11T15:27:57Z</time>
</trkpt>
<trkpt lat="49.63271325454116" lon="9.390018386766316">
<ele>354.2</ele>
<time>2024-05-11T15:27:58Z</time>
</trkpt>
<trkpt lat="49.632701855152845" lon="9.38996977172792">
<ele>354.4</ele>
<time>2024-05-11T15:27:59Z</time>
</trkpt>
<trkpt lat="49.6326903719455" lon="9.389921156689525">
<ele>354.4</ele>
<time>2024-05-11T15:28:00Z</time>
</trkpt>
<trkpt lat="49.63267511688173" lon="9.38987346366048">
<ele>354.6</ele>
<time>2024-05-11T15:28:01Z</time>
</trkpt>
<trkpt lat="49.63265986181795" lon="9.38982862047851">
<ele>354.6</ele>
<time>2024-05-11T15:28:02Z</time>
</trkpt>
<trkpt lat="49.632644606754184" lon="9.389780005440116">
<ele>354.6</ele>
<time>2024-05-11T15:28:03Z</time>
</trkpt>
<trkpt lat="49.63263320736587" lon="9.38973139040172">
<ele>354.6</ele>
<time>2024-05-11T15:28:04Z</time>
</trkpt>
<trkpt lat="49.63261786848307" lon="9.389683697372677">
<ele>354.6</ele>
<time>2024-05-11T15:28:05Z</time>
</trkpt>
<trkpt lat="49.63259884156287" lon="9.38963315449655">
<ele>354.6</ele>
<time>2024-05-11T15:28:06Z</time>
</trkpt>
<trkpt lat="49.63257973082363" lon="9.389584539458156">
<ele>354.6</ele>
<time>2024-05-11T15:28:07Z</time>
</trkpt>
<trkpt lat="49.63256070390344" lon="9.38953491859138">
<ele>354.6</ele>
<time>2024-05-11T15:28:08Z</time>
</trkpt>
<trkpt lat="49.63253396563232" lon="9.389486303552983">
<ele>354.6</ele>
<time>2024-05-11T15:28:09Z</time>
</trkpt>
<trkpt lat="49.632507311180234" lon="9.389441460371016">
<ele>354.4</ele>
<time>2024-05-11T15:28:10Z</time>
</trkpt>
<trkpt lat="49.63248057290912" lon="9.389392845332624">
<ele>354.2</ele>
<time>2024-05-11T15:28:11Z</time>
</trkpt>
<trkpt lat="49.63245391845703" lon="9.389346996322274">
<ele>354.2</ele>
<time>2024-05-11T15:28:12Z</time>
</trkpt>
<trkpt lat="49.632423324510455" lon="9.389300309121609">
<ele>354</ele>
<time>2024-05-11T15:28:13Z</time>
</trkpt>
<trkpt lat="49.63238904252648" lon="9.389253538101912">
<ele>353.8</ele>
<time>2024-05-11T15:28:14Z</time>
</trkpt>
<trkpt lat="49.63235853239894" lon="9.389209700748324">
<ele>353.8</ele>
<time>2024-05-11T15:28:15Z</time>
</trkpt>
<trkpt lat="49.632324166595936" lon="9.389166785404086">
<ele>353.6</ele>
<time>2024-05-11T15:28:16Z</time>
</trkpt>
<trkpt lat="49.63229365646839" lon="9.389124792069197">
<ele>353.6</ele>
<time>2024-05-11T15:28:17Z</time>
</trkpt>
<trkpt lat="49.63226314634085" lon="9.38908288255334">
<ele>353.6</ele>
<time>2024-05-11T15:28:18Z</time>
</trkpt>
<trkpt lat="49.63222878053784" lon="9.3890399672091">
<ele>353.4</ele>
<time>2024-05-11T15:28:19Z</time>
</trkpt>
<trkpt lat="49.63219449855387" lon="9.38900182954967">
<ele>353.4</ele>
<time>2024-05-11T15:28:20Z</time>
</trkpt>
<trkpt lat="49.63216013275087" lon="9.38896176405251">
<ele>353.4</ele>
<time>2024-05-11T15:28:21Z</time>
</trkpt>
<trkpt lat="49.63212199509144" lon="9.38892362639308">
<ele>353.4</ele>
<time>2024-05-11T15:28:22Z</time>
</trkpt>
<trkpt lat="49.632087629288435" lon="9.38888356089592">
<ele>353.4</ele>
<time>2024-05-11T15:28:23Z</time>
</trkpt>
<trkpt lat="49.63205334730446" lon="9.388850200921295">
<ele>353.2</ele>
<time>2024-05-11T15:28:24Z</time>
</trkpt>
<trkpt lat="49.63202283717692" lon="9.38882153481245">
<ele>353.2</ele>
<time>2024-05-11T15:28:25Z</time>
</trkpt>
<trkpt lat="49.631992327049375" lon="9.388790102675555">
<ele>353.2</ele>
<time>2024-05-11T15:28:26Z</time>
</trkpt>
<trkpt lat="49.63195796124637" lon="9.388758586719632">
<ele>353.2</ele>
<time>2024-05-11T15:28:27Z</time>
</trkpt>
<trkpt lat="49.631893085315824" lon="9.388696644455194">
<ele>353.2</ele>
<time>2024-05-11T15:28:29Z</time>
</trkpt>
<trkpt lat="49.63185494765639" lon="9.388661356642842">
<ele>353</ele>
<time>2024-05-11T15:28:30Z</time>
</trkpt>
<trkpt lat="49.63182066567242" lon="9.388631768524649">
<ele>353</ele>
<time>2024-05-11T15:28:31Z</time>
</trkpt>
<trkpt lat="49.63178629986942" lon="9.388598408550024">
<ele>352.8</ele>
<time>2024-05-11T15:28:32Z</time>
</trkpt>
<trkpt lat="49.6317061688751" lon="9.38852498307824">
<ele>352.8</ele>
<time>2024-05-11T15:28:34Z</time>
</trkpt>
<trkpt lat="49.63166040368378" lon="9.388482989743352">
<ele>352.8</ele>
<time>2024-05-11T15:28:35Z</time>
</trkpt>
<trkpt lat="49.631614638492465" lon="9.388442924246192">
<ele>352.8</ele>
<time>2024-05-11T15:28:36Z</time>
</trkpt>
<trkpt lat="49.63156501762569" lon="9.388400008901954">
<ele>352.8</ele>
<time>2024-05-11T15:28:37Z</time>
</trkpt>
<trkpt lat="49.63146971538663" lon="9.388301772996783">
<ele>352.8</ele>
<time>2024-05-11T15:28:39Z</time>
</trkpt>
<trkpt lat="49.631420094519854" lon="9.388243602588773">
<ele>352.8</ele>
<time>2024-05-11T15:28:40Z</time>
</trkpt>
<trkpt lat="49.63137810118496" lon="9.388179732486606">
<ele>352.8</ele>
<time>2024-05-11T15:28:41Z</time>
</trkpt>
<trkpt lat="49.631339963525534" lon="9.388118712231517">
<ele>352.8</ele>
<time>2024-05-11T15:28:42Z</time>
</trkpt>
<trkpt lat="49.6313018258661" lon="9.388056686148047">
<ele>352.8</ele>
<time>2024-05-11T15:28:43Z</time>
</trkpt>
<trkpt lat="49.63126368820667" lon="9.388000443577766">
<ele>352.8</ele>
<time>2024-05-11T15:28:44Z</time>
</trkpt>
<trkpt lat="49.63122555054724" lon="9.387947972863913">
<ele>352.8</ele>
<time>2024-05-11T15:28:45Z</time>
</trkpt>
<trkpt lat="49.6311950404197" lon="9.38789650797844">
<ele>352.8</ele>
<time>2024-05-11T15:28:46Z</time>
</trkpt>
<trkpt lat="49.631160674616694" lon="9.387847892940044">
<ele>352.8</ele>
<time>2024-05-11T15:28:47Z</time>
</trkpt>
<trkpt lat="49.63113016448915" lon="9.387804977595806">
<ele>352.8</ele>
<time>2024-05-11T15:28:48Z</time>
</trkpt>
<trkpt lat="49.63109588250518" lon="9.387762984260917">
<ele>352.8</ele>
<time>2024-05-11T15:28:49Z</time>
</trkpt>
<trkpt lat="49.631061516702175" lon="9.387718141078947">
<ele>352.8</ele>
<time>2024-05-11T15:28:50Z</time>
</trkpt>
<trkpt lat="49.63103100657463" lon="9.38767329789698">
<ele>352.8</ele>
<time>2024-05-11T15:28:51Z</time>
</trkpt>
<trkpt lat="49.63099664077163" lon="9.387630382552745">
<ele>352.8</ele>
<time>2024-05-11T15:28:52Z</time>
</trkpt>
<trkpt lat="49.6309585031122" lon="9.387588473036883">
<ele>353</ele>
<time>2024-05-11T15:28:53Z</time>
</trkpt>
<trkpt lat="49.630924221128225" lon="9.387550335377457">
<ele>353</ele>
<time>2024-05-11T15:28:54Z</time>
</trkpt>
<trkpt lat="49.63088985532522" lon="9.387511191889644">
<ele>353</ele>
<time>2024-05-11T15:28:55Z</time>
</trkpt>
<trkpt lat="49.63085934519768" lon="9.387476909905672">
<ele>353.2</ele>
<time>2024-05-11T15:28:56Z</time>
</trkpt>
<trkpt lat="49.63082883507013" lon="9.38744162209332">
<ele>353.4</ele>
<time>2024-05-11T15:28:57Z</time>
</trkpt>
<trkpt lat="49.630805952474475" lon="9.387410106137397">
<ele>353.6</ele>
<time>2024-05-11T15:28:58Z</time>
</trkpt>
<trkpt lat="49.63078306987882" lon="9.38737959600985">
<ele>354</ele>
<time>2024-05-11T15:28:59Z</time>
</trkpt>
<trkpt lat="49.63076018728316" lon="9.387352941557763">
<ele>354.2</ele>
<time>2024-05-11T15:29:00Z</time>
</trkpt>
<trkpt lat="49.63073344901204" lon="9.387326203286648">
<ele>354.6</ele>
<time>2024-05-11T15:29:01Z</time>
</trkpt>
<trkpt lat="49.63070671074093" lon="9.387300470843911">
<ele>354.8</ele>
<time>2024-05-11T15:29:02Z</time>
</trkpt>
<trkpt lat="49.630683828145266" lon="9.387269960716369">
<ele>355.2</ele>
<time>2024-05-11T15:29:03Z</time>
</trkpt>
<trkpt lat="49.63065717369318" lon="9.38724129460752">
<ele>355.4</ele>
<time>2024-05-11T15:29:04Z</time>
</trkpt>
<trkpt lat="49.63063043542206" lon="9.387214640155436">
<ele>355.6</ele>
<time>2024-05-11T15:29:05Z</time>
</trkpt>
<trkpt lat="49.630607552826405" lon="9.387187901884316">
<ele>355.8</ele>
<time>2024-05-11T15:29:06Z</time>
</trkpt>
<trkpt lat="49.63058089837432" lon="9.387161247432232">
<ele>356</ele>
<time>2024-05-11T15:29:07Z</time>
</trkpt>
<trkpt lat="49.63055793195963" lon="9.387134509161116">
<ele>356.2</ele>
<time>2024-05-11T15:29:08Z</time>
</trkpt>
<trkpt lat="49.63053504936397" lon="9.387107770889996">
<ele>356.4</ele>
<time>2024-05-11T15:29:09Z</time>
</trkpt>
<trkpt lat="49.63051216676831" lon="9.38708203844726">
<ele>356.8</ele>
<time>2024-05-11T15:29:10Z</time>
</trkpt>
<trkpt lat="49.630489284172654" lon="9.387056306004524">
<ele>357</ele>
<time>2024-05-11T15:29:11Z</time>
</trkpt>
<trkpt lat="49.63046262972057" lon="9.387031495571136">
<ele>357.2</ele>
<time>2024-05-11T15:29:12Z</time>
</trkpt>
<trkpt lat="49.63043589144945" lon="9.387004841119053">
<ele>357.4</ele>
<time>2024-05-11T15:29:13Z</time>
</trkpt>
<trkpt lat="49.63040538132191" lon="9.386976175010204">
<ele>357.6</ele>
<time>2024-05-11T15:29:14Z</time>
</trkpt>
<trkpt lat="49.63037864305079" lon="9.38694952055812">
<ele>357.8</ele>
<time>2024-05-11T15:29:15Z</time>
</trkpt>
<trkpt lat="49.630351988598704" lon="9.386921860277653">
<ele>358</ele>
<time>2024-05-11T15:29:16Z</time>
</trkpt>
<trkpt lat="49.630329106003046" lon="9.386893194168806">
<ele>358.2</ele>
<time>2024-05-11T15:29:17Z</time>
</trkpt>
<trkpt lat="49.63030236773193" lon="9.386863689869642">
<ele>358.2</ele>
<time>2024-05-11T15:29:18Z</time>
</trkpt>
<trkpt lat="49.63027571327984" lon="9.386835023760796">
<ele>358.4</ele>
<time>2024-05-11T15:29:19Z</time>
</trkpt>
<trkpt lat="49.6302452031523" lon="9.38680836930871">
<ele>358.6</ele>
<time>2024-05-11T15:29:20Z</time>
</trkpt>
<trkpt lat="49.63021460920572" lon="9.386783558875322">
<ele>358.8</ele>
<time>2024-05-11T15:29:21Z</time>
</trkpt>
<trkpt lat="49.63018409907818" lon="9.386756820604203">
<ele>359</ele>
<time>2024-05-11T15:29:22Z</time>
</trkpt>
<trkpt lat="49.63012307882309" lon="9.386705355718732">
<ele>359</ele>
<time>2024-05-11T15:29:24Z</time>
</trkpt>
<trkpt lat="49.63008879683912" lon="9.386681551113725">
<ele>359.2</ele>
<time>2024-05-11T15:29:25Z</time>
</trkpt>
<trkpt lat="49.630058286711574" lon="9.386659590527415">
<ele>359.4</ele>
<time>2024-05-11T15:29:26Z</time>
</trkpt>
<trkpt lat="49.630027692765" lon="9.386639557778835">
<ele>359.4</ele>
<time>2024-05-11T15:29:27Z</time>
</trkpt>
<trkpt lat="49.62995904497802" lon="9.386603347957134">
<ele>359.6</ele>
<time>2024-05-11T15:29:29Z</time>
</trkpt>
<trkpt lat="49.62992853485048" lon="9.38658708706498">
<ele>360</ele>
<time>2024-05-11T15:29:30Z</time>
</trkpt>
<trkpt lat="49.629898024722934" lon="9.38657183200121">
<ele>360.2</ele>
<time>2024-05-11T15:29:31Z</time>
</trkpt>
<trkpt lat="49.62986365891993" lon="9.386558504775168">
<ele>360.4</ele>
<time>2024-05-11T15:29:32Z</time>
</trkpt>
<trkpt lat="49.62982937693596" lon="9.386543249711394">
<ele>360.8</ele>
<time>2024-05-11T15:29:33Z</time>
</trkpt>
<trkpt lat="49.62979501113296" lon="9.386527994647622">
<ele>361</ele>
<time>2024-05-11T15:29:34Z</time>
</trkpt>
<trkpt lat="49.629760729148984" lon="9.3865136615932">
<ele>361.2</ele>
<time>2024-05-11T15:29:35Z</time>
</trkpt>
<trkpt lat="49.62972636334598" lon="9.386500334367156">
<ele>361.6</ele>
<time>2024-05-11T15:29:36Z</time>
</trkpt>
<trkpt lat="49.62969199754298" lon="9.386487929150462">
<ele>361.8</ele>
<time>2024-05-11T15:29:37Z</time>
</trkpt>
<trkpt lat="49.62966148741543" lon="9.386476445943115">
<ele>362</ele>
<time>2024-05-11T15:29:38Z</time>
</trkpt>
<trkpt lat="49.62962720543146" lon="9.386465046554804">
<ele>362.2</ele>
<time>2024-05-11T15:29:39Z</time>
</trkpt>
<trkpt lat="49.62959283962846" lon="9.38645356334746">
<ele>362.4</ele>
<time>2024-05-11T15:29:40Z</time>
</trkpt>
<trkpt lat="49.62955470196903" lon="9.386443085968494">
<ele>362.6</ele>
<time>2024-05-11T15:29:41Z</time>
</trkpt>
<trkpt lat="49.62952419184148" lon="9.38643168658018">
<ele>362.8</ele>
<time>2024-05-11T15:29:42Z</time>
</trkpt>
<trkpt lat="49.62948982603848" lon="9.386420203372836">
<ele>363.2</ele>
<time>2024-05-11T15:29:43Z</time>
</trkpt>
<trkpt lat="49.62945554405451" lon="9.386407798156142">
<ele>363.4</ele>
<time>2024-05-11T15:29:44Z</time>
</trkpt>
<trkpt lat="49.62942503392696" lon="9.386396398767827">
<ele>363.8</ele>
<time>2024-05-11T15:29:45Z</time>
</trkpt>
<trkpt lat="49.62939066812396" lon="9.386384915560484">
<ele>364.2</ele>
<time>2024-05-11T15:29:46Z</time>
</trkpt>
<trkpt lat="49.62935630232096" lon="9.38637351617217">
<ele>364.4</ele>
<time>2024-05-11T15:29:47Z</time>
</trkpt>
<trkpt lat="49.629322020336986" lon="9.386362954974174">
<ele>364.6</ele>
<time>2024-05-11T15:29:48Z</time>
</trkpt>
<trkpt lat="49.62928765453398" lon="9.386349627748132">
<ele>365</ele>
<time>2024-05-11T15:29:49Z</time>
</trkpt>
<trkpt lat="49.62925337255001" lon="9.386336300522087">
<ele>365.2</ele>
<time>2024-05-11T15:29:50Z</time>
</trkpt>
<trkpt lat="49.629222862422466" lon="9.386324817314744">
<ele>365.2</ele>
<time>2024-05-11T15:29:51Z</time>
</trkpt>
<trkpt lat="49.62918849661946" lon="9.3863114900887">
<ele>365.4</ele>
<time>2024-05-11T15:29:52Z</time>
</trkpt>
<trkpt lat="49.62915413081646" lon="9.38629338517785">
<ele>365.6</ele>
<time>2024-05-11T15:29:53Z</time>
</trkpt>
<trkpt lat="49.62911984883249" lon="9.386269496753812">
<ele>365.8</ele>
<time>2024-05-11T15:29:54Z</time>
</trkpt>
<trkpt lat="49.62909311056137" lon="9.386239992454648">
<ele>366.2</ele>
<time>2024-05-11T15:29:55Z</time>
</trkpt>
<trkpt lat="49.629066456109285" lon="9.386203698813915">
<ele>366.6</ele>
<time>2024-05-11T15:29:56Z</time>
</trkpt>
<trkpt lat="49.62904357351363" lon="9.386166566982864">
<ele>366.8</ele>
<time>2024-05-11T15:29:57Z</time>
</trkpt>
<trkpt lat="49.62902069091797" lon="9.38613505102694">
<ele>367.2</ele>
<time>2024-05-11T15:29:58Z</time>
</trkpt>
<trkpt lat="49.62899395264685" lon="9.386106468737124">
<ele>367.4</ele>
<time>2024-05-11T15:29:59Z</time>
</trkpt>
<trkpt lat="49.62895958684385" lon="9.386086435988544">
<ele>367.8</ele>
<time>2024-05-11T15:30:00Z</time>
</trkpt>
<trkpt lat="49.62892530485988" lon="9.3860749527812">
<ele>368</ele>
<time>2024-05-11T15:30:01Z</time>
</trkpt>
<trkpt lat="49.62889093905687" lon="9.386071180924771">
<ele>368.4</ele>
<time>2024-05-11T15:30:02Z</time>
</trkpt>
<trkpt lat="49.62885280139744" lon="9.3860749527812">
<ele>368.6</ele>
<time>2024-05-11T15:30:03Z</time>
</trkpt>
<trkpt lat="49.62881080806255" lon="9.386081658303738">
<ele>368.8</ele>
<time>2024-05-11T15:30:04Z</time>
</trkpt>
<trkpt lat="49.62877652607858" lon="9.386086435988544">
<ele>369</ele>
<time>2024-05-11T15:30:05Z</time>
</trkpt>
<trkpt lat="49.62873453274369" lon="9.386093057692053">
<ele>369.2</ele>
<time>2024-05-11T15:30:06Z</time>
</trkpt>
<trkpt lat="49.62869639508426" lon="9.38609498552978">
<ele>369.4</ele>
<time>2024-05-11T15:30:07Z</time>
</trkpt>
<trkpt lat="49.62865825742483" lon="9.38609498552978">
<ele>369.8</ele>
<time>2024-05-11T15:30:08Z</time>
</trkpt>
<trkpt lat="49.6286201197654" lon="9.386093057692053">
<ele>370</ele>
<time>2024-05-11T15:30:09Z</time>
</trkpt>
<trkpt lat="49.62857812643051" lon="9.386088363826277">
<ele>370.2</ele>
<time>2024-05-11T15:30:10Z</time>
</trkpt>
<trkpt lat="49.62853998877108" lon="9.3860749527812">
<ele>370.2</ele>
<time>2024-05-11T15:30:11Z</time>
</trkpt>
<trkpt lat="49.62850570678711" lon="9.386059697717428">
<ele>370.4</ele>
<time>2024-05-11T15:30:12Z</time>
</trkpt>
<trkpt lat="49.62846748530865" lon="9.386045448482037">
<ele>370.6</ele>
<time>2024-05-11T15:30:13Z</time>
</trkpt>
<trkpt lat="49.62842934764922" lon="9.386032037436962">
<ele>370.8</ele>
<time>2024-05-11T15:30:14Z</time>
</trkpt>
<trkpt lat="49.628391209989786" lon="9.38601871021092">
<ele>370.8</ele>
<time>2024-05-11T15:30:15Z</time>
</trkpt>
<trkpt lat="49.628356928005815" lon="9.386006304994226">
<ele>371</ele>
<time>2024-05-11T15:30:16Z</time>
</trkpt>
<trkpt lat="49.628314934670925" lon="9.385991971939802">
<ele>371.2</ele>
<time>2024-05-11T15:30:17Z</time>
</trkpt>
<trkpt lat="49.628276797011495" lon="9.38597864471376">
<ele>371.2</ele>
<time>2024-05-11T15:30:18Z</time>
</trkpt>
<trkpt lat="49.628238659352064" lon="9.385963389649987">
<ele>371.4</ele>
<time>2024-05-11T15:30:19Z</time>
</trkpt>
<trkpt lat="49.628196666017175" lon="9.385948134586217">
<ele>371.4</ele>
<time>2024-05-11T15:30:20Z</time>
</trkpt>
<trkpt lat="49.628158528357744" lon="9.385932879522445">
<ele>371.6</ele>
<time>2024-05-11T15:30:21Z</time>
</trkpt>
<trkpt lat="49.62812416255474" lon="9.38591854646802">
<ele>371.6</ele>
<time>2024-05-11T15:30:22Z</time>
</trkpt>
<trkpt lat="49.62808602489531" lon="9.385905219241977">
<ele>371.6</ele>
<time>2024-05-11T15:30:23Z</time>
</trkpt>
<trkpt lat="49.62805174291134" lon="9.385889964178205">
<ele>371.6</ele>
<time>2024-05-11T15:30:24Z</time>
</trkpt>
<trkpt lat="49.628017377108335" lon="9.385874709114432">
<ele>371.8</ele>
<time>2024-05-11T15:30:25Z</time>
</trkpt>
<trkpt lat="49.62798301130533" lon="9.38586138188839">
<ele>371.8</ele>
<time>2024-05-11T15:30:26Z</time>
</trkpt>
<trkpt lat="49.6279448736459" lon="9.385847970843315">
<ele>371.8</ele>
<time>2024-05-11T15:30:27Z</time>
</trkpt>
<trkpt lat="49.62791059166193" lon="9.385833721607924">
<ele>371.8</ele>
<time>2024-05-11T15:30:28Z</time>
</trkpt>
<trkpt lat="49.62787622585893" lon="9.385818466544151">
<ele>371.8</ele>
<time>2024-05-11T15:30:29Z</time>
</trkpt>
<trkpt lat="49.627841943874955" lon="9.38580321148038">
<ele>371.8</ele>
<time>2024-05-11T15:30:30Z</time>
</trkpt>
<trkpt lat="49.62781134992838" lon="9.385787956416609">
<ele>371.8</ele>
<time>2024-05-11T15:30:31Z</time>
</trkpt>
<trkpt lat="49.627780839800835" lon="9.385773623362184">
<ele>372</ele>
<time>2024-05-11T15:30:32Z</time>
</trkpt>
<trkpt lat="49.62774655781686" lon="9.385758368298411">
<ele>372</ele>
<time>2024-05-11T15:30:33Z</time>
</trkpt>
<trkpt lat="49.62771604768932" lon="9.385745041072369">
<ele>372.2</ele>
<time>2024-05-11T15:30:34Z</time>
</trkpt>
<trkpt lat="49.627681681886315" lon="9.385729786008596">
<ele>372.2</ele>
<time>2024-05-11T15:30:35Z</time>
</trkpt>
<trkpt lat="49.627647399902344" lon="9.385715452954171">
<ele>372.4</ele>
<time>2024-05-11T15:30:36Z</time>
</trkpt>
<trkpt lat="49.62761303409934" lon="9.3857001978904">
<ele>372.4</ele>
<time>2024-05-11T15:30:37Z</time>
</trkpt>
<trkpt lat="49.627544386312366" lon="9.385666837915778">
<ele>372.6</ele>
<time>2024-05-11T15:30:39Z</time>
</trkpt>
<trkpt lat="49.62751002050936" lon="9.385648649185896">
<ele>372.6</ele>
<time>2024-05-11T15:30:40Z</time>
</trkpt>
<trkpt lat="49.62747573852539" lon="9.385629622265697">
<ele>372.6</ele>
<time>2024-05-11T15:30:41Z</time>
</trkpt>
<trkpt lat="49.62744137272239" lon="9.385609589517117">
<ele>372.6</ele>
<time>2024-05-11T15:30:42Z</time>
</trkpt>
<trkpt lat="49.62740323506296" lon="9.385591484606266">
<ele>372.8</ele>
<time>2024-05-11T15:30:43Z</time>
</trkpt>
<trkpt lat="49.62736886925995" lon="9.385573379695415">
<ele>372.8</ele>
<time>2024-05-11T15:30:44Z</time>
</trkpt>
<trkpt lat="49.62733458727598" lon="9.385555190965531">
<ele>372.8</ele>
<time>2024-05-11T15:30:45Z</time>
</trkpt>
<trkpt lat="49.62730022147298" lon="9.385535158216952">
<ele>373</ele>
<time>2024-05-11T15:30:46Z</time>
</trkpt>
<trkpt lat="49.627265855669975" lon="9.385517053306105">
<ele>373</ele>
<time>2024-05-11T15:30:47Z</time>
</trkpt>
<trkpt lat="49.627231573686" lon="9.385497020557525">
<ele>373.2</ele>
<time>2024-05-11T15:30:48Z</time>
</trkpt>
<trkpt lat="49.62719343602657" lon="9.385475143790243">
<ele>373.2</ele>
<time>2024-05-11T15:30:49Z</time>
</trkpt>
<trkpt lat="49.62715907022357" lon="9.385453183203936">
<ele>373.4</ele>
<time>2024-05-11T15:30:50Z</time>
</trkpt>
<trkpt lat="49.627128560096025" lon="9.385433150455356">
<ele>373.4</ele>
<time>2024-05-11T15:30:51Z</time>
</trkpt>
<trkpt lat="49.627090422436595" lon="9.385413117706776">
<ele>373.6</ele>
<time>2024-05-11T15:30:52Z</time>
</trkpt>
<trkpt lat="49.62702177464962" lon="9.385368274524808">
<ele>373.6</ele>
<time>2024-05-11T15:30:54Z</time>
</trkpt>
<trkpt lat="49.62698363699019" lon="9.38534539192915">
<ele>373.8</ele>
<time>2024-05-11T15:30:55Z</time>
</trkpt>
<trkpt lat="49.62695304304361" lon="9.385321587324142">
<ele>373.8</ele>
<time>2024-05-11T15:30:56Z</time>
</trkpt>
<trkpt lat="49.62691876105964" lon="9.385299626737831">
<ele>374</ele>
<time>2024-05-11T15:30:57Z</time>
</trkpt>
<trkpt lat="49.626853885129094" lon="9.385251933708789">
<ele>374.2</ele>
<time>2024-05-11T15:30:59Z</time>
</trkpt>
<trkpt lat="49.62681960314512" lon="9.38522812910378">
<ele>374.4</ele>
<time>2024-05-11T15:31:00Z</time>
</trkpt>
<trkpt lat="49.62678523734212" lon="9.38520616851747">
<ele>374.6</ele>
<time>2024-05-11T15:31:01Z</time>
</trkpt>
<trkpt lat="49.62675087153912" lon="9.385181358084084">
<ele>374.8</ele>
<time>2024-05-11T15:31:02Z</time>
</trkpt>
<trkpt lat="49.626716589555144" lon="9.385156631469728">
<ele>375</ele>
<time>2024-05-11T15:31:03Z</time>
</trkpt>
<trkpt lat="49.62668222375214" lon="9.38512989319861">
<ele>375.2</ele>
<time>2024-05-11T15:31:04Z</time>
</trkpt>
<trkpt lat="49.62664408609271" lon="9.385103154927492">
<ele>375.4</ele>
<time>2024-05-11T15:31:05Z</time>
</trkpt>
<trkpt lat="49.62660972028971" lon="9.385076500475408">
<ele>375.6</ele>
<time>2024-05-11T15:31:06Z</time>
</trkpt>
<trkpt lat="49.62657921016216" lon="9.38504976220429">
<ele>375.8</ele>
<time>2024-05-11T15:31:07Z</time>
</trkpt>
<trkpt lat="49.62654492817819" lon="9.385021179914474">
<ele>375.8</ele>
<time>2024-05-11T15:31:08Z</time>
</trkpt>
<trkpt lat="49.62651441805065" lon="9.384996369481089">
<ele>376</ele>
<time>2024-05-11T15:31:09Z</time>
</trkpt>
<trkpt lat="49.62648005224764" lon="9.3849715590477">
<ele>376.2</ele>
<time>2024-05-11T15:31:10Z</time>
</trkpt>
<trkpt lat="49.6264495421201" lon="9.384944904595612">
<ele>376.2</ele>
<time>2024-05-11T15:31:11Z</time>
</trkpt>
<trkpt lat="49.626419031992555" lon="9.384920094162226">
<ele>376.4</ele>
<time>2024-05-11T15:31:12Z</time>
</trkpt>
<trkpt lat="49.62636178359389" lon="9.384866701439025">
<ele>376.4</ele>
<time>2024-05-11T15:31:14Z</time>
</trkpt>
<trkpt lat="49.62633127346635" lon="9.384839963167906">
<ele>376.6</ele>
<time>2024-05-11T15:31:15Z</time>
</trkpt>
<trkpt lat="49.62629699148238" lon="9.38481330871582">
<ele>376.6</ele>
<time>2024-05-11T15:31:16Z</time>
</trkpt>
<trkpt lat="49.6262663975358" lon="9.384784642606974">
<ele>376.8</ele>
<time>2024-05-11T15:31:17Z</time>
</trkpt>
<trkpt lat="49.62620923295617" lon="9.3847331777215">
<ele>376.8</ele>
<time>2024-05-11T15:31:19Z</time>
</trkpt>
<trkpt lat="49.626182494685054" lon="9.384708367288113">
<ele>376.8</ele>
<time>2024-05-11T15:31:20Z</time>
</trkpt>
<trkpt lat="49.62615584023297" lon="9.384679784998298">
<ele>377</ele>
<time>2024-05-11T15:31:21Z</time>
</trkpt>
<trkpt lat="49.626125330105424" lon="9.38465497456491">
<ele>377</ele>
<time>2024-05-11T15:31:22Z</time>
</trkpt>
<trkpt lat="49.62607185356319" lon="9.384606359526517">
<ele>377</ele>
<time>2024-05-11T15:31:24Z</time>
</trkpt>
<trkpt lat="49.626045199111104" lon="9.384583393111823">
<ele>377</ele>
<time>2024-05-11T15:31:25Z</time>
</trkpt>
<trkpt lat="49.62601468898356" lon="9.384558666497467">
<ele>377.2</ele>
<time>2024-05-11T15:31:26Z</time>
</trkpt>
<trkpt lat="49.62598795071244" lon="9.384531928226352">
<ele>377.2</ele>
<time>2024-05-11T15:31:27Z</time>
</trkpt>
<trkpt lat="49.625926930457354" lon="9.38447467982769">
<ele>377.4</ele>
<time>2024-05-11T15:31:29Z</time>
</trkpt>
<trkpt lat="49.62590019218624" lon="9.384448025375605">
<ele>377.4</ele>
<time>2024-05-11T15:31:30Z</time>
</trkpt>
<trkpt lat="49.62586968205869" lon="9.384421287104487">
<ele>377.6</ele>
<time>2024-05-11T15:31:31Z</time>
</trkpt>
<trkpt lat="49.62583917193115" lon="9.384394632652402">
<ele>377.8</ele>
<time>2024-05-11T15:31:32Z</time>
</trkpt>
<trkpt lat="49.625804889947176" lon="9.384369822219014">
<ele>377.8</ele>
<time>2024-05-11T15:31:33Z</time>
</trkpt>
<trkpt lat="49.625743785873055" lon="9.38431827351451">
<ele>378</ele>
<time>2024-05-11T15:31:35Z</time>
</trkpt>
<trkpt lat="49.62571327574551" lon="9.384293546900151">
<ele>378.2</ele>
<time>2024-05-11T15:31:36Z</time>
</trkpt>
<trkpt lat="49.625686621293426" lon="9.384266808629036">
<ele>378.4</ele>
<time>2024-05-11T15:31:37Z</time>
</trkpt>
<trkpt lat="49.62565611116588" lon="9.384241998195648">
<ele>378.6</ele>
<time>2024-05-11T15:31:38Z</time>
</trkpt>
<trkpt lat="49.62562560103834" lon="9.384213415905831">
<ele>378.8</ele>
<time>2024-05-11T15:31:39Z</time>
</trkpt>
<trkpt lat="49.62559509091079" lon="9.384182905778289">
<ele>379</ele>
<time>2024-05-11T15:31:40Z</time>
</trkpt>
<trkpt lat="49.625564496964216" lon="9.384156167507172">
<ele>379.2</ele>
<time>2024-05-11T15:31:41Z</time>
</trkpt>
<trkpt lat="49.62553398683667" lon="9.384131357073784">
<ele>379.4</ele>
<time>2024-05-11T15:31:42Z</time>
</trkpt>
<trkpt lat="49.625507332384586" lon="9.384104702621698">
<ele>379.4</ele>
<time>2024-05-11T15:31:43Z</time>
</trkpt>
<trkpt lat="49.62547682225704" lon="9.38407796435058">
<ele>379.6</ele>
<time>2024-05-11T15:31:44Z</time>
</trkpt>
<trkpt lat="49.625450083985925" lon="9.384053153917192">
<ele>379.8</ele>
<time>2024-05-11T15:31:45Z</time>
</trkpt>
<trkpt lat="49.62541957385838" lon="9.384028427302836">
<ele>379.8</ele>
<time>2024-05-11T15:31:46Z</time>
</trkpt>
<trkpt lat="49.62539283558726" lon="9.38400361686945">
<ele>380</ele>
<time>2024-05-11T15:31:47Z</time>
</trkpt>
<trkpt lat="49.625331815332174" lon="9.383948296308516">
<ele>380.2</ele>
<time>2024-05-11T15:31:49Z</time>
</trkpt>
<trkpt lat="49.62530516088009" lon="9.3839215580374">
<ele>380.2</ele>
<time>2024-05-11T15:31:50Z</time>
</trkpt>
<trkpt lat="49.625274650752544" lon="9.383896747604012">
<ele>380.4</ele>
<time>2024-05-11T15:31:51Z</time>
</trkpt>
<trkpt lat="49.62524028494954" lon="9.383872020989656">
<ele>380.4</ele>
<time>2024-05-11T15:31:52Z</time>
</trkpt>
<trkpt lat="49.625209774822" lon="9.38384528271854">
<ele>380.6</ele>
<time>2024-05-11T15:31:53Z</time>
</trkpt>
<trkpt lat="49.62517926469445" lon="9.383819550275804">
<ele>380.8</ele>
<time>2024-05-11T15:31:54Z</time>
</trkpt>
<trkpt lat="49.62514875456691" lon="9.383792812004684">
<ele>381</ele>
<time>2024-05-11T15:31:55Z</time>
</trkpt>
<trkpt lat="49.62511824443936" lon="9.383767079561949">
<ele>381</ele>
<time>2024-05-11T15:31:56Z</time>
</trkpt>
<trkpt lat="49.625091506168246" lon="9.383741347119212">
<ele>381.2</ele>
<time>2024-05-11T15:31:57Z</time>
</trkpt>
<trkpt lat="49.62503048591316" lon="9.383686948567629">
<ele>381.4</ele>
<time>2024-05-11T15:31:59Z</time>
</trkpt>
<trkpt lat="49.62499997578561" lon="9.383658366277814">
<ele>381.4</ele>
<time>2024-05-11T15:32:00Z</time>
</trkpt>
<trkpt lat="49.62496946565807" lon="9.383631628006697">
<ele>381.6</ele>
<time>2024-05-11T15:32:01Z</time>
</trkpt>
<trkpt lat="49.62493895553053" lon="9.383604973554611">
<ele>381.6</ele>
<time>2024-05-11T15:32:02Z</time>
</trkpt>
<trkpt lat="49.6248778514564" lon="9.383544875308871">
<ele>381.8</ele>
<time>2024-05-11T15:32:04Z</time>
</trkpt>
<trkpt lat="49.62484356947243" lon="9.383515287190676">
<ele>382</ele>
<time>2024-05-11T15:32:05Z</time>
</trkpt>
<trkpt lat="49.62481305934489" lon="9.383484777063131">
<ele>382.2</ele>
<time>2024-05-11T15:32:06Z</time>
</trkpt>
<trkpt lat="49.62477869354189" lon="9.383455272763968">
<ele>382.2</ele>
<time>2024-05-11T15:32:07Z</time>
</trkpt>
<trkpt lat="49.62474818341434" lon="9.38342660665512">
<ele>382.4</ele>
<time>2024-05-11T15:32:08Z</time>
</trkpt>
<trkpt lat="49.62471381761134" lon="9.383399952203035">
<ele>382.6</ele>
<time>2024-05-11T15:32:09Z</time>
</trkpt>
<trkpt lat="49.62468330748379" lon="9.383373213931918">
<ele>382.8</ele>
<time>2024-05-11T15:32:10Z</time>
</trkpt>
<trkpt lat="49.62464902549982" lon="9.383344631642103">
<ele>383</ele>
<time>2024-05-11T15:32:11Z</time>
</trkpt>
<trkpt lat="49.62461851537227" lon="9.383316971361635">
<ele>383.2</ele>
<time>2024-05-11T15:32:12Z</time>
</trkpt>
<trkpt lat="49.62455749511719" lon="9.383263578638434">
<ele>383.6</ele>
<time>2024-05-11T15:32:14Z</time>
</trkpt>
<trkpt lat="49.624523129314184" lon="9.383234912529588">
<ele>383.8</ele>
<time>2024-05-11T15:32:15Z</time>
</trkpt>
<trkpt lat="49.62449639104307" lon="9.383206330239773">
<ele>384</ele>
<time>2024-05-11T15:32:16Z</time>
</trkpt>
<trkpt lat="49.624462109059095" lon="9.383178669959308">
<ele>384.2</ele>
<time>2024-05-11T15:32:17Z</time>
</trkpt>
<trkpt lat="49.624404860660434" lon="9.383125277236104">
<ele>384.6</ele>
<time>2024-05-11T15:32:19Z</time>
</trkpt>
<trkpt lat="49.62437435053289" lon="9.383099544793367">
<ele>384.8</ele>
<time>2024-05-11T15:32:20Z</time>
</trkpt>
<trkpt lat="49.624343840405345" lon="9.3830737285316">
<ele>384.8</ele>
<time>2024-05-11T15:32:21Z</time>
</trkpt>
<trkpt lat="49.6243133302778" lon="9.383047996088862">
<ele>385</ele>
<time>2024-05-11T15:32:22Z</time>
</trkpt>
<trkpt lat="49.62428659200668" lon="9.383021341636775">
<ele>385.2</ele>
<time>2024-05-11T15:32:23Z</time>
</trkpt>
<trkpt lat="49.62425608187914" lon="9.38299653120339">
<ele>385.4</ele>
<time>2024-05-11T15:32:24Z</time>
</trkpt>
<trkpt lat="49.62422942742705" lon="9.38297172077">
<ele>385.6</ele>
<time>2024-05-11T15:32:25Z</time>
</trkpt>
<trkpt lat="49.62419883348048" lon="9.382946910336614">
<ele>385.6</ele>
<time>2024-05-11T15:32:26Z</time>
</trkpt>
<trkpt lat="49.62416832335293" lon="9.382921177893875">
<ele>385.8</ele>
<time>2024-05-11T15:32:27Z</time>
</trkpt>
<trkpt lat="49.6241111587733" lon="9.382866779342294">
<ele>386</ele>
<time>2024-05-11T15:32:29Z</time>
</trkpt>
<trkpt lat="49.62408064864576" lon="9.38283819705248">
<ele>386</ele>
<time>2024-05-11T15:32:30Z</time>
</trkpt>
<trkpt lat="49.624050138518214" lon="9.382808608934283">
<ele>386</ele>
<time>2024-05-11T15:32:31Z</time>
</trkpt>
<trkpt lat="49.6240234002471" lon="9.382781954482198">
<ele>386.2</ele>
<time>2024-05-11T15:32:32Z</time>
</trkpt>
<trkpt lat="49.62395852431655" lon="9.382730405777693">
<ele>386.4</ele>
<time>2024-05-11T15:32:34Z</time>
</trkpt>
<trkpt lat="49.623928014189005" lon="9.382704673334956">
<ele>386.4</ele>
<time>2024-05-11T15:32:35Z</time>
</trkpt>
<trkpt lat="49.62389750406146" lon="9.38267801888287">
<ele>386.6</ele>
<time>2024-05-11T15:32:36Z</time>
</trkpt>
<trkpt lat="49.62386699393392" lon="9.382650358602405">
<ele>386.8</ele>
<time>2024-05-11T15:32:37Z</time>
</trkpt>
<trkpt lat="49.62383648380637" lon="9.382621692493558">
<ele>387</ele>
<time>2024-05-11T15:32:38Z</time>
</trkpt>
<trkpt lat="49.62380597367883" lon="9.382593110203745">
<ele>387</ele>
<time>2024-05-11T15:32:39Z</time>
</trkpt>
<trkpt lat="49.62377546355128" lon="9.382566371932626">
<ele>387.2</ele>
<time>2024-05-11T15:32:40Z</time>
</trkpt>
<trkpt lat="49.62374495342374" lon="9.38253971748054">
<ele>387.4</ele>
<time>2024-05-11T15:32:41Z</time>
</trkpt>
<trkpt lat="49.62371821515262" lon="9.382512979209425">
<ele>387.6</ele>
<time>2024-05-11T15:32:42Z</time>
</trkpt>
<trkpt lat="49.62365719489753" lon="9.38245958648622">
<ele>387.6</ele>
<time>2024-05-11T15:32:44Z</time>
</trkpt>
<trkpt lat="49.62362668476999" lon="9.382432932034137">
<ele>387.8</ele>
<time>2024-05-11T15:32:45Z</time>
</trkpt>
<trkpt lat="49.62359994649887" lon="9.382406193763018">
<ele>388</ele>
<time>2024-05-11T15:32:46Z</time>
</trkpt>
<trkpt lat="49.623569436371326" lon="9.3823794554919">
<ele>388.2</ele>
<time>2024-05-11T15:32:47Z</time>
</trkpt>
<trkpt lat="49.623512187972665" lon="9.382331846281886">
<ele>388.4</ele>
<time>2024-05-11T15:32:49Z</time>
</trkpt>
<trkpt lat="49.62348167784512" lon="9.382307035848498">
<ele>388.6</ele>
<time>2024-05-11T15:32:50Z</time>
</trkpt>
<trkpt lat="49.623455023393035" lon="9.382281303405762">
<ele>389</ele>
<time>2024-05-11T15:32:51Z</time>
</trkpt>
<trkpt lat="49.62342451326549" lon="9.382253643125296">
<ele>389.2</ele>
<time>2024-05-11T15:32:52Z</time>
</trkpt>
<trkpt lat="49.6233634930104" lon="9.382196394726634">
<ele>389.4</ele>
<time>2024-05-11T15:32:54Z</time>
</trkpt>
<trkpt lat="49.6233291272074" lon="9.382168734446168">
<ele>389.6</ele>
<time>2024-05-11T15:32:55Z</time>
</trkpt>
<trkpt lat="49.623298617079854" lon="9.38214199617505">
<ele>389.8</ele>
<time>2024-05-11T15:32:56Z</time>
</trkpt>
<trkpt lat="49.62326810695231" lon="9.382115341722963">
<ele>390.2</ele>
<time>2024-05-11T15:32:57Z</time>
</trkpt>
<trkpt lat="49.623237596824765" lon="9.382088603451848">
<ele>390.4</ele>
<time>2024-05-11T15:32:58Z</time>
</trkpt>
<trkpt lat="49.62320708669722" lon="9.382060021162031">
<ele>390.6</ele>
<time>2024-05-11T15:32:59Z</time>
</trkpt>
<trkpt lat="49.623176492750645" lon="9.382033282890916">
<ele>390.8</ele>
<time>2024-05-11T15:33:00Z</time>
</trkpt>
<trkpt lat="49.62314221076667" lon="9.38200662843883">
<ele>391</ele>
<time>2024-05-11T15:33:01Z</time>
</trkpt>
<trkpt lat="49.62311170063913" lon="9.381981818005444">
<ele>391</ele>
<time>2024-05-11T15:33:02Z</time>
</trkpt>
<trkpt lat="49.623058307915926" lon="9.381931275129318">
<ele>391.2</ele>
<time>2024-05-11T15:33:04Z</time>
</trkpt>
<trkpt lat="49.62302779778838" lon="9.38190839253366">
<ele>391.2</ele>
<time>2024-05-11T15:33:05Z</time>
</trkpt>
<trkpt lat="49.622997203841805" lon="9.381879726424811">
<ele>391.4</ele>
<time>2024-05-11T15:33:06Z</time>
</trkpt>
<trkpt lat="49.62297054938972" lon="9.381853071972728">
<ele>391.4</ele>
<time>2024-05-11T15:33:07Z</time>
</trkpt>
<trkpt lat="49.62290952913463" lon="9.381796829402449">
<ele>391.4</ele>
<time>2024-05-11T15:33:09Z</time>
</trkpt>
<trkpt lat="49.62284850887954" lon="9.381743352860212">
<ele>391.4</ele>
<time>2024-05-11T15:33:11Z</time>
</trkpt>
<trkpt lat="49.622817914932966" lon="9.381716698408129">
<ele>391.4</ele>
<time>2024-05-11T15:33:12Z</time>
</trkpt>
<trkpt lat="49.62275689467788" lon="9.381663305684924">
<ele>391.4</ele>
<time>2024-05-11T15:33:14Z</time>
</trkpt>
<trkpt lat="49.62273024022579" lon="9.381638495251536">
<ele>391.4</ele>
<time>2024-05-11T15:33:15Z</time>
</trkpt>
<trkpt lat="49.62267299182713" lon="9.38159172423184">
<ele>391.4</ele>
<time>2024-05-11T15:33:17Z</time>
</trkpt>
<trkpt lat="49.62261959910393" lon="9.381545037031174">
<ele>391.6</ele>
<time>2024-05-11T15:33:19Z</time>
</trkpt>
<trkpt lat="49.62258908897638" lon="9.381520226597786">
<ele>391.6</ele>
<time>2024-05-11T15:33:20Z</time>
</trkpt>
<trkpt lat="49.62255857884884" lon="9.38149642199278">
<ele>391.8</ele>
<time>2024-05-11T15:33:21Z</time>
</trkpt>
<trkpt lat="49.622528068721294" lon="9.381471611559393">
<ele>391.8</ele>
<time>2024-05-11T15:33:22Z</time>
</trkpt>
<trkpt lat="49.62250133045018" lon="9.381444873288274">
<ele>392</ele>
<time>2024-05-11T15:33:23Z</time>
</trkpt>
<trkpt lat="49.62247082032263" lon="9.381418218836188">
<ele>392.2</ele>
<time>2024-05-11T15:33:24Z</time>
</trkpt>
<trkpt lat="49.62244031019509" lon="9.381389552727342">
<ele>392.4</ele>
<time>2024-05-11T15:33:25Z</time>
</trkpt>
<trkpt lat="49.62241357192397" lon="9.381361892446876">
<ele>392.6</ele>
<time>2024-05-11T15:33:26Z</time>
</trkpt>
<trkpt lat="49.62238306179643" lon="9.381331382319331">
<ele>392.6</ele>
<time>2024-05-11T15:33:27Z</time>
</trkpt>
<trkpt lat="49.62235640734434" lon="9.381304727867246">
<ele>392.8</ele>
<time>2024-05-11T15:33:28Z</time>
</trkpt>
<trkpt lat="49.62232204154134" lon="9.381279917433858">
<ele>393</ele>
<time>2024-05-11T15:33:29Z</time>
</trkpt>
<trkpt lat="49.622291531413794" lon="9.38125317916274">
<ele>393.2</ele>
<time>2024-05-11T15:33:30Z</time>
</trkpt>
<trkpt lat="49.62226479314267" lon="9.381224596872926">
<ele>393.4</ele>
<time>2024-05-11T15:33:31Z</time>
</trkpt>
<trkpt lat="49.62223428301513" lon="9.381197858601809">
<ele>393.4</ele>
<time>2024-05-11T15:33:32Z</time>
</trkpt>
<trkpt lat="49.62217326276004" lon="9.381143543869255">
<ele>393.6</ele>
<time>2024-05-11T15:33:34Z</time>
</trkpt>
<trkpt lat="49.622108386829495" lon="9.381086295470595">
<ele>393.8</ele>
<time>2024-05-11T15:33:36Z</time>
</trkpt>
<trkpt lat="49.62207787670195" lon="9.381061485037208">
<ele>394</ele>
<time>2024-05-11T15:33:37Z</time>
</trkpt>
<trkpt lat="49.62204736657441" lon="9.381034830585122">
<ele>394.2</ele>
<time>2024-05-11T15:33:38Z</time>
</trkpt>
<trkpt lat="49.62201685644686" lon="9.381010020151734">
<ele>394.4</ele>
<time>2024-05-11T15:33:39Z</time>
</trkpt>
<trkpt lat="49.6219596080482" lon="9.380956627428532">
<ele>394.6</ele>
<time>2024-05-11T15:33:41Z</time>
</trkpt>
<trkpt lat="49.621929097920656" lon="9.380931816995144">
<ele>394.8</ele>
<time>2024-05-11T15:33:42Z</time>
</trkpt>
<trkpt lat="49.62186807766557" lon="9.38088127411902">
<ele>395</ele>
<time>2024-05-11T15:33:44Z</time>
</trkpt>
<trkpt lat="49.62184142321348" lon="9.380853613838552">
<ele>395.2</ele>
<time>2024-05-11T15:33:45Z</time>
</trkpt>
<trkpt lat="49.621814684942365" lon="9.380825031548738">
<ele>395.4</ele>
<time>2024-05-11T15:33:46Z</time>
</trkpt>
<trkpt lat="49.62178794667125" lon="9.38080022111535">
<ele>395.6</ele>
<time>2024-05-11T15:33:47Z</time>
</trkpt>
<trkpt lat="49.62176129221916" lon="9.380775410681965">
<ele>396</ele>
<time>2024-05-11T15:33:48Z</time>
</trkpt>
<trkpt lat="49.621734553948045" lon="9.380749678239226">
<ele>396.2</ele>
<time>2024-05-11T15:33:49Z</time>
</trkpt>
<trkpt lat="49.62170789949596" lon="9.380728639662266">
<ele>396.4</ele>
<time>2024-05-11T15:33:50Z</time>
</trkpt>
<trkpt lat="49.62168116122484" lon="9.38070290721953">
<ele>396.6</ele>
<time>2024-05-11T15:33:51Z</time>
</trkpt>
<trkpt lat="49.62165450677276" lon="9.3806819524616">
<ele>396.8</ele>
<time>2024-05-11T15:33:52Z</time>
</trkpt>
<trkpt lat="49.62160488590598" lon="9.380639959126713">
<ele>397</ele>
<time>2024-05-11T15:33:54Z</time>
</trkpt>
<trkpt lat="49.621578147634864" lon="9.380618082359431">
<ele>397</ele>
<time>2024-05-11T15:33:55Z</time>
</trkpt>
<trkpt lat="49.621555265039206" lon="9.380595199763777">
<ele>397.2</ele>
<time>2024-05-11T15:33:56Z</time>
</trkpt>
<trkpt lat="49.62153238244355" lon="9.380568461492658">
<ele>397.2</ele>
<time>2024-05-11T15:33:57Z</time>
</trkpt>
<trkpt lat="49.62149047292769" lon="9.380526468157768">
<ele>397.4</ele>
<time>2024-05-11T15:33:59Z</time>
</trkpt>
<trkpt lat="49.62146759033203" lon="9.380506435409188">
<ele>397.4</ele>
<time>2024-05-11T15:34:00Z</time>
</trkpt>
<trkpt lat="49.62144462391734" lon="9.38048648647964">
<ele>397.6</ele>
<time>2024-05-11T15:34:01Z</time>
</trkpt>
<trkpt lat="49.62142174132168" lon="9.38046645373106">
<ele>397.8</ele>
<time>2024-05-11T15:34:02Z</time>
</trkpt>
<trkpt lat="49.621375976130366" lon="9.38042538240552">
<ele>398</ele>
<time>2024-05-11T15:34:04Z</time>
</trkpt>
<trkpt lat="49.62135309353471" lon="9.38040534965694">
<ele>398.2</ele>
<time>2024-05-11T15:34:05Z</time>
</trkpt>
<trkpt lat="49.62133021093905" lon="9.38038531690836">
<ele>398.4</ele>
<time>2024-05-11T15:34:06Z</time>
</trkpt>
<trkpt lat="49.62130732834339" lon="9.380365367978811">
<ele>398.6</ele>
<time>2024-05-11T15:34:07Z</time>
</trkpt>
<trkpt lat="49.621261563152075" lon="9.38032815232873">
<ele>398.6</ele>
<time>2024-05-11T15:34:09Z</time>
</trkpt>
<trkpt lat="49.62123482488096" lon="9.38031004741788">
<ele>398.8</ele>
<time>2024-05-11T15:34:10Z</time>
</trkpt>
<trkpt lat="49.6212119422853" lon="9.380291858687997">
<ele>399</ele>
<time>2024-05-11T15:34:11Z</time>
</trkpt>
<trkpt lat="49.62118905968964" lon="9.38026998192072">
<ele>399.2</ele>
<time>2024-05-11T15:34:12Z</time>
</trkpt>
<trkpt lat="49.62114329449832" lon="9.380223210901022">
<ele>399.4</ele>
<time>2024-05-11T15:34:14Z</time>
</trkpt>
<trkpt lat="49.62111655622721" lon="9.380198400467634">
<ele>399.4</ele>
<time>2024-05-11T15:34:15Z</time>
</trkpt>
<trkpt lat="49.62109367363155" lon="9.380174595862629">
<ele>399.6</ele>
<time>2024-05-11T15:34:16Z</time>
</trkpt>
<trkpt lat="49.62107079103589" lon="9.380151713266969">
<ele>399.8</ele>
<time>2024-05-11T15:34:17Z</time>
</trkpt>
<trkpt lat="49.62102125398815" lon="9.380106870085">
<ele>399.8</ele>
<time>2024-05-11T15:34:19Z</time>
</trkpt>
<trkpt lat="49.62099837139249" lon="9.380084909498692">
<ele>400</ele>
<time>2024-05-11T15:34:20Z</time>
</trkpt>
<trkpt lat="49.62097163312137" lon="9.380060182884336">
<ele>400.2</ele>
<time>2024-05-11T15:34:21Z</time>
</trkpt>
<trkpt lat="49.620944894850254" lon="9.380036294460297">
<ele>400.4</ele>
<time>2024-05-11T15:34:22Z</time>
</trkpt>
<trkpt lat="49.62089150212705" lon="9.379989607259631">
<ele>400.6</ele>
<time>2024-05-11T15:34:24Z</time>
</trkpt>
<trkpt lat="49.620864847674966" lon="9.379966724663973">
<ele>400.6</ele>
<time>2024-05-11T15:34:25Z</time>
</trkpt>
<trkpt lat="49.62083810940385" lon="9.379942836239934">
<ele>400.8</ele>
<time>2024-05-11T15:34:26Z</time>
</trkpt>
<trkpt lat="49.62081145495176" lon="9.379919953644276">
<ele>400.8</ele>
<time>2024-05-11T15:34:27Z</time>
</trkpt>
<trkpt lat="49.62076183408499" lon="9.3798703327775">
<ele>401</ele>
<time>2024-05-11T15:34:29Z</time>
</trkpt>
<trkpt lat="49.62073509581387" lon="9.379846528172491">
<ele>401.2</ele>
<time>2024-05-11T15:34:30Z</time>
</trkpt>
<trkpt lat="49.620708441361785" lon="9.379821717739103">
<ele>401.4</ele>
<time>2024-05-11T15:34:31Z</time>
</trkpt>
<trkpt lat="49.62068555876613" lon="9.379796907305716">
<ele>401.4</ele>
<time>2024-05-11T15:34:32Z</time>
</trkpt>
<trkpt lat="49.62063216604293" lon="9.379745442420244">
<ele>401.6</ele>
<time>2024-05-11T15:34:34Z</time>
</trkpt>
<trkpt lat="49.62060542777181" lon="9.379719709977508">
<ele>401.6</ele>
<time>2024-05-11T15:34:35Z</time>
</trkpt>
<trkpt lat="49.62058254517615" lon="9.37969489954412">
<ele>401.8</ele>
<time>2024-05-11T15:34:36Z</time>
</trkpt>
<trkpt lat="49.62055580690503" lon="9.379670089110732">
<ele>401.8</ele>
<time>2024-05-11T15:34:37Z</time>
</trkpt>
<trkpt lat="49.62050626985729" lon="9.379623401910068">
<ele>402</ele>
<time>2024-05-11T15:34:39Z</time>
</trkpt>
<trkpt lat="49.62048338726163" lon="9.379601441323755">
<ele>402</ele>
<time>2024-05-11T15:34:40Z</time>
</trkpt>
<trkpt lat="49.62045664899051" lon="9.379581408575175">
<ele>402.2</ele>
<time>2024-05-11T15:34:41Z</time>
</trkpt>
<trkpt lat="49.620429910719395" lon="9.37955659814179">
<ele>402.4</ele>
<time>2024-05-11T15:34:42Z</time>
</trkpt>
<trkpt lat="49.62038037367165" lon="9.379501277580856">
<ele>402.6</ele>
<time>2024-05-11T15:34:44Z</time>
</trkpt>
<trkpt lat="49.620353635400534" lon="9.379473617300391">
<ele>402.8</ele>
<time>2024-05-11T15:34:45Z</time>
</trkpt>
<trkpt lat="49.620330752804875" lon="9.379447884857656">
<ele>403</ele>
<time>2024-05-11T15:34:46Z</time>
</trkpt>
<trkpt lat="49.62030409835279" lon="9.379425002261996">
<ele>403.2</ele>
<time>2024-05-11T15:34:47Z</time>
</trkpt>
<trkpt lat="49.620250621810555" lon="9.37937831506133">
<ele>403.4</ele>
<time>2024-05-11T15:34:49Z</time>
</trkpt>
<trkpt lat="49.62020108476281" lon="9.379324838519096">
<ele>403.4</ele>
<time>2024-05-11T15:34:51Z</time>
</trkpt>
<trkpt lat="49.62017820216715" lon="9.37929818406701">
<ele>403.6</ele>
<time>2024-05-11T15:34:52Z</time>
</trkpt>
<trkpt lat="49.62015146389603" lon="9.379275301471353">
<ele>403.8</ele>
<time>2024-05-11T15:34:53Z</time>
</trkpt>
<trkpt lat="49.62012480944395" lon="9.379251413047314">
<ele>404</ele>
<time>2024-05-11T15:34:54Z</time>
</trkpt>
<trkpt lat="49.62010192684829" lon="9.379226602613926">
<ele>404.2</ele>
<time>2024-05-11T15:34:55Z</time>
</trkpt>
<trkpt lat="49.62007133290171" lon="9.37920187599957">
<ele>404.4</ele>
<time>2024-05-11T15:34:56Z</time>
</trkpt>
<trkpt lat="49.62004845030606" lon="9.379177065566182">
<ele>404.6</ele>
<time>2024-05-11T15:34:57Z</time>
</trkpt>
<trkpt lat="49.619995057582855" lon="9.379126522690058">
<ele>404.8</ele>
<time>2024-05-11T15:34:59Z</time>
</trkpt>
<trkpt lat="49.61996454745531" lon="9.37910171225667">
<ele>405</ele>
<time>2024-05-11T15:35:00Z</time>
</trkpt>
<trkpt lat="49.619937893003225" lon="9.379077907651665">
<ele>405.2</ele>
<time>2024-05-11T15:35:01Z</time>
</trkpt>
<trkpt lat="49.61990729905665" lon="9.379053097218277">
<ele>405.6</ele>
<time>2024-05-11T15:35:02Z</time>
</trkpt>
<trkpt lat="49.61985013447702" lon="9.378998698666692">
<ele>405.8</ele>
<time>2024-05-11T15:35:04Z</time>
</trkpt>
<trkpt lat="49.6198233962059" lon="9.378970116376877">
<ele>406.2</ele>
<time>2024-05-11T15:35:05Z</time>
</trkpt>
<trkpt lat="49.61980051361024" lon="9.378939606249332">
<ele>406.4</ele>
<time>2024-05-11T15:35:06Z</time>
</trkpt>
<trkpt lat="49.61977385915816" lon="9.378908090293407">
<ele>406.8</ele>
<time>2024-05-11T15:35:07Z</time>
</trkpt>
<trkpt lat="49.61972038261592" lon="9.378852769732475">
<ele>407</ele>
<time>2024-05-11T15:35:09Z</time>
</trkpt>
<trkpt lat="49.61968987248838" lon="9.37882804311812">
<ele>407.4</ele>
<time>2024-05-11T15:35:10Z</time>
</trkpt>
<trkpt lat="49.619663218036294" lon="9.378801304847002">
<ele>407.6</ele>
<time>2024-05-11T15:35:11Z</time>
</trkpt>
<trkpt lat="49.61964033544064" lon="9.378776494413614">
<ele>407.8</ele>
<time>2024-05-11T15:35:12Z</time>
</trkpt>
<trkpt lat="49.61961359716952" lon="9.378751683980228">
<ele>408.2</ele>
<time>2024-05-11T15:35:13Z</time>
</trkpt>
<trkpt lat="49.61958694271743" lon="9.378723101690412">
<ele>408.4</ele>
<time>2024-05-11T15:35:14Z</time>
</trkpt>
<trkpt lat="49.61956020444632" lon="9.378696363419294">
<ele>408.6</ele>
<time>2024-05-11T15:35:15Z</time>
</trkpt>
<trkpt lat="49.61952969431877" lon="9.378669708967209">
<ele>408.8</ele>
<time>2024-05-11T15:35:16Z</time>
</trkpt>
<trkpt lat="49.61949918419123" lon="9.37864489853382">
<ele>409</ele>
<time>2024-05-11T15:35:17Z</time>
</trkpt>
<trkpt lat="49.619445791468024" lon="9.378595277667046">
<ele>409.2</ele>
<time>2024-05-11T15:35:19Z</time>
</trkpt>
<trkpt lat="49.61941905319691" lon="9.37856862321496">
<ele>409.2</ele>
<time>2024-05-11T15:35:20Z</time>
</trkpt>
<trkpt lat="49.61939231492579" lon="9.37854473479092">
<ele>409.4</ele>
<time>2024-05-11T15:35:21Z</time>
</trkpt>
<trkpt lat="49.61936943233013" lon="9.378517074510455">
<ele>409.6</ele>
<time>2024-05-11T15:35:22Z</time>
</trkpt>
<trkpt lat="49.61931603960693" lon="9.37846653163433">
<ele>409.8</ele>
<time>2024-05-11T15:35:24Z</time>
</trkpt>
<trkpt lat="49.61928938515484" lon="9.378439877182243">
<ele>410</ele>
<time>2024-05-11T15:35:25Z</time>
</trkpt>
<trkpt lat="49.6192588750273" lon="9.37840836122632">
<ele>410.2</ele>
<time>2024-05-11T15:35:26Z</time>
</trkpt>
<trkpt lat="49.61922828108072" lon="9.378375001251698">
<ele>410.4</ele>
<time>2024-05-11T15:35:27Z</time>
</trkpt>
<trkpt lat="49.61917111650109" lon="9.378321608528497">
<ele>410.6</ele>
<time>2024-05-11T15:35:29Z</time>
</trkpt>
<trkpt lat="49.61911772377789" lon="9.37827198766172">
<ele>410.6</ele>
<time>2024-05-11T15:35:31Z</time>
</trkpt>
<trkpt lat="49.619087213650346" lon="9.378248183056712">
<ele>410.8</ele>
<time>2024-05-11T15:35:32Z</time>
</trkpt>
<trkpt lat="49.61903759278357" lon="9.378203339874744">
<ele>411</ele>
<time>2024-05-11T15:35:34Z</time>
</trkpt>
<trkpt lat="49.61901471018791" lon="9.378178529441357">
<ele>411</ele>
<time>2024-05-11T15:35:35Z</time>
</trkpt>
<trkpt lat="49.618987971916795" lon="9.37815279699862">
<ele>411.2</ele>
<time>2024-05-11T15:35:36Z</time>
</trkpt>
<trkpt lat="49.61895746178925" lon="9.378127986565232">
<ele>411.4</ele>
<time>2024-05-11T15:35:37Z</time>
</trkpt>
<trkpt lat="49.61890029720962" lon="9.37807367183268">
<ele>411.6</ele>
<time>2024-05-11T15:35:39Z</time>
</trkpt>
<trkpt lat="49.6188735589385" lon="9.378047939389944">
<ele>411.6</ele>
<time>2024-05-11T15:35:40Z</time>
</trkpt>
<trkpt lat="49.61884304881096" lon="9.378023128956556">
<ele>411.8</ele>
<time>2024-05-11T15:35:41Z</time>
</trkpt>
<trkpt lat="49.618812538683414" lon="9.37799446284771">
<ele>412</ele>
<time>2024-05-11T15:35:42Z</time>
</trkpt>
<trkpt lat="49.618751518428326" lon="9.377942075952888">
<ele>412</ele>
<time>2024-05-11T15:35:44Z</time>
</trkpt>
<trkpt lat="49.61872478015721" lon="9.37791533768177">
<ele>412</ele>
<time>2024-05-11T15:35:45Z</time>
</trkpt>
<trkpt lat="49.618694270029664" lon="9.377889605239034">
<ele>412.2</ele>
<time>2024-05-11T15:35:46Z</time>
</trkpt>
<trkpt lat="49.61866375990212" lon="9.377864794805646">
<ele>412.2</ele>
<time>2024-05-11T15:35:47Z</time>
</trkpt>
<trkpt lat="49.61859888397157" lon="9.37781517393887">
<ele>412.2</ele>
<time>2024-05-11T15:35:49Z</time>
</trkpt>
<trkpt lat="49.61856837384403" lon="9.37779514119029">
<ele>412.2</ele>
<time>2024-05-11T15:35:50Z</time>
</trkpt>
<trkpt lat="49.6185302361846" lon="9.377770414575934">
<ele>412.2</ele>
<time>2024-05-11T15:35:51Z</time>
</trkpt>
<trkpt lat="49.61849972605705" lon="9.377744598314166">
<ele>412.2</ele>
<time>2024-05-11T15:35:52Z</time>
</trkpt>
<trkpt lat="49.61842345073819" lon="9.377696989104152">
<ele>412.2</ele>
<time>2024-05-11T15:35:54Z</time>
</trkpt>
<trkpt lat="49.61838531307876" lon="9.377673100680113">
<ele>412.2</ele>
<time>2024-05-11T15:35:55Z</time>
</trkpt>
<trkpt lat="49.61835094727576" lon="9.377654995769262">
<ele>412.2</ele>
<time>2024-05-11T15:35:56Z</time>
</trkpt>
<trkpt lat="49.618316581472754" lon="9.377636890858412">
<ele>412.2</ele>
<time>2024-05-11T15:35:57Z</time>
</trkpt>
<trkpt lat="49.61824793368578" lon="9.377610152587296">
<ele>412.2</ele>
<time>2024-05-11T15:35:59Z</time>
</trkpt>
<trkpt lat="49.61821365170181" lon="9.377594897523522">
<ele>412.2</ele>
<time>2024-05-11T15:36:00Z</time>
</trkpt>
<trkpt lat="49.618179285898805" lon="9.377576792612672">
<ele>412.2</ele>
<time>2024-05-11T15:36:01Z</time>
</trkpt>
<trkpt lat="49.618141148239374" lon="9.377554832026362">
<ele>412.2</ele>
<time>2024-05-11T15:36:02Z</time>
</trkpt>
<trkpt lat="49.61806487292051" lon="9.377512922510505">
<ele>412.2</ele>
<time>2024-05-11T15:36:04Z</time>
</trkpt>
<trkpt lat="49.618022879585624" lon="9.377494733780622">
<ele>412</ele>
<time>2024-05-11T15:36:05Z</time>
</trkpt>
<trkpt lat="49.617980886250734" lon="9.377472857013345">
<ele>412</ele>
<time>2024-05-11T15:36:06Z</time>
</trkpt>
<trkpt lat="49.617942748591304" lon="9.377452824264765">
<ele>412</ele>
<time>2024-05-11T15:36:07Z</time>
</trkpt>
<trkpt lat="49.61785884574056" lon="9.377413680776954">
<ele>412</ele>
<time>2024-05-11T15:36:09Z</time>
</trkpt>
<trkpt lat="49.61777494288981" lon="9.377366993576288">
<ele>412</ele>
<time>2024-05-11T15:36:11Z</time>
</trkpt>
<trkpt lat="49.61773294955492" lon="9.377346960827708">
<ele>412</ele>
<time>2024-05-11T15:36:12Z</time>
</trkpt>
<trkpt lat="49.617645191028714" lon="9.377311673015356">
<ele>412</ele>
<time>2024-05-11T15:36:14Z</time>
</trkpt>
<trkpt lat="49.6175994258374" lon="9.377293568104506">
<ele>412</ele>
<time>2024-05-11T15:36:15Z</time>
</trkpt>
<trkpt lat="49.61755751632154" lon="9.377275463193657">
<ele>412</ele>
<time>2024-05-11T15:36:16Z</time>
</trkpt>
<trkpt lat="49.61751166731119" lon="9.377253502607346">
<ele>412</ele>
<time>2024-05-11T15:36:17Z</time>
</trkpt>
<trkpt lat="49.61742399260402" lon="9.377208659425378">
<ele>412</ele>
<time>2024-05-11T15:36:19Z</time>
</trkpt>
<trkpt lat="49.6173782274127" lon="9.37718292698264">
<ele>412</ele>
<time>2024-05-11T15:36:20Z</time>
</trkpt>
<trkpt lat="49.61733623407781" lon="9.377160044386985">
<ele>412</ele>
<time>2024-05-11T15:36:21Z</time>
</trkpt>
<trkpt lat="49.61728661321104" lon="9.377138083800672">
<ele>412</ele>
<time>2024-05-11T15:36:22Z</time>
</trkpt>
<trkpt lat="49.61724470369518" lon="9.377118051052094">
<ele>412</ele>
<time>2024-05-11T15:36:23Z</time>
</trkpt>
<trkpt lat="49.61719893850386" lon="9.377096174284816">
<ele>412</ele>
<time>2024-05-11T15:36:24Z</time>
</trkpt>
<trkpt lat="49.61715308949351" lon="9.377077063545585">
<ele>412</ele>
<time>2024-05-11T15:36:25Z</time>
</trkpt>
<trkpt lat="49.6171073243022" lon="9.377057030797005">
<ele>411.8</ele>
<time>2024-05-11T15:36:26Z</time>
</trkpt>
<trkpt lat="49.61706155911088" lon="9.377031298354268">
<ele>411.8</ele>
<time>2024-05-11T15:36:27Z</time>
</trkpt>
<trkpt lat="49.616973800584674" lon="9.37699031084776">
<ele>411.8</ele>
<time>2024-05-11T15:36:29Z</time>
</trkpt>
<trkpt lat="49.616931891068816" lon="9.376964494585993">
<ele>411.8</ele>
<time>2024-05-11T15:36:30Z</time>
</trkpt>
<trkpt lat="49.61688989773393" lon="9.376941611990333">
<ele>411.6</ele>
<time>2024-05-11T15:36:31Z</time>
</trkpt>
<trkpt lat="49.61684413254261" lon="9.376916885375977">
<ele>411.4</ele>
<time>2024-05-11T15:36:32Z</time>
</trkpt>
<trkpt lat="49.6167563740164" lon="9.376865336671472">
<ele>411.4</ele>
<time>2024-05-11T15:36:34Z</time>
</trkpt>
<trkpt lat="49.61671060882509" lon="9.376838682219386">
<ele>411.2</ele>
<time>2024-05-11T15:36:35Z</time>
</trkpt>
<trkpt lat="49.61666869930923" lon="9.376812865957618">
<ele>411.2</ele>
<time>2024-05-11T15:36:36Z</time>
</trkpt>
<trkpt lat="49.61662285029888" lon="9.376788139343262">
<ele>411</ele>
<time>2024-05-11T15:36:37Z</time>
</trkpt>
<trkpt lat="49.61653517559171" lon="9.376731812953947">
<ele>411</ele>
<time>2024-05-11T15:36:39Z</time>
</trkpt>
<trkpt lat="49.61648941040039" lon="9.376705158501863">
<ele>411</ele>
<time>2024-05-11T15:36:40Z</time>
</trkpt>
<trkpt lat="49.61644356139004" lon="9.37667464837432">
<ele>410.8</ele>
<time>2024-05-11T15:36:41Z</time>
</trkpt>
<trkpt lat="49.616401651874185" lon="9.376643132418394">
<ele>410.8</ele>
<time>2024-05-11T15:36:42Z</time>
</trkpt>
<trkpt lat="49.61631389334798" lon="9.376583034172654">
<ele>410.8</ele>
<time>2024-05-11T15:36:44Z</time>
</trkpt>
<trkpt lat="49.61627190001309" lon="9.376556379720569">
<ele>410.8</ele>
<time>2024-05-11T15:36:45Z</time>
</trkpt>
<trkpt lat="49.61622999049723" lon="9.376528719440104">
<ele>410.8</ele>
<time>2024-05-11T15:36:46Z</time>
</trkpt>
<trkpt lat="49.61618799716234" lon="9.376500053331256">
<ele>410.8</ele>
<time>2024-05-11T15:36:47Z</time>
</trkpt>
<trkpt lat="49.616104094311595" lon="9.376444816589355">
<ele>410.6</ele>
<time>2024-05-11T15:36:49Z</time>
</trkpt>
<trkpt lat="49.61602019146085" lon="9.376384718343616">
<ele>410.6</ele>
<time>2024-05-11T15:36:51Z</time>
</trkpt>
<trkpt lat="49.61597819812596" lon="9.37635127454996">
<ele>410.6</ele>
<time>2024-05-11T15:36:52Z</time>
</trkpt>
<trkpt lat="49.61589429527521" lon="9.376284554600716">
<ele>410.6</ele>
<time>2024-05-11T15:36:54Z</time>
</trkpt>
<trkpt lat="49.615848530083895" lon="9.376253122463822">
<ele>410.6</ele>
<time>2024-05-11T15:36:55Z</time>
</trkpt>
<trkpt lat="49.615806536749005" lon="9.376219678670168">
<ele>410.8</ele>
<time>2024-05-11T15:36:56Z</time>
</trkpt>
<trkpt lat="49.615768399089575" lon="9.376190174371004">
<ele>410.8</ele>
<time>2024-05-11T15:36:57Z</time>
</trkpt>
<trkpt lat="49.61568064056337" lon="9.376125298440456">
<ele>410.8</ele>
<time>2024-05-11T15:36:59Z</time>
</trkpt>
<trkpt lat="49.61563873104751" lon="9.376092860475184">
<ele>411</ele>
<time>2024-05-11T15:37:00Z</time>
</trkpt>
<trkpt lat="49.61559673771262" lon="9.37605665065348">
<ele>411</ele>
<time>2024-05-11T15:37:01Z</time>
</trkpt>
<trkpt lat="49.615550972521305" lon="9.376020357012749">
<ele>411.2</ele>
<time>2024-05-11T15:37:02Z</time>
</trkpt>
<trkpt lat="49.61545944213867" lon="9.375949781388044">
<ele>411.4</ele>
<time>2024-05-11T15:37:04Z</time>
</trkpt>
<trkpt lat="49.61541359312832" lon="9.375911643728614">
<ele>411.6</ele>
<time>2024-05-11T15:37:05Z</time>
</trkpt>
<trkpt lat="49.615371683612466" lon="9.375875433906913">
<ele>411.6</ele>
<time>2024-05-11T15:37:06Z</time>
</trkpt>
<trkpt lat="49.61532591842115" lon="9.375838218256831">
<ele>411.8</ele>
<time>2024-05-11T15:37:07Z</time>
</trkpt>
<trkpt lat="49.6152800694108" lon="9.3758000805974">
<ele>411.8</ele>
<time>2024-05-11T15:37:08Z</time>
</trkpt>
<trkpt lat="49.61523430421949" lon="9.37576286494732">
<ele>411.8</ele>
<time>2024-05-11T15:37:09Z</time>
</trkpt>
<trkpt lat="49.61519239470363" lon="9.375728582963347">
<ele>411.8</ele>
<time>2024-05-11T15:37:10Z</time>
</trkpt>
<trkpt lat="49.61515425704419" lon="9.375693295150995">
<ele>411.8</ele>
<time>2024-05-11T15:37:11Z</time>
</trkpt>
<trkpt lat="49.61510840803385" lon="9.375659935176373">
<ele>411.6</ele>
<time>2024-05-11T15:37:12Z</time>
</trkpt>
<trkpt lat="49.61502836085856" lon="9.375591203570366">
<ele>411.6</ele>
<time>2024-05-11T15:37:14Z</time>
</trkpt>
<trkpt lat="49.61499022319913" lon="9.375557843595743">
<ele>411.6</ele>
<time>2024-05-11T15:37:15Z</time>
</trkpt>
<trkpt lat="49.61494822986424" lon="9.37552448362112">
<ele>411.4</ele>
<time>2024-05-11T15:37:16Z</time>
</trkpt>
<trkpt lat="49.61491009220481" lon="9.375483496114612">
<ele>411.4</ele>
<time>2024-05-11T15:37:17Z</time>
</trkpt>
<trkpt lat="49.61486809886992" lon="9.37544628046453">
<ele>411.4</ele>
<time>2024-05-11T15:37:18Z</time>
</trkpt>
<trkpt lat="49.61482996121049" lon="9.375411914661528">
<ele>411.4</ele>
<time>2024-05-11T15:37:19Z</time>
</trkpt>
<trkpt lat="49.61478419601917" lon="9.375379560515285">
<ele>411.2</ele>
<time>2024-05-11T15:37:20Z</time>
</trkpt>
<trkpt lat="49.61474220268428" lon="9.375340417027472">
<ele>411.2</ele>
<time>2024-05-11T15:37:21Z</time>
</trkpt>
<trkpt lat="49.61469643749297" lon="9.375301357358694">
<ele>411.2</ele>
<time>2024-05-11T15:37:22Z</time>
</trkpt>
<trkpt lat="49.61460876278579" lon="9.37522977590561">
<ele>411.2</ele>
<time>2024-05-11T15:37:24Z</time>
</trkpt>
<trkpt lat="49.61456291377544" lon="9.37519163824618">
<ele>411.2</ele>
<time>2024-05-11T15:37:25Z</time>
</trkpt>
<trkpt lat="49.61451714858413" lon="9.375153500586748">
<ele>411.2</ele>
<time>2024-05-11T15:37:26Z</time>
</trkpt>
<trkpt lat="49.61447138339281" lon="9.375116284936666">
<ele>411</ele>
<time>2024-05-11T15:37:27Z</time>
</trkpt>
<trkpt lat="49.614383624866605" lon="9.375044787302611">
<ele>411</ele>
<time>2024-05-11T15:37:29Z</time>
</trkpt>
<trkpt lat="49.61429595015943" lon="9.374961806461217">
<ele>410.8</ele>
<time>2024-05-11T15:37:31Z</time>
</trkpt>
<trkpt lat="49.61425010114908" lon="9.374921740964057">
<ele>410.8</ele>
<time>2024-05-11T15:37:32Z</time>
</trkpt>
<trkpt lat="49.61415857076645" lon="9.374848315492272">
<ele>410.6</ele>
<time>2024-05-11T15:37:34Z</time>
</trkpt>
<trkpt lat="49.61411280557513" lon="9.374812105670571">
<ele>410.6</ele>
<time>2024-05-11T15:37:35Z</time>
</trkpt>
<trkpt lat="49.614067040383816" lon="9.37477681785822">
<ele>410.4</ele>
<time>2024-05-11T15:37:36Z</time>
</trkpt>
<trkpt lat="49.6140212751925" lon="9.374739602208138">
<ele>410.4</ele>
<time>2024-05-11T15:37:37Z</time>
</trkpt>
<trkpt lat="49.61392588913441" lon="9.374678581953049">
<ele>410.2</ele>
<time>2024-05-11T15:37:39Z</time>
</trkpt>
<trkpt lat="49.61388012394309" lon="9.374647065997124">
<ele>410.2</ele>
<time>2024-05-11T15:37:40Z</time>
</trkpt>
<trkpt lat="49.613834358751774" lon="9.374614711850882">
<ele>410.2</ele>
<time>2024-05-11T15:37:41Z</time>
</trkpt>
<trkpt lat="49.613784737885" lon="9.374580346047878">
<ele>410</ele>
<time>2024-05-11T15:37:42Z</time>
</trkpt>
<trkpt lat="49.61373897269368" lon="9.374546986073256">
<ele>410</ele>
<time>2024-05-11T15:37:43Z</time>
</trkpt>
<trkpt lat="49.613693207502365" lon="9.374514548107982">
<ele>410</ele>
<time>2024-05-11T15:37:44Z</time>
</trkpt>
<trkpt lat="49.61365121416747" lon="9.37448118813336">
<ele>410</ele>
<time>2024-05-11T15:37:45Z</time>
</trkpt>
<trkpt lat="49.61360544897616" lon="9.374451600015163">
<ele>410</ele>
<time>2024-05-11T15:37:46Z</time>
</trkpt>
<trkpt lat="49.61355968378484" lon="9.374422011896968">
<ele>409.8</ele>
<time>2024-05-11T15:37:47Z</time>
</trkpt>
<trkpt lat="49.61347192525864" lon="9.374362919479609">
<ele>409.8</ele>
<time>2024-05-11T15:37:49Z</time>
</trkpt>
<trkpt lat="49.61343001574278" lon="9.374335259199142">
<ele>409.8</ele>
<time>2024-05-11T15:37:50Z</time>
</trkpt>
<trkpt lat="49.613380394876" lon="9.374308520928023">
<ele>409.8</ele>
<time>2024-05-11T15:37:51Z</time>
</trkpt>
<trkpt lat="49.61333462968469" lon="9.374284716323018">
<ele>409.8</ele>
<time>2024-05-11T15:37:52Z</time>
</trkpt>
<trkpt lat="49.61324309930205" lon="9.37423987314105">
<ele>409.8</ele>
<time>2024-05-11T15:37:54Z</time>
</trkpt>
<trkpt lat="49.61319347843528" lon="9.3742217682302">
<ele>409.8</ele>
<time>2024-05-11T15:37:55Z</time>
</trkpt>
<trkpt lat="49.61314771324396" lon="9.37420173548162">
<ele>409.8</ele>
<time>2024-05-11T15:37:56Z</time>
</trkpt>
<trkpt lat="49.613098092377186" lon="9.37418363057077">
<ele>410</ele>
<time>2024-05-11T15:37:57Z</time>
</trkpt>
<trkpt lat="49.613002706319094" lon="9.374150270596148">
<ele>410</ele>
<time>2024-05-11T15:37:59Z</time>
</trkpt>
<trkpt lat="49.61295316927135" lon="9.374133087694643">
<ele>410.2</ele>
<time>2024-05-11T15:38:00Z</time>
</trkpt>
<trkpt lat="49.61290740408003" lon="9.374116826802492">
<ele>410.4</ele>
<time>2024-05-11T15:38:01Z</time>
</trkpt>
<trkpt lat="49.612861555069685" lon="9.37410157173872">
<ele>410.4</ele>
<time>2024-05-11T15:38:02Z</time>
</trkpt>
<trkpt lat="49.612766252830625" lon="9.374076761305332">
<ele>410.6</ele>
<time>2024-05-11T15:38:04Z</time>
</trkpt>
<trkpt lat="49.61271663196385" lon="9.37406343407929">
<ele>410.8</ele>
<time>2024-05-11T15:38:05Z</time>
</trkpt>
<trkpt lat="49.612663239240646" lon="9.374048179015515">
<ele>411</ele>
<time>2024-05-11T15:38:06Z</time>
</trkpt>
<trkpt lat="49.61261361837387" lon="9.374034851789474">
<ele>411</ele>
<time>2024-05-11T15:38:07Z</time>
</trkpt>
<trkpt lat="49.612506832927465" lon="9.374021524563432">
<ele>411.2</ele>
<time>2024-05-11T15:38:09Z</time>
</trkpt>
<trkpt lat="49.61245721206069" lon="9.374012891203163">
<ele>411.2</ele>
<time>2024-05-11T15:38:11Z</time>
</trkpt>
<trkpt lat="49.61235805414617" lon="9.373999563977122">
<ele>411.4</ele>
<time>2024-05-11T15:38:12Z</time>
</trkpt>
<trkpt lat="49.61226266808808" lon="9.373990008607509">
<ele>411.6</ele>
<time>2024-05-11T15:38:14Z</time>
</trkpt>
<trkpt lat="49.61221690289676" lon="9.3739852309227">
<ele>411.8</ele>
<time>2024-05-11T15:38:15Z</time>
</trkpt>
<trkpt lat="49.61217490956187" lon="9.373978609219192">
<ele>411.8</ele>
<time>2024-05-11T15:38:16Z</time>
</trkpt>
<trkpt lat="49.612133000046015" lon="9.373972825706003">
<ele>412</ele>
<time>2024-05-11T15:38:17Z</time>
</trkpt>
<trkpt lat="49.61204909719527" lon="9.373959498479962">
<ele>412</ele>
<time>2024-05-11T15:38:19Z</time>
</trkpt>
<trkpt lat="49.612010875716805" lon="9.373952792957423">
<ele>412.2</ele>
<time>2024-05-11T15:38:20Z</time>
</trkpt>
<trkpt lat="49.61196896620095" lon="9.373947093263268">
<ele>412.2</ele>
<time>2024-05-11T15:38:21Z</time>
</trkpt>
<trkpt lat="49.61192697286606" lon="9.373938543722034">
<ele>412.4</ele>
<time>2024-05-11T15:38:22Z</time>
</trkpt>
<trkpt lat="49.61184307001531" lon="9.373928066343067">
<ele>412.4</ele>
<time>2024-05-11T15:38:24Z</time>
</trkpt>
<trkpt lat="49.61180107668042" lon="9.37392513267696">
<ele>412.4</ele>
<time>2024-05-11T15:38:25Z</time>
</trkpt>
<trkpt lat="49.61176679469645" lon="9.373916583135724">
<ele>412.4</ele>
<time>2024-05-11T15:38:26Z</time>
</trkpt>
<trkpt lat="49.61172865703702" lon="9.373914655297996">
<ele>412.4</ele>
<time>2024-05-11T15:38:27Z</time>
</trkpt>
<trkpt lat="49.611656153574586" lon="9.37390509992838">
<ele>412.6</ele>
<time>2024-05-11T15:38:29Z</time>
</trkpt>
<trkpt lat="49.61162564344704" lon="9.373894622549416">
<ele>412.6</ele>
<time>2024-05-11T15:38:30Z</time>
</trkpt>
<trkpt lat="49.6115951333195" lon="9.37388800084591">
<ele>412.6</ele>
<time>2024-05-11T15:38:31Z</time>
</trkpt>
<trkpt lat="49.61156462319195" lon="9.373881295323372">
<ele>412.8</ele>
<time>2024-05-11T15:38:32Z</time>
</trkpt>
<trkpt lat="49.61150351911783" lon="9.37386796809733">
<ele>412.8</ele>
<time>2024-05-11T15:38:34Z</time>
</trkpt>
<trkpt lat="49.61147300899029" lon="9.373860340565445">
<ele>412.8</ele>
<time>2024-05-11T15:38:35Z</time>
</trkpt>
<trkpt lat="49.61144249886274" lon="9.373856484889984">
<ele>413</ele>
<time>2024-05-11T15:38:36Z</time>
</trkpt>
<trkpt lat="49.61140821687877" lon="9.37384986318648">
<ele>413</ele>
<time>2024-05-11T15:38:37Z</time>
</trkpt>
<trkpt lat="49.611343340948224" lon="9.37384315766394">
<ele>413</ele>
<time>2024-05-11T15:38:39Z</time>
</trkpt>
<trkpt lat="49.61131283082068" lon="9.373838379979134">
<ele>413</ele>
<time>2024-05-11T15:38:40Z</time>
</trkpt>
<trkpt lat="49.61127846501768" lon="9.373831674456596">
<ele>413</ele>
<time>2024-05-11T15:38:41Z</time>
</trkpt>
<trkpt lat="49.611244183033705" lon="9.37382505275309">
<ele>413.2</ele>
<time>2024-05-11T15:38:42Z</time>
</trkpt>
<trkpt lat="49.61117167957127" lon="9.373816419392824">
<ele>413.2</ele>
<time>2024-05-11T15:38:44Z</time>
</trkpt>
<trkpt lat="49.61114116944373" lon="9.37380786985159">
<ele>413.4</ele>
<time>2024-05-11T15:38:45Z</time>
</trkpt>
<trkpt lat="49.61110680364072" lon="9.373800242319705">
<ele>413.6</ele>
<time>2024-05-11T15:38:46Z</time>
</trkpt>
<trkpt lat="49.61107629351318" lon="9.373794542625546">
<ele>413.6</ele>
<time>2024-05-11T15:38:47Z</time>
</trkpt>
<trkpt lat="49.61100001819432" lon="9.37378976494074">
<ele>413.8</ele>
<time>2024-05-11T15:38:49Z</time>
</trkpt>
<trkpt lat="49.61093137040734" lon="9.373776353895664">
<ele>413.8</ele>
<time>2024-05-11T15:38:51Z</time>
</trkpt>
<trkpt lat="49.61089700460434" lon="9.373771660029888">
<ele>413.8</ele>
<time>2024-05-11T15:38:52Z</time>
</trkpt>
<trkpt lat="49.610828356817365" lon="9.373764954507353">
<ele>413.8</ele>
<time>2024-05-11T15:38:54Z</time>
</trkpt>
<trkpt lat="49.61079399101436" lon="9.373756404966116">
<ele>414</ele>
<time>2024-05-11T15:38:55Z</time>
</trkpt>
<trkpt lat="49.61075970903039" lon="9.37374969944358">
<ele>414</ele>
<time>2024-05-11T15:38:56Z</time>
</trkpt>
<trkpt lat="49.61072534322739" lon="9.37374299392104">
<ele>414</ele>
<time>2024-05-11T15:38:57Z</time>
</trkpt>
<trkpt lat="49.61065669544041" lon="9.373731594532728">
<ele>414</ele>
<time>2024-05-11T15:38:59Z</time>
</trkpt>
<trkpt lat="49.61062232963741" lon="9.373724889010193">
<ele>414.2</ele>
<time>2024-05-11T15:39:00Z</time>
</trkpt>
<trkpt lat="49.61058804765344" lon="9.373720111325383">
<ele>414.2</ele>
<time>2024-05-11T15:39:01Z</time>
</trkpt>
<trkpt lat="49.61055368185043" lon="9.373715333640575">
<ele>414.2</ele>
<time>2024-05-11T15:39:02Z</time>
</trkpt>
<trkpt lat="49.61048503406346" lon="9.373702006414533">
<ele>414.4</ele>
<time>2024-05-11T15:39:04Z</time>
</trkpt>
<trkpt lat="49.610450668260455" lon="9.373695300891995">
<ele>414.4</ele>
<time>2024-05-11T15:39:05Z</time>
</trkpt>
<trkpt lat="49.61042015813291" lon="9.37368867918849">
<ele>414.6</ele>
<time>2024-05-11T15:39:06Z</time>
</trkpt>
<trkpt lat="49.61038587614894" lon="9.373684823513033">
<ele>414.6</ele>
<time>2024-05-11T15:39:07Z</time>
</trkpt>
<trkpt lat="49.610313372686505" lon="9.373675268143415">
<ele>414.8</ele>
<time>2024-05-11T15:39:09Z</time>
</trkpt>
<trkpt lat="49.61028286255896" lon="9.37366956844926">
<ele>414.8</ele>
<time>2024-05-11T15:39:10Z</time>
</trkpt>
<trkpt lat="49.61024472489953" lon="9.373664790764453">
<ele>414.8</ele>
<time>2024-05-11T15:39:11Z</time>
</trkpt>
<trkpt lat="49.61021035909653" lon="9.373660013079643">
<ele>414.8</ele>
<time>2024-05-11T15:39:12Z</time>
</trkpt>
<trkpt lat="49.610137939453125" lon="9.37364861369133">
<ele>414.8</ele>
<time>2024-05-11T15:39:14Z</time>
</trkpt>
<trkpt lat="49.61010357365012" lon="9.373641908168793">
<ele>415</ele>
<time>2024-05-11T15:39:15Z</time>
</trkpt>
<trkpt lat="49.61006920784712" lon="9.373635286465287">
<ele>415</ele>
<time>2024-05-11T15:39:16Z</time>
</trkpt>
<trkpt lat="49.61003492586315" lon="9.37362858094275">
<ele>415</ele>
<time>2024-05-11T15:39:17Z</time>
</trkpt>
<trkpt lat="49.609958566725254" lon="9.373616175726056">
<ele>415.2</ele>
<time>2024-05-11T15:39:19Z</time>
</trkpt>
<trkpt lat="49.609920429065824" lon="9.373611398041248">
<ele>415.4</ele>
<time>2024-05-11T15:39:20Z</time>
</trkpt>
<trkpt lat="49.60988614708185" lon="9.37360662035644">
<ele>415.4</ele>
<time>2024-05-11T15:39:21Z</time>
</trkpt>
<trkpt lat="49.60984800942242" lon="9.373599998652937">
<ele>415.6</ele>
<time>2024-05-11T15:39:22Z</time>
</trkpt>
<trkpt lat="49.60977550595999" lon="9.37358851544559">
<ele>415.8</ele>
<time>2024-05-11T15:39:24Z</time>
</trkpt>
<trkpt lat="49.609741140156984" lon="9.373579965904357">
<ele>415.8</ele>
<time>2024-05-11T15:39:25Z</time>
</trkpt>
<trkpt lat="49.609703002497554" lon="9.373575188219547">
<ele>415.8</ele>
<time>2024-05-11T15:39:26Z</time>
</trkpt>
<trkpt lat="49.60967249237001" lon="9.37357041053474">
<ele>416</ele>
<time>2024-05-11T15:39:27Z</time>
</trkpt>
<trkpt lat="49.609599988907576" lon="9.373561777174473">
<ele>416</ele>
<time>2024-05-11T15:39:29Z</time>
</trkpt>
<trkpt lat="49.6095313411206" lon="9.373551299795508">
<ele>416.2</ele>
<time>2024-05-11T15:39:31Z</time>
</trkpt>
<trkpt lat="49.60949320346117" lon="9.373544678092005">
<ele>416.4</ele>
<time>2024-05-11T15:39:32Z</time>
</trkpt>
<trkpt lat="49.609420699998736" lon="9.373531267046928">
<ele>416.6</ele>
<time>2024-05-11T15:39:34Z</time>
</trkpt>
<trkpt lat="49.609386418014765" lon="9.37352841719985">
<ele>416.8</ele>
<time>2024-05-11T15:39:35Z</time>
</trkpt>
<trkpt lat="49.609348280355334" lon="9.373523639515042">
<ele>417</ele>
<time>2024-05-11T15:39:36Z</time>
</trkpt>
<trkpt lat="49.609310142695904" lon="9.373515089973807">
<ele>417.2</ele>
<time>2024-05-11T15:39:37Z</time>
</trkpt>
<trkpt lat="49.60923763923347" lon="9.373501762747765">
<ele>417.4</ele>
<time>2024-05-11T15:39:39Z</time>
</trkpt>
<trkpt lat="49.60920327343047" lon="9.373497907072306">
<ele>417.4</ele>
<time>2024-05-11T15:39:40Z</time>
</trkpt>
<trkpt lat="49.60916513577104" lon="9.373493129387498">
<ele>417.6</ele>
<time>2024-05-11T15:39:41Z</time>
</trkpt>
<trkpt lat="49.609126998111606" lon="9.373486507683992">
<ele>417.8</ele>
<time>2024-05-11T15:39:42Z</time>
</trkpt>
<trkpt lat="49.60905835032463" lon="9.373477874323726">
<ele>418</ele>
<time>2024-05-11T15:39:44Z</time>
</trkpt>
<trkpt lat="49.60901635698974" lon="9.37347125262022">
<ele>418.2</ele>
<time>2024-05-11T15:39:45Z</time>
</trkpt>
<trkpt lat="49.60898207500577" lon="9.373463625088334">
<ele>418.4</ele>
<time>2024-05-11T15:39:46Z</time>
</trkpt>
<trkpt lat="49.608947709202766" lon="9.373456919565797">
<ele>418.6</ele>
<time>2024-05-11T15:39:47Z</time>
</trkpt>
<trkpt lat="49.60887906141579" lon="9.373448370024562">
<ele>418.8</ele>
<time>2024-05-11T15:39:49Z</time>
</trkpt>
<trkpt lat="49.60884855128825" lon="9.373441664502025">
<ele>419</ele>
<time>2024-05-11T15:39:50Z</time>
</trkpt>
<trkpt lat="49.60881418548525" lon="9.373436886817217">
<ele>419.2</ele>
<time>2024-05-11T15:39:51Z</time>
</trkpt>
<trkpt lat="49.60877604782581" lon="9.373428337275982">
<ele>419.4</ele>
<time>2024-05-11T15:39:52Z</time>
</trkpt>
<trkpt lat="49.60870354436338" lon="9.373416854068635">
<ele>419.6</ele>
<time>2024-05-11T15:39:54Z</time>
</trkpt>
<trkpt lat="49.60866926237941" lon="9.37341115437448">
<ele>419.8</ele>
<time>2024-05-11T15:39:55Z</time>
</trkpt>
<trkpt lat="49.608634896576405" lon="9.373401599004865">
<ele>420</ele>
<time>2024-05-11T15:39:56Z</time>
</trkpt>
<trkpt lat="49.608596758916974" lon="9.373398749157786">
<ele>420</ele>
<time>2024-05-11T15:39:57Z</time>
</trkpt>
<trkpt lat="49.60852811113" lon="9.373388271778822">
<ele>420.2</ele>
<time>2024-05-11T15:39:59Z</time>
</trkpt>
<trkpt lat="49.60849374532699" lon="9.373383494094014">
<ele>420.4</ele>
<time>2024-05-11T15:40:00Z</time>
</trkpt>
<trkpt lat="49.608459463343024" lon="9.373378716409206">
<ele>420.6</ele>
<time>2024-05-11T15:40:01Z</time>
</trkpt>
<trkpt lat="49.608421325683594" lon="9.373374860733747">
<ele>420.8</ele>
<time>2024-05-11T15:40:02Z</time>
</trkpt>
<trkpt lat="49.60834882222116" lon="9.373361533507705">
<ele>421</ele>
<time>2024-05-11T15:40:04Z</time>
</trkpt>
<trkpt lat="49.608318312093616" lon="9.3733549118042">
<ele>421.2</ele>
<time>2024-05-11T15:40:05Z</time>
</trkpt>
<trkpt lat="49.60828394629061" lon="9.373346278443933">
<ele>421.4</ele>
<time>2024-05-11T15:40:06Z</time>
</trkpt>
<trkpt lat="49.60824966430664" lon="9.373338650912046">
<ele>421.6</ele>
<time>2024-05-11T15:40:07Z</time>
</trkpt>
<trkpt lat="49.608180932700634" lon="9.373323395848274">
<ele>421.8</ele>
<time>2024-05-11T15:40:09Z</time>
</trkpt>
<trkpt lat="49.60814665071666" lon="9.373318618163466">
<ele>422</ele>
<time>2024-05-11T15:40:11Z</time>
</trkpt>
<trkpt lat="49.60807414725423" lon="9.373308140784502">
<ele>422.6</ele>
<time>2024-05-11T15:40:12Z</time>
</trkpt>
<trkpt lat="49.608001643791795" lon="9.37329481355846">
<ele>422.8</ele>
<time>2024-05-11T15:40:14Z</time>
</trkpt>
<trkpt lat="49.60796350613237" lon="9.373288108035922">
<ele>423</ele>
<time>2024-05-11T15:40:15Z</time>
</trkpt>
<trkpt lat="49.60792922414839" lon="9.373285258188844">
<ele>423.4</ele>
<time>2024-05-11T15:40:16Z</time>
</trkpt>
<trkpt lat="49.60789485834539" lon="9.373281402513385">
<ele>423.6</ele>
<time>2024-05-11T15:40:17Z</time>
</trkpt>
<trkpt lat="49.60782235488296" lon="9.37327285297215">
<ele>423.8</ele>
<time>2024-05-11T15:40:19Z</time>
</trkpt>
<trkpt lat="49.607788072898984" lon="9.373268075287342">
<ele>424</ele>
<time>2024-05-11T15:40:20Z</time>
</trkpt>
<trkpt lat="49.60775370709598" lon="9.373265225440264">
<ele>424.4</ele>
<time>2024-05-11T15:40:21Z</time>
</trkpt>
<trkpt lat="49.60771556943655" lon="9.373261369764805">
<ele>424.6</ele>
<time>2024-05-11T15:40:22Z</time>
</trkpt>
<trkpt lat="49.60763929411769" lon="9.37325189821422">
<ele>424.8</ele>
<time>2024-05-11T15:40:24Z</time>
</trkpt>
<trkpt lat="49.607604928314686" lon="9.373239492997527">
<ele>425.2</ele>
<time>2024-05-11T15:40:25Z</time>
</trkpt>
<trkpt lat="49.607566790655255" lon="9.37323379330337">
<ele>425.4</ele>
<time>2024-05-11T15:40:26Z</time>
</trkpt>
<trkpt lat="49.607528652995825" lon="9.373227087780831">
<ele>425.6</ele>
<time>2024-05-11T15:40:27Z</time>
</trkpt>
<trkpt lat="49.60745237767696" lon="9.37321468256414">
<ele>426</ele>
<time>2024-05-11T15:40:29Z</time>
</trkpt>
<trkpt lat="49.60741424001753" lon="9.373209904879332">
<ele>426.2</ele>
<time>2024-05-11T15:40:30Z</time>
</trkpt>
<trkpt lat="49.60737601853907" lon="9.373205127194524">
<ele>426.6</ele>
<time>2024-05-11T15:40:31Z</time>
</trkpt>
<trkpt lat="49.6073417365551" lon="9.373201355338097">
<ele>426.8</ele>
<time>2024-05-11T15:40:32Z</time>
</trkpt>
<trkpt lat="49.60726160556078" lon="9.37319464981556">
<ele>427.2</ele>
<time>2024-05-11T15:40:34Z</time>
</trkpt>
<trkpt lat="49.60722732357681" lon="9.373187944293022">
<ele>427.4</ele>
<time>2024-05-11T15:40:35Z</time>
</trkpt>
<trkpt lat="49.607192957773805" lon="9.373181322589517">
<ele>427.6</ele>
<time>2024-05-11T15:40:36Z</time>
</trkpt>
<trkpt lat="49.607154820114374" lon="9.37317369505763">
<ele>427.8</ele>
<time>2024-05-11T15:40:37Z</time>
</trkpt>
<trkpt lat="49.60707854479551" lon="9.373160284012556">
<ele>428</ele>
<time>2024-05-11T15:40:39Z</time>
</trkpt>
<trkpt lat="49.60700218565762" lon="9.373149806633592">
<ele>428.4</ele>
<time>2024-05-11T15:40:41Z</time>
</trkpt>
<trkpt lat="49.60696790367365" lon="9.373143184930086">
<ele>428.6</ele>
<time>2024-05-11T15:40:42Z</time>
</trkpt>
<trkpt lat="49.60689162835479" lon="9.37313455156982">
<ele>428.8</ele>
<time>2024-05-11T15:40:44Z</time>
</trkpt>
<trkpt lat="49.606853406876326" lon="9.373129773885012">
<ele>429.2</ele>
<time>2024-05-11T15:40:45Z</time>
</trkpt>
<trkpt lat="49.606815269216895" lon="9.373124996200204">
<ele>429.4</ele>
<time>2024-05-11T15:40:46Z</time>
</trkpt>
<trkpt lat="49.606777131557465" lon="9.373118374496698">
<ele>429.6</ele>
<time>2024-05-11T15:40:47Z</time>
</trkpt>
<trkpt lat="49.60670848377049" lon="9.373106891289352">
<ele>430</ele>
<time>2024-05-11T15:40:49Z</time>
</trkpt>
<trkpt lat="49.60667034611106" lon="9.373101191595197">
<ele>430.2</ele>
<time>2024-05-11T15:40:51Z</time>
</trkpt>
<trkpt lat="49.60660169832408" lon="9.373087864369154">
<ele>431</ele>
<time>2024-05-11T15:40:52Z</time>
</trkpt>
<trkpt lat="49.60653305053711" lon="9.373069759458303">
<ele>431.2</ele>
<time>2024-05-11T15:40:54Z</time>
</trkpt>
<trkpt lat="49.60649482905865" lon="9.373063053935766">
<ele>431.6</ele>
<time>2024-05-11T15:40:55Z</time>
</trkpt>
<trkpt lat="49.60645669139922" lon="9.373058276250958">
<ele>431.8</ele>
<time>2024-05-11T15:40:56Z</time>
</trkpt>
<trkpt lat="49.60641478188336" lon="9.37305542640388">
<ele>432</ele>
<time>2024-05-11T15:40:57Z</time>
</trkpt>
<trkpt lat="49.606338422745466" lon="9.373044949024916">
<ele>432.4</ele>
<time>2024-05-11T15:40:59Z</time>
</trkpt>
<trkpt lat="49.60630028508603" lon="9.373038243502378">
<ele>432.6</ele>
<time>2024-05-11T15:41:00Z</time>
</trkpt>
<trkpt lat="49.60625837557018" lon="9.37303153797984">
<ele>433</ele>
<time>2024-05-11T15:41:01Z</time>
</trkpt>
<trkpt lat="49.60622023791075" lon="9.373024916276336">
<ele>433.2</ele>
<time>2024-05-11T15:41:02Z</time>
</trkpt>
<trkpt lat="49.606143878772855" lon="9.373011589050291">
<ele>433.4</ele>
<time>2024-05-11T15:41:04Z</time>
</trkpt>
<trkpt lat="49.606105741113424" lon="9.373006811365483">
<ele>433.6</ele>
<time>2024-05-11T15:41:05Z</time>
</trkpt>
<trkpt lat="49.606067603453994" lon="9.373002033680676">
<ele>433.8</ele>
<time>2024-05-11T15:41:06Z</time>
</trkpt>
<trkpt lat="49.606025693938136" lon="9.372996250167487">
<ele>433.8</ele>
<time>2024-05-11T15:41:07Z</time>
</trkpt>
<trkpt lat="49.60594170726836" lon="9.372982000932096">
<ele>433.8</ele>
<time>2024-05-11T15:41:09Z</time>
</trkpt>
<trkpt lat="49.6058997977525" lon="9.37297336757183">
<ele>434</ele>
<time>2024-05-11T15:41:10Z</time>
</trkpt>
<trkpt lat="49.60585780441761" lon="9.372964818030596">
<ele>434</ele>
<time>2024-05-11T15:41:11Z</time>
</trkpt>
<trkpt lat="49.60581581108272" lon="9.37295811250806">
<ele>434</ele>
<time>2024-05-11T15:41:12Z</time>
</trkpt>
<trkpt lat="49.60572813637555" lon="9.372944785282016">
<ele>434</ele>
<time>2024-05-11T15:41:14Z</time>
</trkpt>
<trkpt lat="49.60568237118423" lon="9.37293807975948">
<ele>434</ele>
<time>2024-05-11T15:41:15Z</time>
</trkpt>
<trkpt lat="49.60563652217388" lon="9.372933385893704">
<ele>434</ele>
<time>2024-05-11T15:41:16Z</time>
</trkpt>
<trkpt lat="49.605594612658024" lon="9.372926680371163">
<ele>433.8</ele>
<time>2024-05-11T15:41:17Z</time>
</trkpt>
<trkpt lat="49.60550685413182" lon="9.372911425307391">
<ele>433.8</ele>
<time>2024-05-11T15:41:19Z</time>
</trkpt>
<trkpt lat="49.60543057881296" lon="9.37289516441524">
<ele>434</ele>
<time>2024-05-11T15:41:21Z</time>
</trkpt>
<trkpt lat="49.605392441153526" lon="9.372891392558811">
<ele>434</ele>
<time>2024-05-11T15:41:22Z</time>
</trkpt>
<trkpt lat="49.60530468262732" lon="9.372879909351468">
<ele>434</ele>
<time>2024-05-11T15:41:24Z</time>
</trkpt>
<trkpt lat="49.605258917436" lon="9.372871359810231">
<ele>434</ele>
<time>2024-05-11T15:41:25Z</time>
</trkpt>
<trkpt lat="49.60521315224469" lon="9.372866582125424">
<ele>434.2</ele>
<time>2024-05-11T15:41:26Z</time>
</trkpt>
<trkpt lat="49.60516353137791" lon="9.372861804440618">
<ele>434.2</ele>
<time>2024-05-11T15:41:27Z</time>
</trkpt>
<trkpt lat="49.60507200099528" lon="9.372846549376844">
<ele>434.4</ele>
<time>2024-05-11T15:41:29Z</time>
</trkpt>
<trkpt lat="49.60502623580396" lon="9.372835149988532">
<ele>434.6</ele>
<time>2024-05-11T15:41:30Z</time>
</trkpt>
<trkpt lat="49.60498038679361" lon="9.372828444465997">
<ele>434.6</ele>
<time>2024-05-11T15:41:31Z</time>
</trkpt>
<trkpt lat="49.60493847727776" lon="9.37281989492476">
<ele>434.8</ele>
<time>2024-05-11T15:41:32Z</time>
</trkpt>
<trkpt lat="49.604843091219664" lon="9.372797012329102">
<ele>434.8</ele>
<time>2024-05-11T15:41:34Z</time>
</trkpt>
<trkpt lat="49.604801097884774" lon="9.372786451131104">
<ele>435</ele>
<time>2024-05-11T15:41:35Z</time>
</trkpt>
<trkpt lat="49.60475156083703" lon="9.37277790158987">
<ele>435</ele>
<time>2024-05-11T15:41:36Z</time>
</trkpt>
<trkpt lat="49.604701939970255" lon="9.372775051742792">
<ele>435.2</ele>
<time>2024-05-11T15:41:37Z</time>
</trkpt>
<trkpt lat="49.60459515452385" lon="9.372766418382524">
<ele>435.2</ele>
<time>2024-05-11T15:41:39Z</time>
</trkpt>
<trkpt lat="49.604545533657074" lon="9.37275786884129">
<ele>435.2</ele>
<time>2024-05-11T15:41:40Z</time>
</trkpt>
<trkpt lat="49.60449214093387" lon="9.372750241309404">
<ele>435.2</ele>
<time>2024-05-11T15:41:41Z</time>
</trkpt>
<trkpt lat="49.60443489253521" lon="9.372743535786867">
<ele>435.2</ele>
<time>2024-05-11T15:41:42Z</time>
</trkpt>
<trkpt lat="49.60431670770049" lon="9.372730208560824">
<ele>435.2</ele>
<time>2024-05-11T15:41:44Z</time>
</trkpt>
<trkpt lat="49.60425945930183" lon="9.372718809172513">
<ele>435.2</ele>
<time>2024-05-11T15:41:45Z</time>
</trkpt>
<trkpt lat="49.60419843904674" lon="9.372703470289707">
<ele>435.4</ele>
<time>2024-05-11T15:41:46Z</time>
</trkpt>
<trkpt lat="49.60413741879165" lon="9.372692992910745">
<ele>435.4</ele>
<time>2024-05-11T15:41:47Z</time>
</trkpt>
<trkpt lat="49.604011522606015" lon="9.372672038152814">
<ele>435.4</ele>
<time>2024-05-11T15:41:49Z</time>
</trkpt>
<trkpt lat="49.603950418531895" lon="9.37265963293612">
<ele>435.4</ele>
<time>2024-05-11T15:41:50Z</time>
</trkpt>
<trkpt lat="49.60388562642038" lon="9.372652005404234">
<ele>435.4</ele>
<time>2024-05-11T15:41:51Z</time>
</trkpt>
<trkpt lat="49.60381697863341" lon="9.37263960018754">
<ele>435.2</ele>
<time>2024-05-11T15:41:52Z</time>
</trkpt>
<trkpt lat="49.60368345491588" lon="9.37262149527669">
<ele>435</ele>
<time>2024-05-11T15:41:54Z</time>
</trkpt>
<trkpt lat="49.603614807128906" lon="9.372614789754152">
<ele>434.8</ele>
<time>2024-05-11T15:41:55Z</time>
</trkpt>
<trkpt lat="49.6035460755229" lon="9.37260339036584">
<ele>434.6</ele>
<time>2024-05-11T15:41:56Z</time>
</trkpt>
<trkpt lat="49.6034736558795" lon="9.372592912986876">
<ele>434.6</ele>
<time>2024-05-11T15:41:57Z</time>
</trkpt>
<trkpt lat="49.6033248770982" lon="9.372570030391216">
<ele>434.4</ele>
<time>2024-05-11T15:41:59Z</time>
</trkpt>
<trkpt lat="49.60325237363577" lon="9.372558547183871">
<ele>434.2</ele>
<time>2024-05-11T15:42:00Z</time>
</trkpt>
<trkpt lat="49.60317224264145" lon="9.372549997642636">
<ele>434</ele>
<time>2024-05-11T15:42:01Z</time>
</trkpt>
<trkpt lat="49.60309211164713" lon="9.372539520263672">
<ele>433.8</ele>
<time>2024-05-11T15:42:02Z</time>
</trkpt>
<trkpt lat="49.602928161621094" lon="9.372513704001904">
<ele>433.6</ele>
<time>2024-05-11T15:42:04Z</time>
</trkpt>
<trkpt lat="49.602848030626774" lon="9.372496604919434">
<ele>433.4</ele>
<time>2024-05-11T15:42:05Z</time>
</trkpt>
<trkpt lat="49.60276027210057" lon="9.37248126603663">
<ele>433.2</ele>
<time>2024-05-11T15:42:06Z</time>
</trkpt>
<trkpt lat="49.60267636924982" lon="9.372471794486046">
<ele>432.8</ele>
<time>2024-05-11T15:42:07Z</time>
</trkpt>
<trkpt lat="49.602592466399074" lon="9.3724603112787">
<ele>432.6</ele>
<time>2024-05-11T15:42:08Z</time>
</trkpt>
<trkpt lat="49.60250470787287" lon="9.3724431283772">
<ele>432.4</ele>
<time>2024-05-11T15:42:09Z</time>
</trkpt>
<trkpt lat="49.60241694934666" lon="9.37242125160992">
<ele>432.2</ele>
<time>2024-05-11T15:42:10Z</time>
</trkpt>
<trkpt lat="49.602329190820456" lon="9.37240121886134">
<ele>432</ele>
<time>2024-05-11T15:42:11Z</time>
</trkpt>
<trkpt lat="49.60223766043782" lon="9.372383113950493">
<ele>431.8</ele>
<time>2024-05-11T15:42:12Z</time>
</trkpt>
<trkpt lat="49.602035488933325" lon="9.372348748147488">
<ele>431.6</ele>
<time>2024-05-11T15:42:14Z</time>
</trkpt>
<trkpt lat="49.60194395855069" lon="9.372329637408257">
<ele>431.2</ele>
<time>2024-05-11T15:42:15Z</time>
</trkpt>
<trkpt lat="49.60185997188091" lon="9.372318238019943">
<ele>431</ele>
<time>2024-05-11T15:42:16Z</time>
</trkpt>
<trkpt lat="49.601776069030166" lon="9.372302982956173">
<ele>430.6</ele>
<time>2024-05-11T15:42:17Z</time>
</trkpt>
<trkpt lat="49.60160440765321" lon="9.372273394837976">
<ele>430.4</ele>
<time>2024-05-11T15:42:19Z</time>
</trkpt>
<trkpt lat="49.601520504802465" lon="9.372255289927123">
<ele>430</ele>
<time>2024-05-11T15:42:20Z</time>
</trkpt>
<trkpt lat="49.60143660195172" lon="9.372236179187894">
<ele>429.8</ele>
<time>2024-05-11T15:42:21Z</time>
</trkpt>
<trkpt lat="49.6013564709574" lon="9.372218074277043">
<ele>429.6</ele>
<time>2024-05-11T15:42:22Z</time>
</trkpt>
<trkpt lat="49.60121154785156" lon="9.372188486158848">
<ele>429.2</ele>
<time>2024-05-11T15:42:24Z</time>
</trkpt>
<trkpt lat="49.60113904438913" lon="9.372171387076378">
<ele>429</ele>
<time>2024-05-11T15:42:25Z</time>
</trkpt>
<trkpt lat="49.601070396602154" lon="9.372157976031303">
<ele>428.8</ele>
<time>2024-05-11T15:42:26Z</time>
</trkpt>
<trkpt lat="49.601005520671606" lon="9.37214464880526">
<ele>428.6</ele>
<time>2024-05-11T15:42:27Z</time>
</trkpt>
<trkpt lat="49.60088348016143" lon="9.37212654389441">
<ele>428.4</ele>
<time>2024-05-11T15:42:29Z</time>
</trkpt>
<trkpt lat="49.60082623176277" lon="9.372116988524796">
<ele>428.2</ele>
<time>2024-05-11T15:42:30Z</time>
</trkpt>
<trkpt lat="49.60077283903957" lon="9.3721045833081">
<ele>428.2</ele>
<time>2024-05-11T15:42:31Z</time>
</trkpt>
<trkpt lat="49.60072321817279" lon="9.372093183919787">
<ele>428</ele>
<time>2024-05-11T15:42:32Z</time>
</trkpt>
<trkpt lat="49.60062020458281" lon="9.372075079008937">
<ele>428</ele>
<time>2024-05-11T15:42:34Z</time>
</trkpt>
<trkpt lat="49.60057066753507" lon="9.37206644564867">
<ele>428.2</ele>
<time>2024-05-11T15:42:35Z</time>
</trkpt>
<trkpt lat="49.60052104666829" lon="9.372055046260355">
<ele>428.2</ele>
<time>2024-05-11T15:42:36Z</time>
</trkpt>
<trkpt lat="49.60047142580152" lon="9.37204448506236">
<ele>428.4</ele>
<time>2024-05-11T15:42:37Z</time>
</trkpt>
<trkpt lat="49.60037226788699" lon="9.372023530304432">
<ele>428.6</ele>
<time>2024-05-11T15:42:39Z</time>
</trkpt>
<trkpt lat="49.60032264702022" lon="9.372013052925467">
<ele>428.8</ele>
<time>2024-05-11T15:42:40Z</time>
</trkpt>
<trkpt lat="49.600276881828904" lon="9.372001569718122">
<ele>428.8</ele>
<time>2024-05-11T15:42:41Z</time>
</trkpt>
<trkpt lat="49.60023111663759" lon="9.37199017032981">
<ele>429.2</ele>
<time>2024-05-11T15:42:42Z</time>
</trkpt>
<trkpt lat="49.60013195872307" lon="9.3719682097435">
<ele>429.4</ele>
<time>2024-05-11T15:42:44Z</time>
</trkpt>
<trkpt lat="49.60008233785629" lon="9.371959660202265">
<ele>429.8</ele>
<time>2024-05-11T15:42:45Z</time>
</trkpt>
<trkpt lat="49.60003280080855" lon="9.37195203267038">
<ele>430.2</ele>
<time>2024-05-11T15:42:46Z</time>
</trkpt>
<trkpt lat="49.59998317994177" lon="9.371941555291414">
<ele>430.4</ele>
<time>2024-05-11T15:42:47Z</time>
</trkpt>
<trkpt lat="49.599880166351795" lon="9.37192529439926">
<ele>430.6</ele>
<time>2024-05-11T15:42:49Z</time>
</trkpt>
<trkpt lat="49.59983054548502" lon="9.371912889182568">
<ele>431</ele>
<time>2024-05-11T15:42:50Z</time>
</trkpt>
<trkpt lat="49.59978100843728" lon="9.371898639947176">
<ele>431.2</ele>
<time>2024-05-11T15:42:51Z</time>
</trkpt>
<trkpt lat="49.59972761571407" lon="9.371886234730482">
<ele>431.6</ele>
<time>2024-05-11T15:42:52Z</time>
</trkpt>
<trkpt lat="49.59962074644864" lon="9.371866201981902">
<ele>431.8</ele>
<time>2024-05-11T15:42:54Z</time>
</trkpt>
<trkpt lat="49.59956735372543" lon="9.371858574450016">
<ele>432</ele>
<time>2024-05-11T15:42:55Z</time>
</trkpt>
<trkpt lat="49.59952158853412" lon="9.37184994108975">
<ele>432.2</ele>
<time>2024-05-11T15:42:56Z</time>
</trkpt>
<trkpt lat="49.59947196766734" lon="9.371838541701436">
<ele>432.4</ele>
<time>2024-05-11T15:42:57Z</time>
</trkpt>
<trkpt lat="49.599369037896395" lon="9.371823286637664">
<ele>432.4</ele>
<time>2024-05-11T15:42:59Z</time>
</trkpt>
<trkpt lat="49.59932327270508" lon="9.37181180343032">
<ele>432.6</ele>
<time>2024-05-11T15:43:00Z</time>
</trkpt>
<trkpt lat="49.5992736518383" lon="9.371801326051354">
<ele>432.6</ele>
<time>2024-05-11T15:43:01Z</time>
</trkpt>
<trkpt lat="49.5992202591151" lon="9.371793698519468">
<ele>432.8</ele>
<time>2024-05-11T15:43:02Z</time>
</trkpt>
<trkpt lat="49.59911724552512" lon="9.371773665770888">
<ele>432.8</ele>
<time>2024-05-11T15:43:04Z</time>
</trkpt>
<trkpt lat="49.59906385280192" lon="9.371763188391924">
<ele>433</ele>
<time>2024-05-11T15:43:05Z</time>
</trkpt>
<trkpt lat="49.59901423193514" lon="9.37174986116588">
<ele>433</ele>
<time>2024-05-11T15:43:06Z</time>
</trkpt>
<trkpt lat="49.59896461106837" lon="9.371740305796266">
<ele>433.2</ele>
<time>2024-05-11T15:43:07Z</time>
</trkpt>
<trkpt lat="49.598873080685735" lon="9.371721195057034">
<ele>433.4</ele>
<time>2024-05-11T15:43:09Z</time>
</trkpt>
<trkpt lat="49.59882731549442" lon="9.37171172350645">
<ele>433.4</ele>
<time>2024-05-11T15:43:10Z</time>
</trkpt>
<trkpt lat="49.5987815503031" lon="9.371701162308456">
<ele>433.4</ele>
<time>2024-05-11T15:43:11Z</time>
</trkpt>
<trkpt lat="49.598735785111785" lon="9.37168976292014">
<ele>433.6</ele>
<time>2024-05-11T15:43:12Z</time>
</trkpt>
<trkpt lat="49.598636627197266" lon="9.37167165800929">
<ele>433.6</ele>
<time>2024-05-11T15:43:14Z</time>
</trkpt>
<trkpt lat="49.59858315065503" lon="9.371666880324485">
<ele>433.8</ele>
<time>2024-05-11T15:43:15Z</time>
</trkpt>
<trkpt lat="49.59852975793183" lon="9.371660174801946">
<ele>434</ele>
<time>2024-05-11T15:43:16Z</time>
</trkpt>
<trkpt lat="49.598480220884085" lon="9.37165162526071">
<ele>434</ele>
<time>2024-05-11T15:43:17Z</time>
</trkpt>
<trkpt lat="49.59837720729411" lon="9.37163159251213">
<ele>434.2</ele>
<time>2024-05-11T15:43:19Z</time>
</trkpt>
<trkpt lat="49.598323814570904" lon="9.371622959151864">
<ele>434.2</ele>
<time>2024-05-11T15:43:20Z</time>
</trkpt>
<trkpt lat="49.59827033802867" lon="9.37161348760128">
<ele>434.4</ele>
<time>2024-05-11T15:43:21Z</time>
</trkpt>
<trkpt lat="49.59821694530547" lon="9.371600076556206">
<ele>434.4</ele>
<time>2024-05-11T15:43:22Z</time>
</trkpt>
<trkpt lat="49.59811015985906" lon="9.371578199788928">
<ele>434.6</ele>
<time>2024-05-11T15:43:24Z</time>
</trkpt>
<trkpt lat="49.5980529114604" lon="9.37157149426639">
<ele>434.6</ele>
<time>2024-05-11T15:43:25Z</time>
</trkpt>
<trkpt lat="49.5979995187372" lon="9.371562944725156">
<ele>434.6</ele>
<time>2024-05-11T15:43:26Z</time>
</trkpt>
<trkpt lat="49.59795375354588" lon="9.37154953368008">
<ele>434.8</ele>
<time>2024-05-11T15:43:27Z</time>
</trkpt>
<trkpt lat="49.59785836748779" lon="9.3715295009315">
<ele>434.8</ele>
<time>2024-05-11T15:43:29Z</time>
</trkpt>
<trkpt lat="49.597804974764585" lon="9.371522879227996">
<ele>435</ele>
<time>2024-05-11T15:43:30Z</time>
</trkpt>
<trkpt lat="49.59775920957327" lon="9.37151332385838">
<ele>435</ele>
<time>2024-05-11T15:43:31Z</time>
</trkpt>
<trkpt lat="49.59770958870649" lon="9.371508546173573">
<ele>435.2</ele>
<time>2024-05-11T15:43:32Z</time>
</trkpt>
<trkpt lat="49.59760665893555" lon="9.371501840651035">
<ele>435.2</ele>
<time>2024-05-11T15:43:34Z</time>
</trkpt>
<trkpt lat="49.59755318239331" lon="9.371499996632338">
<ele>435.4</ele>
<time>2024-05-11T15:43:35Z</time>
</trkpt>
<trkpt lat="49.59749601781368" lon="9.371490441262722">
<ele>435.4</ele>
<time>2024-05-11T15:43:36Z</time>
</trkpt>
<trkpt lat="49.59744262509048" lon="9.37147325836122">
<ele>435.4</ele>
<time>2024-05-11T15:43:37Z</time>
</trkpt>
<trkpt lat="49.59734338335693" lon="9.371444676071404">
<ele>435.2</ele>
<time>2024-05-11T15:43:39Z</time>
</trkpt>
<trkpt lat="49.59729761816561" lon="9.37143512070179">
<ele>435.2</ele>
<time>2024-05-11T15:43:40Z</time>
</trkpt>
<trkpt lat="49.597251852974296" lon="9.371426571160557">
<ele>435</ele>
<time>2024-05-11T15:43:41Z</time>
</trkpt>
<trkpt lat="49.59720608778298" lon="9.37141701579094">
<ele>435</ele>
<time>2024-05-11T15:43:42Z</time>
</trkpt>
<trkpt lat="49.59711070172489" lon="9.3713931273669">
<ele>434.8</ele>
<time>2024-05-11T15:43:44Z</time>
</trkpt>
<trkpt lat="49.59706108085811" lon="9.371386505663397">
<ele>434.8</ele>
<time>2024-05-11T15:43:45Z</time>
</trkpt>
<trkpt lat="49.59701154381037" lon="9.371379800140858">
<ele>434.6</ele>
<time>2024-05-11T15:43:46Z</time>
</trkpt>
<trkpt lat="49.59696192294359" lon="9.371371250599625">
<ele>434.6</ele>
<time>2024-05-11T15:43:47Z</time>
</trkpt>
<trkpt lat="49.59686276502907" lon="9.371353145688772">
<ele>434.4</ele>
<time>2024-05-11T15:43:49Z</time>
</trkpt>
<trkpt lat="49.59680937230587" lon="9.371341662481427">
<ele>434.2</ele>
<time>2024-05-11T15:43:50Z</time>
</trkpt>
<trkpt lat="49.596759751439095" lon="9.371333112940192">
<ele>434</ele>
<time>2024-05-11T15:43:51Z</time>
</trkpt>
<trkpt lat="49.59671013057232" lon="9.371326407417657">
<ele>433.8</ele>
<time>2024-05-11T15:43:52Z</time>
</trkpt>
<trkpt lat="49.596603345125914" lon="9.37131492421031">
<ele>433.6</ele>
<time>2024-05-11T15:43:54Z</time>
</trkpt>
<trkpt lat="49.59654995240271" lon="9.371306374669077">
<ele>433.4</ele>
<time>2024-05-11T15:43:55Z</time>
</trkpt>
<trkpt lat="49.596500331535935" lon="9.371293047443032">
<ele>433.2</ele>
<time>2024-05-11T15:43:56Z</time>
</trkpt>
<trkpt lat="49.59645079448819" lon="9.371273014694452">
<ele>433</ele>
<time>2024-05-11T15:43:57Z</time>
</trkpt>
<trkpt lat="49.59639354608953" lon="9.371258681640027">
<ele>433</ele>
<time>2024-05-11T15:43:58Z</time>
</trkpt>
<trkpt lat="49.59633629769087" lon="9.371248204261065">
<ele>432.8</ele>
<time>2024-05-11T15:43:59Z</time>
</trkpt>
<trkpt lat="49.59627913311124" lon="9.37123965471983">
<ele>432.6</ele>
<time>2024-05-11T15:44:00Z</time>
</trkpt>
<trkpt lat="49.59621802903712" lon="9.371226243674757">
<ele>432.4</ele>
<time>2024-05-11T15:44:01Z</time>
</trkpt>
<trkpt lat="49.59615700878203" lon="9.371216772124171">
<ele>432.2</ele>
<time>2024-05-11T15:44:02Z</time>
</trkpt>
<trkpt lat="49.59603111259639" lon="9.371191961690784">
<ele>432</ele>
<time>2024-05-11T15:44:04Z</time>
</trkpt>
<trkpt lat="49.595970092341304" lon="9.371176706627011">
<ele>431.8</ele>
<time>2024-05-11T15:44:05Z</time>
</trkpt>
<trkpt lat="49.59590530022979" lon="9.37116145156324">
<ele>431.6</ele>
<time>2024-05-11T15:44:06Z</time>
</trkpt>
<trkpt lat="49.59584419615567" lon="9.371145190671086">
<ele>431.6</ele>
<time>2024-05-11T15:44:07Z</time>
</trkpt>
<trkpt lat="49.59578703157604" lon="9.371131863445044">
<ele>431.4</ele>
<time>2024-05-11T15:44:08Z</time>
</trkpt>
<trkpt lat="49.595729783177376" lon="9.371114680543542">
<ele>431.4</ele>
<time>2024-05-11T15:44:09Z</time>
</trkpt>
<trkpt lat="49.59566876292229" lon="9.3711013533175">
<ele>431.2</ele>
<time>2024-05-11T15:44:10Z</time>
</trkpt>
<trkpt lat="49.5956077426672" lon="9.371085092425346">
<ele>431</ele>
<time>2024-05-11T15:44:11Z</time>
</trkpt>
<trkpt lat="49.59554672241211" lon="9.371067993342876">
<ele>430.8</ele>
<time>2024-05-11T15:44:12Z</time>
</trkpt>
<trkpt lat="49.59548561833799" lon="9.371054582297802">
<ele>430.8</ele>
<time>2024-05-11T15:44:13Z</time>
</trkpt>
<trkpt lat="49.59542082622647" lon="9.371045110747218">
<ele>430.6</ele>
<time>2024-05-11T15:44:14Z</time>
</trkpt>
<trkpt lat="49.595355950295925" lon="9.371034549549222">
<ele>430.6</ele>
<time>2024-05-11T15:44:15Z</time>
</trkpt>
<trkpt lat="49.59529493004083" lon="9.37102122232318">
<ele>430.4</ele>
<time>2024-05-11T15:44:16Z</time>
</trkpt>
<trkpt lat="49.59523005411029" lon="9.371011666953564">
<ele>430.2</ele>
<time>2024-05-11T15:44:17Z</time>
</trkpt>
<trkpt lat="49.595100386068225" lon="9.370989790186286">
<ele>430.2</ele>
<time>2024-05-11T15:44:19Z</time>
</trkpt>
<trkpt lat="49.595039365813136" lon="9.37097830697894">
<ele>430</ele>
<time>2024-05-11T15:44:20Z</time>
</trkpt>
<trkpt lat="49.594982117414474" lon="9.370969757437706">
<ele>429.6</ele>
<time>2024-05-11T15:44:21Z</time>
</trkpt>
<trkpt lat="49.59491724148393" lon="9.370963051915169">
<ele>429.4</ele>
<time>2024-05-11T15:44:22Z</time>
</trkpt>
<trkpt lat="49.59485236555338" lon="9.370954502373934">
<ele>429.2</ele>
<time>2024-05-11T15:44:23Z</time>
</trkpt>
<trkpt lat="49.59479134529829" lon="9.370943019166589">
<ele>429</ele>
<time>2024-05-11T15:44:24Z</time>
</trkpt>
<trkpt lat="49.594722697511315" lon="9.370931619778275">
<ele>428.8</ele>
<time>2024-05-11T15:44:25Z</time>
</trkpt>
<trkpt lat="49.59465404972434" lon="9.3709182087332">
<ele>428.4</ele>
<time>2024-05-11T15:44:26Z</time>
</trkpt>
<trkpt lat="49.59458917379379" lon="9.370902953669429">
<ele>428.2</ele>
<time>2024-05-11T15:44:27Z</time>
</trkpt>
<trkpt lat="49.59452438168228" lon="9.370891554281116">
<ele>428</ele>
<time>2024-05-11T15:44:28Z</time>
</trkpt>
<trkpt lat="49.59445950575173" lon="9.37087814323604">
<ele>428</ele>
<time>2024-05-11T15:44:29Z</time>
</trkpt>
<trkpt lat="49.59439462982118" lon="9.370864816009998">
<ele>427.8</ele>
<time>2024-05-11T15:44:30Z</time>
</trkpt>
<trkpt lat="49.594329753890634" lon="9.370853416621683">
<ele>427.6</ele>
<time>2024-05-11T15:44:31Z</time>
</trkpt>
<trkpt lat="49.59426110610366" lon="9.37084000557661">
<ele>427.4</ele>
<time>2024-05-11T15:44:32Z</time>
</trkpt>
<trkpt lat="49.59419631399214" lon="9.37082290649414">
<ele>427.2</ele>
<time>2024-05-11T15:44:33Z</time>
</trkpt>
<trkpt lat="49.594131438061595" lon="9.370809495449066">
<ele>427</ele>
<time>2024-05-11T15:44:34Z</time>
</trkpt>
<trkpt lat="49.59405893459916" lon="9.370793318375943">
<ele>426.8</ele>
<time>2024-05-11T15:44:35Z</time>
</trkpt>
<trkpt lat="49.59399405866861" lon="9.3707818351686">
<ele>426.6</ele>
<time>2024-05-11T15:44:36Z</time>
</trkpt>
<trkpt lat="49.59392541088164" lon="9.370770435780289">
<ele>426.6</ele>
<time>2024-05-11T15:44:37Z</time>
</trkpt>
<trkpt lat="49.59379188716411" lon="9.37074369750917">
<ele>426.4</ele>
<time>2024-05-11T15:44:39Z</time>
</trkpt>
<trkpt lat="49.5937270950526" lon="9.370731292292476">
<ele>426.2</ele>
<time>2024-05-11T15:44:40Z</time>
</trkpt>
<trkpt lat="49.593658447265625" lon="9.370717043057084">
<ele>426</ele>
<time>2024-05-11T15:44:41Z</time>
</trkpt>
<trkpt lat="49.59358971565962" lon="9.370697010308504">
<ele>426</ele>
<time>2024-05-11T15:44:42Z</time>
</trkpt>
<trkpt lat="49.593456191942096" lon="9.370670272037389">
<ele>425.8</ele>
<time>2024-05-11T15:44:44Z</time>
</trkpt>
<trkpt lat="49.593383772298694" lon="9.370655016973616">
<ele>425.6</ele>
<time>2024-05-11T15:44:45Z</time>
</trkpt>
<trkpt lat="49.59331512451172" lon="9.370641689747572">
<ele>425.4</ele>
<time>2024-05-11T15:44:46Z</time>
</trkpt>
<trkpt lat="49.593242621049285" lon="9.3706264346838">
<ele>425.2</ele>
<time>2024-05-11T15:44:47Z</time>
</trkpt>
<trkpt lat="49.593166345730424" lon="9.370611179620028">
<ele>424.8</ele>
<time>2024-05-11T15:44:48Z</time>
</trkpt>
<trkpt lat="49.59309384226799" lon="9.370592990890144">
<ele>424.6</ele>
<time>2024-05-11T15:44:49Z</time>
</trkpt>
<trkpt lat="49.593025194481015" lon="9.370574885979297">
<ele>424.4</ele>
<time>2024-05-11T15:44:50Z</time>
</trkpt>
<trkpt lat="49.59295269101858" lon="9.370561558753252">
<ele>424.2</ele>
<time>2024-05-11T15:44:51Z</time>
</trkpt>
<trkpt lat="49.59288018755615" lon="9.37054630368948">
<ele>424</ele>
<time>2024-05-11T15:44:52Z</time>
</trkpt>
<trkpt lat="49.592807767912745" lon="9.370532976463435">
<ele>423.8</ele>
<time>2024-05-11T15:44:53Z</time>
</trkpt>
<trkpt lat="49.59273140877485" lon="9.370521493256092">
<ele>423.6</ele>
<time>2024-05-11T15:44:54Z</time>
</trkpt>
<trkpt lat="49.592651361599565" lon="9.37050816603005">
<ele>423.4</ele>
<time>2024-05-11T15:44:55Z</time>
</trkpt>
<trkpt lat="49.59257500246167" lon="9.370492910966275">
<ele>423.2</ele>
<time>2024-05-11T15:44:56Z</time>
</trkpt>
<trkpt lat="49.592494955286384" lon="9.370478577911854">
<ele>423</ele>
<time>2024-05-11T15:44:57Z</time>
</trkpt>
<trkpt lat="49.592414824292064" lon="9.370465250685813">
<ele>422.8</ele>
<time>2024-05-11T15:44:58Z</time>
</trkpt>
<trkpt lat="49.592334693297744" lon="9.370451923459768">
<ele>422.6</ele>
<time>2024-05-11T15:44:59Z</time>
</trkpt>
<trkpt lat="49.592250790447" lon="9.370443290099502">
<ele>422.2</ele>
<time>2024-05-11T15:45:00Z</time>
</trkpt>
<trkpt lat="49.59217065945268" lon="9.370433734729886">
<ele>422</ele>
<time>2024-05-11T15:45:01Z</time>
</trkpt>
<trkpt lat="49.59209052845836" lon="9.370421329513192">
<ele>421.6</ele>
<time>2024-05-11T15:45:02Z</time>
</trkpt>
<trkpt lat="49.59200662560761" lon="9.370413701981306">
<ele>421.4</ele>
<time>2024-05-11T15:45:03Z</time>
</trkpt>
<trkpt lat="49.59192649461329" lon="9.37040800228715">
<ele>421.2</ele>
<time>2024-05-11T15:45:04Z</time>
</trkpt>
<trkpt lat="49.591846447438" lon="9.370401380583644">
<ele>420.8</ele>
<time>2024-05-11T15:45:05Z</time>
</trkpt>
<trkpt lat="49.59176246076822" lon="9.370394675061108">
<ele>420.6</ele>
<time>2024-05-11T15:45:06Z</time>
</trkpt>
<trkpt lat="49.59167855791747" lon="9.37038796953857">
<ele>420.2</ele>
<time>2024-05-11T15:45:07Z</time>
</trkpt>
<trkpt lat="49.59151452407241" lon="9.370394675061108">
<ele>420</ele>
<time>2024-05-11T15:45:09Z</time>
</trkpt>
<trkpt lat="49.59143447689712" lon="9.370401380583644">
<ele>419.8</ele>
<time>2024-05-11T15:45:10Z</time>
</trkpt>
<trkpt lat="49.59127807058394" lon="9.37042996287346">
<ele>419.6</ele>
<time>2024-05-11T15:45:12Z</time>
</trkpt>
<trkpt lat="49.59119793958962" lon="9.37044999562204">
<ele>419.2</ele>
<time>2024-05-11T15:45:13Z</time>
</trkpt>
<trkpt lat="49.59112166427076" lon="9.370476650074124">
<ele>419</ele>
<time>2024-05-11T15:45:14Z</time>
</trkpt>
<trkpt lat="49.59104153327644" lon="9.370501460507512">
<ele>418.6</ele>
<time>2024-05-11T15:45:15Z</time>
</trkpt>
<trkpt lat="49.590969029814005" lon="9.370538676157594">
<ele>418.4</ele>
<time>2024-05-11T15:45:16Z</time>
</trkpt>
<trkpt lat="49.59089652635157" lon="9.370576813817024">
<ele>418</ele>
<time>2024-05-11T15:45:17Z</time>
</trkpt>
<trkpt lat="49.59082025103271" lon="9.370619729161264">
<ele>417.8</ele>
<time>2024-05-11T15:45:18Z</time>
</trkpt>
<trkpt lat="49.59074783138931" lon="9.370668344199656">
<ele>417.4</ele>
<time>2024-05-11T15:45:19Z</time>
</trkpt>
<trkpt lat="49.590671472251415" lon="9.370717965066431">
<ele>416.8</ele>
<time>2024-05-11T15:45:20Z</time>
</trkpt>
<trkpt lat="49.5906066801399" lon="9.370766580104828">
<ele>416.2</ele>
<time>2024-05-11T15:45:21Z</time>
</trkpt>
<trkpt lat="49.59053794853389" lon="9.370816200971603">
<ele>415.8</ele>
<time>2024-05-11T15:45:22Z</time>
</trkpt>
<trkpt lat="49.59040828049183" lon="9.37092013657093">
<ele>415.4</ele>
<time>2024-05-11T15:45:24Z</time>
</trkpt>
<trkpt lat="49.59034340456128" lon="9.370971601456404">
<ele>415.2</ele>
<time>2024-05-11T15:45:25Z</time>
</trkpt>
<trkpt lat="49.590274756774306" lon="9.371023150160909">
<ele>414.8</ele>
<time>2024-05-11T15:45:26Z</time>
</trkpt>
<trkpt lat="49.59020610898733" lon="9.371066987514496">
<ele>414.6</ele>
<time>2024-05-11T15:45:27Z</time>
</trkpt>
<trkpt lat="49.5901336055249" lon="9.371109902858734">
<ele>414.4</ele>
<time>2024-05-11T15:45:28Z</time>
</trkpt>
<trkpt lat="49.59006495773792" lon="9.371156673878431">
<ele>414.2</ele>
<time>2024-05-11T15:45:29Z</time>
</trkpt>
<trkpt lat="49.58999630995095" lon="9.371201433241367">
<ele>414</ele>
<time>2024-05-11T15:45:30Z</time>
</trkpt>
<trkpt lat="49.589923806488514" lon="9.371254909783602">
<ele>414</ele>
<time>2024-05-11T15:45:32Z</time>
</trkpt>
<trkpt lat="49.58985515870154" lon="9.371306374669077">
<ele>413.8</ele>
<time>2024-05-11T15:45:33Z</time>
</trkpt>
<trkpt lat="49.58979028277099" lon="9.371344512328506">
<ele>413.6</ele>
<time>2024-05-11T15:45:35Z</time>
</trkpt>
<trkpt lat="49.589607222005725" lon="9.37147711403668">
<ele>413.2</ele>
<time>2024-05-11T15:45:36Z</time>
</trkpt>
<trkpt lat="49.58954997360706" lon="9.37151617370546">
<ele>413</ele>
<time>2024-05-11T15:45:38Z</time>
</trkpt>
<trkpt lat="49.589427933096886" lon="9.37159538269043">
<ele>412.8</ele>
<time>2024-05-11T15:45:39Z</time>
</trkpt>
<trkpt lat="49.58936305716634" lon="9.3716296646744">
<ele>412.6</ele>
<time>2024-05-11T15:45:40Z</time>
</trkpt>
<trkpt lat="49.58930580876768" lon="9.371666880324485">
<ele>412.2</ele>
<time>2024-05-11T15:45:41Z</time>
</trkpt>
<trkpt lat="49.58924478851259" lon="9.371705017983912">
<ele>411.8</ele>
<time>2024-05-11T15:45:42Z</time>
</trkpt>
<trkpt lat="49.58912274800241" lon="9.371774671599267">
<ele>411.4</ele>
<time>2024-05-11T15:45:44Z</time>
</trkpt>
<trkpt lat="49.58906549960375" lon="9.371808031573892">
<ele>411</ele>
<time>2024-05-11T15:45:45Z</time>
</trkpt>
<trkpt lat="49.589012106880546" lon="9.371841391548514">
<ele>410.8</ele>
<time>2024-05-11T15:45:46Z</time>
</trkpt>
<trkpt lat="49.58895871415734" lon="9.37187190167606">
<ele>410.4</ele>
<time>2024-05-11T15:45:47Z</time>
</trkpt>
<trkpt lat="49.588855700567365" lon="9.371923366561532">
<ele>410</ele>
<time>2024-05-11T15:45:49Z</time>
</trkpt>
<trkpt lat="49.58880607970059" lon="9.37194817699492">
<ele>409.6</ele>
<time>2024-05-11T15:45:50Z</time>
</trkpt>
<trkpt lat="49.58875268697739" lon="9.371974915266035">
<ele>409.2</ele>
<time>2024-05-11T15:45:51Z</time>
</trkpt>
<trkpt lat="49.58870314992964" lon="9.371998719871044">
<ele>408.8</ele>
<time>2024-05-11T15:45:52Z</time>
</trkpt>
<trkpt lat="49.58859250880778" lon="9.37204448506236">
<ele>408.6</ele>
<time>2024-05-11T15:45:54Z</time>
</trkpt>
<trkpt lat="49.58853526040912" lon="9.372070301324127">
<ele>408.2</ele>
<time>2024-05-11T15:45:55Z</time>
</trkpt>
<trkpt lat="49.588478012010455" lon="9.372093183919787">
<ele>408</ele>
<time>2024-05-11T15:45:56Z</time>
</trkpt>
<trkpt lat="49.588420847430825" lon="9.372115060687063">
<ele>407.6</ele>
<time>2024-05-11T15:45:57Z</time>
</trkpt>
<trkpt lat="49.58831020630896" lon="9.372157054021956">
<ele>407.4</ele>
<time>2024-05-11T15:45:59Z</time>
</trkpt>
<trkpt lat="49.588260585442185" lon="9.372173231095076">
<ele>407</ele>
<time>2024-05-11T15:46:00Z</time>
</trkpt>
<trkpt lat="49.588161427527666" lon="9.37220667488873">
<ele>406.8</ele>
<time>2024-05-11T15:46:02Z</time>
</trkpt>
<trkpt lat="49.58806226961315" lon="9.372241962701082">
<ele>406.6</ele>
<time>2024-05-11T15:46:04Z</time>
</trkpt>
<trkpt lat="49.58801264874637" lon="9.372258139774203">
<ele>406.4</ele>
<time>2024-05-11T15:46:05Z</time>
</trkpt>
<trkpt lat="49.5879630278796" lon="9.372273394837976">
<ele>406.2</ele>
<time>2024-05-11T15:46:06Z</time>
</trkpt>
<trkpt lat="49.58791349083185" lon="9.372289655730128">
<ele>406</ele>
<time>2024-05-11T15:46:07Z</time>
</trkpt>
<trkpt lat="49.587806621566415" lon="9.372329637408257">
<ele>405.8</ele>
<time>2024-05-11T15:46:09Z</time>
</trkpt>
<trkpt lat="49.58775322884321" lon="9.372351597994566">
<ele>405.6</ele>
<time>2024-05-11T15:46:10Z</time>
</trkpt>
<trkpt lat="49.58769606426358" lon="9.372376408427954">
<ele>405.4</ele>
<time>2024-05-11T15:46:11Z</time>
</trkpt>
<trkpt lat="49.58763881586492" lon="9.37240306288004">
<ele>405.4</ele>
<time>2024-05-11T15:46:12Z</time>
</trkpt>
<trkpt lat="49.587528174743056" lon="9.372456539422274">
<ele>405.2</ele>
<time>2024-05-11T15:46:14Z</time>
</trkpt>
<trkpt lat="49.587470926344395" lon="9.372485121712089">
<ele>405</ele>
<time>2024-05-11T15:46:15Z</time>
</trkpt>
<trkpt lat="49.587413761764765" lon="9.372513704001904">
<ele>404.8</ele>
<time>2024-05-11T15:46:16Z</time>
</trkpt>
<trkpt lat="49.5873565133661" lon="9.372545219957829">
<ele>404.6</ele>
<time>2024-05-11T15:46:17Z</time>
</trkpt>
<trkpt lat="49.5873031206429" lon="9.3725795019418">
<ele>404.6</ele>
<time>2024-05-11T15:46:18Z</time>
</trkpt>
<trkpt lat="49.5872497279197" lon="9.372612945735456">
<ele>404.4</ele>
<time>2024-05-11T15:46:19Z</time>
</trkpt>
<trkpt lat="49.587196335196495" lon="9.372645299881697">
<ele>404.2</ele>
<time>2024-05-11T15:46:20Z</time>
</trkpt>
<trkpt lat="49.587097093462944" lon="9.372711181640623">
<ele>404.2</ele>
<time>2024-05-11T15:46:22Z</time>
</trkpt>
<trkpt lat="49.58700179122389" lon="9.372784607112408">
<ele>404</ele>
<time>2024-05-11T15:46:24Z</time>
</trkpt>
<trkpt lat="49.58695217035711" lon="9.372824588790536">
<ele>403.8</ele>
<time>2024-05-11T15:46:25Z</time>
</trkpt>
<trkpt lat="49.58690640516579" lon="9.372864654287696">
<ele>403.6</ele>
<time>2024-05-11T15:46:26Z</time>
</trkpt>
<trkpt lat="49.586856784299016" lon="9.372904719784856">
<ele>403.4</ele>
<time>2024-05-11T15:46:27Z</time>
</trkpt>
<trkpt lat="49.58676139824093" lon="9.372989628463984">
<ele>403.4</ele>
<time>2024-05-11T15:46:29Z</time>
</trkpt>
<trkpt lat="49.586719488725066" lon="9.373029693961143">
<ele>403.2</ele>
<time>2024-05-11T15:46:30Z</time>
</trkpt>
<trkpt lat="49.58668135106563" lon="9.373067831620574">
<ele>403</ele>
<time>2024-05-11T15:46:31Z</time>
</trkpt>
<trkpt lat="49.586643213406205" lon="9.373109741136432">
<ele>402.8</ele>
<time>2024-05-11T15:46:32Z</time>
</trkpt>
<trkpt lat="49.5865744818002" lon="9.373185094445944">
<ele>402.6</ele>
<time>2024-05-11T15:46:34Z</time>
</trkpt>
<trkpt lat="49.586543971672654" lon="9.373221388086677">
<ele>402.6</ele>
<time>2024-05-11T15:46:35Z</time>
</trkpt>
<trkpt lat="49.58650968968868" lon="9.373256675899029">
<ele>402.4</ele>
<time>2024-05-11T15:46:36Z</time>
</trkpt>
<trkpt lat="49.58647155202925" lon="9.37329196371138">
<ele>402.2</ele>
<time>2024-05-11T15:46:37Z</time>
</trkpt>
<trkpt lat="49.586406676098704" lon="9.373361533507705">
<ele>402.2</ele>
<time>2024-05-11T15:46:39Z</time>
</trkpt>
<trkpt lat="49.58637993782759" lon="9.373398749157786">
<ele>402</ele>
<time>2024-05-11T15:46:40Z</time>
</trkpt>
<trkpt lat="49.5863532833755" lon="9.37343018129468">
<ele>401.8</ele>
<time>2024-05-11T15:46:41Z</time>
</trkpt>
<trkpt lat="49.586326545104384" lon="9.373459769412875">
<ele>401.6</ele>
<time>2024-05-11T15:46:42Z</time>
</trkpt>
<trkpt lat="49.58626929670572" lon="9.373503606766462">
<ele>401.4</ele>
<time>2024-05-11T15:46:44Z</time>
</trkpt>
<trkpt lat="49.58624264225364" lon="9.373499834910035">
<ele>401.4</ele>
<time>2024-05-11T15:46:45Z</time>
</trkpt>
<trkpt lat="49.58621213212609" lon="9.373483657836914">
<ele>401.2</ele>
<time>2024-05-11T15:46:46Z</time>
</trkpt>
<trkpt lat="49.58619302138686" lon="9.373454991728067">
<ele>401</ele>
<time>2024-05-11T15:46:47Z</time>
</trkpt>
<trkpt lat="49.58614348433912" lon="9.373386343941092">
<ele>401</ele>
<time>2024-05-11T15:46:49Z</time>
</trkpt>
<trkpt lat="49.586116746068" lon="9.3733549118042">
<ele>401</ele>
<time>2024-05-11T15:46:50Z</time>
</trkpt>
<trkpt lat="49.58609386347234" lon="9.373326245695353">
<ele>401</ele>
<time>2024-05-11T15:46:51Z</time>
</trkpt>
<trkpt lat="49.58607098087669" lon="9.37329288572073">
<ele>400.8</ele>
<time>2024-05-11T15:46:52Z</time>
</trkpt>
<trkpt lat="49.58602521568537" lon="9.373229937627912">
<ele>400.8</ele>
<time>2024-05-11T15:46:54Z</time>
</trkpt>
<trkpt lat="49.58600233308971" lon="9.373198505491018">
<ele>400.8</ele>
<time>2024-05-11T15:46:55Z</time>
</trkpt>
<trkpt lat="49.58598322235048" lon="9.373169839382172">
<ele>400.8</ele>
<time>2024-05-11T15:46:56Z</time>
</trkpt>
<trkpt lat="49.585967967286706" lon="9.373145028948784">
<ele>400.6</ele>
<time>2024-05-11T15:46:57Z</time>
</trkpt>
<trkpt lat="49.58593745715916" lon="9.373098341748118">
<ele>400.6</ele>
<time>2024-05-11T15:47:00Z</time>
</trkpt>
<trkpt lat="49.58589931949973" lon="9.37305157072842">
<ele>400.4</ele>
<time>2024-05-11T15:47:01Z</time>
</trkpt>
<trkpt lat="49.58588406443596" lon="9.373024916276336">
<ele>400.2</ele>
<time>2024-05-11T15:47:02Z</time>
</trkpt>
<trkpt lat="49.58584592677653" lon="9.372969595715404">
<ele>400.2</ele>
<time>2024-05-11T15:47:04Z</time>
</trkpt>
<trkpt lat="49.58583067171275" lon="9.372942857444286">
<ele>399.8</ele>
<time>2024-05-11T15:47:06Z</time>
</trkpt>
<trkpt lat="49.58578867837787" lon="9.372886614874004">
<ele>399.4</ele>
<time>2024-05-11T15:47:07Z</time>
</trkpt>
<trkpt lat="49.585773423314095" lon="9.372855182737112">
<ele>399.4</ele>
<time>2024-05-11T15:47:08Z</time>
</trkpt>
<trkpt lat="49.58575816825032" lon="9.372826516628264">
<ele>399.2</ele>
<time>2024-05-11T15:47:09Z</time>
</trkpt>
<trkpt lat="49.58574291318655" lon="9.37279793433845">
<ele>399.2</ele>
<time>2024-05-11T15:47:10Z</time>
</trkpt>
<trkpt lat="49.58572765812278" lon="9.372773123905064">
<ele>399</ele>
<time>2024-05-11T15:47:11Z</time>
</trkpt>
<trkpt lat="49.58570854738355" lon="9.372748313471677">
<ele>398.8</ele>
<time>2024-05-11T15:47:12Z</time>
</trkpt>
<trkpt lat="49.585678037256" lon="9.372692992910745">
<ele>398.8</ele>
<time>2024-05-11T15:47:14Z</time>
</trkpt>
<trkpt lat="49.58566663786769" lon="9.372670110315084">
<ele>398.6</ele>
<time>2024-05-11T15:47:15Z</time>
</trkpt>
<trkpt lat="49.585655154660344" lon="9.372650077566504">
<ele>398.6</ele>
<time>2024-05-11T15:47:16Z</time>
</trkpt>
<trkpt lat="49.58565138280392" lon="9.37262342311442">
<ele>398.4</ele>
<time>2024-05-11T15:47:17Z</time>
</trkpt>
<trkpt lat="49.58563989959657" lon="9.37256139703095">
<ele>398.2</ele>
<time>2024-05-11T15:47:19Z</time>
</trkpt>
<trkpt lat="49.58563989959657" lon="9.372534742578864">
<ele>398</ele>
<time>2024-05-11T15:47:20Z</time>
</trkpt>
<trkpt lat="49.58564375527203" lon="9.3724603112787">
<ele>397.8</ele>
<time>2024-05-11T15:47:22Z</time>
</trkpt>
<trkpt lat="49.58565138280392" lon="9.372413624078035">
<ele>397.6</ele>
<time>2024-05-11T15:47:24Z</time>
</trkpt>
<trkpt lat="49.58567040972411" lon="9.372308682650328">
<ele>397.4</ele>
<time>2024-05-11T15:47:25Z</time>
</trkpt>
<trkpt lat="49.585678037256" lon="9.372248584404588">
<ele>397.4</ele>
<time>2024-05-11T15:47:26Z</time>
</trkpt>
<trkpt lat="49.58568189293146" lon="9.37218664214015">
<ele>397.2</ele>
<time>2024-05-11T15:47:27Z</time>
</trkpt>
<trkpt lat="49.58568189293146" lon="9.37205026857555">
<ele>397</ele>
<time>2024-05-11T15:47:29Z</time>
</trkpt>
<trkpt lat="49.58568566478789" lon="9.371981620788574">
<ele>397</ele>
<time>2024-05-11T15:47:30Z</time>
</trkpt>
<trkpt lat="49.58568952046335" lon="9.37191196717322">
<ele>396.8</ele>
<time>2024-05-11T15:47:31Z</time>
</trkpt>
<trkpt lat="49.585693292319775" lon="9.371841391548514">
<ele>396.6</ele>
<time>2024-05-11T15:47:32Z</time>
</trkpt>
<trkpt lat="49.58570477552712" lon="9.371714573353527">
<ele>396.6</ele>
<time>2024-05-11T15:47:34Z</time>
</trkpt>
<trkpt lat="49.585712403059006" lon="9.371658246964216">
<ele>396.4</ele>
<time>2024-05-11T15:47:35Z</time>
</trkpt>
<trkpt lat="49.58572003059089" lon="9.371602004393935">
<ele>396.4</ele>
<time>2024-05-11T15:47:36Z</time>
</trkpt>
<trkpt lat="49.58572765812278" lon="9.371548611670732">
<ele>396.4</ele>
<time>2024-05-11T15:47:37Z</time>
</trkpt>
<trkpt lat="49.58575054071843" lon="9.371446603909137">
<ele>396.6</ele>
<time>2024-05-11T15:47:39Z</time>
</trkpt>
<trkpt lat="49.58576579578221" lon="9.371399832889438">
<ele>396.6</ele>
<time>2024-05-11T15:47:40Z</time>
</trkpt>
<trkpt lat="49.58578105084598" lon="9.3713569175452">
<ele>396.6</ele>
<time>2024-05-11T15:47:41Z</time>
</trkpt>
<trkpt lat="49.58580016158521" lon="9.371318779885767">
<ele>396.8</ele>
<time>2024-05-11T15:47:42Z</time>
</trkpt>
<trkpt lat="49.58584207110107" lon="9.371252059936523">
<ele>396.8</ele>
<time>2024-05-11T15:47:44Z</time>
</trkpt>
<trkpt lat="49.58585732616484" lon="9.37121962197125">
<ele>397</ele>
<time>2024-05-11T15:47:45Z</time>
</trkpt>
<trkpt lat="49.585872581228614" lon="9.371194811537862">
<ele>397.2</ele>
<time>2024-05-11T15:47:46Z</time>
</trkpt>
<trkpt lat="49.585887836292386" lon="9.371171928942204">
<ele>397.2</ele>
<time>2024-05-11T15:47:47Z</time>
</trkpt>
<trkpt lat="49.5859145745635" lon="9.371131863445044">
<ele>397.4</ele>
<time>2024-05-11T15:47:49Z</time>
</trkpt>
<trkpt lat="49.58592597395182" lon="9.371109902858734">
<ele>397.4</ele>
<time>2024-05-11T15:47:50Z</time>
</trkpt>
<trkpt lat="49.58593745715916" lon="9.371089870110154">
<ele>397.6</ele>
<time>2024-05-11T15:47:51Z</time>
</trkpt>
<trkpt lat="49.58594894036651" lon="9.371073693037031">
<ele>397.6</ele>
<time>2024-05-11T15:47:52Z</time>
</trkpt>
<trkpt lat="49.58595656789839" lon="9.37103840522468">
<ele>397.8</ele>
<time>2024-05-11T15:47:54Z</time>
</trkpt>
<trkpt lat="49.58595656789839" lon="9.37102030031383">
<ele>397.8</ele>
<time>2024-05-11T15:47:55Z</time>
</trkpt>
<trkpt lat="49.58596419543028" lon="9.371009822934866">
<ele>397.8</ele>
<time>2024-05-11T15:47:56Z</time>
</trkpt>
<trkpt lat="49.585971822962165" lon="9.37099833972752">
<ele>398</ele>
<time>2024-05-11T15:47:57Z</time>
</trkpt>
<trkpt lat="49.58599084988237" lon="9.370966907590628">
<ele>398</ele>
<time>2024-05-11T15:47:59Z</time>
</trkpt>
<trkpt lat="49.58599847741425" lon="9.370944947004318">
<ele>398</ele>
<time>2024-05-11T15:48:00Z</time>
</trkpt>
<trkpt lat="49.58599470555782" lon="9.370926842093468">
<ele>398</ele>
<time>2024-05-11T15:48:01Z</time>
</trkpt>
<trkpt lat="49.58598322235048" lon="9.370906809344888">
<ele>398</ele>
<time>2024-05-11T15:48:02Z</time>
</trkpt>
<trkpt lat="49.58594894036651" lon="9.370864816009998">
<ele>398</ele>
<time>2024-05-11T15:48:04Z</time>
</trkpt>
<trkpt lat="49.585929829627275" lon="9.370844783261418">
<ele>398</ele>
<time>2024-05-11T15:48:05Z</time>
</trkpt>
<trkpt lat="49.58590694703162" lon="9.37082190066576">
<ele>398</ele>
<time>2024-05-11T15:48:06Z</time>
</trkpt>
<trkpt lat="49.5858802087605" lon="9.370790468528869">
<ele>397.8</ele>
<time>2024-05-11T15:48:07Z</time>
</trkpt>
<trkpt lat="49.58583444356918" lon="9.37072467058897">
<ele>397.8</ele>
<time>2024-05-11T15:48:10Z</time>
</trkpt>
<trkpt lat="49.585815416648984" lon="9.370697010308504">
<ele>397.8</ele>
<time>2024-05-11T15:48:11Z</time>
</trkpt>
<trkpt lat="49.585773423314095" lon="9.370639761909842">
<ele>397.6</ele>
<time>2024-05-11T15:48:12Z</time>
</trkpt>
<trkpt lat="49.585731429979205" lon="9.370579663664104">
<ele>397.6</ele>
<time>2024-05-11T15:48:14Z</time>
</trkpt>
<trkpt lat="49.58569714799523" lon="9.370514787733557">
<ele>397.6</ele>
<time>2024-05-11T15:48:16Z</time>
</trkpt>
<trkpt lat="49.58568189293146" lon="9.370479583740234">
<ele>397.4</ele>
<time>2024-05-11T15:48:18Z</time>
</trkpt>
<trkpt lat="49.58564752712846" lon="9.370403224602342">
<ele>397.2</ele>
<time>2024-05-11T15:48:19Z</time>
</trkpt>
<trkpt lat="49.5856246445328" lon="9.370360309258103">
<ele>397</ele>
<time>2024-05-11T15:48:20Z</time>
</trkpt>
<trkpt lat="49.58560176193714" lon="9.370318399742246">
<ele>396.8</ele>
<time>2024-05-11T15:48:21Z</time>
</trkpt>
<trkpt lat="49.58557887934148" lon="9.370276406407356">
<ele>396.4</ele>
<time>2024-05-11T15:48:22Z</time>
</trkpt>
<trkpt lat="49.58552548661828" lon="9.370196275413036">
<ele>396.2</ele>
<time>2024-05-11T15:48:24Z</time>
</trkpt>
<trkpt lat="49.585494976490736" lon="9.370161993429065">
<ele>395.8</ele>
<time>2024-05-11T15:48:25Z</time>
</trkpt>
<trkpt lat="49.58546446636319" lon="9.370135255157948">
<ele>395.6</ele>
<time>2024-05-11T15:48:26Z</time>
</trkpt>
<trkpt lat="49.58543010056019" lon="9.370118072256446">
<ele>395.2</ele>
<time>2024-05-11T15:48:27Z</time>
</trkpt>
<trkpt lat="49.58536145277321" lon="9.370116228237748">
<ele>394.8</ele>
<time>2024-05-11T15:48:29Z</time>
</trkpt>
<trkpt lat="49.58532708697021" lon="9.37012854963541">
<ele>394.6</ele>
<time>2024-05-11T15:48:30Z</time>
</trkpt>
<trkpt lat="49.58529280498624" lon="9.370146738365293">
<ele>394.2</ele>
<time>2024-05-11T15:48:31Z</time>
</trkpt>
<trkpt lat="49.585262294858694" lon="9.370175320655107">
<ele>393.8</ele>
<time>2024-05-11T15:48:32Z</time>
</trkpt>
<trkpt lat="49.58521267399192" lon="9.37024874612689">
<ele>393.6</ele>
<time>2024-05-11T15:48:34Z</time>
</trkpt>
<trkpt lat="49.58519356325269" lon="9.370301216840744">
<ele>393.2</ele>
<time>2024-05-11T15:48:35Z</time>
</trkpt>
<trkpt lat="49.58517453633249" lon="9.37034983187914">
<ele>393</ele>
<time>2024-05-11T15:48:36Z</time>
</trkpt>
<trkpt lat="49.58515928126872" lon="9.37040993012488">
<ele>392.8</ele>
<time>2024-05-11T15:48:37Z</time>
</trkpt>
<trkpt lat="49.58513639867306" lon="9.3705262709409">
<ele>392.6</ele>
<time>2024-05-11T15:48:39Z</time>
</trkpt>
<trkpt lat="49.585121143609285" lon="9.37058536335826">
<ele>392.2</ele>
<time>2024-05-11T15:48:40Z</time>
</trkpt>
<trkpt lat="49.58510966040194" lon="9.37064353376627">
<ele>392</ele>
<time>2024-05-11T15:48:41Z</time>
</trkpt>
<trkpt lat="49.58509063348174" lon="9.370695082470776">
<ele>391.6</ele>
<time>2024-05-11T15:48:42Z</time>
</trkpt>
<trkpt lat="49.58505626767874" lon="9.370790468528869">
<ele>391.2</ele>
<time>2024-05-11T15:48:44Z</time>
</trkpt>
<trkpt lat="49.58503338508308" lon="9.370833383873103">
<ele>391</ele>
<time>2024-05-11T15:48:45Z</time>
</trkpt>
<trkpt lat="49.58501813001931" lon="9.370876299217343">
<ele>390.6</ele>
<time>2024-05-11T15:48:46Z</time>
</trkpt>
<trkpt lat="49.58499524742365" lon="9.3709182087332">
<ele>390.2</ele>
<time>2024-05-11T15:48:47Z</time>
</trkpt>
<trkpt lat="49.58495710976422" lon="9.3710011895746">
<ele>389.8</ele>
<time>2024-05-11T15:48:49Z</time>
</trkpt>
<trkpt lat="49.58493422716856" lon="9.37104125507176">
<ele>389.6</ele>
<time>2024-05-11T15:48:51Z</time>
</trkpt>
<trkpt lat="49.584884606301785" lon="9.37108039855957">
<ele>389.2</ele>
<time>2024-05-11T15:48:52Z</time>
</trkpt>
<trkpt lat="49.58481210283935" lon="9.3710183724761">
<ele>388.8</ele>
<time>2024-05-11T15:48:54Z</time>
</trkpt>
<trkpt lat="49.58478922024369" lon="9.370971601456404">
<ele>388.2</ele>
<time>2024-05-11T15:48:55Z</time>
</trkpt>
<trkpt lat="49.584766337648034" lon="9.37092013657093">
<ele>387.8</ele>
<time>2024-05-11T15:48:56Z</time>
</trkpt>
<trkpt lat="49.58475108258426" lon="9.370869593694806">
<ele>387.4</ele>
<time>2024-05-11T15:48:57Z</time>
</trkpt>
<trkpt lat="49.58472819998861" lon="9.370771357789636">
<ele>387</ele>
<time>2024-05-11T15:48:59Z</time>
</trkpt>
<trkpt lat="49.584724344313145" lon="9.370719892904162">
<ele>386.6</ele>
<time>2024-05-11T15:49:00Z</time>
</trkpt>
<trkpt lat="49.58471671678126" lon="9.370668344199656">
<ele>386.2</ele>
<time>2024-05-11T15:49:01Z</time>
</trkpt>
<trkpt lat="49.58471294492483" lon="9.370613023638724">
<ele>385.8</ele>
<time>2024-05-11T15:49:02Z</time>
</trkpt>
<trkpt lat="49.584701461717486" lon="9.370496682822704">
<ele>385.4</ele>
<time>2024-05-11T15:49:04Z</time>
</trkpt>
<trkpt lat="49.58469768986106" lon="9.370439518243074">
<ele>385.2</ele>
<time>2024-05-11T15:49:05Z</time>
</trkpt>
<trkpt lat="49.5846938341856" lon="9.370381347835064">
<ele>384.8</ele>
<time>2024-05-11T15:49:06Z</time>
</trkpt>
<trkpt lat="49.584686206653714" lon="9.370321249589324">
<ele>384.4</ele>
<time>2024-05-11T15:49:07Z</time>
</trkpt>
<trkpt lat="49.584663324058056" lon="9.370202058926225">
<ele>384</ele>
<time>2024-05-11T15:49:09Z</time>
</trkpt>
<trkpt lat="49.58465192466974" lon="9.37014858238399">
<ele>383.8</ele>
<time>2024-05-11T15:49:10Z</time>
</trkpt>
<trkpt lat="49.58463666960597" lon="9.370099967345595">
<ele>383.6</ele>
<time>2024-05-11T15:49:11Z</time>
</trkpt>
<trkpt lat="49.58461755886674" lon="9.37005328014493">
<ele>383.4</ele>
<time>2024-05-11T15:49:12Z</time>
</trkpt>
<trkpt lat="49.58457942120731" lon="9.369956888258455">
<ele>383.4</ele>
<time>2024-05-11T15:49:14Z</time>
</trkpt>
<trkpt lat="49.58455653861165" lon="9.369908273220062">
<ele>383.4</ele>
<time>2024-05-11T15:49:15Z</time>
</trkpt>
<trkpt lat="49.58453365601599" lon="9.369859658181667">
<ele>383.4</ele>
<time>2024-05-11T15:49:16Z</time>
</trkpt>
<trkpt lat="49.58451454527676" lon="9.369819592684507">
<ele>383.4</ele>
<time>2024-05-11T15:49:17Z</time>
</trkpt>
<trkpt lat="49.58447640761733" lon="9.369743317365646">
<ele>383.4</ele>
<time>2024-05-11T15:49:19Z</time>
</trkpt>
<trkpt lat="49.58445738069713" lon="9.369707107543944">
<ele>383.4</ele>
<time>2024-05-11T15:49:20Z</time>
</trkpt>
<trkpt lat="49.58444212563336" lon="9.36967366375029">
<ele>383.4</ele>
<time>2024-05-11T15:49:22Z</time>
</trkpt>
<trkpt lat="49.58442301489413" lon="9.369640303775668">
<ele>383.4</ele>
<time>2024-05-11T15:49:23Z</time>
</trkpt>
<trkpt lat="49.58438873291016" lon="9.369581211358309">
<ele>383.6</ele>
<time>2024-05-11T15:49:24Z</time>
</trkpt>
<trkpt lat="49.58437339402735" lon="9.369554473087192">
<ele>383.6</ele>
<time>2024-05-11T15:49:25Z</time>
</trkpt>
<trkpt lat="49.58435436710715" lon="9.369524884968996">
<ele>383.6</ele>
<time>2024-05-11T15:49:26Z</time>
</trkpt>
<trkpt lat="49.58433525636792" lon="9.36949823051691">
<ele>383.6</ele>
<time>2024-05-11T15:49:27Z</time>
</trkpt>
<trkpt lat="49.58430097438395" lon="9.369442909955978">
<ele>383.8</ele>
<time>2024-05-11T15:49:29Z</time>
</trkpt>
<trkpt lat="49.58428186364472" lon="9.36941617168486">
<ele>383.8</ele>
<time>2024-05-11T15:49:30Z</time>
</trkpt>
<trkpt lat="49.58425898104906" lon="9.36939806677401">
<ele>383.8</ele>
<time>2024-05-11T15:49:31Z</time>
</trkpt>
<trkpt lat="49.5842360984534" lon="9.369390439242125">
<ele>383.8</ele>
<time>2024-05-11T15:49:32Z</time>
</trkpt>
<trkpt lat="49.58418647758663" lon="9.369390439242125">
<ele>383.8</ele>
<time>2024-05-11T15:49:34Z</time>
</trkpt>
<trkpt lat="49.58415982313454" lon="9.369391361251472">
<ele>384</ele>
<time>2024-05-11T15:49:35Z</time>
</trkpt>
<trkpt lat="49.584133084863424" lon="9.369390439242125">
<ele>384</ele>
<time>2024-05-11T15:49:36Z</time>
</trkpt>
<trkpt lat="49.58410643041134" lon="9.369384739547968">
<ele>384</ele>
<time>2024-05-11T15:49:37Z</time>
</trkpt>
<trkpt lat="49.58405680954456" lon="9.369368478655815">
<ele>384</ele>
<time>2024-05-11T15:49:39Z</time>
</trkpt>
<trkpt lat="49.58400341682136" lon="9.369344674050808">
<ele>384</ele>
<time>2024-05-11T15:49:41Z</time>
</trkpt>
<trkpt lat="49.5839805342257" lon="9.369335118681192">
<ele>384.2</ele>
<time>2024-05-11T15:49:42Z</time>
</trkpt>
<trkpt lat="49.58393854089081" lon="9.369290275499225">
<ele>384.4</ele>
<time>2024-05-11T15:49:44Z</time>
</trkpt>
<trkpt lat="49.58392328582704" lon="9.369264543056488">
<ele>384.6</ele>
<time>2024-05-11T15:49:45Z</time>
</trkpt>
<trkpt lat="49.58390803076327" lon="9.369244510307908">
<ele>384.8</ele>
<time>2024-05-11T15:49:46Z</time>
</trkpt>
<trkpt lat="49.583892775699496" lon="9.36921969987452">
<ele>385</ele>
<time>2024-05-11T15:49:47Z</time>
</trkpt>
<trkpt lat="49.58386226557195" lon="9.369172090664506">
<ele>385</ele>
<time>2024-05-11T15:49:49Z</time>
</trkpt>
<trkpt lat="49.58384701050818" lon="9.369146274402738">
<ele>385.2</ele>
<time>2024-05-11T15:49:50Z</time>
</trkpt>
<trkpt lat="49.583835527300835" lon="9.369121547788382">
<ele>385.4</ele>
<time>2024-05-11T15:49:51Z</time>
</trkpt>
<trkpt lat="49.58382412791252" lon="9.369096737354994">
<ele>385.4</ele>
<time>2024-05-11T15:49:52Z</time>
</trkpt>
<trkpt lat="49.58380124531686" lon="9.369049966335297">
<ele>385.6</ele>
<time>2024-05-11T15:49:54Z</time>
</trkpt>
<trkpt lat="49.58378976210952" lon="9.369020462036133">
<ele>386</ele>
<time>2024-05-11T15:49:55Z</time>
</trkpt>
<trkpt lat="49.58377073518932" lon="9.368994645774364">
<ele>386.2</ele>
<time>2024-05-11T15:49:57Z</time>
</trkpt>
<trkpt lat="49.58375548012555" lon="9.368980396538973">
<ele>386.4</ele>
<time>2024-05-11T15:49:58Z</time>
</trkpt>
<trkpt lat="49.583724969998" lon="9.368926919996738">
<ele>386.4</ele>
<time>2024-05-11T15:49:59Z</time>
</trkpt>
<trkpt lat="49.58371348679066" lon="9.368903115391731">
<ele>386.6</ele>
<time>2024-05-11T15:50:00Z</time>
</trkpt>
<trkpt lat="49.58370585925877" lon="9.368876377120614">
<ele>387</ele>
<time>2024-05-11T15:50:01Z</time>
</trkpt>
<trkpt lat="49.583690604195" lon="9.36884880065918">
<ele>387.2</ele>
<time>2024-05-11T15:50:02Z</time>
</trkpt>
<trkpt lat="49.58366772159934" lon="9.36878870241344">
<ele>387.6</ele>
<time>2024-05-11T15:50:04Z</time>
</trkpt>
<trkpt lat="49.58365246653557" lon="9.368758192285895">
<ele>387.8</ele>
<time>2024-05-11T15:50:05Z</time>
</trkpt>
<trkpt lat="49.58363721147179" lon="9.36872474849224">
<ele>388</ele>
<time>2024-05-11T15:50:06Z</time>
</trkpt>
<trkpt lat="49.58362572826445" lon="9.368695244193075">
<ele>388.4</ele>
<time>2024-05-11T15:50:07Z</time>
</trkpt>
<trkpt lat="49.58359521813691" lon="9.368644701316953">
<ele>388.8</ele>
<time>2024-05-11T15:50:09Z</time>
</trkpt>
<trkpt lat="49.583579963073134" lon="9.368623662739992">
<ele>389.2</ele>
<time>2024-05-11T15:50:10Z</time>
</trkpt>
<trkpt lat="49.58356470800936" lon="9.368603629991412">
<ele>389.6</ele>
<time>2024-05-11T15:50:11Z</time>
</trkpt>
<trkpt lat="49.58355330862105" lon="9.368577897548676">
<ele>390</ele>
<time>2024-05-11T15:50:12Z</time>
</trkpt>
<trkpt lat="49.58353805355728" lon="9.368553087115288">
<ele>390.2</ele>
<time>2024-05-11T15:50:14Z</time>
</trkpt>
<trkpt lat="49.58351131528616" lon="9.368499694392083">
<ele>390.6</ele>
<time>2024-05-11T15:50:15Z</time>
</trkpt>
<trkpt lat="49.58349606022239" lon="9.368474883958696">
<ele>391</ele>
<time>2024-05-11T15:50:16Z</time>
</trkpt>
<trkpt lat="49.583480805158615" lon="9.36845015734434">
<ele>391.4</ele>
<time>2024-05-11T15:50:17Z</time>
</trkpt>
<trkpt lat="49.58344643935561" lon="9.368403386324644">
<ele>391.6</ele>
<time>2024-05-11T15:50:19Z</time>
</trkpt>
<trkpt lat="49.58343118429184" lon="9.368379581719635">
<ele>392</ele>
<time>2024-05-11T15:50:20Z</time>
</trkpt>
<trkpt lat="49.58341592922807" lon="9.368361392989756">
<ele>392.4</ele>
<time>2024-05-11T15:50:21Z</time>
</trkpt>
<trkpt lat="49.58339690230787" lon="9.36834999360144">
<ele>392.8</ele>
<time>2024-05-11T15:50:22Z</time>
</trkpt>
<trkpt lat="49.58335876464844" lon="9.368328033015132">
<ele>393.2</ele>
<time>2024-05-11T15:50:24Z</time>
</trkpt>
<trkpt lat="49.583339653909206" lon="9.368320405483246">
<ele>393.4</ele>
<time>2024-05-11T15:50:25Z</time>
</trkpt>
<trkpt lat="49.583320543169975" lon="9.36831663362682">
<ele>393.8</ele>
<time>2024-05-11T15:50:26Z</time>
</trkpt>
<trkpt lat="49.5833052881062" lon="9.36831663362682">
<ele>394.2</ele>
<time>2024-05-11T15:50:27Z</time>
</trkpt>
<trkpt lat="49.58329003304243" lon="9.368323255330324">
<ele>394.4</ele>
<time>2024-05-11T15:50:28Z</time>
</trkpt>
<trkpt lat="49.58327477797866" lon="9.36833188869059">
<ele>394.8</ele>
<time>2024-05-11T15:50:29Z</time>
</trkpt>
<trkpt lat="49.58325952291489" lon="9.368338510394096">
<ele>395</ele>
<time>2024-05-11T15:50:30Z</time>
</trkpt>
<trkpt lat="49.583244267851114" lon="9.368345215916634">
<ele>395.4</ele>
<time>2024-05-11T15:50:31Z</time>
</trkpt>
<trkpt lat="49.5832328684628" lon="9.36835284344852">
<ele>395.6</ele>
<time>2024-05-11T15:50:33Z</time>
</trkpt>
<trkpt lat="49.58320235833526" lon="9.3683728761971">
<ele>396</ele>
<time>2024-05-11T15:50:34Z</time>
</trkpt>
<trkpt lat="49.58318710327149" lon="9.368386203423142">
<ele>396.2</ele>
<time>2024-05-11T15:50:35Z</time>
</trkpt>
<trkpt lat="49.58317176438868" lon="9.368399614468215">
<ele>396.6</ele>
<time>2024-05-11T15:50:36Z</time>
</trkpt>
<trkpt lat="49.58315650932491" lon="9.368414869531987">
<ele>396.8</ele>
<time>2024-05-11T15:50:37Z</time>
</trkpt>
<trkpt lat="49.58312599919736" lon="9.368441523984076">
<ele>397</ele>
<time>2024-05-11T15:50:39Z</time>
</trkpt>
<trkpt lat="49.583106972277164" lon="9.368459628894923">
<ele>397.4</ele>
<time>2024-05-11T15:50:40Z</time>
</trkpt>
<trkpt lat="49.58309171721339" lon="9.36847019009292">
<ele>397.6</ele>
<time>2024-05-11T15:50:41Z</time>
</trkpt>
<trkpt lat="49.58307646214962" lon="9.368479661643503">
<ele>397.8</ele>
<time>2024-05-11T15:50:42Z</time>
</trkpt>
<trkpt lat="49.58303832449019" lon="9.368499694392083">
<ele>398</ele>
<time>2024-05-11T15:50:44Z</time>
</trkpt>
<trkpt lat="49.58302306942642" lon="9.36851017177105">
<ele>398.2</ele>
<time>2024-05-11T15:50:45Z</time>
</trkpt>
<trkpt lat="49.58300773054361" lon="9.368523582816124">
<ele>398.6</ele>
<time>2024-05-11T15:50:46Z</time>
</trkpt>
<trkpt lat="49.58299247547984" lon="9.368536910042168">
<ele>398.8</ele>
<time>2024-05-11T15:50:47Z</time>
</trkpt>
<trkpt lat="49.58295819349587" lon="9.36855023726821">
<ele>399</ele>
<time>2024-05-11T15:50:49Z</time>
</trkpt>
<trkpt lat="49.5829429384321" lon="9.368556942790748">
<ele>398.8</ele>
<time>2024-05-11T15:50:50Z</time>
</trkpt>
<trkpt lat="49.582923827692866" lon="9.368566498160362">
<ele>399</ele>
<time>2024-05-11T15:50:51Z</time>
</trkpt>
<trkpt lat="49.582908572629094" lon="9.368579825386403">
<ele>399</ele>
<time>2024-05-11T15:50:52Z</time>
</trkpt>
<trkpt lat="49.58287429064512" lon="9.368599858134983">
<ele>399.2</ele>
<time>2024-05-11T15:50:54Z</time>
</trkpt>
<trkpt lat="49.58285517990589" lon="9.36860840767622">
<ele>399.4</ele>
<time>2024-05-11T15:50:55Z</time>
</trkpt>
<trkpt lat="49.58283606916666" lon="9.368615113198755">
<ele>399.6</ele>
<time>2024-05-11T15:50:56Z</time>
</trkpt>
<trkpt lat="49.58281704224646" lon="9.368617963045835">
<ele>399.8</ele>
<time>2024-05-11T15:50:57Z</time>
</trkpt>
<trkpt lat="49.58277890458703" lon="9.368633218109608">
<ele>400</ele>
<time>2024-05-11T15:50:59Z</time>
</trkpt>
<trkpt lat="49.5827597938478" lon="9.368641851469874">
<ele>400.2</ele>
<time>2024-05-11T15:51:00Z</time>
</trkpt>
<trkpt lat="49.58273691125214" lon="9.368644701316953">
<ele>400.4</ele>
<time>2024-05-11T15:51:01Z</time>
</trkpt>
<trkpt lat="49.58271788433194" lon="9.36864654533565">
<ele>400.4</ele>
<time>2024-05-11T15:51:02Z</time>
</trkpt>
<trkpt lat="49.58267974667251" lon="9.368635145947335">
<ele>400.6</ele>
<time>2024-05-11T15:51:04Z</time>
</trkpt>
<trkpt lat="49.58266440778971" lon="9.368617041036488">
<ele>400.6</ele>
<time>2024-05-11T15:51:05Z</time>
</trkpt>
<trkpt lat="49.582649152725935" lon="9.368601785972714">
<ele>400.8</ele>
<time>2024-05-11T15:51:06Z</time>
</trkpt>
<trkpt lat="49.58263389766216" lon="9.36859130859375">
<ele>401</ele>
<time>2024-05-11T15:51:07Z</time>
</trkpt>
<trkpt lat="49.58259961567819" lon="9.368584603071213">
<ele>401.2</ele>
<time>2024-05-11T15:51:09Z</time>
</trkpt>
<trkpt lat="49.58258050493896" lon="9.368579825386403">
<ele>401.2</ele>
<time>2024-05-11T15:51:10Z</time>
</trkpt>
<trkpt lat="49.58256147801876" lon="9.368577897548676">
<ele>401.2</ele>
<time>2024-05-11T15:51:11Z</time>
</trkpt>
<trkpt lat="49.58254236727953" lon="9.368581753224134">
<ele>401.4</ele>
<time>2024-05-11T15:51:12Z</time>
</trkpt>
<trkpt lat="49.582511857151985" lon="9.368611257523298">
<ele>401.4</ele>
<time>2024-05-11T15:51:15Z</time>
</trkpt>
<trkpt lat="49.58249660208821" lon="9.368633218109608">
<ele>401.4</ele>
<time>2024-05-11T15:51:16Z</time>
</trkpt>
<trkpt lat="49.58246609196067" lon="9.36868661083281">
<ele>401.4</ele>
<time>2024-05-11T15:51:17Z</time>
</trkpt>
<trkpt lat="49.58244320936501" lon="9.36876866966486">
<ele>401.2</ele>
<time>2024-05-11T15:51:19Z</time>
</trkpt>
<trkpt lat="49.582431726157665" lon="9.368809657171369">
<ele>401.2</ele>
<time>2024-05-11T15:51:20Z</time>
</trkpt>
<trkpt lat="49.58242032676935" lon="9.368854500353336">
<ele>401</ele>
<time>2024-05-11T15:51:21Z</time>
</trkpt>
<trkpt lat="49.58240507170558" lon="9.368898337706923">
<ele>400.8</ele>
<time>2024-05-11T15:51:22Z</time>
</trkpt>
<trkpt lat="49.58236693404615" lon="9.368978468701243">
<ele>400.6</ele>
<time>2024-05-11T15:51:24Z</time>
</trkpt>
<trkpt lat="49.58232494071126" lon="9.369034711271524">
<ele>400.4</ele>
<time>2024-05-11T15:51:26Z</time>
</trkpt>
<trkpt lat="49.58229820244014" lon="9.369041416794062">
<ele>400.4</ele>
<time>2024-05-11T15:51:27Z</time>
</trkpt>
<trkpt lat="49.58226392045617" lon="9.369039488956332">
<ele>400.2</ele>
<time>2024-05-11T15:51:29Z</time>
</trkpt>
<trkpt lat="49.58221052773297" lon="9.369020462036133">
<ele>400.2</ele>
<time>2024-05-11T15:51:30Z</time>
</trkpt>
<trkpt lat="49.58219141699374" lon="9.36900805681944">
<ele>400</ele>
<time>2024-05-11T15:51:31Z</time>
</trkpt>
<trkpt lat="49.582176161929965" lon="9.368996573612094">
<ele>400</ele>
<time>2024-05-11T15:51:32Z</time>
</trkpt>
<trkpt lat="49.58214179612696" lon="9.36898517422378">
<ele>400</ele>
<time>2024-05-11T15:51:34Z</time>
</trkpt>
<trkpt lat="49.58212654106319" lon="9.368973691016436">
<ele>400</ele>
<time>2024-05-11T15:51:35Z</time>
</trkpt>
<trkpt lat="49.58211514167488" lon="9.368956508114934">
<ele>400</ele>
<time>2024-05-11T15:51:36Z</time>
</trkpt>
<trkpt lat="49.58210365846753" lon="9.368943180888891">
<ele>400.2</ele>
<time>2024-05-11T15:51:37Z</time>
</trkpt>
<trkpt lat="49.58208077587187" lon="9.36890697106719">
<ele>400.2</ele>
<time>2024-05-11T15:51:39Z</time>
</trkpt>
<trkpt lat="49.58206937648356" lon="9.368893560022116">
<ele>400.2</ele>
<time>2024-05-11T15:51:40Z</time>
</trkpt>
<trkpt lat="49.582057893276215" lon="9.368889788165689">
<ele>400.4</ele>
<time>2024-05-11T15:51:41Z</time>
</trkpt>
<trkpt lat="49.58205026574433" lon="9.368896409869194">
<ele>400.6</ele>
<time>2024-05-11T15:51:42Z</time>
</trkpt>
<trkpt lat="49.58205412141979" lon="9.368900265544651">
<ele>400.8</ele>
<time>2024-05-11T15:51:43Z</time>
</trkpt>
<trkpt lat="49.58205026574433" lon="9.368900265544651">
<ele>400.8</ele>
<time>2024-05-11T15:51:44Z</time>
</trkpt>
<trkpt lat="49.5820464938879" lon="9.368900265544651">
<ele>401</ele>
<time>2024-05-11T15:51:45Z</time>
</trkpt>
<trkpt lat="49.5820464938879" lon="9.368898337706923">
<ele>401.2</ele>
<time>2024-05-11T15:51:47Z</time>
</trkpt>
<trkpt lat="49.58204263821244" lon="9.368893560022116">
<ele>401.2</ele>
<time>2024-05-11T15:51:49Z</time>
</trkpt>
<trkpt lat="49.58203501068056" lon="9.368889788165689">
<ele>401.4</ele>
<time>2024-05-11T15:51:51Z</time>
</trkpt>
<trkpt lat="49.58202738314867" lon="9.368894565850496">
<ele>401.4</ele>
<time>2024-05-11T15:51:54Z</time>
</trkpt>
<trkpt lat="49.58202361129224" lon="9.368901187554002">
<ele>401.4</ele>
<time>2024-05-11T15:51:55Z</time>
</trkpt>
<trkpt lat="49.582019755616784" lon="9.36890789307654">
<ele>401.6</ele>
<time>2024-05-11T15:51:56Z</time>
</trkpt>
<trkpt lat="49.582019755616784" lon="9.368913592770696">
<ele>401.6</ele>
<time>2024-05-11T15:51:57Z</time>
</trkpt>
<trkpt lat="49.58201598376036" lon="9.368916442617774">
<ele>401.6</ele>
<time>2024-05-11T15:51:59Z</time>
</trkpt>
<trkpt lat="49.58201598376036" lon="9.368914598599076">
<ele>401.6</ele>
<time>2024-05-11T15:52:01Z</time>
</trkpt>
<trkpt lat="49.58201598376036" lon="9.368911664932966">
<ele>401.6</ele>
<time>2024-05-11T15:52:02Z</time>
</trkpt>
<trkpt lat="49.58201598376036" lon="9.368909820914268">
<ele>401.6</ele>
<time>2024-05-11T15:52:04Z</time>
</trkpt>
<trkpt lat="49.582019755616784" lon="9.368909820914268">
<ele>401.6</ele>
<time>2024-05-11T15:52:06Z</time>
</trkpt>
<trkpt lat="49.582019755616784" lon="9.36890697106719">
<ele>401.6</ele>
<time>2024-05-11T15:52:07Z</time>
</trkpt>
<trkpt lat="49.582019755616784" lon="9.368898337706923">
<ele>401.6</ele>
<time>2024-05-11T15:52:09Z</time>
</trkpt>
<trkpt lat="49.582019755616784" lon="9.368894565850496">
<ele>401.6</ele>
<time>2024-05-11T15:52:10Z</time>
</trkpt>
<trkpt lat="49.582019755616784" lon="9.368893560022116">
<ele>401.6</ele>
<time>2024-05-11T15:52:11Z</time>
</trkpt>
<trkpt lat="49.582019755616784" lon="9.368889788165689">
<ele>401.6</ele>
<time>2024-05-11T15:52:12Z</time>
</trkpt>
<trkpt lat="49.582019755616784" lon="9.36888786032796">
<ele>401.6</ele>
<time>2024-05-11T15:52:14Z</time>
</trkpt>
<trkpt lat="49.58202361129224" lon="9.36888693831861">
<ele>401.6</ele>
<time>2024-05-11T15:52:15Z</time>
</trkpt>
<trkpt lat="49.582019755616784" lon="9.36888501048088">
<ele>401.6</ele>
<time>2024-05-11T15:52:16Z</time>
</trkpt>
<trkpt lat="49.582019755616784" lon="9.368880232796071">
<ele>401.6</ele>
<time>2024-05-11T15:52:17Z</time>
</trkpt>
<trkpt lat="49.58202738314867" lon="9.368869755417109">
<ele>401.6</ele>
<time>2024-05-11T15:52:19Z</time>
</trkpt>
<trkpt lat="49.58203123882413" lon="9.36886782757938">
<ele>401.6</ele>
<time>2024-05-11T15:52:20Z</time>
</trkpt>
<trkpt lat="49.58203501068056" lon="9.36886782757938">
<ele>401.6</ele>
<time>2024-05-11T15:52:21Z</time>
</trkpt>
<trkpt lat="49.58203501068056" lon="9.368863049894571">
<ele>401.6</ele>
<time>2024-05-11T15:52:22Z</time>
</trkpt>
<trkpt lat="49.58203501068056" lon="9.368851650506258">
<ele>401.6</ele>
<time>2024-05-11T15:52:24Z</time>
</trkpt>
<trkpt lat="49.581981617957354" lon="9.36892507597804">
<ele>403</ele>
<time>2024-05-11T15:52:24Z</time>
</trkpt>
<trkpt lat="49.581981617957354" lon="9.368923148140311">
<ele>403</ele>
<time>2024-05-11T15:52:27Z</time>
</trkpt>
<trkpt lat="49.58198547363281" lon="9.368923148140311">
<ele>403</ele>
<time>2024-05-11T15:52:31Z</time>
</trkpt>
<trkpt lat="49.58198547363281" lon="9.36892507597804">
<ele>403</ele>
<time>2024-05-11T15:52:32Z</time>
</trkpt>
<trkpt lat="49.58198547363281" lon="9.368926919996738">
<ele>403</ele>
<time>2024-05-11T15:52:34Z</time>
</trkpt>
<trkpt lat="49.581981617957354" lon="9.368929853662848">
<ele>403</ele>
<time>2024-05-11T15:52:35Z</time>
</trkpt>
<trkpt lat="49.581981617957354" lon="9.368931697681546">
<ele>403</ele>
<time>2024-05-11T15:52:36Z</time>
</trkpt>
<trkpt lat="49.581981617957354" lon="9.368933625519276">
<ele>403</ele>
<time>2024-05-11T15:52:37Z</time>
</trkpt>
<trkpt lat="49.581981617957354" lon="9.368934631347656">
<ele>403</ele>
<time>2024-05-11T15:52:39Z</time>
</trkpt>
<trkpt lat="49.581981617957354" lon="9.368936475366354">
<ele>403</ele>
<time>2024-05-11T15:52:40Z</time>
</trkpt>
<trkpt lat="49.58198547363281" lon="9.368936475366354">
<ele>403</ele>
<time>2024-05-11T15:52:41Z</time>
</trkpt>
<trkpt lat="49.58198547363281" lon="9.368938403204083">
<ele>403</ele>
<time>2024-05-11T15:52:47Z</time>
</trkpt>
<trkpt lat="49.58198924548924" lon="9.368940331041811">
<ele>403</ele>
<time>2024-05-11T15:52:49Z</time>
</trkpt>
<trkpt lat="49.58198924548924" lon="9.368941253051162">
<ele>403</ele>
<time>2024-05-11T15:52:51Z</time>
</trkpt>
<trkpt lat="49.58198924548924" lon="9.368943180888891">
<ele>403</ele>
<time>2024-05-11T15:52:54Z</time>
</trkpt>
<trkpt lat="49.58198924548924" lon="9.36894510872662">
<ele>403</ele>
<time>2024-05-11T15:53:01Z</time>
</trkpt>
<trkpt lat="49.58198547363281" lon="9.368946952745318">
<ele>403</ele>
<time>2024-05-11T15:53:05Z</time>
</trkpt>
<trkpt lat="49.58198547363281" lon="9.3689479585737">
<ele>403</ele>
<time>2024-05-11T15:53:08Z</time>
</trkpt>
<trkpt lat="49.58198547363281" lon="9.368946952745318">
<ele>403</ele>
<time>2024-05-11T15:53:10Z</time>
</trkpt>
<trkpt lat="49.581981617957354" lon="9.368946952745318">
<ele>403</ele>
<time>2024-05-11T15:53:15Z</time>
</trkpt>
<trkpt lat="49.581981617957354" lon="9.36894510872662">
<ele>403</ele>
<time>2024-05-11T15:53:20Z</time>
</trkpt>
<trkpt lat="49.581981617957354" lon="9.368943180888891">
<ele>403</ele>
<time>2024-05-11T15:53:24Z</time>
</trkpt>
<trkpt lat="49.58198547363281" lon="9.368941253051162">
<ele>403</ele>
<time>2024-05-11T15:53:25Z</time>
</trkpt>
<trkpt lat="49.58198547363281" lon="9.368940331041811">
<ele>403</ele>
<time>2024-05-11T15:53:26Z</time>
</trkpt>
<trkpt lat="49.58198547363281" lon="9.368941253051162">
<ele>403</ele>
<time>2024-05-11T15:53:27Z</time>
</trkpt>
<trkpt lat="49.58198547363281" lon="9.368943180888891">
<ele>403</ele>
<time>2024-05-11T15:53:28Z</time>
</trkpt>
<trkpt lat="49.58198924548924" lon="9.368943180888891">
<ele>403</ele>
<time>2024-05-11T15:53:29Z</time>
</trkpt>
<trkpt lat="49.58198547363281" lon="9.368943180888891">
<ele>403</ele>
<time>2024-05-11T15:53:36Z</time>
</trkpt>
<trkpt lat="49.58198547363281" lon="9.368941253051162">
<ele>403</ele>
<time>2024-05-11T15:53:37Z</time>
</trkpt>
<trkpt lat="49.58198547363281" lon="9.368943180888891">
<ele>403</ele>
<time>2024-05-11T15:53:41Z</time>
</trkpt>
<trkpt lat="49.58198547363281" lon="9.36894510872662">
<ele>403</ele>
<time>2024-05-11T15:53:45Z</time>
</trkpt>
<trkpt lat="49.58198547363281" lon="9.368946952745318">
<ele>403</ele>
<time>2024-05-11T15:53:47Z</time>
</trkpt>
<trkpt lat="49.58198547363281" lon="9.3689479585737">
<ele>403</ele>
<time>2024-05-11T15:53:48Z</time>
</trkpt>
<trkpt lat="49.58198547363281" lon="9.368949886411428">
<ele>403</ele>
<time>2024-05-11T15:53:50Z</time>
</trkpt>
<trkpt lat="49.58198547363281" lon="9.368951730430126">
<ele>403</ele>
<time>2024-05-11T15:53:52Z</time>
</trkpt>
<trkpt lat="49.58198547363281" lon="9.368953658267856">
<ele>403</ele>
<time>2024-05-11T15:53:55Z</time>
</trkpt>
<trkpt lat="49.58198547363281" lon="9.368954580277205">
<ele>403</ele>
<time>2024-05-11T15:53:57Z</time>
</trkpt>
<trkpt lat="49.58198924548924" lon="9.368954580277205">
<ele>403</ele>
<time>2024-05-11T15:54:01Z</time>
</trkpt>
<trkpt lat="49.58198924548924" lon="9.368956508114934">
<ele>403</ele>
<time>2024-05-11T15:54:02Z</time>
</trkpt>
<trkpt lat="49.5819931011647" lon="9.368958435952663">
<ele>403</ele>
<time>2024-05-11T15:54:09Z</time>
</trkpt>
<trkpt lat="49.58198924548924" lon="9.368956508114934">
<ele>403</ele>
<time>2024-05-11T15:54:12Z</time>
</trkpt>
<trkpt lat="49.58198924548924" lon="9.368953658267856">
<ele>403</ele>
<time>2024-05-11T15:54:13Z</time>
</trkpt>
<trkpt lat="49.5819931011647" lon="9.368953658267856">
<ele>403</ele>
<time>2024-05-11T15:54:15Z</time>
</trkpt>
<trkpt lat="49.5819931011647" lon="9.3689479585737">
<ele>403</ele>
<time>2024-05-11T15:54:16Z</time>
</trkpt>
<trkpt lat="49.581996873021126" lon="9.36894510872662">
<ele>403</ele>
<time>2024-05-11T15:54:17Z</time>
</trkpt>
<trkpt lat="49.581996873021126" lon="9.368943180888891">
<ele>403</ele>
<time>2024-05-11T15:54:19Z</time>
</trkpt>
<trkpt lat="49.582000728696585" lon="9.368943180888891">
<ele>403</ele>
<time>2024-05-11T15:54:20Z</time>
</trkpt>
<trkpt lat="49.582000728696585" lon="9.368941253051162">
<ele>403</ele>
<time>2024-05-11T15:54:21Z</time>
</trkpt>
<trkpt lat="49.58200450055301" lon="9.368941253051162">
<ele>403</ele>
<time>2024-05-11T15:54:23Z</time>
</trkpt>
<trkpt lat="49.58200835622847" lon="9.368940331041811">
<ele>403</ele>
<time>2024-05-11T15:54:24Z</time>
</trkpt>
<trkpt lat="49.58200835622847" lon="9.368938403204083">
<ele>403</ele>
<time>2024-05-11T15:54:27Z</time>
</trkpt>
<trkpt lat="49.58200835622847" lon="9.368940331041811">
<ele>403</ele>
<time>2024-05-11T15:54:34Z</time>
</trkpt>
<trkpt lat="49.58200835622847" lon="9.368941253051162">
<ele>403</ele>
<time>2024-05-11T15:54:35Z</time>
</trkpt>
<trkpt lat="49.58200835622847" lon="9.36894510872662">
<ele>403</ele>
<time>2024-05-11T15:54:36Z</time>
</trkpt>
<trkpt lat="49.5820121280849" lon="9.36894510872662">
<ele>403</ele>
<time>2024-05-11T15:54:38Z</time>
</trkpt>
<trkpt lat="49.5820121280849" lon="9.368946952745318">
<ele>403</ele>
<time>2024-05-11T15:54:39Z</time>
</trkpt>
<trkpt lat="49.5820121280849" lon="9.3689479585737">
<ele>403</ele>
<time>2024-05-11T15:54:40Z</time>
</trkpt>
<trkpt lat="49.5820121280849" lon="9.368946952745318">
<ele>403</ele>
<time>2024-05-11T15:54:41Z</time>
</trkpt>
<trkpt lat="49.58201598376036" lon="9.368946952745318">
<ele>403</ele>
<time>2024-05-11T15:54:42Z</time>
</trkpt>
<trkpt lat="49.582019755616784" lon="9.3689479585737">
<ele>403</ele>
<time>2024-05-11T15:54:43Z</time>
</trkpt>
<trkpt lat="49.58202361129224" lon="9.368949886411428">
<ele>403</ele>
<time>2024-05-11T15:54:44Z</time>
</trkpt>
<trkpt lat="49.58203123882413" lon="9.368951730430126">
<ele>403</ele>
<time>2024-05-11T15:54:45Z</time>
</trkpt>
<trkpt lat="49.58203501068056" lon="9.368951730430126">
<ele>403</ele>
<time>2024-05-11T15:54:46Z</time>
</trkpt>
<trkpt lat="49.58203501068056" lon="9.368953658267856">
<ele>403</ele>
<time>2024-05-11T15:54:47Z</time>
</trkpt>
<trkpt lat="49.582038866356015" lon="9.368954580277205">
<ele>403</ele>
<time>2024-05-11T15:54:48Z</time>
</trkpt>
<trkpt lat="49.582038866356015" lon="9.368953658267856">
<ele>403</ele>
<time>2024-05-11T15:54:49Z</time>
</trkpt>
<trkpt lat="49.582038866356015" lon="9.368954580277205">
<ele>403</ele>
<time>2024-05-11T15:54:51Z</time>
</trkpt>
<trkpt lat="49.582038866356015" lon="9.368953658267856">
<ele>403</ele>
<time>2024-05-11T15:54:54Z</time>
</trkpt>
<trkpt lat="49.582038866356015" lon="9.368951730430126">
<ele>403</ele>
<time>2024-05-11T15:54:56Z</time>
</trkpt>
<trkpt lat="49.582038866356015" lon="9.368949886411428">
<ele>403</ele>
<time>2024-05-11T15:54:59Z</time>
</trkpt>
<trkpt lat="49.582038866356015" lon="9.368951730430126">
<ele>403</ele>
<time>2024-05-11T15:55:01Z</time>
</trkpt>
<trkpt lat="49.582038866356015" lon="9.368949886411428">
<ele>403</ele>
<time>2024-05-11T15:55:03Z</time>
</trkpt>
<trkpt lat="49.582038866356015" lon="9.3689479585737">
<ele>403</ele>
<time>2024-05-11T15:55:04Z</time>
</trkpt>
<trkpt lat="49.58204263821244" lon="9.3689479585737">
<ele>403</ele>
<time>2024-05-11T15:55:05Z</time>
</trkpt>
<trkpt lat="49.5820464938879" lon="9.3689479585737">
<ele>403</ele>
<time>2024-05-11T15:55:06Z</time>
</trkpt>
<trkpt lat="49.582057893276215" lon="9.368953658267856">
<ele>403</ele>
<time>2024-05-11T15:55:07Z</time>
</trkpt>
<trkpt lat="49.58207314833999" lon="9.368960363790393">
<ele>403</ele>
<time>2024-05-11T15:55:08Z</time>
</trkpt>
<trkpt lat="49.58208463154733" lon="9.368963213637471">
<ele>403</ele>
<time>2024-05-11T15:55:09Z</time>
</trkpt>
<trkpt lat="49.58208840340376" lon="9.3689651414752">
<ele>403</ele>
<time>2024-05-11T15:55:10Z</time>
</trkpt>
<trkpt lat="49.582096030935645" lon="9.36896799132228">
<ele>403</ele>
<time>2024-05-11T15:55:11Z</time>
</trkpt>
<trkpt lat="49.582099886611104" lon="9.368969835340977">
<ele>403</ele>
<time>2024-05-11T15:55:12Z</time>
</trkpt>
<trkpt lat="49.58211128599942" lon="9.368973691016436">
<ele>403</ele>
<time>2024-05-11T15:55:13Z</time>
</trkpt>
<trkpt lat="49.5821189135313" lon="9.368978468701243">
<ele>403</ele>
<time>2024-05-11T15:55:14Z</time>
</trkpt>
<trkpt lat="49.58212654106319" lon="9.368980396538973">
<ele>403</ele>
<time>2024-05-11T15:55:15Z</time>
</trkpt>
<trkpt lat="49.58213416859507" lon="9.368983246386051">
<ele>403</ele>
<time>2024-05-11T15:55:16Z</time>
</trkpt>
<trkpt lat="49.582138024270535" lon="9.368983246386051">
<ele>403</ele>
<time>2024-05-11T15:55:17Z</time>
</trkpt>
<trkpt lat="49.58214565180242" lon="9.368989868089557">
<ele>403</ele>
<time>2024-05-11T15:55:18Z</time>
</trkpt>
<trkpt lat="49.58215327933431" lon="9.368994645774364">
<ele>403</ele>
<time>2024-05-11T15:55:19Z</time>
</trkpt>
<trkpt lat="49.582157135009766" lon="9.369000429287553">
<ele>403</ele>
<time>2024-05-11T15:55:20Z</time>
</trkpt>
<trkpt lat="49.58216090686619" lon="9.369000429287553">
<ele>403</ele>
<time>2024-05-11T15:55:21Z</time>
</trkpt>
<trkpt lat="49.58216853439808" lon="9.369000429287553">
<ele>403</ele>
<time>2024-05-11T15:55:22Z</time>
</trkpt>
<trkpt lat="49.582176161929965" lon="9.369001351296902">
<ele>403</ele>
<time>2024-05-11T15:55:23Z</time>
</trkpt>
<trkpt lat="49.582180017605424" lon="9.369003279134631">
<ele>403</ele>
<time>2024-05-11T15:55:24Z</time>
</trkpt>
<trkpt lat="49.58218378946185" lon="9.369005123153327">
<ele>403</ele>
<time>2024-05-11T15:55:25Z</time>
</trkpt>
<trkpt lat="49.58219141699374" lon="9.36900805681944">
<ele>403</ele>
<time>2024-05-11T15:55:26Z</time>
</trkpt>
<trkpt lat="49.58220290020108" lon="9.369018534198403">
<ele>403</ele>
<time>2024-05-11T15:55:27Z</time>
</trkpt>
<trkpt lat="49.58221052773297" lon="9.369021384045482">
<ele>403</ele>
<time>2024-05-11T15:55:28Z</time>
</trkpt>
<trkpt lat="49.582218155264854" lon="9.36902616173029">
<ele>403</ele>
<time>2024-05-11T15:55:29Z</time>
</trkpt>
<trkpt lat="49.58223341032863" lon="9.369034711271524">
<ele>403</ele>
<time>2024-05-11T15:55:30Z</time>
</trkpt>
<trkpt lat="49.582237182185054" lon="9.369038566946983">
<ele>403</ele>
<time>2024-05-11T15:55:31Z</time>
</trkpt>
<trkpt lat="49.58224103786051" lon="9.369029933586717">
<ele>403</ele>
<time>2024-05-11T15:55:32Z</time>
</trkpt>
<trkpt lat="49.5822486653924" lon="9.369036639109254">
<ele>403</ele>
<time>2024-05-11T15:55:33Z</time>
</trkpt>
<trkpt lat="49.582252437248826" lon="9.369041416794062">
<ele>403</ele>
<time>2024-05-11T15:55:34Z</time>
</trkpt>
<trkpt lat="49.582256292924285" lon="9.36904619447887">
<ele>403</ele>
<time>2024-05-11T15:55:35Z</time>
</trkpt>
<trkpt lat="49.58226006478071" lon="9.369048038497567">
<ele>403</ele>
<time>2024-05-11T15:55:36Z</time>
</trkpt>
<trkpt lat="49.58226006478071" lon="9.369051894173026">
<ele>403</ele>
<time>2024-05-11T15:55:37Z</time>
</trkpt>
<trkpt lat="49.58226392045617" lon="9.369051894173026">
<ele>403</ele>
<time>2024-05-11T15:55:38Z</time>
</trkpt>
<trkpt lat="49.58226392045617" lon="9.369054744020104">
<ele>403</ele>
<time>2024-05-11T15:55:39Z</time>
</trkpt>
<trkpt lat="49.582294430583715" lon="9.369058599695563">
<ele>403</ele>
<time>2024-05-11T15:55:40Z</time>
</trkpt>
<trkpt lat="49.582313457503915" lon="9.369065221399069">
<ele>403</ele>
<time>2024-05-11T15:55:41Z</time>
</trkpt>
<trkpt lat="49.582313457503915" lon="9.36906622722745">
<ele>403</ele>
<time>2024-05-11T15:55:42Z</time>
</trkpt>
<trkpt lat="49.582317313179374" lon="9.369069999083877">
<ele>403</ele>
<time>2024-05-11T15:55:43Z</time>
</trkpt>
<trkpt lat="49.582317313179374" lon="9.369074776768684">
<ele>403</ele>
<time>2024-05-11T15:55:44Z</time>
</trkpt>
<trkpt lat="49.58232494071126" lon="9.369081482291222">
<ele>403</ele>
<time>2024-05-11T15:55:45Z</time>
</trkpt>
<trkpt lat="49.58232494071126" lon="9.36908625997603">
<ele>403</ele>
<time>2024-05-11T15:55:46Z</time>
</trkpt>
<trkpt lat="49.58232494071126" lon="9.369088103994727">
<ele>403</ele>
<time>2024-05-11T15:55:47Z</time>
</trkpt>
<trkpt lat="49.58232879638672" lon="9.369090031832457">
<ele>403</ele>
<time>2024-05-11T15:55:48Z</time>
</trkpt>
<trkpt lat="49.58232494071126" lon="9.369090031832457">
<ele>403</ele>
<time>2024-05-11T15:55:49Z</time>
</trkpt>
<trkpt lat="49.58232494071126" lon="9.369091959670186">
<ele>403</ele>
<time>2024-05-11T15:55:50Z</time>
</trkpt>
<trkpt lat="49.58232494071126" lon="9.369092881679537">
<ele>403</ele>
<time>2024-05-11T15:55:52Z</time>
</trkpt>
<trkpt lat="49.58232494071126" lon="9.369094809517264">
<ele>403</ele>
<time>2024-05-11T15:55:53Z</time>
</trkpt>
<trkpt lat="49.58232494071126" lon="9.369096737354994">
<ele>403</ele>
<time>2024-05-11T15:55:54Z</time>
</trkpt>
<trkpt lat="49.58232494071126" lon="9.369098581373692">
<ele>403</ele>
<time>2024-05-11T15:55:55Z</time>
</trkpt>
<trkpt lat="49.58232494071126" lon="9.369099587202072">
<ele>403</ele>
<time>2024-05-11T15:55:56Z</time>
</trkpt>
<trkpt lat="49.582332568243146" lon="9.3691033590585">
<ele>403</ele>
<time>2024-05-11T15:55:58Z</time>
</trkpt>
<trkpt lat="49.58234019577503" lon="9.369112914428117">
<ele>403</ele>
<time>2024-05-11T15:55:59Z</time>
</trkpt>
<trkpt lat="49.58235167898238" lon="9.369114842265844">
<ele>403</ele>
<time>2024-05-11T15:56:00Z</time>
</trkpt>
<trkpt lat="49.58236307837069" lon="9.369108136743307">
<ele>403</ele>
<time>2024-05-11T15:56:01Z</time>
</trkpt>
<trkpt lat="49.582374561578035" lon="9.369096737354994">
<ele>403</ele>
<time>2024-05-11T15:56:02Z</time>
</trkpt>
<trkpt lat="49.58238596096635" lon="9.369076704606414">
<ele>403</ele>
<time>2024-05-11T15:56:03Z</time>
</trkpt>
<trkpt lat="49.582397444173694" lon="9.369051894173026">
<ele>403</ele>
<time>2024-05-11T15:56:04Z</time>
</trkpt>
<trkpt lat="49.58240884356201" lon="9.36902616173029">
<ele>403</ele>
<time>2024-05-11T15:56:05Z</time>
</trkpt>
<trkpt lat="49.58241647109389" lon="9.369001351296902">
<ele>403</ele>
<time>2024-05-11T15:56:06Z</time>
</trkpt>
<trkpt lat="49.58242032676935" lon="9.368974613025784">
<ele>403</ele>
<time>2024-05-11T15:56:07Z</time>
</trkpt>
<trkpt lat="49.58242409862578" lon="9.3689479585737">
<ele>403</ele>
<time>2024-05-11T15:56:08Z</time>
</trkpt>
<trkpt lat="49.582431726157665" lon="9.36892507597804">
<ele>403</ele>
<time>2024-05-11T15:56:09Z</time>
</trkpt>
<trkpt lat="49.58243935368955" lon="9.368903115391731">
<ele>403</ele>
<time>2024-05-11T15:56:10Z</time>
</trkpt>
<trkpt lat="49.58244320936501" lon="9.368878304958344">
<ele>403</ele>
<time>2024-05-11T15:56:11Z</time>
</trkpt>
<trkpt lat="49.582450836896896" lon="9.368858272209764">
<ele>403</ele>
<time>2024-05-11T15:56:13Z</time>
</trkpt>
<trkpt lat="49.58246223628521" lon="9.36882684007287">
<ele>403</ele>
<time>2024-05-11T15:56:14Z</time>
</trkpt>
<trkpt lat="49.582469863817096" lon="9.368802029639482">
<ele>403</ele>
<time>2024-05-11T15:56:15Z</time>
</trkpt>
<trkpt lat="49.58247749134898" lon="9.368780069053171">
<ele>403</ele>
<time>2024-05-11T15:56:16Z</time>
</trkpt>
<trkpt lat="49.582492746412754" lon="9.368761964142324">
<ele>403</ele>
<time>2024-05-11T15:56:17Z</time>
</trkpt>
<trkpt lat="49.58250045776367" lon="9.368741931393744">
<ele>403</ele>
<time>2024-05-11T15:56:18Z</time>
</trkpt>
<trkpt lat="49.58251571282744" lon="9.3687286041677">
<ele>403</ele>
<time>2024-05-11T15:56:19Z</time>
</trkpt>
<trkpt lat="49.58252334035933" lon="9.36870471574366">
<ele>403</ele>
<time>2024-05-11T15:56:20Z</time>
</trkpt>
<trkpt lat="49.58252711221576" lon="9.368681833148004">
<ele>403</ele>
<time>2024-05-11T15:56:21Z</time>
</trkpt>
<trkpt lat="49.582530967891216" lon="9.368657106533648">
<ele>403</ele>
<time>2024-05-11T15:56:22Z</time>
</trkpt>
<trkpt lat="49.58253473974764" lon="9.368635145947335">
<ele>403</ele>
<time>2024-05-11T15:56:23Z</time>
</trkpt>
<trkpt lat="49.5825385954231" lon="9.368611257523298">
<ele>403</ele>
<time>2024-05-11T15:56:24Z</time>
</trkpt>
<trkpt lat="49.5825385954231" lon="9.368586530908942">
<ele>403</ele>
<time>2024-05-11T15:56:25Z</time>
</trkpt>
<trkpt lat="49.58253473974764" lon="9.368557864800096">
<ele>403</ele>
<time>2024-05-11T15:56:26Z</time>
</trkpt>
<trkpt lat="49.582530967891216" lon="9.36853020451963">
<ele>403</ele>
<time>2024-05-11T15:56:27Z</time>
</trkpt>
<trkpt lat="49.58252711221576" lon="9.368503550067544">
<ele>403</ele>
<time>2024-05-11T15:56:28Z</time>
</trkpt>
<trkpt lat="49.58252711221576" lon="9.368481589481236">
<ele>403</ele>
<time>2024-05-11T15:56:29Z</time>
</trkpt>
<trkpt lat="49.58252334035933" lon="9.368456779047849">
<ele>403</ele>
<time>2024-05-11T15:56:30Z</time>
</trkpt>
<trkpt lat="49.582511857151985" lon="9.368428196758032">
<ele>403</ele>
<time>2024-05-11T15:56:31Z</time>
</trkpt>
<trkpt lat="49.58249660208821" lon="9.368398608639836">
<ele>403</ele>
<time>2024-05-11T15:56:32Z</time>
</trkpt>
<trkpt lat="49.58248134702444" lon="9.368378575891256">
<ele>403</ele>
<time>2024-05-11T15:56:33Z</time>
</trkpt>
<trkpt lat="49.58246609196067" lon="9.368358543142676">
<ele>403</ele>
<time>2024-05-11T15:56:34Z</time>
</trkpt>
<trkpt lat="49.582450836896896" lon="9.368346137925982">
<ele>403</ele>
<time>2024-05-11T15:56:35Z</time>
</trkpt>
<trkpt lat="49.58243935368955" lon="9.368339516222475">
<ele>403</ele>
<time>2024-05-11T15:56:36Z</time>
</trkpt>
<trkpt lat="49.58242409862578" lon="9.36833188869059">
<ele>403</ele>
<time>2024-05-11T15:56:37Z</time>
</trkpt>
<trkpt lat="49.58240884356201" lon="9.368320405483246">
<ele>403</ele>
<time>2024-05-11T15:56:38Z</time>
</trkpt>
<trkpt lat="49.58238981664181" lon="9.368308000266552">
<ele>403</ele>
<time>2024-05-11T15:56:39Z</time>
</trkpt>
<trkpt lat="49.58237833343446" lon="9.368298528715968">
<ele>403</ele>
<time>2024-05-11T15:56:40Z</time>
</trkpt>
<trkpt lat="49.58236693404615" lon="9.368287967517972">
<ele>403</ele>
<time>2024-05-11T15:56:41Z</time>
</trkpt>
<trkpt lat="49.58235167898238" lon="9.368287967517972">
<ele>403</ele>
<time>2024-05-11T15:56:42Z</time>
</trkpt>
<trkpt lat="49.582332568243146" lon="9.368291823193433">
<ele>403</ele>
<time>2024-05-11T15:56:43Z</time>
</trkpt>
<trkpt lat="49.582313457503915" lon="9.368298528715968">
<ele>403</ele>
<time>2024-05-11T15:56:44Z</time>
</trkpt>
<trkpt lat="49.582294430583715" lon="9.368298528715968">
<ele>403</ele>
<time>2024-05-11T15:56:45Z</time>
</trkpt>
<trkpt lat="49.58227917551994" lon="9.36829467304051">
<ele>403</ele>
<time>2024-05-11T15:56:46Z</time>
</trkpt>
<trkpt lat="49.58226006478071" lon="9.3682898953557">
<ele>403</ele>
<time>2024-05-11T15:56:47Z</time>
</trkpt>
<trkpt lat="49.58224480971694" lon="9.368283189833164">
<ele>403</ele>
<time>2024-05-11T15:56:48Z</time>
</trkpt>
<trkpt lat="49.58222578279674" lon="9.36827371828258">
<ele>403</ele>
<time>2024-05-11T15:56:49Z</time>
</trkpt>
<trkpt lat="49.58221052773297" lon="9.368263240903616">
<ele>403</ele>
<time>2024-05-11T15:56:50Z</time>
</trkpt>
<trkpt lat="49.5821952726692" lon="9.368251757696273">
<ele>403</ele>
<time>2024-05-11T15:56:51Z</time>
</trkpt>
<trkpt lat="49.582180017605424" lon="9.368240274488926">
<ele>403</ele>
<time>2024-05-11T15:56:52Z</time>
</trkpt>
<trkpt lat="49.58216090686619" lon="9.368225019425154">
<ele>403</ele>
<time>2024-05-11T15:56:53Z</time>
</trkpt>
<trkpt lat="49.58214179612696" lon="9.368211692199113">
<ele>403</ele>
<time>2024-05-11T15:56:54Z</time>
</trkpt>
<trkpt lat="49.58212654106319" lon="9.368198364973068">
<ele>403</ele>
<time>2024-05-11T15:56:55Z</time>
</trkpt>
<trkpt lat="49.58210751414299" lon="9.36819643713534">
<ele>403</ele>
<time>2024-05-11T15:56:56Z</time>
</trkpt>
<trkpt lat="49.58208840340376" lon="9.368186881765723">
<ele>403</ele>
<time>2024-05-11T15:56:57Z</time>
</trkpt>
<trkpt lat="49.58206937648356" lon="9.36817447654903">
<ele>403</ele>
<time>2024-05-11T15:56:58Z</time>
</trkpt>
<trkpt lat="49.58205412141979" lon="9.368163077160716">
<ele>403</ele>
<time>2024-05-11T15:56:59Z</time>
</trkpt>
<trkpt lat="49.58203501068056" lon="9.3681535217911">
<ele>403</ele>
<time>2024-05-11T15:57:00Z</time>
</trkpt>
<trkpt lat="49.582019755616784" lon="9.368144972249866">
<ele>403</ele>
<time>2024-05-11T15:57:01Z</time>
</trkpt>
<trkpt lat="49.58200450055301" lon="9.36813348904252">
<ele>403</ele>
<time>2024-05-11T15:57:02Z</time>
</trkpt>
<trkpt lat="49.58198924548924" lon="9.368123011663556">
<ele>403</ele>
<time>2024-05-11T15:57:03Z</time>
</trkpt>
<trkpt lat="49.58197399042547" lon="9.36811345629394">
<ele>403</ele>
<time>2024-05-11T15:57:04Z</time>
</trkpt>
<trkpt lat="49.581958735361695" lon="9.368109684437512">
<ele>403</ele>
<time>2024-05-11T15:57:05Z</time>
</trkpt>
<trkpt lat="49.58194725215435" lon="9.368106834590437">
<ele>403</ele>
<time>2024-05-11T15:57:06Z</time>
</trkpt>
<trkpt lat="49.58193199709058" lon="9.368098201230168">
<ele>403</ele>
<time>2024-05-11T15:57:07Z</time>
</trkpt>
<trkpt lat="49.58192436955869" lon="9.368084874004126">
<ele>403</ele>
<time>2024-05-11T15:57:08Z</time>
</trkpt>
<trkpt lat="49.58191297017038" lon="9.36807531863451">
<ele>403</ele>
<time>2024-05-11T15:57:09Z</time>
</trkpt>
<trkpt lat="49.58189771510661" lon="9.36807339079678">
<ele>403</ele>
<time>2024-05-11T15:57:10Z</time>
</trkpt>
<trkpt lat="49.58188623189926" lon="9.36807339079678">
<ele>403</ele>
<time>2024-05-11T15:57:11Z</time>
</trkpt>
<trkpt lat="49.58187483251095" lon="9.36807632446289">
<ele>403</ele>
<time>2024-05-11T15:57:12Z</time>
</trkpt>
<trkpt lat="49.581859577447176" lon="9.36807531863451">
<ele>403</ele>
<time>2024-05-11T15:57:13Z</time>
</trkpt>
<trkpt lat="49.581840466707945" lon="9.368068613111973">
<ele>403</ele>
<time>2024-05-11T15:57:14Z</time>
</trkpt>
<trkpt lat="49.581821439787745" lon="9.368062913417816">
<ele>403</ele>
<time>2024-05-11T15:57:15Z</time>
</trkpt>
<trkpt lat="49.58180610090494" lon="9.36805629171431">
<ele>403</ele>
<time>2024-05-11T15:57:16Z</time>
</trkpt>
<trkpt lat="49.58178707398474" lon="9.368041958659887">
<ele>403</ele>
<time>2024-05-11T15:57:17Z</time>
</trkpt>
<trkpt lat="49.58177181892097" lon="9.368031481280925">
<ele>403</ele>
<time>2024-05-11T15:57:18Z</time>
</trkpt>
<trkpt lat="49.58175270818174" lon="9.368026703596115">
<ele>403</ele>
<time>2024-05-11T15:57:19Z</time>
</trkpt>
<trkpt lat="49.58173368126154" lon="9.368019998073578">
<ele>403</ele>
<time>2024-05-11T15:57:20Z</time>
</trkpt>
<trkpt lat="49.58171457052231" lon="9.368002815172076">
<ele>403</ele>
<time>2024-05-11T15:57:21Z</time>
</trkpt>
<trkpt lat="49.58169554360211" lon="9.367991415783765">
<ele>403</ele>
<time>2024-05-11T15:57:22Z</time>
</trkpt>
<trkpt lat="49.58168028853834" lon="9.367982782423496">
<ele>403</ele>
<time>2024-05-11T15:57:23Z</time>
</trkpt>
<trkpt lat="49.581665033474565" lon="9.36797708272934">
<ele>403</ele>
<time>2024-05-11T15:57:24Z</time>
</trkpt>
<trkpt lat="49.58165355026722" lon="9.367971383035185">
<ele>403</ele>
<time>2024-05-11T15:57:25Z</time>
</trkpt>
<trkpt lat="49.581642150878906" lon="9.367966605350375">
<ele>403</ele>
<time>2024-05-11T15:57:26Z</time>
</trkpt>
<trkpt lat="49.58163443952799" lon="9.367959899827838">
<ele>403</ele>
<time>2024-05-11T15:57:27Z</time>
</trkpt>
<trkpt lat="49.581623040139675" lon="9.367953278124332">
<ele>403</ele>
<time>2024-05-11T15:57:28Z</time>
</trkpt>
<trkpt lat="49.58161155693233" lon="9.367950428277254">
<ele>403</ele>
<time>2024-05-11T15:57:29Z</time>
</trkpt>
<trkpt lat="49.58159630186856" lon="9.367948500439525">
<ele>403</ele>
<time>2024-05-11T15:57:30Z</time>
</trkpt>
<trkpt lat="49.581584902480245" lon="9.367944644764066">
<ele>403</ele>
<time>2024-05-11T15:57:31Z</time>
</trkpt>
<trkpt lat="49.58156964741647" lon="9.367941794916987">
<ele>403</ele>
<time>2024-05-11T15:57:32Z</time>
</trkpt>
<trkpt lat="49.58155816420913" lon="9.36793701723218">
<ele>403</ele>
<time>2024-05-11T15:57:33Z</time>
</trkpt>
<trkpt lat="49.581542909145355" lon="9.367931317538025">
<ele>403</ele>
<time>2024-05-11T15:57:34Z</time>
</trkpt>
<trkpt lat="49.58152765408158" lon="9.367921762168407">
<ele>403</ele>
<time>2024-05-11T15:57:35Z</time>
</trkpt>
<trkpt lat="49.58151239901781" lon="9.367908434942365">
<ele>403</ele>
<time>2024-05-11T15:57:36Z</time>
</trkpt>
<trkpt lat="49.58149714395404" lon="9.367893179878592">
<ele>403</ele>
<time>2024-05-11T15:57:37Z</time>
</trkpt>
<trkpt lat="49.581481888890266" lon="9.36787985265255">
<ele>403</ele>
<time>2024-05-11T15:57:38Z</time>
</trkpt>
<trkpt lat="49.581466633826494" lon="9.367868369445205">
<ele>403</ele>
<time>2024-05-11T15:57:39Z</time>
</trkpt>
<trkpt lat="49.58145137876272" lon="9.367846408858895">
<ele>403</ele>
<time>2024-05-11T15:57:40Z</time>
</trkpt>
<trkpt lat="49.58143989555538" lon="9.367830231785774">
<ele>403</ele>
<time>2024-05-11T15:57:41Z</time>
</trkpt>
<trkpt lat="49.581428496167064" lon="9.36781975440681">
<ele>403</ele>
<time>2024-05-11T15:57:42Z</time>
</trkpt>
<trkpt lat="49.58141324110329" lon="9.367810199037194">
<ele>403</ele>
<time>2024-05-11T15:57:43Z</time>
</trkpt>
<trkpt lat="49.58140175789595" lon="9.367805421352386">
<ele>403</ele>
<time>2024-05-11T15:57:44Z</time>
</trkpt>
<trkpt lat="49.58139413036406" lon="9.367805421352386">
<ele>403</ele>
<time>2024-05-11T15:57:45Z</time>
</trkpt>
<trkpt lat="49.58137887530029" lon="9.367806427180769">
<ele>403</ele>
<time>2024-05-11T15:57:46Z</time>
</trkpt>
<trkpt lat="49.581367475911975" lon="9.367808271199465">
<ele>403.2</ele>
<time>2024-05-11T15:57:47Z</time>
</trkpt>
<trkpt lat="49.581348365172744" lon="9.367796871811152">
<ele>403.2</ele>
<time>2024-05-11T15:57:48Z</time>
</trkpt>
<trkpt lat="49.58133696578443" lon="9.367786394432189">
<ele>403.4</ele>
<time>2024-05-11T15:57:49Z</time>
</trkpt>
<trkpt lat="49.58132171072066" lon="9.367783544585109">
<ele>403.4</ele>
<time>2024-05-11T15:57:50Z</time>
</trkpt>
<trkpt lat="49.581306455656886" lon="9.36777968890965">
<ele>403.6</ele>
<time>2024-05-11T15:57:51Z</time>
</trkpt>
<trkpt lat="49.581287344917655" lon="9.367772983387113">
<ele>403.6</ele>
<time>2024-05-11T15:57:52Z</time>
</trkpt>
<trkpt lat="49.581268234178424" lon="9.367765355855228">
<ele>403.8</ele>
<time>2024-05-11T15:57:53Z</time>
</trkpt>
<trkpt lat="49.581249207258224" lon="9.367754878476262">
<ele>403.8</ele>
<time>2024-05-11T15:57:54Z</time>
</trkpt>
<trkpt lat="49.581226324662566" lon="9.36774155125022">
<ele>403.8</ele>
<time>2024-05-11T15:57:55Z</time>
</trkpt>
<trkpt lat="49.58120344206691" lon="9.367730068042874">
<ele>403.6</ele>
<time>2024-05-11T15:57:56Z</time>
</trkpt>
<trkpt lat="49.58118433132768" lon="9.367726296186447">
<ele>403.6</ele>
<time>2024-05-11T15:57:57Z</time>
</trkpt>
<trkpt lat="49.58116144873202" lon="9.367725290358068">
<ele>403.4</ele>
<time>2024-05-11T15:57:58Z</time>
</trkpt>
<trkpt lat="49.58114242181182" lon="9.36772151850164">
<ele>403.4</ele>
<time>2024-05-11T15:57:59Z</time>
</trkpt>
<trkpt lat="49.58112716674805" lon="9.36771959066391">
<ele>403.6</ele>
<time>2024-05-11T15:58:00Z</time>
</trkpt>
<trkpt lat="49.58110420033336" lon="9.367706263437867">
<ele>403.6</ele>
<time>2024-05-11T15:58:01Z</time>
</trkpt>
<trkpt lat="49.58108517341316" lon="9.367694780230522">
<ele>403.6</ele>
<time>2024-05-11T15:58:02Z</time>
</trkpt>
<trkpt lat="49.5810622908175" lon="9.36768145300448">
<ele>403.8</ele>
<time>2024-05-11T15:58:03Z</time>
</trkpt>
<trkpt lat="49.58104318007827" lon="9.367665275931358">
<ele>404</ele>
<time>2024-05-11T15:58:04Z</time>
</trkpt>
<trkpt lat="49.58102029748261" lon="9.367645243182778">
<ele>404.2</ele>
<time>2024-05-11T15:58:05Z</time>
</trkpt>
<trkpt lat="49.58099741488695" lon="9.367631832137704">
<ele>404.4</ele>
<time>2024-05-11T15:58:06Z</time>
</trkpt>
<trkpt lat="49.58097453229129" lon="9.367616577073932">
<ele>404.6</ele>
<time>2024-05-11T15:58:07Z</time>
</trkpt>
<trkpt lat="49.580947794020176" lon="9.367607105523348">
<ele>404.8</ele>
<time>2024-05-11T15:58:08Z</time>
</trkpt>
<trkpt lat="49.58092491142452" lon="9.367594700306654">
<ele>405</ele>
<time>2024-05-11T15:58:09Z</time>
</trkpt>
<trkpt lat="49.58089440129697" lon="9.367587072774768">
<ele>405.2</ele>
<time>2024-05-11T15:58:10Z</time>
</trkpt>
<trkpt lat="49.58086389116943" lon="9.3675784394145">
<ele>405.4</ele>
<time>2024-05-11T15:58:11Z</time>
</trkpt>
<trkpt lat="49.58083723671734" lon="9.367567040026188">
<ele>405.6</ele>
<time>2024-05-11T15:58:12Z</time>
</trkpt>
<trkpt lat="49.580810498446226" lon="9.367553628981112">
<ele>405.8</ele>
<time>2024-05-11T15:58:13Z</time>
</trkpt>
<trkpt lat="49.58078384399414" lon="9.367541307583451">
<ele>406</ele>
<time>2024-05-11T15:58:14Z</time>
</trkpt>
<trkpt lat="49.58076087757945" lon="9.367527896538377">
<ele>406.2</ele>
<time>2024-05-11T15:58:15Z</time>
</trkpt>
<trkpt lat="49.580734223127365" lon="9.367511719465256">
<ele>406.6</ele>
<time>2024-05-11T15:58:16Z</time>
</trkpt>
<trkpt lat="49.58070748485625" lon="9.367494536563754">
<ele>406.8</ele>
<time>2024-05-11T15:58:17Z</time>
</trkpt>
<trkpt lat="49.5806769747287" lon="9.367481209337711">
<ele>407</ele>
<time>2024-05-11T15:58:18Z</time>
</trkpt>
<trkpt lat="49.58065032027662" lon="9.367473581805823">
<ele>407.4</ele>
<time>2024-05-11T15:58:19Z</time>
</trkpt>
<trkpt lat="49.580619810149074" lon="9.367467798292637">
<ele>407.6</ele>
<time>2024-05-11T15:58:20Z</time>
</trkpt>
<trkpt lat="49.58059307187795" lon="9.36746494844556">
<ele>407.8</ele>
<time>2024-05-11T15:58:21Z</time>
</trkpt>
<trkpt lat="49.58056633360684" lon="9.367454471066594">
<ele>408</ele>
<time>2024-05-11T15:58:22Z</time>
</trkpt>
<trkpt lat="49.580535823479295" lon="9.367441143840551">
<ele>408.2</ele>
<time>2024-05-11T15:58:23Z</time>
</trkpt>
<trkpt lat="49.58050531335175" lon="9.367426810786128">
<ele>408.2</ele>
<time>2024-05-11T15:58:24Z</time>
</trkpt>
<trkpt lat="49.58047103136778" lon="9.367411555722356">
<ele>408.4</ele>
<time>2024-05-11T15:58:25Z</time>
</trkpt>
<trkpt lat="49.580436665564775" lon="9.367396300658584">
<ele>408.4</ele>
<time>2024-05-11T15:58:26Z</time>
</trkpt>
<trkpt lat="49.58040992729366" lon="9.36738490127027">
<ele>408.6</ele>
<time>2024-05-11T15:58:27Z</time>
</trkpt>
<trkpt lat="49.58037178963423" lon="9.367376267910004">
<ele>408.6</ele>
<time>2024-05-11T15:58:28Z</time>
</trkpt>
<trkpt lat="49.58034513518214" lon="9.36736294068396">
<ele>408.6</ele>
<time>2024-05-11T15:58:29Z</time>
</trkpt>
<trkpt lat="49.5803146250546" lon="9.367353385314344">
<ele>408.6</ele>
<time>2024-05-11T15:58:30Z</time>
</trkpt>
<trkpt lat="49.580280259251595" lon="9.367341985926032">
<ele>408.6</ele>
<time>2024-05-11T15:58:31Z</time>
</trkpt>
<trkpt lat="49.58024974912405" lon="9.367333352565764">
<ele>408.6</ele>
<time>2024-05-11T15:58:32Z</time>
</trkpt>
<trkpt lat="49.580219238996506" lon="9.367318097501991">
<ele>408.6</ele>
<time>2024-05-11T15:58:33Z</time>
</trkpt>
<trkpt lat="49.5801848731935" lon="9.367299992591144">
<ele>408.4</ele>
<time>2024-05-11T15:58:34Z</time>
</trkpt>
<trkpt lat="49.58015821874142" lon="9.367281887680292">
<ele>408.4</ele>
<time>2024-05-11T15:58:35Z</time>
</trkpt>
<trkpt lat="49.580123852938414" lon="9.367261854931712">
<ele>408.2</ele>
<time>2024-05-11T15:58:36Z</time>
</trkpt>
<trkpt lat="49.58009719848633" lon="9.36724467203021">
<ele>408.2</ele>
<time>2024-05-11T15:58:37Z</time>
</trkpt>
<trkpt lat="49.58006660453975" lon="9.367231344804168">
<ele>408</ele>
<time>2024-05-11T15:58:38Z</time>
</trkpt>
<trkpt lat="49.58003995008767" lon="9.367218017578123">
<ele>407.8</ele>
<time>2024-05-11T15:58:39Z</time>
</trkpt>
<trkpt lat="49.58000558428466" lon="9.36720460653305">
<ele>407.6</ele>
<time>2024-05-11T15:58:40Z</time>
</trkpt>
<trkpt lat="49.57997507415712" lon="9.36718842945993">
<ele>407.4</ele>
<time>2024-05-11T15:58:41Z</time>
</trkpt>
<trkpt lat="49.579944564029574" lon="9.367173174396155">
<ele>407.2</ele>
<time>2024-05-11T15:58:42Z</time>
</trkpt>
<trkpt lat="49.57991019822657" lon="9.367155069485309">
<ele>407</ele>
<time>2024-05-11T15:58:43Z</time>
</trkpt>
<trkpt lat="49.5798759162426" lon="9.367136880755424">
<ele>406.8</ele>
<time>2024-05-11T15:58:44Z</time>
</trkpt>
<trkpt lat="49.5798415504396" lon="9.367116848006845">
<ele>406.6</ele>
<time>2024-05-11T15:58:45Z</time>
</trkpt>
<trkpt lat="49.579807268455625" lon="9.367093043401836">
<ele>406.6</ele>
<time>2024-05-11T15:58:46Z</time>
</trkpt>
<trkpt lat="49.579769130796194" lon="9.36707016080618">
<ele>406.4</ele>
<time>2024-05-11T15:58:47Z</time>
</trkpt>
<trkpt lat="49.57973476499319" lon="9.3670501280576">
<ele>406.2</ele>
<time>2024-05-11T15:58:48Z</time>
</trkpt>
<trkpt lat="49.57969662733376" lon="9.367032945156096">
<ele>406</ele>
<time>2024-05-11T15:58:49Z</time>
</trkpt>
<trkpt lat="49.57966226153076" lon="9.367014840245249">
<ele>405.8</ele>
<time>2024-05-11T15:58:50Z</time>
</trkpt>
<trkpt lat="49.57963175140321" lon="9.366998663172126">
<ele>405.6</ele>
<time>2024-05-11T15:58:51Z</time>
</trkpt>
<trkpt lat="49.57959746941924" lon="9.366978630423546">
<ele>405.4</ele>
<time>2024-05-11T15:58:52Z</time>
</trkpt>
<trkpt lat="49.57956310361624" lon="9.366958597674966">
<ele>405.2</ele>
<time>2024-05-11T15:58:53Z</time>
</trkpt>
<trkpt lat="49.579528737813234" lon="9.366939486935737">
<ele>405</ele>
<time>2024-05-11T15:58:54Z</time>
</trkpt>
<trkpt lat="49.57949445582926" lon="9.366918532177806">
<ele>405</ele>
<time>2024-05-11T15:58:55Z</time>
</trkpt>
<trkpt lat="49.57945631816983" lon="9.366896571591496">
<ele>404.8</ele>
<time>2024-05-11T15:58:56Z</time>
</trkpt>
<trkpt lat="49.57941432483494" lon="9.366876538842916">
<ele>404.6</ele>
<time>2024-05-11T15:58:57Z</time>
</trkpt>
<trkpt lat="49.57937618717551" lon="9.366860361769795">
<ele>404.6</ele>
<time>2024-05-11T15:58:58Z</time>
</trkpt>
<trkpt lat="49.57933804951608" lon="9.366843178868294">
<ele>404.6</ele>
<time>2024-05-11T15:58:59Z</time>
</trkpt>
<trkpt lat="49.57929991185665" lon="9.366821218281984">
<ele>404.4</ele>
<time>2024-05-11T15:59:00Z</time>
</trkpt>
<trkpt lat="49.57925791852176" lon="9.366801185533404">
<ele>404.6</ele>
<time>2024-05-11T15:59:01Z</time>
</trkpt>
<trkpt lat="49.57921592518687" lon="9.366787858307362">
<ele>404.6</ele>
<time>2024-05-11T15:59:02Z</time>
</trkpt>
<trkpt lat="49.57917778752744" lon="9.36677453108132">
<ele>404.6</ele>
<time>2024-05-11T15:59:03Z</time>
</trkpt>
<trkpt lat="49.5791472773999" lon="9.366761203855276">
<ele>404.6</ele>
<time>2024-05-11T15:59:04Z</time>
</trkpt>
<trkpt lat="49.57912062294781" lon="9.366748798638582">
<ele>404.8</ele>
<time>2024-05-11T15:59:05Z</time>
</trkpt>
<trkpt lat="49.579093884676695" lon="9.366738237440586">
<ele>404.8</ele>
<time>2024-05-11T15:59:06Z</time>
</trkpt>
<trkpt lat="49.57907100208104" lon="9.366728765890002">
<ele>404.8</ele>
<time>2024-05-11T15:59:07Z</time>
</trkpt>
<trkpt lat="49.57904811948538" lon="9.366715354844928">
<ele>405</ele>
<time>2024-05-11T15:59:08Z</time>
</trkpt>
<trkpt lat="49.57902900874615" lon="9.366702027618883">
<ele>405</ele>
<time>2024-05-11T15:59:09Z</time>
</trkpt>
<trkpt lat="49.57900998182595" lon="9.366688700392842">
<ele>405</ele>
<time>2024-05-11T15:59:10Z</time>
</trkpt>
<trkpt lat="49.57899087108672" lon="9.366680067032576">
<ele>404.8</ele>
<time>2024-05-11T15:59:11Z</time>
</trkpt>
<trkpt lat="49.57897184416652" lon="9.36667151749134">
<ele>404.8</ele>
<time>2024-05-11T15:59:12Z</time>
</trkpt>
<trkpt lat="49.578956589102745" lon="9.366658190265298">
<ele>404.6</ele>
<time>2024-05-11T15:59:13Z</time>
</trkpt>
<trkpt lat="49.5789451058954" lon="9.366642935201526">
<ele>404.4</ele>
<time>2024-05-11T15:59:14Z</time>
</trkpt>
<trkpt lat="49.57892985083163" lon="9.366629524156451">
<ele>404.2</ele>
<time>2024-05-11T15:59:15Z</time>
</trkpt>
<trkpt lat="49.578918451443315" lon="9.366618124768138">
<ele>404.2</ele>
<time>2024-05-11T15:59:16Z</time>
</trkpt>
<trkpt lat="49.57891082391143" lon="9.366608569398522">
<ele>403.8</ele>
<time>2024-05-11T15:59:17Z</time>
</trkpt>
<trkpt lat="49.57891082391143" lon="9.366606641560791">
<ele>403.6</ele>
<time>2024-05-11T15:59:18Z</time>
</trkpt>
<trkpt lat="49.57891082391143" lon="9.366604797542095">
<ele>403.4</ele>
<time>2024-05-11T15:59:20Z</time>
</trkpt>
<trkpt lat="49.57889934070408" lon="9.366586608812211">
<ele>403.2</ele>
<time>2024-05-11T15:59:25Z</time>
</trkpt>
<trkpt lat="49.57888022996485" lon="9.366568503901362">
<ele>403</ele>
<time>2024-05-11T15:59:26Z</time>
</trkpt>
<trkpt lat="49.578857347369194" lon="9.366544699296355">
<ele>402.8</ele>
<time>2024-05-11T15:59:27Z</time>
</trkpt>
<trkpt lat="49.57883069291711" lon="9.366511339321733">
<ele>402.6</ele>
<time>2024-05-11T15:59:28Z</time>
</trkpt>
<trkpt lat="49.578815437853336" lon="9.366468423977494">
<ele>402.4</ele>
<time>2024-05-11T15:59:29Z</time>
</trkpt>
<trkpt lat="49.57880781032145" lon="9.366419725120068">
<ele>402.4</ele>
<time>2024-05-11T15:59:30Z</time>
</trkpt>
<trkpt lat="49.57880781032145" lon="9.36637680977583">
<ele>402.2</ele>
<time>2024-05-11T15:59:31Z</time>
</trkpt>
<trkpt lat="49.578815437853336" lon="9.3663386721164">
<ele>402.2</ele>
<time>2024-05-11T15:59:32Z</time>
</trkpt>
<trkpt lat="49.57882683724165" lon="9.366310089826584">
<ele>402.2</ele>
<time>2024-05-11T15:59:33Z</time>
</trkpt>
<trkpt lat="49.578838320448995" lon="9.366292906925082">
<ele>402.2</ele>
<time>2024-05-11T15:59:34Z</time>
</trkpt>
<trkpt lat="49.57884594798088" lon="9.366291984915732">
<ele>402.2</ele>
<time>2024-05-11T15:59:35Z</time>
</trkpt>
<trkpt lat="49.57884971983731" lon="9.366291984915732">
<ele>402.2</ele>
<time>2024-05-11T15:59:37Z</time>
</trkpt>
<trkpt lat="49.57884594798088" lon="9.366290057078004">
<ele>402.2</ele>
<time>2024-05-11T15:59:41Z</time>
</trkpt>
<trkpt lat="49.57884971983731" lon="9.366290057078004">
<ele>402.2</ele>
<time>2024-05-11T15:59:42Z</time>
</trkpt>
<trkpt lat="49.57884971983731" lon="9.366288129240274">
<ele>402.2</ele>
<time>2024-05-11T15:59:43Z</time>
</trkpt>
<trkpt lat="49.57884971983731" lon="9.366286201402543">
<ele>402.2</ele>
<time>2024-05-11T15:59:45Z</time>
</trkpt>
<trkpt lat="49.57884971983731" lon="9.366285279393196">
<ele>402.2</ele>
<time>2024-05-11T15:59:46Z</time>
</trkpt>
<trkpt lat="49.57884971983731" lon="9.366271952167152">
<ele>402.2</ele>
<time>2024-05-11T15:59:47Z</time>
</trkpt>
<trkpt lat="49.57884971983731" lon="9.366263318806888">
<ele>402.2</ele>
<time>2024-05-11T15:59:48Z</time>
</trkpt>
<trkpt lat="49.57884971983731" lon="9.366254769265652">
<ele>402.4</ele>
<time>2024-05-11T15:59:49Z</time>
</trkpt>
<trkpt lat="49.57884971983731" lon="9.366246219724417">
<ele>402.4</ele>
<time>2024-05-11T15:59:50Z</time>
</trkpt>
<trkpt lat="49.57884971983731" lon="9.366231886669992">
<ele>402.4</ele>
<time>2024-05-11T15:59:51Z</time>
</trkpt>
<trkpt lat="49.57885357551277" lon="9.366209926083684">
<ele>402.4</ele>
<time>2024-05-11T15:59:52Z</time>
</trkpt>
<trkpt lat="49.57885357551277" lon="9.366188049316406">
<ele>402.4</ele>
<time>2024-05-11T15:59:53Z</time>
</trkpt>
<trkpt lat="49.57886497490108" lon="9.36616038903594">
<ele>402.4</ele>
<time>2024-05-11T15:59:54Z</time>
</trkpt>
<trkpt lat="49.57888022996485" lon="9.366126945242286">
<ele>402.4</ele>
<time>2024-05-11T15:59:55Z</time>
</trkpt>
<trkpt lat="49.5788917131722" lon="9.366089813411236">
<ele>402.4</ele>
<time>2024-05-11T15:59:56Z</time>
</trkpt>
<trkpt lat="49.57890319637954" lon="9.366053519770505">
<ele>402.2</ele>
<time>2024-05-11T15:59:57Z</time>
</trkpt>
<trkpt lat="49.578918451443315" lon="9.366013454273345">
<ele>402.2</ele>
<time>2024-05-11T15:59:58Z</time>
</trkpt>
<trkpt lat="49.5789260789752" lon="9.365964839234948">
<ele>402</ele>
<time>2024-05-11T15:59:59Z</time>
</trkpt>
<trkpt lat="49.57892985083163" lon="9.36590289697051">
<ele>402</ele>
<time>2024-05-11T16:00:00Z</time>
</trkpt>
<trkpt lat="49.57893370650709" lon="9.36584372073412">
<ele>402</ele>
<time>2024-05-11T16:00:01Z</time>
</trkpt>
<trkpt lat="49.57892985083163" lon="9.36578362248838">
<ele>402</ele>
<time>2024-05-11T16:00:02Z</time>
</trkpt>
<trkpt lat="49.578918451443315" lon="9.365723608061671">
<ele>402</ele>
<time>2024-05-11T16:00:03Z</time>
</trkpt>
<trkpt lat="49.57891082391143" lon="9.365658732131124">
<ele>402</ele>
<time>2024-05-11T16:00:04Z</time>
</trkpt>
<trkpt lat="49.57890319637954" lon="9.365592934191229">
<ele>402</ele>
<time>2024-05-11T16:00:05Z</time>
</trkpt>
<trkpt lat="49.5788917131722" lon="9.365523280575871">
<ele>402.2</ele>
<time>2024-05-11T16:00:06Z</time>
</trkpt>
<trkpt lat="49.57888022996485" lon="9.365453710779548">
<ele>402.2</ele>
<time>2024-05-11T16:00:07Z</time>
</trkpt>
<trkpt lat="49.57886497490108" lon="9.365374501794577">
<ele>402.4</ele>
<time>2024-05-11T16:00:08Z</time>
</trkpt>
<trkpt lat="49.57884971983731" lon="9.365295376628636">
<ele>402.6</ele>
<time>2024-05-11T16:00:09Z</time>
</trkpt>
<trkpt lat="49.578838320448995" lon="9.365216251462698">
<ele>402.8</ele>
<time>2024-05-11T16:00:10Z</time>
</trkpt>
<trkpt lat="49.57882306538522" lon="9.365141820162536">
<ele>403</ele>
<time>2024-05-11T16:00:11Z</time>
</trkpt>
<trkpt lat="49.57880781032145" lon="9.365064539015291">
<ele>403.4</ele>
<time>2024-05-11T16:00:12Z</time>
</trkpt>
<trkpt lat="49.578796327114105" lon="9.364988263696432">
<ele>403.6</ele>
<time>2024-05-11T16:00:13Z</time>
</trkpt>
<trkpt lat="49.57878107205033" lon="9.36491483822465">
<ele>403.8</ele>
<time>2024-05-11T16:00:14Z</time>
</trkpt>
<trkpt lat="49.57876967266202" lon="9.364848118275404">
<ele>404</ele>
<time>2024-05-11T16:00:15Z</time>
</trkpt>
<trkpt lat="49.578758189454675" lon="9.364787098020315">
<ele>404.2</ele>
<time>2024-05-11T16:00:16Z</time>
</trkpt>
<trkpt lat="49.57874679006636" lon="9.364723144099116">
<ele>404.6</ele>
<time>2024-05-11T16:00:17Z</time>
</trkpt>
<trkpt lat="49.578739162534475" lon="9.364666901528835">
<ele>404.8</ele>
<time>2024-05-11T16:00:18Z</time>
</trkpt>
<trkpt lat="49.5787239074707" lon="9.364608731120825">
<ele>405</ele>
<time>2024-05-11T16:00:19Z</time>
</trkpt>
<trkpt lat="49.5787085685879" lon="9.364548632875085">
<ele>405</ele>
<time>2024-05-11T16:00:20Z</time>
</trkpt>
<trkpt lat="49.578697169199586" lon="9.36448191292584">
<ele>405.2</ele>
<time>2024-05-11T16:00:21Z</time>
</trkpt>
<trkpt lat="49.578678058460355" lon="9.36441795900464">
<ele>405.2</ele>
<time>2024-05-11T16:00:22Z</time>
</trkpt>
<trkpt lat="49.578659031540155" lon="9.364351239055395">
<ele>405.2</ele>
<time>2024-05-11T16:00:23Z</time>
</trkpt>
<trkpt lat="49.5786361489445" lon="9.364290218800306">
<ele>405.2</ele>
<time>2024-05-11T16:00:24Z</time>
</trkpt>
<trkpt lat="49.57860563881695" lon="9.364232048392296">
<ele>405.2</ele>
<time>2024-05-11T16:00:25Z</time>
</trkpt>
<trkpt lat="49.578578900545835" lon="9.364172872155905">
<ele>405.2</ele>
<time>2024-05-11T16:00:26Z</time>
</trkpt>
<trkpt lat="49.57854839041829" lon="9.364116629585624">
<ele>405.4</ele>
<time>2024-05-11T16:00:27Z</time>
</trkpt>
<trkpt lat="49.57851788029075" lon="9.364060387015344">
<ele>405.4</ele>
<time>2024-05-11T16:00:28Z</time>
</trkpt>
<trkpt lat="49.57849114201963" lon="9.36400699429214">
<ele>405.6</ele>
<time>2024-05-11T16:00:29Z</time>
</trkpt>
<trkpt lat="49.578464487567544" lon="9.363953517749906">
<ele>405.6</ele>
<time>2024-05-11T16:00:30Z</time>
</trkpt>
<trkpt lat="49.578441604971886" lon="9.363902052864432">
<ele>405.8</ele>
<time>2024-05-11T16:00:31Z</time>
</trkpt>
<trkpt lat="49.57841486670077" lon="9.363851509988308">
<ele>405.8</ele>
<time>2024-05-11T16:00:32Z</time>
</trkpt>
<trkpt lat="49.57839198410511" lon="9.363811444491148">
<ele>405.8</ele>
<time>2024-05-11T16:00:33Z</time>
</trkpt>
<trkpt lat="49.57837672904134" lon="9.363778084516523">
<ele>405.8</ele>
<time>2024-05-11T16:00:34Z</time>
</trkpt>
<trkpt lat="49.57835761830211" lon="9.363744724541904">
<ele>405.6</ele>
<time>2024-05-11T16:00:35Z</time>
</trkpt>
<trkpt lat="49.578346218913794" lon="9.363717986270784">
<ele>405.6</ele>
<time>2024-05-11T16:00:36Z</time>
</trkpt>
<trkpt lat="49.57832710817456" lon="9.36369032599032">
<ele>405.4</ele>
<time>2024-05-11T16:00:37Z</time>
</trkpt>
<trkpt lat="49.57831185311079" lon="9.363661743700504">
<ele>405.4</ele>
<time>2024-05-11T16:00:38Z</time>
</trkpt>
<trkpt lat="49.57829659804702" lon="9.36363022774458">
<ele>405.4</ele>
<time>2024-05-11T16:00:39Z</time>
</trkpt>
<trkpt lat="49.57827371545136" lon="9.363594939932227">
<ele>405.2</ele>
<time>2024-05-11T16:00:40Z</time>
</trkpt>
<trkpt lat="49.57825468853116" lon="9.363558730110526">
<ele>405</ele>
<time>2024-05-11T16:00:41Z</time>
</trkpt>
<trkpt lat="49.5782318059355" lon="9.36351489275694">
<ele>405</ele>
<time>2024-05-11T16:00:42Z</time>
</trkpt>
<trkpt lat="49.57821269519627" lon="9.363468121737242">
<ele>404.8</ele>
<time>2024-05-11T16:00:43Z</time>
</trkpt>
<trkpt lat="49.578185956925154" lon="9.363418500870466">
<ele>404.6</ele>
<time>2024-05-11T16:00:44Z</time>
</trkpt>
<trkpt lat="49.57815930247307" lon="9.363365108147264">
<ele>404.4</ele>
<time>2024-05-11T16:00:45Z</time>
</trkpt>
<trkpt lat="49.57813256420195" lon="9.36331171542406">
<ele>404.2</ele>
<time>2024-05-11T16:00:46Z</time>
</trkpt>
<trkpt lat="49.57810205407441" lon="9.363256394863129">
<ele>404</ele>
<time>2024-05-11T16:00:47Z</time>
</trkpt>
<trkpt lat="49.57807539962232" lon="9.363198224455118">
<ele>403.6</ele>
<time>2024-05-11T16:00:48Z</time>
</trkpt>
<trkpt lat="49.57805628888309" lon="9.363138126209378">
<ele>403.4</ele>
<time>2024-05-11T16:00:49Z</time>
</trkpt>
<trkpt lat="49.57803340628743" lon="9.363071406260133">
<ele>403.2</ele>
<time>2024-05-11T16:00:50Z</time>
</trkpt>
<trkpt lat="49.578006668016315" lon="9.363011308014393">
<ele>403.2</ele>
<time>2024-05-11T16:00:51Z</time>
</trkpt>
<trkpt lat="49.57797238603234" lon="9.362961687147616">
<ele>403</ele>
<time>2024-05-11T16:00:52Z</time>
</trkpt>
<trkpt lat="49.57793424837291" lon="9.36291784979403">
<ele>402.8</ele>
<time>2024-05-11T16:00:53Z</time>
</trkpt>
<trkpt lat="49.57789611071348" lon="9.36287879012525">
<ele>402.8</ele>
<time>2024-05-11T16:00:54Z</time>
</trkpt>
<trkpt lat="49.57785788923502" lon="9.362828247249126">
<ele>402.8</ele>
<time>2024-05-11T16:00:55Z</time>
</trkpt>
<trkpt lat="49.57782360725105" lon="9.362770076841116">
<ele>403</ele>
<time>2024-05-11T16:00:56Z</time>
</trkpt>
<trkpt lat="49.577793097123504" lon="9.362712828442454">
<ele>403.2</ele>
<time>2024-05-11T16:00:57Z</time>
</trkpt>
<trkpt lat="49.5777587313205" lon="9.362658429890873">
<ele>403.4</ele>
<time>2024-05-11T16:00:58Z</time>
</trkpt>
<trkpt lat="49.57772444933653" lon="9.362609814852476">
<ele>403.8</ele>
<time>2024-05-11T16:00:59Z</time>
</trkpt>
<trkpt lat="49.577693939208984" lon="9.362554494291544">
<ele>404</ele>
<time>2024-05-11T16:01:00Z</time>
</trkpt>
<trkpt lat="49.57766334526241" lon="9.362500179558992">
<ele>404.2</ele>
<time>2024-05-11T16:01:01Z</time>
</trkpt>
<trkpt lat="49.577632835134864" lon="9.36244485899806">
<ele>404.6</ele>
<time>2024-05-11T16:01:02Z</time>
</trkpt>
<trkpt lat="49.57760232500732" lon="9.362396160140634">
<ele>404.8</ele>
<time>2024-05-11T16:01:03Z</time>
</trkpt>
<trkpt lat="49.577571814879775" lon="9.36234662309289">
<ele>405</ele>
<time>2024-05-11T16:01:04Z</time>
</trkpt>
<trkpt lat="49.57754516042769" lon="9.362293230369689">
<ele>405</ele>
<time>2024-05-11T16:01:05Z</time>
</trkpt>
<trkpt lat="49.57751456648111" lon="9.362239837646484">
<ele>405.2</ele>
<time>2024-05-11T16:01:06Z</time>
</trkpt>
<trkpt lat="49.57748405635357" lon="9.362184517085552">
<ele>405.2</ele>
<time>2024-05-11T16:01:07Z</time>
</trkpt>
<trkpt lat="49.5774497743696" lon="9.362132046371698">
<ele>405.2</ele>
<time>2024-05-11T16:01:08Z</time>
</trkpt>
<trkpt lat="49.57741926424205" lon="9.362078653648496">
<ele>405.2</ele>
<time>2024-05-11T16:01:09Z</time>
</trkpt>
<trkpt lat="49.57738489843905" lon="9.362019477412105">
<ele>405.2</ele>
<time>2024-05-11T16:01:10Z</time>
</trkpt>
<trkpt lat="49.57735824398696" lon="9.361961307004094">
<ele>405</ele>
<time>2024-05-11T16:01:11Z</time>
</trkpt>
<trkpt lat="49.57732765004039" lon="9.361905064433811">
<ele>405</ele>
<time>2024-05-11T16:01:12Z</time>
</trkpt>
<trkpt lat="49.57729713991285" lon="9.361846894025804">
<ele>405</ele>
<time>2024-05-11T16:01:13Z</time>
</trkpt>
<trkpt lat="49.5772666297853" lon="9.36178964562714">
<ele>404.8</ele>
<time>2024-05-11T16:01:14Z</time>
</trkpt>
<trkpt lat="49.577239975333214" lon="9.36173533089459">
<ele>404.8</ele>
<time>2024-05-11T16:01:15Z</time>
</trkpt>
<trkpt lat="49.5772132370621" lon="9.361680010333655">
<ele>404.8</ele>
<time>2024-05-11T16:01:16Z</time>
</trkpt>
<trkpt lat="49.57718658261001" lon="9.361628461629152">
<ele>404.8</ele>
<time>2024-05-11T16:01:17Z</time>
</trkpt>
<trkpt lat="49.577159844338894" lon="9.36157506890595">
<ele>404.6</ele>
<time>2024-05-11T16:01:18Z</time>
</trkpt>
<trkpt lat="49.57713310606778" lon="9.361528381705284">
<ele>404.8</ele>
<time>2024-05-11T16:01:19Z</time>
</trkpt>
<trkpt lat="49.57710259594023" lon="9.361479682847856">
<ele>404.8</ele>
<time>2024-05-11T16:01:20Z</time>
</trkpt>
<trkpt lat="49.57707208581269" lon="9.361426290124657">
<ele>404.8</ele>
<time>2024-05-11T16:01:21Z</time>
</trkpt>
<trkpt lat="49.5770454313606" lon="9.361372897401452">
<ele>405</ele>
<time>2024-05-11T16:01:22Z</time>
</trkpt>
<trkpt lat="49.57701492123306" lon="9.36131950467825">
<ele>405</ele>
<time>2024-05-11T16:01:23Z</time>
</trkpt>
<trkpt lat="49.57699195481837" lon="9.361265106126666">
<ele>405</ele>
<time>2024-05-11T16:01:24Z</time>
</trkpt>
<trkpt lat="49.57696530036628" lon="9.361206935718656">
<ele>405.2</ele>
<time>2024-05-11T16:01:25Z</time>
</trkpt>
<trkpt lat="49.576938562095165" lon="9.361149771139026">
<ele>405.2</ele>
<time>2024-05-11T16:01:26Z</time>
</trkpt>
<trkpt lat="49.57691190764308" lon="9.361096378415825">
<ele>405.4</ele>
<time>2024-05-11T16:01:27Z</time>
</trkpt>
<trkpt lat="49.57688516937196" lon="9.361042901873589">
<ele>405.4</ele>
<time>2024-05-11T16:01:28Z</time>
</trkpt>
<trkpt lat="49.57685851491988" lon="9.360993364825845">
<ele>405.6</ele>
<time>2024-05-11T16:01:29Z</time>
</trkpt>
<trkpt lat="49.5768279209733" lon="9.36094374395907">
<ele>405.8</ele>
<time>2024-05-11T16:01:30Z</time>
</trkpt>
<trkpt lat="49.57679741084576" lon="9.360891273245215">
<ele>406</ele>
<time>2024-05-11T16:01:31Z</time>
</trkpt>
<trkpt lat="49.5767745282501" lon="9.360839808359742">
<ele>406</ele>
<time>2024-05-11T16:01:32Z</time>
</trkpt>
<trkpt lat="49.57674787379801" lon="9.36078356578946">
<ele>406.2</ele>
<time>2024-05-11T16:01:33Z</time>
</trkpt>
<trkpt lat="49.576721135526896" lon="9.360732017084956">
<ele>406.2</ele>
<time>2024-05-11T16:01:34Z</time>
</trkpt>
<trkpt lat="49.57669448107481" lon="9.360676696524024">
<ele>406.2</ele>
<time>2024-05-11T16:01:35Z</time>
</trkpt>
<trkpt lat="49.57666774280369" lon="9.360621375963092">
<ele>406.4</ele>
<time>2024-05-11T16:01:36Z</time>
</trkpt>
<trkpt lat="49.576641004532576" lon="9.36056798323989">
<ele>406.4</ele>
<time>2024-05-11T16:01:37Z</time>
</trkpt>
<trkpt lat="49.57661049440503" lon="9.360513668507338">
<ele>406.4</ele>
<time>2024-05-11T16:01:38Z</time>
</trkpt>
<trkpt lat="49.57657998427749" lon="9.360458347946404">
<ele>406.4</ele>
<time>2024-05-11T16:01:39Z</time>
</trkpt>
<trkpt lat="49.57654947414994" lon="9.360403027385471">
<ele>406.4</ele>
<time>2024-05-11T16:01:40Z</time>
</trkpt>
<trkpt lat="49.57651519216597" lon="9.36034963466227">
<ele>406.4</ele>
<time>2024-05-11T16:01:41Z</time>
</trkpt>
<trkpt lat="49.576484598219395" lon="9.360295236110687">
<ele>406.4</ele>
<time>2024-05-11T16:01:42Z</time>
</trkpt>
<trkpt lat="49.57645031623542" lon="9.360239915549757">
<ele>406.4</ele>
<time>2024-05-11T16:01:43Z</time>
</trkpt>
<trkpt lat="49.576423577964306" lon="9.360179901123049">
<ele>406.2</ele>
<time>2024-05-11T16:01:44Z</time>
</trkpt>
<trkpt lat="49.57639692351222" lon="9.360121646896005">
<ele>406.2</ele>
<time>2024-05-11T16:01:45Z</time>
</trkpt>
<trkpt lat="49.5763701852411" lon="9.360063476487994">
<ele>406.4</ele>
<time>2024-05-11T16:01:46Z</time>
</trkpt>
<trkpt lat="49.57633967511356" lon="9.36001293361187">
<ele>406.4</ele>
<time>2024-05-11T16:01:47Z</time>
</trkpt>
<trkpt lat="49.576309164986014" lon="9.35995476320386">
<ele>406.4</ele>
<time>2024-05-11T16:01:48Z</time>
</trkpt>
<trkpt lat="49.57627479918301" lon="9.359896592795849">
<ele>406.6</ele>
<time>2024-05-11T16:01:49Z</time>
</trkpt>
<trkpt lat="49.57624051719904" lon="9.35983364470303">
<ele>406.6</ele>
<time>2024-05-11T16:01:50Z</time>
</trkpt>
<trkpt lat="49.57619852386415" lon="9.359767846763134">
<ele>406.6</ele>
<time>2024-05-11T16:01:51Z</time>
</trkpt>
<trkpt lat="49.57616038620472" lon="9.359702048823236">
<ele>406.6</ele>
<time>2024-05-11T16:01:52Z</time>
</trkpt>
<trkpt lat="49.57611839286983" lon="9.3596401065588">
<ele>406.6</ele>
<time>2024-05-11T16:01:53Z</time>
</trkpt>
<trkpt lat="49.5760802552104" lon="9.359573302790524">
<ele>406.6</ele>
<time>2024-05-11T16:01:54Z</time>
</trkpt>
<trkpt lat="49.57604597322643" lon="9.359504655003548">
<ele>406.6</ele>
<time>2024-05-11T16:01:55Z</time>
</trkpt>
<trkpt lat="49.576011607423425" lon="9.359435001388192">
<ele>406.6</ele>
<time>2024-05-11T16:01:56Z</time>
</trkpt>
<trkpt lat="49.57597732543945" lon="9.359371131286023">
<ele>406.6</ele>
<time>2024-05-11T16:01:57Z</time>
</trkpt>
<trkpt lat="49.57594295963645" lon="9.359312038868666">
<ele>406.8</ele>
<time>2024-05-11T16:01:58Z</time>
</trkpt>
<trkpt lat="49.57591622136533" lon="9.359251940622926">
<ele>406.8</ele>
<time>2024-05-11T16:01:59Z</time>
</trkpt>
<trkpt lat="49.57588956691325" lon="9.35918807052076">
<ele>407</ele>
<time>2024-05-11T16:02:00Z</time>
</trkpt>
<trkpt lat="49.5758590567857" lon="9.359126966446638">
<ele>407</ele>
<time>2024-05-11T16:02:01Z</time>
</trkpt>
<trkpt lat="49.57582854665816" lon="9.35906787402928">
<ele>407.2</ele>
<time>2024-05-11T16:02:02Z</time>
</trkpt>
<trkpt lat="49.57579795271158" lon="9.35900492593646">
<ele>407.4</ele>
<time>2024-05-11T16:02:03Z</time>
</trkpt>
<trkpt lat="49.5757712982595" lon="9.358940050005913">
<ele>407.4</ele>
<time>2024-05-11T16:02:04Z</time>
</trkpt>
<trkpt lat="49.57574078813195" lon="9.358875257894397">
<ele>407.6</ele>
<time>2024-05-11T16:02:05Z</time>
</trkpt>
<trkpt lat="49.57571027800441" lon="9.358813231810927">
<ele>407.8</ele>
<time>2024-05-11T16:02:06Z</time>
</trkpt>
<trkpt lat="49.57568353973329" lon="9.35875128954649">
<ele>408</ele>
<time>2024-05-11T16:02:07Z</time>
</trkpt>
<trkpt lat="49.575656885281205" lon="9.35869311913848">
<ele>408.2</ele>
<time>2024-05-11T16:02:08Z</time>
</trkpt>
<trkpt lat="49.57563014701009" lon="9.358636792749166">
<ele>408.4</ele>
<time>2024-05-11T16:02:09Z</time>
</trkpt>
<trkpt lat="49.57560340873897" lon="9.358581472188234">
<ele>408.6</ele>
<time>2024-05-11T16:02:10Z</time>
</trkpt>
<trkpt lat="49.575576754286885" lon="9.358528079465032">
<ele>408.8</ele>
<time>2024-05-11T16:02:11Z</time>
</trkpt>
<trkpt lat="49.57555387169123" lon="9.358485164120792">
<ele>409</ele>
<time>2024-05-11T16:02:12Z</time>
</trkpt>
<trkpt lat="49.575538616627455" lon="9.358445098623632">
<ele>409.2</ele>
<time>2024-05-11T16:02:13Z</time>
</trkpt>
<trkpt lat="49.57552336156368" lon="9.35841366648674">
<ele>409.4</ele>
<time>2024-05-11T16:02:14Z</time>
</trkpt>
<trkpt lat="49.57550425082445" lon="9.358378378674388">
<ele>409.6</ele>
<time>2024-05-11T16:02:15Z</time>
</trkpt>
<trkpt lat="49.57548522390425" lon="9.358343090862036">
<ele>409.8</ele>
<time>2024-05-11T16:02:16Z</time>
</trkpt>
<trkpt lat="49.575458485633135" lon="9.358306881040336">
<ele>410</ele>
<time>2024-05-11T16:02:17Z</time>
</trkpt>
<trkpt lat="49.57543174736202" lon="9.358264887705444">
<ele>410</ele>
<time>2024-05-11T16:02:18Z</time>
</trkpt>
<trkpt lat="49.57540509290993" lon="9.358218116685748">
<ele>410.2</ele>
<time>2024-05-11T16:02:19Z</time>
</trkpt>
<trkpt lat="49.575382210314274" lon="9.358168579638004">
<ele>410.2</ele>
<time>2024-05-11T16:02:20Z</time>
</trkpt>
<trkpt lat="49.57536309957504" lon="9.358115186914802">
<ele>410.4</ele>
<time>2024-05-11T16:02:21Z</time>
</trkpt>
<trkpt lat="49.57533644512296" lon="9.35805986635387">
<ele>410.4</ele>
<time>2024-05-11T16:02:22Z</time>
</trkpt>
<trkpt lat="49.5753135625273" lon="9.358004545792936">
<ele>410.4</ele>
<time>2024-05-11T16:02:23Z</time>
</trkpt>
<trkpt lat="49.57529067993164" lon="9.357954924926162">
<ele>410.2</ele>
<time>2024-05-11T16:02:24Z</time>
</trkpt>
<trkpt lat="49.57526394166052" lon="9.357905387878418">
<ele>410.2</ele>
<time>2024-05-11T16:02:25Z</time>
</trkpt>
<trkpt lat="49.575237203389406" lon="9.357854761183262">
<ele>410.2</ele>
<time>2024-05-11T16:02:26Z</time>
</trkpt>
<trkpt lat="49.57521054893732" lon="9.357803296297789">
<ele>410.2</ele>
<time>2024-05-11T16:02:27Z</time>
</trkpt>
<trkpt lat="49.5751838106662" lon="9.357754681259394">
<ele>410.4</ele>
<time>2024-05-11T16:02:28Z</time>
</trkpt>
<trkpt lat="49.57515715621412" lon="9.357706988230348">
<ele>410.4</ele>
<time>2024-05-11T16:02:29Z</time>
</trkpt>
<trkpt lat="49.57513427361846" lon="9.357656445354223">
<ele>410.6</ele>
<time>2024-05-11T16:02:30Z</time>
</trkpt>
<trkpt lat="49.57510753534734" lon="9.357606824487448">
<ele>411</ele>
<time>2024-05-11T16:02:31Z</time>
</trkpt>
<trkpt lat="49.57508465275168" lon="9.357558209449053">
<ele>411.2</ele>
<time>2024-05-11T16:02:32Z</time>
</trkpt>
<trkpt lat="49.57505791448057" lon="9.357509594410658">
<ele>411.4</ele>
<time>2024-05-11T16:02:33Z</time>
</trkpt>
<trkpt lat="49.57503126002848" lon="9.357461901381612">
<ele>411.6</ele>
<time>2024-05-11T16:02:34Z</time>
</trkpt>
<trkpt lat="49.57500452175736" lon="9.357415130361916">
<ele>411.6</ele>
<time>2024-05-11T16:02:35Z</time>
</trkpt>
<trkpt lat="49.57497786730528" lon="9.35736651532352">
<ele>411.8</ele>
<time>2024-05-11T16:02:36Z</time>
</trkpt>
<trkpt lat="49.57495112903416" lon="9.357316894456744">
<ele>411.8</ele>
<time>2024-05-11T16:02:37Z</time>
</trkpt>
<trkpt lat="49.57492439076304" lon="9.35726827941835">
<ele>412</ele>
<time>2024-05-11T16:02:38Z</time>
</trkpt>
<trkpt lat="49.5748938806355" lon="9.357219664379954">
<ele>412.4</ele>
<time>2024-05-11T16:02:39Z</time>
</trkpt>
<trkpt lat="49.574863370507956" lon="9.357174821197988">
<ele>412.6</ele>
<time>2024-05-11T16:02:40Z</time>
</trkpt>
<trkpt lat="49.574829088523984" lon="9.35712997801602">
<ele>412.8</ele>
<time>2024-05-11T16:02:41Z</time>
</trkpt>
<trkpt lat="49.57479472272098" lon="9.357083290815352">
<ele>413</ele>
<time>2024-05-11T16:02:42Z</time>
</trkpt>
<trkpt lat="49.57476035691798" lon="9.357040375471115">
<ele>413.2</ele>
<time>2024-05-11T16:02:43Z</time>
</trkpt>
<trkpt lat="49.574726074934006" lon="9.357000309973955">
<ele>413.4</ele>
<time>2024-05-11T16:02:44Z</time>
</trkpt>
<trkpt lat="49.574687937274575" lon="9.356958316639066">
<ele>413.6</ele>
<time>2024-05-11T16:02:45Z</time>
</trkpt>
<trkpt lat="49.574649799615145" lon="9.356918334960938">
<ele>413.8</ele>
<time>2024-05-11T16:02:46Z</time>
</trkpt>
<trkpt lat="49.574611661955714" lon="9.356880113482475">
<ele>414</ele>
<time>2024-05-11T16:02:47Z</time>
</trkpt>
<trkpt lat="49.57457344047725" lon="9.356840131804349">
<ele>414.2</ele>
<time>2024-05-11T16:02:48Z</time>
</trkpt>
<trkpt lat="49.574531530961394" lon="9.356802916154264">
<ele>414.2</ele>
<time>2024-05-11T16:02:49Z</time>
</trkpt>
<trkpt lat="49.57449339330197" lon="9.356762850657104">
<ele>414.6</ele>
<time>2024-05-11T16:02:50Z</time>
</trkpt>
<trkpt lat="49.57445525564253" lon="9.356724712997677">
<ele>414.6</ele>
<time>2024-05-11T16:02:51Z</time>
</trkpt>
<trkpt lat="49.57441703416407" lon="9.356690347194672">
<ele>414.8</ele>
<time>2024-05-11T16:02:52Z</time>
</trkpt>
<trkpt lat="49.5743827521801" lon="9.35665313154459">
<ele>415.2</ele>
<time>2024-05-11T16:02:53Z</time>
</trkpt>
<trkpt lat="49.574348386377096" lon="9.35661792755127">
<ele>415.4</ele>
<time>2024-05-11T16:02:54Z</time>
</trkpt>
<trkpt lat="49.57430647686124" lon="9.356581633910537">
<ele>415.6</ele>
<time>2024-05-11T16:02:55Z</time>
</trkpt>
<trkpt lat="49.57426833920181" lon="9.356543496251106">
<ele>415.8</ele>
<time>2024-05-11T16:02:56Z</time>
</trkpt>
<trkpt lat="49.574230117723346" lon="9.356508208438754">
<ele>415.8</ele>
<time>2024-05-11T16:02:57Z</time>
</trkpt>
<trkpt lat="49.574191980063915" lon="9.356472920626402">
<ele>416</ele>
<time>2024-05-11T16:02:58Z</time>
</trkpt>
<trkpt lat="49.574153842404485" lon="9.356434782966971">
<ele>416.2</ele>
<time>2024-05-11T16:02:59Z</time>
</trkpt>
<trkpt lat="49.57411956042051" lon="9.35639857314527">
<ele>416.2</ele>
<time>2024-05-11T16:03:00Z</time>
</trkpt>
<trkpt lat="49.57408133894205" lon="9.356365129351616">
<ele>416.4</ele>
<time>2024-05-11T16:03:01Z</time>
</trkpt>
<trkpt lat="49.57404705695808" lon="9.356334619224072">
<ele>416.4</ele>
<time>2024-05-11T16:03:02Z</time>
</trkpt>
<trkpt lat="49.574016546830535" lon="9.356306958943604">
<ele>416.4</ele>
<time>2024-05-11T16:03:03Z</time>
</trkpt>
<trkpt lat="49.573978409171104" lon="9.356274604797363">
<ele>416.4</ele>
<time>2024-05-11T16:03:04Z</time>
</trkpt>
<trkpt lat="49.57394789904356" lon="9.356243088841438">
<ele>416.4</ele>
<time>2024-05-11T16:03:05Z</time>
</trkpt>
<trkpt lat="49.57391353324056" lon="9.356209728866816">
<ele>416.4</ele>
<time>2024-05-11T16:03:06Z</time>
</trkpt>
<trkpt lat="49.57388302311301" lon="9.356176368892193">
<ele>416.4</ele>
<time>2024-05-11T16:03:07Z</time>
</trkpt>
<trkpt lat="49.57384865731001" lon="9.356142925098538">
<ele>416.4</ele>
<time>2024-05-11T16:03:08Z</time>
</trkpt>
<trkpt lat="49.573818147182465" lon="9.356113420799376">
<ele>416.4</ele>
<time>2024-05-11T16:03:09Z</time>
</trkpt>
<trkpt lat="49.57378763705492" lon="9.35608190484345">
<ele>416.4</ele>
<time>2024-05-11T16:03:10Z</time>
</trkpt>
<trkpt lat="49.57375335507095" lon="9.356050472706556">
<ele>416.4</ele>
<time>2024-05-11T16:03:11Z</time>
</trkpt>
<trkpt lat="49.57372276112437" lon="9.35602180659771">
<ele>416.4</ele>
<time>2024-05-11T16:03:12Z</time>
</trkpt>
<trkpt lat="49.5736884791404" lon="9.355990374460816">
<ele>416.4</ele>
<time>2024-05-11T16:03:13Z</time>
</trkpt>
<trkpt lat="49.57365034148097" lon="9.355957936495544">
<ele>416.4</ele>
<time>2024-05-11T16:03:14Z</time>
</trkpt>
<trkpt lat="49.57361597567797" lon="9.35592650435865">
<ele>416.4</ele>
<time>2024-05-11T16:03:15Z</time>
</trkpt>
<trkpt lat="49.573581693693995" lon="9.355896916240454">
<ele>416.4</ele>
<time>2024-05-11T16:03:16Z</time>
</trkpt>
<trkpt lat="49.57354732789099" lon="9.35586833395064">
<ele>416.4</ele>
<time>2024-05-11T16:03:17Z</time>
</trkpt>
<trkpt lat="49.57351681776345" lon="9.355839667841792">
<ele>416.4</ele>
<time>2024-05-11T16:03:18Z</time>
</trkpt>
<trkpt lat="49.573482451960444" lon="9.35580630786717">
<ele>416.4</ele>
<time>2024-05-11T16:03:19Z</time>
</trkpt>
<trkpt lat="49.57344816997647" lon="9.355772947892548">
<ele>416.4</ele>
<time>2024-05-11T16:03:20Z</time>
</trkpt>
<trkpt lat="49.57341003231704" lon="9.355741431936622">
<ele>416.2</ele>
<time>2024-05-11T16:03:21Z</time>
</trkpt>
<trkpt lat="49.57337566651404" lon="9.355708071962">
<ele>416.2</ele>
<time>2024-05-11T16:03:22Z</time>
</trkpt>
<trkpt lat="49.57334130071104" lon="9.355673789978027">
<ele>416.2</ele>
<time>2024-05-11T16:03:23Z</time>
</trkpt>
<trkpt lat="49.573307018727064" lon="9.355641352012752">
<ele>416.2</ele>
<time>2024-05-11T16:03:24Z</time>
</trkpt>
<trkpt lat="49.57327265292406" lon="9.35560698620975">
<ele>416.4</ele>
<time>2024-05-11T16:03:25Z</time>
</trkpt>
<trkpt lat="49.57323837094009" lon="9.355571698397398">
<ele>416.4</ele>
<time>2024-05-11T16:03:26Z</time>
</trkpt>
<trkpt lat="49.57321163266897" lon="9.355534482747316">
<ele>416.4</ele>
<time>2024-05-11T16:03:27Z</time>
</trkpt>
<trkpt lat="49.57317726686597" lon="9.355496345087886">
<ele>416.6</ele>
<time>2024-05-11T16:03:28Z</time>
</trkpt>
<trkpt lat="49.573142984882" lon="9.355460135266185">
<ele>416.6</ele>
<time>2024-05-11T16:03:29Z</time>
</trkpt>
<trkpt lat="49.573108619078994" lon="9.355422919616103">
<ele>416.8</ele>
<time>2024-05-11T16:03:30Z</time>
</trkpt>
<trkpt lat="49.57307048141956" lon="9.35538955964148">
<ele>416.8</ele>
<time>2024-05-11T16:03:31Z</time>
</trkpt>
<trkpt lat="49.57303611561656" lon="9.355361899361014">
<ele>417</ele>
<time>2024-05-11T16:03:32Z</time>
</trkpt>
<trkpt lat="49.57300183363259" lon="9.35533138923347">
<ele>417</ele>
<time>2024-05-11T16:03:33Z</time>
</trkpt>
<trkpt lat="49.57296369597316" lon="9.355304650962353">
<ele>416.8</ele>
<time>2024-05-11T16:03:34Z</time>
</trkpt>
<trkpt lat="49.572929330170155" lon="9.355275146663187">
<ele>417</ele>
<time>2024-05-11T16:03:35Z</time>
</trkpt>
<trkpt lat="49.57289504818618" lon="9.355239858850837">
<ele>417</ele>
<time>2024-05-11T16:03:36Z</time>
</trkpt>
<trkpt lat="49.57286068238318" lon="9.355201721191406">
<ele>417</ele>
<time>2024-05-11T16:03:37Z</time>
</trkpt>
<trkpt lat="49.572826316580176" lon="9.355163499712944">
<ele>417</ele>
<time>2024-05-11T16:03:38Z</time>
</trkpt>
<trkpt lat="49.572788178920746" lon="9.355126367881894">
<ele>417.2</ele>
<time>2024-05-11T16:03:39Z</time>
</trkpt>
<trkpt lat="49.572753896936774" lon="9.355088230222464">
<ele>417.2</ele>
<time>2024-05-11T16:03:40Z</time>
</trkpt>
<trkpt lat="49.57271953113377" lon="9.355048164725304">
<ele>417.2</ele>
<time>2024-05-11T16:03:41Z</time>
</trkpt>
<trkpt lat="49.57268139347434" lon="9.35501187108457">
<ele>417.2</ele>
<time>2024-05-11T16:03:42Z</time>
</trkpt>
<trkpt lat="49.57264325581491" lon="9.35497658327222">
<ele>417.2</ele>
<time>2024-05-11T16:03:43Z</time>
</trkpt>
<trkpt lat="49.57260511815548" lon="9.354945151135324">
<ele>417</ele>
<time>2024-05-11T16:03:44Z</time>
</trkpt>
<trkpt lat="49.57256698049605" lon="9.3549136351794">
<ele>417</ele>
<time>2024-05-11T16:03:45Z</time>
</trkpt>
<trkpt lat="49.57252875901759" lon="9.354883125051856">
<ele>417</ele>
<time>2024-05-11T16:03:46Z</time>
</trkpt>
<trkpt lat="49.57249062135816" lon="9.354853620752692">
<ele>417</ele>
<time>2024-05-11T16:03:47Z</time>
</trkpt>
<trkpt lat="49.572456339374185" lon="9.354821182787418">
<ele>417</ele>
<time>2024-05-11T16:03:48Z</time>
</trkpt>
<trkpt lat="49.572418201714754" lon="9.354791594669225">
<ele>417</ele>
<time>2024-05-11T16:03:49Z</time>
</trkpt>
<trkpt lat="49.57238006405533" lon="9.3547582346946">
<ele>416.8</ele>
<time>2024-05-11T16:03:50Z</time>
</trkpt>
<trkpt lat="49.57234947010875" lon="9.354722946882248">
<ele>416.8</ele>
<time>2024-05-11T16:03:51Z</time>
</trkpt>
<trkpt lat="49.572315188124776" lon="9.354684809222816">
<ele>416.6</ele>
<time>2024-05-11T16:03:52Z</time>
</trkpt>
<trkpt lat="49.572277050465345" lon="9.354646671563389">
<ele>416.6</ele>
<time>2024-05-11T16:03:53Z</time>
</trkpt>
<trkpt lat="49.572238912805915" lon="9.354610377922654">
<ele>416.4</ele>
<time>2024-05-11T16:03:54Z</time>
</trkpt>
<trkpt lat="49.572196919471025" lon="9.354571318253877">
<ele>416.2</ele>
<time>2024-05-11T16:03:55Z</time>
</trkpt>
<trkpt lat="49.572154926136136" lon="9.354531252756717">
<ele>416.2</ele>
<time>2024-05-11T16:03:56Z</time>
</trkpt>
<trkpt lat="49.57211301662028" lon="9.354491187259557">
<ele>416</ele>
<time>2024-05-11T16:03:57Z</time>
</trkpt>
<trkpt lat="49.57207102328539" lon="9.354448271915317">
<ele>416</ele>
<time>2024-05-11T16:03:58Z</time>
</trkpt>
<trkpt lat="49.57202525809407" lon="9.354406278580427">
<ele>416</ele>
<time>2024-05-11T16:03:59Z</time>
</trkpt>
<trkpt lat="49.57197949290275" lon="9.354365291073918">
<ele>416</ele>
<time>2024-05-11T16:04:00Z</time>
</trkpt>
<trkpt lat="49.57193372771144" lon="9.35432338155806">
<ele>416</ele>
<time>2024-05-11T16:04:01Z</time>
</trkpt>
<trkpt lat="49.57188796252012" lon="9.354276610538363">
<ele>416</ele>
<time>2024-05-11T16:04:02Z</time>
</trkpt>
<trkpt lat="49.571842113509774" lon="9.354231767356396">
<ele>415.8</ele>
<time>2024-05-11T16:04:03Z</time>
</trkpt>
<trkpt lat="49.57179634831846" lon="9.354187930002809">
<ele>415.8</ele>
<time>2024-05-11T16:04:04Z</time>
</trkpt>
<trkpt lat="49.571746811270714" lon="9.354141158983111">
<ele>415.8</ele>
<time>2024-05-11T16:04:05Z</time>
</trkpt>
<trkpt lat="49.5717010460794" lon="9.354095393791797">
<ele>415.6</ele>
<time>2024-05-11T16:04:06Z</time>
</trkpt>
<trkpt lat="49.57165142521262" lon="9.35404870659113">
<ele>415.6</ele>
<time>2024-05-11T16:04:07Z</time>
</trkpt>
<trkpt lat="49.571605660021305" lon="9.354002941399813">
<ele>415.6</ele>
<time>2024-05-11T16:04:08Z</time>
</trkpt>
<trkpt lat="49.57155603915453" lon="9.353956170380116">
<ele>415.4</ele>
<time>2024-05-11T16:04:09Z</time>
</trkpt>
<trkpt lat="49.571506418287754" lon="9.35390847735107">
<ele>415.4</ele>
<time>2024-05-11T16:04:10Z</time>
</trkpt>
<trkpt lat="49.57145688124001" lon="9.353859862312676">
<ele>415.4</ele>
<time>2024-05-11T16:04:11Z</time>
</trkpt>
<trkpt lat="49.57140348851681" lon="9.353815019130709">
<ele>415.4</ele>
<time>2024-05-11T16:04:12Z</time>
</trkpt>
<trkpt lat="49.57135386765003" lon="9.35376833193004">
<ele>415.4</ele>
<time>2024-05-11T16:04:13Z</time>
</trkpt>
<trkpt lat="49.57130424678326" lon="9.353723488748074">
<ele>415.4</ele>
<time>2024-05-11T16:04:14Z</time>
</trkpt>
<trkpt lat="49.57125470973551" lon="9.35367487370968">
<ele>415.4</ele>
<time>2024-05-11T16:04:15Z</time>
</trkpt>
<trkpt lat="49.57120508886874" lon="9.353625252842903">
<ele>415.4</ele>
<time>2024-05-11T16:04:16Z</time>
</trkpt>
<trkpt lat="49.57115546800196" lon="9.35357470996678">
<ele>415.4</ele>
<time>2024-05-11T16:04:17Z</time>
</trkpt>
<trkpt lat="49.571109702810645" lon="9.353525089100003">
<ele>415.4</ele>
<time>2024-05-11T16:04:18Z</time>
</trkpt>
<trkpt lat="49.57106393761933" lon="9.35347454622388">
<ele>415.4</ele>
<time>2024-05-11T16:04:19Z</time>
</trkpt>
<trkpt lat="49.57102202810347" lon="9.353427859023212">
<ele>415.4</ele>
<time>2024-05-11T16:04:20Z</time>
</trkpt>
<trkpt lat="49.570972407236695" lon="9.353382093831897">
<ele>415.2</ele>
<time>2024-05-11T16:04:21Z</time>
</trkpt>
<trkpt lat="49.57092664204538" lon="9.35333339497447">
<ele>415</ele>
<time>2024-05-11T16:04:22Z</time>
</trkpt>
<trkpt lat="49.570873249322176" lon="9.353284779936075">
<ele>415</ele>
<time>2024-05-11T16:04:23Z</time>
</trkpt>
<trkpt lat="49.5708236284554" lon="9.353235242888331">
<ele>414.8</ele>
<time>2024-05-11T16:04:24Z</time>
</trkpt>
<trkpt lat="49.570774007588625" lon="9.353188471868634">
<ele>414.6</ele>
<time>2024-05-11T16:04:25Z</time>
</trkpt>
<trkpt lat="49.57072447054088" lon="9.353141784667969">
<ele>414.4</ele>
<time>2024-05-11T16:04:26Z</time>
</trkpt>
<trkpt lat="49.570674849674106" lon="9.353095013648272">
<ele>414.2</ele>
<time>2024-05-11T16:04:27Z</time>
</trkpt>
<trkpt lat="49.57062908448279" lon="9.353048242628574">
<ele>414</ele>
<time>2024-05-11T16:04:28Z</time>
</trkpt>
<trkpt lat="49.57058331929147" lon="9.35299962759018">
<ele>414</ele>
<time>2024-05-11T16:04:29Z</time>
</trkpt>
<trkpt lat="49.57054132595658" lon="9.352951934561132">
<ele>413.8</ele>
<time>2024-05-11T16:04:30Z</time>
</trkpt>
<trkpt lat="49.57050318829715" lon="9.352910025045276">
<ele>413.6</ele>
<time>2024-05-11T16:04:31Z</time>
</trkpt>
<trkpt lat="49.57046119496226" lon="9.352867109701036">
<ele>413.4</ele>
<time>2024-05-11T16:04:32Z</time>
</trkpt>
<trkpt lat="49.57042305730283" lon="9.35282318852842">
<ele>413.2</ele>
<time>2024-05-11T16:04:33Z</time>
</trkpt>
<trkpt lat="49.5703849196434" lon="9.35278127901256">
<ele>413.2</ele>
<time>2024-05-11T16:04:34Z</time>
</trkpt>
<trkpt lat="49.57035440951586" lon="9.35274314135313">
<ele>412.8</ele>
<time>2024-05-11T16:04:35Z</time>
</trkpt>
<trkpt lat="49.570320127531886" lon="9.352706847712398">
<ele>412.4</ele>
<time>2024-05-11T16:04:36Z</time>
</trkpt>
<trkpt lat="49.57028953358531" lon="9.35266301035881">
<ele>412.2</ele>
<time>2024-05-11T16:04:37Z</time>
</trkpt>
<trkpt lat="49.570259023457766" lon="9.352618167176844">
<ele>412</ele>
<time>2024-05-11T16:04:38Z</time>
</trkpt>
<trkpt lat="49.57022851333022" lon="9.352573323994877">
<ele>411.8</ele>
<time>2024-05-11T16:04:39Z</time>
</trkpt>
<trkpt lat="49.570201858878136" lon="9.352529486641288">
<ele>411.4</ele>
<time>2024-05-11T16:04:40Z</time>
</trkpt>
<trkpt lat="49.57017512060702" lon="9.352490343153477">
<ele>411.2</ele>
<time>2024-05-11T16:04:41Z</time>
</trkpt>
<trkpt lat="49.57015223801136" lon="9.352451283484696">
<ele>411.2</ele>
<time>2024-05-11T16:04:42Z</time>
</trkpt>
<trkpt lat="49.57012549974024" lon="9.352419851347804">
<ele>411</ele>
<time>2024-05-11T16:04:43Z</time>
</trkpt>
<trkpt lat="49.5700949896127" lon="9.352391185238956">
<ele>410.8</ele>
<time>2024-05-11T16:04:44Z</time>
</trkpt>
<trkpt lat="49.57005685195327" lon="9.352375008165836">
<ele>410.6</ele>
<time>2024-05-11T16:04:45Z</time>
</trkpt>
<trkpt lat="49.57001871429384" lon="9.3523683026433">
<ele>410.4</ele>
<time>2024-05-11T16:04:46Z</time>
</trkpt>
<trkpt lat="49.56998057663441" lon="9.35236637480557">
<ele>410.2</ele>
<time>2024-05-11T16:04:47Z</time>
</trkpt>
<trkpt lat="49.56994243897498" lon="9.352363524958491">
<ele>410</ele>
<time>2024-05-11T16:04:48Z</time>
</trkpt>
<trkpt lat="49.569904301315546" lon="9.352356903254986">
<ele>409.8</ele>
<time>2024-05-11T16:04:49Z</time>
</trkpt>
<trkpt lat="49.569866163656116" lon="9.352341648191214">
<ele>409.8</ele>
<time>2024-05-11T16:04:50Z</time>
</trkpt>
<trkpt lat="49.56983179785311" lon="9.352318681776524">
<ele>409.8</ele>
<time>2024-05-11T16:04:51Z</time>
</trkpt>
<trkpt lat="49.56979366019368" lon="9.35228817164898">
<ele>409.6</ele>
<time>2024-05-11T16:04:52Z</time>
</trkpt>
<trkpt lat="49.56975929439068" lon="9.352256739512086">
<ele>409.6</ele>
<time>2024-05-11T16:04:53Z</time>
</trkpt>
<trkpt lat="49.56972501240671" lon="9.352223379537463">
<ele>409.4</ele>
<time>2024-05-11T16:04:54Z</time>
</trkpt>
<trkpt lat="49.56969827413559" lon="9.352188091725113">
<ele>409.4</ele>
<time>2024-05-11T16:04:55Z</time>
</trkpt>
<trkpt lat="49.569667764008045" lon="9.352156575769186">
<ele>409.2</ele>
<time>2024-05-11T16:04:56Z</time>
</trkpt>
<trkpt lat="49.569633482024074" lon="9.352127071470022">
<ele>409.2</ele>
<time>2024-05-11T16:04:57Z</time>
</trkpt>
<trkpt lat="49.56960674375296" lon="9.352098405361176">
<ele>409.4</ele>
<time>2024-05-11T16:04:58Z</time>
</trkpt>
<trkpt lat="49.56957237794995" lon="9.35206982307136">
<ele>409.4</ele>
<time>2024-05-11T16:04:59Z</time>
</trkpt>
<trkpt lat="49.569530468434095" lon="9.35203361324966">
<ele>409.4</ele>
<time>2024-05-11T16:05:00Z</time>
</trkpt>
<trkpt lat="49.56949995830655" lon="9.352003019303083">
<ele>409.4</ele>
<time>2024-05-11T16:05:01Z</time>
</trkpt>
<trkpt lat="49.56945796497166" lon="9.351968737319112">
<ele>409.4</ele>
<time>2024-05-11T16:05:02Z</time>
</trkpt>
<trkpt lat="49.569412199780345" lon="9.351928671821952">
<ele>409.4</ele>
<time>2024-05-11T16:05:03Z</time>
</trkpt>
<trkpt lat="49.569370206445456" lon="9.351886678487062">
<ele>409.4</ele>
<time>2024-05-11T16:05:04Z</time>
</trkpt>
<trkpt lat="49.56932066939771" lon="9.351838063448668">
<ele>409.4</ele>
<time>2024-05-11T16:05:05Z</time>
</trkpt>
<trkpt lat="49.56926719285548" lon="9.35179514810443">
<ele>409.4</ele>
<time>2024-05-11T16:05:06Z</time>
</trkpt>
<trkpt lat="49.569213800132275" lon="9.351744605228305">
<ele>409.2</ele>
<time>2024-05-11T16:05:07Z</time>
</trkpt>
<trkpt lat="49.56916040740907" lon="9.351690290495752">
<ele>409</ele>
<time>2024-05-11T16:05:08Z</time>
</trkpt>
<trkpt lat="49.56910701468587" lon="9.351644441485403">
<ele>409</ele>
<time>2024-05-11T16:05:09Z</time>
</trkpt>
<trkpt lat="49.56905362196267" lon="9.35159683227539">
<ele>409</ele>
<time>2024-05-11T16:05:10Z</time>
</trkpt>
<trkpt lat="49.569000229239464" lon="9.351550061255692">
<ele>409</ele>
<time>2024-05-11T16:05:11Z</time>
</trkpt>
<trkpt lat="49.56894683651626" lon="9.35149666853249">
<ele>408.8</ele>
<time>2024-05-11T16:05:12Z</time>
</trkpt>
<trkpt lat="49.56889335997403" lon="9.351443275809288">
<ele>408.8</ele>
<time>2024-05-11T16:05:13Z</time>
</trkpt>
<trkpt lat="49.56882471218705" lon="9.35138032771647">
<ele>408.6</ele>
<time>2024-05-11T16:05:14Z</time>
</trkpt>
<trkpt lat="49.56876754760742" lon="9.35132022947073">
<ele>408.6</ele>
<time>2024-05-11T16:05:15Z</time>
</trkpt>
<trkpt lat="49.56871407106519" lon="9.351269686594604">
<ele>408.4</ele>
<time>2024-05-11T16:05:16Z</time>
</trkpt>
<trkpt lat="49.56866453401744" lon="9.351224843412638">
<ele>408.2</ele>
<time>2024-05-11T16:05:17Z</time>
</trkpt>
<trkpt lat="49.56861114129424" lon="9.351169522851706">
<ele>408.2</ele>
<time>2024-05-11T16:05:18Z</time>
</trkpt>
<trkpt lat="49.568561520427465" lon="9.351119985803962">
<ele>408</ele>
<time>2024-05-11T16:05:19Z</time>
</trkpt>
<trkpt lat="49.56851189956069" lon="9.351071286946537">
<ele>407.6</ele>
<time>2024-05-11T16:05:20Z</time>
</trkpt>
<trkpt lat="49.56845850683749" lon="9.351023593917487">
<ele>407.4</ele>
<time>2024-05-11T16:05:21Z</time>
</trkpt>
<trkpt lat="49.568405114114285" lon="9.350976906716824">
<ele>407.2</ele>
<time>2024-05-11T16:05:22Z</time>
</trkpt>
<trkpt lat="49.56835549324751" lon="9.350933069363236">
<ele>406.8</ele>
<time>2024-05-11T16:05:23Z</time>
</trkpt>
<trkpt lat="49.568305956199765" lon="9.350888226181269">
<ele>406.4</ele>
<time>2024-05-11T16:05:24Z</time>
</trkpt>
<trkpt lat="49.56825633533299" lon="9.350839611142874">
<ele>406.2</ele>
<time>2024-05-11T16:05:25Z</time>
</trkpt>
<trkpt lat="49.568206714466214" lon="9.350789990276098">
<ele>405.8</ele>
<time>2024-05-11T16:05:26Z</time>
</trkpt>
<trkpt lat="49.568149549886584" lon="9.350734669715166">
<ele>405.4</ele>
<time>2024-05-11T16:05:27Z</time>
</trkpt>
<trkpt lat="49.568088529631495" lon="9.35068504884839">
<ele>405</ele>
<time>2024-05-11T16:05:28Z</time>
</trkpt>
<trkpt lat="49.568031281232834" lon="9.35062687844038">
<ele>404.8</ele>
<time>2024-05-11T16:05:29Z</time>
</trkpt>
<trkpt lat="49.56797788850963" lon="9.350571557879448">
<ele>404.4</ele>
<time>2024-05-11T16:05:30Z</time>
</trkpt>
<trkpt lat="49.56792064011097" lon="9.350520092993976">
<ele>404.2</ele>
<time>2024-05-11T16:05:31Z</time>
</trkpt>
<trkpt lat="49.56786724738777" lon="9.3504686281085">
<ele>404</ele>
<time>2024-05-11T16:05:32Z</time>
</trkpt>
<trkpt lat="49.56781385466456" lon="9.350424706935884">
<ele>403.8</ele>
<time>2024-05-11T16:05:33Z</time>
</trkpt>
<trkpt lat="49.56776423379779" lon="9.350381791591644">
<ele>403.8</ele>
<time>2024-05-11T16:05:34Z</time>
</trkpt>
<trkpt lat="49.56771461293101" lon="9.350337954238055">
<ele>403.6</ele>
<time>2024-05-11T16:05:35Z</time>
</trkpt>
<trkpt lat="49.56766507588327" lon="9.35029118321836">
<ele>403.6</ele>
<time>2024-05-11T16:05:36Z</time>
</trkpt>
<trkpt lat="49.567615455016494" lon="9.350246423855424">
<ele>403.4</ele>
<time>2024-05-11T16:05:37Z</time>
</trkpt>
<trkpt lat="49.56756591796875" lon="9.350198730826378">
<ele>403.2</ele>
<time>2024-05-11T16:05:38Z</time>
</trkpt>
<trkpt lat="49.5675200689584" lon="9.350148187950252">
<ele>403</ele>
<time>2024-05-11T16:05:39Z</time>
</trkpt>
<trkpt lat="49.567478159442544" lon="9.35009286738932">
<ele>403</ele>
<time>2024-05-11T16:05:40Z</time>
</trkpt>
<trkpt lat="49.56742853857577" lon="9.350049952045085">
<ele>402.8</ele>
<time>2024-05-11T16:05:41Z</time>
</trkpt>
<trkpt lat="49.56737891770899" lon="9.350007958710194">
<ele>402.6</ele>
<time>2024-05-11T16:05:42Z</time>
</trkpt>
<trkpt lat="49.56733315251768" lon="9.349963115528226">
<ele>402.4</ele>
<time>2024-05-11T16:05:43Z</time>
</trkpt>
<trkpt lat="49.56728361546993" lon="9.34991835616529">
<ele>402.4</ele>
<time>2024-05-11T16:05:44Z</time>
</trkpt>
<trkpt lat="49.56723022274673" lon="9.349875440821052">
<ele>402.2</ele>
<time>2024-05-11T16:05:45Z</time>
</trkpt>
<trkpt lat="49.567180601879954" lon="9.349831519648433">
<ele>402</ele>
<time>2024-05-11T16:05:46Z</time>
</trkpt>
<trkpt lat="49.56713098101318" lon="9.349788604304194">
<ele>401.6</ele>
<time>2024-05-11T16:05:47Z</time>
</trkpt>
<trkpt lat="49.567081443965435" lon="9.349742839112878">
<ele>401.4</ele>
<time>2024-05-11T16:05:48Z</time>
</trkpt>
<trkpt lat="49.5670279674232" lon="9.34969992376864">
<ele>401.2</ele>
<time>2024-05-11T16:05:49Z</time>
</trkpt>
<trkpt lat="49.5669745747" lon="9.349650302901864">
<ele>400.8</ele>
<time>2024-05-11T16:05:50Z</time>
</trkpt>
<trkpt lat="49.56691741012037" lon="9.349597916007042">
<ele>400.6</ele>
<time>2024-05-11T16:05:51Z</time>
</trkpt>
<trkpt lat="49.566860161721706" lon="9.349548295140266">
<ele>400.4</ele>
<time>2024-05-11T16:05:52Z</time>
</trkpt>
<trkpt lat="49.56681054085493" lon="9.349496830254791">
<ele>400.4</ele>
<time>2024-05-11T16:05:53Z</time>
</trkpt>
<trkpt lat="49.56675714813173" lon="9.349446287378669">
<ele>400.2</ele>
<time>2024-05-11T16:05:54Z</time>
</trkpt>
<trkpt lat="49.566703755408525" lon="9.349394738674164">
<ele>400.2</ele>
<time>2024-05-11T16:05:55Z</time>
</trkpt>
<trkpt lat="49.56665413454175" lon="9.34934327378869">
<ele>400</ele>
<time>2024-05-11T16:05:56Z</time>
</trkpt>
<trkpt lat="49.56659696996212" lon="9.349291725084186">
<ele>400</ele>
<time>2024-05-11T16:05:57Z</time>
</trkpt>
<trkpt lat="49.56654357723892" lon="9.349236488342283">
<ele>399.8</ele>
<time>2024-05-11T16:05:58Z</time>
</trkpt>
<trkpt lat="49.56649010069668" lon="9.349180161952972">
<ele>399.6</ele>
<time>2024-05-11T16:05:59Z</time>
</trkpt>
<trkpt lat="49.56643670797348" lon="9.34912676922977">
<ele>399.6</ele>
<time>2024-05-11T16:06:00Z</time>
</trkpt>
<trkpt lat="49.56637954339385" lon="9.349076226353644">
<ele>399.4</ele>
<time>2024-05-11T16:06:01Z</time>
</trkpt>
<trkpt lat="49.566326066851616" lon="9.349023755639791">
<ele>399.2</ele>
<time>2024-05-11T16:06:02Z</time>
</trkpt>
<trkpt lat="49.56627267412841" lon="9.348971284925938">
<ele>398.8</ele>
<time>2024-05-11T16:06:03Z</time>
</trkpt>
<trkpt lat="49.56621550954878" lon="9.34891127049923">
<ele>398.6</ele>
<time>2024-05-11T16:06:04Z</time>
</trkpt>
<trkpt lat="49.56615826115012" lon="9.348856871947646">
<ele>398.2</ele>
<time>2024-05-11T16:06:05Z</time>
</trkpt>
<trkpt lat="49.56610486842692" lon="9.348808256909251">
<ele>398</ele>
<time>2024-05-11T16:06:06Z</time>
</trkpt>
<trkpt lat="49.56603999249637" lon="9.348754864186049">
<ele>397.8</ele>
<time>2024-05-11T16:06:07Z</time>
</trkpt>
<trkpt lat="49.56597897224128" lon="9.348698537796736">
<ele>397.4</ele>
<time>2024-05-11T16:06:08Z</time>
</trkpt>
<trkpt lat="49.565917951986194" lon="9.348647072911264">
<ele>397.2</ele>
<time>2024-05-11T16:06:09Z</time>
</trkpt>
<trkpt lat="49.565856931731105" lon="9.34859368018806">
<ele>397</ele>
<time>2024-05-11T16:06:10Z</time>
</trkpt>
<trkpt lat="49.56579968333244" lon="9.348546909168364">
<ele>396.6</ele>
<time>2024-05-11T16:06:11Z</time>
</trkpt>
<trkpt lat="49.56575391814113" lon="9.348503071814775">
<ele>396.4</ele>
<time>2024-05-11T16:06:12Z</time>
</trkpt>
<trkpt lat="49.56570815294981" lon="9.348460156470535">
<ele>396</ele>
<time>2024-05-11T16:06:13Z</time>
</trkpt>
<trkpt lat="49.56566993147135" lon="9.348428724333644">
<ele>395.8</ele>
<time>2024-05-11T16:06:14Z</time>
</trkpt>
<trkpt lat="49.5656394213438" lon="9.348398130387068">
<ele>395.4</ele>
<time>2024-05-11T16:06:15Z</time>
</trkpt>
<trkpt lat="49.56558988429606" lon="9.348341887816789">
<ele>395.2</ele>
<time>2024-05-11T16:06:16Z</time>
</trkpt>
<trkpt lat="49.56554411910474" lon="9.34827701188624">
<ele>394.8</ele>
<time>2024-05-11T16:06:17Z</time>
</trkpt>
<trkpt lat="49.56547161564231" lon="9.348211213946342">
<ele>394.6</ele>
<time>2024-05-11T16:06:18Z</time>
</trkpt>
<trkpt lat="49.56540673971176" lon="9.348151199519634">
<ele>394.4</ele>
<time>2024-05-11T16:06:19Z</time>
</trkpt>
<trkpt lat="49.565341947600245" lon="9.348090095445514">
<ele>394.4</ele>
<time>2024-05-11T16:06:20Z</time>
</trkpt>
<trkpt lat="49.5652770716697" lon="9.348028153181076">
<ele>394.2</ele>
<time>2024-05-11T16:06:21Z</time>
</trkpt>
<trkpt lat="49.56521605141461" lon="9.347967132925987">
<ele>394.2</ele>
<time>2024-05-11T16:06:22Z</time>
</trkpt>
<trkpt lat="49.56515494734049" lon="9.347905106842518">
<ele>394</ele>
<time>2024-05-11T16:06:23Z</time>
</trkpt>
<trkpt lat="49.56509778276086" lon="9.347845008596778">
<ele>393.8</ele>
<time>2024-05-11T16:06:24Z</time>
</trkpt>
<trkpt lat="49.565044390037656" lon="9.34778206050396">
<ele>393.6</ele>
<time>2024-05-11T16:06:25Z</time>
</trkpt>
<trkpt lat="49.56499862484634" lon="9.347718190401793">
<ele>393.2</ele>
<time>2024-05-11T16:06:26Z</time>
</trkpt>
<trkpt lat="49.56495663151145" lon="9.347656248137357">
<ele>393</ele>
<time>2024-05-11T16:06:27Z</time>
</trkpt>
<trkpt lat="49.56491463817656" lon="9.347590366378428">
<ele>392.6</ele>
<time>2024-05-11T16:06:28Z</time>
</trkpt>
<trkpt lat="49.56487650051713" lon="9.347519874572754">
<ele>392.4</ele>
<time>2024-05-11T16:06:29Z</time>
</trkpt>
<trkpt lat="49.5648383628577" lon="9.347453070804477">
<ele>392</ele>
<time>2024-05-11T16:06:30Z</time>
</trkpt>
<trkpt lat="49.56479636952281" lon="9.347390122711658">
<ele>392</ele>
<time>2024-05-11T16:06:31Z</time>
</trkpt>
<trkpt lat="49.56476208753884" lon="9.34732818044722">
<ele>391.8</ele>
<time>2024-05-11T16:06:32Z</time>
</trkpt>
<trkpt lat="49.564727721735835" lon="9.347265232354404">
<ele>391.8</ele>
<time>2024-05-11T16:06:33Z</time>
</trkpt>
<trkpt lat="49.56469343975186" lon="9.347203206270931">
<ele>391.6</ele>
<time>2024-05-11T16:06:34Z</time>
</trkpt>
<trkpt lat="49.564666701480746" lon="9.347145035862924">
<ele>391.4</ele>
<time>2024-05-11T16:06:35Z</time>
</trkpt>
<trkpt lat="49.56463233567774" lon="9.34708778746426">
<ele>391.2</ele>
<time>2024-05-11T16:06:36Z</time>
</trkpt>
<trkpt lat="49.56460568122566" lon="9.34703347273171">
<ele>391.2</ele>
<time>2024-05-11T16:06:37Z</time>
</trkpt>
<trkpt lat="49.56457894295454" lon="9.346981924027205">
<ele>391</ele>
<time>2024-05-11T16:06:38Z</time>
</trkpt>
<trkpt lat="49.56454843282699" lon="9.34693330898881">
<ele>390.8</ele>
<time>2024-05-11T16:06:39Z</time>
</trkpt>
<trkpt lat="49.56451792269945" lon="9.346883771941066">
<ele>390.6</ele>
<time>2024-05-11T16:06:40Z</time>
</trkpt>
<trkpt lat="49.56447978504002" lon="9.346831301227212">
<ele>390.4</ele>
<time>2024-05-11T16:06:41Z</time>
</trkpt>
<trkpt lat="49.56444541923702" lon="9.346779752522709">
<ele>390.4</ele>
<time>2024-05-11T16:06:42Z</time>
</trkpt>
<trkpt lat="49.56440350972116" lon="9.346730215474963">
<ele>390.2</ele>
<time>2024-05-11T16:06:43Z</time>
</trkpt>
<trkpt lat="49.56435011699796" lon="9.346692077815533">
<ele>390</ele>
<time>2024-05-11T16:06:44Z</time>
</trkpt>
<trkpt lat="49.56429664045572" lon="9.34665963985026">
<ele>390</ele>
<time>2024-05-11T16:06:45Z</time>
</trkpt>
<trkpt lat="49.56424324773252" lon="9.346634829416873">
<ele>390</ele>
<time>2024-05-11T16:06:46Z</time>
</trkpt>
<trkpt lat="49.56418985500932" lon="9.3466195743531">
<ele>390</ele>
<time>2024-05-11T16:06:47Z</time>
</trkpt>
<trkpt lat="49.56412883475423" lon="9.34661672450602">
<ele>390.2</ele>
<time>2024-05-11T16:06:48Z</time>
</trkpt>
<trkpt lat="49.56407158635557" lon="9.346612868830562">
<ele>390</ele>
<time>2024-05-11T16:06:49Z</time>
</trkpt>
<trkpt lat="49.56401056610048" lon="9.346612868830562">
<ele>390</ele>
<time>2024-05-11T16:06:50Z</time>
</trkpt>
<trkpt lat="49.56395331770182" lon="9.346612868830562">
<ele>390</ele>
<time>2024-05-11T16:06:51Z</time>
</trkpt>
<trkpt lat="49.56389615312219" lon="9.346605241298676">
<ele>390.2</ele>
<time>2024-05-11T16:06:52Z</time>
</trkpt>
<trkpt lat="49.563838904723525" lon="9.346601469442248">
<ele>390.8</ele>
<time>2024-05-11T16:06:53Z</time>
</trkpt>
<trkpt lat="49.56378165632486" lon="9.34659861959517">
<ele>391</ele>
<time>2024-05-11T16:06:54Z</time>
</trkpt>
<trkpt lat="49.56372449174523" lon="9.34659861959517">
<ele>391.2</ele>
<time>2024-05-11T16:06:55Z</time>
</trkpt>
<trkpt lat="49.56366724334657" lon="9.346610018983483">
<ele>391.4</ele>
<time>2024-05-11T16:06:56Z</time>
</trkpt>
<trkpt lat="49.56360999494791" lon="9.34661865234375">
<ele>391.6</ele>
<time>2024-05-11T16:06:57Z</time>
</trkpt>
<trkpt lat="49.56354897469282" lon="9.346614796668293">
<ele>391.8</ele>
<time>2024-05-11T16:06:58Z</time>
</trkpt>
<trkpt lat="49.56349181011319" lon="9.346612868830562">
<ele>391.8</ele>
<time>2024-05-11T16:06:59Z</time>
</trkpt>
<trkpt lat="49.56343833357096" lon="9.346614796668293">
<ele>391.8</ele>
<time>2024-05-11T16:07:00Z</time>
</trkpt>
<trkpt lat="49.56338116899133" lon="9.3466195743531">
<ele>391.8</ele>
<time>2024-05-11T16:07:01Z</time>
</trkpt>
<trkpt lat="49.56332014873624" lon="9.346628123894334">
<ele>391.8</ele>
<time>2024-05-11T16:07:02Z</time>
</trkpt>
<trkpt lat="49.56326290033758" lon="9.346634829416873">
<ele>392</ele>
<time>2024-05-11T16:07:03Z</time>
</trkpt>
<trkpt lat="49.563205651938915" lon="9.346645306795835">
<ele>392</ele>
<time>2024-05-11T16:07:04Z</time>
</trkpt>
<trkpt lat="49.563148487359285" lon="9.346654862165453">
<ele>392</ele>
<time>2024-05-11T16:07:05Z</time>
</trkpt>
<trkpt lat="49.56309501081705" lon="9.346666261553764">
<ele>391.8</ele>
<time>2024-05-11T16:07:06Z</time>
</trkpt>
<trkpt lat="49.56304161809385" lon="9.346678666770458">
<ele>391.6</ele>
<time>2024-05-11T16:07:07Z</time>
</trkpt>
<trkpt lat="49.56298445351422" lon="9.346688222140074">
<ele>391.4</ele>
<time>2024-05-11T16:07:08Z</time>
</trkpt>
<trkpt lat="49.5629233494401" lon="9.34669970534742">
<ele>391.4</ele>
<time>2024-05-11T16:07:09Z</time>
</trkpt>
<trkpt lat="49.562869956716895" lon="9.346710182726383">
<ele>391.2</ele>
<time>2024-05-11T16:07:10Z</time>
</trkpt>
<trkpt lat="49.562812792137265" lon="9.346721582114697">
<ele>391.2</ele>
<time>2024-05-11T16:07:11Z</time>
</trkpt>
<trkpt lat="49.56276317127049" lon="9.346734993159773">
<ele>391</ele>
<time>2024-05-11T16:07:12Z</time>
</trkpt>
<trkpt lat="49.562713550403714" lon="9.346746392548084">
<ele>391</ele>
<time>2024-05-11T16:07:13Z</time>
</trkpt>
<trkpt lat="49.56266015768051" lon="9.346761647611856">
<ele>391</ele>
<time>2024-05-11T16:07:14Z</time>
</trkpt>
<trkpt lat="49.562614392489195" lon="9.34677790850401">
<ele>391</ele>
<time>2024-05-11T16:07:15Z</time>
</trkpt>
<trkpt lat="49.56256862729788" lon="9.346790313720703">
<ele>391</ele>
<time>2024-05-11T16:07:16Z</time>
</trkpt>
<trkpt lat="49.5625190064311" lon="9.34679794125259">
<ele>390.8</ele>
<time>2024-05-11T16:07:17Z</time>
</trkpt>
<trkpt lat="49.562473241239786" lon="9.346810262650251">
<ele>390.8</ele>
<time>2024-05-11T16:07:18Z</time>
</trkpt>
<trkpt lat="49.56241984851658" lon="9.346826523542404">
<ele>391</ele>
<time>2024-05-11T16:07:19Z</time>
</trkpt>
<trkpt lat="49.56236645579338" lon="9.346837922930716">
<ele>391</ele>
<time>2024-05-11T16:07:20Z</time>
</trkpt>
<trkpt lat="49.562320690602064" lon="9.346848484128714">
<ele>391.2</ele>
<time>2024-05-11T16:07:21Z</time>
</trkpt>
<trkpt lat="49.56227492541075" lon="9.346857955679296">
<ele>391.2</ele>
<time>2024-05-11T16:07:22Z</time>
</trkpt>
<trkpt lat="49.56223293207586" lon="9.346866589039564">
<ele>391.4</ele>
<time>2024-05-11T16:07:23Z</time>
</trkpt>
<trkpt lat="49.56219093874097" lon="9.346879916265609">
<ele>391.8</ele>
<time>2024-05-11T16:07:24Z</time>
</trkpt>
<trkpt lat="49.56215280108154" lon="9.346888465806842">
<ele>392</ele>
<time>2024-05-11T16:07:25Z</time>
</trkpt>
<trkpt lat="49.56211466342211" lon="9.34689517132938">
<ele>392.4</ele>
<time>2024-05-11T16:07:26Z</time>
</trkpt>
<trkpt lat="49.56208415329456" lon="9.346904726698996">
<ele>392.6</ele>
<time>2024-05-11T16:07:27Z</time>
</trkpt>
<trkpt lat="49.56205364316702" lon="9.34691520407796">
<ele>392.8</ele>
<time>2024-05-11T16:07:28Z</time>
</trkpt>
<trkpt lat="49.5620269048959" lon="9.346922831609843">
<ele>393</ele>
<time>2024-05-11T16:07:29Z</time>
</trkpt>
<trkpt lat="49.56200402230024" lon="9.346926687285304">
<ele>393.2</ele>
<time>2024-05-11T16:07:30Z</time>
</trkpt>
<trkpt lat="49.56199262291193" lon="9.34693523682654">
<ele>393.4</ele>
<time>2024-05-11T16:07:31Z</time>
</trkpt>
<trkpt lat="49.56199262291193" lon="9.346936158835888">
<ele>393.4</ele>
<time>2024-05-11T16:07:34Z</time>
</trkpt>
<trkpt lat="49.56198876723647" lon="9.346938086673616">
<ele>393.6</ele>
<time>2024-05-11T16:07:35Z</time>
</trkpt>
<trkpt lat="49.56198876723647" lon="9.346940014511349">
<ele>393.6</ele>
<time>2024-05-11T16:07:38Z</time>
</trkpt>
<trkpt lat="49.56199262291193" lon="9.346940014511349">
<ele>393.8</ele>
<time>2024-05-11T16:07:40Z</time>
</trkpt>
<trkpt lat="49.56199262291193" lon="9.346938086673616">
<ele>393.8</ele>
<time>2024-05-11T16:07:41Z</time>
</trkpt>
<trkpt lat="49.56198876723647" lon="9.346938086673616">
<ele>393.8</ele>
<time>2024-05-11T16:07:43Z</time>
</trkpt>
<trkpt lat="49.56198876723647" lon="9.346940014511349">
<ele>393.8</ele>
<time>2024-05-11T16:07:47Z</time>
</trkpt>
<trkpt lat="49.56198876723647" lon="9.346941942349076">
<ele>394</ele>
<time>2024-05-11T16:07:50Z</time>
</trkpt>
<trkpt lat="49.56198876723647" lon="9.346942864358423">
<ele>394</ele>
<time>2024-05-11T16:07:55Z</time>
</trkpt>
<trkpt lat="49.56198876723647" lon="9.346944792196156">
<ele>394</ele>
<time>2024-05-11T16:07:59Z</time>
</trkpt>
<trkpt lat="49.56198876723647" lon="9.346941942349076">
<ele>393.8</ele>
<time>2024-05-11T16:08:01Z</time>
</trkpt>
<trkpt lat="49.56198876723647" lon="9.346940014511349">
<ele>393.8</ele>
<time>2024-05-11T16:08:02Z</time>
</trkpt>
<trkpt lat="49.56198499538005" lon="9.346936158835888">
<ele>393.8</ele>
<time>2024-05-11T16:08:03Z</time>
</trkpt>
<trkpt lat="49.56198499538005" lon="9.34693330898881">
<ele>393.8</ele>
<time>2024-05-11T16:08:04Z</time>
</trkpt>
<trkpt lat="49.561981139704585" lon="9.34693138115108">
<ele>393.6</ele>
<time>2024-05-11T16:08:05Z</time>
</trkpt>
<trkpt lat="49.561981139704585" lon="9.346928531304002">
<ele>393.6</ele>
<time>2024-05-11T16:08:06Z</time>
</trkpt>
<trkpt lat="49.56197736784816" lon="9.346919981762769">
<ele>393.8</ele>
<time>2024-05-11T16:08:07Z</time>
</trkpt>
<trkpt lat="49.56196974031627" lon="9.346910426393151">
<ele>393.8</ele>
<time>2024-05-11T16:08:08Z</time>
</trkpt>
<trkpt lat="49.561962112784386" lon="9.346899949014189">
<ele>393.6</ele>
<time>2024-05-11T16:08:09Z</time>
</trkpt>
<trkpt lat="49.5619544852525" lon="9.346888465806842">
<ele>393.6</ele>
<time>2024-05-11T16:08:10Z</time>
</trkpt>
<trkpt lat="49.56193923018873" lon="9.3468751385808">
<ele>393.4</ele>
<time>2024-05-11T16:08:11Z</time>
</trkpt>
<trkpt lat="49.56191249191761" lon="9.346857955679296">
<ele>393.4</ele>
<time>2024-05-11T16:08:12Z</time>
</trkpt>
<trkpt lat="49.561881981790066" lon="9.346837922930716">
<ele>393.4</ele>
<time>2024-05-11T16:08:13Z</time>
</trkpt>
<trkpt lat="49.56184761598706" lon="9.346817890182136">
<ele>393.4</ele>
<time>2024-05-11T16:08:14Z</time>
</trkpt>
<trkpt lat="49.561805706471205" lon="9.34679794125259">
<ele>393.4</ele>
<time>2024-05-11T16:08:15Z</time>
</trkpt>
<trkpt lat="49.56175994127989" lon="9.346781680360436">
<ele>393.4</ele>
<time>2024-05-11T16:08:16Z</time>
</trkpt>
<trkpt lat="49.561706464737654" lon="9.346761647611856">
<ele>393.4</ele>
<time>2024-05-11T16:08:17Z</time>
</trkpt>
<trkpt lat="49.56164167262614" lon="9.346733065322042">
<ele>393.4</ele>
<time>2024-05-11T16:08:18Z</time>
</trkpt>
<trkpt lat="49.56157679669559" lon="9.34669970534742">
<ele>393.4</ele>
<time>2024-05-11T16:08:19Z</time>
</trkpt>
<trkpt lat="49.5615157764405" lon="9.346666261553764">
<ele>393.2</ele>
<time>2024-05-11T16:08:20Z</time>
</trkpt>
<trkpt lat="49.561447128653526" lon="9.346638601273298">
<ele>393.2</ele>
<time>2024-05-11T16:08:21Z</time>
</trkpt>
<trkpt lat="49.56137839704752" lon="9.346608091145754">
<ele>393.2</ele>
<time>2024-05-11T16:08:22Z</time>
</trkpt>
<trkpt lat="49.561309749260545" lon="9.34657665900886">
<ele>393.2</ele>
<time>2024-05-11T16:08:23Z</time>
</trkpt>
<trkpt lat="49.56123732961714" lon="9.346545143052936">
<ele>393.2</ele>
<time>2024-05-11T16:08:24Z</time>
</trkpt>
<trkpt lat="49.56116482615471" lon="9.34651848860085">
<ele>393.2</ele>
<time>2024-05-11T16:08:25Z</time>
</trkpt>
<trkpt lat="49.56109995022416" lon="9.346489906311035">
<ele>393.2</ele>
<time>2024-05-11T16:08:26Z</time>
</trkpt>
<trkpt lat="49.56103892996907" lon="9.346463168039918">
<ele>393.2</ele>
<time>2024-05-11T16:08:27Z</time>
</trkpt>
<trkpt lat="49.56097790971398" lon="9.34644028544426">
<ele>393.2</ele>
<time>2024-05-11T16:08:28Z</time>
</trkpt>
<trkpt lat="49.56092066131532" lon="9.34641832485795">
<ele>393.2</ele>
<time>2024-05-11T16:08:29Z</time>
</trkpt>
<trkpt lat="49.56086341291666" lon="9.346394520252945">
<ele>393.2</ele>
<time>2024-05-11T16:08:30Z</time>
</trkpt>
<trkpt lat="49.56081002019346" lon="9.346369709819555">
<ele>393.2</ele>
<time>2024-05-11T16:08:31Z</time>
</trkpt>
<trkpt lat="49.560756627470255" lon="9.346344899386168">
<ele>393.4</ele>
<time>2024-05-11T16:08:32Z</time>
</trkpt>
<trkpt lat="49.56070323474705" lon="9.34632008895278">
<ele>393.4</ele>
<time>2024-05-11T16:08:33Z</time>
</trkpt>
<trkpt lat="49.56064984202385" lon="9.346296284347773">
<ele>393.4</ele>
<time>2024-05-11T16:08:34Z</time>
</trkpt>
<trkpt lat="49.56059259362519" lon="9.346276251599193">
<ele>393.6</ele>
<time>2024-05-11T16:08:35Z</time>
</trkpt>
<trkpt lat="49.56053542904556" lon="9.346256218850613">
<ele>393.6</ele>
<time>2024-05-11T16:08:36Z</time>
</trkpt>
<trkpt lat="49.560478180646896" lon="9.346235264092684">
<ele>393.8</ele>
<time>2024-05-11T16:08:37Z</time>
</trkpt>
<trkpt lat="49.560424787923694" lon="9.346211375668643">
<ele>394</ele>
<time>2024-05-11T16:08:38Z</time>
</trkpt>
<trkpt lat="49.56037139520049" lon="9.346188493072988">
<ele>394</ele>
<time>2024-05-11T16:08:39Z</time>
</trkpt>
<trkpt lat="49.56031791865826" lon="9.34616468846798">
<ele>394.2</ele>
<time>2024-05-11T16:08:40Z</time>
</trkpt>
<trkpt lat="49.560264525935054" lon="9.3461446557194">
<ele>394.4</ele>
<time>2024-05-11T16:08:41Z</time>
</trkpt>
<trkpt lat="49.56021498888731" lon="9.34612361714244">
<ele>394.6</ele>
<time>2024-05-11T16:08:42Z</time>
</trkpt>
<trkpt lat="49.56016151234507" lon="9.34610174037516">
<ele>395</ele>
<time>2024-05-11T16:08:43Z</time>
</trkpt>
<trkpt lat="49.56011197529733" lon="9.346076929941772">
<ele>395.2</ele>
<time>2024-05-11T16:08:44Z</time>
</trkpt>
<trkpt lat="49.56005858257413" lon="9.346053041517736">
<ele>395.4</ele>
<time>2024-05-11T16:08:45Z</time>
</trkpt>
<trkpt lat="49.560005106031895" lon="9.346031164750457">
<ele>395.6</ele>
<time>2024-05-11T16:08:46Z</time>
</trkpt>
<trkpt lat="49.55995171330869" lon="9.346010126173496">
<ele>395.8</ele>
<time>2024-05-11T16:08:47Z</time>
</trkpt>
<trkpt lat="49.55989454872906" lon="9.34598539955914">
<ele>396</ele>
<time>2024-05-11T16:08:48Z</time>
</trkpt>
<trkpt lat="49.5598373003304" lon="9.3459615111351">
<ele>396.4</ele>
<time>2024-05-11T16:08:49Z</time>
</trkpt>
<trkpt lat="49.5597839076072" lon="9.345936700701714">
<ele>396.6</ele>
<time>2024-05-11T16:08:50Z</time>
</trkpt>
<trkpt lat="49.559730514883995" lon="9.345911974087358">
<ele>396.6</ele>
<time>2024-05-11T16:08:51Z</time>
</trkpt>
<trkpt lat="49.55967326648533" lon="9.34588808566332">
<ele>396.8</ele>
<time>2024-05-11T16:08:52Z</time>
</trkpt>
<trkpt lat="49.55961987376213" lon="9.34586520306766">
<ele>396.8</ele>
<time>2024-05-11T16:08:53Z</time>
</trkpt>
<trkpt lat="49.55956648103893" lon="9.345840392634273">
<ele>396.8</ele>
<time>2024-05-11T16:08:54Z</time>
</trkpt>
<trkpt lat="49.559509232640266" lon="9.345816588029264">
<ele>397</ele>
<time>2024-05-11T16:08:55Z</time>
</trkpt>
<trkpt lat="49.559451984241605" lon="9.345794627442956">
<ele>397</ele>
<time>2024-05-11T16:08:56Z</time>
</trkpt>
<trkpt lat="49.559394819661975" lon="9.345769817009568">
<ele>397</ele>
<time>2024-05-11T16:08:57Z</time>
</trkpt>
<trkpt lat="49.55933757126331" lon="9.34574693441391">
<ele>397</ele>
<time>2024-05-11T16:08:58Z</time>
</trkpt>
<trkpt lat="49.55928032286465" lon="9.345725057646632">
<ele>397.2</ele>
<time>2024-05-11T16:08:59Z</time>
</trkpt>
<trkpt lat="49.55922315828502" lon="9.345701169222592">
<ele>397.2</ele>
<time>2024-05-11T16:09:00Z</time>
</trkpt>
<trkpt lat="49.55916976556182" lon="9.345680214464664">
<ele>397.4</ele>
<time>2024-05-11T16:09:01Z</time>
</trkpt>
<trkpt lat="49.55911251716316" lon="9.345658253878357">
<ele>397.6</ele>
<time>2024-05-11T16:09:02Z</time>
</trkpt>
<trkpt lat="49.559055268764496" lon="9.345635371282697">
<ele>397.6</ele>
<time>2024-05-11T16:09:03Z</time>
</trkpt>
<trkpt lat="49.558998104184866" lon="9.34560963883996">
<ele>397.8</ele>
<time>2024-05-11T16:09:04Z</time>
</trkpt>
<trkpt lat="49.55894462764263" lon="9.345582900568845">
<ele>397.8</ele>
<time>2024-05-11T16:09:05Z</time>
</trkpt>
<trkpt lat="49.558887463063" lon="9.345558090135455">
<ele>398</ele>
<time>2024-05-11T16:09:06Z</time>
</trkpt>
<trkpt lat="49.5588340703398" lon="9.3455333635211">
<ele>398</ele>
<time>2024-05-11T16:09:07Z</time>
</trkpt>
<trkpt lat="49.558780593797565" lon="9.345506625249982">
<ele>398.2</ele>
<time>2024-05-11T16:09:08Z</time>
</trkpt>
<trkpt lat="49.55872720107436" lon="9.345477037131786">
<ele>398.4</ele>
<time>2024-05-11T16:09:09Z</time>
</trkpt>
<trkpt lat="49.55867380835116" lon="9.345444599166512">
<ele>398.6</ele>
<time>2024-05-11T16:09:10Z</time>
</trkpt>
<trkpt lat="49.5586165599525" lon="9.345406461507082">
<ele>398.8</ele>
<time>2024-05-11T16:09:11Z</time>
</trkpt>
<trkpt lat="49.558563167229295" lon="9.345363546162844">
<ele>398.8</ele>
<time>2024-05-11T16:09:12Z</time>
</trkpt>
<trkpt lat="49.55849837511778" lon="9.345316858962178">
<ele>399</ele>
<time>2024-05-11T16:09:13Z</time>
</trkpt>
<trkpt lat="49.55843727104366" lon="9.345266316086054">
<ele>399.2</ele>
<time>2024-05-11T16:09:14Z</time>
</trkpt>
<trkpt lat="49.55836862325668" lon="9.345208145678043">
<ele>399.2</ele>
<time>2024-05-11T16:09:15Z</time>
</trkpt>
<trkpt lat="49.55829997546971" lon="9.34515475295484">
<ele>399.2</ele>
<time>2024-05-11T16:09:16Z</time>
</trkpt>
<trkpt lat="49.558227472007275" lon="9.345098426565528">
<ele>399.2</ele>
<time>2024-05-11T16:09:17Z</time>
</trkpt>
<trkpt lat="49.55815505236387" lon="9.345040256157516">
<ele>399.2</ele>
<time>2024-05-11T16:09:18Z</time>
</trkpt>
<trkpt lat="49.55807869322598" lon="9.344982085749509">
<ele>399</ele>
<time>2024-05-11T16:09:19Z</time>
</trkpt>
<trkpt lat="49.55800241790712" lon="9.344921987503769">
<ele>399</ele>
<time>2024-05-11T16:09:20Z</time>
</trkpt>
<trkpt lat="49.557929914444685" lon="9.34486004523933">
<ele>398.8</ele>
<time>2024-05-11T16:09:21Z</time>
</trkpt>
<trkpt lat="49.55786126665771" lon="9.34479994699359">
<ele>398.6</ele>
<time>2024-05-11T16:09:22Z</time>
</trkpt>
<trkpt lat="49.55778884701431" lon="9.344750326126814">
<ele>398.4</ele>
<time>2024-05-11T16:09:23Z</time>
</trkpt>
<trkpt lat="49.5577201154083" lon="9.344697939231992">
<ele>398.2</ele>
<time>2024-05-11T16:09:24Z</time>
</trkpt>
<trkpt lat="49.5576476957649" lon="9.344646390527489">
<ele>398</ele>
<time>2024-05-11T16:09:25Z</time>
</trkpt>
<trkpt lat="49.55757896415889" lon="9.344594925642014">
<ele>397.8</ele>
<time>2024-05-11T16:09:26Z</time>
</trkpt>
<trkpt lat="49.55751031637192" lon="9.34454631060362">
<ele>397.8</ele>
<time>2024-05-11T16:09:27Z</time>
</trkpt>
<trkpt lat="49.55744166858494" lon="9.34449953958392">
<ele>397.6</ele>
<time>2024-05-11T16:09:28Z</time>
</trkpt>
<trkpt lat="49.557376792654395" lon="9.344456624239683">
<ele>397.6</ele>
<time>2024-05-11T16:09:29Z</time>
</trkpt>
<trkpt lat="49.55731200054288" lon="9.344409937039018">
<ele>397.6</ele>
<time>2024-05-11T16:09:30Z</time>
</trkpt>
<trkpt lat="49.55725089646876" lon="9.344361238181593">
<ele>397.6</ele>
<time>2024-05-11T16:09:31Z</time>
</trkpt>
<trkpt lat="49.55718610435724" lon="9.344311701133847">
<ele>397.8</ele>
<time>2024-05-11T16:09:32Z</time>
</trkpt>
<trkpt lat="49.557125084102154" lon="9.344251602888107">
<ele>397.8</ele>
<time>2024-05-11T16:09:33Z</time>
</trkpt>
<trkpt lat="49.55706783570349" lon="9.344181949272752">
<ele>398</ele>
<time>2024-05-11T16:09:34Z</time>
</trkpt>
<trkpt lat="49.55701821483672" lon="9.344098046422005">
<ele>398.2</ele>
<time>2024-05-11T16:09:35Z</time>
</trkpt>
<trkpt lat="49.5569724496454" lon="9.3440102878958">
<ele>398.2</ele>
<time>2024-05-11T16:09:36Z</time>
</trkpt>
<trkpt lat="49.55692668445408" lon="9.343919679522514">
<ele>398.4</ele>
<time>2024-05-11T16:09:37Z</time>
</trkpt>
<trkpt lat="49.556884691119194" lon="9.34383007697761">
<ele>398.4</ele>
<time>2024-05-11T16:09:38Z</time>
</trkpt>
<trkpt lat="49.55683892592788" lon="9.343740390613675">
<ele>398.6</ele>
<time>2024-05-11T16:09:39Z</time>
</trkpt>
<trkpt lat="49.55679316073656" lon="9.34365363791585">
<ele>398.8</ele>
<time>2024-05-11T16:09:40Z</time>
</trkpt>
<trkpt lat="49.5567512512207" lon="9.343568729236722">
<ele>398.8</ele>
<time>2024-05-11T16:09:41Z</time>
</trkpt>
<trkpt lat="49.556709257885814" lon="9.343482898548244">
<ele>399</ele>
<time>2024-05-11T16:09:42Z</time>
</trkpt>
<trkpt lat="49.55666726455093" lon="9.34339807368815">
<ele>399</ele>
<time>2024-05-11T16:09:43Z</time>
</trkpt>
<trkpt lat="49.55662535503507" lon="9.343311237171292">
<ele>399</ele>
<time>2024-05-11T16:09:44Z</time>
</trkpt>
<trkpt lat="49.55658336170018" lon="9.343228340148926">
<ele>399</ele>
<time>2024-05-11T16:09:45Z</time>
</trkpt>
<trkpt lat="49.55654136836529" lon="9.343143431469798">
<ele>399.2</ele>
<time>2024-05-11T16:09:46Z</time>
</trkpt>
<trkpt lat="49.55650708638131" lon="9.343056678771973">
<ele>399.2</ele>
<time>2024-05-11T16:09:47Z</time>
</trkpt>
<trkpt lat="49.556468948721886" lon="9.342969842255116">
<ele>399.4</ele>
<time>2024-05-11T16:09:48Z</time>
</trkpt>
<trkpt lat="49.55642695538699" lon="9.342886861413715">
<ele>399.4</ele>
<time>2024-05-11T16:09:49Z</time>
</trkpt>
<trkpt lat="49.55638496205211" lon="9.342811508104203">
<ele>399.6</ele>
<time>2024-05-11T16:09:50Z</time>
</trkpt>
<trkpt lat="49.55634682439267" lon="9.342738082632422">
<ele>399.6</ele>
<time>2024-05-11T16:09:51Z</time>
</trkpt>
<trkpt lat="49.556308686733246" lon="9.342663735151293">
<ele>399.8</ele>
<time>2024-05-11T16:09:52Z</time>
</trkpt>
<trkpt lat="49.556274404749274" lon="9.342584609985352">
<ele>399.8</ele>
<time>2024-05-11T16:09:53Z</time>
</trkpt>
<trkpt lat="49.55624003894627" lon="9.342510178685188">
<ele>399.8</ele>
<time>2024-05-11T16:09:54Z</time>
</trkpt>
<trkpt lat="49.55620567314327" lon="9.342434825375676">
<ele>399.8</ele>
<time>2024-05-11T16:09:55Z</time>
</trkpt>
<trkpt lat="49.55617516301572" lon="9.342363327741625">
<ele>399.8</ele>
<time>2024-05-11T16:09:56Z</time>
</trkpt>
<trkpt lat="49.55614088103175" lon="9.342294679954648">
<ele>400</ele>
<time>2024-05-11T16:09:57Z</time>
</trkpt>
<trkpt lat="49.55610651522875" lon="9.342225026339293">
<ele>400.2</ele>
<time>2024-05-11T16:09:58Z</time>
</trkpt>
<trkpt lat="49.55607986077666" lon="9.342155456542969">
<ele>400.2</ele>
<time>2024-05-11T16:09:59Z</time>
</trkpt>
<trkpt lat="49.556053122505546" lon="9.342086724936962">
<ele>400.4</ele>
<time>2024-05-11T16:10:00Z</time>
</trkpt>
<trkpt lat="49.55601875670254" lon="9.342018077149987">
<ele>400.6</ele>
<time>2024-05-11T16:10:01Z</time>
</trkpt>
<trkpt lat="49.55598061904311" lon="9.34195035137236">
<ele>400.8</ele>
<time>2024-05-11T16:10:02Z</time>
</trkpt>
<trkpt lat="49.55594633705914" lon="9.341883631423116">
<ele>401</ele>
<time>2024-05-11T16:10:03Z</time>
</trkpt>
<trkpt lat="49.5559158269316" lon="9.341812133789063">
<ele>401</ele>
<time>2024-05-11T16:10:04Z</time>
</trkpt>
<trkpt lat="49.55588523298502" lon="9.341739630326629">
<ele>401.2</ele>
<time>2024-05-11T16:10:05Z</time>
</trkpt>
<trkpt lat="49.555854722857475" lon="9.341669976711271">
<ele>401.4</ele>
<time>2024-05-11T16:10:06Z</time>
</trkpt>
<trkpt lat="49.55582421272993" lon="9.341603256762028">
<ele>401.4</ele>
<time>2024-05-11T16:10:07Z</time>
</trkpt>
<trkpt lat="49.55579370260239" lon="9.34153645299375">
<ele>401.6</ele>
<time>2024-05-11T16:10:08Z</time>
</trkpt>
<trkpt lat="49.55576319247484" lon="9.341469733044503">
<ele>401.6</ele>
<time>2024-05-11T16:10:09Z</time>
</trkpt>
<trkpt lat="49.55573653802276" lon="9.341402929276228">
<ele>401.8</ele>
<time>2024-05-11T16:10:10Z</time>
</trkpt>
<trkpt lat="49.55570594407618" lon="9.34134190902114">
<ele>401.8</ele>
<time>2024-05-11T16:10:11Z</time>
</trkpt>
<trkpt lat="49.55567543394864" lon="9.3412799667567">
<ele>401.8</ele>
<time>2024-05-11T16:10:12Z</time>
</trkpt>
<trkpt lat="49.55564877949655" lon="9.341217018663883">
<ele>402</ele>
<time>2024-05-11T16:10:13Z</time>
</trkpt>
<trkpt lat="49.555618269369006" lon="9.341153064742684">
<ele>402.2</ele>
<time>2024-05-11T16:10:14Z</time>
</trkpt>
<trkpt lat="49.55559153109789" lon="9.341092044487596">
<ele>402.4</ele>
<time>2024-05-11T16:10:15Z</time>
</trkpt>
<trkpt lat="49.5555648766458" lon="9.341031946241856">
<ele>402.4</ele>
<time>2024-05-11T16:10:16Z</time>
</trkpt>
<trkpt lat="49.555538138374686" lon="9.340976709499955">
<ele>402.6</ele>
<time>2024-05-11T16:10:17Z</time>
</trkpt>
<trkpt lat="49.55551140010357" lon="9.340921388939025">
<ele>402.8</ele>
<time>2024-05-11T16:10:18Z</time>
</trkpt>
<trkpt lat="49.55548851750791" lon="9.34086699038744">
<ele>402.8</ele>
<time>2024-05-11T16:10:19Z</time>
</trkpt>
<trkpt lat="49.555461863055825" lon="9.340814519673586">
<ele>403</ele>
<time>2024-05-11T16:10:20Z</time>
</trkpt>
<trkpt lat="49.555442752316594" lon="9.340761126950383">
<ele>403.2</ele>
<time>2024-05-11T16:10:21Z</time>
</trkpt>
<trkpt lat="49.555419869720936" lon="9.34070865623653">
<ele>403.4</ele>
<time>2024-05-11T16:10:22Z</time>
</trkpt>
<trkpt lat="49.555400842800736" lon="9.340656269341707">
<ele>403.6</ele>
<time>2024-05-11T16:10:23Z</time>
</trkpt>
<trkpt lat="49.555381732061505" lon="9.34060949832201">
<ele>403.6</ele>
<time>2024-05-11T16:10:24Z</time>
</trkpt>
<trkpt lat="49.55535884946585" lon="9.340563733130692">
<ele>403.8</ele>
<time>2024-05-11T16:10:25Z</time>
</trkpt>
<trkpt lat="49.555339738726616" lon="9.3405151180923">
<ele>404</ele>
<time>2024-05-11T16:10:26Z</time>
</trkpt>
<trkpt lat="49.55532071180642" lon="9.340464575216174">
<ele>404</ele>
<time>2024-05-11T16:10:27Z</time>
</trkpt>
<trkpt lat="49.555301601067185" lon="9.340416882187128">
<ele>404</ele>
<time>2024-05-11T16:10:28Z</time>
</trkpt>
<trkpt lat="49.555282574146986" lon="9.340363489463924">
<ele>404.2</ele>
<time>2024-05-11T16:10:29Z</time>
</trkpt>
<trkpt lat="49.555263463407755" lon="9.340306241065264">
<ele>404.2</ele>
<time>2024-05-11T16:10:30Z</time>
</trkpt>
<trkpt lat="49.555244436487556" lon="9.340245220810177">
<ele>404.2</ele>
<time>2024-05-11T16:10:31Z</time>
</trkpt>
<trkpt lat="49.5552215538919" lon="9.34017363935709">
<ele>404.2</ele>
<time>2024-05-11T16:10:32Z</time>
</trkpt>
<trkpt lat="49.555202443152666" lon="9.340100213885307">
<ele>404.2</ele>
<time>2024-05-11T16:10:33Z</time>
</trkpt>
<trkpt lat="49.555183332413435" lon="9.340026788413525">
<ele>404.2</ele>
<time>2024-05-11T16:10:34Z</time>
</trkpt>
<trkpt lat="49.55516430549323" lon="9.33995621278882">
<ele>404.2</ele>
<time>2024-05-11T16:10:35Z</time>
</trkpt>
<trkpt lat="49.555145194754" lon="9.339888570830226">
<ele>404</ele>
<time>2024-05-11T16:10:36Z</time>
</trkpt>
<trkpt lat="49.555122312158346" lon="9.339826544746757">
<ele>404</ele>
<time>2024-05-11T16:10:37Z</time>
</trkpt>
<trkpt lat="49.55509942956269" lon="9.339766446501017">
<ele>403.8</ele>
<time>2024-05-11T16:10:38Z</time>
</trkpt>
<trkpt lat="49.55506514757872" lon="9.339713053777814">
<ele>403.4</ele>
<time>2024-05-11T16:10:39Z</time>
</trkpt>
<trkpt lat="49.55502315424383" lon="9.339670138433576">
<ele>403.2</ele>
<time>2024-05-11T16:10:40Z</time>
</trkpt>
<trkpt lat="49.55497738905251" lon="9.339634850621223">
<ele>403</ele>
<time>2024-05-11T16:10:41Z</time>
</trkpt>
<trkpt lat="49.554931623861194" lon="9.339599562808871">
<ele>402.8</ele>
<time>2024-05-11T16:10:42Z</time>
</trkpt>
<trkpt lat="49.55488200299442" lon="9.339568130671978">
<ele>402.6</ele>
<time>2024-05-11T16:10:43Z</time>
</trkpt>
<trkpt lat="49.5548362378031" lon="9.339531837031243">
<ele>402.4</ele>
<time>2024-05-11T16:10:44Z</time>
</trkpt>
<trkpt lat="49.554786616936326" lon="9.339491771534083">
<ele>402.2</ele>
<time>2024-05-11T16:10:45Z</time>
</trkpt>
<trkpt lat="49.55473322421312" lon="9.33944315649569">
<ele>402.2</ele>
<time>2024-05-11T16:10:46Z</time>
</trkpt>
<trkpt lat="49.55467983148992" lon="9.339387835934758">
<ele>402</ele>
<time>2024-05-11T16:10:47Z</time>
</trkpt>
<trkpt lat="49.55461881123483" lon="9.339318266138434">
<ele>401.8</ele>
<time>2024-05-11T16:10:48Z</time>
</trkpt>
<trkpt lat="49.55456156283617" lon="9.339231429621575">
<ele>401.6</ele>
<time>2024-05-11T16:10:49Z</time>
</trkpt>
<trkpt lat="49.55449668690562" lon="9.339135121554136">
<ele>401.2</ele>
<time>2024-05-11T16:10:50Z</time>
</trkpt>
<trkpt lat="49.55442803911865" lon="9.33903118595481">
<ele>400.8</ele>
<time>2024-05-11T16:10:51Z</time>
</trkpt>
<trkpt lat="49.55436324700713" lon="9.338928172364833">
<ele>400.4</ele>
<time>2024-05-11T16:10:52Z</time>
</trkpt>
<trkpt lat="49.554298371076584" lon="9.3387898709625">
<ele>400</ele>
<time>2024-05-11T16:10:53Z</time>
</trkpt>
<trkpt lat="49.554237350821495" lon="9.338644947856665">
<ele>399.6</ele>
<time>2024-05-11T16:10:54Z</time>
</trkpt>
<trkpt lat="49.55417247489095" lon="9.3385152798146">
<ele>399</ele>
<time>2024-05-11T16:10:55Z</time>
</trkpt>
<trkpt lat="49.5541075989604" lon="9.338371194899082">
<ele>398.4</ele>
<time>2024-05-11T16:10:56Z</time>
</trkpt>
<trkpt lat="49.554035179317" lon="9.338231971487405">
<ele>397.8</ele>
<time>2024-05-11T16:10:57Z</time>
</trkpt>
<trkpt lat="49.55396644771099" lon="9.338089898228644">
<ele>397.2</ele>
<time>2024-05-11T16:10:58Z</time>
</trkpt>
<trkpt lat="49.5539054274559" lon="9.337949752807615">
<ele>396.6</ele>
<time>2024-05-11T16:10:59Z</time>
</trkpt>
<trkpt lat="49.55383677966893" lon="9.337796196341516">
<ele>396</ele>
<time>2024-05-11T16:11:00Z</time>
</trkpt>
<trkpt lat="49.55377190373838" lon="9.337656972929835">
<ele>395.4</ele>
<time>2024-05-11T16:11:01Z</time>
</trkpt>
<trkpt lat="49.55369948409498" lon="9.337499560788274">
<ele>395</ele>
<time>2024-05-11T16:11:02Z</time>
</trkpt>
<trkpt lat="49.55363075248897" lon="9.337360337376596">
<ele>394.4</ele>
<time>2024-05-11T16:11:03Z</time>
</trkpt>
<trkpt lat="49.55355833284557" lon="9.33720870874822">
<ele>394</ele>
<time>2024-05-11T16:11:04Z</time>
</trkpt>
<trkpt lat="49.553489685058594" lon="9.337066635489464">
<ele>393.6</ele>
<time>2024-05-11T16:11:05Z</time>
</trkpt>
<trkpt lat="49.553424809128046" lon="9.33691500686109">
<ele>393.2</ele>
<time>2024-05-11T16:11:06Z</time>
</trkpt>
<trkpt lat="49.5533599331975" lon="9.33677477762103">
<ele>392.8</ele>
<time>2024-05-11T16:11:07Z</time>
</trkpt>
<trkpt lat="49.55329505726695" lon="9.336606971919537">
<ele>392.4</ele>
<time>2024-05-11T16:11:08Z</time>
</trkpt>
<trkpt lat="49.55321878194809" lon="9.336478225886822">
<ele>391.8</ele>
<time>2024-05-11T16:11:09Z</time>
</trkpt>
<trkpt lat="49.55314250662923" lon="9.336337996646762">
<ele>391.4</ele>
<time>2024-05-11T16:11:10Z</time>
</trkpt>
<trkpt lat="49.553073858842254" lon="9.336199695244431">
<ele>391</ele>
<time>2024-05-11T16:11:11Z</time>
</trkpt>
<trkpt lat="49.553008982911706" lon="9.336058543995025">
<ele>390.4</ele>
<time>2024-05-11T16:11:12Z</time>
</trkpt>
<trkpt lat="49.552932707592845" lon="9.335921248421071">
<ele>390</ele>
<time>2024-05-11T16:11:13Z</time>
</trkpt>
<trkpt lat="49.55287168733776" lon="9.335780097171664">
<ele>389.6</ele>
<time>2024-05-11T16:11:14Z</time>
</trkpt>
<trkpt lat="49.55281066708267" lon="9.335658056661488">
<ele>389.2</ele>
<time>2024-05-11T16:11:15Z</time>
</trkpt>
<trkpt lat="49.552734307944775" lon="9.33553023263812">
<ele>388.8</ele>
<time>2024-05-11T16:11:16Z</time>
</trkpt>
<trkpt lat="49.552673287689686" lon="9.335418669506907">
<ele>388.4</ele>
<time>2024-05-11T16:11:17Z</time>
</trkpt>
<trkpt lat="49.55261989496648" lon="9.335307106375694">
<ele>388</ele>
<time>2024-05-11T16:11:18Z</time>
</trkpt>
<trkpt lat="49.55256264656782" lon="9.33517836034298">
<ele>387.8</ele>
<time>2024-05-11T16:11:19Z</time>
</trkpt>
<trkpt lat="49.55250162631273" lon="9.33505531400442">
<ele>387.4</ele>
<time>2024-05-11T16:11:20Z</time>
</trkpt>
<trkpt lat="49.55244060605765" lon="9.334930339828134">
<ele>387</ele>
<time>2024-05-11T16:11:21Z</time>
</trkpt>
<trkpt lat="49.552379585802555" lon="9.334824560210109">
<ele>386.8</ele>
<time>2024-05-11T16:11:22Z</time>
</trkpt>
<trkpt lat="49.552318565547466" lon="9.334723390638828">
<ele>386.4</ele>
<time>2024-05-11T16:11:23Z</time>
</trkpt>
<trkpt lat="49.55226894468069" lon="9.334618533030152">
<ele>386.2</ele>
<time>2024-05-11T16:11:24Z</time>
</trkpt>
<trkpt lat="49.55221169628203" lon="9.334511747583749">
<ele>386</ele>
<time>2024-05-11T16:11:25Z</time>
</trkpt>
<trkpt lat="49.552158303558826" lon="9.33440487831831">
<ele>386</ele>
<time>2024-05-11T16:11:26Z</time>
</trkpt>
<trkpt lat="49.552104910835624" lon="9.334298092871904">
<ele>385.8</ele>
<time>2024-05-11T16:11:27Z</time>
</trkpt>
<trkpt lat="49.55204766243696" lon="9.3341913074255">
<ele>385.6</ele>
<time>2024-05-11T16:11:28Z</time>
</trkpt>
<trkpt lat="49.55199812538922" lon="9.33408829383552">
<ele>385.4</ele>
<time>2024-05-11T16:11:29Z</time>
</trkpt>
<trkpt lat="49.551944732666016" lon="9.33398813009262">
<ele>385.2</ele>
<time>2024-05-11T16:11:30Z</time>
</trkpt>
<trkpt lat="49.55189511179924" lon="9.33389374986291">
<ele>385</ele>
<time>2024-05-11T16:11:31Z</time>
</trkpt>
<trkpt lat="49.55184171907604" lon="9.333801213651896">
<ele>384.8</ele>
<time>2024-05-11T16:11:32Z</time>
</trkpt>
<trkpt lat="49.55179209820926" lon="9.333709683269262">
<ele>384.8</ele>
<time>2024-05-11T16:11:33Z</time>
</trkpt>
<trkpt lat="49.551742477342486" lon="9.333621924743056">
<ele>384.6</ele>
<time>2024-05-11T16:11:34Z</time>
</trkpt>
<trkpt lat="49.55169671215117" lon="9.3335332442075">
<ele>384.4</ele>
<time>2024-05-11T16:11:35Z</time>
</trkpt>
<trkpt lat="49.551647175103426" lon="9.333448335528374">
<ele>384.4</ele>
<time>2024-05-11T16:11:36Z</time>
</trkpt>
<trkpt lat="49.55159755423665" lon="9.333363510668278">
<ele>384.2</ele>
<time>2024-05-11T16:11:37Z</time>
</trkpt>
<trkpt lat="49.551551789045334" lon="9.33327667415142">
<ele>384.2</ele>
<time>2024-05-11T16:11:38Z</time>
</trkpt>
<trkpt lat="49.55150216817856" lon="9.333189921453595">
<ele>384.2</ele>
<time>2024-05-11T16:11:39Z</time>
</trkpt>
<trkpt lat="49.55145640298724" lon="9.33310316875577">
<ele>384.2</ele>
<time>2024-05-11T16:11:40Z</time>
</trkpt>
<trkpt lat="49.551406782120466" lon="9.333015410229564">
<ele>384</ele>
<time>2024-05-11T16:11:41Z</time>
</trkpt>
<trkpt lat="49.55136101692915" lon="9.332928657531738">
<ele>384</ele>
<time>2024-05-11T16:11:42Z</time>
</trkpt>
<trkpt lat="49.55131910741329" lon="9.332839893177152">
<ele>384</ele>
<time>2024-05-11T16:11:43Z</time>
</trkpt>
<trkpt lat="49.551273342221975" lon="9.332755068317056">
<ele>383.8</ele>
<time>2024-05-11T16:11:44Z</time>
</trkpt>
<trkpt lat="49.551231348887086" lon="9.3326663877815">
<ele>383.8</ele>
<time>2024-05-11T16:11:45Z</time>
</trkpt>
<trkpt lat="49.55118558369577" lon="9.332579551264644">
<ele>383.8</ele>
<time>2024-05-11T16:11:46Z</time>
</trkpt>
<trkpt lat="49.55113981850445" lon="9.33248802088201">
<ele>383.8</ele>
<time>2024-05-11T16:11:47Z</time>
</trkpt>
<trkpt lat="49.55109019763768" lon="9.332396490499375">
<ele>383.8</ele>
<time>2024-05-11T16:11:48Z</time>
</trkpt>
<trkpt lat="49.551036804914474" lon="9.332302026450634">
<ele>383.8</ele>
<time>2024-05-11T16:11:49Z</time>
</trkpt>
<trkpt lat="49.5509871840477" lon="9.332204796373844">
<ele>383.8</ele>
<time>2024-05-11T16:11:50Z</time>
</trkpt>
<trkpt lat="49.55093001946807" lon="9.332113265991213">
<ele>383.8</ele>
<time>2024-05-11T16:11:51Z</time>
</trkpt>
<trkpt lat="49.550876542925835" lon="9.332021651789546">
<ele>383.6</ele>
<time>2024-05-11T16:11:52Z</time>
</trkpt>
<trkpt lat="49.55082315020263" lon="9.331932971253991">
<ele>383.6</ele>
<time>2024-05-11T16:11:53Z</time>
</trkpt>
<trkpt lat="49.550765985623" lon="9.331848062574863">
<ele>383.4</ele>
<time>2024-05-11T16:11:54Z</time>
</trkpt>
<trkpt lat="49.55070873722434" lon="9.331767009571196">
<ele>383.2</ele>
<time>2024-05-11T16:11:55Z</time>
</trkpt>
<trkpt lat="49.55065148882568" lon="9.331685034558175">
<ele>383.2</ele>
<time>2024-05-11T16:11:56Z</time>
</trkpt>
<trkpt lat="49.55059809610248" lon="9.331604903563855">
<ele>383</ele>
<time>2024-05-11T16:11:57Z</time>
</trkpt>
<trkpt lat="49.55054470337927" lon="9.331526700407268">
<ele>383</ele>
<time>2024-05-11T16:11:58Z</time>
</trkpt>
<trkpt lat="49.5504950825125" lon="9.331449503079057">
<ele>382.8</ele>
<time>2024-05-11T16:11:59Z</time>
</trkpt>
<trkpt lat="49.550441689789295" lon="9.331376999616625">
<ele>382.8</ele>
<time>2024-05-11T16:12:00Z</time>
</trkpt>
<trkpt lat="49.55038829706609" lon="9.33130642399192">
<ele>382.6</ele>
<time>2024-05-11T16:12:01Z</time>
</trkpt>
<trkpt lat="49.55033867619932" lon="9.33124154806137">
<ele>382.4</ele>
<time>2024-05-11T16:12:02Z</time>
</trkpt>
<trkpt lat="49.550292911008" lon="9.33118337765336">
<ele>382.4</ele>
<time>2024-05-11T16:12:03Z</time>
</trkpt>
<trkpt lat="49.55025100149214" lon="9.331128057092428">
<ele>382.2</ele>
<time>2024-05-11T16:12:04Z</time>
</trkpt>
<trkpt lat="49.550205152481794" lon="9.331078520044684">
<ele>382.2</ele>
<time>2024-05-11T16:12:05Z</time>
</trkpt>
<trkpt lat="49.55016324296594" lon="9.331029821187258">
<ele>382.2</ele>
<time>2024-05-11T16:12:06Z</time>
</trkpt>
<trkpt lat="49.55012124963105" lon="9.330978356301785">
<ele>382.2</ele>
<time>2024-05-11T16:12:07Z</time>
</trkpt>
<trkpt lat="49.55007934011519" lon="9.330923035740852">
<ele>382.2</ele>
<time>2024-05-11T16:12:08Z</time>
</trkpt>
<trkpt lat="49.55003349110484" lon="9.3308687210083">
<ele>382.4</ele>
<time>2024-05-11T16:12:09Z</time>
</trkpt>
<trkpt lat="49.5499839540571" lon="9.330813400447369">
<ele>382.4</ele>
<time>2024-05-11T16:12:10Z</time>
</trkpt>
<trkpt lat="49.54993433319032" lon="9.330757074058056">
<ele>382.4</ele>
<time>2024-05-11T16:12:11Z</time>
</trkpt>
<trkpt lat="49.54988094046712" lon="9.330699909478426">
<ele>382.4</ele>
<time>2024-05-11T16:12:12Z</time>
</trkpt>
<trkpt lat="49.54982369206846" lon="9.330641739070415">
<ele>382.2</ele>
<time>2024-05-11T16:12:13Z</time>
</trkpt>
<trkpt lat="49.54976267181337" lon="9.330579712986946">
<ele>382.2</ele>
<time>2024-05-11T16:12:14Z</time>
</trkpt>
<trkpt lat="49.54970165155828" lon="9.330523470416663">
<ele>382</ele>
<time>2024-05-11T16:12:15Z</time>
</trkpt>
<trkpt lat="49.54964063130319" lon="9.330468149855731">
<ele>381.8</ele>
<time>2024-05-11T16:12:16Z</time>
</trkpt>
<trkpt lat="49.54958338290453" lon="9.33041375130415">
<ele>381.6</ele>
<time>2024-05-11T16:12:17Z</time>
</trkpt>
<trkpt lat="49.54952236264944" lon="9.330360358580949">
<ele>381.4</ele>
<time>2024-05-11T16:12:18Z</time>
</trkpt>
<trkpt lat="49.54946511425078" lon="9.330306965857744">
<ele>381</ele>
<time>2024-05-11T16:12:19Z</time>
</trkpt>
<trkpt lat="49.549411721527576" lon="9.33025449514389">
<ele>380.8</ele>
<time>2024-05-11T16:12:20Z</time>
</trkpt>
<trkpt lat="49.549358328804374" lon="9.330208729952574">
<ele>380.6</ele>
<time>2024-05-11T16:12:21Z</time>
</trkpt>
<trkpt lat="49.549297308549285" lon="9.330162964761255">
<ele>380.2</ele>
<time>2024-05-11T16:12:22Z</time>
</trkpt>
<trkpt lat="49.54924006015062" lon="9.330121977254748">
<ele>380</ele>
<time>2024-05-11T16:12:23Z</time>
</trkpt>
<trkpt lat="49.54917518422008" lon="9.330075206235051">
<ele>379.8</ele>
<time>2024-05-11T16:12:24Z</time>
</trkpt>
<trkpt lat="49.54911416396499" lon="9.330030363053083">
<ele>379.6</ele>
<time>2024-05-11T16:12:25Z</time>
</trkpt>
<trkpt lat="49.5490531437099" lon="9.329984597861769">
<ele>379.4</ele>
<time>2024-05-11T16:12:26Z</time>
</trkpt>
<trkpt lat="49.54898826777935" lon="9.329944532364609">
<ele>379.4</ele>
<time>2024-05-11T16:12:27Z</time>
</trkpt>
<trkpt lat="49.548919619992375" lon="9.329906394705176">
<ele>379.2</ele>
<time>2024-05-11T16:12:28Z</time>
</trkpt>
<trkpt lat="49.5488509722054" lon="9.329866329208016">
<ele>379.2</ele>
<time>2024-05-11T16:12:29Z</time>
</trkpt>
<trkpt lat="49.548782324418426" lon="9.329825341701508">
<ele>379.2</ele>
<time>2024-05-11T16:12:30Z</time>
</trkpt>
<trkpt lat="49.54871367663145" lon="9.32978343218565">
<ele>379</ele>
<time>2024-05-11T16:12:31Z</time>
</trkpt>
<trkpt lat="49.54864494502544" lon="9.32974336668849">
<ele>378.8</ele>
<time>2024-05-11T16:12:32Z</time>
</trkpt>
<trkpt lat="49.54857252538204" lon="9.329708078876138">
<ele>378.6</ele>
<time>2024-05-11T16:12:33Z</time>
</trkpt>
<trkpt lat="49.54850002191961" lon="9.32968134060502">
<ele>378.4</ele>
<time>2024-05-11T16:12:34Z</time>
</trkpt>
<trkpt lat="49.54843137413263" lon="9.329660385847092">
<ele>378.2</ele>
<time>2024-05-11T16:12:35Z</time>
</trkpt>
<trkpt lat="49.54835509881377" lon="9.329638425260782">
<ele>378</ele>
<time>2024-05-11T16:12:36Z</time>
</trkpt>
<trkpt lat="49.54828259535134" lon="9.32962124235928">
<ele>377.8</ele>
<time>2024-05-11T16:12:37Z</time>
</trkpt>
<trkpt lat="49.54820632003248" lon="9.32960313744843">
<ele>377.6</ele>
<time>2024-05-11T16:12:38Z</time>
</trkpt>
<trkpt lat="49.548129960894585" lon="9.32958503253758">
<ele>377.6</ele>
<time>2024-05-11T16:12:39Z</time>
</trkpt>
<trkpt lat="49.5480499137193" lon="9.329567849636078">
<ele>377.4</ele>
<time>2024-05-11T16:12:40Z</time>
</trkpt>
<trkpt lat="49.54797355458141" lon="9.329551672562957">
<ele>377.4</ele>
<time>2024-05-11T16:12:41Z</time>
</trkpt>
<trkpt lat="49.54789727926254" lon="9.329533567652106">
<ele>377.2</ele>
<time>2024-05-11T16:12:42Z</time>
</trkpt>
<trkpt lat="49.54782100394368" lon="9.329513534903526">
<ele>377.2</ele>
<time>2024-05-11T16:12:43Z</time>
</trkpt>
<trkpt lat="49.54774472862482" lon="9.329493502154946">
<ele>377</ele>
<time>2024-05-11T16:12:44Z</time>
</trkpt>
<trkpt lat="49.5476645976305" lon="9.329473469406366">
<ele>376.8</ele>
<time>2024-05-11T16:12:45Z</time>
</trkpt>
<trkpt lat="49.54758832231164" lon="9.329451508820055">
<ele>376.6</ele>
<time>2024-05-11T16:12:46Z</time>
</trkpt>
<trkpt lat="49.54751204699278" lon="9.329431476071475">
<ele>376.4</ele>
<time>2024-05-11T16:12:47Z</time>
</trkpt>
<trkpt lat="49.547435687854886" lon="9.329411443322895">
<ele>376.4</ele>
<time>2024-05-11T16:12:48Z</time>
</trkpt>
<trkpt lat="49.547359412536025" lon="9.32938956655562">
<ele>376.2</ele>
<time>2024-05-11T16:12:49Z</time>
</trkpt>
<trkpt lat="49.54728313721717" lon="9.32936668395996">
<ele>376</ele>
<time>2024-05-11T16:12:50Z</time>
</trkpt>
<trkpt lat="49.54720300622285" lon="9.329339945688844">
<ele>375.8</ele>
<time>2024-05-11T16:12:51Z</time>
</trkpt>
<trkpt lat="49.54712673090398" lon="9.329311363399029">
<ele>375.4</ele>
<time>2024-05-11T16:12:52Z</time>
</trkpt>
<trkpt lat="49.54705045558512" lon="9.329284625127912">
<ele>375.2</ele>
<time>2024-05-11T16:12:53Z</time>
</trkpt>
<trkpt lat="49.5469703245908" lon="9.329259814694524">
<ele>375.2</ele>
<time>2024-05-11T16:12:54Z</time>
</trkpt>
<trkpt lat="49.54689404927194" lon="9.329235004261136">
<ele>374.8</ele>
<time>2024-05-11T16:12:55Z</time>
</trkpt>
<trkpt lat="49.54681391827762" lon="9.32921027764678">
<ele>374.6</ele>
<time>2024-05-11T16:12:56Z</time>
</trkpt>
<trkpt lat="49.5467337872833" lon="9.329181611537932">
<ele>374.4</ele>
<time>2024-05-11T16:12:57Z</time>
</trkpt>
<trkpt lat="49.54665374010801" lon="9.32914825156331">
<ele>374.2</ele>
<time>2024-05-11T16:12:58Z</time>
</trkpt>
<trkpt lat="49.54657738097012" lon="9.329114891588688">
<ele>374</ele>
<time>2024-05-11T16:12:59Z</time>
</trkpt>
<trkpt lat="49.54649733379483" lon="9.329079603776336">
<ele>373.6</ele>
<time>2024-05-11T16:13:00Z</time>
</trkpt>
<trkpt lat="49.54641720280051" lon="9.329046243801711">
<ele>373.4</ele>
<time>2024-05-11T16:13:01Z</time>
</trkpt>
<trkpt lat="49.54634092748165" lon="9.32901187799871">
<ele>373.2</ele>
<time>2024-05-11T16:13:02Z</time>
</trkpt>
<trkpt lat="49.54626079648733" lon="9.328974662348628">
<ele>373</ele>
<time>2024-05-11T16:13:03Z</time>
</trkpt>
<trkpt lat="49.5461882930249" lon="9.32892981916666">
<ele>372.8</ele>
<time>2024-05-11T16:13:04Z</time>
</trkpt>
<trkpt lat="49.54611964523792" lon="9.328876426443458">
<ele>372.6</ele>
<time>2024-05-11T16:13:05Z</time>
</trkpt>
<trkpt lat="49.546054769307375" lon="9.328815406188369">
<ele>372.4</ele>
<time>2024-05-11T16:13:06Z</time>
</trkpt>
<trkpt lat="49.545993749052286" lon="9.328746758401394">
<ele>372.2</ele>
<time>2024-05-11T16:13:07Z</time>
</trkpt>
<trkpt lat="49.54594035632908" lon="9.32867811061442">
<ele>372</ele>
<time>2024-05-11T16:13:08Z</time>
</trkpt>
<trkpt lat="49.54589073546231" lon="9.328604685142636">
<ele>371.8</ele>
<time>2024-05-11T16:13:09Z</time>
</trkpt>
<trkpt lat="49.54584497027099" lon="9.328528326004744">
<ele>371.8</ele>
<time>2024-05-11T16:13:10Z</time>
</trkpt>
<trkpt lat="49.54580683261156" lon="9.328452050685884">
<ele>371.6</ele>
<time>2024-05-11T16:13:11Z</time>
</trkpt>
<trkpt lat="49.54577255062759" lon="9.3283786252141">
<ele>371.6</ele>
<time>2024-05-11T16:13:12Z</time>
</trkpt>
<trkpt lat="49.54574581235647" lon="9.328305199742315">
<ele>371.6</ele>
<time>2024-05-11T16:13:13Z</time>
</trkpt>
<trkpt lat="49.545719074085355" lon="9.328225068747996">
<ele>371.6</ele>
<time>2024-05-11T16:13:14Z</time>
</trkpt>
<trkpt lat="49.5456961914897" lon="9.32814116589725">
<ele>371.6</ele>
<time>2024-05-11T16:13:15Z</time>
</trkpt>
<trkpt lat="49.54566568136215" lon="9.32806011289358">
<ele>371.8</ele>
<time>2024-05-11T16:13:16Z</time>
</trkpt>
<trkpt lat="49.54563139937818" lon="9.327981909736993">
<ele>371.8</ele>
<time>2024-05-11T16:13:17Z</time>
</trkpt>
<trkpt lat="49.54559703357518" lon="9.327908484265208">
<ele>372</ele>
<time>2024-05-11T16:13:18Z</time>
</trkpt>
<trkpt lat="49.545562667772174" lon="9.327841680496933">
<ele>372</ele>
<time>2024-05-11T16:13:19Z</time>
</trkpt>
<trkpt lat="49.5455283857882" lon="9.32778644375503">
<ele>372.2</ele>
<time>2024-05-11T16:13:20Z</time>
</trkpt>
<trkpt lat="49.54549024812877" lon="9.327738750725985">
<ele>372.4</ele>
<time>2024-05-11T16:13:21Z</time>
</trkpt>
<trkpt lat="49.54545211046934" lon="9.327683430165052">
<ele>372.6</ele>
<time>2024-05-11T16:13:22Z</time>
</trkpt>
<trkpt lat="49.54541011713445" lon="9.327634731307626">
<ele>372.8</ele>
<time>2024-05-11T16:13:23Z</time>
</trkpt>
<trkpt lat="49.54537197947502" lon="9.327596593648195">
<ele>372.8</ele>
<time>2024-05-11T16:13:24Z</time>
</trkpt>
<trkpt lat="49.54532998614013" lon="9.327567089349031">
<ele>373</ele>
<time>2024-05-11T16:13:25Z</time>
</trkpt>
<trkpt lat="49.5452918484807" lon="9.327536579221489">
<ele>373.4</ele>
<time>2024-05-11T16:13:26Z</time>
</trkpt>
<trkpt lat="49.54524993896485" lon="9.32750791311264">
<ele>373.6</ele>
<time>2024-05-11T16:13:27Z</time>
</trkpt>
<trkpt lat="49.545207945629954" lon="9.327483102679253">
<ele>374</ele>
<time>2024-05-11T16:13:28Z</time>
</trkpt>
<trkpt lat="49.54516218043864" lon="9.327460220083594">
<ele>374.2</ele>
<time>2024-05-11T16:13:29Z</time>
</trkpt>
<trkpt lat="49.54512018710375" lon="9.327438343316317">
<ele>374.6</ele>
<time>2024-05-11T16:13:30Z</time>
</trkpt>
<trkpt lat="49.54507827758789" lon="9.327418310567737">
<ele>374.8</ele>
<time>2024-05-11T16:13:31Z</time>
</trkpt>
<trkpt lat="49.545036284253" lon="9.327395427972078">
<ele>375.2</ele>
<time>2024-05-11T16:13:32Z</time>
</trkpt>
<trkpt lat="49.544990519061685" lon="9.327375395223498">
<ele>375.4</ele>
<time>2024-05-11T16:13:33Z</time>
</trkpt>
<trkpt lat="49.544948525726795" lon="9.327353434637187">
<ele>375.6</ele>
<time>2024-05-11T16:13:34Z</time>
</trkpt>
<trkpt lat="49.54490661621094" lon="9.3273286242038">
<ele>375.6</ele>
<time>2024-05-11T16:13:35Z</time>
</trkpt>
<trkpt lat="49.544868394732475" lon="9.327302891761065">
<ele>375.8</ele>
<time>2024-05-11T16:13:36Z</time>
</trkpt>
<trkpt lat="49.544830257073045" lon="9.327278081327677">
<ele>376</ele>
<time>2024-05-11T16:13:37Z</time>
</trkpt>
<trkpt lat="49.544792119413614" lon="9.32724849320948">
<ele>376</ele>
<time>2024-05-11T16:13:38Z</time>
</trkpt>
<trkpt lat="49.5447463542223" lon="9.327217983081937">
<ele>376</ele>
<time>2024-05-11T16:13:39Z</time>
</trkpt>
<trkpt lat="49.54470821656287" lon="9.327183701097963">
<ele>376.2</ele>
<time>2024-05-11T16:13:40Z</time>
</trkpt>
<trkpt lat="49.54466245137155" lon="9.327146485447884">
<ele>376.2</ele>
<time>2024-05-11T16:13:41Z</time>
</trkpt>
<trkpt lat="49.544616686180234" lon="9.327106419950724">
<ele>376.2</ele>
<time>2024-05-11T16:13:42Z</time>
</trkpt>
<trkpt lat="49.54457092098892" lon="9.327063504606484">
<ele>376.2</ele>
<time>2024-05-11T16:13:43Z</time>
</trkpt>
<trkpt lat="49.54452892765403" lon="9.32701488956809">
<ele>376.2</ele>
<time>2024-05-11T16:13:44Z</time>
</trkpt>
<trkpt lat="49.54448693431914" lon="9.326961496844888">
<ele>376.2</ele>
<time>2024-05-11T16:13:45Z</time>
</trkpt>
<trkpt lat="49.54444502480328" lon="9.326905170455577">
<ele>376.2</ele>
<time>2024-05-11T16:13:46Z</time>
</trkpt>
<trkpt lat="49.54440688714385" lon="9.326845156028869">
<ele>376.2</ele>
<time>2024-05-11T16:13:47Z</time>
</trkpt>
<trkpt lat="49.54436866566539" lon="9.326783129945396">
<ele>376.2</ele>
<time>2024-05-11T16:13:48Z</time>
</trkpt>
<trkpt lat="49.54433438368142" lon="9.326716409996152">
<ele>376.2</ele>
<time>2024-05-11T16:13:49Z</time>
</trkpt>
<trkpt lat="49.54430001787841" lon="9.326649606227877">
<ele>376.2</ele>
<time>2024-05-11T16:13:50Z</time>
</trkpt>
<trkpt lat="49.54426573589444" lon="9.326586658135056">
<ele>376.2</ele>
<time>2024-05-11T16:13:51Z</time>
</trkpt>
<trkpt lat="49.54423137009144" lon="9.32652471587062">
<ele>376.2</ele>
<time>2024-05-11T16:13:52Z</time>
</trkpt>
<trkpt lat="49.544197004288435" lon="9.32646369561553">
<ele>376.2</ele>
<time>2024-05-11T16:13:53Z</time>
</trkpt>
<trkpt lat="49.54416649416089" lon="9.32640166953206">
<ele>376.2</ele>
<time>2024-05-11T16:13:54Z</time>
</trkpt>
<trkpt lat="49.544135984033346" lon="9.326336793601511">
<ele>376</ele>
<time>2024-05-11T16:13:55Z</time>
</trkpt>
<trkpt lat="49.54410932958126" lon="9.326272923499346">
<ele>376</ele>
<time>2024-05-11T16:13:56Z</time>
</trkpt>
<trkpt lat="49.54407881945371" lon="9.326212825253606">
<ele>376</ele>
<time>2024-05-11T16:13:57Z</time>
</trkpt>
<trkpt lat="49.54404830932617" lon="9.326153732836246">
<ele>376</ele>
<time>2024-05-11T16:13:58Z</time>
</trkpt>
<trkpt lat="49.54401394352317" lon="9.326089778915048">
<ele>376</ele>
<time>2024-05-11T16:13:59Z</time>
</trkpt>
<trkpt lat="49.543983433395624" lon="9.326023058965802">
<ele>376</ele>
<time>2024-05-11T16:14:00Z</time>
</trkpt>
<trkpt lat="49.54395292326808" lon="9.32594963349402">
<ele>376</ele>
<time>2024-05-11T16:14:01Z</time>
</trkpt>
<trkpt lat="49.543922413140535" lon="9.325879979878664">
<ele>376</ele>
<time>2024-05-11T16:14:02Z</time>
</trkpt>
<trkpt lat="49.54389190301299" lon="9.32580848224461">
<ele>376</ele>
<time>2024-05-11T16:14:03Z</time>
</trkpt>
<trkpt lat="49.543865164741874" lon="9.3257331289351">
<ele>376</ele>
<time>2024-05-11T16:14:04Z</time>
</trkpt>
<trkpt lat="49.54383465461433" lon="9.325654925778508">
<ele>376</ele>
<time>2024-05-11T16:14:05Z</time>
</trkpt>
<trkpt lat="49.543804144486785" lon="9.325576722621918">
<ele>376</ele>
<time>2024-05-11T16:14:06Z</time>
</trkpt>
<trkpt lat="49.54376977868378" lon="9.32549281977117">
<ele>376</ele>
<time>2024-05-11T16:14:07Z</time>
</trkpt>
<trkpt lat="49.54373926855624" lon="9.325409838929772">
<ele>376</ele>
<time>2024-05-11T16:14:08Z</time>
</trkpt>
<trkpt lat="49.54370875842869" lon="9.325327863916756">
<ele>376</ele>
<time>2024-05-11T16:14:09Z</time>
</trkpt>
<trkpt lat="49.54367824830115" lon="9.325248654931784">
<ele>376</ele>
<time>2024-05-11T16:14:10Z</time>
</trkpt>
<trkpt lat="49.54365151003003" lon="9.325169529765844">
<ele>376</ele>
<time>2024-05-11T16:14:11Z</time>
</trkpt>
<trkpt lat="49.543624855577946" lon="9.325091326609254">
<ele>376</ele>
<time>2024-05-11T16:14:12Z</time>
</trkpt>
<trkpt lat="49.5435943454504" lon="9.325015051290393">
<ele>376</ele>
<time>2024-05-11T16:14:13Z</time>
</trkpt>
<trkpt lat="49.54356760717928" lon="9.3249386921525">
<ele>376</ele>
<time>2024-05-11T16:14:14Z</time>
</trkpt>
<trkpt lat="49.5435409527272" lon="9.32486149482429">
<ele>376</ele>
<time>2024-05-11T16:14:15Z</time>
</trkpt>
<trkpt lat="49.54351421445608" lon="9.324787063524129">
<ele>376</ele>
<time>2024-05-11T16:14:16Z</time>
</trkpt>
<trkpt lat="49.54348370432854" lon="9.324711794033648">
<ele>376</ele>
<time>2024-05-11T16:14:17Z</time>
</trkpt>
<trkpt lat="49.54346082173288" lon="9.324638284742832">
<ele>376</ele>
<time>2024-05-11T16:14:18Z</time>
</trkpt>
<trkpt lat="49.54343408346176" lon="9.324568714946508">
<ele>376</ele>
<time>2024-05-11T16:14:19Z</time>
</trkpt>
<trkpt lat="49.5434112008661" lon="9.324498139321804">
<ele>376</ele>
<time>2024-05-11T16:14:20Z</time>
</trkpt>
<trkpt lat="49.543388318270445" lon="9.324430413544178">
<ele>376</ele>
<time>2024-05-11T16:14:21Z</time>
</trkpt>
<trkpt lat="49.543369291350245" lon="9.324361765757205">
<ele>376</ele>
<time>2024-05-11T16:14:22Z</time>
</trkpt>
<trkpt lat="49.543350180611014" lon="9.324294961988926">
<ele>376</ele>
<time>2024-05-11T16:14:23Z</time>
</trkpt>
<trkpt lat="49.54332729801536" lon="9.32422824203968">
<ele>376</ele>
<time>2024-05-11T16:14:24Z</time>
</trkpt>
<trkpt lat="49.543308187276125" lon="9.324165293946862">
<ele>376</ele>
<time>2024-05-11T16:14:25Z</time>
</trkpt>
<trkpt lat="49.543289160355926" lon="9.324101423844697">
<ele>376</ele>
<time>2024-05-11T16:14:26Z</time>
</trkpt>
<trkpt lat="49.543270049616694" lon="9.324038475751877">
<ele>376</ele>
<time>2024-05-11T16:14:27Z</time>
</trkpt>
<trkpt lat="49.54324716702104" lon="9.32397460564971">
<ele>376</ele>
<time>2024-05-11T16:14:28Z</time>
</trkpt>
<trkpt lat="49.54322814010084" lon="9.32391542941332">
<ele>376</ele>
<time>2024-05-11T16:14:29Z</time>
</trkpt>
<trkpt lat="49.543209029361606" lon="9.323858181014655">
<ele>376</ele>
<time>2024-05-11T16:14:30Z</time>
</trkpt>
<trkpt lat="49.543190002441406" lon="9.323801938444376">
<ele>376</ele>
<time>2024-05-11T16:14:31Z</time>
</trkpt>
<trkpt lat="49.543170891702175" lon="9.323744773864746">
<ele>376</ele>
<time>2024-05-11T16:14:32Z</time>
</trkpt>
<trkpt lat="49.5431556366384" lon="9.323691297322512">
<ele>376</ele>
<time>2024-05-11T16:14:33Z</time>
</trkpt>
<trkpt lat="49.54313652589917" lon="9.323639832437038">
<ele>376</ele>
<time>2024-05-11T16:14:34Z</time>
</trkpt>
<trkpt lat="49.5431212708354" lon="9.323590211570265">
<ele>376</ele>
<time>2024-05-11T16:14:35Z</time>
</trkpt>
<trkpt lat="49.54310601577163" lon="9.32353966869414">
<ele>376</ele>
<time>2024-05-11T16:14:36Z</time>
</trkpt>
<trkpt lat="49.54308698885143" lon="9.323485353961589">
<ele>376</ele>
<time>2024-05-11T16:14:37Z</time>
</trkpt>
<trkpt lat="49.5430678781122" lon="9.323428105562924">
<ele>376</ele>
<time>2024-05-11T16:14:38Z</time>
</trkpt>
<trkpt lat="49.543048851192" lon="9.323373790830374">
<ele>376</ele>
<time>2024-05-11T16:14:39Z</time>
</trkpt>
<trkpt lat="49.543029740452766" lon="9.323327019810677">
<ele>376</ele>
<time>2024-05-11T16:14:40Z</time>
</trkpt>
<trkpt lat="49.54301834106445" lon="9.323285026475787">
<ele>376</ele>
<time>2024-05-11T16:14:41Z</time>
</trkpt>
<trkpt lat="49.54300300218165" lon="9.323246888816357">
<ele>376</ele>
<time>2024-05-11T16:14:42Z</time>
</trkpt>
<trkpt lat="49.54298774711788" lon="9.32320212945342">
<ele>375.8</ele>
<time>2024-05-11T16:14:43Z</time>
</trkpt>
<trkpt lat="49.54296872019768" lon="9.323149658739569">
<ele>375.8</ele>
<time>2024-05-11T16:14:44Z</time>
</trkpt>
<trkpt lat="49.542953465133905" lon="9.323093332350254">
<ele>375.6</ele>
<time>2024-05-11T16:14:45Z</time>
</trkpt>
<trkpt lat="49.54293821007013" lon="9.323035161942244">
<ele>375.6</ele>
<time>2024-05-11T16:14:46Z</time>
</trkpt>
<trkpt lat="49.54292295500636" lon="9.322975147515535">
<ele>375.4</ele>
<time>2024-05-11T16:14:47Z</time>
</trkpt>
<trkpt lat="49.542911471799016" lon="9.322915049269795">
<ele>375.4</ele>
<time>2024-05-11T16:14:48Z</time>
</trkpt>
<trkpt lat="49.5429000724107" lon="9.322853023186326">
<ele>375.2</ele>
<time>2024-05-11T16:14:49Z</time>
</trkpt>
<trkpt lat="49.54289621673525" lon="9.32278823107481">
<ele>375.2</ele>
<time>2024-05-11T16:14:50Z</time>
</trkpt>
<trkpt lat="49.54289621673525" lon="9.322721427306533">
<ele>375.2</ele>
<time>2024-05-11T16:14:51Z</time>
</trkpt>
<trkpt lat="49.54290384426713" lon="9.322658479213716">
<ele>375.2</ele>
<time>2024-05-11T16:14:52Z</time>
</trkpt>
<trkpt lat="49.5429190993309" lon="9.322600308805704">
<ele>375</ele>
<time>2024-05-11T16:14:53Z</time>
</trkpt>
<trkpt lat="49.542934354394674" lon="9.322541216388345">
<ele>375</ele>
<time>2024-05-11T16:14:54Z</time>
</trkpt>
<trkpt lat="49.542953465133905" lon="9.322484889999032">
<ele>375</ele>
<time>2024-05-11T16:14:55Z</time>
</trkpt>
<trkpt lat="49.54296486452222" lon="9.322429653257132">
<ele>375</ele>
<time>2024-05-11T16:14:56Z</time>
</trkpt>
<trkpt lat="49.54298011958599" lon="9.322381960228086">
<ele>375</ele>
<time>2024-05-11T16:14:57Z</time>
</trkpt>
<trkpt lat="49.542991602793336" lon="9.322335189208388">
<ele>375</ele>
<time>2024-05-11T16:14:58Z</time>
</trkpt>
<trkpt lat="49.54300685785711" lon="9.32229327969253">
<ele>375</ele>
<time>2024-05-11T16:14:59Z</time>
</trkpt>
<trkpt lat="49.54302211292088" lon="9.322255058214068">
<ele>375</ele>
<time>2024-05-11T16:15:00Z</time>
</trkpt>
<trkpt lat="49.543029740452766" lon="9.32221122086048">
<ele>375</ele>
<time>2024-05-11T16:15:01Z</time>
</trkpt>
<trkpt lat="49.543029740452766" lon="9.322164533659816">
<ele>375</ele>
<time>2024-05-11T16:15:02Z</time>
</trkpt>
<trkpt lat="49.54301834106445" lon="9.322119690477848">
<ele>375</ele>
<time>2024-05-11T16:15:03Z</time>
</trkpt>
<trkpt lat="49.54300300218165" lon="9.32207870297134">
<ele>375.2</ele>
<time>2024-05-11T16:15:04Z</time>
</trkpt>
<trkpt lat="49.542972492054105" lon="9.322045259177685">
<ele>375.2</ele>
<time>2024-05-11T16:15:05Z</time>
</trkpt>
<trkpt lat="49.54293821007013" lon="9.322023382410409">
<ele>375.2</ele>
<time>2024-05-11T16:15:06Z</time>
</trkpt>
<trkpt lat="49.54289621673525" lon="9.322009971365333">
<ele>375.2</ele>
<time>2024-05-11T16:15:07Z</time>
</trkpt>
<trkpt lat="49.54285045154393" lon="9.321999493986368">
<ele>375.2</ele>
<time>2024-05-11T16:15:08Z</time>
</trkpt>
<trkpt lat="49.54280468635261" lon="9.321991866454482">
<ele>375.2</ele>
<time>2024-05-11T16:15:09Z</time>
</trkpt>
<trkpt lat="49.542755065485835" lon="9.321985244750977">
<ele>375.2</ele>
<time>2024-05-11T16:15:10Z</time>
</trkpt>
<trkpt lat="49.54270552843809" lon="9.321979461237788">
<ele>375.2</ele>
<time>2024-05-11T16:15:11Z</time>
</trkpt>
<trkpt lat="49.54265205189586" lon="9.321973761543632">
<ele>375.2</ele>
<time>2024-05-11T16:15:12Z</time>
</trkpt>
<trkpt lat="49.542598659172654" lon="9.321968061849477">
<ele>375.4</ele>
<time>2024-05-11T16:15:13Z</time>
</trkpt>
<trkpt lat="49.54254526644945" lon="9.32195657864213">
<ele>375.2</ele>
<time>2024-05-11T16:15:14Z</time>
</trkpt>
<trkpt lat="49.54248801805079" lon="9.321943251416087">
<ele>375.2</ele>
<time>2024-05-11T16:15:15Z</time>
</trkpt>
<trkpt lat="49.54243085347116" lon="9.321927996352317">
<ele>375</ele>
<time>2024-05-11T16:15:16Z</time>
</trkpt>
<trkpt lat="49.54236983321607" lon="9.32191651314497">
<ele>374.8</ele>
<time>2024-05-11T16:15:17Z</time>
</trkpt>
<trkpt lat="49.54230872914195" lon="9.321909891441464">
<ele>374.6</ele>
<time>2024-05-11T16:15:18Z</time>
</trkpt>
<trkpt lat="49.54224770888686" lon="9.321901258081198">
<ele>374.4</ele>
<time>2024-05-11T16:15:19Z</time>
</trkpt>
<trkpt lat="49.54217906109989" lon="9.32189648039639">
<ele>374.2</ele>
<time>2024-05-11T16:15:20Z</time>
</trkpt>
<trkpt lat="49.54211041331291" lon="9.321893630549312">
<ele>374.2</ele>
<time>2024-05-11T16:15:21Z</time>
</trkpt>
<trkpt lat="49.54204176552594" lon="9.321889858692884">
<ele>374</ele>
<time>2024-05-11T16:15:22Z</time>
</trkpt>
<trkpt lat="49.54197303391993" lon="9.321891702711582">
<ele>374</ele>
<time>2024-05-11T16:15:23Z</time>
</trkpt>
<trkpt lat="49.54190061427653" lon="9.321891702711582">
<ele>374</ele>
<time>2024-05-11T16:15:24Z</time>
</trkpt>
<trkpt lat="49.541828110814095" lon="9.321891702711582">
<ele>374</ele>
<time>2024-05-11T16:15:25Z</time>
</trkpt>
<trkpt lat="49.54175183549523" lon="9.321891702711582">
<ele>373.8</ele>
<time>2024-05-11T16:15:26Z</time>
</trkpt>
<trkpt lat="49.5416793320328" lon="9.321891702711582">
<ele>373.8</ele>
<time>2024-05-11T16:15:27Z</time>
</trkpt>
<trkpt lat="49.54160305671394" lon="9.321891702711582">
<ele>373.8</ele>
<time>2024-05-11T16:15:28Z</time>
</trkpt>
<trkpt lat="49.54152678139508" lon="9.321893630549312">
<ele>373.8</ele>
<time>2024-05-11T16:15:29Z</time>
</trkpt>
<trkpt lat="49.54145804978907" lon="9.321893630549312">
<ele>373.6</ele>
<time>2024-05-11T16:15:30Z</time>
</trkpt>
<trkpt lat="49.54138563014567" lon="9.321891702711582">
<ele>373.4</ele>
<time>2024-05-11T16:15:31Z</time>
</trkpt>
<trkpt lat="49.54132460989058" lon="9.321891702711582">
<ele>373.2</ele>
<time>2024-05-11T16:15:32Z</time>
</trkpt>
<trkpt lat="49.541271133348346" lon="9.321889858692884">
<ele>373</ele>
<time>2024-05-11T16:15:33Z</time>
</trkpt>
<trkpt lat="49.54122536815703" lon="9.321881225332618">
<ele>373</ele>
<time>2024-05-11T16:15:34Z</time>
</trkpt>
<trkpt lat="49.5411872304976" lon="9.321871753782034">
<ele>372.8</ele>
<time>2024-05-11T16:15:35Z</time>
</trkpt>
<trkpt lat="49.54115294851363" lon="9.32185834273696">
<ele>372.8</ele>
<time>2024-05-11T16:15:36Z</time>
</trkpt>
<trkpt lat="49.54112235456705" lon="9.321846943348646">
<ele>372.6</ele>
<time>2024-05-11T16:15:37Z</time>
</trkpt>
<trkpt lat="49.541095700114965" lon="9.32183830998838">
<ele>372.4</ele>
<time>2024-05-11T16:15:38Z</time>
</trkpt>
<trkpt lat="49.54107281751931" lon="9.321831688284874">
<ele>372.2</ele>
<time>2024-05-11T16:15:39Z</time>
</trkpt>
<trkpt lat="49.54104607924819" lon="9.321829760447145">
<ele>372.2</ele>
<time>2024-05-11T16:15:40Z</time>
</trkpt>
<trkpt lat="49.54102319665253" lon="9.321826910600066">
<ele>372</ele>
<time>2024-05-11T16:15:41Z</time>
</trkpt>
<trkpt lat="49.540996542200446" lon="9.321824982762337">
<ele>372</ele>
<time>2024-05-11T16:15:42Z</time>
</trkpt>
<trkpt lat="49.54097365960479" lon="9.321820205077527">
<ele>371.8</ele>
<time>2024-05-11T16:15:43Z</time>
</trkpt>
<trkpt lat="49.54095454886556" lon="9.32181542739272">
<ele>371.8</ele>
<time>2024-05-11T16:15:44Z</time>
</trkpt>
<trkpt lat="49.5409316662699" lon="9.321809727698565">
<ele>371.6</ele>
<time>2024-05-11T16:15:45Z</time>
</trkpt>
<trkpt lat="49.54090878367424" lon="9.321806877851486">
<ele>371.4</ele>
<time>2024-05-11T16:15:46Z</time>
</trkpt>
<trkpt lat="49.54088590107858" lon="9.321803022176027">
<ele>371.2</ele>
<time>2024-05-11T16:15:47Z</time>
</trkpt>
<trkpt lat="49.54086301848292" lon="9.321796400472522">
<ele>371.2</ele>
<time>2024-05-11T16:15:48Z</time>
</trkpt>
<trkpt lat="49.540840135887265" lon="9.321791622787714">
<ele>371</ele>
<time>2024-05-11T16:15:49Z</time>
</trkpt>
<trkpt lat="49.54081725329161" lon="9.321782989427447">
<ele>370.8</ele>
<time>2024-05-11T16:15:50Z</time>
</trkpt>
<trkpt lat="49.54079437069595" lon="9.321778295561671">
<ele>370.8</ele>
<time>2024-05-11T16:15:51Z</time>
</trkpt>
<trkpt lat="49.54077525995672" lon="9.32177536189556">
<ele>370.6</ele>
<time>2024-05-11T16:15:52Z</time>
</trkpt>
<trkpt lat="49.540760004892945" lon="9.32177536189556">
<ele>370.6</ele>
<time>2024-05-11T16:15:53Z</time>
</trkpt>
<trkpt lat="49.54073712229729" lon="9.321771590039134">
<ele>370.4</ele>
<time>2024-05-11T16:15:54Z</time>
</trkpt>
<trkpt lat="49.540718011558056" lon="9.321769662201405">
<ele>370.4</ele>
<time>2024-05-11T16:15:55Z</time>
</trkpt>
<trkpt lat="49.54070275649429" lon="9.321768740192056">
<ele>370.4</ele>
<time>2024-05-11T16:15:56Z</time>
</trkpt>
<trkpt lat="49.54068750143051" lon="9.321762034669518">
<ele>370.4</ele>
<time>2024-05-11T16:15:57Z</time>
</trkpt>
<trkpt lat="49.54067224636674" lon="9.321753485128284">
<ele>370.4</ele>
<time>2024-05-11T16:15:58Z</time>
</trkpt>
<trkpt lat="49.54065699130297" lon="9.32174300774932">
<ele>370.2</ele>
<time>2024-05-11T16:15:59Z</time>
</trkpt>
<trkpt lat="49.540641736239195" lon="9.321736302226782">
<ele>370.2</ele>
<time>2024-05-11T16:16:00Z</time>
</trkpt>
<trkpt lat="49.54062648117542" lon="9.321731524541974">
<ele>370</ele>
<time>2024-05-11T16:16:01Z</time>
</trkpt>
<trkpt lat="49.54061122611165" lon="9.321728674694896">
<ele>370</ele>
<time>2024-05-11T16:16:02Z</time>
</trkpt>
<trkpt lat="49.54059211537242" lon="9.32172297500074">
<ele>369.8</ele>
<time>2024-05-11T16:16:03Z</time>
</trkpt>
<trkpt lat="49.540580715984106" lon="9.321726746857166">
<ele>369.8</ele>
<time>2024-05-11T16:16:04Z</time>
</trkpt>
<trkpt lat="49.54056923277676" lon="9.321744851768017">
<ele>369.6</ele>
<time>2024-05-11T16:16:05Z</time>
</trkpt>
<trkpt lat="49.54056923277676" lon="9.321762956678867">
<ele>369.6</ele>
<time>2024-05-11T16:16:06Z</time>
</trkpt>
<trkpt lat="49.54058448784053" lon="9.32177536189556">
<ele>369.6</ele>
<time>2024-05-11T16:16:07Z</time>
</trkpt>
<trkpt lat="49.540599742904305" lon="9.321780139580367">
<ele>369.4</ele>
<time>2024-05-11T16:16:08Z</time>
</trkpt>
<trkpt lat="49.54061508178711" lon="9.321786845102906">
<ele>369.4</ele>
<time>2024-05-11T16:16:09Z</time>
</trkpt>
<trkpt lat="49.54063796438277" lon="9.321789694949985">
<ele>369.4</ele>
<time>2024-05-11T16:16:10Z</time>
</trkpt>
<trkpt lat="49.54066461883485" lon="9.321788772940636">
<ele>369.4</ele>
<time>2024-05-11T16:16:11Z</time>
</trkpt>
<trkpt lat="49.5406951289624" lon="9.321788772940636">
<ele>369.4</ele>
<time>2024-05-11T16:16:12Z</time>
</trkpt>
<trkpt lat="49.54073326662183" lon="9.321793550625443">
<ele>369.4</ele>
<time>2024-05-11T16:16:13Z</time>
</trkpt>
<trkpt lat="49.54076377674937" lon="9.321800172328947">
<ele>369.4</ele>
<time>2024-05-11T16:16:14Z</time>
</trkpt>
<trkpt lat="49.540798142552376" lon="9.321811655536294">
<ele>369.4</ele>
<time>2024-05-11T16:16:15Z</time>
</trkpt>
<trkpt lat="49.54083250835538" lon="9.3218182772398">
<ele>369.4</ele>
<time>2024-05-11T16:16:16Z</time>
</trkpt>
<trkpt lat="49.54087441787124" lon="9.321824982762337">
<ele>369.4</ele>
<time>2024-05-11T16:16:17Z</time>
</trkpt>
<trkpt lat="49.54091255553067" lon="9.321829760447145">
<ele>369.4</ele>
<time>2024-05-11T16:16:18Z</time>
</trkpt>
<trkpt lat="49.54095454886556" lon="9.32183830998838">
<ele>369.4</ele>
<time>2024-05-11T16:16:19Z</time>
</trkpt>
<trkpt lat="49.540996542200446" lon="9.321849793195724">
<ele>369.4</ele>
<time>2024-05-11T16:16:20Z</time>
</trkpt>
<trkpt lat="49.541038451716304" lon="9.321863120421767">
<ele>369.4</ele>
<time>2024-05-11T16:16:21Z</time>
</trkpt>
<trkpt lat="49.54108421690762" lon="9.321871753782034">
<ele>369.6</ele>
<time>2024-05-11T16:16:22Z</time>
</trkpt>
<trkpt lat="49.54112621024251" lon="9.321874603629112">
<ele>369.6</ele>
<time>2024-05-11T16:16:23Z</time>
</trkpt>
<trkpt lat="49.5411682035774" lon="9.32187644764781">
<ele>369.6</ele>
<time>2024-05-11T16:16:24Z</time>
</trkpt>
<trkpt lat="49.54121011309326" lon="9.32187837548554">
<ele>369.6</ele>
<time>2024-05-11T16:16:25Z</time>
</trkpt>
<trkpt lat="49.541255878284574" lon="9.32187837548554">
<ele>369.6</ele>
<time>2024-05-11T16:16:26Z</time>
</trkpt>
<trkpt lat="49.54130172729492" lon="9.321874603629112">
<ele>369.6</ele>
<time>2024-05-11T16:16:27Z</time>
</trkpt>
<trkpt lat="49.54133986495435" lon="9.32185834273696">
<ele>369.8</ele>
<time>2024-05-11T16:16:28Z</time>
</trkpt>
<trkpt lat="49.54138177447021" lon="9.321829760447145">
<ele>370</ele>
<time>2024-05-11T16:16:29Z</time>
</trkpt>
<trkpt lat="49.54140851274133" lon="9.321784917265177">
<ele>370.2</ele>
<time>2024-05-11T16:16:30Z</time>
</trkpt>
<trkpt lat="49.54141991212964" lon="9.321720041334627">
<ele>370.4</ele>
<time>2024-05-11T16:16:31Z</time>
</trkpt>
<trkpt lat="49.54141614027321" lon="9.32164284400642">
<ele>370.6</ele>
<time>2024-05-11T16:16:32Z</time>
</trkpt>
<trkpt lat="49.54140088520944" lon="9.321566568687558">
<ele>370.6</ele>
<time>2024-05-11T16:16:33Z</time>
</trkpt>
<trkpt lat="49.54138177447021" lon="9.321491215378046">
<ele>370.6</ele>
<time>2024-05-11T16:16:34Z</time>
</trkpt>
<trkpt lat="49.541355120018125" lon="9.321418711915612">
<ele>370.8</ele>
<time>2024-05-11T16:16:35Z</time>
</trkpt>
<trkpt lat="49.54132838174701" lon="9.32134528644383">
<ele>370.8</ele>
<time>2024-05-11T16:16:36Z</time>
</trkpt>
<trkpt lat="49.54129787161946" lon="9.321273788809776">
<ele>370.8</ele>
<time>2024-05-11T16:16:37Z</time>
</trkpt>
<trkpt lat="49.54126736149192" lon="9.321196507662536">
<ele>370.8</ele>
<time>2024-05-11T16:16:38Z</time>
</trkpt>
<trkpt lat="49.5412406232208" lon="9.321116376668217">
<ele>370.8</ele>
<time>2024-05-11T16:16:39Z</time>
</trkpt>
<trkpt lat="49.54121011309326" lon="9.32102962397039">
<ele>370.6</ele>
<time>2024-05-11T16:16:40Z</time>
</trkpt>
<trkpt lat="49.54117960296571" lon="9.320941865444183">
<ele>370.6</ele>
<time>2024-05-11T16:16:41Z</time>
</trkpt>
<trkpt lat="49.54114532098174" lon="9.32085033506155">
<ele>370.4</ele>
<time>2024-05-11T16:16:42Z</time>
</trkpt>
<trkpt lat="49.541114727035165" lon="9.320758804678915">
<ele>370.2</ele>
<time>2024-05-11T16:16:43Z</time>
</trkpt>
<trkpt lat="49.54108044505119" lon="9.320661490783095">
<ele>370.2</ele>
<time>2024-05-11T16:16:44Z</time>
</trkpt>
<trkpt lat="49.54104230739176" lon="9.320566104725003">
<ele>370</ele>
<time>2024-05-11T16:16:45Z</time>
</trkpt>
<trkpt lat="49.54100794158876" lon="9.320469796657562">
<ele>370</ele>
<time>2024-05-11T16:16:46Z</time>
</trkpt>
<trkpt lat="49.54096980392933" lon="9.32037348859012">
<ele>369.8</ele>
<time>2024-05-11T16:16:47Z</time>
</trkpt>
<trkpt lat="49.5409316662699" lon="9.32028003036976">
<ele>369.8</ele>
<time>2024-05-11T16:16:48Z</time>
</trkpt>
<trkpt lat="49.54089352861047" lon="9.320188499987124">
<ele>369.6</ele>
<time>2024-05-11T16:16:49Z</time>
</trkpt>
<trkpt lat="49.54085539095104" lon="9.320096969604492">
<ele>369.6</ele>
<time>2024-05-11T16:16:50Z</time>
</trkpt>
<trkpt lat="49.54081339761615" lon="9.320010133087637">
<ele>369.6</ele>
<time>2024-05-11T16:16:51Z</time>
</trkpt>
<trkpt lat="49.54076763242483" lon="9.31992530822754">
<ele>369.6</ele>
<time>2024-05-11T16:16:52Z</time>
</trkpt>
<trkpt lat="49.540721867233515" lon="9.31984132155776">
<ele>369.4</ele>
<time>2024-05-11T16:16:53Z</time>
</trkpt>
<trkpt lat="49.540679873898625" lon="9.319758340716362">
<ele>369.4</ele>
<time>2024-05-11T16:16:54Z</time>
</trkpt>
<trkpt lat="49.54063033685088" lon="9.319676365703344">
<ele>369.4</ele>
<time>2024-05-11T16:16:55Z</time>
</trkpt>
<trkpt lat="49.54058448784053" lon="9.319598162546754">
<ele>369.4</ele>
<time>2024-05-11T16:16:56Z</time>
</trkpt>
<trkpt lat="49.54053495079279" lon="9.319517109543083">
<ele>369.2</ele>
<time>2024-05-11T16:16:57Z</time>
</trkpt>
<trkpt lat="49.540485329926014" lon="9.319431278854609">
<ele>369.2</ele>
<time>2024-05-11T16:16:58Z</time>
</trkpt>
<trkpt lat="49.54043570905924" lon="9.319343520328404">
<ele>369</ele>
<time>2024-05-11T16:16:59Z</time>
</trkpt>
<trkpt lat="49.540386172011495" lon="9.319252911955118">
<ele>368.8</ele>
<time>2024-05-11T16:17:00Z</time>
</trkpt>
<trkpt lat="49.54033277928829" lon="9.319163309410214">
<ele>368.8</ele>
<time>2024-05-11T16:17:01Z</time>
</trkpt>
<trkpt lat="49.54027938656509" lon="9.319067923352122">
<ele>368.6</ele>
<time>2024-05-11T16:17:02Z</time>
</trkpt>
<trkpt lat="49.540225910022855" lon="9.318966837599874">
<ele>368.4</ele>
<time>2024-05-11T16:17:03Z</time>
</trkpt>
<trkpt lat="49.540168745443225" lon="9.318864746019244">
<ele>368.2</ele>
<time>2024-05-11T16:17:04Z</time>
</trkpt>
<trkpt lat="49.540107725188136" lon="9.318764666095376">
<ele>368</ele>
<time>2024-05-11T16:17:05Z</time>
</trkpt>
<trkpt lat="49.540046621114016" lon="9.318663580343127">
<ele>367.6</ele>
<time>2024-05-11T16:17:06Z</time>
</trkpt>
<trkpt lat="49.53998560085893" lon="9.31855863891542">
<ele>367.4</ele>
<time>2024-05-11T16:17:07Z</time>
</trkpt>
<trkpt lat="49.5399284362793" lon="9.318447997793555">
<ele>367</ele>
<time>2024-05-11T16:17:08Z</time>
</trkpt>
<trkpt lat="49.53985207714141" lon="9.318338362500072">
<ele>366.8</ele>
<time>2024-05-11T16:17:09Z</time>
</trkpt>
<trkpt lat="49.53978728502989" lon="9.318248676136136">
<ele>366.4</ele>
<time>2024-05-11T16:17:10Z</time>
</trkpt>
<trkpt lat="49.539710925891995" lon="9.318149518221617">
<ele>366.2</ele>
<time>2024-05-11T16:17:11Z</time>
</trkpt>
<trkpt lat="49.53962325118482" lon="9.318078020587564">
<ele>365.8</ele>
<time>2024-05-11T16:17:12Z</time>
</trkpt>
<trkpt lat="49.53953163698315" lon="9.318008366972208">
<ele>365.4</ele>
<time>2024-05-11T16:17:13Z</time>
</trkpt>
<trkpt lat="49.53944773413241" lon="9.317941647022964">
<ele>365</ele>
<time>2024-05-11T16:17:14Z</time>
</trkpt>
<trkpt lat="49.53934472054243" lon="9.317918764427304">
<ele>364.8</ele>
<time>2024-05-11T16:17:15Z</time>
</trkpt>
<trkpt lat="49.53926467336714" lon="9.317879620939491">
<ele>364.4</ele>
<time>2024-05-11T16:17:16Z</time>
</trkpt>
<trkpt lat="49.539157804101706" lon="9.317901581525804">
<ele>364.2</ele>
<time>2024-05-11T16:17:17Z</time>
</trkpt>
<trkpt lat="49.53906627371907" lon="9.317898731678724">
<ele>364</ele>
<time>2024-05-11T16:17:18Z</time>
</trkpt>
<trkpt lat="49.538982370868325" lon="9.31790635921061">
<ele>363.8</ele>
<time>2024-05-11T16:17:19Z</time>
</trkpt>
<trkpt lat="49.53889461234212" lon="9.31792538613081">
<ele>363.6</ele>
<time>2024-05-11T16:17:20Z</time>
</trkpt>
<trkpt lat="49.5388144813478" lon="9.31794642470777">
<ele>363.2</ele>
<time>2024-05-11T16:17:21Z</time>
</trkpt>
<trkpt lat="49.53873443417251" lon="9.31796352379024">
<ele>363</ele>
<time>2024-05-11T16:17:22Z</time>
</trkpt>
<trkpt lat="49.53865807503462" lon="9.317979784682391">
<ele>363</ele>
<time>2024-05-11T16:17:23Z</time>
</trkpt>
<trkpt lat="49.53858179971576" lon="9.317997889593244">
<ele>362.8</ele>
<time>2024-05-11T16:17:24Z</time>
</trkpt>
<trkpt lat="49.538505524396896" lon="9.318017922341824">
<ele>362.6</ele>
<time>2024-05-11T16:17:25Z</time>
</trkpt>
<trkpt lat="49.53843302093446" lon="9.318037033081056">
<ele>362.4</ele>
<time>2024-05-11T16:17:26Z</time>
</trkpt>
<trkpt lat="49.5383567456156" lon="9.318055137991903">
<ele>362.4</ele>
<time>2024-05-11T16:17:27Z</time>
</trkpt>
<trkpt lat="49.53828047029674" lon="9.318075170740483">
<ele>362.4</ele>
<time>2024-05-11T16:17:28Z</time>
</trkpt>
<trkpt lat="49.53820796683431" lon="9.318091347813606">
<ele>362.4</ele>
<time>2024-05-11T16:17:29Z</time>
</trkpt>
<trkpt lat="49.538131691515446" lon="9.318108530715108">
<ele>362.4</ele>
<time>2024-05-11T16:17:30Z</time>
</trkpt>
<trkpt lat="49.538051560521126" lon="9.318124707788227">
<ele>362.4</ele>
<time>2024-05-11T16:17:31Z</time>
</trkpt>
<trkpt lat="49.537971429526806" lon="9.318139962852">
<ele>362.4</ele>
<time>2024-05-11T16:17:32Z</time>
</trkpt>
<trkpt lat="49.53789138235152" lon="9.318155217915772">
<ele>362.4</ele>
<time>2024-05-11T16:17:33Z</time>
</trkpt>
<trkpt lat="49.53780362382531" lon="9.318171478807926">
<ele>362.2</ele>
<time>2024-05-11T16:17:34Z</time>
</trkpt>
<trkpt lat="49.537719720974565" lon="9.318191511556506">
<ele>362.2</ele>
<time>2024-05-11T16:17:35Z</time>
</trkpt>
<trkpt lat="49.5376281067729" lon="9.318211544305086">
<ele>362</ele>
<time>2024-05-11T16:17:36Z</time>
</trkpt>
<trkpt lat="49.53751369379461" lon="9.318236270919442">
<ele>361.8</ele>
<time>2024-05-11T16:17:37Z</time>
</trkpt>
<trkpt lat="49.53741830773651" lon="9.318266864866018">
<ele>361.6</ele>
<time>2024-05-11T16:17:38Z</time>
</trkpt>
<trkpt lat="49.53732677735388" lon="9.31830022484064">
<ele>361.4</ele>
<time>2024-05-11T16:17:39Z</time>
</trkpt>
<trkpt lat="49.53723139129579" lon="9.318298297002912">
<ele>361</ele>
<time>2024-05-11T16:17:40Z</time>
</trkpt>
<trkpt lat="49.53713986091316" lon="9.318318329751492">
<ele>360.8</ele>
<time>2024-05-11T16:17:41Z</time>
</trkpt>
<trkpt lat="49.53705595806241" lon="9.318351689726114">
<ele>360.4</ele>
<time>2024-05-11T16:17:42Z</time>
</trkpt>
<trkpt lat="49.536964343860745" lon="9.318369794636965">
<ele>360</ele>
<time>2024-05-11T16:17:43Z</time>
</trkpt>
<trkpt lat="49.53688806854189" lon="9.318387983366849">
<ele>359.6</ele>
<time>2024-05-11T16:17:44Z</time>
</trkpt>
<trkpt lat="49.53681179322302" lon="9.318405082449315">
<ele>359.2</ele>
<time>2024-05-11T16:17:45Z</time>
</trkpt>
<trkpt lat="49.53673928976059" lon="9.31842134334147">
<ele>359</ele>
<time>2024-05-11T16:17:46Z</time>
</trkpt>
<trkpt lat="49.536670641973615" lon="9.318433748558164">
<ele>358.8</ele>
<time>2024-05-11T16:17:47Z</time>
</trkpt>
<trkpt lat="49.53661339357495" lon="9.318445147946475">
<ele>358.4</ele>
<time>2024-05-11T16:17:48Z</time>
</trkpt>
<trkpt lat="49.53656000085175" lon="9.318453781306744">
<ele>358.4</ele>
<time>2024-05-11T16:17:49Z</time>
</trkpt>
<trkpt lat="49.536514235660434" lon="9.318465180695055">
<ele>358.2</ele>
<time>2024-05-11T16:17:50Z</time>
</trkpt>
<trkpt lat="49.53646461479366" lon="9.318474736064672">
<ele>358.2</ele>
<time>2024-05-11T16:17:51Z</time>
</trkpt>
<trkpt lat="49.536415077745914" lon="9.318483285605907">
<ele>358.2</ele>
<time>2024-05-11T16:17:52Z</time>
</trkpt>
<trkpt lat="49.5363693125546" lon="9.318491918966174">
<ele>358.4</ele>
<time>2024-05-11T16:17:53Z</time>
</trkpt>
<trkpt lat="49.53631969168782" lon="9.31849954649806">
<ele>358.4</ele>
<time>2024-05-11T16:17:54Z</time>
</trkpt>
<trkpt lat="49.53627007082105" lon="9.318511951714754">
<ele>358.6</ele>
<time>2024-05-11T16:17:55Z</time>
</trkpt>
<trkpt lat="49.53622430562973" lon="9.318523351103067">
<ele>358.6</ele>
<time>2024-05-11T16:17:56Z</time>
</trkpt>
<trkpt lat="49.536178540438414" lon="9.318532906472685">
<ele>358.8</ele>
<time>2024-05-11T16:17:57Z</time>
</trkpt>
<trkpt lat="49.53612891957164" lon="9.318543383851647">
<ele>359</ele>
<time>2024-05-11T16:17:58Z</time>
</trkpt>
<trkpt lat="49.536079382523894" lon="9.318554867058992">
<ele>359</ele>
<time>2024-05-11T16:17:59Z</time>
</trkpt>
<trkpt lat="49.53602976165712" lon="9.318568194285035">
<ele>359.2</ele>
<time>2024-05-11T16:18:00Z</time>
</trkpt>
<trkpt lat="49.535980224609375" lon="9.318578671664">
<ele>359.4</ele>
<time>2024-05-11T16:18:01Z</time>
</trkpt>
<trkpt lat="49.5359306037426" lon="9.318588227033615">
<ele>359.6</ele>
<time>2024-05-11T16:18:02Z</time>
</trkpt>
<trkpt lat="49.535880982875824" lon="9.31859870441258">
<ele>359.8</ele>
<time>2024-05-11T16:18:03Z</time>
</trkpt>
<trkpt lat="49.53583521768451" lon="9.318606331944466">
<ele>360.2</ele>
<time>2024-05-11T16:18:04Z</time>
</trkpt>
<trkpt lat="49.53578559681773" lon="9.3186148814857">
<ele>360.4</ele>
<time>2024-05-11T16:18:05Z</time>
</trkpt>
<trkpt lat="49.535743687301874" lon="9.318623514845967">
<ele>360.6</ele>
<time>2024-05-11T16:18:06Z</time>
</trkpt>
<trkpt lat="49.535701693966985" lon="9.31863491423428">
<ele>360.8</ele>
<time>2024-05-11T16:18:07Z</time>
</trkpt>
<trkpt lat="49.53565592877567" lon="9.318646397441626">
<ele>361</ele>
<time>2024-05-11T16:18:08Z</time>
</trkpt>
<trkpt lat="49.53561779111624" lon="9.318659724667668">
<ele>361</ele>
<time>2024-05-11T16:18:09Z</time>
</trkpt>
<trkpt lat="49.53557579778135" lon="9.318671207875012">
<ele>361.2</ele>
<time>2024-05-11T16:18:10Z</time>
</trkpt>
<trkpt lat="49.53553766012192" lon="9.318679757416248">
<ele>361.4</ele>
<time>2024-05-11T16:18:11Z</time>
</trkpt>
<trkpt lat="49.53549952246249" lon="9.318684535101056">
<ele>361.4</ele>
<time>2024-05-11T16:18:12Z</time>
</trkpt>
<trkpt lat="49.53546138480306" lon="9.318690234795213">
<ele>361.4</ele>
<time>2024-05-11T16:18:13Z</time>
</trkpt>
<trkpt lat="49.53541561961174" lon="9.31869694031775">
<ele>361.6</ele>
<time>2024-05-11T16:18:14Z</time>
</trkpt>
<trkpt lat="49.53536985442042" lon="9.318706495687366">
<ele>361.6</ele>
<time>2024-05-11T16:18:15Z</time>
</trkpt>
<trkpt lat="49.53532023355365" lon="9.318713117390873">
<ele>361.6</ele>
<time>2024-05-11T16:18:16Z</time>
</trkpt>
<trkpt lat="49.53527061268687" lon="9.318719822913408">
<ele>361.6</ele>
<time>2024-05-11T16:18:17Z</time>
</trkpt>
<trkpt lat="49.53522107563913" lon="9.318726528435946">
<ele>361.4</ele>
<time>2024-05-11T16:18:18Z</time>
</trkpt>
<trkpt lat="49.535167682915926" lon="9.318733150139453">
<ele>361.4</ele>
<time>2024-05-11T16:18:19Z</time>
</trkpt>
<trkpt lat="49.53511420637369" lon="9.318739855661988">
<ele>361.2</ele>
<time>2024-05-11T16:18:20Z</time>
</trkpt>
<trkpt lat="49.53505704179406" lon="9.318743627518415">
<ele>361</ele>
<time>2024-05-11T16:18:21Z</time>
</trkpt>
<trkpt lat="49.53499602153897" lon="9.318744633346796">
<ele>360.8</ele>
<time>2024-05-11T16:18:22Z</time>
</trkpt>
<trkpt lat="49.53493491746485" lon="9.318746561184524">
<ele>360.8</ele>
<time>2024-05-11T16:18:23Z</time>
</trkpt>
<trkpt lat="49.53487389720976" lon="9.318750333040953">
<ele>360.6</ele>
<time>2024-05-11T16:18:24Z</time>
</trkpt>
<trkpt lat="49.53480910509825" lon="9.31875703856349">
<ele>360.4</ele>
<time>2024-05-11T16:18:25Z</time>
</trkpt>
<trkpt lat="49.5347442291677" lon="9.318759888410568">
<ele>360.4</ele>
<time>2024-05-11T16:18:26Z</time>
</trkpt>
<trkpt lat="49.534675581380725" lon="9.318763660266995">
<ele>360.2</ele>
<time>2024-05-11T16:18:27Z</time>
</trkpt>
<trkpt lat="49.53460693359375" lon="9.318766593933104">
<ele>360</ele>
<time>2024-05-11T16:18:28Z</time>
</trkpt>
<trkpt lat="49.53453820198774" lon="9.318771287798882">
<ele>359.8</ele>
<time>2024-05-11T16:18:29Z</time>
</trkpt>
<trkpt lat="49.53447340987623" lon="9.31877799332142">
<ele>359.6</ele>
<time>2024-05-11T16:18:30Z</time>
</trkpt>
<trkpt lat="49.53440467827022" lon="9.318784698843956">
<ele>359.4</ele>
<time>2024-05-11T16:18:31Z</time>
</trkpt>
<trkpt lat="49.534339886158705" lon="9.318790398538113">
<ele>359.2</ele>
<time>2024-05-11T16:18:32Z</time>
</trkpt>
<trkpt lat="49.53427501022816" lon="9.318793248385193">
<ele>359</ele>
<time>2024-05-11T16:18:33Z</time>
</trkpt>
<trkpt lat="49.53421013429761" lon="9.31879802607">
<ele>358.8</ele>
<time>2024-05-11T16:18:34Z</time>
</trkpt>
<trkpt lat="49.53414534218609" lon="9.318803725764155">
<ele>358.6</ele>
<time>2024-05-11T16:18:35Z</time>
</trkpt>
<trkpt lat="49.53408423811197" lon="9.318806575611234">
<ele>358.6</ele>
<time>2024-05-11T16:18:36Z</time>
</trkpt>
<trkpt lat="49.53402321785688" lon="9.3188152089715">
<ele>358.6</ele>
<time>2024-05-11T16:18:37Z</time>
</trkpt>
<trkpt lat="49.533962197601795" lon="9.318821830675006">
<ele>358.4</ele>
<time>2024-05-11T16:18:38Z</time>
</trkpt>
<trkpt lat="49.533901177346706" lon="9.318826608359814">
<ele>358.4</ele>
<time>2024-05-11T16:18:39Z</time>
</trkpt>
<trkpt lat="49.53385155647993" lon="9.31883616372943">
<ele>358.2</ele>
<time>2024-05-11T16:18:40Z</time>
</trkpt>
<trkpt lat="49.53379816375673" lon="9.318864746019244">
<ele>358</ele>
<time>2024-05-11T16:18:41Z</time>
</trkpt>
<trkpt lat="49.5337600260973" lon="9.31891822256148">
<ele>358</ele>
<time>2024-05-11T16:18:42Z</time>
</trkpt>
<trkpt lat="49.53373328782618" lon="9.318986870348454">
<ele>357.8</ele>
<time>2024-05-11T16:18:43Z</time>
</trkpt>
<trkpt lat="49.533725660294294" lon="9.319056440144776">
<ele>357.6</ele>
<time>2024-05-11T16:18:44Z</time>
</trkpt>
<trkpt lat="49.53372951596975" lon="9.319127015769482">
<ele>357.6</ele>
<time>2024-05-11T16:18:45Z</time>
</trkpt>
<trkpt lat="49.53374091535807" lon="9.319196669384835">
<ele>357.6</ele>
<time>2024-05-11T16:18:46Z</time>
</trkpt>
<trkpt lat="49.53375239856541" lon="9.31926623918116">
<ele>357.4</ele>
<time>2024-05-11T16:18:47Z</time>
</trkpt>
<trkpt lat="49.5337600260973" lon="9.319334970787168">
<ele>357.4</ele>
<time>2024-05-11T16:18:48Z</time>
</trkpt>
<trkpt lat="49.53376388177276" lon="9.31940646842122">
<ele>357.4</ele>
<time>2024-05-11T16:18:49Z</time>
</trkpt>
<trkpt lat="49.53377150930464" lon="9.319475116208196">
<ele>357.4</ele>
<time>2024-05-11T16:18:50Z</time>
</trkpt>
<trkpt lat="49.533786764368415" lon="9.319542841985822">
<ele>357.4</ele>
<time>2024-05-11T16:18:51Z</time>
</trkpt>
<trkpt lat="49.5337943919003" lon="9.319608639925718">
<ele>357.6</ele>
<time>2024-05-11T16:18:52Z</time>
</trkpt>
<trkpt lat="49.533805791288614" lon="9.319676365703344">
<ele>357.6</ele>
<time>2024-05-11T16:18:53Z</time>
</trkpt>
<trkpt lat="49.5338134188205" lon="9.31974501349032">
<ele>357.8</ele>
<time>2024-05-11T16:18:54Z</time>
</trkpt>
<trkpt lat="49.53382867388427" lon="9.319813661277294">
<ele>358</ele>
<time>2024-05-11T16:18:55Z</time>
</trkpt>
<trkpt lat="49.53384015709162" lon="9.31988138705492">
<ele>358</ele>
<time>2024-05-11T16:18:56Z</time>
</trkpt>
<trkpt lat="49.53385155647993" lon="9.319950034841897">
<ele>358.2</ele>
<time>2024-05-11T16:18:57Z</time>
</trkpt>
<trkpt lat="49.5338668115437" lon="9.320018766447902">
<ele>358.4</ele>
<time>2024-05-11T16:18:58Z</time>
</trkpt>
<trkpt lat="49.53387829475105" lon="9.320083558559418">
<ele>358.6</ele>
<time>2024-05-11T16:19:00Z</time>
</trkpt>
<trkpt lat="49.533901177346706" lon="9.320206604897976">
<ele>358.4</ele>
<time>2024-05-11T16:19:01Z</time>
</trkpt>
<trkpt lat="49.533904949203134" lon="9.320268630981444">
<ele>358.6</ele>
<time>2024-05-11T16:19:02Z</time>
</trkpt>
<trkpt lat="49.53391257673502" lon="9.32033342309296">
<ele>358.6</ele>
<time>2024-05-11T16:19:03Z</time>
</trkpt>
<trkpt lat="49.533927915617824" lon="9.320400226861238">
<ele>358.8</ele>
<time>2024-05-11T16:19:04Z</time>
</trkpt>
<trkpt lat="49.5339431706816" lon="9.320467868819833">
<ele>359</ele>
<time>2024-05-11T16:19:05Z</time>
</trkpt>
<trkpt lat="49.53395842574537" lon="9.320538444444535">
<ele>359.2</ele>
<time>2024-05-11T16:19:06Z</time>
</trkpt>
<trkpt lat="49.53397368080914" lon="9.320608098059893">
<ele>359.4</ele>
<time>2024-05-11T16:19:07Z</time>
</trkpt>
<trkpt lat="49.53398893587291" lon="9.320678673684595">
<ele>359.6</ele>
<time>2024-05-11T16:19:08Z</time>
</trkpt>
<trkpt lat="49.534000335261226" lon="9.320748327299953">
<ele>359.8</ele>
<time>2024-05-11T16:19:09Z</time>
</trkpt>
<trkpt lat="49.534015590325" lon="9.320817897096276">
<ele>360</ele>
<time>2024-05-11T16:19:10Z</time>
</trkpt>
<trkpt lat="49.53402707353234" lon="9.320886544883251">
<ele>360</ele>
<time>2024-05-11T16:19:11Z</time>
</trkpt>
<trkpt lat="49.534038472920656" lon="9.320953348651528">
<ele>360.2</ele>
<time>2024-05-11T16:19:12Z</time>
</trkpt>
<trkpt lat="49.534049956128" lon="9.321021996438503">
<ele>360.2</ele>
<time>2024-05-11T16:19:13Z</time>
</trkpt>
<trkpt lat="49.53406521119177" lon="9.321088716387749">
<ele>360.4</ele>
<time>2024-05-11T16:19:14Z</time>
</trkpt>
<trkpt lat="49.53407661058009" lon="9.321151664480569">
<ele>360.4</ele>
<time>2024-05-11T16:19:15Z</time>
</trkpt>
<trkpt lat="49.53409194946289" lon="9.321213690564036">
<ele>360.4</ele>
<time>2024-05-11T16:19:16Z</time>
</trkpt>
<trkpt lat="49.53410720452666" lon="9.321274710819123">
<ele>360.4</ele>
<time>2024-05-11T16:19:17Z</time>
</trkpt>
<trkpt lat="49.534122459590435" lon="9.321334809064863">
<ele>360.4</ele>
<time>2024-05-11T16:19:18Z</time>
</trkpt>
<trkpt lat="49.53413771465421" lon="9.321396751329305">
<ele>360.4</ele>
<time>2024-05-11T16:19:19Z</time>
</trkpt>
<trkpt lat="49.53415296971798" lon="9.321458777412772">
<ele>360.4</ele>
<time>2024-05-11T16:19:20Z</time>
</trkpt>
<trkpt lat="49.53416822478175" lon="9.321524575352669">
<ele>360.4</ele>
<time>2024-05-11T16:19:21Z</time>
</trkpt>
<trkpt lat="49.53418347984552" lon="9.321595150977371">
<ele>360.6</ele>
<time>2024-05-11T16:19:22Z</time>
</trkpt>
<trkpt lat="49.53420250676572" lon="9.321664804592729">
<ele>360.6</ele>
<time>2024-05-11T16:19:23Z</time>
</trkpt>
<trkpt lat="49.534221617504954" lon="9.321738230064511">
<ele>360.6</ele>
<time>2024-05-11T16:19:24Z</time>
</trkpt>
<trkpt lat="49.53423687256873" lon="9.321811655536294">
<ele>360.6</ele>
<time>2024-05-11T16:19:25Z</time>
</trkpt>
<trkpt lat="49.5342521276325" lon="9.321887008845806">
<ele>360.4</ele>
<time>2024-05-11T16:19:26Z</time>
</trkpt>
<trkpt lat="49.53426361083984" lon="9.32195850647986">
<ele>360.4</ele>
<time>2024-05-11T16:19:27Z</time>
</trkpt>
<trkpt lat="49.53427501022816" lon="9.322031931951642">
<ele>360.4</ele>
<time>2024-05-11T16:19:28Z</time>
</trkpt>
<trkpt lat="49.5342864934355" lon="9.322101585566998">
<ele>360.4</ele>
<time>2024-05-11T16:19:29Z</time>
</trkpt>
<trkpt lat="49.534297892823815" lon="9.32217115536332">
<ele>360.4</ele>
<time>2024-05-11T16:19:30Z</time>
</trkpt>
<trkpt lat="49.53431314788759" lon="9.322237959131598">
<ele>360.2</ele>
<time>2024-05-11T16:19:31Z</time>
</trkpt>
<trkpt lat="49.53432840295136" lon="9.322304679080844">
<ele>360.4</ele>
<time>2024-05-11T16:19:32Z</time>
</trkpt>
<trkpt lat="49.534339886158705" lon="9.322366705164312">
<ele>360.4</ele>
<time>2024-05-11T16:19:33Z</time>
</trkpt>
<trkpt lat="49.53435514122248" lon="9.322424875572324">
<ele>360.4</ele>
<time>2024-05-11T16:19:34Z</time>
</trkpt>
<trkpt lat="49.53436276875436" lon="9.322483045980334">
<ele>360.4</ele>
<time>2024-05-11T16:19:35Z</time>
</trkpt>
<trkpt lat="49.53437039628625" lon="9.322538366541266">
<ele>360.4</ele>
<time>2024-05-11T16:19:36Z</time>
</trkpt>
<trkpt lat="49.534378023818135" lon="9.3225936871022">
<ele>360.4</ele>
<time>2024-05-11T16:19:37Z</time>
</trkpt>
<trkpt lat="49.53438179567456" lon="9.32264800183475">
<ele>360.4</ele>
<time>2024-05-11T16:19:38Z</time>
</trkpt>
<trkpt lat="49.53439327888191" lon="9.322705250233412">
<ele>360.4</ele>
<time>2024-05-11T16:19:39Z</time>
</trkpt>
<trkpt lat="49.53440467827022" lon="9.322761492803693">
<ele>360.4</ele>
<time>2024-05-11T16:19:40Z</time>
</trkpt>
<trkpt lat="49.53441230580211" lon="9.322818741202354">
<ele>360.6</ele>
<time>2024-05-11T16:19:41Z</time>
</trkpt>
<trkpt lat="49.53441993333399" lon="9.322879761457443">
<ele>360.6</ele>
<time>2024-05-11T16:19:42Z</time>
</trkpt>
<trkpt lat="49.53442378900945" lon="9.32294170372188">
<ele>360.8</ele>
<time>2024-05-11T16:19:43Z</time>
</trkpt>
<trkpt lat="49.53442756086588" lon="9.32300180196762">
<ele>360.8</ele>
<time>2024-05-11T16:19:44Z</time>
</trkpt>
<trkpt lat="49.53443141654134" lon="9.32306282222271">
<ele>361</ele>
<time>2024-05-11T16:19:45Z</time>
</trkpt>
<trkpt lat="49.53443141654134" lon="9.323126776143909">
<ele>361</ele>
<time>2024-05-11T16:19:46Z</time>
</trkpt>
<trkpt lat="49.5344352722168" lon="9.32318494655192">
<ele>361</ele>
<time>2024-05-11T16:19:47Z</time>
</trkpt>
<trkpt lat="49.534439044073224" lon="9.323246888816357">
<ele>360.8</ele>
<time>2024-05-11T16:19:48Z</time>
</trkpt>
<trkpt lat="49.53444667160511" lon="9.32330321520567">
<ele>360.8</ele>
<time>2024-05-11T16:19:49Z</time>
</trkpt>
<trkpt lat="49.53445052728057" lon="9.3233603797853">
<ele>360.8</ele>
<time>2024-05-11T16:19:50Z</time>
</trkpt>
<trkpt lat="49.53446192666888" lon="9.323412850499151">
<ele>360.6</ele>
<time>2024-05-11T16:19:51Z</time>
</trkpt>
<trkpt lat="49.53446955420077" lon="9.323468171060084">
<ele>360.6</ele>
<time>2024-05-11T16:19:52Z</time>
</trkpt>
<trkpt lat="49.53448103740811" lon="9.323523491621016">
<ele>360.4</ele>
<time>2024-05-11T16:19:53Z</time>
</trkpt>
<trkpt lat="49.53448866494" lon="9.32357688434422">
<ele>360.4</ele>
<time>2024-05-11T16:19:54Z</time>
</trkpt>
<trkpt lat="49.53449243679643" lon="9.323630277067425">
<ele>360.2</ele>
<time>2024-05-11T16:19:55Z</time>
</trkpt>
<trkpt lat="49.534496292471886" lon="9.323681825771928">
<ele>360.2</ele>
<time>2024-05-11T16:19:56Z</time>
</trkpt>
<trkpt lat="49.534496292471886" lon="9.323728512972592">
<ele>360.2</ele>
<time>2024-05-11T16:19:57Z</time>
</trkpt>
<trkpt lat="49.53450392000377" lon="9.323778133839369">
<ele>360.2</ele>
<time>2024-05-11T16:19:58Z</time>
</trkpt>
<trkpt lat="49.53451154753566" lon="9.323821971192956">
<ele>360</ele>
<time>2024-05-11T16:19:59Z</time>
</trkpt>
<trkpt lat="49.53451154753566" lon="9.323862958699465">
<ele>359.8</ele>
<time>2024-05-11T16:20:00Z</time>
</trkpt>
<trkpt lat="49.53451154753566" lon="9.323904952034354">
<ele>359.8</ele>
<time>2024-05-11T16:20:01Z</time>
</trkpt>
<trkpt lat="49.53450392000377" lon="9.323943089693785">
<ele>359.8</ele>
<time>2024-05-11T16:20:02Z</time>
</trkpt>
<trkpt lat="49.53448480926454" lon="9.32397359982133">
<ele>359.6</ele>
<time>2024-05-11T16:20:03Z</time>
</trkpt>
<trkpt lat="49.53446192666888" lon="9.323994554579258">
<ele>359.6</ele>
<time>2024-05-11T16:20:04Z</time>
</trkpt>
<trkpt lat="49.53443141654134" lon="9.324003187939525">
<ele>359.6</ele>
<time>2024-05-11T16:20:05Z</time>
</trkpt>
<trkpt lat="49.534397050738335" lon="9.324009893462062">
<ele>359.4</ele>
<time>2024-05-11T16:20:06Z</time>
</trkpt>
<trkpt lat="49.53435514122248" lon="9.32401173748076">
<ele>359.4</ele>
<time>2024-05-11T16:20:07Z</time>
</trkpt>
<trkpt lat="49.53430937603116" lon="9.324014587327838">
<ele>359.2</ele>
<time>2024-05-11T16:20:08Z</time>
</trkpt>
<trkpt lat="49.534255899488926" lon="9.324018443003297">
<ele>359.2</ele>
<time>2024-05-11T16:20:09Z</time>
</trkpt>
<trkpt lat="49.53419487923384" lon="9.324021292850375">
<ele>359</ele>
<time>2024-05-11T16:20:10Z</time>
</trkpt>
<trkpt lat="49.53413771465421" lon="9.324023220688105">
<ele>358.8</ele>
<time>2024-05-11T16:20:11Z</time>
</trkpt>
<trkpt lat="49.534080466255546" lon="9.324023220688105">
<ele>358.6</ele>
<time>2024-05-11T16:20:12Z</time>
</trkpt>
<trkpt lat="49.53402321785688" lon="9.324023220688105">
<ele>358.2</ele>
<time>2024-05-11T16:20:13Z</time>
</trkpt>
<trkpt lat="49.533962197601795" lon="9.324033698067067">
<ele>358</ele>
<time>2024-05-11T16:20:14Z</time>
</trkpt>
<trkpt lat="49.53390880487859" lon="9.324038475751877">
<ele>357.6</ele>
<time>2024-05-11T16:20:15Z</time>
</trkpt>
<trkpt lat="49.53385918401182" lon="9.324047025293112">
<ele>357.4</ele>
<time>2024-05-11T16:20:16Z</time>
</trkpt>
<trkpt lat="49.53381727449596" lon="9.324054652824998">
<ele>357</ele>
<time>2024-05-11T16:20:17Z</time>
</trkpt>
<trkpt lat="49.53377913683653" lon="9.324060436338186">
<ele>356.6</ele>
<time>2024-05-11T16:20:18Z</time>
</trkpt>
<trkpt lat="49.533744771033525" lon="9.324065130203962">
<ele>356.2</ele>
<time>2024-05-11T16:20:19Z</time>
</trkpt>
<trkpt lat="49.533706633374095" lon="9.324068063870072">
<ele>355.8</ele>
<time>2024-05-11T16:20:20Z</time>
</trkpt>
<trkpt lat="49.533668495714664" lon="9.32406990788877">
<ele>355.4</ele>
<time>2024-05-11T16:20:21Z</time>
</trkpt>
<trkpt lat="49.533630358055234" lon="9.324074685573578">
<ele>355</ele>
<time>2024-05-11T16:20:22Z</time>
</trkpt>
<trkpt lat="49.53359599225223" lon="9.324081391096115">
<ele>354.4</ele>
<time>2024-05-11T16:20:23Z</time>
</trkpt>
<trkpt lat="49.5335578545928" lon="9.32409186847508">
<ele>354</ele>
<time>2024-05-11T16:20:24Z</time>
</trkpt>
<trkpt lat="49.53351971693337" lon="9.324099496006966">
<ele>353.6</ele>
<time>2024-05-11T16:20:25Z</time>
</trkpt>
<trkpt lat="49.53348157927394" lon="9.3241080455482">
<ele>353</ele>
<time>2024-05-11T16:20:26Z</time>
</trkpt>
<trkpt lat="49.533447213470936" lon="9.324116678908467">
<ele>352.6</ele>
<time>2024-05-11T16:20:27Z</time>
</trkpt>
<trkpt lat="49.53341670334339" lon="9.324123300611973">
<ele>352.2</ele>
<time>2024-05-11T16:20:28Z</time>
</trkpt>
<trkpt lat="49.533389965072274" lon="9.32412807829678">
<ele>351.8</ele>
<time>2024-05-11T16:20:29Z</time>
</trkpt>
<trkpt lat="49.53336331062019" lon="9.32413000613451">
<ele>351.4</ele>
<time>2024-05-11T16:20:30Z</time>
</trkpt>
<trkpt lat="49.53333280049264" lon="9.324138639494777">
<ele>351</ele>
<time>2024-05-11T16:20:31Z</time>
</trkpt>
<trkpt lat="49.53329843468964" lon="9.324139561504126">
<ele>350.6</ele>
<time>2024-05-11T16:20:32Z</time>
</trkpt>
<trkpt lat="49.53325652517378" lon="9.324145261198282">
<ele>350.4</ele>
<time>2024-05-11T16:20:33Z</time>
</trkpt>
<trkpt lat="49.533214531838894" lon="9.32415196672082">
<ele>350</ele>
<time>2024-05-11T16:20:34Z</time>
</trkpt>
<trkpt lat="49.53316491097212" lon="9.324163366109133">
<ele>349.8</ele>
<time>2024-05-11T16:20:35Z</time>
</trkpt>
<trkpt lat="49.5331191457808" lon="9.324178621172903">
<ele>349.4</ele>
<time>2024-05-11T16:20:36Z</time>
</trkpt>
<trkpt lat="49.533073380589485" lon="9.32419203221798">
<ele>349.2</ele>
<time>2024-05-11T16:20:37Z</time>
</trkpt>
<trkpt lat="49.53301998786628" lon="9.324205359444022">
<ele>348.8</ele>
<time>2024-05-11T16:20:38Z</time>
</trkpt>
<trkpt lat="49.53296273946762" lon="9.32421206496656">
<ele>348.6</ele>
<time>2024-05-11T16:20:39Z</time>
</trkpt>
<trkpt lat="49.53290557488799" lon="9.324219692498446">
<ele>348.4</ele>
<time>2024-05-11T16:20:40Z</time>
</trkpt>
<trkpt lat="49.53284832648933" lon="9.324226314201953">
<ele>348.2</ele>
<time>2024-05-11T16:20:41Z</time>
</trkpt>
<trkpt lat="49.53278730623424" lon="9.324239725247024">
<ele>348</ele>
<time>2024-05-11T16:20:42Z</time>
</trkpt>
<trkpt lat="49.53272628597915" lon="9.32424827478826">
<ele>347.8</ele>
<time>2024-05-11T16:20:43Z</time>
</trkpt>
<trkpt lat="49.532657554373145" lon="9.324256824329495">
<ele>347.6</ele>
<time>2024-05-11T16:20:44Z</time>
</trkpt>
<trkpt lat="49.53258890658617" lon="9.324266379699113">
<ele>347.4</ele>
<time>2024-05-11T16:20:45Z</time>
</trkpt>
<trkpt lat="49.532520258799195" lon="9.324277862906456">
<ele>347.2</ele>
<time>2024-05-11T16:20:46Z</time>
</trkpt>
<trkpt lat="49.53245161101222" lon="9.32428834028542">
<ele>347</ele>
<time>2024-05-11T16:20:47Z</time>
</trkpt>
<trkpt lat="49.53238673508167" lon="9.324296889826655">
<ele>346.8</ele>
<time>2024-05-11T16:20:48Z</time>
</trkpt>
<trkpt lat="49.5323180872947" lon="9.324308373034">
<ele>346.6</ele>
<time>2024-05-11T16:20:49Z</time>
</trkpt>
<trkpt lat="49.53225321136415" lon="9.324319772422314">
<ele>346.4</ele>
<time>2024-05-11T16:20:50Z</time>
</trkpt>
<trkpt lat="49.532184563577175" lon="9.324330249801278">
<ele>346.2</ele>
<time>2024-05-11T16:20:51Z</time>
</trkpt>
<trkpt lat="49.53211968764663" lon="9.324343660846353">
<ele>346</ele>
<time>2024-05-11T16:20:52Z</time>
</trkpt>
<trkpt lat="49.53205489553511" lon="9.324356988072395">
<ele>345.8</ele>
<time>2024-05-11T16:20:53Z</time>
</trkpt>
<trkpt lat="49.53199001960456" lon="9.32436654344201">
<ele>345.6</ele>
<time>2024-05-11T16:20:54Z</time>
</trkpt>
<trkpt lat="49.531925143674016" lon="9.324375092983246">
<ele>345.6</ele>
<time>2024-05-11T16:20:55Z</time>
</trkpt>
<trkpt lat="49.5318603515625" lon="9.32438850402832">
<ele>345.4</ele>
<time>2024-05-11T16:20:56Z</time>
</trkpt>
<trkpt lat="49.53179547563195" lon="9.324399903416634">
<ele>345.2</ele>
<time>2024-05-11T16:20:57Z</time>
</trkpt>
<trkpt lat="49.53173445537686" lon="9.324410380795598">
<ele>344.8</ele>
<time>2024-05-11T16:20:58Z</time>
</trkpt>
<trkpt lat="49.53166957944632" lon="9.324421864002945">
<ele>344.8</ele>
<time>2024-05-11T16:20:59Z</time>
</trkpt>
<trkpt lat="49.53160470351577" lon="9.324433263391256">
<ele>344.4</ele>
<time>2024-05-11T16:21:00Z</time>
</trkpt>
<trkpt lat="49.53153991140425" lon="9.3244447465986">
<ele>344.2</ele>
<time>2024-05-11T16:21:01Z</time>
</trkpt>
<trkpt lat="49.531475035473704" lon="9.324455223977566">
<ele>344</ele>
<time>2024-05-11T16:21:02Z</time>
</trkpt>
<trkpt lat="49.53140638768673" lon="9.32446662336588">
<ele>343.8</ele>
<time>2024-05-11T16:21:03Z</time>
</trkpt>
<trkpt lat="49.53134151175618" lon="9.324478106573224">
<ele>343.4</ele>
<time>2024-05-11T16:21:04Z</time>
</trkpt>
<trkpt lat="49.53126900829375" lon="9.324491433799269">
<ele>343.2</ele>
<time>2024-05-11T16:21:05Z</time>
</trkpt>
<trkpt lat="49.531196588650346" lon="9.32450484484434">
<ele>343</ele>
<time>2024-05-11T16:21:06Z</time>
</trkpt>
<trkpt lat="49.53112408518791" lon="9.324521943926811">
<ele>342.6</ele>
<time>2024-05-11T16:21:07Z</time>
</trkpt>
<trkpt lat="49.53105158172548" lon="9.324540132656692">
<ele>342.4</ele>
<time>2024-05-11T16:21:08Z</time>
</trkpt>
<trkpt lat="49.53097145073116" lon="9.324549604207276">
<ele>342.2</ele>
<time>2024-05-11T16:21:09Z</time>
</trkpt>
<trkpt lat="49.5308951754123" lon="9.324563015252352">
<ele>342</ele>
<time>2024-05-11T16:21:10Z</time>
</trkpt>
<trkpt lat="49.53081890009344" lon="9.324576342478396">
<ele>341.8</ele>
<time>2024-05-11T16:21:11Z</time>
</trkpt>
<trkpt lat="49.530742624774575" lon="9.324589669704435">
<ele>341.6</ele>
<time>2024-05-11T16:21:12Z</time>
</trkpt>
<trkpt lat="49.530666349455714" lon="9.324602074921131">
<ele>341.2</ele>
<time>2024-05-11T16:21:13Z</time>
</trkpt>
<trkpt lat="49.53058999031782" lon="9.324615402147174">
<ele>341</ele>
<time>2024-05-11T16:21:14Z</time>
</trkpt>
<trkpt lat="49.53050994314253" lon="9.324631663039328">
<ele>340.6</ele>
<time>2024-05-11T16:21:15Z</time>
</trkpt>
<trkpt lat="49.5304374396801" lon="9.324647840112448">
<ele>340.4</ele>
<time>2024-05-11T16:21:16Z</time>
</trkpt>
<trkpt lat="49.530364936217666" lon="9.32466695085168">
<ele>340.2</ele>
<time>2024-05-11T16:21:17Z</time>
</trkpt>
<trkpt lat="49.53029243275523" lon="9.32468505576253">
<ele>340</ele>
<time>2024-05-11T16:21:18Z</time>
</trkpt>
<trkpt lat="49.53021615743637" lon="9.32470508851111">
<ele>339.6</ele>
<time>2024-05-11T16:21:19Z</time>
</trkpt>
<trkpt lat="49.53013602644205" lon="9.324720343574882">
<ele>339.4</ele>
<time>2024-05-11T16:21:20Z</time>
</trkpt>
<trkpt lat="49.53005975112319" lon="9.324733670800924">
<ele>339.2</ele>
<time>2024-05-11T16:21:21Z</time>
</trkpt>
<trkpt lat="49.52998347580433" lon="9.324751775711777">
<ele>339</ele>
<time>2024-05-11T16:21:22Z</time>
</trkpt>
<trkpt lat="49.52990334481001" lon="9.32476518675685">
<ele>338.8</ele>
<time>2024-05-11T16:21:23Z</time>
</trkpt>
<trkpt lat="49.52983092516661" lon="9.324776586145164">
<ele>338.6</ele>
<time>2024-05-11T16:21:24Z</time>
</trkpt>
<trkpt lat="49.529754566028714" lon="9.324788069352508">
<ele>338.4</ele>
<time>2024-05-11T16:21:25Z</time>
</trkpt>
<trkpt lat="49.52967829070985" lon="9.324794691056011">
<ele>338.2</ele>
<time>2024-05-11T16:21:26Z</time>
</trkpt>
<trkpt lat="49.52960964292288" lon="9.32480139657855">
<ele>338</ele>
<time>2024-05-11T16:21:27Z</time>
</trkpt>
<trkpt lat="49.52953336760402" lon="9.32480332441628">
<ele>337.8</ele>
<time>2024-05-11T16:21:28Z</time>
</trkpt>
<trkpt lat="49.52946086414158" lon="9.32480525225401">
<ele>337.6</ele>
<time>2024-05-11T16:21:29Z</time>
</trkpt>
<trkpt lat="49.52938836067915" lon="9.324808102101088">
<ele>337.4</ele>
<time>2024-05-11T16:21:30Z</time>
</trkpt>
<trkpt lat="49.52932734042406" lon="9.32480525225401">
<ele>337.4</ele>
<time>2024-05-11T16:21:31Z</time>
</trkpt>
<trkpt lat="49.5292700920254" lon="9.32480139657855">
<ele>337.2</ele>
<time>2024-05-11T16:21:32Z</time>
</trkpt>
<trkpt lat="49.529201444238424" lon="9.3248004745692">
<ele>337</ele>
<time>2024-05-11T16:21:33Z</time>
</trkpt>
<trkpt lat="49.52913279645145" lon="9.32480332441628">
<ele>337</ele>
<time>2024-05-11T16:21:34Z</time>
</trkpt>
<trkpt lat="49.529064148664474" lon="9.32480525225401">
<ele>336.8</ele>
<time>2024-05-11T16:21:35Z</time>
</trkpt>
<trkpt lat="49.52899164520204" lon="9.324806174263358">
<ele>336.8</ele>
<time>2024-05-11T16:21:36Z</time>
</trkpt>
<trkpt lat="49.528922997415066" lon="9.32480525225401">
<ele>336.8</ele>
<time>2024-05-11T16:21:37Z</time>
</trkpt>
<trkpt lat="49.52885049395263" lon="9.32480332441628">
<ele>336.8</ele>
<time>2024-05-11T16:21:38Z</time>
</trkpt>
<trkpt lat="49.52878184616566" lon="9.32480332441628">
<ele>336.8</ele>
<time>2024-05-11T16:21:39Z</time>
</trkpt>
<trkpt lat="49.52871319837868" lon="9.3248004745692">
<ele>336.8</ele>
<time>2024-05-11T16:21:40Z</time>
</trkpt>
<trkpt lat="49.528648322448134" lon="9.324798546731472">
<ele>336.8</ele>
<time>2024-05-11T16:21:41Z</time>
</trkpt>
<trkpt lat="49.52858344651759" lon="9.3248004745692">
<ele>336.8</ele>
<time>2024-05-11T16:21:42Z</time>
</trkpt>
<trkpt lat="49.5285224262625" lon="9.32480139657855">
<ele>336.8</ele>
<time>2024-05-11T16:21:43Z</time>
</trkpt>
<trkpt lat="49.52846140600741" lon="9.324798546731472">
<ele>336.8</ele>
<time>2024-05-11T16:21:44Z</time>
</trkpt>
<trkpt lat="49.52839653007686" lon="9.324792847037315">
<ele>336.6</ele>
<time>2024-05-11T16:21:45Z</time>
</trkpt>
<trkpt lat="49.52833550982177" lon="9.324787063524129">
<ele>336.6</ele>
<time>2024-05-11T16:21:46Z</time>
</trkpt>
<trkpt lat="49.52827834524214" lon="9.324776586145164">
<ele>336.6</ele>
<time>2024-05-11T16:21:47Z</time>
</trkpt>
<trkpt lat="49.52821724116802" lon="9.32476325891912">
<ele>336.8</ele>
<time>2024-05-11T16:21:48Z</time>
</trkpt>
<trkpt lat="49.52816007658839" lon="9.32474515400827">
<ele>336.8</ele>
<time>2024-05-11T16:21:49Z</time>
</trkpt>
<trkpt lat="49.52810668386519" lon="9.32472704909742">
<ele>336.6</ele>
<time>2024-05-11T16:21:50Z</time>
</trkpt>
<trkpt lat="49.52804943546653" lon="9.324707938358188">
<ele>336.6</ele>
<time>2024-05-11T16:21:51Z</time>
</trkpt>
<trkpt lat="49.527992187067866" lon="9.324687905609608">
<ele>336.6</ele>
<time>2024-05-11T16:21:52Z</time>
</trkpt>
<trkpt lat="49.527938794344664" lon="9.324674578383563">
<ele>336.4</ele>
<time>2024-05-11T16:21:53Z</time>
</trkpt>
<trkpt lat="49.527881545946" lon="9.324661251157522">
<ele>336.4</ele>
<time>2024-05-11T16:21:54Z</time>
</trkpt>
<trkpt lat="49.52782438136637" lon="9.324649767950175">
<ele>336.2</ele>
<time>2024-05-11T16:21:55Z</time>
</trkpt>
<trkpt lat="49.52776336111128" lon="9.324634512886403">
<ele>336.2</ele>
<time>2024-05-11T16:21:56Z</time>
</trkpt>
<trkpt lat="49.52770988456905" lon="9.324620179831982">
<ele>336</ele>
<time>2024-05-11T16:21:57Z</time>
</trkpt>
<trkpt lat="49.52765271998942" lon="9.32460685260594">
<ele>336</ele>
<time>2024-05-11T16:21:58Z</time>
</trkpt>
<trkpt lat="49.52759169973433" lon="9.324591597542168">
<ele>335.8</ele>
<time>2024-05-11T16:21:59Z</time>
</trkpt>
<trkpt lat="49.52753445133567" lon="9.324575420469046">
<ele>335.8</ele>
<time>2024-05-11T16:22:00Z</time>
</trkpt>
<trkpt lat="49.52747720293701" lon="9.32456678710878">
<ele>335.6</ele>
<time>2024-05-11T16:22:01Z</time>
</trkpt>
<trkpt lat="49.52741618268192" lon="9.324555387720466">
<ele>335.6</ele>
<time>2024-05-11T16:22:02Z</time>
</trkpt>
<trkpt lat="49.52735516242683" lon="9.3245467543602">
<ele>335.4</ele>
<time>2024-05-11T16:22:03Z</time>
</trkpt>
<trkpt lat="49.52729028649628" lon="9.324541976675391">
<ele>335.4</ele>
<time>2024-05-11T16:22:04Z</time>
</trkpt>
<trkpt lat="49.52722926624119" lon="9.324531499296429">
<ele>335.2</ele>
<time>2024-05-11T16:22:05Z</time>
</trkpt>
<trkpt lat="49.527164390310645" lon="9.32452487759292">
<ele>335</ele>
<time>2024-05-11T16:22:06Z</time>
</trkpt>
<trkpt lat="49.52709959819913" lon="9.324515322223306">
<ele>335</ele>
<time>2024-05-11T16:22:07Z</time>
</trkpt>
<trkpt lat="49.52703849412501" lon="9.324509538710116">
<ele>334.8</ele>
<time>2024-05-11T16:22:08Z</time>
</trkpt>
<trkpt lat="49.526985101401806" lon="9.324502917006612">
<ele>334.8</ele>
<time>2024-05-11T16:22:09Z</time>
</trkpt>
<trkpt lat="49.52692030929029" lon="9.324501911178231">
<ele>334.6</ele>
<time>2024-05-11T16:22:10Z</time>
</trkpt>
<trkpt lat="49.52685920521617" lon="9.324501911178231">
<ele>334.4</ele>
<time>2024-05-11T16:22:11Z</time>
</trkpt>
<trkpt lat="49.52680204063654" lon="9.324501911178231">
<ele>334.2</ele>
<time>2024-05-11T16:22:12Z</time>
</trkpt>
<trkpt lat="49.52674479223788" lon="9.324502917006612">
<ele>334</ele>
<time>2024-05-11T16:22:13Z</time>
</trkpt>
<trkpt lat="49.526691399514675" lon="9.324508616700768">
<ele>333.6</ele>
<time>2024-05-11T16:22:14Z</time>
</trkpt>
<trkpt lat="49.5266417786479" lon="9.324513394385576">
<ele>333.2</ele>
<time>2024-05-11T16:22:15Z</time>
</trkpt>
<trkpt lat="49.52659224160016" lon="9.324515322223306">
<ele>333</ele>
<time>2024-05-11T16:22:16Z</time>
</trkpt>
<trkpt lat="49.526550248265266" lon="9.32450668886304">
<ele>332.8</ele>
<time>2024-05-11T16:22:17Z</time>
</trkpt>
<trkpt lat="49.52650825493038" lon="9.324489589780567">
<ele>332.8</ele>
<time>2024-05-11T16:22:18Z</time>
</trkpt>
<trkpt lat="49.526473972946405" lon="9.324471401050689">
<ele>332.6</ele>
<time>2024-05-11T16:22:19Z</time>
</trkpt>
<trkpt lat="49.52644346281886" lon="9.324448518455029">
<ele>332.6</ele>
<time>2024-05-11T16:22:20Z</time>
</trkpt>
<trkpt lat="49.5264205802232" lon="9.324421864002945">
<ele>332.6</ele>
<time>2024-05-11T16:22:21Z</time>
</trkpt>
<trkpt lat="49.52640146948397" lon="9.324390348047018">
<ele>332.4</ele>
<time>2024-05-11T16:22:22Z</time>
</trkpt>
<trkpt lat="49.52637858688831" lon="9.324359837919474">
<ele>332.4</ele>
<time>2024-05-11T16:22:23Z</time>
</trkpt>
<trkpt lat="49.526355704292655" lon="9.324330249801278">
<ele>332.4</ele>
<time>2024-05-11T16:22:24Z</time>
</trkpt>
<trkpt lat="49.526332821697" lon="9.324297895655036">
<ele>332.4</ele>
<time>2024-05-11T16:22:25Z</time>
</trkpt>
<trkpt lat="49.52630993910134" lon="9.324259757995604">
<ele>332.4</ele>
<time>2024-05-11T16:22:26Z</time>
</trkpt>
<trkpt lat="49.52628705650568" lon="9.324214914813638">
<ele>332.4</ele>
<time>2024-05-11T16:22:27Z</time>
</trkpt>
<trkpt lat="49.52626794576645" lon="9.324163366109133">
<ele>332.4</ele>
<time>2024-05-11T16:22:28Z</time>
</trkpt>
<trkpt lat="49.52625269070268" lon="9.324101423844697">
<ele>332.4</ele>
<time>2024-05-11T16:22:29Z</time>
</trkpt>
<trkpt lat="49.526237435638905" lon="9.324040403589606">
<ele>332.4</ele>
<time>2024-05-11T16:22:30Z</time>
</trkpt>
<trkpt lat="49.52622218057513" lon="9.32397460564971">
<ele>332.4</ele>
<time>2024-05-11T16:22:31Z</time>
</trkpt>
<trkpt lat="49.52620315365493" lon="9.323904952034354">
<ele>332.2</ele>
<time>2024-05-11T16:22:32Z</time>
</trkpt>
<trkpt lat="49.5261840429157" lon="9.323831526562572">
<ele>332.2</ele>
<time>2024-05-11T16:22:33Z</time>
</trkpt>
<trkpt lat="49.52616493217647" lon="9.32375525124371">
<ele>332</ele>
<time>2024-05-11T16:22:34Z</time>
</trkpt>
<trkpt lat="49.52614590525627" lon="9.32367704808712">
<ele>332</ele>
<time>2024-05-11T16:22:35Z</time>
</trkpt>
<trkpt lat="49.52612679451704" lon="9.323597839102147">
<ele>332</ele>
<time>2024-05-11T16:22:36Z</time>
</trkpt>
<trkpt lat="49.52611153945327" lon="9.32351963594556">
<ele>332</ele>
<time>2024-05-11T16:22:37Z</time>
</trkpt>
<trkpt lat="49.526096284389496" lon="9.32343858294189">
<ele>332</ele>
<time>2024-05-11T16:22:38Z</time>
</trkpt>
<trkpt lat="49.5260772574693" lon="9.32336138561368">
<ele>331.8</ele>
<time>2024-05-11T16:22:39Z</time>
</trkpt>
<trkpt lat="49.526058146730065" lon="9.323286954313517">
<ele>331.8</ele>
<time>2024-05-11T16:22:40Z</time>
</trkpt>
<trkpt lat="49.52603526413441" lon="9.323215456679463">
<ele>331.6</ele>
<time>2024-05-11T16:22:41Z</time>
</trkpt>
<trkpt lat="49.526016153395176" lon="9.32314203120768">
<ele>331.4</ele>
<time>2024-05-11T16:22:42Z</time>
</trkpt>
<trkpt lat="49.52599712647498" lon="9.323069527745249">
<ele>331.4</ele>
<time>2024-05-11T16:22:43Z</time>
</trkpt>
<trkpt lat="49.5259818714112" lon="9.322999874129891">
<ele>331.4</ele>
<time>2024-05-11T16:22:45Z</time>
</trkpt>
<trkpt lat="49.52596661634743" lon="9.322930304333568">
<ele>331.4</ele>
<time>2024-05-11T16:22:46Z</time>
</trkpt>
<trkpt lat="49.52593610621989" lon="9.322798708453774">
<ele>331.4</ele>
<time>2024-05-11T16:22:47Z</time>
</trkpt>
<trkpt lat="49.52592462301254" lon="9.322734754532576">
<ele>331.4</ele>
<time>2024-05-11T16:22:48Z</time>
</trkpt>
<trkpt lat="49.52590936794877" lon="9.322671890258787">
<ele>331.4</ele>
<time>2024-05-11T16:22:49Z</time>
</trkpt>
<trkpt lat="49.52589796856046" lon="9.32260986417532">
<ele>331.4</ele>
<time>2024-05-11T16:22:50Z</time>
</trkpt>
<trkpt lat="49.52588648535311" lon="9.322544988244772">
<ele>331.4</ele>
<time>2024-05-11T16:22:51Z</time>
</trkpt>
<trkpt lat="49.5258750859648" lon="9.322482040151954">
<ele>331.6</ele>
<time>2024-05-11T16:22:52Z</time>
</trkpt>
<trkpt lat="49.52585983090103" lon="9.322416242212055">
<ele>331.6</ele>
<time>2024-05-11T16:22:53Z</time>
</trkpt>
<trkpt lat="49.52584072016179" lon="9.32235329411924">
<ele>331.6</ele>
<time>2024-05-11T16:22:54Z</time>
</trkpt>
<trkpt lat="49.52582546509802" lon="9.3222913518548">
<ele>331.6</ele>
<time>2024-05-11T16:22:55Z</time>
</trkpt>
<trkpt lat="49.52580635435879" lon="9.322228403761985">
<ele>331.8</ele>
<time>2024-05-11T16:22:56Z</time>
</trkpt>
<trkpt lat="49.52579109929502" lon="9.322168305516245">
<ele>331.8</ele>
<time>2024-05-11T16:22:57Z</time>
</trkpt>
<trkpt lat="49.52577584423125" lon="9.322106279432774">
<ele>331.8</ele>
<time>2024-05-11T16:22:58Z</time>
</trkpt>
<trkpt lat="49.52576058916747" lon="9.322046265006064">
<ele>331.8</ele>
<time>2024-05-11T16:22:59Z</time>
</trkpt>
<trkpt lat="49.52574156224728" lon="9.321988094598057">
<ele>331.8</ele>
<time>2024-05-11T16:23:00Z</time>
</trkpt>
<trkpt lat="49.525726307183504" lon="9.321933696046472">
<ele>331.8</ele>
<time>2024-05-11T16:23:01Z</time>
</trkpt>
<trkpt lat="49.52569956891239" lon="9.321883153170347">
<ele>331.8</ele>
<time>2024-05-11T16:23:02Z</time>
</trkpt>
<trkpt lat="49.52567283064127" lon="9.321836465969682">
<ele>332</ele>
<time>2024-05-11T16:23:03Z</time>
</trkpt>
<trkpt lat="49.525646176189184" lon="9.321791622787714">
<ele>332</ele>
<time>2024-05-11T16:23:04Z</time>
</trkpt>
<trkpt lat="49.52561943791807" lon="9.321746779605746">
<ele>332</ele>
<time>2024-05-11T16:23:05Z</time>
</trkpt>
<trkpt lat="49.52558892779052" lon="9.32170193642378">
<ele>332</ele>
<time>2024-05-11T16:23:06Z</time>
</trkpt>
<trkpt lat="49.52555841766298" lon="9.321656171232462">
<ele>332</ele>
<time>2024-05-11T16:23:07Z</time>
</trkpt>
<trkpt lat="49.52553176321089" lon="9.321610406041144">
<ele>332</ele>
<time>2024-05-11T16:23:08Z</time>
</trkpt>
<trkpt lat="49.525505024939775" lon="9.32156179100275">
<ele>332</ele>
<time>2024-05-11T16:23:09Z</time>
</trkpt>
<trkpt lat="49.52547451481223" lon="9.321513175964355">
<ele>332</ele>
<time>2024-05-11T16:23:10Z</time>
</trkpt>
<trkpt lat="49.525447776541114" lon="9.321468332782388">
<ele>332</ele>
<time>2024-05-11T16:23:11Z</time>
</trkpt>
<trkpt lat="49.52542112208903" lon="9.32142348960042">
<ele>332</ele>
<time>2024-05-11T16:23:12Z</time>
</trkpt>
<trkpt lat="49.52539438381791" lon="9.321374874562023">
<ele>332.2</ele>
<time>2024-05-11T16:23:13Z</time>
</trkpt>
<trkpt lat="49.52537150122225" lon="9.321328103542328">
<ele>332.2</ele>
<time>2024-05-11T16:23:14Z</time>
</trkpt>
<trkpt lat="49.52534484677017" lon="9.321279488503931">
<ele>332.2</ele>
<time>2024-05-11T16:23:15Z</time>
</trkpt>
<trkpt lat="49.52531810849905" lon="9.321229867637156">
<ele>332.2</ele>
<time>2024-05-11T16:23:16Z</time>
</trkpt>
<trkpt lat="49.525287598371506" lon="9.321180330589414">
<ele>332.2</ele>
<time>2024-05-11T16:23:17Z</time>
</trkpt>
<trkpt lat="49.52525708824396" lon="9.32112785987556">
<ele>332.2</ele>
<time>2024-05-11T16:23:18Z</time>
</trkpt>
<trkpt lat="49.52522657811642" lon="9.321075389161706">
<ele>332.2</ele>
<time>2024-05-11T16:23:19Z</time>
</trkpt>
<trkpt lat="49.5251998398453" lon="9.321020068600774">
<ele>332.2</ele>
<time>2024-05-11T16:23:20Z</time>
</trkpt>
<trkpt lat="49.52516170218587" lon="9.32096952572465">
<ele>332.2</ele>
<time>2024-05-11T16:23:21Z</time>
</trkpt>
<trkpt lat="49.52512356452644" lon="9.32092853821814">
<ele>332</ele>
<time>2024-05-11T16:23:22Z</time>
</trkpt>
<trkpt lat="49.52507779933512" lon="9.320893250405788">
<ele>332</ele>
<time>2024-05-11T16:23:23Z</time>
</trkpt>
<trkpt lat="49.52502440661192" lon="9.32087128981948">
<ele>331.8</ele>
<time>2024-05-11T16:23:24Z</time>
</trkpt>
<trkpt lat="49.524970930069685" lon="9.320857962593436">
<ele>331.8</ele>
<time>2024-05-11T16:23:25Z</time>
</trkpt>
<trkpt lat="49.524913765490055" lon="9.3208512570709">
<ele>331.8</ele>
<time>2024-05-11T16:23:26Z</time>
</trkpt>
<trkpt lat="49.524852745234966" lon="9.32085033506155">
<ele>331.6</ele>
<time>2024-05-11T16:23:27Z</time>
</trkpt>
<trkpt lat="49.524795496836305" lon="9.320853184908628">
<ele>331.4</ele>
<time>2024-05-11T16:23:28Z</time>
</trkpt>
<trkpt lat="49.5247421041131" lon="9.320857962593436">
<ele>331.2</ele>
<time>2024-05-11T16:23:29Z</time>
</trkpt>
<trkpt lat="49.52468485571444" lon="9.320866512134671">
<ele>331</ele>
<time>2024-05-11T16:23:30Z</time>
</trkpt>
<trkpt lat="49.52463146299124" lon="9.320875145494938">
<ele>330.8</ele>
<time>2024-05-11T16:23:31Z</time>
</trkpt>
<trkpt lat="49.52458184212446" lon="9.320884700864552">
<ele>330.6</ele>
<time>2024-05-11T16:23:32Z</time>
</trkpt>
<trkpt lat="49.524536076933146" lon="9.320897022262216">
<ele>330.2</ele>
<time>2024-05-11T16:23:33Z</time>
</trkpt>
<trkpt lat="49.5244865398854" lon="9.32090850546956">
<ele>329.8</ele>
<time>2024-05-11T16:23:34Z</time>
</trkpt>
<trkpt lat="49.52444831840694" lon="9.320918060839176">
<ele>329.4</ele>
<time>2024-05-11T16:23:35Z</time>
</trkpt>
<trkpt lat="49.52440640889108" lon="9.320924682542682">
<ele>329.2</ele>
<time>2024-05-11T16:23:36Z</time>
</trkpt>
<trkpt lat="49.52436827123165" lon="9.32093138806522">
<ele>328.8</ele>
<time>2024-05-11T16:23:37Z</time>
</trkpt>
<trkpt lat="49.52433013357222" lon="9.320939937606454">
<ele>328.4</ele>
<time>2024-05-11T16:23:38Z</time>
</trkpt>
<trkpt lat="49.52429191209376" lon="9.320946643128991">
<ele>328</ele>
<time>2024-05-11T16:23:39Z</time>
</trkpt>
<trkpt lat="49.52425377443433" lon="9.32094857096672">
<ele>327.6</ele>
<time>2024-05-11T16:23:40Z</time>
</trkpt>
<trkpt lat="49.524204237386584" lon="9.320941865444183">
<ele>327.2</ele>
<time>2024-05-11T16:23:41Z</time>
</trkpt>
<trkpt lat="49.52415084466338" lon="9.32093046605587">
<ele>326.8</ele>
<time>2024-05-11T16:23:42Z</time>
</trkpt>
<trkpt lat="49.52409359626472" lon="9.320933315902948">
<ele>326.4</ele>
<time>2024-05-11T16:23:43Z</time>
</trkpt>
<trkpt lat="49.52404020354152" lon="9.320944715291262">
<ele>325.8</ele>
<time>2024-05-11T16:23:44Z</time>
</trkpt>
<trkpt lat="49.523986810818315" lon="9.320962904021144">
<ele>325.4</ele>
<time>2024-05-11T16:23:46Z</time>
</trkpt>
<trkpt lat="49.52393718995154" lon="9.320986708626153">
<ele>324.8</ele>
<time>2024-05-11T16:23:47Z</time>
</trkpt>
<trkpt lat="49.52385328710079" lon="9.321026774123313">
<ele>323.8</ele>
<time>2024-05-11T16:23:48Z</time>
</trkpt>
<trkpt lat="49.52382277697325" lon="9.321042951196432">
<ele>323.6</ele>
<time>2024-05-11T16:23:49Z</time>
</trkpt>
<trkpt lat="49.52378841117024" lon="9.321055356413126">
<ele>323.2</ele>
<time>2024-05-11T16:23:50Z</time>
</trkpt>
<trkpt lat="49.52376167289913" lon="9.321062061935663">
<ele>323</ele>
<time>2024-05-11T16:23:51Z</time>
</trkpt>
<trkpt lat="49.52373116277158" lon="9.321066839620473">
<ele>322.6</ele>
<time>2024-05-11T16:23:52Z</time>
</trkpt>
<trkpt lat="49.5237045083195" lon="9.321073461323977">
<ele>322.4</ele>
<time>2024-05-11T16:23:53Z</time>
</trkpt>
<trkpt lat="49.52367777004838" lon="9.321082094684243">
<ele>322.4</ele>
<time>2024-05-11T16:23:54Z</time>
</trkpt>
<trkpt lat="49.523651115596294" lon="9.32109165005386">
<ele>322.2</ele>
<time>2024-05-11T16:23:55Z</time>
</trkpt>
<trkpt lat="49.52362437732518" lon="9.321104977279902">
<ele>322.2</ele>
<time>2024-05-11T16:23:56Z</time>
</trkpt>
<trkpt lat="49.52359386719763" lon="9.321116376668217">
<ele>322.2</ele>
<time>2024-05-11T16:23:57Z</time>
</trkpt>
<trkpt lat="49.52356712892651" lon="9.32112978771329">
<ele>322</ele>
<time>2024-05-11T16:23:58Z</time>
</trkpt>
<trkpt lat="49.52353661879897" lon="9.321143114939332">
<ele>322</ele>
<time>2024-05-11T16:23:59Z</time>
</trkpt>
<trkpt lat="49.52350610867143" lon="9.321154514327644">
<ele>322</ele>
<time>2024-05-11T16:24:00Z</time>
</trkpt>
<trkpt lat="49.523471826687455" lon="9.32116691954434">
<ele>321.8</ele>
<time>2024-05-11T16:24:01Z</time>
</trkpt>
<trkpt lat="49.52344508841634" lon="9.321183180436492">
<ele>322</ele>
<time>2024-05-11T16:24:02Z</time>
</trkpt>
<trkpt lat="49.52342597767711" lon="9.321209834888576">
<ele>321.8</ele>
<time>2024-05-11T16:24:03Z</time>
</trkpt>
<trkpt lat="49.52340695075691" lon="9.321238500997424">
<ele>321.8</ele>
<time>2024-05-11T16:24:04Z</time>
</trkpt>
<trkpt lat="49.523391695693135" lon="9.321256605908276">
<ele>321.8</ele>
<time>2024-05-11T16:24:05Z</time>
</trkpt>
<trkpt lat="49.52337644062936" lon="9.321268005296588">
<ele>321.8</ele>
<time>2024-05-11T16:24:06Z</time>
</trkpt>
<trkpt lat="49.52336495742202" lon="9.321273788809776">
<ele>321.8</ele>
<time>2024-05-11T16:24:07Z</time>
</trkpt>
<trkpt lat="49.523353558033705" lon="9.321273788809776">
<ele>321.8</ele>
<time>2024-05-11T16:24:08Z</time>
</trkpt>
<trkpt lat="49.52334593050182" lon="9.321274710819123">
<ele>321.8</ele>
<time>2024-05-11T16:24:09Z</time>
</trkpt>
<trkpt lat="49.52333830296993" lon="9.321273788809776">
<ele>321.8</ele>
<time>2024-05-11T16:24:10Z</time>
</trkpt>
<trkpt lat="49.52332681976259" lon="9.321279488503931">
<ele>321.6</ele>
<time>2024-05-11T16:24:11Z</time>
</trkpt>
<trkpt lat="49.5233191922307" lon="9.321288038045168">
<ele>321.6</ele>
<time>2024-05-11T16:24:12Z</time>
</trkpt>
<trkpt lat="49.523311564698815" lon="9.321294743567703">
<ele>321.6</ele>
<time>2024-05-11T16:24:13Z</time>
</trkpt>
<trkpt lat="49.52330779284239" lon="9.321301449090242">
<ele>321.6</ele>
<time>2024-05-11T16:24:14Z</time>
</trkpt>
<trkpt lat="49.52330779284239" lon="9.32130522094667">
<ele>321.8</ele>
<time>2024-05-11T16:24:15Z</time>
</trkpt>
<trkpt lat="49.52330393716693" lon="9.321309998631476">
<ele>321.8</ele>
<time>2024-05-11T16:24:16Z</time>
</trkpt>
<trkpt lat="49.5233001653105" lon="9.321314776316283">
<ele>321.8</ele>
<time>2024-05-11T16:24:17Z</time>
</trkpt>
<trkpt lat="49.5233001653105" lon="9.32132525369525">
<ele>321.8</ele>
<time>2024-05-11T16:24:18Z</time>
</trkpt>
<trkpt lat="49.5233001653105" lon="9.321336736902596">
<ele>322</ele>
<time>2024-05-11T16:24:19Z</time>
</trkpt>
<trkpt lat="49.5233001653105" lon="9.321346208453178">
<ele>322</ele>
<time>2024-05-11T16:24:20Z</time>
</trkpt>
<trkpt lat="49.52330393716693" lon="9.321358613669872">
<ele>322.2</ele>
<time>2024-05-11T16:24:21Z</time>
</trkpt>
<trkpt lat="49.5233001653105" lon="9.321368169039488">
<ele>322.2</ele>
<time>2024-05-11T16:24:22Z</time>
</trkpt>
<trkpt lat="49.5233001653105" lon="9.32138342410326">
<ele>322.4</ele>
<time>2024-05-11T16:24:23Z</time>
</trkpt>
<trkpt lat="49.5233001653105" lon="9.321394907310603">
<ele>322.4</ele>
<time>2024-05-11T16:24:24Z</time>
</trkpt>
<trkpt lat="49.52329630963504" lon="9.321399684995413">
<ele>322.4</ele>
<time>2024-05-11T16:24:25Z</time>
</trkpt>
<trkpt lat="49.52329630963504" lon="9.321412006393077">
<ele>322.2</ele>
<time>2024-05-11T16:24:26Z</time>
</trkpt>
<trkpt lat="49.52329630963504" lon="9.321426339447498">
<ele>322.4</ele>
<time>2024-05-11T16:24:27Z</time>
</trkpt>
<trkpt lat="49.5233001653105" lon="9.321438744664192">
<ele>322.4</ele>
<time>2024-05-11T16:24:28Z</time>
</trkpt>
<trkpt lat="49.5233001653105" lon="9.321448300033808">
<ele>322.6</ele>
<time>2024-05-11T16:24:29Z</time>
</trkpt>
<trkpt lat="49.5233001653105" lon="9.321451149880886">
<ele>322.6</ele>
<time>2024-05-11T16:24:30Z</time>
</trkpt>
<trkpt lat="49.5233001653105" lon="9.321453077718616">
<ele>322.8</ele>
<time>2024-05-11T16:24:32Z</time>
</trkpt>
<trkpt lat="49.52329630963504" lon="9.321454921737311">
<ele>322.8</ele>
<time>2024-05-11T16:24:33Z</time>
</trkpt>
<trkpt lat="49.52329630963504" lon="9.321454921737311">
<ele>322.8</ele>
</trkpt>
</trkseg>
</trk>
</gpx>